<?xml version='1.0' encoding='UTF-8'?><gpx version="1.1" creator="JPX - https://github.com/jenetics/jpx" xmlns="http://www.topografix.com/GPX/1/1"><trk><trkseg><trkpt lat="44.48036781840099" lon="7.872993051648353"><ele>363.0</ele><time>2026-05-03T07:04:16.649Z</time></trkpt><trkpt lat="44.47960526076024" lon="7.8728049213441205"><ele>363.2</ele><time>2026-05-03T07:04:32.3Z</time></trkpt><trkpt lat="44.4795899919257" lon="7.872993917482017"><ele>363.4</ele><time>2026-05-03T07:04:51.999Z</time></trkpt><trkpt lat="44.479505609947395" lon="7.8729930932375405"><ele>363.59999999999997</ele><time>2026-05-03T07:04:52.999Z</time></trkpt><trkpt lat="44.479557721767726" lon="7.8730947261863635"><ele>363.79999999999995</ele><time>2026-05-03T07:04:59Z</time></trkpt><trkpt lat="44.47956386674082" lon="7.872991099009937"><ele>364.0</ele><time>2026-05-03T07:05:15Z</time></trkpt><trkpt lat="44.479512009287575" lon="7.872797784320765"><ele>364.0</ele><time>2026-05-03T07:05:16Z</time></trkpt><trkpt lat="44.47951648260019" lon="7.8727030404865905"><ele>364.0</ele><time>2026-05-03T07:05:20Z</time></trkpt><trkpt lat="44.479602145170034" lon="7.872672097633626"><ele>364.0</ele><time>2026-05-03T07:05:23Z</time></trkpt><trkpt lat="44.47968087158645" lon="7.8726549260269225"><ele>364.0</ele><time>2026-05-03T07:05:25Z</time></trkpt><trkpt lat="44.479803336261526" lon="7.872643428527966"><ele>364.0</ele><time>2026-05-03T07:05:28Z</time></trkpt><trkpt lat="44.4798747730898" lon="7.872626406159427"><ele>364.0</ele><time>2026-05-03T07:05:29.999Z</time></trkpt><trkpt lat="44.47997602681364" lon="7.8725981837288135"><ele>363.79999999999995</ele><time>2026-05-03T07:05:30.999Z</time></trkpt><trkpt lat="44.48007837790155" lon="7.872572506710236"><ele>363.59999999999997</ele><time>2026-05-03T07:05:31.999Z</time></trkpt><trkpt lat="44.4801911939699" lon="7.87253661532765"><ele>363.4</ele><time>2026-05-03T07:05:32.999Z</time></trkpt><trkpt lat="44.48027363047679" lon="7.872504939689979"><ele>363.2</ele><time>2026-05-03T07:05:33.999Z</time></trkpt><trkpt lat="44.480360010431006" lon="7.872460498724122"><ele>363.0</ele><time>2026-05-03T07:05:35.999Z</time></trkpt><trkpt lat="44.480573312713815" lon="7.8723503771237135"><ele>363.0</ele><time>2026-05-03T07:05:36.999Z</time></trkpt><trkpt lat="44.480637835822726" lon="7.8723233286629215"><ele>363.0</ele><time>2026-05-03T07:05:37.999Z</time></trkpt><trkpt lat="44.48069590879407" lon="7.872284004804904"><ele>363.0</ele><time>2026-05-03T07:05:38.999Z</time></trkpt><trkpt lat="44.48078283942357" lon="7.872190975734419"><ele>363.0</ele><time>2026-05-03T07:05:40.999Z</time></trkpt><trkpt lat="44.48083896955421" lon="7.872045333572388"><ele>363.0</ele><time>2026-05-03T07:05:42.999Z</time></trkpt><trkpt lat="44.48075809782655" lon="7.871921184378627"><ele>363.0</ele><time>2026-05-03T07:05:43.999Z</time></trkpt><trkpt lat="44.48071873596203" lon="7.871831288323365"><ele>363.0</ele><time>2026-05-03T07:05:44.999Z</time></trkpt><trkpt lat="44.480681451239036" lon="7.871736580641698"><ele>363.0</ele><time>2026-05-03T07:05:45.999Z</time></trkpt><trkpt lat="44.48064152454426" lon="7.871635943707177"><ele>363.0</ele><time>2026-05-03T07:05:46.999Z</time></trkpt><trkpt lat="44.480598216058844" lon="7.871537599301401"><ele>363.0</ele><time>2026-05-03T07:05:47.999Z</time></trkpt><trkpt lat="44.480557840757534" lon="7.871442005908603"><ele>363.0</ele><time>2026-05-03T07:05:48.999Z</time></trkpt><trkpt lat="44.48050885465777" lon="7.8713464032121685"><ele>363.0</ele><time>2026-05-03T07:05:49.999Z</time></trkpt><trkpt lat="44.480450405133205" lon="7.871254332163895"><ele>363.0</ele><time>2026-05-03T07:05:50.999Z</time></trkpt><trkpt lat="44.48038083077645" lon="7.871162801747375"><ele>363.0</ele><time>2026-05-03T07:05:51.999Z</time></trkpt><trkpt lat="44.48031313987393" lon="7.871068080549749"><ele>363.0</ele><time>2026-05-03T07:05:52.999Z</time></trkpt><trkpt lat="44.480231539486866" lon="7.870979272139981"><ele>363.0</ele><time>2026-05-03T07:05:53.999Z</time></trkpt><trkpt lat="44.48014227415492" lon="7.870902627831801"><ele>363.0</ele><time>2026-05-03T07:05:54.999Z</time></trkpt><trkpt lat="44.4800566195276" lon="7.870818256477487"><ele>363.0</ele><time>2026-05-03T07:05:55.999Z</time></trkpt><trkpt lat="44.4799604229866" lon="7.870724873323039"><ele>363.0</ele><time>2026-05-03T07:05:56.999Z</time></trkpt><trkpt lat="44.47987196891639" lon="7.870639747466403"><ele>363.0</ele><time>2026-05-03T07:05:57.999Z</time></trkpt><trkpt lat="44.47979399314934" lon="7.87056291357584"><ele>363.0</ele><time>2026-05-03T07:05:58.999Z</time></trkpt><trkpt lat="44.47971394147775" lon="7.870482143647425"><ele>363.0</ele><time>2026-05-03T07:05:59.999Z</time></trkpt><trkpt lat="44.47963004063943" lon="7.870401172405149"><ele>363.0</ele><time>2026-05-03T07:06:00.999Z</time></trkpt><trkpt lat="44.47954974801236" lon="7.870313644625438"><ele>363.0</ele><time>2026-05-03T07:06:01.999Z</time></trkpt><trkpt lat="44.47947195944637" lon="7.8702358525703096"><ele>363.0</ele><time>2026-05-03T07:06:02.999Z</time></trkpt><trkpt lat="44.47940687721976" lon="7.870168793367442"><ele>363.0</ele><time>2026-05-03T07:06:03.999Z</time></trkpt><trkpt lat="44.479339325141176" lon="7.870104170013331"><ele>363.0</ele><time>2026-05-03T07:06:04.999Z</time></trkpt><trkpt lat="44.47927848807433" lon="7.870041713222114"><ele>363.0</ele><time>2026-05-03T07:06:05.999Z</time></trkpt><trkpt lat="44.47922128310493" lon="7.869992330515659"><ele>363.0</ele><time>2026-05-03T07:06:06.999Z</time></trkpt><trkpt lat="44.479132961804304" lon="7.869908704933049"><ele>363.0</ele><time>2026-05-03T07:06:08.999Z</time></trkpt><trkpt lat="44.47908099770268" lon="7.869847547713172"><ele>363.0</ele><time>2026-05-03T07:06:11.999Z</time></trkpt><trkpt lat="44.47916187433283" lon="7.869707731558312"><ele>363.0</ele><time>2026-05-03T07:06:16.999Z</time></trkpt><trkpt lat="44.479233784732706" lon="7.869558533296632"><ele>363.0</ele><time>2026-05-03T07:06:18.999Z</time></trkpt><trkpt lat="44.47927613009992" lon="7.869470675970781"><ele>363.0</ele><time>2026-05-03T07:06:19.999Z</time></trkpt><trkpt lat="44.4793170634601" lon="7.869385748250028"><ele>363.0</ele><time>2026-05-03T07:06:20.999Z</time></trkpt><trkpt lat="44.479361433231745" lon="7.869293260168533"><ele>363.0</ele><time>2026-05-03T07:06:21.999Z</time></trkpt><trkpt lat="44.479411355307725" lon="7.869186723448159"><ele>363.0</ele><time>2026-05-03T07:06:22.999Z</time></trkpt><trkpt lat="44.47946482967411" lon="7.869072605925482"><ele>363.0</ele><time>2026-05-03T07:06:23.999Z</time></trkpt><trkpt lat="44.47950604654596" lon="7.86898464663672"><ele>363.0</ele><time>2026-05-03T07:06:24.999Z</time></trkpt><trkpt lat="44.479542223015606" lon="7.868907730121692"><ele>363.0</ele><time>2026-05-03T07:06:25.999Z</time></trkpt><trkpt lat="44.47958094684114" lon="7.868825436434293"><ele>363.0</ele><time>2026-05-03T07:06:26.999Z</time></trkpt><trkpt lat="44.47961007000262" lon="7.868740394259769"><ele>363.0</ele><time>2026-05-03T07:06:27.999Z</time></trkpt><trkpt lat="44.47968600268925" lon="7.868637538402623"><ele>363.0</ele><time>2026-05-03T07:06:29.999Z</time></trkpt><trkpt lat="44.479851619757376" lon="7.868679046857224"><ele>363.0</ele><time>2026-05-03T07:06:39.998Z</time></trkpt><trkpt lat="44.47993627770444" lon="7.868750898962372"><ele>363.0</ele><time>2026-05-03T07:06:41.998Z</time></trkpt><trkpt lat="44.48002634767733" lon="7.868821806299935"><ele>363.0</ele><time>2026-05-03T07:06:43.998Z</time></trkpt><trkpt lat="44.48008700251461" lon="7.868880843180954"><ele>363.0</ele><time>2026-05-03T07:06:44.998Z</time></trkpt><trkpt lat="44.48014768208754" lon="7.868948638746494"><ele>363.0</ele><time>2026-05-03T07:06:45.998Z</time></trkpt><trkpt lat="44.48021201268061" lon="7.869020535246314"><ele>363.0</ele><time>2026-05-03T07:06:46.998Z</time></trkpt><trkpt lat="44.48027691160931" lon="7.869100338429342"><ele>363.0</ele><time>2026-05-03T07:06:47.998Z</time></trkpt><trkpt lat="44.48034439943974" lon="7.8691961225635"><ele>363.0</ele><time>2026-05-03T07:06:48.998Z</time></trkpt><trkpt lat="44.48041987297796" lon="7.869296408658396"><ele>363.0</ele><time>2026-05-03T07:06:49.998Z</time></trkpt><trkpt lat="44.480500376589944" lon="7.86939377442082"><ele>363.0</ele><time>2026-05-03T07:06:50.998Z</time></trkpt><trkpt lat="44.48058339130489" lon="7.869504882081092"><ele>363.0</ele><time>2026-05-03T07:06:51.998Z</time></trkpt><trkpt lat="44.48066515246568" lon="7.86962361849053"><ele>363.0</ele><time>2026-05-03T07:06:52.998Z</time></trkpt><trkpt lat="44.48075204097152" lon="7.869747869954024"><ele>363.0</ele><time>2026-05-03T07:06:53.998Z</time></trkpt><trkpt lat="44.48082566458806" lon="7.86986985692249"><ele>363.0</ele><time>2026-05-03T07:06:55Z</time></trkpt><trkpt lat="44.48090725407033" lon="7.869995258914966"><ele>363.0</ele><time>2026-05-03T07:06:56Z</time></trkpt><trkpt lat="44.48099518320734" lon="7.870133719046366"><ele>363.0</ele><time>2026-05-03T07:06:57Z</time></trkpt><trkpt lat="44.48108765258487" lon="7.870275535523568"><ele>363.0</ele><time>2026-05-03T07:06:58Z</time></trkpt><trkpt lat="44.481177416891136" lon="7.870425090501147"><ele>363.0</ele><time>2026-05-03T07:06:59Z</time></trkpt><trkpt lat="44.481271222915254" lon="7.8705791909180185"><ele>363.0</ele><time>2026-05-03T07:07:00Z</time></trkpt><trkpt lat="44.481364072266175" lon="7.870724025478518"><ele>363.25</ele><time>2026-05-03T07:07:01Z</time></trkpt><trkpt lat="44.48145495304335" lon="7.8708851128903285"><ele>363.5</ele><time>2026-05-03T07:07:02Z</time></trkpt><trkpt lat="44.48154816311743" lon="7.871042730856791"><ele>363.75</ele><time>2026-05-03T07:07:03Z</time></trkpt><trkpt lat="44.4816400382319" lon="7.871211571173242"><ele>364.0</ele><time>2026-05-03T07:07:04Z</time></trkpt><trkpt lat="44.48174057325257" lon="7.87137914673649"><ele>364.0</ele><time>2026-05-03T07:07:05Z</time></trkpt><trkpt lat="44.481830518247996" lon="7.871549643649396"><ele>364.0</ele><time>2026-05-03T07:07:06Z</time></trkpt><trkpt lat="44.48192702275125" lon="7.871710761363632"><ele>364.0</ele><time>2026-05-03T07:07:07Z</time></trkpt><trkpt lat="44.48201490367734" lon="7.871868692812063"><ele>364.0</ele><time>2026-05-03T07:07:08Z</time></trkpt><trkpt lat="44.48210765786374" lon="7.872015663495888"><ele>363.25</ele><time>2026-05-03T07:07:09Z</time></trkpt><trkpt lat="44.48220485030346" lon="7.8721786460710526"><ele>362.5</ele><time>2026-05-03T07:07:10Z</time></trkpt><trkpt lat="44.48229571412185" lon="7.872339503720225"><ele>361.75</ele><time>2026-05-03T07:07:11Z</time></trkpt><trkpt lat="44.48238363792683" lon="7.872501316024451"><ele>361.0</ele><time>2026-05-03T07:07:12Z</time></trkpt><trkpt lat="44.482475528346505" lon="7.872661375683422"><ele>360.66666666666663</ele><time>2026-05-03T07:07:13Z</time></trkpt><trkpt lat="44.482569707047396" lon="7.872831182070886"><ele>360.3333333333333</ele><time>2026-05-03T07:07:14Z</time></trkpt><trkpt lat="44.48266471929403" lon="7.8729994905826715"><ele>360.0</ele><time>2026-05-03T07:07:15Z</time></trkpt><trkpt lat="44.482762186788975" lon="7.873167305857248"><ele>360.0</ele><time>2026-05-03T07:07:16Z</time></trkpt><trkpt lat="44.48285479002388" lon="7.873333505872529"><ele>360.0</ele><time>2026-05-03T07:07:17Z</time></trkpt><trkpt lat="44.482951147158204" lon="7.873505701087901"><ele>360.0</ele><time>2026-05-03T07:07:18Z</time></trkpt><trkpt lat="44.48304750843696" lon="7.873670125989386"><ele>360.3333333333333</ele><time>2026-05-03T07:07:19Z</time></trkpt><trkpt lat="44.48314373783389" lon="7.873846217800658"><ele>360.66666666666663</ele><time>2026-05-03T07:07:20Z</time></trkpt><trkpt lat="44.48324283553652" lon="7.87401544173843"><ele>361.0</ele><time>2026-05-03T07:07:21Z</time></trkpt><trkpt lat="44.483336026283254" lon="7.8741842770543355"><ele>360.5</ele><time>2026-05-03T07:07:22Z</time></trkpt><trkpt lat="44.4834229708579" lon="7.874349112913389"><ele>360.0</ele><time>2026-05-03T07:07:23Z</time></trkpt><trkpt lat="44.48351341672985" lon="7.874510362231106"><ele>359.5</ele><time>2026-05-03T07:07:24Z</time></trkpt><trkpt lat="44.4835997164202" lon="7.874672501051108"><ele>359.0</ele><time>2026-05-03T07:07:25Z</time></trkpt><trkpt lat="44.48368804371647" lon="7.874837894688602"><ele>359.0</ele><time>2026-05-03T07:07:26Z</time></trkpt><trkpt lat="44.48376690779815" lon="7.875008563382156"><ele>359.0</ele><time>2026-05-03T07:07:27Z</time></trkpt><trkpt lat="44.48384967402864" lon="7.875202826731349"><ele>359.0</ele><time>2026-05-03T07:07:28Z</time></trkpt><trkpt lat="44.483923153486074" lon="7.875382719899942"><ele>359.0</ele><time>2026-05-03T07:07:29Z</time></trkpt><trkpt lat="44.483989528483846" lon="7.875566512460692"><ele>359.0</ele><time>2026-05-03T07:07:30Z</time></trkpt><trkpt lat="44.48405541612922" lon="7.875758849316548"><ele>359.0</ele><time>2026-05-03T07:07:31Z</time></trkpt><trkpt lat="44.48410052791748" lon="7.875949977449591"><ele>359.0</ele><time>2026-05-03T07:07:32Z</time></trkpt><trkpt lat="44.48414440735458" lon="7.876122284309714"><ele>359.0</ele><time>2026-05-03T07:07:33Z</time></trkpt><trkpt lat="44.48418355355278" lon="7.876298209984372"><ele>359.0</ele><time>2026-05-03T07:07:34Z</time></trkpt><trkpt lat="44.48422543954227" lon="7.876445545148677"><ele>359.0</ele><time>2026-05-03T07:07:35Z</time></trkpt><trkpt lat="44.48425756996951" lon="7.876593697978036"><ele>359.0</ele><time>2026-05-03T07:07:36Z</time></trkpt><trkpt lat="44.48428058836081" lon="7.876720695678646"><ele>359.0</ele><time>2026-05-03T07:07:37Z</time></trkpt><trkpt lat="44.48429602391476" lon="7.876844062148666"><ele>358.79999999999995</ele><time>2026-05-03T07:07:37.999Z</time></trkpt><trkpt lat="44.48429108328316" lon="7.876950003202296"><ele>358.59999999999997</ele><time>2026-05-03T07:07:38.999Z</time></trkpt><trkpt lat="44.48429100600171" lon="7.8770806562309"><ele>358.4</ele><time>2026-05-03T07:07:39.999Z</time></trkpt><trkpt lat="44.484287973925106" lon="7.8772172883409555"><ele>358.2</ele><time>2026-05-03T07:07:40.999Z</time></trkpt><trkpt lat="44.48428239650718" lon="7.877334275862742"><ele>358.0</ele><time>2026-05-03T07:07:41.999Z</time></trkpt><trkpt lat="44.48431639682065" lon="7.877480832343939"><ele>358.0</ele><time>2026-05-03T07:07:42.999Z</time></trkpt><trkpt lat="44.4843553300245" lon="7.877608793895908"><ele>358.0</ele><time>2026-05-03T07:07:43.999Z</time></trkpt><trkpt lat="44.48438403370448" lon="7.877742818533719"><ele>358.0</ele><time>2026-05-03T07:07:44.999Z</time></trkpt><trkpt lat="44.484409266752245" lon="7.8779000439801115"><ele>358.0</ele><time>2026-05-03T07:07:45.999Z</time></trkpt><trkpt lat="44.4844256492605" lon="7.878058480939239"><ele>358.0</ele><time>2026-05-03T07:07:46.999Z</time></trkpt><trkpt lat="44.48443426945203" lon="7.87822443769099"><ele>358.0</ele><time>2026-05-03T07:07:47.999Z</time></trkpt><trkpt lat="44.48443443843446" lon="7.878388180624807"><ele>358.0</ele><time>2026-05-03T07:07:48.999Z</time></trkpt><trkpt lat="44.4844350260222" lon="7.878561411394535"><ele>358.0</ele><time>2026-05-03T07:07:49.999Z</time></trkpt><trkpt lat="44.48443402091709" lon="7.878731094234973"><ele>358.0</ele><time>2026-05-03T07:07:50.999Z</time></trkpt><trkpt lat="44.48442537738403" lon="7.878917219176331"><ele>357.5</ele><time>2026-05-03T07:07:51.999Z</time></trkpt><trkpt lat="44.48441780131749" lon="7.8791167027082984"><ele>357.0</ele><time>2026-05-03T07:07:52.999Z</time></trkpt><trkpt lat="44.48441127142142" lon="7.8793127186128995"><ele>356.5</ele><time>2026-05-03T07:07:53.999Z</time></trkpt><trkpt lat="44.484399518420595" lon="7.879517799285641"><ele>356.0</ele><time>2026-05-03T07:07:54.999Z</time></trkpt><trkpt lat="44.48438749167772" lon="7.879717045021963"><ele>356.0</ele><time>2026-05-03T07:07:55.999Z</time></trkpt><trkpt lat="44.48438784796156" lon="7.879920090027715"><ele>356.0</ele><time>2026-05-03T07:07:56.999Z</time></trkpt><trkpt lat="44.48437856763855" lon="7.880101863309457"><ele>356.0</ele><time>2026-05-03T07:07:57.999Z</time></trkpt><trkpt lat="44.4843694526615" lon="7.880317118680741"><ele>356.0</ele><time>2026-05-03T07:07:58.999Z</time></trkpt><trkpt lat="44.48436269815257" lon="7.880530725697103"><ele>355.6666666666667</ele><time>2026-05-03T07:07:59.999Z</time></trkpt><trkpt lat="44.48435051064949" lon="7.880758124665397"><ele>355.3333333333333</ele><time>2026-05-03T07:08:00.999Z</time></trkpt><trkpt lat="44.484344638108006" lon="7.880983229654773"><ele>355.0</ele><time>2026-05-03T07:08:01.999Z</time></trkpt><trkpt lat="44.484332993759686" lon="7.881207094937407"><ele>354.66666666666663</ele><time>2026-05-03T07:08:02.999Z</time></trkpt><trkpt lat="44.48432421742679" lon="7.881440195704938"><ele>354.3333333333333</ele><time>2026-05-03T07:08:03.999Z</time></trkpt><trkpt lat="44.484319001346144" lon="7.8816437024297965"><ele>354.0</ele><time>2026-05-03T07:08:04.999Z</time></trkpt><trkpt lat="44.48430579671044" lon="7.8818742013069985"><ele>353.0</ele><time>2026-05-03T07:08:05.999Z</time></trkpt><trkpt lat="44.484289808727034" lon="7.882092206927718"><ele>352.0</ele><time>2026-05-03T07:08:06.999Z</time></trkpt><trkpt lat="44.48428528803724" lon="7.882312762412838"><ele>351.0</ele><time>2026-05-03T07:08:07.999Z</time></trkpt><trkpt lat="44.484273924695074" lon="7.882550060504226"><ele>350.0</ele><time>2026-05-03T07:08:08.999Z</time></trkpt><trkpt lat="44.48426200220297" lon="7.882790124052721"><ele>349.0</ele><time>2026-05-03T07:08:09.999Z</time></trkpt><trkpt lat="44.48423672323978" lon="7.883031977057796"><ele>348.0</ele><time>2026-05-03T07:08:10.999Z</time></trkpt><trkpt lat="44.484226946963894" lon="7.883253856946432"><ele>346.0</ele><time>2026-05-03T07:08:11.999Z</time></trkpt><trkpt lat="44.484229893769545" lon="7.883467992794255"><ele>344.0</ele><time>2026-05-03T07:08:12.999Z</time></trkpt><trkpt lat="44.48422089243797" lon="7.883701713103469"><ele>342.0</ele><time>2026-05-03T07:08:13.999Z</time></trkpt><trkpt lat="44.48420952725274" lon="7.883934169727766"><ele>342.0</ele><time>2026-05-03T07:08:14.999Z</time></trkpt><trkpt lat="44.48419706643405" lon="7.884163679188085"><ele>342.0</ele><time>2026-05-03T07:08:15.999Z</time></trkpt><trkpt lat="44.484187591143474" lon="7.884396399069994"><ele>342.0</ele><time>2026-05-03T07:08:16.999Z</time></trkpt><trkpt lat="44.484180418016805" lon="7.884634215977043"><ele>341.0</ele><time>2026-05-03T07:08:17.999Z</time></trkpt><trkpt lat="44.484167764601686" lon="7.884843052891681"><ele>340.0</ele><time>2026-05-03T07:08:18.999Z</time></trkpt><trkpt lat="44.484155171519575" lon="7.885071846508339"><ele>339.0</ele><time>2026-05-03T07:08:19.999Z</time></trkpt><trkpt lat="44.48414331918165" lon="7.885278224932596"><ele>338.6666666666667</ele><time>2026-05-03T07:08:20.999Z</time></trkpt><trkpt lat="44.48412860240437" lon="7.885508638657151"><ele>338.33333333333337</ele><time>2026-05-03T07:08:21.999Z</time></trkpt><trkpt lat="44.48412329239882" lon="7.885719028150036"><ele>338.0</ele><time>2026-05-03T07:08:22.999Z</time></trkpt><trkpt lat="44.48412167991443" lon="7.88591435051315"><ele>337.75</ele><time>2026-05-03T07:08:23.999Z</time></trkpt><trkpt lat="44.48411317779667" lon="7.886111244820059"><ele>337.5</ele><time>2026-05-03T07:08:24.999Z</time></trkpt><trkpt lat="44.48410952908242" lon="7.886296323418917"><ele>337.25</ele><time>2026-05-03T07:08:25.999Z</time></trkpt><trkpt lat="44.48411320758531" lon="7.886468432904646"><ele>337.0</ele><time>2026-05-03T07:08:26.999Z</time></trkpt><trkpt lat="44.484093865392396" lon="7.886627611639282"><ele>337.20000000000005</ele><time>2026-05-03T07:08:27.999Z</time></trkpt><trkpt lat="44.484102569850364" lon="7.886784832619793"><ele>337.4</ele><time>2026-05-03T07:08:28.999Z</time></trkpt><trkpt lat="44.48411196604525" lon="7.886924100967828"><ele>337.6</ele><time>2026-05-03T07:08:29.999Z</time></trkpt><trkpt lat="44.484113768562175" lon="7.887057770306318"><ele>337.79999999999995</ele><time>2026-05-03T07:08:30.999Z</time></trkpt><trkpt lat="44.48410758181977" lon="7.887191196188286"><ele>338.0</ele><time>2026-05-03T07:08:31.999Z</time></trkpt><trkpt lat="44.484081312393634" lon="7.8873268301795045"><ele>338.0</ele><time>2026-05-03T07:08:32.999Z</time></trkpt><trkpt lat="44.48405375947584" lon="7.887462885828736"><ele>338.0</ele><time>2026-05-03T07:08:33.999Z</time></trkpt><trkpt lat="44.483996007540505" lon="7.887598898273756"><ele>338.0</ele><time>2026-05-03T07:08:34.999Z</time></trkpt><trkpt lat="44.48401799469684" lon="7.887766085578068"><ele>338.0</ele><time>2026-05-03T07:08:35.999Z</time></trkpt><trkpt lat="44.48401140471157" lon="7.887926858120222"><ele>338.0</ele><time>2026-05-03T07:08:36.999Z</time></trkpt><trkpt lat="44.48400079411304" lon="7.888092146776776"><ele>338.0</ele><time>2026-05-03T07:08:37.999Z</time></trkpt><trkpt lat="44.4839901872792" lon="7.88826394885563"><ele>338.0</ele><time>2026-05-03T07:08:38.999Z</time></trkpt><trkpt lat="44.48398132377218" lon="7.888439530936168"><ele>338.0</ele><time>2026-05-03T07:08:39.998Z</time></trkpt><trkpt lat="44.4839760062591" lon="7.888612347329921"><ele>337.75</ele><time>2026-05-03T07:08:40.998Z</time></trkpt><trkpt lat="44.483963872463626" lon="7.8887893782528575"><ele>337.5</ele><time>2026-05-03T07:08:41.998Z</time></trkpt><trkpt lat="44.48395919567862" lon="7.8889613655983295"><ele>337.25</ele><time>2026-05-03T07:08:42.998Z</time></trkpt><trkpt lat="44.48395192409512" lon="7.889148860574671"><ele>337.0</ele><time>2026-05-03T07:08:43.998Z</time></trkpt><trkpt lat="44.48394352998363" lon="7.88933450377386"><ele>337.0</ele><time>2026-05-03T07:08:44.998Z</time></trkpt><trkpt lat="44.483936883703976" lon="7.8895270430018405"><ele>337.0</ele><time>2026-05-03T07:08:45.998Z</time></trkpt><trkpt lat="44.48393050374378" lon="7.889708722123043"><ele>337.0</ele><time>2026-05-03T07:08:46.998Z</time></trkpt><trkpt lat="44.483917151831925" lon="7.88990751500901"><ele>337.0</ele><time>2026-05-03T07:08:47.998Z</time></trkpt><trkpt lat="44.483900718212446" lon="7.8901077244203215"><ele>336.75</ele><time>2026-05-03T07:08:48.998Z</time></trkpt><trkpt lat="44.48388573065801" lon="7.890297561615576"><ele>336.5</ele><time>2026-05-03T07:08:49.998Z</time></trkpt><trkpt lat="44.483864802833445" lon="7.890471796836229"><ele>336.25</ele><time>2026-05-03T07:08:50.998Z</time></trkpt><trkpt lat="44.48384510254366" lon="7.890642394162062"><ele>336.0</ele><time>2026-05-03T07:08:51.998Z</time></trkpt><trkpt lat="44.48382008748478" lon="7.890823862549118"><ele>336.0</ele><time>2026-05-03T07:08:52.998Z</time></trkpt><trkpt lat="44.48380001413788" lon="7.891002256163343"><ele>336.0</ele><time>2026-05-03T07:08:53.998Z</time></trkpt><trkpt lat="44.483774885875484" lon="7.89116314952152"><ele>336.0</ele><time>2026-05-03T07:08:54.998Z</time></trkpt><trkpt lat="44.4837524724601" lon="7.891322757920329"><ele>336.0</ele><time>2026-05-03T07:08:55.998Z</time></trkpt><trkpt lat="44.48372793630525" lon="7.891474037735437"><ele>334.0</ele><time>2026-05-03T07:08:56.998Z</time></trkpt><trkpt lat="44.48371173772635" lon="7.8916302676755725"><ele>332.0</ele><time>2026-05-03T07:08:57.998Z</time></trkpt><trkpt lat="44.48369928555648" lon="7.891792573530986"><ele>330.0</ele><time>2026-05-03T07:08:58.998Z</time></trkpt><trkpt lat="44.48369548796258" lon="7.891950051582622"><ele>328.0</ele><time>2026-05-03T07:08:59.998Z</time></trkpt><trkpt lat="44.483688505684526" lon="7.892112564335673"><ele>326.5</ele><time>2026-05-03T07:09:01Z</time></trkpt><trkpt lat="44.48367205246035" lon="7.892284642581222"><ele>325.0</ele><time>2026-05-03T07:09:02Z</time></trkpt><trkpt lat="44.48369307593537" lon="7.892468372880596"><ele>323.5</ele><time>2026-05-03T07:09:03Z</time></trkpt><trkpt lat="44.483702703766625" lon="7.8926417001665214"><ele>322.0</ele><time>2026-05-03T07:09:04Z</time></trkpt><trkpt lat="44.48372287724122" lon="7.892821540793026"><ele>323.75</ele><time>2026-05-03T07:09:05Z</time></trkpt><trkpt lat="44.483750095975346" lon="7.892996741685985"><ele>325.5</ele><time>2026-05-03T07:09:06Z</time></trkpt><trkpt lat="44.48378828428087" lon="7.893159352719713"><ele>327.25</ele><time>2026-05-03T07:09:07Z</time></trkpt><trkpt lat="44.48381424633707" lon="7.893325731129219"><ele>329.0</ele><time>2026-05-03T07:09:08Z</time></trkpt><trkpt lat="44.483841330312686" lon="7.893497963262322"><ele>329.0</ele><time>2026-05-03T07:09:09Z</time></trkpt><trkpt lat="44.483868292249696" lon="7.8936635131128625"><ele>329.0</ele><time>2026-05-03T07:09:10Z</time></trkpt><trkpt lat="44.483907140759925" lon="7.893828849966284"><ele>329.0</ele><time>2026-05-03T07:09:11Z</time></trkpt><trkpt lat="44.48396268352056" lon="7.893977042146188"><ele>329.0</ele><time>2026-05-03T07:09:12Z</time></trkpt><trkpt lat="44.48403926137365" lon="7.894143801752184"><ele>325.75</ele><time>2026-05-03T07:09:13Z</time></trkpt><trkpt lat="44.484126232705044" lon="7.89428971894204"><ele>322.5</ele><time>2026-05-03T07:09:14Z</time></trkpt><trkpt lat="44.48420600303645" lon="7.89444047668388"><ele>319.25</ele><time>2026-05-03T07:09:15Z</time></trkpt><trkpt lat="44.4842843605468" lon="7.894591149020358"><ele>316.0</ele><time>2026-05-03T07:09:16Z</time></trkpt><trkpt lat="44.48435810175484" lon="7.89473599417884"><ele>316.0</ele><time>2026-05-03T07:09:17Z</time></trkpt><trkpt lat="44.484427397817" lon="7.89491660119361"><ele>316.0</ele><time>2026-05-03T07:09:18Z</time></trkpt><trkpt lat="44.484482483050094" lon="7.895102891952678"><ele>316.0</ele><time>2026-05-03T07:09:19Z</time></trkpt><trkpt lat="44.484544472727734" lon="7.895272010339443"><ele>316.0</ele><time>2026-05-03T07:09:20Z</time></trkpt><trkpt lat="44.48459776882487" lon="7.895453415822973"><ele>317.5</ele><time>2026-05-03T07:09:21Z</time></trkpt><trkpt lat="44.484641606733256" lon="7.895621153585564"><ele>319.0</ele><time>2026-05-03T07:09:22Z</time></trkpt><trkpt lat="44.48468356120465" lon="7.8957859772152625"><ele>320.5</ele><time>2026-05-03T07:09:23Z</time></trkpt><trkpt lat="44.48470684251942" lon="7.895968371487728"><ele>322.0</ele><time>2026-05-03T07:09:24Z</time></trkpt><trkpt lat="44.48473581517056" lon="7.8961414896025595"><ele>322.0</ele><time>2026-05-03T07:09:25Z</time></trkpt><trkpt lat="44.48475815979669" lon="7.896322426312313"><ele>322.0</ele><time>2026-05-03T07:09:26Z</time></trkpt><trkpt lat="44.48478366803131" lon="7.8964822664326695"><ele>322.0</ele><time>2026-05-03T07:09:27Z</time></trkpt><trkpt lat="44.48480548012487" lon="7.89666045257382"><ele>322.0</ele><time>2026-05-03T07:09:28Z</time></trkpt><trkpt lat="44.48482604699765" lon="7.896804181055222"><ele>318.0</ele><time>2026-05-03T07:09:29Z</time></trkpt><trkpt lat="44.48485008354234" lon="7.896944762876828"><ele>314.0</ele><time>2026-05-03T07:09:30Z</time></trkpt><trkpt lat="44.48488287942219" lon="7.897094269598456"><ele>310.0</ele><time>2026-05-03T07:09:31Z</time></trkpt><trkpt lat="44.48493653104353" lon="7.8972225469774715"><ele>306.0</ele><time>2026-05-03T07:09:32Z</time></trkpt><trkpt lat="44.485009810561436" lon="7.897348486243819"><ele>302.0</ele><time>2026-05-03T07:09:33Z</time></trkpt><trkpt lat="44.485103104006896" lon="7.897471782549682"><ele>302.75</ele><time>2026-05-03T07:09:34Z</time></trkpt><trkpt lat="44.48519986403935" lon="7.897602338332652"><ele>303.5</ele><time>2026-05-03T07:09:35Z</time></trkpt><trkpt lat="44.4852980736973" lon="7.897725361477857"><ele>304.25</ele><time>2026-05-03T07:09:36Z</time></trkpt><trkpt lat="44.485400358777724" lon="7.897884283532834"><ele>305.0</ele><time>2026-05-03T07:09:37Z</time></trkpt><trkpt lat="44.48550797163226" lon="7.8980390091758705"><ele>305.0</ele><time>2026-05-03T07:09:38Z</time></trkpt><trkpt lat="44.4856159739762" lon="7.898207031572841"><ele>305.0</ele><time>2026-05-03T07:09:39Z</time></trkpt><trkpt lat="44.48572567435803" lon="7.898368999621156"><ele>305.0</ele><time>2026-05-03T07:09:40Z</time></trkpt><trkpt lat="44.4858290676109" lon="7.898533251357889"><ele>301.25</ele><time>2026-05-03T07:09:41Z</time></trkpt><trkpt lat="44.48592958197321" lon="7.8986895386305065"><ele>297.5</ele><time>2026-05-03T07:09:42Z</time></trkpt><trkpt lat="44.486025928603" lon="7.89885431751061"><ele>293.75</ele><time>2026-05-03T07:09:43Z</time></trkpt><trkpt lat="44.48611597097023" lon="7.899013388555373"><ele>290.0</ele><time>2026-05-03T07:09:44Z</time></trkpt><trkpt lat="44.48619807850509" lon="7.899167359477158"><ele>291.0</ele><time>2026-05-03T07:09:45Z</time></trkpt><trkpt lat="44.48627599640208" lon="7.899307037917251"><ele>292.0</ele><time>2026-05-03T07:09:45.999Z</time></trkpt><trkpt lat="44.486357166348476" lon="7.899451046003634"><ele>293.0</ele><time>2026-05-03T07:09:46.999Z</time></trkpt><trkpt lat="44.48642937429096" lon="7.899563432458396"><ele>294.0</ele><time>2026-05-03T07:09:47.999Z</time></trkpt><trkpt lat="44.48649545207719" lon="7.899669419647329"><ele>294.0</ele><time>2026-05-03T07:09:48.999Z</time></trkpt><trkpt lat="44.48654733467161" lon="7.899747166012232"><ele>294.0</ele><time>2026-05-03T07:09:49.999Z</time></trkpt><trkpt lat="44.48659561665709" lon="7.899835644019399"><ele>294.0</ele><time>2026-05-03T07:09:50.999Z</time></trkpt><trkpt lat="44.48662899431701" lon="7.899918334083379"><ele>294.0</ele><time>2026-05-03T07:09:51.999Z</time></trkpt><trkpt lat="44.48663576874505" lon="7.90008362402488"><ele>294.0</ele><time>2026-05-03T07:09:53.999Z</time></trkpt><trkpt lat="44.486590153470644" lon="7.900209801993354"><ele>294.0</ele><time>2026-05-03T07:09:55.999Z</time></trkpt><trkpt lat="44.4865388516434" lon="7.900264656012857"><ele>292.4</ele><time>2026-05-03T07:09:56.999Z</time></trkpt><trkpt lat="44.48641768587167" lon="7.900261665005352"><ele>290.79999999999995</ele><time>2026-05-03T07:09:58.999Z</time></trkpt><trkpt lat="44.48635078315701" lon="7.900217125517206"><ele>289.20000000000005</ele><time>2026-05-03T07:09:59.999Z</time></trkpt><trkpt lat="44.4862764672635" lon="7.900156766802482"><ele>287.6</ele><time>2026-05-03T07:10:00.999Z</time></trkpt><trkpt lat="44.486198626642654" lon="7.900080171205989"><ele>286.0</ele><time>2026-05-03T07:10:01.999Z</time></trkpt><trkpt lat="44.486125057536846" lon="7.899998913134359"><ele>284.8</ele><time>2026-05-03T07:10:02.999Z</time></trkpt><trkpt lat="44.48605124286271" lon="7.89991058673942"><ele>283.6</ele><time>2026-05-03T07:10:03.999Z</time></trkpt><trkpt lat="44.48597794243661" lon="7.8998269733823"><ele>282.4</ele><time>2026-05-03T07:10:04.999Z</time></trkpt><trkpt lat="44.48590394646208" lon="7.899734166898886"><ele>281.2</ele><time>2026-05-03T07:10:05.999Z</time></trkpt><trkpt lat="44.4858172088008" lon="7.899635196117544"><ele>280.0</ele><time>2026-05-03T07:10:06.999Z</time></trkpt><trkpt lat="44.48573077638752" lon="7.899532501163763"><ele>280.0</ele><time>2026-05-03T07:10:07.999Z</time></trkpt><trkpt lat="44.48564178128674" lon="7.8994219038152265"><ele>280.0</ele><time>2026-05-03T07:10:08.999Z</time></trkpt><trkpt lat="44.485551284432226" lon="7.899315745400614"><ele>280.0</ele><time>2026-05-03T07:10:09.999Z</time></trkpt><trkpt lat="44.48546292047099" lon="7.899208745513216"><ele>280.0</ele><time>2026-05-03T07:10:10.999Z</time></trkpt><trkpt lat="44.4853699309016" lon="7.89910235210418"><ele>279.75</ele><time>2026-05-03T07:10:11.999Z</time></trkpt><trkpt lat="44.48527807664097" lon="7.898989300591539"><ele>279.5</ele><time>2026-05-03T07:10:12.999Z</time></trkpt><trkpt lat="44.485191323987095" lon="7.898882949586029"><ele>279.25</ele><time>2026-05-03T07:10:13.999Z</time></trkpt><trkpt lat="44.48509796175364" lon="7.89878759085535"><ele>279.0</ele><time>2026-05-03T07:10:14.999Z</time></trkpt><trkpt lat="44.485002581663984" lon="7.898667043903597"><ele>279.0</ele><time>2026-05-03T07:10:15.999Z</time></trkpt><trkpt lat="44.48490325318926" lon="7.898553120416253"><ele>279.0</ele><time>2026-05-03T07:10:16.999Z</time></trkpt><trkpt lat="44.4848168657587" lon="7.898435598395642"><ele>279.0</ele><time>2026-05-03T07:10:17.999Z</time></trkpt><trkpt lat="44.48472221898346" lon="7.89831992672013"><ele>279.0</ele><time>2026-05-03T07:10:18.999Z</time></trkpt><trkpt lat="44.48463762625408" lon="7.898194162268911"><ele>279.0</ele><time>2026-05-03T07:10:19.999Z</time></trkpt><trkpt lat="44.48454924957695" lon="7.8980634149037146"><ele>279.0</ele><time>2026-05-03T07:10:20.999Z</time></trkpt><trkpt lat="44.48446623413635" lon="7.897935176080258"><ele>279.0</ele><time>2026-05-03T07:10:21.999Z</time></trkpt><trkpt lat="44.484384775588566" lon="7.89780137151113"><ele>279.0</ele><time>2026-05-03T07:10:22.999Z</time></trkpt><trkpt lat="44.48430323386443" lon="7.897655884282749"><ele>280.75</ele><time>2026-05-03T07:10:23.999Z</time></trkpt><trkpt lat="44.48423191483974" lon="7.89752178099355"><ele>282.5</ele><time>2026-05-03T07:10:24.999Z</time></trkpt><trkpt lat="44.484165993172155" lon="7.897378491685453"><ele>284.25</ele><time>2026-05-03T07:10:25.999Z</time></trkpt><trkpt lat="44.48409715821333" lon="7.897225001900509"><ele>286.0</ele><time>2026-05-03T07:10:26.999Z</time></trkpt><trkpt lat="44.484027044923" lon="7.897076796904822"><ele>286.0</ele><time>2026-05-03T07:10:27.999Z</time></trkpt><trkpt lat="44.483963537802744" lon="7.896929755922256"><ele>286.0</ele><time>2026-05-03T07:10:28.999Z</time></trkpt><trkpt lat="44.48390373667116" lon="7.896780852369269"><ele>286.0</ele><time>2026-05-03T07:10:29.999Z</time></trkpt><trkpt lat="44.4838495087094" lon="7.8966373958939995"><ele>286.0</ele><time>2026-05-03T07:10:30.999Z</time></trkpt><trkpt lat="44.48379221059116" lon="7.896489850701704"><ele>284.8</ele><time>2026-05-03T07:10:31.999Z</time></trkpt><trkpt lat="44.48373783850009" lon="7.896351152624972"><ele>283.6</ele><time>2026-05-03T07:10:32.999Z</time></trkpt><trkpt lat="44.48369014469984" lon="7.896212244469027"><ele>282.4</ele><time>2026-05-03T07:10:33.999Z</time></trkpt><trkpt lat="44.48364562627445" lon="7.896073090709752"><ele>281.2</ele><time>2026-05-03T07:10:34.999Z</time></trkpt><trkpt lat="44.48359593580164" lon="7.895931370266625"><ele>280.0</ele><time>2026-05-03T07:10:35.999Z</time></trkpt><trkpt lat="44.483551109660034" lon="7.895786940572925"><ele>279.75</ele><time>2026-05-03T07:10:36.999Z</time></trkpt><trkpt lat="44.48350079136704" lon="7.89563544456616"><ele>279.5</ele><time>2026-05-03T07:10:37.999Z</time></trkpt><trkpt lat="44.4834456223178" lon="7.8954758189148615"><ele>279.25</ele><time>2026-05-03T07:10:38.999Z</time></trkpt><trkpt lat="44.483390326305916" lon="7.895319863269058"><ele>279.0</ele><time>2026-05-03T07:10:39.999Z</time></trkpt><trkpt lat="44.483335304834256" lon="7.895157120960083"><ele>280.5</ele><time>2026-05-03T07:10:40.999Z</time></trkpt><trkpt lat="44.483276777435435" lon="7.894982820012123"><ele>282.0</ele><time>2026-05-03T07:10:41.999Z</time></trkpt><trkpt lat="44.48321290047607" lon="7.8948081828254315"><ele>283.5</ele><time>2026-05-03T07:10:42.999Z</time></trkpt><trkpt lat="44.483153086478396" lon="7.89463231120238"><ele>285.0</ele><time>2026-05-03T07:10:43.999Z</time></trkpt><trkpt lat="44.48309630509991" lon="7.894458761982659"><ele>285.0</ele><time>2026-05-03T07:10:44.999Z</time></trkpt><trkpt lat="44.48304035555629" lon="7.894285299183058"><ele>285.0</ele><time>2026-05-03T07:10:45.999Z</time></trkpt><trkpt lat="44.48298717460832" lon="7.89410357470387"><ele>285.0</ele><time>2026-05-03T07:10:46.998Z</time></trkpt><trkpt lat="44.482930726069576" lon="7.893929022733903"><ele>285.0</ele><time>2026-05-03T07:10:47.998Z</time></trkpt><trkpt lat="44.482866066217035" lon="7.893747788504518"><ele>283.0</ele><time>2026-05-03T07:10:48.998Z</time></trkpt><trkpt lat="44.48280232954355" lon="7.893562471943332"><ele>281.0</ele><time>2026-05-03T07:10:49.998Z</time></trkpt><trkpt lat="44.48273558153882" lon="7.893375702711342"><ele>279.0</ele><time>2026-05-03T07:10:50.998Z</time></trkpt><trkpt lat="44.48267131791171" lon="7.893188482478624"><ele>277.0</ele><time>2026-05-03T07:10:51.998Z</time></trkpt><trkpt lat="44.48260542882428" lon="7.893002371023121"><ele>277.0</ele><time>2026-05-03T07:10:52.998Z</time></trkpt><trkpt lat="44.482540212574264" lon="7.892812184616502"><ele>277.0</ele><time>2026-05-03T07:10:53.998Z</time></trkpt><trkpt lat="44.48247222498009" lon="7.892623500403357"><ele>277.0</ele><time>2026-05-03T07:10:54.998Z</time></trkpt><trkpt lat="44.48240204176907" lon="7.892431500079426"><ele>279.3333333333333</ele><time>2026-05-03T07:10:55.998Z</time></trkpt><trkpt lat="44.48233440285706" lon="7.8922366857626995"><ele>281.6666666666667</ele><time>2026-05-03T07:10:56.998Z</time></trkpt><trkpt lat="44.482266838565494" lon="7.892035285514193"><ele>284.0</ele><time>2026-05-03T07:10:57.998Z</time></trkpt><trkpt lat="44.482201448501435" lon="7.891838588452133"><ele>286.6666666666667</ele><time>2026-05-03T07:10:58.998Z</time></trkpt><trkpt lat="44.482131428749334" lon="7.891644434690729"><ele>289.3333333333333</ele><time>2026-05-03T07:10:59.998Z</time></trkpt><trkpt lat="44.48206397514247" lon="7.891453129566288"><ele>292.0</ele><time>2026-05-03T07:11:00.998Z</time></trkpt><trkpt lat="44.48199939016701" lon="7.891272566417684"><ele>288.0</ele><time>2026-05-03T07:11:01.998Z</time></trkpt><trkpt lat="44.48193186076054" lon="7.891093355399444"><ele>284.0</ele><time>2026-05-03T07:11:02.998Z</time></trkpt><trkpt lat="44.48184566954947" lon="7.8909242611367905"><ele>280.0</ele><time>2026-05-03T07:11:03.998Z</time></trkpt><trkpt lat="44.48176542900157" lon="7.89074995091244"><ele>276.0</ele><time>2026-05-03T07:11:04.998Z</time></trkpt><trkpt lat="44.48166528784308" lon="7.890601317772801"><ele>276.0</ele><time>2026-05-03T07:11:05.998Z</time></trkpt><trkpt lat="44.481552527286965" lon="7.890462867620203"><ele>276.0</ele><time>2026-05-03T07:11:07Z</time></trkpt><trkpt lat="44.48142317189597" lon="7.890339600068126"><ele>276.0</ele><time>2026-05-03T07:11:08Z</time></trkpt><trkpt lat="44.481291396368576" lon="7.890230075941685"><ele>275.6666666666667</ele><time>2026-05-03T07:11:09Z</time></trkpt><trkpt lat="44.48115576494946" lon="7.890131186395551"><ele>275.33333333333337</ele><time>2026-05-03T07:11:10Z</time></trkpt><trkpt lat="44.48101256953045" lon="7.8900443223886345"><ele>275.0</ele><time>2026-05-03T07:11:11Z</time></trkpt><trkpt lat="44.48086773541966" lon="7.889978268082873"><ele>275.0</ele><time>2026-05-03T07:11:12Z</time></trkpt><trkpt lat="44.48072711711338" lon="7.889955750244947"><ele>275.0</ele><time>2026-05-03T07:11:13Z</time></trkpt><trkpt lat="44.48059754617196" lon="7.889921808705285"><ele>275.0</ele><time>2026-05-03T07:11:14Z</time></trkpt><trkpt lat="44.48046250383731" lon="7.889902059094896"><ele>275.0</ele><time>2026-05-03T07:11:15Z</time></trkpt><trkpt lat="44.48033334684244" lon="7.889897242752912"><ele>274.75</ele><time>2026-05-03T07:11:16Z</time></trkpt><trkpt lat="44.48021355681878" lon="7.889878980014798"><ele>274.5</ele><time>2026-05-03T07:11:17Z</time></trkpt><trkpt lat="44.48009327685967" lon="7.8898888377271925"><ele>274.25</ele><time>2026-05-03T07:11:18Z</time></trkpt><trkpt lat="44.47998385442348" lon="7.889896745441474"><ele>274.0</ele><time>2026-05-03T07:11:19Z</time></trkpt><trkpt lat="44.47988149345325" lon="7.889902305805329"><ele>274.0</ele><time>2026-05-03T07:11:20Z</time></trkpt><trkpt lat="44.47978661810627" lon="7.88990381033758"><ele>274.0</ele><time>2026-05-03T07:11:21Z</time></trkpt><trkpt lat="44.47969915000611" lon="7.889899954146431"><ele>274.0</ele><time>2026-05-03T07:11:22Z</time></trkpt><trkpt lat="44.479616600201" lon="7.889884055914923"><ele>274.0</ele><time>2026-05-03T07:11:23Z</time></trkpt><trkpt lat="44.47953019321844" lon="7.889862229979916"><ele>274.0</ele><time>2026-05-03T07:11:24Z</time></trkpt><trkpt lat="44.47945479197773" lon="7.889847160206339"><ele>274.0</ele><time>2026-05-03T07:11:25Z</time></trkpt><trkpt lat="44.47937857119333" lon="7.889860719867729"><ele>274.0</ele><time>2026-05-03T07:11:26Z</time></trkpt><trkpt lat="44.47931136680538" lon="7.889897135230454"><ele>274.0</ele><time>2026-05-03T07:11:27Z</time></trkpt><trkpt lat="44.479254385845465" lon="7.889960607161284"><ele>274.0</ele><time>2026-05-03T07:11:28Z</time></trkpt><trkpt lat="44.47919829540811" lon="7.890044066678254"><ele>274.0</ele><time>2026-05-03T07:11:29Z</time></trkpt><trkpt lat="44.479131361559396" lon="7.890127269138237"><ele>274.0</ele><time>2026-05-03T07:11:30Z</time></trkpt><trkpt lat="44.47905011303217" lon="7.890188975495646"><ele>274.0</ele><time>2026-05-03T07:11:31Z</time></trkpt><trkpt lat="44.478957058465504" lon="7.890227957741694"><ele>274.0</ele><time>2026-05-03T07:11:32Z</time></trkpt><trkpt lat="44.47885592548416" lon="7.8902651499569085"><ele>274.0</ele><time>2026-05-03T07:11:33Z</time></trkpt><trkpt lat="44.47876041757336" lon="7.890286815377546"><ele>274.0</ele><time>2026-05-03T07:11:34Z</time></trkpt><trkpt lat="44.478655730279534" lon="7.890300433002685"><ele>274.0</ele><time>2026-05-03T07:11:35Z</time></trkpt><trkpt lat="44.47853744795779" lon="7.89032208408535"><ele>274.0</ele><time>2026-05-03T07:11:36Z</time></trkpt><trkpt lat="44.478418332276334" lon="7.890316590186974"><ele>273.75</ele><time>2026-05-03T07:11:37Z</time></trkpt><trkpt lat="44.478294266482244" lon="7.890303700574537"><ele>273.5</ele><time>2026-05-03T07:11:38Z</time></trkpt><trkpt lat="44.47816728277609" lon="7.8902764217464645"><ele>273.25</ele><time>2026-05-03T07:11:39Z</time></trkpt><trkpt lat="44.478033818259256" lon="7.890236308615668"><ele>273.0</ele><time>2026-05-03T07:11:40Z</time></trkpt><trkpt lat="44.47789281140132" lon="7.89019482852452"><ele>273.5</ele><time>2026-05-03T07:11:41Z</time></trkpt><trkpt lat="44.4777524484989" lon="7.890148771535843"><ele>274.0</ele><time>2026-05-03T07:11:42Z</time></trkpt><trkpt lat="44.477609332095234" lon="7.890099604366888"><ele>274.5</ele><time>2026-05-03T07:11:43Z</time></trkpt><trkpt lat="44.47746667817757" lon="7.890048296846449"><ele>275.0</ele><time>2026-05-03T07:11:44Z</time></trkpt><trkpt lat="44.47732690735137" lon="7.889993306823513"><ele>275.0</ele><time>2026-05-03T07:11:45Z</time></trkpt><trkpt lat="44.47717534880327" lon="7.8899363323285785"><ele>275.0</ele><time>2026-05-03T07:11:46Z</time></trkpt><trkpt lat="44.47702563860782" lon="7.88988791469207"><ele>275.0</ele><time>2026-05-03T07:11:47Z</time></trkpt><trkpt lat="44.47687139891479" lon="7.8898327156639585"><ele>274.6666666666667</ele><time>2026-05-03T07:11:48Z</time></trkpt><trkpt lat="44.476712536789435" lon="7.88978357242675"><ele>274.3333333333333</ele><time>2026-05-03T07:11:49Z</time></trkpt><trkpt lat="44.47655013957383" lon="7.889737940768309"><ele>274.0</ele><time>2026-05-03T07:11:50Z</time></trkpt><trkpt lat="44.47638542838142" lon="7.889700933372874"><ele>274.0</ele><time>2026-05-03T07:11:51Z</time></trkpt><trkpt lat="44.47621768614679" lon="7.889673717641379"><ele>274.0</ele><time>2026-05-03T07:11:52Z</time></trkpt><trkpt lat="44.47604520418515" lon="7.889657794359987"><ele>274.0</ele><time>2026-05-03T07:11:52.999Z</time></trkpt><trkpt lat="44.475875960109015" lon="7.889645954562382"><ele>274.0</ele><time>2026-05-03T07:11:53.999Z</time></trkpt><trkpt lat="44.47571258040568" lon="7.889646478152714"><ele>274.0</ele><time>2026-05-03T07:11:54.999Z</time></trkpt><trkpt lat="44.47555029506446" lon="7.889655099091131"><ele>274.0</ele><time>2026-05-03T07:11:55.999Z</time></trkpt><trkpt lat="44.47538848295429" lon="7.889665534983703"><ele>274.66666666666663</ele><time>2026-05-03T07:11:56.999Z</time></trkpt><trkpt lat="44.47522745068635" lon="7.889669301466611"><ele>275.3333333333333</ele><time>2026-05-03T07:11:57.999Z</time></trkpt><trkpt lat="44.47506796953316" lon="7.889673997363876"><ele>276.0</ele><time>2026-05-03T07:11:58.999Z</time></trkpt><trkpt lat="44.47490746687978" lon="7.889673466289273"><ele>276.0</ele><time>2026-05-03T07:11:59.999Z</time></trkpt><trkpt lat="44.47474376977027" lon="7.889676257752501"><ele>276.0</ele><time>2026-05-03T07:12:00.999Z</time></trkpt><trkpt lat="44.4745819421818" lon="7.889665362283182"><ele>276.0</ele><time>2026-05-03T07:12:01.999Z</time></trkpt><trkpt lat="44.474421928105464" lon="7.88964374393049"><ele>276.6666666666667</ele><time>2026-05-03T07:12:02.999Z</time></trkpt><trkpt lat="44.474262477112894" lon="7.8896208504371765"><ele>277.33333333333337</ele><time>2026-05-03T07:12:03.999Z</time></trkpt><trkpt lat="44.47409703024596" lon="7.8895919725255705"><ele>278.0</ele><time>2026-05-03T07:12:04.999Z</time></trkpt><trkpt lat="44.47393542469811" lon="7.88955877744054"><ele>277.6666666666667</ele><time>2026-05-03T07:12:05.999Z</time></trkpt><trkpt lat="44.4737693697959" lon="7.889522436615626"><ele>277.3333333333333</ele><time>2026-05-03T07:12:06.999Z</time></trkpt><trkpt lat="44.4736105012086" lon="7.889473660959569"><ele>277.0</ele><time>2026-05-03T07:12:07.999Z</time></trkpt><trkpt lat="44.473448647426736" lon="7.88941992709708"><ele>277.0</ele><time>2026-05-03T07:12:08.999Z</time></trkpt><trkpt lat="44.473288609802516" lon="7.8893558253538645"><ele>277.0</ele><time>2026-05-03T07:12:09.999Z</time></trkpt><trkpt lat="44.47312843752692" lon="7.889285185966711"><ele>277.0</ele><time>2026-05-03T07:12:10.999Z</time></trkpt><trkpt lat="44.47297234950588" lon="7.889212147458806"><ele>277.66666666666663</ele><time>2026-05-03T07:12:11.999Z</time></trkpt><trkpt lat="44.47281450115597" lon="7.889135090422983"><ele>278.3333333333333</ele><time>2026-05-03T07:12:12.999Z</time></trkpt><trkpt lat="44.47266403836282" lon="7.889027732367159"><ele>279.0</ele><time>2026-05-03T07:12:13.999Z</time></trkpt><trkpt lat="44.472509971097864" lon="7.888934096172994"><ele>279.0</ele><time>2026-05-03T07:12:14.999Z</time></trkpt><trkpt lat="44.47235835926659" lon="7.88883766765421"><ele>279.0</ele><time>2026-05-03T07:12:15.999Z</time></trkpt><trkpt lat="44.47220512026256" lon="7.888733136461745"><ele>279.0</ele><time>2026-05-03T07:12:16.999Z</time></trkpt><trkpt lat="44.47205487928198" lon="7.888620701224483"><ele>279.0</ele><time>2026-05-03T07:12:17.999Z</time></trkpt><trkpt lat="44.47191397355866" lon="7.88850512403654"><ele>279.0</ele><time>2026-05-03T07:12:18.999Z</time></trkpt><trkpt lat="44.47177780792861" lon="7.888389267939003"><ele>279.0</ele><time>2026-05-03T07:12:19.999Z</time></trkpt><trkpt lat="44.471642368054134" lon="7.888269944915429"><ele>279.6666666666667</ele><time>2026-05-03T07:12:20.999Z</time></trkpt><trkpt lat="44.47151131231451" lon="7.888141705102605"><ele>280.33333333333337</ele><time>2026-05-03T07:12:21.999Z</time></trkpt><trkpt lat="44.4713840511244" lon="7.888010401560023"><ele>281.0</ele><time>2026-05-03T07:12:22.999Z</time></trkpt><trkpt lat="44.4712574539696" lon="7.887878796711919"><ele>281.33333333333337</ele><time>2026-05-03T07:12:23.999Z</time></trkpt><trkpt lat="44.47113742978649" lon="7.887742974972504"><ele>281.6666666666667</ele><time>2026-05-03T07:12:24.999Z</time></trkpt><trkpt lat="44.4710180124005" lon="7.887599535996494"><ele>282.0</ele><time>2026-05-03T07:12:25.999Z</time></trkpt><trkpt lat="44.47090225829849" lon="7.88744963543499"><ele>283.0</ele><time>2026-05-03T07:12:26.999Z</time></trkpt><trkpt lat="44.470788897171076" lon="7.887296724309414"><ele>284.0</ele><time>2026-05-03T07:12:27.999Z</time></trkpt><trkpt lat="44.4706765439401" lon="7.887143015651202"><ele>285.0</ele><time>2026-05-03T07:12:28.999Z</time></trkpt><trkpt lat="44.470564537624966" lon="7.886987110922956"><ele>285.0</ele><time>2026-05-03T07:12:29.999Z</time></trkpt><trkpt lat="44.47045161672622" lon="7.8868319113549"><ele>285.0</ele><time>2026-05-03T07:12:30.999Z</time></trkpt><trkpt lat="44.47034219599886" lon="7.886681877705298"><ele>285.0</ele><time>2026-05-03T07:12:31.999Z</time></trkpt><trkpt lat="44.47023562849047" lon="7.886535753657803"><ele>285.5</ele><time>2026-05-03T07:12:32.999Z</time></trkpt><trkpt lat="44.47012554805278" lon="7.886400467401851"><ele>286.0</ele><time>2026-05-03T07:12:33.999Z</time></trkpt><trkpt lat="44.47001900800419" lon="7.886252348700038"><ele>286.5</ele><time>2026-05-03T07:12:34.999Z</time></trkpt><trkpt lat="44.46991367769641" lon="7.886110553973418"><ele>287.0</ele><time>2026-05-03T07:12:35.999Z</time></trkpt><trkpt lat="44.4698034336333" lon="7.885969876495783"><ele>286.6666666666667</ele><time>2026-05-03T07:12:36.999Z</time></trkpt><trkpt lat="44.469690962420145" lon="7.885830710738539"><ele>286.3333333333333</ele><time>2026-05-03T07:12:37.999Z</time></trkpt><trkpt lat="44.469571752400036" lon="7.88569437371782"><ele>286.0</ele><time>2026-05-03T07:12:38.999Z</time></trkpt><trkpt lat="44.469450027724186" lon="7.885558406494581"><ele>286.0</ele><time>2026-05-03T07:12:39.999Z</time></trkpt><trkpt lat="44.46931962801766" lon="7.885433392987746"><ele>286.0</ele><time>2026-05-03T07:12:40.999Z</time></trkpt><trkpt lat="44.46919146444214" lon="7.885310355351137"><ele>286.0</ele><time>2026-05-03T07:12:41.999Z</time></trkpt><trkpt lat="44.46905647590112" lon="7.885188531998314"><ele>286.3333333333333</ele><time>2026-05-03T07:12:42.999Z</time></trkpt><trkpt lat="44.468927414868254" lon="7.8850528552716765"><ele>286.6666666666667</ele><time>2026-05-03T07:12:43.999Z</time></trkpt><trkpt lat="44.468775158272635" lon="7.884956865030269"><ele>287.0</ele><time>2026-05-03T07:12:44.999Z</time></trkpt><trkpt lat="44.4686338833538" lon="7.884828271398178"><ele>286.33333333333337</ele><time>2026-05-03T07:12:45.999Z</time></trkpt><trkpt lat="44.46848289763202" lon="7.884727449458404"><ele>285.6666666666667</ele><time>2026-05-03T07:12:46.999Z</time></trkpt><trkpt lat="44.46832992185154" lon="7.884632162092547"><ele>285.0</ele><time>2026-05-03T07:12:47.999Z</time></trkpt><trkpt lat="44.46816700243815" lon="7.8845601974698365"><ele>285.0</ele><time>2026-05-03T07:12:48.999Z</time></trkpt><trkpt lat="44.46800935273784" lon="7.88447721161032"><ele>285.0</ele><time>2026-05-03T07:12:49.999Z</time></trkpt><trkpt lat="44.46785336996797" lon="7.884401457978979"><ele>285.0</ele><time>2026-05-03T07:12:50.999Z</time></trkpt><trkpt lat="44.46769474774388" lon="7.88433245025192"><ele>285.0</ele><time>2026-05-03T07:12:51.999Z</time></trkpt><trkpt lat="44.46753885397671" lon="7.8842752469851165"><ele>285.0</ele><time>2026-05-03T07:12:52.998Z</time></trkpt><trkpt lat="44.4673784532638" lon="7.884217881770391"><ele>285.0</ele><time>2026-05-03T07:12:53.998Z</time></trkpt><trkpt lat="44.46721486030544" lon="7.8841786890897625"><ele>285.0</ele><time>2026-05-03T07:12:54.998Z</time></trkpt><trkpt lat="44.46705070661651" lon="7.884139586488019"><ele>285.0</ele><time>2026-05-03T07:12:55.998Z</time></trkpt><trkpt lat="44.46688732549352" lon="7.884107328987776"><ele>285.0</ele><time>2026-05-03T07:12:56.998Z</time></trkpt><trkpt lat="44.46671917297245" lon="7.8840861944355725"><ele>285.0</ele><time>2026-05-03T07:12:57.998Z</time></trkpt><trkpt lat="44.466549237930565" lon="7.884050942986821"><ele>285.0</ele><time>2026-05-03T07:12:58.998Z</time></trkpt><trkpt lat="44.46637224439146" lon="7.884042292500726"><ele>285.0</ele><time>2026-05-03T07:12:59.998Z</time></trkpt><trkpt lat="44.46619327583245" lon="7.88404034018267"><ele>283.3333333333333</ele><time>2026-05-03T07:13:00.998Z</time></trkpt><trkpt lat="44.46601324617246" lon="7.884047752158706"><ele>281.66666666666663</ele><time>2026-05-03T07:13:01.998Z</time></trkpt><trkpt lat="44.46583219716427" lon="7.884063942056552"><ele>280.0</ele><time>2026-05-03T07:13:02.998Z</time></trkpt><trkpt lat="44.46565133017206" lon="7.884088204735738"><ele>280.0</ele><time>2026-05-03T07:13:03.998Z</time></trkpt><trkpt lat="44.46546692497387" lon="7.884124213266186"><ele>280.0</ele><time>2026-05-03T07:13:04.998Z</time></trkpt><trkpt lat="44.4652880903661" lon="7.88416552290725"><ele>280.0</ele><time>2026-05-03T07:13:05.998Z</time></trkpt><trkpt lat="44.46510996124674" lon="7.8842179705804085"><ele>279.0</ele><time>2026-05-03T07:13:06.998Z</time></trkpt><trkpt lat="44.464938071500576" lon="7.884298839705374"><ele>278.0</ele><time>2026-05-03T07:13:07.998Z</time></trkpt><trkpt lat="44.46475684703276" lon="7.884344565999223"><ele>277.0</ele><time>2026-05-03T07:13:08.998Z</time></trkpt><trkpt lat="44.464584497743225" lon="7.88442078099435"><ele>277.0</ele><time>2026-05-03T07:13:09.998Z</time></trkpt><trkpt lat="44.46441311905572" lon="7.884505949076663"><ele>277.0</ele><time>2026-05-03T07:13:10.998Z</time></trkpt><trkpt lat="44.46424103931084" lon="7.884601677334633"><ele>277.0</ele><time>2026-05-03T07:13:11.998Z</time></trkpt><trkpt lat="44.464068165681276" lon="7.884707137573155"><ele>277.0</ele><time>2026-05-03T07:13:13Z</time></trkpt><trkpt lat="44.46390284770121" lon="7.884818393285317"><ele>277.0</ele><time>2026-05-03T07:13:14Z</time></trkpt><trkpt lat="44.463740209746206" lon="7.884935439440707"><ele>277.0</ele><time>2026-05-03T07:13:15Z</time></trkpt><trkpt lat="44.463586045639346" lon="7.88508360143164"><ele>275.66666666666663</ele><time>2026-05-03T07:13:16Z</time></trkpt><trkpt lat="44.46342673827886" lon="7.8852219855345265"><ele>274.3333333333333</ele><time>2026-05-03T07:13:17Z</time></trkpt><trkpt lat="44.46326068136021" lon="7.88534510668619"><ele>273.0</ele><time>2026-05-03T07:13:18Z</time></trkpt><trkpt lat="44.46311507988182" lon="7.885517127040166"><ele>273.0</ele><time>2026-05-03T07:13:19Z</time></trkpt><trkpt lat="44.462966491902264" lon="7.8856771596933575"><ele>273.0</ele><time>2026-05-03T07:13:20Z</time></trkpt><trkpt lat="44.46281689018662" lon="7.885847351984583"><ele>273.0</ele><time>2026-05-03T07:13:21Z</time></trkpt><trkpt lat="44.46266927690701" lon="7.886021888665978"><ele>277.3333333333333</ele><time>2026-05-03T07:13:22Z</time></trkpt><trkpt lat="44.46252321029395" lon="7.886199620764356"><ele>281.66666666666663</ele><time>2026-05-03T07:13:23Z</time></trkpt><trkpt lat="44.46237865233605" lon="7.886380576533903"><ele>286.0</ele><time>2026-05-03T07:13:24Z</time></trkpt><trkpt lat="44.46223146284229" lon="7.88655692902187"><ele>285.3333333333333</ele><time>2026-05-03T07:13:25Z</time></trkpt><trkpt lat="44.46208407686497" lon="7.886731208113881"><ele>284.6666666666667</ele><time>2026-05-03T07:13:26Z</time></trkpt><trkpt lat="44.46194047163745" lon="7.8869057464703385"><ele>284.0</ele><time>2026-05-03T07:13:27Z</time></trkpt><trkpt lat="44.46179896362075" lon="7.887083371119586"><ele>283.33333333333337</ele><time>2026-05-03T07:13:28Z</time></trkpt><trkpt lat="44.46165487820909" lon="7.887261940124605"><ele>282.6666666666667</ele><time>2026-05-03T07:13:29Z</time></trkpt><trkpt lat="44.46151123944901" lon="7.887444758266093"><ele>282.0</ele><time>2026-05-03T07:13:30Z</time></trkpt><trkpt lat="44.461367736942016" lon="7.887625685733099"><ele>281.6666666666667</ele><time>2026-05-03T07:13:31Z</time></trkpt><trkpt lat="44.461222831567135" lon="7.887811674699813"><ele>281.33333333333337</ele><time>2026-05-03T07:13:32Z</time></trkpt><trkpt lat="44.461074255896726" lon="7.887992747044321"><ele>281.0</ele><time>2026-05-03T07:13:33Z</time></trkpt><trkpt lat="44.46092556358262" lon="7.888174463391805"><ele>281.0</ele><time>2026-05-03T07:13:34Z</time></trkpt><trkpt lat="44.460776724519974" lon="7.888357870140889"><ele>281.0</ele><time>2026-05-03T07:13:35Z</time></trkpt><trkpt lat="44.460633632821086" lon="7.888537265544464"><ele>281.0</ele><time>2026-05-03T07:13:36Z</time></trkpt><trkpt lat="44.46049088954704" lon="7.8887134306887665"><ele>281.0</ele><time>2026-05-03T07:13:37Z</time></trkpt><trkpt lat="44.460342962484155" lon="7.88888104094542"><ele>281.0</ele><time>2026-05-03T07:13:38Z</time></trkpt><trkpt lat="44.46019914332617" lon="7.889053243514679"><ele>281.0</ele><time>2026-05-03T07:13:39Z</time></trkpt><trkpt lat="44.460057362314586" lon="7.8892212078153205"><ele>279.6666666666667</ele><time>2026-05-03T07:13:40Z</time></trkpt><trkpt lat="44.45991387924827" lon="7.889385321075932"><ele>278.3333333333333</ele><time>2026-05-03T07:13:41Z</time></trkpt><trkpt lat="44.45976370515427" lon="7.889537505698805"><ele>277.0</ele><time>2026-05-03T07:13:42Z</time></trkpt><trkpt lat="44.459606308915845" lon="7.889677691543077"><ele>277.0</ele><time>2026-05-03T07:13:43Z</time></trkpt><trkpt lat="44.459444048617286" lon="7.889803881944811"><ele>277.0</ele><time>2026-05-03T07:13:44Z</time></trkpt><trkpt lat="44.45927663867208" lon="7.889921320233848"><ele>277.0</ele><time>2026-05-03T07:13:45Z</time></trkpt><trkpt lat="44.4591054939149" lon="7.89002061335475"><ele>276.3333333333333</ele><time>2026-05-03T07:13:46Z</time></trkpt><trkpt lat="44.45892955860859" lon="7.890110008688154"><ele>275.6666666666667</ele><time>2026-05-03T07:13:47Z</time></trkpt><trkpt lat="44.45875101886088" lon="7.890189192848784"><ele>275.0</ele><time>2026-05-03T07:13:48Z</time></trkpt><trkpt lat="44.45856964565221" lon="7.8902560932036385"><ele>274.33333333333337</ele><time>2026-05-03T07:13:49Z</time></trkpt><trkpt lat="44.45838732983429" lon="7.890318149141998"><ele>273.6666666666667</ele><time>2026-05-03T07:13:50Z</time></trkpt><trkpt lat="44.4582016908916" lon="7.890379577992501"><ele>273.0</ele><time>2026-05-03T07:13:51Z</time></trkpt><trkpt lat="44.45801488397916" lon="7.8904454853393196"><ele>272.6666666666667</ele><time>2026-05-03T07:13:52Z</time></trkpt><trkpt lat="44.457827375196494" lon="7.89051195047212"><ele>272.33333333333337</ele><time>2026-05-03T07:13:53Z</time></trkpt><trkpt lat="44.457636582927044" lon="7.890582505514668"><ele>272.0</ele><time>2026-05-03T07:13:54Z</time></trkpt><trkpt lat="44.45744532680311" lon="7.890648425139297"><ele>272.0</ele><time>2026-05-03T07:13:55Z</time></trkpt><trkpt lat="44.45725490286854" lon="7.890717697393678"><ele>272.0</ele><time>2026-05-03T07:13:56Z</time></trkpt><trkpt lat="44.45706137293459" lon="7.890784414666416"><ele>272.0</ele><time>2026-05-03T07:13:57Z</time></trkpt><trkpt lat="44.45686922103573" lon="7.890850064207099"><ele>273.0</ele><time>2026-05-03T07:13:58Z</time></trkpt><trkpt lat="44.45667625430384" lon="7.890921853192389"><ele>274.0</ele><time>2026-05-03T07:13:59Z</time></trkpt><trkpt lat="44.45648184275732" lon="7.890988463478158"><ele>275.0</ele><time>2026-05-03T07:13:59.999Z</time></trkpt><trkpt lat="44.456291910606" lon="7.891057223388013"><ele>277.33333333333337</ele><time>2026-05-03T07:14:00.999Z</time></trkpt><trkpt lat="44.456098911102316" lon="7.8911254159908015"><ele>279.6666666666667</ele><time>2026-05-03T07:14:01.999Z</time></trkpt><trkpt lat="44.455906090771535" lon="7.891193533219441"><ele>282.0</ele><time>2026-05-03T07:14:02.999Z</time></trkpt><trkpt lat="44.4557086457951" lon="7.891238028043821"><ele>282.0</ele><time>2026-05-03T07:14:03.999Z</time></trkpt><trkpt lat="44.45552072013362" lon="7.891302993172399"><ele>282.0</ele><time>2026-05-03T07:14:04.999Z</time></trkpt><trkpt lat="44.455325517638755" lon="7.891370473833911"><ele>282.0</ele><time>2026-05-03T07:14:05.999Z</time></trkpt><trkpt lat="44.45513584881055" lon="7.891436041771967"><ele>282.0</ele><time>2026-05-03T07:14:06.999Z</time></trkpt><trkpt lat="44.454951088852646" lon="7.891499320053645"><ele>282.0</ele><time>2026-05-03T07:14:07.999Z</time></trkpt><trkpt lat="44.454765973073876" lon="7.891583792182448"><ele>282.0</ele><time>2026-05-03T07:14:08.999Z</time></trkpt><trkpt lat="44.45457594773522" lon="7.891646978939777"><ele>282.0</ele><time>2026-05-03T07:14:09.999Z</time></trkpt><trkpt lat="44.45438761431925" lon="7.891708496535235"><ele>282.0</ele><time>2026-05-03T07:14:10.999Z</time></trkpt><trkpt lat="44.45420232818711" lon="7.891770182645176"><ele>282.0</ele><time>2026-05-03T07:14:11.999Z</time></trkpt><trkpt lat="44.454015201772236" lon="7.891833927959295"><ele>282.3333333333333</ele><time>2026-05-03T07:14:12.999Z</time></trkpt><trkpt lat="44.453830369486326" lon="7.891898446329103"><ele>282.66666666666663</ele><time>2026-05-03T07:14:13.999Z</time></trkpt><trkpt lat="44.4536475109891" lon="7.891965656188517"><ele>283.0</ele><time>2026-05-03T07:14:14.999Z</time></trkpt><trkpt lat="44.45346043260725" lon="7.892030214911854"><ele>282.0</ele><time>2026-05-03T07:14:15.999Z</time></trkpt><trkpt lat="44.453275081377306" lon="7.892092683487712"><ele>281.0</ele><time>2026-05-03T07:14:16.999Z</time></trkpt><trkpt lat="44.45308667937314" lon="7.892158264887573"><ele>280.0</ele><time>2026-05-03T07:14:17.999Z</time></trkpt><trkpt lat="44.45290971427701" lon="7.892217446655021"><ele>280.0</ele><time>2026-05-03T07:14:18.999Z</time></trkpt><trkpt lat="44.452742790342946" lon="7.892270176696907"><ele>280.0</ele><time>2026-05-03T07:14:19.999Z</time></trkpt><trkpt lat="44.45258563433087" lon="7.892325904912081"><ele>280.0</ele><time>2026-05-03T07:14:20.999Z</time></trkpt><trkpt lat="44.4524457396128" lon="7.892371409149686"><ele>280.0</ele><time>2026-05-03T07:14:21.999Z</time></trkpt><trkpt lat="44.45231411332158" lon="7.892411180531762"><ele>280.0</ele><time>2026-05-03T07:14:22.999Z</time></trkpt><trkpt lat="44.45218905080189" lon="7.892455279641703"><ele>280.0</ele><time>2026-05-03T07:14:23.999Z</time></trkpt><trkpt lat="44.45207430614008" lon="7.892484295344165"><ele>280.0</ele><time>2026-05-03T07:14:24.999Z</time></trkpt><trkpt lat="44.45197159741737" lon="7.892508200475417"><ele>280.6</ele><time>2026-05-03T07:14:25.999Z</time></trkpt><trkpt lat="44.45187091382178" lon="7.892510241243505"><ele>281.2</ele><time>2026-05-03T07:14:26.999Z</time></trkpt><trkpt lat="44.4517762549881" lon="7.89249716067396"><ele>281.8</ele><time>2026-05-03T07:14:27.999Z</time></trkpt><trkpt lat="44.451691618678105" lon="7.892469385672676"><ele>282.4</ele><time>2026-05-03T07:14:28.999Z</time></trkpt><trkpt lat="44.4516013711028" lon="7.892427834331219"><ele>283.0</ele><time>2026-05-03T07:14:29.999Z</time></trkpt><trkpt lat="44.45151261261927" lon="7.89240438224208"><ele>283.0</ele><time>2026-05-03T07:14:30.999Z</time></trkpt><trkpt lat="44.45144090048313" lon="7.892364060515339"><ele>283.0</ele><time>2026-05-03T07:14:31.999Z</time></trkpt><trkpt lat="44.45136384820854" lon="7.892419526240185"><ele>283.0</ele><time>2026-05-03T07:14:32.999Z</time></trkpt><trkpt lat="44.45127283031038" lon="7.892546138876477"><ele>283.0</ele><time>2026-05-03T07:14:34.999Z</time></trkpt><trkpt lat="44.45124374479624" lon="7.892653399263292"><ele>283.0</ele><time>2026-05-03T07:14:35.999Z</time></trkpt><trkpt lat="44.45121311903061" lon="7.892769161789156"><ele>282.8</ele><time>2026-05-03T07:14:36.999Z</time></trkpt><trkpt lat="44.45118443869192" lon="7.89289692457435"><ele>282.6</ele><time>2026-05-03T07:14:37.999Z</time></trkpt><trkpt lat="44.451146442267834" lon="7.893034751647214"><ele>282.4</ele><time>2026-05-03T07:14:38.999Z</time></trkpt><trkpt lat="44.4510957292119" lon="7.8931689242741285"><ele>282.2</ele><time>2026-05-03T07:14:39.999Z</time></trkpt><trkpt lat="44.4510341231989" lon="7.8932939555206145"><ele>282.0</ele><time>2026-05-03T07:14:40.999Z</time></trkpt><trkpt lat="44.45095922112273" lon="7.893412990416592"><ele>282.0</ele><time>2026-05-03T07:14:41.999Z</time></trkpt><trkpt lat="44.450879920010436" lon="7.8935231253490965"><ele>282.0</ele><time>2026-05-03T07:14:42.999Z</time></trkpt><trkpt lat="44.45078655427823" lon="7.8936382004000665"><ele>282.0</ele><time>2026-05-03T07:14:43.999Z</time></trkpt><trkpt lat="44.45068700202046" lon="7.893764022524156"><ele>282.0</ele><time>2026-05-03T07:14:44.999Z</time></trkpt><trkpt lat="44.45057318185992" lon="7.893877522056814"><ele>282.0</ele><time>2026-05-03T07:14:45.999Z</time></trkpt><trkpt lat="44.450461529292944" lon="7.894012633922905"><ele>282.0</ele><time>2026-05-03T07:14:46.999Z</time></trkpt><trkpt lat="44.45034595691414" lon="7.894157682481099"><ele>282.0</ele><time>2026-05-03T07:14:47.999Z</time></trkpt><trkpt lat="44.45022382373164" lon="7.894297152321134"><ele>284.3333333333333</ele><time>2026-05-03T07:14:48.999Z</time></trkpt><trkpt lat="44.45010233751546" lon="7.894444251784645"><ele>286.66666666666663</ele><time>2026-05-03T07:14:49.999Z</time></trkpt><trkpt lat="44.44998137807866" lon="7.894595286844181"><ele>289.0</ele><time>2026-05-03T07:14:50.999Z</time></trkpt><trkpt lat="44.44986856083551" lon="7.894781367993377"><ele>289.0</ele><time>2026-05-03T07:14:51.999Z</time></trkpt><trkpt lat="44.44975668781233" lon="7.8949191575922955"><ele>289.0</ele><time>2026-05-03T07:14:52.999Z</time></trkpt><trkpt lat="44.44965420852507" lon="7.895029125782896"><ele>289.0</ele><time>2026-05-03T07:14:53.999Z</time></trkpt><trkpt lat="44.44954582237001" lon="7.895141413327834"><ele>289.0</ele><time>2026-05-03T07:14:54.999Z</time></trkpt><trkpt lat="44.44943345709749" lon="7.895249046888272"><ele>289.75</ele><time>2026-05-03T07:14:55.999Z</time></trkpt><trkpt lat="44.44932290236964" lon="7.8953388911498985"><ele>290.5</ele><time>2026-05-03T07:14:56.999Z</time></trkpt><trkpt lat="44.44920812758044" lon="7.895421760783468"><ele>291.25</ele><time>2026-05-03T07:14:57.999Z</time></trkpt><trkpt lat="44.44909021945802" lon="7.895492896712913"><ele>292.0</ele><time>2026-05-03T07:14:58.998Z</time></trkpt><trkpt lat="44.448982013993785" lon="7.895535559185954"><ele>292.0</ele><time>2026-05-03T07:14:59.998Z</time></trkpt><trkpt lat="44.44887132972357" lon="7.895576599329662"><ele>292.0</ele><time>2026-05-03T07:15:00.998Z</time></trkpt><trkpt lat="44.44876470639837" lon="7.895594155606198"><ele>292.0</ele><time>2026-05-03T07:15:01.998Z</time></trkpt><trkpt lat="44.44865929078906" lon="7.895631837059165"><ele>292.0</ele><time>2026-05-03T07:15:02.998Z</time></trkpt><trkpt lat="44.44855024477391" lon="7.895672377348988"><ele>292.0</ele><time>2026-05-03T07:15:03.998Z</time></trkpt><trkpt lat="44.44844241210832" lon="7.895713691412034"><ele>292.4</ele><time>2026-05-03T07:15:04.998Z</time></trkpt><trkpt lat="44.44833808575625" lon="7.895749391794917"><ele>292.79999999999995</ele><time>2026-05-03T07:15:05.998Z</time></trkpt><trkpt lat="44.448231758322855" lon="7.895791595372607"><ele>293.2</ele><time>2026-05-03T07:15:06.998Z</time></trkpt><trkpt lat="44.448125893234035" lon="7.89582975217901"><ele>293.59999999999997</ele><time>2026-05-03T07:15:07.998Z</time></trkpt><trkpt lat="44.4480175782774" lon="7.895868281996107"><ele>294.0</ele><time>2026-05-03T07:15:08.998Z</time></trkpt><trkpt lat="44.44791226203918" lon="7.895904899510972"><ele>295.0</ele><time>2026-05-03T07:15:09.998Z</time></trkpt><trkpt lat="44.447806865382404" lon="7.895948504100672"><ele>296.0</ele><time>2026-05-03T07:15:10.998Z</time></trkpt><trkpt lat="44.44769952861445" lon="7.895989645893559"><ele>297.0</ele><time>2026-05-03T07:15:11.998Z</time></trkpt><trkpt lat="44.4475875320239" lon="7.896031461944397"><ele>298.0</ele><time>2026-05-03T07:15:12.998Z</time></trkpt><trkpt lat="44.447479173361145" lon="7.896072822154675"><ele>299.0</ele><time>2026-05-03T07:15:13.998Z</time></trkpt><trkpt lat="44.447373147534805" lon="7.8961054606626115"><ele>299.0</ele><time>2026-05-03T07:15:14.998Z</time></trkpt><trkpt lat="44.44726479021499" lon="7.896147740168788"><ele>299.0</ele><time>2026-05-03T07:15:15.998Z</time></trkpt><trkpt lat="44.44714612092055" lon="7.8961943203215"><ele>299.0</ele><time>2026-05-03T07:15:16.998Z</time></trkpt><trkpt lat="44.44703461764375" lon="7.896238364573562"><ele>299.0</ele><time>2026-05-03T07:15:17.998Z</time></trkpt><trkpt lat="44.44691839520126" lon="7.896282038899123"><ele>298.5</ele><time>2026-05-03T07:15:19Z</time></trkpt><trkpt lat="44.44680804577222" lon="7.896324994688002"><ele>298.0</ele><time>2026-05-03T07:15:20Z</time></trkpt><trkpt lat="44.44669364711474" lon="7.896359123515135"><ele>297.5</ele><time>2026-05-03T07:15:21Z</time></trkpt><trkpt lat="44.446576436467815" lon="7.896349308568393"><ele>297.0</ele><time>2026-05-03T07:15:22Z</time></trkpt><trkpt lat="44.446461332494245" lon="7.896355459580332"><ele>297.0</ele><time>2026-05-03T07:15:23Z</time></trkpt><trkpt lat="44.44635733201112" lon="7.896346139742964"><ele>297.0</ele><time>2026-05-03T07:15:24Z</time></trkpt><trkpt lat="44.446259898162445" lon="7.896320337032958"><ele>297.0</ele><time>2026-05-03T07:15:25Z</time></trkpt><trkpt lat="44.44615976226139" lon="7.8962713034575005"><ele>297.0</ele><time>2026-05-03T07:15:26Z</time></trkpt><trkpt lat="44.4460603287497" lon="7.896207073807898"><ele>297.0</ele><time>2026-05-03T07:15:27Z</time></trkpt><trkpt lat="44.44596862862235" lon="7.8961204666095695"><ele>296.0</ele><time>2026-05-03T07:15:28Z</time></trkpt><trkpt lat="44.445879525346356" lon="7.896011401060547"><ele>295.0</ele><time>2026-05-03T07:15:29Z</time></trkpt><trkpt lat="44.44580214459545" lon="7.895883781847598"><ele>294.0</ele><time>2026-05-03T07:15:30Z</time></trkpt><trkpt lat="44.44573294002171" lon="7.895739031036256"><ele>293.0</ele><time>2026-05-03T07:15:31Z</time></trkpt><trkpt lat="44.44565232356368" lon="7.895597996472962"><ele>293.0</ele><time>2026-05-03T07:15:32Z</time></trkpt><trkpt lat="44.44558807641322" lon="7.895434419354178"><ele>293.0</ele><time>2026-05-03T07:15:33Z</time></trkpt><trkpt lat="44.445537525856984" lon="7.895256812313403"><ele>293.0</ele><time>2026-05-03T07:15:34Z</time></trkpt><trkpt lat="44.44547541878663" lon="7.895096717816409"><ele>293.0</ele><time>2026-05-03T07:15:35Z</time></trkpt><trkpt lat="44.44541154265853" lon="7.894934485779518"><ele>290.25</ele><time>2026-05-03T07:15:36Z</time></trkpt><trkpt lat="44.44534300219531" lon="7.894770694212132"><ele>287.5</ele><time>2026-05-03T07:15:37Z</time></trkpt><trkpt lat="44.44527151310501" lon="7.894602857556325"><ele>284.75</ele><time>2026-05-03T07:15:38Z</time></trkpt><trkpt lat="44.44520351869004" lon="7.894436892230877"><ele>282.0</ele><time>2026-05-03T07:15:39Z</time></trkpt><trkpt lat="44.445131426817724" lon="7.894266016789143"><ele>282.75</ele><time>2026-05-03T07:15:40Z</time></trkpt><trkpt lat="44.44505683036832" lon="7.894092049764074"><ele>283.5</ele><time>2026-05-03T07:15:41Z</time></trkpt><trkpt lat="44.44498556879581" lon="7.89392780868371"><ele>284.25</ele><time>2026-05-03T07:15:42Z</time></trkpt><trkpt lat="44.444913737615806" lon="7.89376375935416"><ele>285.0</ele><time>2026-05-03T07:15:43Z</time></trkpt><trkpt lat="44.44484055049083" lon="7.893603036267632"><ele>285.0</ele><time>2026-05-03T07:15:44Z</time></trkpt><trkpt lat="44.44476134703392" lon="7.893443009841482"><ele>285.0</ele><time>2026-05-03T07:15:45Z</time></trkpt><trkpt lat="44.44467736728811" lon="7.893277912397066"><ele>285.0</ele><time>2026-05-03T07:15:46Z</time></trkpt><trkpt lat="44.444588572150735" lon="7.8931342543231455"><ele>285.0</ele><time>2026-05-03T07:15:47Z</time></trkpt><trkpt lat="44.44449332054261" lon="7.89300778111055"><ele>285.5</ele><time>2026-05-03T07:15:48Z</time></trkpt><trkpt lat="44.4443978056764" lon="7.89289849298642"><ele>286.0</ele><time>2026-05-03T07:15:49Z</time></trkpt><trkpt lat="44.44430041210353" lon="7.892796873854406"><ele>286.5</ele><time>2026-05-03T07:15:50Z</time></trkpt><trkpt lat="44.444203643133555" lon="7.892701527722455"><ele>287.0</ele><time>2026-05-03T07:15:51Z</time></trkpt><trkpt lat="44.44411433587351" lon="7.892621433108003"><ele>287.0</ele><time>2026-05-03T07:15:52Z</time></trkpt><trkpt lat="44.444021322992896" lon="7.892542649834263"><ele>287.0</ele><time>2026-05-03T07:15:53Z</time></trkpt><trkpt lat="44.44392300071142" lon="7.892470258169252"><ele>287.0</ele><time>2026-05-03T07:15:54Z</time></trkpt><trkpt lat="44.443827409261054" lon="7.892402703144714"><ele>287.0</ele><time>2026-05-03T07:15:55Z</time></trkpt><trkpt lat="44.443730130945845" lon="7.892331505945079"><ele>287.0</ele><time>2026-05-03T07:15:56Z</time></trkpt><trkpt lat="44.44363020513459" lon="7.892262857729769"><ele>287.75</ele><time>2026-05-03T07:15:57Z</time></trkpt><trkpt lat="44.44353136788823" lon="7.892193349533668"><ele>288.5</ele><time>2026-05-03T07:15:58Z</time></trkpt><trkpt lat="44.44342557906454" lon="7.892123664723045"><ele>289.25</ele><time>2026-05-03T07:15:59Z</time></trkpt><trkpt lat="44.44332350664481" lon="7.892057726384199"><ele>290.0</ele><time>2026-05-03T07:16:00Z</time></trkpt><trkpt lat="44.443220042894566" lon="7.891988654034255"><ele>290.0</ele><time>2026-05-03T07:16:01Z</time></trkpt><trkpt lat="44.44311402637739" lon="7.891918645556354"><ele>290.0</ele><time>2026-05-03T07:16:02Z</time></trkpt><trkpt lat="44.442998566380396" lon="7.891850933703271"><ele>290.0</ele><time>2026-05-03T07:16:03Z</time></trkpt><trkpt lat="44.44288646486118" lon="7.891788069616133"><ele>290.0</ele><time>2026-05-03T07:16:04Z</time></trkpt><trkpt lat="44.44277254956772" lon="7.891728390066451"><ele>290.75</ele><time>2026-05-03T07:16:05Z</time></trkpt><trkpt lat="44.44264352673283" lon="7.891682520321045"><ele>291.5</ele><time>2026-05-03T07:16:05.999Z</time></trkpt><trkpt lat="44.44252198417166" lon="7.891644216055618"><ele>292.25</ele><time>2026-05-03T07:16:06.999Z</time></trkpt><trkpt lat="44.44240124575349" lon="7.8916246752959225"><ele>293.0</ele><time>2026-05-03T07:16:07.999Z</time></trkpt><trkpt lat="44.442277075021444" lon="7.891634892355396"><ele>293.0</ele><time>2026-05-03T07:16:08.999Z</time></trkpt><trkpt lat="44.44214393368533" lon="7.891672285489252"><ele>293.0</ele><time>2026-05-03T07:16:09.999Z</time></trkpt><trkpt lat="44.44201926997279" lon="7.891729700834496"><ele>293.0</ele><time>2026-05-03T07:16:10.999Z</time></trkpt><trkpt lat="44.44190367988094" lon="7.891795073074866"><ele>293.0</ele><time>2026-05-03T07:16:11.999Z</time></trkpt><trkpt lat="44.441796540768394" lon="7.891882005068121"><ele>293.0</ele><time>2026-05-03T07:16:12.999Z</time></trkpt><trkpt lat="44.44169606037554" lon="7.891986792977083"><ele>293.0</ele><time>2026-05-03T07:16:13.999Z</time></trkpt><trkpt lat="44.44160436850986" lon="7.89210490496412"><ele>293.0</ele><time>2026-05-03T07:16:14.999Z</time></trkpt><trkpt lat="44.44152297241116" lon="7.892243051972498"><ele>293.0</ele><time>2026-05-03T07:16:15.999Z</time></trkpt><trkpt lat="44.441449685312755" lon="7.892407550314281"><ele>293.75</ele><time>2026-05-03T07:16:16.999Z</time></trkpt><trkpt lat="44.44138626941155" lon="7.892593753278571"><ele>294.5</ele><time>2026-05-03T07:16:17.999Z</time></trkpt><trkpt lat="44.44134721982368" lon="7.892783689033113"><ele>295.25</ele><time>2026-05-03T07:16:18.999Z</time></trkpt><trkpt lat="44.44130398174499" lon="7.892956781785885"><ele>296.0</ele><time>2026-05-03T07:16:19.999Z</time></trkpt><trkpt lat="44.44128059681077" lon="7.893117412280254"><ele>295.0</ele><time>2026-05-03T07:16:20.999Z</time></trkpt><trkpt lat="44.44125041198467" lon="7.8932742694441975"><ele>294.0</ele><time>2026-05-03T07:16:21.999Z</time></trkpt><trkpt lat="44.44122946349802" lon="7.893422916146831"><ele>293.0</ele><time>2026-05-03T07:16:22.999Z</time></trkpt><trkpt lat="44.44120435048752" lon="7.893551999617969"><ele>292.0</ele><time>2026-05-03T07:16:23.999Z</time></trkpt><trkpt lat="44.44118719989417" lon="7.893680566677259"><ele>291.0</ele><time>2026-05-03T07:16:24.999Z</time></trkpt><trkpt lat="44.44117059896452" lon="7.893806210588473"><ele>291.0</ele><time>2026-05-03T07:16:25.999Z</time></trkpt><trkpt lat="44.44115035640545" lon="7.893936174096863"><ele>291.0</ele><time>2026-05-03T07:16:26.999Z</time></trkpt><trkpt lat="44.44112954481305" lon="7.894072080271373"><ele>291.0</ele><time>2026-05-03T07:16:27.999Z</time></trkpt><trkpt lat="44.44111173319155" lon="7.894214930242175"><ele>291.0</ele><time>2026-05-03T07:16:28.999Z</time></trkpt><trkpt lat="44.44110778658695" lon="7.894366954853012"><ele>291.0</ele><time>2026-05-03T07:16:29.999Z</time></trkpt><trkpt lat="44.44110040499863" lon="7.894520164613584"><ele>291.6</ele><time>2026-05-03T07:16:30.999Z</time></trkpt><trkpt lat="44.44108710990185" lon="7.894673401518131"><ele>292.20000000000005</ele><time>2026-05-03T07:16:31.999Z</time></trkpt><trkpt lat="44.441072797328715" lon="7.894818567186507"><ele>292.79999999999995</ele><time>2026-05-03T07:16:32.999Z</time></trkpt><trkpt lat="44.44105123132539" lon="7.894968539591838"><ele>293.4</ele><time>2026-05-03T07:16:33.999Z</time></trkpt><trkpt lat="44.44103128599272" lon="7.895117655167045"><ele>294.0</ele><time>2026-05-03T07:16:34.999Z</time></trkpt><trkpt lat="44.441013040355266" lon="7.895269704122525"><ele>294.25</ele><time>2026-05-03T07:16:35.999Z</time></trkpt><trkpt lat="44.44099694919703" lon="7.895425778685006"><ele>294.5</ele><time>2026-05-03T07:16:36.999Z</time></trkpt><trkpt lat="44.4409845033169" lon="7.8955818312702055"><ele>294.75</ele><time>2026-05-03T07:16:37.999Z</time></trkpt><trkpt lat="44.44097262572479" lon="7.8957370880527"><ele>295.0</ele><time>2026-05-03T07:16:38.999Z</time></trkpt><trkpt lat="44.44096663661427" lon="7.895898943163271"><ele>294.75</ele><time>2026-05-03T07:16:39.999Z</time></trkpt><trkpt lat="44.440955853379585" lon="7.896064375064813"><ele>294.5</ele><time>2026-05-03T07:16:40.999Z</time></trkpt><trkpt lat="44.44094009524984" lon="7.896227721640067"><ele>294.25</ele><time>2026-05-03T07:16:41.999Z</time></trkpt><trkpt lat="44.440921553603815" lon="7.896395098746501"><ele>294.0</ele><time>2026-05-03T07:16:42.999Z</time></trkpt><trkpt lat="44.44090846308976" lon="7.896555172474794"><ele>294.0</ele><time>2026-05-03T07:16:43.999Z</time></trkpt><trkpt lat="44.440893400607884" lon="7.896722936324687"><ele>294.0</ele><time>2026-05-03T07:16:44.999Z</time></trkpt><trkpt lat="44.440876936108744" lon="7.896888867215205"><ele>294.0</ele><time>2026-05-03T07:16:45.999Z</time></trkpt><trkpt lat="44.44085985209675" lon="7.897063859911386"><ele>294.0</ele><time>2026-05-03T07:16:46.999Z</time></trkpt><trkpt lat="44.44084461863645" lon="7.897235635611396"><ele>294.25</ele><time>2026-05-03T07:16:47.999Z</time></trkpt><trkpt lat="44.440829892461444" lon="7.897412078984407"><ele>294.5</ele><time>2026-05-03T07:16:48.999Z</time></trkpt><trkpt lat="44.44081332610814" lon="7.897585242431404"><ele>294.75</ele><time>2026-05-03T07:16:49.999Z</time></trkpt><trkpt lat="44.44079656384984" lon="7.89776168990608"><ele>295.0</ele><time>2026-05-03T07:16:50.999Z</time></trkpt><trkpt lat="44.44077970890263" lon="7.897939231604033"><ele>295.25</ele><time>2026-05-03T07:16:51.999Z</time></trkpt><trkpt lat="44.44076509257243" lon="7.898115987314995"><ele>295.5</ele><time>2026-05-03T07:16:52.999Z</time></trkpt><trkpt lat="44.44075419230741" lon="7.898294640207538"><ele>295.75</ele><time>2026-05-03T07:16:53.999Z</time></trkpt><trkpt lat="44.44073815807128" lon="7.8984766757345835"><ele>296.0</ele><time>2026-05-03T07:16:54.999Z</time></trkpt><trkpt lat="44.44071579086394" lon="7.898661303895093"><ele>296.0</ele><time>2026-05-03T07:16:55.999Z</time></trkpt><trkpt lat="44.44069084063756" lon="7.8988428801784805"><ele>296.0</ele><time>2026-05-03T07:16:56.999Z</time></trkpt><trkpt lat="44.44066147307034" lon="7.899030656021109"><ele>296.0</ele><time>2026-05-03T07:16:57.999Z</time></trkpt><trkpt lat="44.44062720999292" lon="7.899211136970894"><ele>296.0</ele><time>2026-05-03T07:16:58.999Z</time></trkpt><trkpt lat="44.44059287513253" lon="7.899391942657573"><ele>296.25</ele><time>2026-05-03T07:16:59.999Z</time></trkpt><trkpt lat="44.440554251767665" lon="7.899564431565698"><ele>296.5</ele><time>2026-05-03T07:17:00.999Z</time></trkpt><trkpt lat="44.44051472345992" lon="7.899735276160415"><ele>296.75</ele><time>2026-05-03T07:17:01.999Z</time></trkpt><trkpt lat="44.44047683759503" lon="7.899897640728897"><ele>297.0</ele><time>2026-05-03T07:17:02.999Z</time></trkpt><trkpt lat="44.4404313629921" lon="7.900062589027939"><ele>298.5</ele><time>2026-05-03T07:17:03.998Z</time></trkpt><trkpt lat="44.44037866593152" lon="7.900223578554614"><ele>300.0</ele><time>2026-05-03T07:17:04.998Z</time></trkpt><trkpt lat="44.44032683164515" lon="7.900386113609332"><ele>301.5</ele><time>2026-05-03T07:17:05.998Z</time></trkpt><trkpt lat="44.44026969961443" lon="7.900540655435145"><ele>303.0</ele><time>2026-05-03T07:17:06.998Z</time></trkpt><trkpt lat="44.44021219170525" lon="7.900696120725054"><ele>303.0</ele><time>2026-05-03T07:17:07.998Z</time></trkpt><trkpt lat="44.44015222223158" lon="7.900846654294415"><ele>303.0</ele><time>2026-05-03T07:17:08.998Z</time></trkpt><trkpt lat="44.44008470352797" lon="7.900992024821257"><ele>303.0</ele><time>2026-05-03T07:17:09.998Z</time></trkpt><trkpt lat="44.44001859352015" lon="7.901133443680125"><ele>303.0</ele><time>2026-05-03T07:17:10.998Z</time></trkpt><trkpt lat="44.43995343452503" lon="7.901272441277336"><ele>305.0</ele><time>2026-05-03T07:17:11.998Z</time></trkpt><trkpt lat="44.43988832944708" lon="7.901418716297601"><ele>307.0</ele><time>2026-05-03T07:17:12.998Z</time></trkpt><trkpt lat="44.43982234996901" lon="7.901557924255957"><ele>309.0</ele><time>2026-05-03T07:17:13.998Z</time></trkpt><trkpt lat="44.43975349179181" lon="7.9017047918288705"><ele>311.0</ele><time>2026-05-03T07:17:14.998Z</time></trkpt><trkpt lat="44.439687763661894" lon="7.901852482034188"><ele>311.75</ele><time>2026-05-03T07:17:15.998Z</time></trkpt><trkpt lat="44.43960937186014" lon="7.9020097170411585"><ele>312.5</ele><time>2026-05-03T07:17:16.998Z</time></trkpt><trkpt lat="44.43953998075394" lon="7.902156474642022"><ele>313.25</ele><time>2026-05-03T07:17:17.998Z</time></trkpt><trkpt lat="44.4394715191237" lon="7.902297712038159"><ele>314.0</ele><time>2026-05-03T07:17:18.998Z</time></trkpt><trkpt lat="44.43940573739249" lon="7.902439630331265"><ele>314.0</ele><time>2026-05-03T07:17:19.998Z</time></trkpt><trkpt lat="44.43934149358147" lon="7.9025811096374765"><ele>314.0</ele><time>2026-05-03T07:17:20.998Z</time></trkpt><trkpt lat="44.43927533464148" lon="7.902725700332595"><ele>314.0</ele><time>2026-05-03T07:17:21.998Z</time></trkpt><trkpt lat="44.43920953231363" lon="7.902858268218132"><ele>314.0</ele><time>2026-05-03T07:17:22.998Z</time></trkpt><trkpt lat="44.43914929359267" lon="7.902993997040369"><ele>315.6</ele><time>2026-05-03T07:17:23.998Z</time></trkpt><trkpt lat="44.43908882879085" lon="7.903126192796442"><ele>317.2</ele><time>2026-05-03T07:17:25Z</time></trkpt><trkpt lat="44.4390312956356" lon="7.903254367994909"><ele>318.8</ele><time>2026-05-03T07:17:26Z</time></trkpt><trkpt lat="44.43897427271788" lon="7.903381550563082"><ele>320.40000000000003</ele><time>2026-05-03T07:17:27Z</time></trkpt><trkpt lat="44.4389098378534" lon="7.9035034653745635"><ele>322.0</ele><time>2026-05-03T07:17:28Z</time></trkpt><trkpt lat="44.43884870848391" lon="7.90363629508312"><ele>322.40000000000003</ele><time>2026-05-03T07:17:29Z</time></trkpt><trkpt lat="44.438789056059356" lon="7.903767138895951"><ele>322.8</ele><time>2026-05-03T07:17:30Z</time></trkpt><trkpt lat="44.4387248966039" lon="7.903896066120105"><ele>323.2</ele><time>2026-05-03T07:17:31Z</time></trkpt><trkpt lat="44.4386561161584" lon="7.904021011307145"><ele>323.6</ele><time>2026-05-03T07:17:32Z</time></trkpt><trkpt lat="44.43858492901544" lon="7.904139916730937"><ele>324.0</ele><time>2026-05-03T07:17:33Z</time></trkpt><trkpt lat="44.43850242128083" lon="7.904263238007121"><ele>326.5</ele><time>2026-05-03T07:17:34Z</time></trkpt><trkpt lat="44.43841143379291" lon="7.9043750685685605"><ele>329.0</ele><time>2026-05-03T07:17:35Z</time></trkpt><trkpt lat="44.43831872736804" lon="7.904486009937374"><ele>331.5</ele><time>2026-05-03T07:17:36Z</time></trkpt><trkpt lat="44.43822317800468" lon="7.904592280223142"><ele>334.0</ele><time>2026-05-03T07:17:37Z</time></trkpt><trkpt lat="44.43811960109287" lon="7.904694061217193"><ele>334.0</ele><time>2026-05-03T07:17:38Z</time></trkpt><trkpt lat="44.438013823869674" lon="7.90479114301585"><ele>334.0</ele><time>2026-05-03T07:17:39Z</time></trkpt><trkpt lat="44.437903583776" lon="7.904874466799051"><ele>334.0</ele><time>2026-05-03T07:17:40Z</time></trkpt><trkpt lat="44.43778672394726" lon="7.904957744936295"><ele>334.0</ele><time>2026-05-03T07:17:41Z</time></trkpt><trkpt lat="44.43766345660741" lon="7.905029249868269"><ele>334.25</ele><time>2026-05-03T07:17:42Z</time></trkpt><trkpt lat="44.43753139547704" lon="7.9051010750817845"><ele>334.5</ele><time>2026-05-03T07:17:43Z</time></trkpt><trkpt lat="44.43739429672841" lon="7.905142357419643"><ele>334.75</ele><time>2026-05-03T07:17:44Z</time></trkpt><trkpt lat="44.43725792348776" lon="7.905207318751142"><ele>335.0</ele><time>2026-05-03T07:17:45Z</time></trkpt><trkpt lat="44.43712091571819" lon="7.905264399058723"><ele>335.0</ele><time>2026-05-03T07:17:46Z</time></trkpt><trkpt lat="44.43698099266928" lon="7.905334820710976"><ele>335.0</ele><time>2026-05-03T07:17:47Z</time></trkpt><trkpt lat="44.43683781823843" lon="7.905395059805956"><ele>335.0</ele><time>2026-05-03T07:17:48Z</time></trkpt><trkpt lat="44.43669058398664" lon="7.905461102686036"><ele>335.0</ele><time>2026-05-03T07:17:49Z</time></trkpt><trkpt lat="44.436541107171074" lon="7.905528043696858"><ele>335.0</ele><time>2026-05-03T07:17:50Z</time></trkpt><trkpt lat="44.43639601944077" lon="7.905590540348811"><ele>335.0</ele><time>2026-05-03T07:17:51Z</time></trkpt><trkpt lat="44.43624344223623" lon="7.905664936728231"><ele>332.33333333333337</ele><time>2026-05-03T07:17:52Z</time></trkpt><trkpt lat="44.43609263214043" lon="7.905736603282561"><ele>329.6666666666667</ele><time>2026-05-03T07:17:53Z</time></trkpt><trkpt lat="44.43593785891912" lon="7.90581003654869"><ele>327.0</ele><time>2026-05-03T07:17:54Z</time></trkpt><trkpt lat="44.43578704652763" lon="7.905882699451159"><ele>328.0</ele><time>2026-05-03T07:17:55Z</time></trkpt><trkpt lat="44.435630298084874" lon="7.905963716805494"><ele>329.0</ele><time>2026-05-03T07:17:56Z</time></trkpt><trkpt lat="44.435476374476096" lon="7.906037563093581"><ele>330.0</ele><time>2026-05-03T07:17:57Z</time></trkpt><trkpt lat="44.43532625356414" lon="7.906135478154727"><ele>332.3333333333333</ele><time>2026-05-03T07:17:58Z</time></trkpt><trkpt lat="44.4351890039323" lon="7.906257658548199"><ele>334.66666666666663</ele><time>2026-05-03T07:17:59Z</time></trkpt><trkpt lat="44.4350537800746" lon="7.906388475376796"><ele>337.0</ele><time>2026-05-03T07:18:00Z</time></trkpt><trkpt lat="44.43491539508078" lon="7.906514210439101"><ele>337.0</ele><time>2026-05-03T07:18:01Z</time></trkpt><trkpt lat="44.43478157161423" lon="7.90664238676592"><ele>337.0</ele><time>2026-05-03T07:18:02Z</time></trkpt><trkpt lat="44.43464878549077" lon="7.9067787621389005"><ele>337.0</ele><time>2026-05-03T07:18:03Z</time></trkpt><trkpt lat="44.43450810597255" lon="7.906909016818856"><ele>340.0</ele><time>2026-05-03T07:18:04Z</time></trkpt><trkpt lat="44.43437279629674" lon="7.907042346475814"><ele>343.0</ele><time>2026-05-03T07:18:05Z</time></trkpt><trkpt lat="44.434233667502625" lon="7.907180204718109"><ele>346.0</ele><time>2026-05-03T07:18:06Z</time></trkpt><trkpt lat="44.43409593416553" lon="7.907308525643562"><ele>346.0</ele><time>2026-05-03T07:18:07Z</time></trkpt><trkpt lat="44.43395988932378" lon="7.907445013643355"><ele>346.0</ele><time>2026-05-03T07:18:08Z</time></trkpt><trkpt lat="44.43383549578835" lon="7.907596014869528"><ele>346.0</ele><time>2026-05-03T07:18:09Z</time></trkpt><trkpt lat="44.43372228052196" lon="7.907760991909983"><ele>348.0</ele><time>2026-05-03T07:18:10Z</time></trkpt><trkpt lat="44.433613690583755" lon="7.907928417342823"><ele>350.0</ele><time>2026-05-03T07:18:10.999Z</time></trkpt><trkpt lat="44.433502230294366" lon="7.908110345391881"><ele>352.0</ele><time>2026-05-03T07:18:11.999Z</time></trkpt><trkpt lat="44.433395787741134" lon="7.90828795540502"><ele>356.3333333333333</ele><time>2026-05-03T07:18:12.999Z</time></trkpt><trkpt lat="44.43329079914631" lon="7.908472193182084"><ele>360.6666666666667</ele><time>2026-05-03T07:18:13.999Z</time></trkpt><trkpt lat="44.43318261482274" lon="7.908651757359031"><ele>365.0</ele><time>2026-05-03T07:18:14.999Z</time></trkpt><trkpt lat="44.433081839594124" lon="7.908821705547093"><ele>365.0</ele><time>2026-05-03T07:18:15.999Z</time></trkpt><trkpt lat="44.43297711285679" lon="7.909001437827859"><ele>365.0</ele><time>2026-05-03T07:18:16.999Z</time></trkpt><trkpt lat="44.43287395983417" lon="7.909171913398362"><ele>365.0</ele><time>2026-05-03T07:18:17.999Z</time></trkpt><trkpt lat="44.43276099106985" lon="7.909332178177141"><ele>365.33333333333337</ele><time>2026-05-03T07:18:18.999Z</time></trkpt><trkpt lat="44.43264534272272" lon="7.909479700664996"><ele>365.6666666666667</ele><time>2026-05-03T07:18:19.999Z</time></trkpt><trkpt lat="44.432525358526455" lon="7.909608010328199"><ele>366.0</ele><time>2026-05-03T07:18:20.999Z</time></trkpt><trkpt lat="44.43240277683405" lon="7.909716022384501"><ele>366.0</ele><time>2026-05-03T07:18:21.999Z</time></trkpt><trkpt lat="44.432271911868966" lon="7.90982013874382"><ele>366.0</ele><time>2026-05-03T07:18:22.999Z</time></trkpt><trkpt lat="44.43213723016" lon="7.909899258613553"><ele>366.0</ele><time>2026-05-03T07:18:23.999Z</time></trkpt><trkpt lat="44.43200147166681" lon="7.909958971396506"><ele>366.0</ele><time>2026-05-03T07:18:24.999Z</time></trkpt><trkpt lat="44.4318534152144" lon="7.910022215912004"><ele>366.3333333333333</ele><time>2026-05-03T07:18:25.999Z</time></trkpt><trkpt lat="44.43169997453427" lon="7.910055067838261"><ele>366.66666666666663</ele><time>2026-05-03T07:18:26.999Z</time></trkpt><trkpt lat="44.431543759666766" lon="7.9100792899428205"><ele>367.0</ele><time>2026-05-03T07:18:27.999Z</time></trkpt><trkpt lat="44.43138370193729" lon="7.91009749028824"><ele>368.66666666666663</ele><time>2026-05-03T07:18:28.999Z</time></trkpt><trkpt lat="44.43122055581126" lon="7.910111688610436"><ele>370.3333333333333</ele><time>2026-05-03T07:18:29.999Z</time></trkpt><trkpt lat="44.43106833460419" lon="7.910104599164053"><ele>372.0</ele><time>2026-05-03T07:18:30.999Z</time></trkpt><trkpt lat="44.430924553901605" lon="7.910088857076503"><ele>370.5</ele><time>2026-05-03T07:18:31.999Z</time></trkpt><trkpt lat="44.43078851043856" lon="7.910056547323921"><ele>369.0</ele><time>2026-05-03T07:18:32.999Z</time></trkpt><trkpt lat="44.430642994865146" lon="7.9099978787793885"><ele>367.5</ele><time>2026-05-03T07:18:33.999Z</time></trkpt><trkpt lat="44.43049959440058" lon="7.909908949646744"><ele>366.0</ele><time>2026-05-03T07:18:34.999Z</time></trkpt><trkpt lat="44.43036323438977" lon="7.909797056386979"><ele>365.6666666666667</ele><time>2026-05-03T07:18:35.999Z</time></trkpt><trkpt lat="44.43023317261271" lon="7.909666770272323"><ele>365.33333333333337</ele><time>2026-05-03T07:18:36.999Z</time></trkpt><trkpt lat="44.4301109899001" lon="7.909514864421628"><ele>365.0</ele><time>2026-05-03T07:18:37.999Z</time></trkpt><trkpt lat="44.429988033968385" lon="7.909351005014976"><ele>364.0</ele><time>2026-05-03T07:18:38.999Z</time></trkpt><trkpt lat="44.42987004958829" lon="7.909167264163845"><ele>363.0</ele><time>2026-05-03T07:18:39.999Z</time></trkpt><trkpt lat="44.429753442988556" lon="7.908976788550001"><ele>362.0</ele><time>2026-05-03T07:18:40.999Z</time></trkpt><trkpt lat="44.42964570562047" lon="7.908795252779577"><ele>362.33333333333337</ele><time>2026-05-03T07:18:41.999Z</time></trkpt><trkpt lat="44.42954025947651" lon="7.908619255724336"><ele>362.6666666666667</ele><time>2026-05-03T07:18:42.999Z</time></trkpt><trkpt lat="44.429441058653815" lon="7.908455907000198"><ele>363.0</ele><time>2026-05-03T07:18:43.999Z</time></trkpt><trkpt lat="44.429348101532256" lon="7.908302276869136"><ele>362.5</ele><time>2026-05-03T07:18:44.999Z</time></trkpt><trkpt lat="44.42925606916428" lon="7.908155698183421"><ele>362.0</ele><time>2026-05-03T07:18:45.999Z</time></trkpt><trkpt lat="44.429171128697725" lon="7.908009353691577"><ele>361.5</ele><time>2026-05-03T07:18:46.999Z</time></trkpt><trkpt lat="44.42908792857039" lon="7.9078682704580725"><ele>361.0</ele><time>2026-05-03T07:18:47.999Z</time></trkpt><trkpt lat="44.429010511240584" lon="7.907740097863989"><ele>361.0</ele><time>2026-05-03T07:18:48.999Z</time></trkpt><trkpt lat="44.42893580803576" lon="7.907619974758547"><ele>361.0</ele><time>2026-05-03T07:18:49.999Z</time></trkpt><trkpt lat="44.428866084856416" lon="7.907510190975621"><ele>361.0</ele><time>2026-05-03T07:18:50.999Z</time></trkpt><trkpt lat="44.428790911508244" lon="7.907417473281999"><ele>361.0</ele><time>2026-05-03T07:18:51.999Z</time></trkpt><trkpt lat="44.42870751743645" lon="7.907337548656561"><ele>361.0</ele><time>2026-05-03T07:18:52.999Z</time></trkpt><trkpt lat="44.42861501846024" lon="7.90727303680355"><ele>360.6</ele><time>2026-05-03T07:18:53.999Z</time></trkpt><trkpt lat="44.4285246835926" lon="7.907206999276804"><ele>360.20000000000005</ele><time>2026-05-03T07:18:54.999Z</time></trkpt><trkpt lat="44.428430386020196" lon="7.907182179156384"><ele>359.79999999999995</ele><time>2026-05-03T07:18:55.999Z</time></trkpt><trkpt lat="44.428329994288475" lon="7.907175567478577"><ele>359.4</ele><time>2026-05-03T07:18:56.999Z</time></trkpt><trkpt lat="44.42822830182988" lon="7.907184879395273"><ele>359.0</ele><time>2026-05-03T07:18:57.999Z</time></trkpt><trkpt lat="44.42812894795672" lon="7.907221449399153"><ele>359.0</ele><time>2026-05-03T07:18:58.999Z</time></trkpt><trkpt lat="44.42803393675238" lon="7.907283506565729"><ele>359.0</ele><time>2026-05-03T07:18:59.999Z</time></trkpt><trkpt lat="44.42794491524896" lon="7.907373320553764"><ele>359.0</ele><time>2026-05-03T07:19:00.999Z</time></trkpt><trkpt lat="44.427866700349114" lon="7.907483633597221"><ele>359.0</ele><time>2026-05-03T07:19:01.999Z</time></trkpt><trkpt lat="44.4278118782872" lon="7.907611836072172"><ele>359.0</ele><time>2026-05-03T07:19:02.999Z</time></trkpt><trkpt lat="44.42774800505773" lon="7.907716006414935"><ele>355.79999999999995</ele><time>2026-05-03T07:19:03.999Z</time></trkpt><trkpt lat="44.42771819678719" lon="7.9078347769030275"><ele>352.59999999999997</ele><time>2026-05-03T07:19:04.999Z</time></trkpt><trkpt lat="44.427669831499365" lon="7.90794086660721"><ele>349.4</ele><time>2026-05-03T07:19:05.999Z</time></trkpt><trkpt lat="44.42765189254598" lon="7.908072558012691"><ele>346.2</ele><time>2026-05-03T07:19:06.999Z</time></trkpt><trkpt lat="44.42768241540758" lon="7.9082139631988895"><ele>343.0</ele><time>2026-05-03T07:19:07.998Z</time></trkpt><trkpt lat="44.42769774877357" lon="7.908367043579426"><ele>341.75</ele><time>2026-05-03T07:19:08.998Z</time></trkpt><trkpt lat="44.42772242768352" lon="7.908526627377718"><ele>340.5</ele><time>2026-05-03T07:19:09.998Z</time></trkpt><trkpt lat="44.42775692646586" lon="7.908718803699903"><ele>339.25</ele><time>2026-05-03T07:19:10.998Z</time></trkpt><trkpt lat="44.427787313441186" lon="7.908899315040975"><ele>338.0</ele><time>2026-05-03T07:19:11.998Z</time></trkpt><trkpt lat="44.42782219638238" lon="7.909084225857379"><ele>336.0</ele><time>2026-05-03T07:19:12.998Z</time></trkpt><trkpt lat="44.42786957402326" lon="7.909274852178488"><ele>334.0</ele><time>2026-05-03T07:19:13.998Z</time></trkpt><trkpt lat="44.42792326630975" lon="7.909465286946236"><ele>332.0</ele><time>2026-05-03T07:19:14.998Z</time></trkpt><trkpt lat="44.427982081195054" lon="7.909648064148552"><ele>330.0</ele><time>2026-05-03T07:19:15.998Z</time></trkpt><trkpt lat="44.42803873857536" lon="7.909825269926937"><ele>334.5</ele><time>2026-05-03T07:19:16.998Z</time></trkpt><trkpt lat="44.42809476826639" lon="7.909992894775372"><ele>339.0</ele><time>2026-05-03T07:19:17.998Z</time></trkpt><trkpt lat="44.42814609217051" lon="7.910162725499964"><ele>343.5</ele><time>2026-05-03T07:19:18.998Z</time></trkpt><trkpt lat="44.428190299538436" lon="7.91033092827888"><ele>348.0</ele><time>2026-05-03T07:19:19.998Z</time></trkpt><trkpt lat="44.42822542249165" lon="7.910512659678437"><ele>348.0</ele><time>2026-05-03T07:19:20.998Z</time></trkpt><trkpt lat="44.42825407262361" lon="7.910681355874192"><ele>348.0</ele><time>2026-05-03T07:19:21.998Z</time></trkpt><trkpt lat="44.4282704401045" lon="7.910872516583819"><ele>348.0</ele><time>2026-05-03T07:19:22.998Z</time></trkpt><trkpt lat="44.42828064991363" lon="7.911073403023749"><ele>348.0</ele><time>2026-05-03T07:19:23.998Z</time></trkpt><trkpt lat="44.428282467695524" lon="7.911282488171424"><ele>348.25</ele><time>2026-05-03T07:19:24.998Z</time></trkpt><trkpt lat="44.428283181017925" lon="7.911488029069017"><ele>348.5</ele><time>2026-05-03T07:19:25.998Z</time></trkpt><trkpt lat="44.42827341790061" lon="7.911684990382072"><ele>348.75</ele><time>2026-05-03T07:19:26.998Z</time></trkpt><trkpt lat="44.4282601251498" lon="7.911884174761626"><ele>349.0</ele><time>2026-05-03T07:19:27.998Z</time></trkpt><trkpt lat="44.42823405621467" lon="7.912091638668202"><ele>349.0</ele><time>2026-05-03T07:19:28.998Z</time></trkpt><trkpt lat="44.428209577359446" lon="7.912302510227731"><ele>349.0</ele><time>2026-05-03T07:19:29.998Z</time></trkpt><trkpt lat="44.428165500435576" lon="7.912493796438697"><ele>349.0</ele><time>2026-05-03T07:19:31Z</time></trkpt><trkpt lat="44.428127030704495" lon="7.912701771067112"><ele>348.5</ele><time>2026-05-03T07:19:32Z</time></trkpt><trkpt lat="44.428095125541766" lon="7.912895993973554"><ele>348.0</ele><time>2026-05-03T07:19:33Z</time></trkpt><trkpt lat="44.428063261954534" lon="7.913100212682426"><ele>347.5</ele><time>2026-05-03T07:19:34Z</time></trkpt><trkpt lat="44.42804584539821" lon="7.913303783915007"><ele>347.0</ele><time>2026-05-03T07:19:35Z</time></trkpt><trkpt lat="44.42804041891744" lon="7.913506902479873"><ele>346.0</ele><time>2026-05-03T07:19:36Z</time></trkpt><trkpt lat="44.42804924457146" lon="7.913704660476194"><ele>345.0</ele><time>2026-05-03T07:19:37Z</time></trkpt><trkpt lat="44.42805182836128" lon="7.913897312527384"><ele>344.0</ele><time>2026-05-03T07:19:38Z</time></trkpt><trkpt lat="44.42805491313069" lon="7.914089543193468"><ele>343.0</ele><time>2026-05-03T07:19:39Z</time></trkpt><trkpt lat="44.42804558914466" lon="7.914277202424141"><ele>342.75</ele><time>2026-05-03T07:19:40Z</time></trkpt><trkpt lat="44.42803543986576" lon="7.914464509310306"><ele>342.5</ele><time>2026-05-03T07:19:41Z</time></trkpt><trkpt lat="44.42801743201958" lon="7.914648949805976"><ele>342.25</ele><time>2026-05-03T07:19:42Z</time></trkpt><trkpt lat="44.42798981902974" lon="7.914846065857759"><ele>342.0</ele><time>2026-05-03T07:19:43Z</time></trkpt><trkpt lat="44.42795225508092" lon="7.915033335127503"><ele>336.25</ele><time>2026-05-03T07:19:44Z</time></trkpt><trkpt lat="44.42789766066864" lon="7.915217979287882"><ele>330.5</ele><time>2026-05-03T07:19:45Z</time></trkpt><trkpt lat="44.42782218442826" lon="7.915401225404017"><ele>324.75</ele><time>2026-05-03T07:19:46Z</time></trkpt><trkpt lat="44.42773565619535" lon="7.915574235024729"><ele>319.0</ele><time>2026-05-03T07:19:47Z</time></trkpt><trkpt lat="44.42763847197154" lon="7.915734974337984"><ele>319.0</ele><time>2026-05-03T07:19:48Z</time></trkpt><trkpt lat="44.42752959795144" lon="7.915894025338705"><ele>319.0</ele><time>2026-05-03T07:19:49Z</time></trkpt><trkpt lat="44.42742192656974" lon="7.916035419185037"><ele>319.0</ele><time>2026-05-03T07:19:50Z</time></trkpt><trkpt lat="44.42731168505155" lon="7.916149096510402"><ele>319.0</ele><time>2026-05-03T07:19:51Z</time></trkpt><trkpt lat="44.427203135473285" lon="7.916253321342708"><ele>316.0</ele><time>2026-05-03T07:19:52Z</time></trkpt><trkpt lat="44.42708928121589" lon="7.916331537635015"><ele>313.0</ele><time>2026-05-03T07:19:53Z</time></trkpt><trkpt lat="44.42697575887966" lon="7.916403808683644"><ele>310.0</ele><time>2026-05-03T07:19:54Z</time></trkpt><trkpt lat="44.42684716862486" lon="7.916461065956075"><ele>307.0</ele><time>2026-05-03T07:19:55Z</time></trkpt><trkpt lat="44.42670957598652" lon="7.91650226867971"><ele>307.0</ele><time>2026-05-03T07:19:56Z</time></trkpt><trkpt lat="44.4265687890652" lon="7.9165317771382595"><ele>307.0</ele><time>2026-05-03T07:19:57Z</time></trkpt><trkpt lat="44.42642478201302" lon="7.916567331066209"><ele>307.0</ele><time>2026-05-03T07:19:58Z</time></trkpt><trkpt lat="44.42627422263218" lon="7.916601989288496"><ele>307.0</ele><time>2026-05-03T07:19:59Z</time></trkpt><trkpt lat="44.426117501287" lon="7.916643184021677"><ele>307.0</ele><time>2026-05-03T07:20:00Z</time></trkpt><trkpt lat="44.42595786584007" lon="7.916678628829044"><ele>307.0</ele><time>2026-05-03T07:20:01Z</time></trkpt><trkpt lat="44.425797410075184" lon="7.916717591066331"><ele>307.0</ele><time>2026-05-03T07:20:02Z</time></trkpt><trkpt lat="44.42563197681884" lon="7.916759540396718"><ele>308.66666666666663</ele><time>2026-05-03T07:20:03Z</time></trkpt><trkpt lat="44.425462179730644" lon="7.916798183278382"><ele>310.3333333333333</ele><time>2026-05-03T07:20:04Z</time></trkpt><trkpt lat="44.425286400952814" lon="7.916835533900311"><ele>312.0</ele><time>2026-05-03T07:20:05Z</time></trkpt><trkpt lat="44.42512251576786" lon="7.916874515719433"><ele>312.0</ele><time>2026-05-03T07:20:06Z</time></trkpt><trkpt lat="44.42495736881187" lon="7.91691011968056"><ele>312.0</ele><time>2026-05-03T07:20:07Z</time></trkpt><trkpt lat="44.4247951553805" lon="7.9169482793344255"><ele>312.0</ele><time>2026-05-03T07:20:08Z</time></trkpt><trkpt lat="44.42463140553319" lon="7.9169836863670255"><ele>314.6666666666667</ele><time>2026-05-03T07:20:09Z</time></trkpt><trkpt lat="44.424465417896776" lon="7.917026316777347"><ele>317.33333333333337</ele><time>2026-05-03T07:20:10Z</time></trkpt><trkpt lat="44.4242976057864" lon="7.9170768995802066"><ele>320.0</ele><time>2026-05-03T07:20:11Z</time></trkpt><trkpt lat="44.424129327260886" lon="7.917136078695803"><ele>320.0</ele><time>2026-05-03T07:20:12Z</time></trkpt><trkpt lat="44.423971284248516" lon="7.9171983328930144"><ele>320.0</ele><time>2026-05-03T07:20:13Z</time></trkpt><trkpt lat="44.423825124979075" lon="7.9172545390578986"><ele>320.0</ele><time>2026-05-03T07:20:14Z</time></trkpt><trkpt lat="44.42368704743409" lon="7.917313401882744"><ele>320.5</ele><time>2026-05-03T07:20:14.999Z</time></trkpt><trkpt lat="44.42354563103792" lon="7.917353216412201"><ele>321.0</ele><time>2026-05-03T07:20:15.999Z</time></trkpt><trkpt lat="44.42340649891421" lon="7.917393666122201"><ele>321.5</ele><time>2026-05-03T07:20:16.999Z</time></trkpt><trkpt lat="44.42326760465619" lon="7.917432598822317"><ele>322.0</ele><time>2026-05-03T07:20:17.999Z</time></trkpt><trkpt lat="44.42312998883453" lon="7.917473273472953"><ele>322.0</ele><time>2026-05-03T07:20:18.999Z</time></trkpt><trkpt lat="44.42299004103234" lon="7.917521366364309"><ele>322.0</ele><time>2026-05-03T07:20:19.999Z</time></trkpt><trkpt lat="44.42285398021893" lon="7.917577086342473"><ele>322.0</ele><time>2026-05-03T07:20:20.999Z</time></trkpt><trkpt lat="44.4227108506128" lon="7.917638665045664"><ele>322.0</ele><time>2026-05-03T07:20:21.999Z</time></trkpt><trkpt lat="44.42256266473419" lon="7.917702347944035"><ele>325.0</ele><time>2026-05-03T07:20:22.999Z</time></trkpt><trkpt lat="44.42240873177279" lon="7.917772451021121"><ele>328.0</ele><time>2026-05-03T07:20:23.999Z</time></trkpt><trkpt lat="44.42224409915335" lon="7.917833509130257"><ele>331.0</ele><time>2026-05-03T07:20:24.999Z</time></trkpt><trkpt lat="44.42207792660684" lon="7.917888924315617"><ele>331.0</ele><time>2026-05-03T07:20:25.999Z</time></trkpt><trkpt lat="44.42191188688551" lon="7.917936938842336"><ele>331.0</ele><time>2026-05-03T07:20:26.999Z</time></trkpt><trkpt lat="44.42174436985016" lon="7.917990734138511"><ele>331.0</ele><time>2026-05-03T07:20:27.999Z</time></trkpt><trkpt lat="44.421570288515724" lon="7.918036635277559"><ele>331.0</ele><time>2026-05-03T07:20:28.999Z</time></trkpt><trkpt lat="44.421400433502946" lon="7.918079476925663"><ele>331.0</ele><time>2026-05-03T07:20:29.999Z</time></trkpt><trkpt lat="44.42122658444202" lon="7.9181258440663935"><ele>331.0</ele><time>2026-05-03T07:20:30.999Z</time></trkpt><trkpt lat="44.42105021311973" lon="7.918170133767999"><ele>330.0</ele><time>2026-05-03T07:20:31.999Z</time></trkpt><trkpt lat="44.42087402607512" lon="7.918217689909982"><ele>329.0</ele><time>2026-05-03T07:20:32.999Z</time></trkpt><trkpt lat="44.42070267860091" lon="7.918267450680556"><ele>328.0</ele><time>2026-05-03T07:20:33.999Z</time></trkpt><trkpt lat="44.420547511942196" lon="7.918307898302296"><ele>329.66666666666663</ele><time>2026-05-03T07:20:34.999Z</time></trkpt><trkpt lat="44.420395288212625" lon="7.918358041100379"><ele>331.3333333333333</ele><time>2026-05-03T07:20:35.999Z</time></trkpt><trkpt lat="44.4202421513873" lon="7.918423768631276"><ele>333.0</ele><time>2026-05-03T07:20:36.999Z</time></trkpt><trkpt lat="44.420088420383145" lon="7.918491859525719"><ele>329.6666666666667</ele><time>2026-05-03T07:20:37.999Z</time></trkpt><trkpt lat="44.41993799291036" lon="7.918572205089947"><ele>326.33333333333337</ele><time>2026-05-03T07:20:38.999Z</time></trkpt><trkpt lat="44.41979647235026" lon="7.918650392941158"><ele>323.0</ele><time>2026-05-03T07:20:39.999Z</time></trkpt><trkpt lat="44.419664388869656" lon="7.918722629218536"><ele>323.5</ele><time>2026-05-03T07:20:40.999Z</time></trkpt><trkpt lat="44.419535742290165" lon="7.918784660722144"><ele>324.0</ele><time>2026-05-03T07:20:41.999Z</time></trkpt><trkpt lat="44.419417418714765" lon="7.918833826328059"><ele>324.5</ele><time>2026-05-03T07:20:42.999Z</time></trkpt><trkpt lat="44.41929205932551" lon="7.918873709120148"><ele>325.0</ele><time>2026-05-03T07:20:43.999Z</time></trkpt><trkpt lat="44.41915849967785" lon="7.918894725800275"><ele>325.0</ele><time>2026-05-03T07:20:44.999Z</time></trkpt><trkpt lat="44.41902491257401" lon="7.918909842839081"><ele>325.0</ele><time>2026-05-03T07:20:45.999Z</time></trkpt><trkpt lat="44.418889009760534" lon="7.91886520121843"><ele>325.0</ele><time>2026-05-03T07:20:46.999Z</time></trkpt><trkpt lat="44.418748948256756" lon="7.918847928590414"><ele>325.0</ele><time>2026-05-03T07:20:47.999Z</time></trkpt><trkpt lat="44.4186010698203" lon="7.918817237388904"><ele>328.25</ele><time>2026-05-03T07:20:48.999Z</time></trkpt><trkpt lat="44.418458145634986" lon="7.918778531188153"><ele>331.5</ele><time>2026-05-03T07:20:49.999Z</time></trkpt><trkpt lat="44.418312619696096" lon="7.918738011322631"><ele>334.75</ele><time>2026-05-03T07:20:50.999Z</time></trkpt><trkpt lat="44.41816617799147" lon="7.918697019698638"><ele>338.0</ele><time>2026-05-03T07:20:51.999Z</time></trkpt><trkpt lat="44.418026411599044" lon="7.918657145476401"><ele>340.2</ele><time>2026-05-03T07:20:52.999Z</time></trkpt><trkpt lat="44.41790430089952" lon="7.918621549654076"><ele>342.4</ele><time>2026-05-03T07:20:53.999Z</time></trkpt><trkpt lat="44.41778872823085" lon="7.9185878596833215"><ele>344.59999999999997</ele><time>2026-05-03T07:20:54.999Z</time></trkpt><trkpt lat="44.41769138381826" lon="7.9185604126802405"><ele>346.79999999999995</ele><time>2026-05-03T07:20:55.999Z</time></trkpt><trkpt lat="44.41760405368325" lon="7.918536964280754"><ele>349.0</ele><time>2026-05-03T07:20:56.999Z</time></trkpt><trkpt lat="44.417517002111836" lon="7.918527955764387"><ele>349.0</ele><time>2026-05-03T07:20:57.999Z</time></trkpt><trkpt lat="44.41744143928382" lon="7.918552385299498"><ele>349.0</ele><time>2026-05-03T07:20:58.999Z</time></trkpt><trkpt lat="44.41738917315918" lon="7.918613575928916"><ele>349.0</ele><time>2026-05-03T07:20:59.999Z</time></trkpt><trkpt lat="44.41732190804396" lon="7.918707276968854"><ele>349.0</ele><time>2026-05-03T07:21:01.999Z</time></trkpt><trkpt lat="44.417340985474" lon="7.918851724485436"><ele>349.0</ele><time>2026-05-03T07:21:03.999Z</time></trkpt><trkpt lat="44.41744035746113" lon="7.918927404591851"><ele>349.0</ele><time>2026-05-03T07:21:05.999Z</time></trkpt><trkpt lat="44.41750898592202" lon="7.9189325839832145"><ele>349.0</ele><time>2026-05-03T07:21:06.999Z</time></trkpt><trkpt lat="44.417586133787296" lon="7.918927966427362"><ele>349.0</ele><time>2026-05-03T07:21:07.999Z</time></trkpt><trkpt lat="44.41766935980384" lon="7.918929276546291"><ele>349.0</ele><time>2026-05-03T07:21:08.999Z</time></trkpt><trkpt lat="44.4177651799321" lon="7.9189359732167395"><ele>349.0</ele><time>2026-05-03T07:21:09.999Z</time></trkpt><trkpt lat="44.41786939882611" lon="7.91895316237291"><ele>349.0</ele><time>2026-05-03T07:21:10.999Z</time></trkpt><trkpt lat="44.41797996177691" lon="7.91897746358772"><ele>346.79999999999995</ele><time>2026-05-03T07:21:11.998Z</time></trkpt><trkpt lat="44.41807558235267" lon="7.919011242174258"><ele>344.59999999999997</ele><time>2026-05-03T07:21:12.998Z</time></trkpt><trkpt lat="44.41816629443608" lon="7.919040020433296"><ele>342.4</ele><time>2026-05-03T07:21:13.998Z</time></trkpt><trkpt lat="44.41824087410336" lon="7.919069226122478"><ele>340.2</ele><time>2026-05-03T07:21:14.998Z</time></trkpt><trkpt lat="44.418344042843096" lon="7.919126971731851"><ele>338.0</ele><time>2026-05-03T07:21:16.998Z</time></trkpt><trkpt lat="44.41840356162238" lon="7.919250331858772"><ele>338.6666666666667</ele><time>2026-05-03T07:21:18.998Z</time></trkpt><trkpt lat="44.418392099462025" lon="7.9193378731826325"><ele>339.33333333333337</ele><time>2026-05-03T07:21:19.998Z</time></trkpt><trkpt lat="44.41828788794878" lon="7.91946127756768"><ele>340.0</ele><time>2026-05-03T07:21:21.998Z</time></trkpt><trkpt lat="44.4182190537858" lon="7.919493853724819"><ele>340.6666666666667</ele><time>2026-05-03T07:21:22.998Z</time></trkpt><trkpt lat="44.41813984986674" lon="7.919524158366803"><ele>341.3333333333333</ele><time>2026-05-03T07:21:23.998Z</time></trkpt><trkpt lat="44.418049995935" lon="7.919552580309377"><ele>342.0</ele><time>2026-05-03T07:21:24.998Z</time></trkpt><trkpt lat="44.41794793769557" lon="7.919584514436182"><ele>342.0</ele><time>2026-05-03T07:21:25.998Z</time></trkpt><trkpt lat="44.41784849789116" lon="7.919599258983561"><ele>342.0</ele><time>2026-05-03T07:21:26.998Z</time></trkpt><trkpt lat="44.41774130145802" lon="7.919614063850505"><ele>342.0</ele><time>2026-05-03T07:21:27.998Z</time></trkpt><trkpt lat="44.41762192969889" lon="7.919649739402957"><ele>342.0</ele><time>2026-05-03T07:21:28.998Z</time></trkpt><trkpt lat="44.41749649624492" lon="7.919706407667234"><ele>342.0</ele><time>2026-05-03T07:21:29.998Z</time></trkpt><trkpt lat="44.4173638530318" lon="7.919775713170445"><ele>342.0</ele><time>2026-05-03T07:21:30.998Z</time></trkpt><trkpt lat="44.417259355888596" lon="7.919832112687559"><ele>342.0</ele><time>2026-05-03T07:21:31.998Z</time></trkpt><trkpt lat="44.4171631489725" lon="7.919879397674073"><ele>342.0</ele><time>2026-05-03T07:21:32.998Z</time></trkpt><trkpt lat="44.41706246091405" lon="7.919936572467535"><ele>342.0</ele><time>2026-05-03T07:21:33.998Z</time></trkpt><trkpt lat="44.41696144979263" lon="7.919985035941822"><ele>342.0</ele><time>2026-05-03T07:21:34.998Z</time></trkpt><trkpt lat="44.41686666563578" lon="7.920040269092194"><ele>342.0</ele><time>2026-05-03T07:21:35.998Z</time></trkpt><trkpt lat="44.41676775441144" lon="7.920101417900016"><ele>342.0</ele><time>2026-05-03T07:21:37Z</time></trkpt><trkpt lat="44.41667177731295" lon="7.920182943309894"><ele>342.0</ele><time>2026-05-03T07:21:38Z</time></trkpt><trkpt lat="44.41656987889976" lon="7.920270552291936"><ele>342.0</ele><time>2026-05-03T07:21:39Z</time></trkpt><trkpt lat="44.416480669496195" lon="7.920362540650446"><ele>342.0</ele><time>2026-05-03T07:21:40Z</time></trkpt><trkpt lat="44.416407567934165" lon="7.92043130393573"><ele>342.0</ele><time>2026-05-03T07:21:41Z</time></trkpt><trkpt lat="44.41634423878233" lon="7.920493007395456"><ele>342.0</ele><time>2026-05-03T07:21:42Z</time></trkpt><trkpt lat="44.4162771916329" lon="7.920533653280651"><ele>342.0</ele><time>2026-05-03T07:21:43Z</time></trkpt><trkpt lat="44.416187099660725" lon="7.920549118560979"><ele>342.0</ele><time>2026-05-03T07:21:44Z</time></trkpt><trkpt lat="44.416093662046066" lon="7.920553116678056"><ele>346.8</ele><time>2026-05-03T07:21:45Z</time></trkpt><trkpt lat="44.41599569568744" lon="7.920564614833664"><ele>351.6</ele><time>2026-05-03T07:21:46Z</time></trkpt><trkpt lat="44.415893135984184" lon="7.920581853623406"><ele>356.40000000000003</ele><time>2026-05-03T07:21:47Z</time></trkpt><trkpt lat="44.415787498915506" lon="7.920605540423151"><ele>361.20000000000005</ele><time>2026-05-03T07:21:48Z</time></trkpt><trkpt lat="44.415688967524964" lon="7.920618339345363"><ele>366.0</ele><time>2026-05-03T07:21:49Z</time></trkpt><trkpt lat="44.41560991764837" lon="7.920633098971481"><ele>366.0</ele><time>2026-05-03T07:21:50Z</time></trkpt><trkpt lat="44.41554356465773" lon="7.9206007521044715"><ele>366.0</ele><time>2026-05-03T07:21:51Z</time></trkpt><trkpt lat="44.41541547924251" lon="7.920569473134096"><ele>366.0</ele><time>2026-05-03T07:21:53Z</time></trkpt><trkpt lat="44.415353996472724" lon="7.920592443243722"><ele>366.0</ele><time>2026-05-03T07:21:54Z</time></trkpt><trkpt lat="44.41528916602994" lon="7.920629306782927"><ele>366.0</ele><time>2026-05-03T07:21:55Z</time></trkpt><trkpt lat="44.41522414612431" lon="7.920685093802654"><ele>366.0</ele><time>2026-05-03T07:21:56Z</time></trkpt><trkpt lat="44.41516656886079" lon="7.920764491009973"><ele>367.0</ele><time>2026-05-03T07:21:57Z</time></trkpt><trkpt lat="44.41510688710605" lon="7.920821491038937"><ele>368.0</ele><time>2026-05-03T07:21:58Z</time></trkpt><trkpt lat="44.41505182706997" lon="7.920896373749172"><ele>369.0</ele><time>2026-05-03T07:21:59Z</time></trkpt><trkpt lat="44.41499228378106" lon="7.920980734244171"><ele>370.0</ele><time>2026-05-03T07:22:00Z</time></trkpt><trkpt lat="44.41494258549963" lon="7.921052542802639"><ele>371.0</ele><time>2026-05-03T07:22:01Z</time></trkpt><trkpt lat="44.41485938786942" lon="7.921166682653552"><ele>372.0</ele><time>2026-05-03T07:22:03Z</time></trkpt><trkpt lat="44.41479938419563" lon="7.92122763530869"><ele>372.00000000000006</ele><time>2026-05-03T07:22:04Z</time></trkpt><trkpt lat="44.414745694955705" lon="7.92130326496712"><ele>372.0</ele><time>2026-05-03T07:22:05Z</time></trkpt><trkpt lat="44.41468810669342" lon="7.92138438655405"><ele>372.0</ele><time>2026-05-03T07:22:06Z</time></trkpt><trkpt lat="44.41463740461894" lon="7.921453288420036"><ele>372.0</ele><time>2026-05-03T07:22:07Z</time></trkpt><trkpt lat="44.41458679332972" lon="7.9215221828352105"><ele>372.0</ele><time>2026-05-03T07:22:08Z</time></trkpt><trkpt lat="44.414532555699054" lon="7.921596012179033"><ele>372.00000000000006</ele><time>2026-05-03T07:22:09Z</time></trkpt><trkpt lat="44.41449445271443" lon="7.921680701393972"><ele>372.0</ele><time>2026-05-03T07:22:10Z</time></trkpt><trkpt lat="44.41445685243464" lon="7.921768045193004"><ele>372.3333333333333</ele><time>2026-05-03T07:22:11Z</time></trkpt><trkpt lat="44.414434189716545" lon="7.921875127343855"><ele>372.6666666666667</ele><time>2026-05-03T07:22:12Z</time></trkpt><trkpt lat="44.41441241011213" lon="7.921970061254327"><ele>373.0</ele><time>2026-05-03T07:22:13Z</time></trkpt><trkpt lat="44.41436932403432" lon="7.922111119377192"><ele>373.33333333333337</ele><time>2026-05-03T07:22:15Z</time></trkpt><trkpt lat="44.41433701429981" lon="7.922190214416034"><ele>373.6666666666667</ele><time>2026-05-03T07:22:16Z</time></trkpt><trkpt lat="44.41428156698282" lon="7.9222550523315824"><ele>374.0</ele><time>2026-05-03T07:22:17Z</time></trkpt><trkpt lat="44.414218904539084" lon="7.922324162205362"><ele>374.0</ele><time>2026-05-03T07:22:18Z</time></trkpt><trkpt lat="44.4141393816753" lon="7.922370353625007"><ele>374.0</ele><time>2026-05-03T07:22:19Z</time></trkpt><trkpt lat="44.41407057424398" lon="7.922455650104244"><ele>374.0</ele><time>2026-05-03T07:22:19.999Z</time></trkpt><trkpt lat="44.41399292602844" lon="7.9225214051712"><ele>374.0</ele><time>2026-05-03T07:22:20.999Z</time></trkpt><trkpt lat="44.41392562567196" lon="7.922583587752373"><ele>374.0</ele><time>2026-05-03T07:22:21.999Z</time></trkpt><trkpt lat="44.41386109748665" lon="7.922648596334429"><ele>374.0</ele><time>2026-05-03T07:22:22.999Z</time></trkpt><trkpt lat="44.413798506695976" lon="7.92271564243854"><ele>374.2</ele><time>2026-05-03T07:22:23.999Z</time></trkpt><trkpt lat="44.41372789030953" lon="7.9227883307246785"><ele>374.4</ele><time>2026-05-03T07:22:24.999Z</time></trkpt><trkpt lat="44.41366357290725" lon="7.922876874942103"><ele>374.6</ele><time>2026-05-03T07:22:25.999Z</time></trkpt><trkpt lat="44.413584328762866" lon="7.92296316100422"><ele>374.8</ele><time>2026-05-03T07:22:26.999Z</time></trkpt><trkpt lat="44.41349812686877" lon="7.92304504884684"><ele>375.0</ele><time>2026-05-03T07:22:27.999Z</time></trkpt><trkpt lat="44.413408056298415" lon="7.923152147980445"><ele>375.0</ele><time>2026-05-03T07:22:28.999Z</time></trkpt><trkpt lat="44.413325785111994" lon="7.923241561820134"><ele>375.0</ele><time>2026-05-03T07:22:29.999Z</time></trkpt><trkpt lat="44.41324871369847" lon="7.923327179077937"><ele>375.0</ele><time>2026-05-03T07:22:30.999Z</time></trkpt><trkpt lat="44.413178690627156" lon="7.923408088877159"><ele>375.0</ele><time>2026-05-03T07:22:31.999Z</time></trkpt><trkpt lat="44.41310068628902" lon="7.923488997369588"><ele>375.0</ele><time>2026-05-03T07:22:32.999Z</time></trkpt><trkpt lat="44.41301899323172" lon="7.923573104732299"><ele>375.6</ele><time>2026-05-03T07:22:33.999Z</time></trkpt><trkpt lat="44.41293582681318" lon="7.923651591948209"><ele>376.2</ele><time>2026-05-03T07:22:34.999Z</time></trkpt><trkpt lat="44.412847083338555" lon="7.923732060431449"><ele>376.79999999999995</ele><time>2026-05-03T07:22:35.999Z</time></trkpt><trkpt lat="44.412754869171025" lon="7.923815543168926"><ele>377.4</ele><time>2026-05-03T07:22:36.999Z</time></trkpt><trkpt lat="44.41266139262987" lon="7.923880630137749"><ele>378.0</ele><time>2026-05-03T07:22:37.999Z</time></trkpt><trkpt lat="44.412583325210754" lon="7.923947966888507"><ele>378.0</ele><time>2026-05-03T07:22:38.999Z</time></trkpt><trkpt lat="44.41251381149963" lon="7.924009632709912"><ele>378.0</ele><time>2026-05-03T07:22:39.999Z</time></trkpt><trkpt lat="44.412451892220055" lon="7.924066975904865"><ele>378.0</ele><time>2026-05-03T07:22:40.999Z</time></trkpt><trkpt lat="44.41239086502107" lon="7.924132627606362"><ele>378.0</ele><time>2026-05-03T07:22:41.999Z</time></trkpt><trkpt lat="44.41231824764141" lon="7.924197975254917"><ele>378.0</ele><time>2026-05-03T07:22:42.999Z</time></trkpt><trkpt lat="44.41224036264676" lon="7.924270861151763"><ele>378.0</ele><time>2026-05-03T07:22:43.999Z</time></trkpt><trkpt lat="44.41215807545251" lon="7.924334325305621"><ele>379.59999999999997</ele><time>2026-05-03T07:22:44.999Z</time></trkpt><trkpt lat="44.412082572932086" lon="7.924428320128848"><ele>381.2</ele><time>2026-05-03T07:22:45.999Z</time></trkpt><trkpt lat="44.41200835416695" lon="7.924528971918321"><ele>382.8</ele><time>2026-05-03T07:22:46.999Z</time></trkpt><trkpt lat="44.41192387811341" lon="7.924633159171928"><ele>384.4</ele><time>2026-05-03T07:22:47.999Z</time></trkpt><trkpt lat="44.41184442124015" lon="7.9247220830025045"><ele>386.0</ele><time>2026-05-03T07:22:48.999Z</time></trkpt><trkpt lat="44.41176793731429" lon="7.924810631011373"><ele>386.0</ele><time>2026-05-03T07:22:49.999Z</time></trkpt><trkpt lat="44.41169182463089" lon="7.924903565019297"><ele>386.0</ele><time>2026-05-03T07:22:50.999Z</time></trkpt><trkpt lat="44.411614921941116" lon="7.924992897117381"><ele>386.0</ele><time>2026-05-03T07:22:51.999Z</time></trkpt><trkpt lat="44.41153000298546" lon="7.925078910543723"><ele>386.0</ele><time>2026-05-03T07:22:52.999Z</time></trkpt><trkpt lat="44.41144359794085" lon="7.925152453770935"><ele>386.0</ele><time>2026-05-03T07:22:53.999Z</time></trkpt><trkpt lat="44.41134903332222" lon="7.925231766325197"><ele>387.6</ele><time>2026-05-03T07:22:54.999Z</time></trkpt><trkpt lat="44.41125096906103" lon="7.92532030967444"><ele>389.20000000000005</ele><time>2026-05-03T07:22:55.999Z</time></trkpt><trkpt lat="44.411169877569" lon="7.925410404201578"><ele>390.79999999999995</ele><time>2026-05-03T07:22:56.999Z</time></trkpt><trkpt lat="44.411097970682505" lon="7.925512495286873"><ele>392.4</ele><time>2026-05-03T07:22:57.999Z</time></trkpt><trkpt lat="44.411036391816076" lon="7.92560908060461"><ele>394.0</ele><time>2026-05-03T07:22:58.999Z</time></trkpt><trkpt lat="44.41097242551553" lon="7.9257098644148645"><ele>394.0</ele><time>2026-05-03T07:22:59.999Z</time></trkpt><trkpt lat="44.4109034812524" lon="7.925813235595217"><ele>394.0</ele><time>2026-05-03T07:23:00.999Z</time></trkpt><trkpt lat="44.41082356878957" lon="7.925925869355902"><ele>394.0</ele><time>2026-05-03T07:23:01.999Z</time></trkpt><trkpt lat="44.41074023400643" lon="7.926033032996784"><ele>394.0</ele><time>2026-05-03T07:23:02.999Z</time></trkpt><trkpt lat="44.4106669307106" lon="7.926115074137895"><ele>394.0</ele><time>2026-05-03T07:23:03.999Z</time></trkpt><trkpt lat="44.41059270553682" lon="7.926196979427826"><ele>394.6</ele><time>2026-05-03T07:23:04.999Z</time></trkpt><trkpt lat="44.410512204387125" lon="7.926282604358194"><ele>395.2</ele><time>2026-05-03T07:23:05.999Z</time></trkpt><trkpt lat="44.41042765109283" lon="7.9263582902338925"><ele>395.8</ele><time>2026-05-03T07:23:06.999Z</time></trkpt><trkpt lat="44.410337315764394" lon="7.926426323956602"><ele>396.40000000000003</ele><time>2026-05-03T07:23:07.999Z</time></trkpt><trkpt lat="44.41024421022437" lon="7.9264941558008255"><ele>397.0</ele><time>2026-05-03T07:23:08.999Z</time></trkpt><trkpt lat="44.410145568352995" lon="7.9265770157042414"><ele>397.20000000000005</ele><time>2026-05-03T07:23:09.999Z</time></trkpt><trkpt lat="44.410057688150694" lon="7.926659338664773"><ele>397.4</ele><time>2026-05-03T07:23:10.999Z</time></trkpt><trkpt lat="44.40997013069352" lon="7.926744610778487"><ele>397.6</ele><time>2026-05-03T07:23:11.999Z</time></trkpt><trkpt lat="44.40988077723621" lon="7.926829265406187"><ele>397.79999999999995</ele><time>2026-05-03T07:23:12.999Z</time></trkpt><trkpt lat="44.40978981441654" lon="7.926912328134319"><ele>398.0</ele><time>2026-05-03T07:23:13.999Z</time></trkpt><trkpt lat="44.409698853641466" lon="7.926995403114086"><ele>398.59999999999997</ele><time>2026-05-03T07:23:14.999Z</time></trkpt><trkpt lat="44.40960794691398" lon="7.927072527248314"><ele>399.2</ele><time>2026-05-03T07:23:15.999Z</time></trkpt><trkpt lat="44.40952376725176" lon="7.9271282891098505"><ele>399.8</ele><time>2026-05-03T07:23:16.998Z</time></trkpt><trkpt lat="44.40943482309541" lon="7.927182347604406"><ele>400.4</ele><time>2026-05-03T07:23:17.998Z</time></trkpt><trkpt lat="44.40934989050596" lon="7.9272287275942315"><ele>401.0</ele><time>2026-05-03T07:23:18.998Z</time></trkpt><trkpt lat="44.40926567112063" lon="7.92727132068836"><ele>401.0</ele><time>2026-05-03T07:23:19.998Z</time></trkpt><trkpt lat="44.40918278613913" lon="7.927298415570179"><ele>401.0</ele><time>2026-05-03T07:23:20.998Z</time></trkpt><trkpt lat="44.40909255269679" lon="7.9273188682334865"><ele>401.0</ele><time>2026-05-03T07:23:21.998Z</time></trkpt><trkpt lat="44.40900350609553" lon="7.9273263029944365"><ele>401.0</ele><time>2026-05-03T07:23:22.998Z</time></trkpt><trkpt lat="44.40890821790625" lon="7.927325510982341"><ele>401.0</ele><time>2026-05-03T07:23:23.998Z</time></trkpt><trkpt lat="44.408811414561605" lon="7.927316721264398"><ele>401.4</ele><time>2026-05-03T07:23:24.998Z</time></trkpt><trkpt lat="44.4087118947278" lon="7.92731297700535"><ele>401.8</ele><time>2026-05-03T07:23:25.998Z</time></trkpt><trkpt lat="44.408609739449815" lon="7.9273061505133375"><ele>402.2</ele><time>2026-05-03T07:23:26.998Z</time></trkpt><trkpt lat="44.408519888420635" lon="7.927301818147891"><ele>402.59999999999997</ele><time>2026-05-03T07:23:27.998Z</time></trkpt><trkpt lat="44.40843340435856" lon="7.927306766636816"><ele>403.0</ele><time>2026-05-03T07:23:28.998Z</time></trkpt><trkpt lat="44.40834740106034" lon="7.927317005995375"><ele>403.0</ele><time>2026-05-03T07:23:29.998Z</time></trkpt><trkpt lat="44.4082636396551" lon="7.927345078359236"><ele>403.0</ele><time>2026-05-03T07:23:30.998Z</time></trkpt><trkpt lat="44.40817256162433" lon="7.92737790274805"><ele>403.0</ele><time>2026-05-03T07:23:31.998Z</time></trkpt><trkpt lat="44.4080769439756" lon="7.927414871462069"><ele>403.0</ele><time>2026-05-03T07:23:32.998Z</time></trkpt><trkpt lat="44.40797566761022" lon="7.9274552760800026"><ele>403.0</ele><time>2026-05-03T07:23:33.998Z</time></trkpt><trkpt lat="44.40786561007961" lon="7.927500334838097"><ele>404.25</ele><time>2026-05-03T07:23:34.998Z</time></trkpt><trkpt lat="44.40774563336997" lon="7.927546844762442"><ele>405.5</ele><time>2026-05-03T07:23:35.998Z</time></trkpt><trkpt lat="44.407626359235266" lon="7.927592721638513"><ele>406.75</ele><time>2026-05-03T07:23:36.998Z</time></trkpt><trkpt lat="44.40752359908565" lon="7.927631574259493"><ele>408.0</ele><time>2026-05-03T07:23:37.998Z</time></trkpt><trkpt lat="44.40742971815722" lon="7.927671030388812"><ele>408.79999999999995</ele><time>2026-05-03T07:23:38.998Z</time></trkpt><trkpt lat="44.40733306278499" lon="7.927705649679532"><ele>409.6</ele><time>2026-05-03T07:23:39.998Z</time></trkpt><trkpt lat="44.40723366591922" lon="7.927730559455575"><ele>410.4</ele><time>2026-05-03T07:23:40.998Z</time></trkpt><trkpt lat="44.40713914806707" lon="7.9277672813032884"><ele>411.20000000000005</ele><time>2026-05-03T07:23:41.998Z</time></trkpt><trkpt lat="44.40704812675536" lon="7.927801152241358"><ele>412.0</ele><time>2026-05-03T07:23:43Z</time></trkpt><trkpt lat="44.40694369656428" lon="7.927831555590076"><ele>412.8</ele><time>2026-05-03T07:23:44Z</time></trkpt><trkpt lat="44.40683769504974" lon="7.927852469242119"><ele>413.6</ele><time>2026-05-03T07:23:45Z</time></trkpt><trkpt lat="44.40674503071967" lon="7.927842199809483"><ele>414.40000000000003</ele><time>2026-05-03T07:23:46Z</time></trkpt><trkpt lat="44.40666218994612" lon="7.927853994283184"><ele>415.20000000000005</ele><time>2026-05-03T07:23:47Z</time></trkpt><trkpt lat="44.40659288326098" lon="7.92787182937483"><ele>416.0</ele><time>2026-05-03T07:23:48Z</time></trkpt><trkpt lat="44.406477130306136" lon="7.9278981949444445"><ele>415.99999999999994</ele><time>2026-05-03T07:23:50Z</time></trkpt><trkpt lat="44.40640263896197" lon="7.927901557998159"><ele>416.0</ele><time>2026-05-03T07:23:51Z</time></trkpt><trkpt lat="44.40632006618597" lon="7.927886686857055"><ele>416.0</ele><time>2026-05-03T07:23:52Z</time></trkpt><trkpt lat="44.40623234454059" lon="7.927868501136406"><ele>416.0</ele><time>2026-05-03T07:23:53Z</time></trkpt><trkpt lat="44.40614627732504" lon="7.92787150672574"><ele>415.99999999999994</ele><time>2026-05-03T07:23:54Z</time></trkpt><trkpt lat="44.406059503950914" lon="7.927874509616016"><ele>416.0</ele><time>2026-05-03T07:23:55Z</time></trkpt><trkpt lat="44.4059655940658" lon="7.927886031518608"><ele>415.99999999999994</ele><time>2026-05-03T07:23:56Z</time></trkpt><trkpt lat="44.405866187441575" lon="7.927905755233629"><ele>416.0</ele><time>2026-05-03T07:23:57Z</time></trkpt><trkpt lat="44.4057828112543" lon="7.927944706587982"><ele>416.0</ele><time>2026-05-03T07:23:58Z</time></trkpt><trkpt lat="44.40570742426739" lon="7.9279891525872666"><ele>416.0</ele><time>2026-05-03T07:23:59Z</time></trkpt><trkpt lat="44.40562482710112" lon="7.928037211802021"><ele>415.99999999999994</ele><time>2026-05-03T07:24:00Z</time></trkpt><trkpt lat="44.40555779598592" lon="7.928088611461149"><ele>416.0</ele><time>2026-05-03T07:24:01Z</time></trkpt><trkpt lat="44.40548715682757" lon="7.928109620384952"><ele>416.3333333333333</ele><time>2026-05-03T07:24:02Z</time></trkpt><trkpt lat="44.40542582311048" lon="7.928173355656754"><ele>416.66666666666663</ele><time>2026-05-03T07:24:03Z</time></trkpt><trkpt lat="44.40535746718111" lon="7.928202268348558"><ele>417.0</ele><time>2026-05-03T07:24:04Z</time></trkpt><trkpt lat="44.40529685369043" lon="7.92823496437749"><ele>417.33333333333337</ele><time>2026-05-03T07:24:05Z</time></trkpt><trkpt lat="44.405204594484914" lon="7.928312237070691"><ele>417.6666666666667</ele><time>2026-05-03T07:24:07Z</time></trkpt><trkpt lat="44.40516753046841" lon="7.928483760226814"><ele>418.0</ele><time>2026-05-03T07:24:09Z</time></trkpt><trkpt lat="44.40512565093879" lon="7.928582237309307"><ele>418.2</ele><time>2026-05-03T07:24:10Z</time></trkpt><trkpt lat="44.40508372308388" lon="7.928696863308006"><ele>418.4</ele><time>2026-05-03T07:24:11Z</time></trkpt><trkpt lat="44.40504170009451" lon="7.928826046166627"><ele>418.59999999999997</ele><time>2026-05-03T07:24:12Z</time></trkpt><trkpt lat="44.40499740001755" lon="7.9289656248808535"><ele>418.79999999999995</ele><time>2026-05-03T07:24:13Z</time></trkpt><trkpt lat="44.40495253801334" lon="7.929080519251882"><ele>419.0</ele><time>2026-05-03T07:24:14Z</time></trkpt><trkpt lat="44.40491431808323" lon="7.929205128166075"><ele>418.6</ele><time>2026-05-03T07:24:15Z</time></trkpt><trkpt lat="44.40489185799323" lon="7.929320848430068"><ele>418.2</ele><time>2026-05-03T07:24:16Z</time></trkpt><trkpt lat="44.40487015799124" lon="7.929450710438974"><ele>417.8</ele><time>2026-05-03T07:24:17Z</time></trkpt><trkpt lat="44.404863837644825" lon="7.929598060561128"><ele>417.40000000000003</ele><time>2026-05-03T07:24:18Z</time></trkpt><trkpt lat="44.40484849232924" lon="7.929739128955375"><ele>417.0</ele><time>2026-05-03T07:24:19Z</time></trkpt><trkpt lat="44.40483870394389" lon="7.929878647340444"><ele>417.0</ele><time>2026-05-03T07:24:20Z</time></trkpt><trkpt lat="44.40482200853195" lon="7.930006988678427"><ele>417.0</ele><time>2026-05-03T07:24:21Z</time></trkpt><trkpt lat="44.40480110817006" lon="7.930145539121148"><ele>417.0</ele><time>2026-05-03T07:24:22Z</time></trkpt><trkpt lat="44.40477391560766" lon="7.930276351824078"><ele>417.0</ele><time>2026-05-03T07:24:23Z</time></trkpt><trkpt lat="44.40475155254038" lon="7.9303979022234765"><ele>417.0</ele><time>2026-05-03T07:24:24Z</time></trkpt><trkpt lat="44.40472439807265" lon="7.930516147567595"><ele>417.1666666666667</ele><time>2026-05-03T07:24:25Z</time></trkpt><trkpt lat="44.40470443416711" lon="7.9306286815619025"><ele>417.33333333333337</ele><time>2026-05-03T07:24:25.999Z</time></trkpt><trkpt lat="44.40468778769321" lon="7.930730550210194"><ele>417.5</ele><time>2026-05-03T07:24:26.999Z</time></trkpt><trkpt lat="44.40467889838771" lon="7.9308398876084985"><ele>417.6666666666667</ele><time>2026-05-03T07:24:27.999Z</time></trkpt><trkpt lat="44.40468178252036" lon="7.9309626531154445"><ele>417.83333333333337</ele><time>2026-05-03T07:24:28.999Z</time></trkpt><trkpt lat="44.40463254986552" lon="7.931068693559617"><ele>418.0</ele><time>2026-05-03T07:24:29.999Z</time></trkpt><trkpt lat="44.40459531621082" lon="7.931182134189697"><ele>418.0</ele><time>2026-05-03T07:24:30.999Z</time></trkpt><trkpt lat="44.40456398269401" lon="7.931308798887983"><ele>418.0</ele><time>2026-05-03T07:24:31.999Z</time></trkpt><trkpt lat="44.40454333813937" lon="7.931445773922765"><ele>418.0</ele><time>2026-05-03T07:24:32.999Z</time></trkpt><trkpt lat="44.40451851963263" lon="7.931596909291844"><ele>418.0</ele><time>2026-05-03T07:24:33.999Z</time></trkpt><trkpt lat="44.40448559301789" lon="7.931755216684949"><ele>418.0</ele><time>2026-05-03T07:24:34.999Z</time></trkpt><trkpt lat="44.404455405121496" lon="7.931914291181939"><ele>418.4</ele><time>2026-05-03T07:24:35.999Z</time></trkpt><trkpt lat="44.404429049470636" lon="7.932052474803249"><ele>418.79999999999995</ele><time>2026-05-03T07:24:36.999Z</time></trkpt><trkpt lat="44.404406238300744" lon="7.932196313702225"><ele>419.2</ele><time>2026-05-03T07:24:37.999Z</time></trkpt><trkpt lat="44.40438284750248" lon="7.932341365928449"><ele>419.6</ele><time>2026-05-03T07:24:38.999Z</time></trkpt><trkpt lat="44.404354620492036" lon="7.932487829651829"><ele>420.0</ele><time>2026-05-03T07:24:39.999Z</time></trkpt><trkpt lat="44.40432495980765" lon="7.932637226470037"><ele>420.4</ele><time>2026-05-03T07:24:40.999Z</time></trkpt><trkpt lat="44.40429632292314" lon="7.9327889380107015"><ele>420.8</ele><time>2026-05-03T07:24:41.999Z</time></trkpt><trkpt lat="44.40426773556836" lon="7.932930687413626"><ele>421.20000000000005</ele><time>2026-05-03T07:24:42.999Z</time></trkpt><trkpt lat="44.40423288450006" lon="7.933074309613827"><ele>421.6</ele><time>2026-05-03T07:24:43.999Z</time></trkpt><trkpt lat="44.4041933538962" lon="7.93321584289513"><ele>422.0</ele><time>2026-05-03T07:24:44.999Z</time></trkpt><trkpt lat="44.404150532302836" lon="7.933359642486572"><ele>422.5</ele><time>2026-05-03T07:24:45.999Z</time></trkpt><trkpt lat="44.40409333931615" lon="7.933508486666428"><ele>423.0</ele><time>2026-05-03T07:24:46.999Z</time></trkpt><trkpt lat="44.40403260641372" lon="7.933653979660823"><ele>423.5</ele><time>2026-05-03T07:24:47.999Z</time></trkpt><trkpt lat="44.40397417964195" lon="7.9337831195303306"><ele>424.0</ele><time>2026-05-03T07:24:48.999Z</time></trkpt><trkpt lat="44.403895192371365" lon="7.933915546136489"><ele>424.5</ele><time>2026-05-03T07:24:49.999Z</time></trkpt><trkpt lat="44.4038265720704" lon="7.934038961008367"><ele>425.0</ele><time>2026-05-03T07:24:50.999Z</time></trkpt><trkpt lat="44.403751357585996" lon="7.934159496340705"><ele>425.5</ele><time>2026-05-03T07:24:51.999Z</time></trkpt><trkpt lat="44.40367664300414" lon="7.934288054394454"><ele>426.0</ele><time>2026-05-03T07:24:52.999Z</time></trkpt><trkpt lat="44.403603674119324" lon="7.934399832937482"><ele>426.0</ele><time>2026-05-03T07:24:53.999Z</time></trkpt><trkpt lat="44.40353527493593" lon="7.934517646391546"><ele>426.0</ele><time>2026-05-03T07:24:54.999Z</time></trkpt><trkpt lat="44.40346611749646" lon="7.934638538962038"><ele>426.0</ele><time>2026-05-03T07:24:55.999Z</time></trkpt><trkpt lat="44.40339571356884" lon="7.934755763733418"><ele>426.0</ele><time>2026-05-03T07:24:56.999Z</time></trkpt><trkpt lat="44.40332829037157" lon="7.934877102046587"><ele>426.0</ele><time>2026-05-03T07:24:57.999Z</time></trkpt><trkpt lat="44.40326453105745" lon="7.934993394862202"><ele>425.8</ele><time>2026-05-03T07:24:58.999Z</time></trkpt><trkpt lat="44.403199392433514" lon="7.935108183861861"><ele>425.6</ele><time>2026-05-03T07:24:59.999Z</time></trkpt><trkpt lat="44.403131786504545" lon="7.935226922087969"><ele>425.4</ele><time>2026-05-03T07:25:00.999Z</time></trkpt><trkpt lat="44.40306085397602" lon="7.935345828113891"><ele>425.2</ele><time>2026-05-03T07:25:01.999Z</time></trkpt><trkpt lat="44.402991252629185" lon="7.935471514416322"><ele>425.0</ele><time>2026-05-03T07:25:02.999Z</time></trkpt><trkpt lat="44.40292271874441" lon="7.935596893753177"><ele>426.75</ele><time>2026-05-03T07:25:03.999Z</time></trkpt><trkpt lat="44.402853833047146" lon="7.935721455910093"><ele>428.5</ele><time>2026-05-03T07:25:04.999Z</time></trkpt><trkpt lat="44.40278271124601" lon="7.935850375204089"><ele>430.25</ele><time>2026-05-03T07:25:05.999Z</time></trkpt><trkpt lat="44.4027110204148" lon="7.935976594525736"><ele>432.0</ele><time>2026-05-03T07:25:06.999Z</time></trkpt><trkpt lat="44.40264108908338" lon="7.936106700787601"><ele>432.0</ele><time>2026-05-03T07:25:07.999Z</time></trkpt><trkpt lat="44.402571270642284" lon="7.936235618306303"><ele>432.0</ele><time>2026-05-03T07:25:08.999Z</time></trkpt><trkpt lat="44.40249948224841" lon="7.936363519367194"><ele>432.0</ele><time>2026-05-03T07:25:09.999Z</time></trkpt><trkpt lat="44.40243095050639" lon="7.936486130175937"><ele>432.0</ele><time>2026-05-03T07:25:10.999Z</time></trkpt><trkpt lat="44.40236022451764" lon="7.936611283869621"><ele>431.40000000000003</ele><time>2026-05-03T07:25:11.999Z</time></trkpt><trkpt lat="44.40229243003472" lon="7.9367325154563675"><ele>430.80000000000007</ele><time>2026-05-03T07:25:12.999Z</time></trkpt><trkpt lat="44.40222246748112" lon="7.936860785398156"><ele>430.2</ele><time>2026-05-03T07:25:13.999Z</time></trkpt><trkpt lat="44.402155315921874" lon="7.936979304499629"><ele>429.6</ele><time>2026-05-03T07:25:14.999Z</time></trkpt><trkpt lat="44.40208698389603" lon="7.937099707836833"><ele>429.0</ele><time>2026-05-03T07:25:15.999Z</time></trkpt><trkpt lat="44.40201867821814" lon="7.9372191215422685"><ele>430.79999999999995</ele><time>2026-05-03T07:25:16.999Z</time></trkpt><trkpt lat="44.40195301780554" lon="7.937342829234806"><ele>432.59999999999997</ele><time>2026-05-03T07:25:17.999Z</time></trkpt><trkpt lat="44.40188759043784" lon="7.937465917044705"><ele>434.4</ele><time>2026-05-03T07:25:18.999Z</time></trkpt><trkpt lat="44.40182180120007" lon="7.9375854680267794"><ele>436.2</ele><time>2026-05-03T07:25:19.999Z</time></trkpt><trkpt lat="44.4017553140679" lon="7.937702352669135"><ele>438.0</ele><time>2026-05-03T07:25:20.999Z</time></trkpt><trkpt lat="44.40168520283546" lon="7.9378186155544075"><ele>438.0</ele><time>2026-05-03T07:25:21.998Z</time></trkpt><trkpt lat="44.40161756560854" lon="7.937935652465526"><ele>437.99999999999994</ele><time>2026-05-03T07:25:22.998Z</time></trkpt><trkpt lat="44.40155274417381" lon="7.938052400604465"><ele>437.99999999999994</ele><time>2026-05-03T07:25:23.998Z</time></trkpt><trkpt lat="44.40148445334622" lon="7.9381765157501425"><ele>438.0</ele><time>2026-05-03T07:25:24.998Z</time></trkpt><trkpt lat="44.401415228730976" lon="7.938299229455215"><ele>438.0</ele><time>2026-05-03T07:25:25.998Z</time></trkpt><trkpt lat="44.40134906422943" lon="7.93842140139499"><ele>438.79999999999995</ele><time>2026-05-03T07:25:26.998Z</time></trkpt><trkpt lat="44.40127885443454" lon="7.938546024295528"><ele>439.59999999999997</ele><time>2026-05-03T07:25:27.998Z</time></trkpt><trkpt lat="44.401207749695025" lon="7.938666591350393"><ele>440.40000000000003</ele><time>2026-05-03T07:25:28.998Z</time></trkpt><trkpt lat="44.40114089921832" lon="7.938788301932693"><ele>441.20000000000005</ele><time>2026-05-03T07:25:29.998Z</time></trkpt><trkpt lat="44.40107413027479" lon="7.93890758559424"><ele>442.0</ele><time>2026-05-03T07:25:30.998Z</time></trkpt><trkpt lat="44.401008514592206" lon="7.9390281962367135"><ele>442.0</ele><time>2026-05-03T07:25:31.998Z</time></trkpt><trkpt lat="44.40094311699183" lon="7.939149475242945"><ele>442.00000000000006</ele><time>2026-05-03T07:25:32.998Z</time></trkpt><trkpt lat="44.400877950740735" lon="7.9392708861809105"><ele>442.00000000000006</ele><time>2026-05-03T07:25:33.998Z</time></trkpt><trkpt lat="44.40081295895809" lon="7.9393980300431375"><ele>442.0</ele><time>2026-05-03T07:25:34.998Z</time></trkpt><trkpt lat="44.40074672107967" lon="7.939527316235114"><ele>442.0</ele><time>2026-05-03T07:25:35.998Z</time></trkpt><trkpt lat="44.400682636716475" lon="7.939664745552394"><ele>440.75</ele><time>2026-05-03T07:25:36.998Z</time></trkpt><trkpt lat="44.400618634113755" lon="7.939803911774944"><ele>439.5</ele><time>2026-05-03T07:25:37.998Z</time></trkpt><trkpt lat="44.40055328773417" lon="7.939947234127192"><ele>438.25</ele><time>2026-05-03T07:25:38.998Z</time></trkpt><trkpt lat="44.400482900076014" lon="7.940102296082334"><ele>437.0</ele><time>2026-05-03T07:25:39.998Z</time></trkpt><trkpt lat="44.40042053287426" lon="7.9402470831286385"><ele>439.8</ele><time>2026-05-03T07:25:40.998Z</time></trkpt><trkpt lat="44.40036639535893" lon="7.940382945040646"><ele>442.6</ele><time>2026-05-03T07:25:41.998Z</time></trkpt><trkpt lat="44.40031467105184" lon="7.9405128888722905"><ele>445.40000000000003</ele><time>2026-05-03T07:25:42.998Z</time></trkpt><trkpt lat="44.400262041862774" lon="7.940645770535976"><ele>448.20000000000005</ele><time>2026-05-03T07:25:43.998Z</time></trkpt><trkpt lat="44.400211797082584" lon="7.94077820753266"><ele>451.0</ele><time>2026-05-03T07:25:44.998Z</time></trkpt><trkpt lat="44.40015636387233" lon="7.940916002756242"><ele>451.25</ele><time>2026-05-03T07:25:45.998Z</time></trkpt><trkpt lat="44.40010381681458" lon="7.941043457156604"><ele>451.5</ele><time>2026-05-03T07:25:46.998Z</time></trkpt><trkpt lat="44.40004592733432" lon="7.941180229950467"><ele>451.75</ele><time>2026-05-03T07:25:47.998Z</time></trkpt><trkpt lat="44.399987440060954" lon="7.941319703610786"><ele>452.0</ele><time>2026-05-03T07:25:49Z</time></trkpt><trkpt lat="44.39991853326937" lon="7.941463838281395"><ele>452.0</ele><time>2026-05-03T07:25:50Z</time></trkpt><trkpt lat="44.39983826425945" lon="7.941607224461009"><ele>452.0</ele><time>2026-05-03T07:25:51Z</time></trkpt><trkpt lat="44.39974129763686" lon="7.941746719104574"><ele>452.0</ele><time>2026-05-03T07:25:52Z</time></trkpt><trkpt lat="44.39963519648625" lon="7.941868388138424"><ele>452.0</ele><time>2026-05-03T07:25:53Z</time></trkpt><trkpt lat="44.39953051753318" lon="7.941961529112809"><ele>451.0</ele><time>2026-05-03T07:25:54Z</time></trkpt><trkpt lat="44.399419454878746" lon="7.942033333156615"><ele>450.0</ele><time>2026-05-03T07:25:55Z</time></trkpt><trkpt lat="44.39929775575941" lon="7.942080782647088"><ele>449.0</ele><time>2026-05-03T07:25:56Z</time></trkpt><trkpt lat="44.39915773221198" lon="7.942109075747992"><ele>448.0</ele><time>2026-05-03T07:25:57Z</time></trkpt><trkpt lat="44.399009029530276" lon="7.942117266463584"><ele>448.0</ele><time>2026-05-03T07:25:58Z</time></trkpt><trkpt lat="44.398855752478966" lon="7.942115004683854"><ele>448.0</ele><time>2026-05-03T07:25:59Z</time></trkpt><trkpt lat="44.39869897283681" lon="7.9420802180121095"><ele>448.0</ele><time>2026-05-03T07:26:00Z</time></trkpt><trkpt lat="44.398528239903456" lon="7.942061403821816"><ele>447.6666666666667</ele><time>2026-05-03T07:26:01Z</time></trkpt><trkpt lat="44.39834927709247" lon="7.9420416806847385"><ele>447.33333333333337</ele><time>2026-05-03T07:26:02Z</time></trkpt><trkpt lat="44.39816646473972" lon="7.942021508646206"><ele>447.0</ele><time>2026-05-03T07:26:03Z</time></trkpt><trkpt lat="44.39798032856334" lon="7.942000969883399"><ele>446.33333333333337</ele><time>2026-05-03T07:26:04Z</time></trkpt><trkpt lat="44.39778800235637" lon="7.941979748099814"><ele>445.6666666666667</ele><time>2026-05-03T07:26:05Z</time></trkpt><trkpt lat="44.397607421114074" lon="7.941959822295249"><ele>445.0</ele><time>2026-05-03T07:26:06Z</time></trkpt><trkpt lat="44.3974396354079" lon="7.941941308355897"><ele>445.0</ele><time>2026-05-03T07:26:07Z</time></trkpt><trkpt lat="44.3972853288521" lon="7.941924281744655"><ele>445.0</ele><time>2026-05-03T07:26:08Z</time></trkpt><trkpt lat="44.3971407436853" lon="7.9419083278029685"><ele>445.0</ele><time>2026-05-03T07:26:09Z</time></trkpt><trkpt lat="44.397002628913334" lon="7.94190794358321"><ele>445.0</ele><time>2026-05-03T07:26:10Z</time></trkpt><trkpt lat="44.39686526054941" lon="7.941872303401423"><ele>443.0</ele><time>2026-05-03T07:26:11Z</time></trkpt><trkpt lat="44.39673108405867" lon="7.941819373938719"><ele>441.0</ele><time>2026-05-03T07:26:12Z</time></trkpt><trkpt lat="44.396604130531664" lon="7.941748866764674"><ele>439.0</ele><time>2026-05-03T07:26:13Z</time></trkpt><trkpt lat="44.39648920951573" lon="7.941627122801215"><ele>437.0</ele><time>2026-05-03T07:26:14Z</time></trkpt><trkpt lat="44.39636865942744" lon="7.941499431052235"><ele>437.3333333333333</ele><time>2026-05-03T07:26:15Z</time></trkpt><trkpt lat="44.396248525762616" lon="7.941341992719306"><ele>437.66666666666663</ele><time>2026-05-03T07:26:16Z</time></trkpt><trkpt lat="44.396127989439144" lon="7.941170489505834"><ele>438.0</ele><time>2026-05-03T07:26:17Z</time></trkpt><trkpt lat="44.396000333606565" lon="7.94098732265964"><ele>444.66666666666663</ele><time>2026-05-03T07:26:18Z</time></trkpt><trkpt lat="44.39587340881059" lon="7.9408038447326454"><ele>451.3333333333333</ele><time>2026-05-03T07:26:19Z</time></trkpt><trkpt lat="44.39574310107182" lon="7.940614354322895"><ele>458.0</ele><time>2026-05-03T07:26:20Z</time></trkpt><trkpt lat="44.395607070458695" lon="7.9404165418457335"><ele>453.66666666666663</ele><time>2026-05-03T07:26:21Z</time></trkpt><trkpt lat="44.39546687162588" lon="7.940213939498249"><ele>449.33333333333337</ele><time>2026-05-03T07:26:22Z</time></trkpt><trkpt lat="44.39532135495317" lon="7.940004561454465"><ele>445.0</ele><time>2026-05-03T07:26:23Z</time></trkpt><trkpt lat="44.395180194670424" lon="7.939801080423015"><ele>445.0</ele><time>2026-05-03T07:26:24Z</time></trkpt><trkpt lat="44.39503604108988" lon="7.939591848825488"><ele>445.0</ele><time>2026-05-03T07:26:25Z</time></trkpt><trkpt lat="44.39488598900443" lon="7.939374055821578"><ele>445.0</ele><time>2026-05-03T07:26:26Z</time></trkpt><trkpt lat="44.394734021024576" lon="7.939154611571207"><ele>441.6666666666667</ele><time>2026-05-03T07:26:27Z</time></trkpt><trkpt lat="44.394576135625904" lon="7.9389283418550605"><ele>438.33333333333337</ele><time>2026-05-03T07:26:28Z</time></trkpt><trkpt lat="44.39442027123334" lon="7.938704725343095"><ele>435.0</ele><time>2026-05-03T07:26:29Z</time></trkpt><trkpt lat="44.39426427596785" lon="7.938480881050754"><ele>446.0</ele><time>2026-05-03T07:26:30Z</time></trkpt><trkpt lat="44.39410254078872" lon="7.938248802057334"><ele>457.0</ele><time>2026-05-03T07:26:30.999Z</time></trkpt><trkpt lat="44.39394565218999" lon="7.938019930757793"><ele>452.33333333333337</ele><time>2026-05-03T07:26:31.999Z</time></trkpt><trkpt lat="44.39379849082801" lon="7.937804159506346"><ele>447.66666666666663</ele><time>2026-05-03T07:26:32.999Z</time></trkpt><trkpt lat="44.393662364873514" lon="7.9376082510128265"><ele>443.0</ele><time>2026-05-03T07:26:33.999Z</time></trkpt><trkpt lat="44.39353055823963" lon="7.93744003578129"><ele>443.0</ele><time>2026-05-03T07:26:34.999Z</time></trkpt><trkpt lat="44.39340445498661" lon="7.937266200952972"><ele>443.0</ele><time>2026-05-03T07:26:35.999Z</time></trkpt><trkpt lat="44.39327460464772" lon="7.937074908447921"><ele>443.0</ele><time>2026-05-03T07:26:36.999Z</time></trkpt><trkpt lat="44.393166324558216" lon="7.936852141561078"><ele>451.0</ele><time>2026-05-03T07:26:37.999Z</time></trkpt><trkpt lat="44.393052792717484" lon="7.9366386073390585"><ele>459.0</ele><time>2026-05-03T07:26:38.999Z</time></trkpt><trkpt lat="44.3929551625849" lon="7.936434070081941"><ele>467.0</ele><time>2026-05-03T07:26:39.999Z</time></trkpt><trkpt lat="44.39286441826986" lon="7.936227553087564"><ele>460.66666666666663</ele><time>2026-05-03T07:26:40.999Z</time></trkpt><trkpt lat="44.39276044914751" lon="7.936042523335149"><ele>454.33333333333337</ele><time>2026-05-03T07:26:41.999Z</time></trkpt><trkpt lat="44.39264789225362" lon="7.93585163306183"><ele>448.0</ele><time>2026-05-03T07:26:42.999Z</time></trkpt><trkpt lat="44.39251375862501" lon="7.935679945182072"><ele>448.0</ele><time>2026-05-03T07:26:43.999Z</time></trkpt><trkpt lat="44.39238218219648" lon="7.93548527620707"><ele>448.0</ele><time>2026-05-03T07:26:44.999Z</time></trkpt><trkpt lat="44.392230261332614" lon="7.9353220659189985"><ele>448.0</ele><time>2026-05-03T07:26:45.999Z</time></trkpt><trkpt lat="44.39207594319778" lon="7.935134301693605"><ele>446.33333333333337</ele><time>2026-05-03T07:26:46.999Z</time></trkpt><trkpt lat="44.391932268802556" lon="7.934924877799564"><ele>444.66666666666663</ele><time>2026-05-03T07:26:47.999Z</time></trkpt><trkpt lat="44.3917758290427" lon="7.934730021235972"><ele>443.0</ele><time>2026-05-03T07:26:48.999Z</time></trkpt><trkpt lat="44.39162475665383" lon="7.934541403042369"><ele>443.0</ele><time>2026-05-03T07:26:49.999Z</time></trkpt><trkpt lat="44.39148718551107" lon="7.9343641131995515"><ele>443.0</ele><time>2026-05-03T07:26:50.999Z</time></trkpt><trkpt lat="44.39135060686707" lon="7.9341872507817195"><ele>443.0</ele><time>2026-05-03T07:26:51.999Z</time></trkpt><trkpt lat="44.39123041512824" lon="7.934033552322361"><ele>440.0</ele><time>2026-05-03T07:26:52.999Z</time></trkpt><trkpt lat="44.39110148330739" lon="7.933899286580787"><ele>437.0</ele><time>2026-05-03T07:26:53.999Z</time></trkpt><trkpt lat="44.390996652572504" lon="7.933739400398076"><ele>434.0</ele><time>2026-05-03T07:26:54.999Z</time></trkpt><trkpt lat="44.39086937037308" lon="7.933591577292187"><ele>434.0</ele><time>2026-05-03T07:26:55.999Z</time></trkpt><trkpt lat="44.390768190879406" lon="7.933389492128222"><ele>434.0</ele><time>2026-05-03T07:26:56.999Z</time></trkpt><trkpt lat="44.3906664221454" lon="7.933190590424532"><ele>434.0</ele><time>2026-05-03T07:26:57.999Z</time></trkpt><trkpt lat="44.39056345429013" lon="7.932973514025981"><ele>432.3333333333333</ele><time>2026-05-03T07:26:58.999Z</time></trkpt><trkpt lat="44.390461422125775" lon="7.932756617985948"><ele>430.66666666666663</ele><time>2026-05-03T07:26:59.999Z</time></trkpt><trkpt lat="44.39036225833283" lon="7.932536313838717"><ele>429.0</ele><time>2026-05-03T07:27:00.999Z</time></trkpt><trkpt lat="44.39025646266692" lon="7.932287008144528"><ele>429.0</ele><time>2026-05-03T07:27:01.999Z</time></trkpt><trkpt lat="44.390160470238804" lon="7.9320378266870915"><ele>429.0</ele><time>2026-05-03T07:27:02.999Z</time></trkpt><trkpt lat="44.39007797402462" lon="7.931782142649224"><ele>429.0</ele><time>2026-05-03T07:27:03.999Z</time></trkpt><trkpt lat="44.3899975273485" lon="7.9315201673725495"><ele>435.33333333333337</ele><time>2026-05-03T07:27:04.999Z</time></trkpt><trkpt lat="44.38991681605827" lon="7.931254548554383"><ele>441.6666666666667</ele><time>2026-05-03T07:27:05.999Z</time></trkpt><trkpt lat="44.389841258728964" lon="7.931001943432049"><ele>448.0</ele><time>2026-05-03T07:27:06.999Z</time></trkpt><trkpt lat="44.38976914160104" lon="7.9307608397002705"><ele>454.6666666666667</ele><time>2026-05-03T07:27:07.999Z</time></trkpt><trkpt lat="44.389699561964214" lon="7.930533465056727"><ele>461.33333333333337</ele><time>2026-05-03T07:27:08.999Z</time></trkpt><trkpt lat="44.38963200859731" lon="7.930319584154344"><ele>468.0</ele><time>2026-05-03T07:27:09.999Z</time></trkpt><trkpt lat="44.38955180946295" lon="7.930093786823007"><ele>455.33333333333337</ele><time>2026-05-03T07:27:10.999Z</time></trkpt><trkpt lat="44.389452714085216" lon="7.929884834145044"><ele>442.6666666666667</ele><time>2026-05-03T07:27:11.999Z</time></trkpt><trkpt lat="44.38936319727559" lon="7.9296681128215365"><ele>430.0</ele><time>2026-05-03T07:27:12.999Z</time></trkpt><trkpt lat="44.38927057422045" lon="7.929441877182476"><ele>439.0</ele><time>2026-05-03T07:27:13.999Z</time></trkpt><trkpt lat="44.38918682240569" lon="7.92920176430492"><ele>448.0</ele><time>2026-05-03T07:27:14.999Z</time></trkpt><trkpt lat="44.38908532076798" lon="7.9289722546592625"><ele>457.0</ele><time>2026-05-03T07:27:15.999Z</time></trkpt><trkpt lat="44.38896884202932" lon="7.928750333620108"><ele>457.0</ele><time>2026-05-03T07:27:16.999Z</time></trkpt><trkpt lat="44.38884833743971" lon="7.92853478027382"><ele>457.0</ele><time>2026-05-03T07:27:17.999Z</time></trkpt><trkpt lat="44.388722287581956" lon="7.92831908209951"><ele>457.0</ele><time>2026-05-03T07:27:18.999Z</time></trkpt><trkpt lat="44.388594779943006" lon="7.928097787424088"><ele>456.6666666666667</ele><time>2026-05-03T07:27:19.999Z</time></trkpt><trkpt lat="44.38846917156121" lon="7.927878123716153"><ele>456.33333333333337</ele><time>2026-05-03T07:27:20.999Z</time></trkpt><trkpt lat="44.38834794620576" lon="7.92769541338548"><ele>456.0</ele><time>2026-05-03T07:27:21.999Z</time></trkpt><trkpt lat="44.388251059311074" lon="7.927521826809724"><ele>456.0</ele><time>2026-05-03T07:27:22.999Z</time></trkpt><trkpt lat="44.38815453388068" lon="7.92734157728226"><ele>456.0</ele><time>2026-05-03T07:27:23.999Z</time></trkpt><trkpt lat="44.38806379422641" lon="7.927139925784129"><ele>456.0</ele><time>2026-05-03T07:27:24.999Z</time></trkpt><trkpt lat="44.38797519065657" lon="7.926925425917179"><ele>448.0</ele><time>2026-05-03T07:27:25.999Z</time></trkpt><trkpt lat="44.38788914282103" lon="7.9266970283286575"><ele>440.0</ele><time>2026-05-03T07:27:26.998Z</time></trkpt><trkpt lat="44.38782252327246" lon="7.926483382086238"><ele>432.0</ele><time>2026-05-03T07:27:27.998Z</time></trkpt><trkpt lat="44.387757396203284" lon="7.926274893191052"><ele>432.0</ele><time>2026-05-03T07:27:28.998Z</time></trkpt><trkpt lat="44.38768486201854" lon="7.926075182302977"><ele>432.0</ele><time>2026-05-03T07:27:29.998Z</time></trkpt><trkpt lat="44.387615105220895" lon="7.925872615592531"><ele>432.0</ele><time>2026-05-03T07:27:30.998Z</time></trkpt><trkpt lat="44.387533623312144" lon="7.925676720594132"><ele>436.0</ele><time>2026-05-03T07:27:31.998Z</time></trkpt><trkpt lat="44.387437036562666" lon="7.925469254274156"><ele>440.0</ele><time>2026-05-03T07:27:32.998Z</time></trkpt><trkpt lat="44.38732057286616" lon="7.925273598886635"><ele>444.0</ele><time>2026-05-03T07:27:33.998Z</time></trkpt><trkpt lat="44.387202099246295" lon="7.9250805160057585"><ele>438.33333333333337</ele><time>2026-05-03T07:27:34.998Z</time></trkpt><trkpt lat="44.38707307561448" lon="7.9248853329460465"><ele>432.6666666666667</ele><time>2026-05-03T07:27:35.998Z</time></trkpt><trkpt lat="44.386939869777834" lon="7.924695625407724"><ele>427.0</ele><time>2026-05-03T07:27:36.998Z</time></trkpt><trkpt lat="44.38680551639616" lon="7.924515976223965"><ele>427.0</ele><time>2026-05-03T07:27:37.998Z</time></trkpt><trkpt lat="44.386686953933946" lon="7.924340646433156"><ele>427.0</ele><time>2026-05-03T07:27:38.998Z</time></trkpt><trkpt lat="44.38656654639136" lon="7.924165994789363"><ele>427.0</ele><time>2026-05-03T07:27:39.998Z</time></trkpt><trkpt lat="44.38643995786796" lon="7.923993128848504"><ele>423.33333333333337</ele><time>2026-05-03T07:27:40.998Z</time></trkpt><trkpt lat="44.386302781660135" lon="7.923806058511447"><ele>419.66666666666663</ele><time>2026-05-03T07:27:41.998Z</time></trkpt><trkpt lat="44.386154060622864" lon="7.9236394327125454"><ele>416.0</ele><time>2026-05-03T07:27:42.998Z</time></trkpt><trkpt lat="44.386004327989546" lon="7.923480486956733"><ele>417.66666666666663</ele><time>2026-05-03T07:27:43.998Z</time></trkpt><trkpt lat="44.385842321621226" lon="7.92332135286928"><ele>419.33333333333337</ele><time>2026-05-03T07:27:44.998Z</time></trkpt><trkpt lat="44.38567543794419" lon="7.923160021472575"><ele>421.0</ele><time>2026-05-03T07:27:45.998Z</time></trkpt><trkpt lat="44.38550282586162" lon="7.9229990462492434"><ele>421.0</ele><time>2026-05-03T07:27:46.998Z</time></trkpt><trkpt lat="44.38532738082192" lon="7.92283317597346"><ele>421.0</ele><time>2026-05-03T07:27:47.998Z</time></trkpt><trkpt lat="44.38514992783363" lon="7.922666991897277"><ele>421.0</ele><time>2026-05-03T07:27:48.998Z</time></trkpt><trkpt lat="44.384960665626174" lon="7.9225014418876"><ele>420.33333333333337</ele><time>2026-05-03T07:27:49.998Z</time></trkpt><trkpt lat="44.38479867885898" lon="7.922346184169434"><ele>419.66666666666663</ele><time>2026-05-03T07:27:50.998Z</time></trkpt><trkpt lat="44.38465027634703" lon="7.92220439574901"><ele>419.0</ele><time>2026-05-03T07:27:51.998Z</time></trkpt><trkpt lat="44.384493638792236" lon="7.922063482746093"><ele>419.0</ele><time>2026-05-03T07:27:52.998Z</time></trkpt><trkpt lat="44.38436071555693" lon="7.921934899022128"><ele>419.0</ele><time>2026-05-03T07:27:53.998Z</time></trkpt><trkpt lat="44.38423085273508" lon="7.921818433078573"><ele>419.0</ele><time>2026-05-03T07:27:55Z</time></trkpt><trkpt lat="44.38410685948716" lon="7.921702605974554"><ele>418.0</ele><time>2026-05-03T07:27:56Z</time></trkpt><trkpt lat="44.38397587179503" lon="7.921580837629241"><ele>417.0</ele><time>2026-05-03T07:27:57Z</time></trkpt><trkpt lat="44.383861386268954" lon="7.921434357660155"><ele>416.0</ele><time>2026-05-03T07:27:58Z</time></trkpt><trkpt lat="44.38375879990872" lon="7.921304055559185"><ele>416.0</ele><time>2026-05-03T07:27:59Z</time></trkpt><trkpt lat="44.38365687957553" lon="7.921175832676942"><ele>416.0</ele><time>2026-05-03T07:28:00Z</time></trkpt><trkpt lat="44.383567740584084" lon="7.921016750322216"><ele>416.0</ele><time>2026-05-03T07:28:01Z</time></trkpt><trkpt lat="44.38348050436593" lon="7.920841391227786"><ele>416.0</ele><time>2026-05-03T07:28:02Z</time></trkpt><trkpt lat="44.38339709617285" lon="7.920644153774701"><ele>418.66666666666663</ele><time>2026-05-03T07:28:03Z</time></trkpt><trkpt lat="44.38332852003504" lon="7.920449319808241"><ele>421.33333333333337</ele><time>2026-05-03T07:28:04Z</time></trkpt><trkpt lat="44.38325811746763" lon="7.920241968328863"><ele>424.0</ele><time>2026-05-03T07:28:05Z</time></trkpt><trkpt lat="44.383201931018775" lon="7.920028466479876"><ele>430.6666666666667</ele><time>2026-05-03T07:28:06Z</time></trkpt><trkpt lat="44.383148557628324" lon="7.919796327870641"><ele>437.33333333333337</ele><time>2026-05-03T07:28:07Z</time></trkpt><trkpt lat="44.383091631202134" lon="7.919586965682871"><ele>444.0</ele><time>2026-05-03T07:28:08Z</time></trkpt><trkpt lat="44.38303071557329" lon="7.91936575584184"><ele>434.0</ele><time>2026-05-03T07:28:09Z</time></trkpt><trkpt lat="44.38294109168841" lon="7.919165004544779"><ele>424.0</ele><time>2026-05-03T07:28:10Z</time></trkpt><trkpt lat="44.382824896334576" lon="7.918967017992"><ele>414.0</ele><time>2026-05-03T07:28:11Z</time></trkpt><trkpt lat="44.38272859709446" lon="7.918778349435404"><ele>414.0</ele><time>2026-05-03T07:28:12Z</time></trkpt><trkpt lat="44.38263796029945" lon="7.918605726672385"><ele>414.0</ele><time>2026-05-03T07:28:13Z</time></trkpt><trkpt lat="44.38254279637811" lon="7.918438956157299"><ele>414.0</ele><time>2026-05-03T07:28:14Z</time></trkpt><trkpt lat="44.382454585294376" lon="7.918283900186759"><ele>414.0</ele><time>2026-05-03T07:28:15Z</time></trkpt><trkpt lat="44.382366205203546" lon="7.918135340717162"><ele>413.25</ele><time>2026-05-03T07:28:16Z</time></trkpt><trkpt lat="44.38228509364063" lon="7.917993877627268"><ele>412.5</ele><time>2026-05-03T07:28:17Z</time></trkpt><trkpt lat="44.38221291023753" lon="7.917861163506134"><ele>411.75</ele><time>2026-05-03T07:28:18Z</time></trkpt><trkpt lat="44.38213276357487" lon="7.917744731448977"><ele>411.0</ele><time>2026-05-03T07:28:19Z</time></trkpt><trkpt lat="44.382057364358175" lon="7.917622997158174"><ele>414.5</ele><time>2026-05-03T07:28:20Z</time></trkpt><trkpt lat="44.38197535599131" lon="7.917495897003758"><ele>418.0</ele><time>2026-05-03T07:28:21Z</time></trkpt><trkpt lat="44.381895549107846" lon="7.917373936514155"><ele>421.5</ele><time>2026-05-03T07:28:22Z</time></trkpt><trkpt lat="44.381823748443146" lon="7.917263323668839"><ele>425.0</ele><time>2026-05-03T07:28:23Z</time></trkpt><trkpt lat="44.381751150738076" lon="7.917157002086359"><ele>425.0</ele><time>2026-05-03T07:28:24Z</time></trkpt><trkpt lat="44.38167115301523" lon="7.917060071667041"><ele>425.0</ele><time>2026-05-03T07:28:25Z</time></trkpt><trkpt lat="44.3815877020965" lon="7.916970092111957"><ele>425.0</ele><time>2026-05-03T07:28:26Z</time></trkpt><trkpt lat="44.3815042433473" lon="7.9168778138027855"><ele>425.0</ele><time>2026-05-03T07:28:27Z</time></trkpt><trkpt lat="44.38141671324586" lon="7.916788887308423"><ele>425.0</ele><time>2026-05-03T07:28:28Z</time></trkpt><trkpt lat="44.381327237451615" lon="7.916701866960825"><ele>424.8</ele><time>2026-05-03T07:28:29Z</time></trkpt><trkpt lat="44.38123441457472" lon="7.916619012914405"><ele>424.6</ele><time>2026-05-03T07:28:30Z</time></trkpt><trkpt lat="44.38114298364916" lon="7.9165371509939915"><ele>424.4</ele><time>2026-05-03T07:28:31Z</time></trkpt><trkpt lat="44.38105029694609" lon="7.9164431153816075"><ele>424.2</ele><time>2026-05-03T07:28:32Z</time></trkpt><trkpt lat="44.38095870492451" lon="7.916349494107286"><ele>424.0</ele><time>2026-05-03T07:28:33Z</time></trkpt><trkpt lat="44.38086563148272" lon="7.916260788877319"><ele>424.0</ele><time>2026-05-03T07:28:34Z</time></trkpt><trkpt lat="44.38077244426618" lon="7.916176748090852"><ele>424.0</ele><time>2026-05-03T07:28:35Z</time></trkpt><trkpt lat="44.38068235110842" lon="7.916082920656866"><ele>424.0</ele><time>2026-05-03T07:28:36Z</time></trkpt><trkpt lat="44.38059436133784" lon="7.9160060468671505"><ele>424.0</ele><time>2026-05-03T07:28:37Z</time></trkpt><trkpt lat="44.38050161347541" lon="7.915924171386135"><ele>424.0</ele><time>2026-05-03T07:28:37.999Z</time></trkpt><trkpt lat="44.38041474733901" lon="7.915840103794471"><ele>425.2</ele><time>2026-05-03T07:28:38.999Z</time></trkpt><trkpt lat="44.38032537456166" lon="7.9157613942219545"><ele>426.4</ele><time>2026-05-03T07:28:39.999Z</time></trkpt><trkpt lat="44.38023720258723" lon="7.915681981527214"><ele>427.6</ele><time>2026-05-03T07:28:40.999Z</time></trkpt><trkpt lat="44.38014718094723" lon="7.915597925080588"><ele>428.8</ele><time>2026-05-03T07:28:41.999Z</time></trkpt><trkpt lat="44.38005993941129" lon="7.91551509006179"><ele>430.0</ele><time>2026-05-03T07:28:42.999Z</time></trkpt><trkpt lat="44.37996578053416" lon="7.915434914642792"><ele>430.0</ele><time>2026-05-03T07:28:43.999Z</time></trkpt><trkpt lat="44.37987606418613" lon="7.915353212720792"><ele>430.0</ele><time>2026-05-03T07:28:44.999Z</time></trkpt><trkpt lat="44.37979109888322" lon="7.915260751458284"><ele>430.0</ele><time>2026-05-03T07:28:45.999Z</time></trkpt><trkpt lat="44.37970453185211" lon="7.915172524519475"><ele>430.0</ele><time>2026-05-03T07:28:46.999Z</time></trkpt><trkpt lat="44.37962219865991" lon="7.915077444644296"><ele>430.0</ele><time>2026-05-03T07:28:47.999Z</time></trkpt><trkpt lat="44.37954812200569" lon="7.914972079754908"><ele>429.8</ele><time>2026-05-03T07:28:48.999Z</time></trkpt><trkpt lat="44.379471154411355" lon="7.9148610091686"><ele>429.6</ele><time>2026-05-03T07:28:49.999Z</time></trkpt><trkpt lat="44.37939480391889" lon="7.914753805442397"><ele>429.4</ele><time>2026-05-03T07:28:50.999Z</time></trkpt><trkpt lat="44.379318763071076" lon="7.914644001158371"><ele>429.2</ele><time>2026-05-03T07:28:51.999Z</time></trkpt><trkpt lat="44.3792571269968" lon="7.914519419676182"><ele>429.0</ele><time>2026-05-03T07:28:52.999Z</time></trkpt><trkpt lat="44.37918894611327" lon="7.914415489113604"><ele>429.0</ele><time>2026-05-03T07:28:53.999Z</time></trkpt><trkpt lat="44.379126036437825" lon="7.91432172473253"><ele>429.0</ele><time>2026-05-03T07:28:54.999Z</time></trkpt><trkpt lat="44.37906221725847" lon="7.91423281230862"><ele>429.0</ele><time>2026-05-03T07:28:55.999Z</time></trkpt><trkpt lat="44.37899769211016" lon="7.914146066442794"><ele>429.0</ele><time>2026-05-03T07:28:56.999Z</time></trkpt><trkpt lat="44.378930354369515" lon="7.914053312156639"><ele>429.0</ele><time>2026-05-03T07:28:57.999Z</time></trkpt><trkpt lat="44.37886130232681" lon="7.913958687155183"><ele>428.79999999999995</ele><time>2026-05-03T07:28:58.999Z</time></trkpt><trkpt lat="44.37878986856292" lon="7.913863066881107"><ele>428.59999999999997</ele><time>2026-05-03T07:28:59.999Z</time></trkpt><trkpt lat="44.37872269410374" lon="7.913768948575639"><ele>428.4</ele><time>2026-05-03T07:29:00.999Z</time></trkpt><trkpt lat="44.37865411002668" lon="7.913680483277621"><ele>428.2</ele><time>2026-05-03T07:29:01.999Z</time></trkpt><trkpt lat="44.378587938116354" lon="7.913591319394097"><ele>428.0</ele><time>2026-05-03T07:29:02.999Z</time></trkpt><trkpt lat="44.3785180572773" lon="7.913497450536603"><ele>428.0</ele><time>2026-05-03T07:29:03.999Z</time></trkpt><trkpt lat="44.37845535066588" lon="7.913408612648568"><ele>427.99999999999994</ele><time>2026-05-03T07:29:04.999Z</time></trkpt><trkpt lat="44.37838340587628" lon="7.913313856911392"><ele>427.99999999999994</ele><time>2026-05-03T07:29:05.999Z</time></trkpt><trkpt lat="44.37831747594269" lon="7.91322310274417"><ele>428.0</ele><time>2026-05-03T07:29:06.999Z</time></trkpt><trkpt lat="44.37825091083562" lon="7.913132159511"><ele>428.0</ele><time>2026-05-03T07:29:07.999Z</time></trkpt><trkpt lat="44.37818715881326" lon="7.913048672511032"><ele>428.99999999999994</ele><time>2026-05-03T07:29:08.999Z</time></trkpt><trkpt lat="44.378120377999885" lon="7.912958986251354"><ele>430.0</ele><time>2026-05-03T07:29:09.999Z</time></trkpt><trkpt lat="44.37806118225668" lon="7.912878463279298"><ele>431.0</ele><time>2026-05-03T07:29:10.999Z</time></trkpt><trkpt lat="44.378001021081026" lon="7.9127905868668496"><ele>432.0</ele><time>2026-05-03T07:29:11.999Z</time></trkpt><trkpt lat="44.37794075990609" lon="7.912706162794056"><ele>432.99999999999994</ele><time>2026-05-03T07:29:12.999Z</time></trkpt><trkpt lat="44.377875870784074" lon="7.912620910462972"><ele>434.0</ele><time>2026-05-03T07:29:13.999Z</time></trkpt><trkpt lat="44.37781287168703" lon="7.912538513225612"><ele>434.6</ele><time>2026-05-03T07:29:14.999Z</time></trkpt><trkpt lat="44.37774468826515" lon="7.912451831450907"><ele>435.2</ele><time>2026-05-03T07:29:15.999Z</time></trkpt><trkpt lat="44.3776748840757" lon="7.912357782199647"><ele>435.80000000000007</ele><time>2026-05-03T07:29:16.999Z</time></trkpt><trkpt lat="44.37760581841329" lon="7.912265527300797"><ele>436.40000000000003</ele><time>2026-05-03T07:29:17.999Z</time></trkpt><trkpt lat="44.377550967190615" lon="7.912169245749917"><ele>437.0</ele><time>2026-05-03T07:29:18.999Z</time></trkpt><trkpt lat="44.377497022861" lon="7.912079951666488"><ele>437.0</ele><time>2026-05-03T07:29:19.999Z</time></trkpt><trkpt lat="44.37744743889056" lon="7.911996015274309"><ele>437.00000000000006</ele><time>2026-05-03T07:29:20.999Z</time></trkpt><trkpt lat="44.37740005623946" lon="7.911917886528197"><ele>437.00000000000006</ele><time>2026-05-03T07:29:21.999Z</time></trkpt><trkpt lat="44.377332470253144" lon="7.911817302377942"><ele>437.0</ele><time>2026-05-03T07:29:23.999Z</time></trkpt><trkpt lat="44.377272742992176" lon="7.911743900887828"><ele>437.0</ele><time>2026-05-03T07:29:25.999Z</time></trkpt><trkpt lat="44.37719267519071" lon="7.911603126769935"><ele>437.16666666666663</ele><time>2026-05-03T07:29:27.999Z</time></trkpt><trkpt lat="44.37714804967611" lon="7.911511227608135"><ele>437.3333333333333</ele><time>2026-05-03T07:29:28.999Z</time></trkpt><trkpt lat="44.37709368559141" lon="7.911398169115567"><ele>437.5</ele><time>2026-05-03T07:29:29.999Z</time></trkpt><trkpt lat="44.377055853349326" lon="7.911294008679489"><ele>437.66666666666663</ele><time>2026-05-03T07:29:30.999Z</time></trkpt><trkpt lat="44.3770055391611" lon="7.911181901420224"><ele>437.8333333333333</ele><time>2026-05-03T07:29:31.999Z</time></trkpt><trkpt lat="44.37695622954987" lon="7.91107462295431"><ele>438.0</ele><time>2026-05-03T07:29:32.999Z</time></trkpt><trkpt lat="44.37692659758052" lon="7.910957214262488"><ele>438.8333333333333</ele><time>2026-05-03T07:29:33.998Z</time></trkpt><trkpt lat="44.37687563053196" lon="7.910846669572219"><ele>439.66666666666663</ele><time>2026-05-03T07:29:34.998Z</time></trkpt><trkpt lat="44.37682883565413" lon="7.910731310627781"><ele>440.5</ele><time>2026-05-03T07:29:35.998Z</time></trkpt><trkpt lat="44.37678709934078" lon="7.910624207728907"><ele>441.3333333333333</ele><time>2026-05-03T07:29:36.998Z</time></trkpt><trkpt lat="44.376749511761076" lon="7.9105224513996975"><ele>442.16666666666663</ele><time>2026-05-03T07:29:37.998Z</time></trkpt><trkpt lat="44.37670785527992" lon="7.910432343409067"><ele>443.0</ele><time>2026-05-03T07:29:38.998Z</time></trkpt><trkpt lat="44.376667364635466" lon="7.910337406330925"><ele>443.0</ele><time>2026-05-03T07:29:39.998Z</time></trkpt><trkpt lat="44.376609838796" lon="7.910240408772835"><ele>442.99999999999994</ele><time>2026-05-03T07:29:40.998Z</time></trkpt><trkpt lat="44.3765607213337" lon="7.910116924356317"><ele>442.99999999999994</ele><time>2026-05-03T07:29:41.998Z</time></trkpt><trkpt lat="44.37653440122127" lon="7.909994674417852"><ele>443.0</ele><time>2026-05-03T07:29:42.998Z</time></trkpt><trkpt lat="44.376488057270016" lon="7.909879691257867"><ele>443.0</ele><time>2026-05-03T07:29:43.998Z</time></trkpt><trkpt lat="44.376437883780035" lon="7.909756382517933"><ele>443.0</ele><time>2026-05-03T07:29:44.998Z</time></trkpt><trkpt lat="44.37638529385321" lon="7.909638329362518"><ele>442.99999999999994</ele><time>2026-05-03T07:29:45.998Z</time></trkpt><trkpt lat="44.37633415333309" lon="7.909517199197682"><ele>442.99999999999994</ele><time>2026-05-03T07:29:46.998Z</time></trkpt><trkpt lat="44.37628749285594" lon="7.9094169286609555"><ele>443.0</ele><time>2026-05-03T07:29:47.998Z</time></trkpt><trkpt lat="44.37624643887363" lon="7.9093188315333"><ele>443.0</ele><time>2026-05-03T07:29:48.998Z</time></trkpt><trkpt lat="44.37619906813672" lon="7.909210389356676"><ele>442.99999999999994</ele><time>2026-05-03T07:29:49.998Z</time></trkpt><trkpt lat="44.37615736404814" lon="7.909109275804735"><ele>443.0</ele><time>2026-05-03T07:29:50.998Z</time></trkpt><trkpt lat="44.37611550009819" lon="7.909019657147347"><ele>443.0</ele><time>2026-05-03T07:29:51.998Z</time></trkpt><trkpt lat="44.37608219275119" lon="7.908937853565825"><ele>443.0</ele><time>2026-05-03T07:29:52.998Z</time></trkpt><trkpt lat="44.37605844807757" lon="7.908841484870256"><ele>442.99999999999994</ele><time>2026-05-03T07:29:53.998Z</time></trkpt><trkpt lat="44.37605097896455" lon="7.908729263775733"><ele>443.0</ele><time>2026-05-03T07:29:54.998Z</time></trkpt><trkpt lat="44.37605569779043" lon="7.908601243064453"><ele>443.0</ele><time>2026-05-03T07:29:55.998Z</time></trkpt><trkpt lat="44.376056407702556" lon="7.908432709979116"><ele>442.99999999999994</ele><time>2026-05-03T07:29:56.998Z</time></trkpt><trkpt lat="44.37605407273794" lon="7.9083037342150035"><ele>442.99999999999994</ele><time>2026-05-03T07:29:57.998Z</time></trkpt><trkpt lat="44.37605259632943" lon="7.908168184271259"><ele>443.0</ele><time>2026-05-03T07:29:58.998Z</time></trkpt><trkpt lat="44.37605138865494" lon="7.908057307321729"><ele>443.0</ele><time>2026-05-03T07:29:59.998Z</time></trkpt><trkpt lat="44.37605017150505" lon="7.907921939345618"><ele>444.2</ele><time>2026-05-03T07:30:01Z</time></trkpt><trkpt lat="44.376049590347016" lon="7.907790261264667"><ele>445.4</ele><time>2026-05-03T07:30:02Z</time></trkpt><trkpt lat="44.37604906498896" lon="7.907671226401667"><ele>446.59999999999997</ele><time>2026-05-03T07:30:03Z</time></trkpt><trkpt lat="44.376048556860106" lon="7.907556095011819"><ele>447.79999999999995</ele><time>2026-05-03T07:30:04Z</time></trkpt><trkpt lat="44.376046276344425" lon="7.907428720414328"><ele>449.0</ele><time>2026-05-03T07:30:05Z</time></trkpt><trkpt lat="44.37604313673329" lon="7.907280740087738"><ele>449.0</ele><time>2026-05-03T07:30:06Z</time></trkpt><trkpt lat="44.37602528840898" lon="7.907142903403865"><ele>449.0</ele><time>2026-05-03T07:30:07Z</time></trkpt><trkpt lat="44.376040199955234" lon="7.9070206947164605"><ele>449.0</ele><time>2026-05-03T07:30:08Z</time></trkpt><trkpt lat="44.37603320782007" lon="7.906905919251683"><ele>449.0</ele><time>2026-05-03T07:30:09Z</time></trkpt><trkpt lat="44.37601779082497" lon="7.9067829368178915"><ele>449.0</ele><time>2026-05-03T07:30:10Z</time></trkpt><trkpt lat="44.37597777351312" lon="7.9066648769742836"><ele>449.4</ele><time>2026-05-03T07:30:11Z</time></trkpt><trkpt lat="44.375922466496775" lon="7.906560777528414"><ele>449.79999999999995</ele><time>2026-05-03T07:30:12Z</time></trkpt><trkpt lat="44.37583920226465" lon="7.906473737720311"><ele>450.20000000000005</ele><time>2026-05-03T07:30:13Z</time></trkpt><trkpt lat="44.37572466567266" lon="7.906388737947046"><ele>450.6</ele><time>2026-05-03T07:30:14Z</time></trkpt><trkpt lat="44.375632652941384" lon="7.906310525815955"><ele>451.0</ele><time>2026-05-03T07:30:15Z</time></trkpt><trkpt lat="44.375549593906825" lon="7.906257984862465"><ele>450.83333333333337</ele><time>2026-05-03T07:30:16Z</time></trkpt><trkpt lat="44.37547480797544" lon="7.9062136089410044"><ele>450.6666666666667</ele><time>2026-05-03T07:30:17Z</time></trkpt><trkpt lat="44.37540603058002" lon="7.906160606865694"><ele>450.5</ele><time>2026-05-03T07:30:18Z</time></trkpt><trkpt lat="44.375334835291156" lon="7.90610407284915"><ele>450.33333333333337</ele><time>2026-05-03T07:30:19Z</time></trkpt><trkpt lat="44.37525544578809" lon="7.906059009221074"><ele>450.1666666666667</ele><time>2026-05-03T07:30:20Z</time></trkpt><trkpt lat="44.37516336071671" lon="7.906012595601668"><ele>450.0</ele><time>2026-05-03T07:30:21Z</time></trkpt><trkpt lat="44.37507591702288" lon="7.905949943252028"><ele>449.4</ele><time>2026-05-03T07:30:22Z</time></trkpt><trkpt lat="44.37497645134328" lon="7.905880599783232"><ele>448.8</ele><time>2026-05-03T07:30:23Z</time></trkpt><trkpt lat="44.37487489268203" lon="7.9058125998752695"><ele>448.20000000000005</ele><time>2026-05-03T07:30:24Z</time></trkpt><trkpt lat="44.37479242963083" lon="7.905753642242721"><ele>447.6</ele><time>2026-05-03T07:30:25Z</time></trkpt><trkpt lat="44.37471343327099" lon="7.9056936382734095"><ele>447.0</ele><time>2026-05-03T07:30:26Z</time></trkpt><trkpt lat="44.37463787529535" lon="7.9056366247082295"><ele>447.0</ele><time>2026-05-03T07:30:27Z</time></trkpt><trkpt lat="44.37455357536229" lon="7.905573031766018"><ele>447.00000000000006</ele><time>2026-05-03T07:30:28Z</time></trkpt><trkpt lat="44.3744687289251" lon="7.905491975836698"><ele>447.00000000000006</ele><time>2026-05-03T07:30:29Z</time></trkpt><trkpt lat="44.37437902495702" lon="7.905394327754152"><ele>447.0</ele><time>2026-05-03T07:30:30Z</time></trkpt><trkpt lat="44.37431426961752" lon="7.905291948069566"><ele>447.0</ele><time>2026-05-03T07:30:31Z</time></trkpt><trkpt lat="44.374246195819666" lon="7.90519359205204"><ele>448.20000000000005</ele><time>2026-05-03T07:30:32Z</time></trkpt><trkpt lat="44.374186761349186" lon="7.905077061514735"><ele>449.40000000000003</ele><time>2026-05-03T07:30:33Z</time></trkpt><trkpt lat="44.37413426091358" lon="7.904954656517967"><ele>450.59999999999997</ele><time>2026-05-03T07:30:34Z</time></trkpt><trkpt lat="44.37408513698882" lon="7.9048290742078136"><ele>451.79999999999995</ele><time>2026-05-03T07:30:35Z</time></trkpt><trkpt lat="44.37403784636501" lon="7.9047126623734885"><ele>453.0</ele><time>2026-05-03T07:30:36Z</time></trkpt><trkpt lat="44.374006955611975" lon="7.904589367258174"><ele>453.0</ele><time>2026-05-03T07:30:37Z</time></trkpt><trkpt lat="44.37396848728067" lon="7.90446037748988"><ele>452.99999999999994</ele><time>2026-05-03T07:30:38Z</time></trkpt><trkpt lat="44.37392853820818" lon="7.904326210355326"><ele>452.99999999999994</ele><time>2026-05-03T07:30:39Z</time></trkpt><trkpt lat="44.373889400206124" lon="7.904191955610184"><ele>453.0</ele><time>2026-05-03T07:30:40Z</time></trkpt><trkpt lat="44.37385224292902" lon="7.904064495405549"><ele>453.0</ele><time>2026-05-03T07:30:41Z</time></trkpt><trkpt lat="44.373814755797596" lon="7.903934648012766"><ele>452.59999999999997</ele><time>2026-05-03T07:30:42Z</time></trkpt><trkpt lat="44.373776110205625" lon="7.903796244534495"><ele>452.19999999999993</ele><time>2026-05-03T07:30:43Z</time></trkpt><trkpt lat="44.37374067451624" lon="7.903669340922077"><ele>451.8</ele><time>2026-05-03T07:30:43.999Z</time></trkpt><trkpt lat="44.37370876678735" lon="7.903547693578855"><ele>451.4</ele><time>2026-05-03T07:30:44.999Z</time></trkpt><trkpt lat="44.37367210975517" lon="7.903411123142312"><ele>451.0</ele><time>2026-05-03T07:30:45.999Z</time></trkpt><trkpt lat="44.373634373936746" lon="7.903275461169862"><ele>451.00000000000006</ele><time>2026-05-03T07:30:46.999Z</time></trkpt><trkpt lat="44.37360130053635" lon="7.9031566135067175"><ele>451.0</ele><time>2026-05-03T07:30:47.999Z</time></trkpt><trkpt lat="44.37356830490208" lon="7.903038044821457"><ele>451.0</ele><time>2026-05-03T07:30:48.999Z</time></trkpt><trkpt lat="44.373537026643326" lon="7.902925649223252"><ele>451.0</ele><time>2026-05-03T07:30:49.999Z</time></trkpt><trkpt lat="44.37350942393235" lon="7.902824732539461"><ele>451.00000000000006</ele><time>2026-05-03T07:30:50.999Z</time></trkpt><trkpt lat="44.373483886840376" lon="7.902722738390779"><ele>451.0</ele><time>2026-05-03T07:30:51.999Z</time></trkpt><trkpt lat="44.373465074022185" lon="7.902634886425714"><ele>451.8</ele><time>2026-05-03T07:30:52.999Z</time></trkpt><trkpt lat="44.37343157152889" lon="7.902454497200241"><ele>452.6</ele><time>2026-05-03T07:30:54.999Z</time></trkpt><trkpt lat="44.37330817212533" lon="7.9023728867296334"><ele>453.4</ele><time>2026-05-03T07:30:55.999Z</time></trkpt><trkpt lat="44.37325404735496" lon="7.902283369975283"><ele>454.2</ele><time>2026-05-03T07:30:56.999Z</time></trkpt><trkpt lat="44.37320243637849" lon="7.90219367321735"><ele>455.0</ele><time>2026-05-03T07:30:57.999Z</time></trkpt><trkpt lat="44.37315256134582" lon="7.902106980101878"><ele>454.99999999999994</ele><time>2026-05-03T07:30:58.999Z</time></trkpt><trkpt lat="44.373105259670304" lon="7.902024760040896"><ele>455.0</ele><time>2026-05-03T07:30:59.999Z</time></trkpt><trkpt lat="44.373056537775696" lon="7.901942382198264"><ele>455.0</ele><time>2026-05-03T07:31:00.999Z</time></trkpt><trkpt lat="44.37297536624912" lon="7.90178957846977"><ele>455.0</ele><time>2026-05-03T07:31:02.999Z</time></trkpt><trkpt lat="44.372942599024036" lon="7.901689356705746"><ele>454.99999999999994</ele><time>2026-05-03T07:31:03.999Z</time></trkpt><trkpt lat="44.37291341541338" lon="7.901591285277177"><ele>455.0</ele><time>2026-05-03T07:31:04.999Z</time></trkpt><trkpt lat="44.37285505026864" lon="7.901474812213752"><ele>453.49999999999994</ele><time>2026-05-03T07:31:06.999Z</time></trkpt><trkpt lat="44.372749119300714" lon="7.90146416417845"><ele>452.0</ele><time>2026-05-03T07:31:08.999Z</time></trkpt><trkpt lat="44.37268729802712" lon="7.901513600506237"><ele>450.5</ele><time>2026-05-03T07:31:09.999Z</time></trkpt><trkpt lat="44.372612932362784" lon="7.901557868701536"><ele>449.0</ele><time>2026-05-03T07:31:10.999Z</time></trkpt><trkpt lat="44.37252396650382" lon="7.901569732462671"><ele>447.49999999999994</ele><time>2026-05-03T07:31:11.999Z</time></trkpt><trkpt lat="44.37243186666835" lon="7.901560971473798"><ele>446.0</ele><time>2026-05-03T07:31:12.999Z</time></trkpt><trkpt lat="44.372330032279244" lon="7.9015474542443185"><ele>446.0</ele><time>2026-05-03T07:31:13.999Z</time></trkpt><trkpt lat="44.37221898781489" lon="7.901550830123975"><ele>446.0</ele><time>2026-05-03T07:31:14.999Z</time></trkpt><trkpt lat="44.3720966680332" lon="7.901555563103165"><ele>446.0</ele><time>2026-05-03T07:31:15.999Z</time></trkpt><trkpt lat="44.37198617099613" lon="7.901555880989697"><ele>446.0</ele><time>2026-05-03T07:31:16.999Z</time></trkpt><trkpt lat="44.37188518821039" lon="7.901553372979367"><ele>446.0</ele><time>2026-05-03T07:31:17.999Z</time></trkpt><trkpt lat="44.371785828865164" lon="7.901551182746371"><ele>446.8</ele><time>2026-05-03T07:31:18.999Z</time></trkpt><trkpt lat="44.37167529158843" lon="7.901548002774342"><ele>447.6</ele><time>2026-05-03T07:31:19.999Z</time></trkpt><trkpt lat="44.37156609340453" lon="7.90153976475919"><ele>448.4</ele><time>2026-05-03T07:31:20.999Z</time></trkpt><trkpt lat="44.37146611346935" lon="7.901533211419433"><ele>449.2</ele><time>2026-05-03T07:31:21.999Z</time></trkpt><trkpt lat="44.3713704713039" lon="7.901520692672716"><ele>450.0</ele><time>2026-05-03T07:31:22.999Z</time></trkpt><trkpt lat="44.37128202499957" lon="7.901498515493311"><ele>450.4</ele><time>2026-05-03T07:31:23.999Z</time></trkpt><trkpt lat="44.371187013084025" lon="7.901455714969429"><ele>450.8</ele><time>2026-05-03T07:31:24.999Z</time></trkpt><trkpt lat="44.37109504491207" lon="7.901353580245308"><ele>451.20000000000005</ele><time>2026-05-03T07:31:25.999Z</time></trkpt><trkpt lat="44.371005568885685" lon="7.9012927859356346"><ele>451.6</ele><time>2026-05-03T07:31:26.999Z</time></trkpt><trkpt lat="44.370897884035365" lon="7.901263967286929"><ele>452.0</ele><time>2026-05-03T07:31:27.999Z</time></trkpt><trkpt lat="44.370774789089616" lon="7.901222897715892"><ele>452.0</ele><time>2026-05-03T07:31:28.999Z</time></trkpt><trkpt lat="44.370648215434436" lon="7.901201664404978"><ele>452.0</ele><time>2026-05-03T07:31:29.999Z</time></trkpt><trkpt lat="44.370536544180254" lon="7.9011924254299375"><ele>452.0</ele><time>2026-05-03T07:31:30.999Z</time></trkpt><trkpt lat="44.370426559106704" lon="7.901206251072663"><ele>452.0</ele><time>2026-05-03T07:31:31.999Z</time></trkpt><trkpt lat="44.3703135462917" lon="7.901216350433737"><ele>452.75</ele><time>2026-05-03T07:31:32.999Z</time></trkpt><trkpt lat="44.37019779893577" lon="7.901225856573817"><ele>453.5</ele><time>2026-05-03T07:31:33.999Z</time></trkpt><trkpt lat="44.37008941336183" lon="7.901234432858156"><ele>454.25</ele><time>2026-05-03T07:31:34.999Z</time></trkpt><trkpt lat="44.36997788146515" lon="7.901248630194761"><ele>455.0</ele><time>2026-05-03T07:31:35.999Z</time></trkpt><trkpt lat="44.36986355758729" lon="7.901257000533237"><ele>455.0</ele><time>2026-05-03T07:31:36.999Z</time></trkpt><trkpt lat="44.36975129647347" lon="7.9012702880790995"><ele>455.0</ele><time>2026-05-03T07:31:37.999Z</time></trkpt><trkpt lat="44.369645385400304" lon="7.901280380657532"><ele>455.0</ele><time>2026-05-03T07:31:38.999Z</time></trkpt><trkpt lat="44.369541362852246" lon="7.901286885165877"><ele>455.0</ele><time>2026-05-03T07:31:39.998Z</time></trkpt><trkpt lat="44.36943053506041" lon="7.901298294026877"><ele>455.0</ele><time>2026-05-03T07:31:40.998Z</time></trkpt><trkpt lat="44.369325454787514" lon="7.901276171894183"><ele>455.0</ele><time>2026-05-03T07:31:41.998Z</time></trkpt><trkpt lat="44.36921796310307" lon="7.901274092065844"><ele>455.0</ele><time>2026-05-03T07:31:42.998Z</time></trkpt><trkpt lat="44.36910472623949" lon="7.901293051530787"><ele>455.0</ele><time>2026-05-03T07:31:43.998Z</time></trkpt><trkpt lat="44.36899476337883" lon="7.901262740578979"><ele>455.0</ele><time>2026-05-03T07:31:44.998Z</time></trkpt><trkpt lat="44.368882313358256" lon="7.901274535903705"><ele>455.0</ele><time>2026-05-03T07:31:45.998Z</time></trkpt><trkpt lat="44.3687712820587" lon="7.901259650375912"><ele>455.0</ele><time>2026-05-03T07:31:46.998Z</time></trkpt><trkpt lat="44.36865666384371" lon="7.90124834614434"><ele>455.0</ele><time>2026-05-03T07:31:47.998Z</time></trkpt><trkpt lat="44.36854309310042" lon="7.901242679726834"><ele>455.0</ele><time>2026-05-03T07:31:48.998Z</time></trkpt><trkpt lat="44.36843122657793" lon="7.9012317310909275"><ele>455.0</ele><time>2026-05-03T07:31:49.998Z</time></trkpt><trkpt lat="44.36831778342677" lon="7.901211303404712"><ele>455.0</ele><time>2026-05-03T07:31:50.998Z</time></trkpt><trkpt lat="44.36820846222047" lon="7.901190322701342"><ele>455.0</ele><time>2026-05-03T07:31:51.998Z</time></trkpt><trkpt lat="44.3680919253238" lon="7.901178001861656"><ele>455.0</ele><time>2026-05-03T07:31:52.998Z</time></trkpt><trkpt lat="44.367983125959206" lon="7.901150666555592"><ele>455.0</ele><time>2026-05-03T07:31:53.998Z</time></trkpt><trkpt lat="44.3678700967393" lon="7.90113441076339"><ele>455.8</ele><time>2026-05-03T07:31:54.998Z</time></trkpt><trkpt lat="44.36775475617279" lon="7.901118975372618"><ele>456.6</ele><time>2026-05-03T07:31:55.998Z</time></trkpt><trkpt lat="44.367635569380575" lon="7.901109574597497"><ele>457.4</ele><time>2026-05-03T07:31:56.998Z</time></trkpt><trkpt lat="44.36752956515127" lon="7.901102057368576"><ele>458.2</ele><time>2026-05-03T07:31:57.998Z</time></trkpt><trkpt lat="44.36743223756256" lon="7.901097272687515"><ele>459.0</ele><time>2026-05-03T07:31:58.998Z</time></trkpt><trkpt lat="44.367338235728674" lon="7.901088854221794"><ele>459.0</ele><time>2026-05-03T07:31:59.998Z</time></trkpt><trkpt lat="44.36723976190048" lon="7.9010807109090955"><ele>459.0</ele><time>2026-05-03T07:32:00.998Z</time></trkpt><trkpt lat="44.36713972800645" lon="7.901092253158127"><ele>459.0</ele><time>2026-05-03T07:32:01.998Z</time></trkpt><trkpt lat="44.367033659290826" lon="7.901115533871372"><ele>459.0</ele><time>2026-05-03T07:32:02.998Z</time></trkpt><trkpt lat="44.36692621346719" lon="7.901151121508568"><ele>459.0</ele><time>2026-05-03T07:32:03.998Z</time></trkpt><trkpt lat="44.36681961907848" lon="7.9011892245184425"><ele>459.0</ele><time>2026-05-03T07:32:04.998Z</time></trkpt><trkpt lat="44.366708655057536" lon="7.901231561575173"><ele>459.0</ele><time>2026-05-03T07:32:05.998Z</time></trkpt><trkpt lat="44.36659192894195" lon="7.901281030472527"><ele>459.0</ele><time>2026-05-03T07:32:07Z</time></trkpt><trkpt lat="44.36647583329193" lon="7.901326549017705"><ele>459.0</ele><time>2026-05-03T07:32:08Z</time></trkpt><trkpt lat="44.36635830895195" lon="7.901370909988297"><ele>459.0</ele><time>2026-05-03T07:32:09Z</time></trkpt><trkpt lat="44.36624441737296" lon="7.901413699298711"><ele>459.0</ele><time>2026-05-03T07:32:10Z</time></trkpt><trkpt lat="44.36613048267298" lon="7.901466093807933"><ele>459.0</ele><time>2026-05-03T07:32:11Z</time></trkpt><trkpt lat="44.36601147619967" lon="7.901521377284708"><ele>459.0</ele><time>2026-05-03T07:32:12Z</time></trkpt><trkpt lat="44.36589670328661" lon="7.901568029157033"><ele>459.0</ele><time>2026-05-03T07:32:13Z</time></trkpt><trkpt lat="44.36577777921759" lon="7.901618877632821"><ele>459.0</ele><time>2026-05-03T07:32:14Z</time></trkpt><trkpt lat="44.36566461314971" lon="7.901660907930269"><ele>459.0</ele><time>2026-05-03T07:32:15Z</time></trkpt><trkpt lat="44.365554669773196" lon="7.901697174874729"><ele>459.0</ele><time>2026-05-03T07:32:16Z</time></trkpt><trkpt lat="44.36544187031206" lon="7.901735334093475"><ele>457.0</ele><time>2026-05-03T07:32:17Z</time></trkpt><trkpt lat="44.36532665593898" lon="7.90176169748466"><ele>455.0</ele><time>2026-05-03T07:32:18Z</time></trkpt><trkpt lat="44.365209202004785" lon="7.901794981533396"><ele>453.0</ele><time>2026-05-03T07:32:19Z</time></trkpt><trkpt lat="44.36509832717855" lon="7.901803860625975"><ele>451.0</ele><time>2026-05-03T07:32:20Z</time></trkpt><trkpt lat="44.36497947507945" lon="7.901805360314283"><ele>451.0</ele><time>2026-05-03T07:32:21Z</time></trkpt><trkpt lat="44.36486930625748" lon="7.901799750418362"><ele>451.0</ele><time>2026-05-03T07:32:22Z</time></trkpt><trkpt lat="44.36475633482164" lon="7.901792077020633"><ele>451.0</ele><time>2026-05-03T07:32:23Z</time></trkpt><trkpt lat="44.36463854043144" lon="7.901793571499255"><ele>451.0</ele><time>2026-05-03T07:32:24Z</time></trkpt><trkpt lat="44.36452214085215" lon="7.90178412380125"><ele>451.25</ele><time>2026-05-03T07:32:25Z</time></trkpt><trkpt lat="44.364402918040646" lon="7.901780633016733"><ele>451.5</ele><time>2026-05-03T07:32:26Z</time></trkpt><trkpt lat="44.364282464360954" lon="7.9017758839390595"><ele>451.75</ele><time>2026-05-03T07:32:27Z</time></trkpt><trkpt lat="44.364164734482436" lon="7.901776084806907"><ele>452.0</ele><time>2026-05-03T07:32:28Z</time></trkpt><trkpt lat="44.36404541048016" lon="7.901782269013429"><ele>452.0</ele><time>2026-05-03T07:32:29Z</time></trkpt><trkpt lat="44.36393106361893" lon="7.9017726377260615"><ele>452.0</ele><time>2026-05-03T07:32:30Z</time></trkpt><trkpt lat="44.363813424724896" lon="7.901778238637728"><ele>452.0</ele><time>2026-05-03T07:32:31Z</time></trkpt><trkpt lat="44.363698147700674" lon="7.901770446648845"><ele>452.0</ele><time>2026-05-03T07:32:32Z</time></trkpt><trkpt lat="44.36358431455392" lon="7.901764924800357"><ele>452.20000000000005</ele><time>2026-05-03T07:32:33Z</time></trkpt><trkpt lat="44.363472474577875" lon="7.901758791406488"><ele>452.40000000000003</ele><time>2026-05-03T07:32:34Z</time></trkpt><trkpt lat="44.36336419578321" lon="7.901755685271503"><ele>452.59999999999997</ele><time>2026-05-03T07:32:35Z</time></trkpt><trkpt lat="44.36325170742956" lon="7.901759300892888"><ele>452.79999999999995</ele><time>2026-05-03T07:32:36Z</time></trkpt><trkpt lat="44.363138879196605" lon="7.901754714958752"><ele>453.0</ele><time>2026-05-03T07:32:37Z</time></trkpt><trkpt lat="44.36302186722171" lon="7.901752578090986"><ele>453.25</ele><time>2026-05-03T07:32:38Z</time></trkpt><trkpt lat="44.36290536329625" lon="7.901746955881513"><ele>453.5</ele><time>2026-05-03T07:32:39Z</time></trkpt><trkpt lat="44.362788234548944" lon="7.901743796479673"><ele>453.75</ele><time>2026-05-03T07:32:40Z</time></trkpt><trkpt lat="44.362667172514165" lon="7.901735782921498"><ele>454.0</ele><time>2026-05-03T07:32:41Z</time></trkpt><trkpt lat="44.362547276715496" lon="7.90172756173418"><ele>454.0</ele><time>2026-05-03T07:32:42Z</time></trkpt><trkpt lat="44.362422130882294" lon="7.9017153567006515"><ele>454.0</ele><time>2026-05-03T07:32:43Z</time></trkpt><trkpt lat="44.36229428976499" lon="7.901710672199408"><ele>454.0</ele><time>2026-05-03T07:32:44Z</time></trkpt><trkpt lat="44.36217089759652" lon="7.901708520876045"><ele>454.0</ele><time>2026-05-03T07:32:45Z</time></trkpt><trkpt lat="44.362042065931554" lon="7.901713744323416"><ele>452.75</ele><time>2026-05-03T07:32:46Z</time></trkpt><trkpt lat="44.36191843294657" lon="7.901706404205397"><ele>451.5</ele><time>2026-05-03T07:32:47Z</time></trkpt><trkpt lat="44.36180382391611" lon="7.90170106718304"><ele>450.25</ele><time>2026-05-03T07:32:48Z</time></trkpt><trkpt lat="44.361688064925914" lon="7.90169496246341"><ele>449.0</ele><time>2026-05-03T07:32:48.999Z</time></trkpt><trkpt lat="44.361568482376676" lon="7.901690088356089"><ele>449.0</ele><time>2026-05-03T07:32:49.999Z</time></trkpt><trkpt lat="44.36145002661352" lon="7.901679378129456"><ele>449.0</ele><time>2026-05-03T07:32:50.999Z</time></trkpt><trkpt lat="44.36133136180719" lon="7.901674343318349"><ele>449.0</ele><time>2026-05-03T07:32:51.999Z</time></trkpt><trkpt lat="44.36121185499782" lon="7.9016675823868745"><ele>449.0</ele><time>2026-05-03T07:32:52.999Z</time></trkpt><trkpt lat="44.36108857591305" lon="7.901667098028571"><ele>449.25</ele><time>2026-05-03T07:32:53.999Z</time></trkpt><trkpt lat="44.36096997944278" lon="7.901659366074751"><ele>449.5</ele><time>2026-05-03T07:32:54.999Z</time></trkpt><trkpt lat="44.360849342132354" lon="7.9016589585629315"><ele>449.75</ele><time>2026-05-03T07:32:55.999Z</time></trkpt><trkpt lat="44.360728973657444" lon="7.901660562347769"><ele>450.0</ele><time>2026-05-03T07:32:56.999Z</time></trkpt><trkpt lat="44.36061165327513" lon="7.901658969426568"><ele>450.0</ele><time>2026-05-03T07:32:57.999Z</time></trkpt><trkpt lat="44.36049533535328" lon="7.901659765419276"><ele>450.0</ele><time>2026-05-03T07:32:58.999Z</time></trkpt><trkpt lat="44.36037735617807" lon="7.901660979776926"><ele>450.0</ele><time>2026-05-03T07:32:59.999Z</time></trkpt><trkpt lat="44.360257139199426" lon="7.901657687285683"><ele>450.0</ele><time>2026-05-03T07:33:00.999Z</time></trkpt><trkpt lat="44.36013883999008" lon="7.901654728637053"><ele>450.0</ele><time>2026-05-03T07:33:01.999Z</time></trkpt><trkpt lat="44.360013935243856" lon="7.901646537060911"><ele>450.0</ele><time>2026-05-03T07:33:02.999Z</time></trkpt><trkpt lat="44.35989924584463" lon="7.901638640809302"><ele>450.0</ele><time>2026-05-03T07:33:03.999Z</time></trkpt><trkpt lat="44.359783199625504" lon="7.901634679929512"><ele>450.0</ele><time>2026-05-03T07:33:04.999Z</time></trkpt><trkpt lat="44.35966611532283" lon="7.901634930357846"><ele>449.75</ele><time>2026-05-03T07:33:05.999Z</time></trkpt><trkpt lat="44.35954426956147" lon="7.90163907960149"><ele>449.5</ele><time>2026-05-03T07:33:06.999Z</time></trkpt><trkpt lat="44.35942480427104" lon="7.90163377388779"><ele>449.25</ele><time>2026-05-03T07:33:07.999Z</time></trkpt><trkpt lat="44.35931253344748" lon="7.90162996530836"><ele>449.0</ele><time>2026-05-03T07:33:08.999Z</time></trkpt><trkpt lat="44.359210710914766" lon="7.901619298911995"><ele>449.0</ele><time>2026-05-03T07:33:09.999Z</time></trkpt><trkpt lat="44.35911062613449" lon="7.901607672956135"><ele>449.0</ele><time>2026-05-03T07:33:10.999Z</time></trkpt><trkpt lat="44.359002728401116" lon="7.901584627491688"><ele>449.0</ele><time>2026-05-03T07:33:11.999Z</time></trkpt><trkpt lat="44.35889402395101" lon="7.901542848228246"><ele>449.0</ele><time>2026-05-03T07:33:12.999Z</time></trkpt><trkpt lat="44.3587900969983" lon="7.901489413769609"><ele>449.0</ele><time>2026-05-03T07:33:13.999Z</time></trkpt><trkpt lat="44.35868119557204" lon="7.901432893229735"><ele>448.5</ele><time>2026-05-03T07:33:14.999Z</time></trkpt><trkpt lat="44.35857165135516" lon="7.901361529821199"><ele>448.0</ele><time>2026-05-03T07:33:15.999Z</time></trkpt><trkpt lat="44.35847068578091" lon="7.901279675940383"><ele>447.5</ele><time>2026-05-03T07:33:16.999Z</time></trkpt><trkpt lat="44.35836957882899" lon="7.901191882938476"><ele>447.0</ele><time>2026-05-03T07:33:17.999Z</time></trkpt><trkpt lat="44.3582681334742" lon="7.901105905516642"><ele>447.0</ele><time>2026-05-03T07:33:18.999Z</time></trkpt><trkpt lat="44.35816254283403" lon="7.901023419661263"><ele>447.0</ele><time>2026-05-03T07:33:19.999Z</time></trkpt><trkpt lat="44.35806116734143" lon="7.900935408028066"><ele>447.0</ele><time>2026-05-03T07:33:20.999Z</time></trkpt><trkpt lat="44.35796204227402" lon="7.900846530792923"><ele>447.0</ele><time>2026-05-03T07:33:21.999Z</time></trkpt><trkpt lat="44.35785607310549" lon="7.90074246851447"><ele>448.25</ele><time>2026-05-03T07:33:22.999Z</time></trkpt><trkpt lat="44.35775302214583" lon="7.90065428854999"><ele>449.5</ele><time>2026-05-03T07:33:23.999Z</time></trkpt><trkpt lat="44.35764259240226" lon="7.9005609326504755"><ele>450.75</ele><time>2026-05-03T07:33:24.999Z</time></trkpt><trkpt lat="44.357536492026135" lon="7.900469932011111"><ele>452.0</ele><time>2026-05-03T07:33:25.999Z</time></trkpt><trkpt lat="44.3574303375012" lon="7.900379592404149"><ele>452.0</ele><time>2026-05-03T07:33:26.999Z</time></trkpt><trkpt lat="44.357326347907055" lon="7.900298667613805"><ele>452.0</ele><time>2026-05-03T07:33:27.999Z</time></trkpt><trkpt lat="44.357226228770855" lon="7.900222678672956"><ele>452.0</ele><time>2026-05-03T07:33:28.999Z</time></trkpt><trkpt lat="44.35712199217676" lon="7.900143631882137"><ele>452.0</ele><time>2026-05-03T07:33:29.999Z</time></trkpt><trkpt lat="44.357015600685756" lon="7.900073080867805"><ele>452.5</ele><time>2026-05-03T07:33:30.999Z</time></trkpt><trkpt lat="44.35690220439272" lon="7.90001723664406"><ele>453.0</ele><time>2026-05-03T07:33:31.999Z</time></trkpt><trkpt lat="44.356783217013486" lon="7.899961388746623"><ele>453.5</ele><time>2026-05-03T07:33:32.999Z</time></trkpt><trkpt lat="44.35666449992012" lon="7.8999096898837164"><ele>454.0</ele><time>2026-05-03T07:33:33.999Z</time></trkpt><trkpt lat="44.35654904292814" lon="7.899862005310257"><ele>454.0</ele><time>2026-05-03T07:33:34.999Z</time></trkpt><trkpt lat="44.356440335257304" lon="7.8998214133985085"><ele>454.0</ele><time>2026-05-03T07:33:35.999Z</time></trkpt><trkpt lat="44.35632898325806" lon="7.899776103672427"><ele>454.0</ele><time>2026-05-03T07:33:36.999Z</time></trkpt><trkpt lat="44.35622284534466" lon="7.899729988751224"><ele>454.0</ele><time>2026-05-03T07:33:37.999Z</time></trkpt><trkpt lat="44.356112054737615" lon="7.899682119561208"><ele>454.0</ele><time>2026-05-03T07:33:38.999Z</time></trkpt><trkpt lat="44.355996758707484" lon="7.899640950887417"><ele>454.0</ele><time>2026-05-03T07:33:39.999Z</time></trkpt><trkpt lat="44.355880539081355" lon="7.899598858558612"><ele>454.0</ele><time>2026-05-03T07:33:40.999Z</time></trkpt><trkpt lat="44.355764100542615" lon="7.899560088895066"><ele>454.0</ele><time>2026-05-03T07:33:41.999Z</time></trkpt><trkpt lat="44.35565701209603" lon="7.899521285108825"><ele>454.0</ele><time>2026-05-03T07:33:42.999Z</time></trkpt><trkpt lat="44.35555271365464" lon="7.899478919022659"><ele>454.0</ele><time>2026-05-03T07:33:43.999Z</time></trkpt><trkpt lat="44.355450532288536" lon="7.899443242427561"><ele>454.0</ele><time>2026-05-03T07:33:44.999Z</time></trkpt><trkpt lat="44.35535518200663" lon="7.899412221563148"><ele>454.0</ele><time>2026-05-03T07:33:45.998Z</time></trkpt><trkpt lat="44.3552801592909" lon="7.8993606804540795"><ele>454.0</ele><time>2026-05-03T07:33:46.998Z</time></trkpt><trkpt lat="44.35519847270832" lon="7.899358085739094"><ele>454.50000000000006</ele><time>2026-05-03T07:33:47.998Z</time></trkpt><trkpt lat="44.35512983656541" lon="7.899382298078147"><ele>455.0</ele><time>2026-05-03T07:33:48.998Z</time></trkpt><trkpt lat="44.355060581332836" lon="7.8994374075402405"><ele>455.5</ele><time>2026-05-03T07:33:49.998Z</time></trkpt><trkpt lat="44.35499691758353" lon="7.899521517716712"><ele>456.0</ele><time>2026-05-03T07:33:50.998Z</time></trkpt><trkpt lat="44.35494375686606" lon="7.8996252030376075"><ele>456.50000000000006</ele><time>2026-05-03T07:33:51.998Z</time></trkpt><trkpt lat="44.35489341101427" lon="7.899729301001227"><ele>457.0</ele><time>2026-05-03T07:33:52.998Z</time></trkpt><trkpt lat="44.354844815816" lon="7.899819612783428"><ele>457.00000000000006</ele><time>2026-05-03T07:33:53.998Z</time></trkpt><trkpt lat="44.35479269819525" lon="7.899897705272034"><ele>457.0</ele><time>2026-05-03T07:33:54.998Z</time></trkpt><trkpt lat="44.3547269838875" lon="7.899949337093302"><ele>457.0</ele><time>2026-05-03T07:33:55.998Z</time></trkpt><trkpt lat="44.35464376794129" lon="7.899982153970724"><ele>457.0</ele><time>2026-05-03T07:33:56.998Z</time></trkpt><trkpt lat="44.35455941775911" lon="7.899987997777597"><ele>457.00000000000006</ele><time>2026-05-03T07:33:57.998Z</time></trkpt><trkpt lat="44.354470263785586" lon="7.899972913653209"><ele>457.0</ele><time>2026-05-03T07:33:58.998Z</time></trkpt><trkpt lat="44.354367554798635" lon="7.899972273599701"><ele>457.6</ele><time>2026-05-03T07:33:59.998Z</time></trkpt><trkpt lat="44.35426061743921" lon="7.899971844435068"><ele>458.20000000000005</ele><time>2026-05-03T07:34:00.998Z</time></trkpt><trkpt lat="44.35415282594558" lon="7.899963168185547"><ele>458.8</ele><time>2026-05-03T07:34:01.998Z</time></trkpt><trkpt lat="44.35404678494772" lon="7.899944212564088"><ele>459.4</ele><time>2026-05-03T07:34:02.998Z</time></trkpt><trkpt lat="44.35394384702567" lon="7.89993156294671"><ele>460.0</ele><time>2026-05-03T07:34:03.998Z</time></trkpt><trkpt lat="44.3538486220387" lon="7.8999251997567"><ele>460.33333333333337</ele><time>2026-05-03T07:34:04.998Z</time></trkpt><trkpt lat="44.35376036804692" lon="7.89991776204984"><ele>460.6666666666667</ele><time>2026-05-03T07:34:05.998Z</time></trkpt><trkpt lat="44.35367888379217" lon="7.899910941823784"><ele>461.0</ele><time>2026-05-03T07:34:06.998Z</time></trkpt><trkpt lat="44.35357647835245" lon="7.8999042397548145"><ele>461.33333333333337</ele><time>2026-05-03T07:34:08.998Z</time></trkpt><trkpt lat="44.35350020397972" lon="7.899886854420904"><ele>461.6666666666667</ele><time>2026-05-03T07:34:11.998Z</time></trkpt><trkpt lat="44.353424839206866" lon="7.899869814866279"><ele>462.0</ele><time>2026-05-03T07:34:14Z</time></trkpt><trkpt lat="44.35329487667456" lon="7.899860094152917"><ele>462.0</ele><time>2026-05-03T07:34:16Z</time></trkpt><trkpt lat="44.35320965614412" lon="7.899859911227918"><ele>462.00000000000006</ele><time>2026-05-03T07:34:17Z</time></trkpt><trkpt lat="44.3531129430175" lon="7.899856893061938"><ele>462.00000000000006</ele><time>2026-05-03T07:34:18Z</time></trkpt><trkpt lat="44.35300491848784" lon="7.899851289821015"><ele>462.0</ele><time>2026-05-03T07:34:19Z</time></trkpt><trkpt lat="44.352913914411516" lon="7.8998423737553365"><ele>462.0</ele><time>2026-05-03T07:34:20Z</time></trkpt><trkpt lat="44.35281888765922" lon="7.8998316122175725"><ele>462.6</ele><time>2026-05-03T07:34:21Z</time></trkpt><trkpt lat="44.352713927680064" lon="7.89980634072548"><ele>463.20000000000005</ele><time>2026-05-03T07:34:22Z</time></trkpt><trkpt lat="44.35260934801342" lon="7.899791935611798"><ele>463.8</ele><time>2026-05-03T07:34:23Z</time></trkpt><trkpt lat="44.35251920189494" lon="7.899780218060742"><ele>464.4</ele><time>2026-05-03T07:34:24Z</time></trkpt><trkpt lat="44.35244191727846" lon="7.899772326612918"><ele>465.0</ele><time>2026-05-03T07:34:25Z</time></trkpt><trkpt lat="44.35236543014345" lon="7.899748757622295"><ele>465.0</ele><time>2026-05-03T07:34:26Z</time></trkpt><trkpt lat="44.352287048375224" lon="7.899731567460027"><ele>465.0</ele><time>2026-05-03T07:34:27Z</time></trkpt><trkpt lat="44.352211039317744" lon="7.8997440152703735"><ele>465.0</ele><time>2026-05-03T07:34:28Z</time></trkpt><trkpt lat="44.35212497058239" lon="7.899784801549"><ele>465.0</ele><time>2026-05-03T07:34:29Z</time></trkpt><trkpt lat="44.352040545748515" lon="7.899816171235402"><ele>465.0</ele><time>2026-05-03T07:34:30Z</time></trkpt><trkpt lat="44.35194360047756" lon="7.899842998812782"><ele>465.0</ele><time>2026-05-03T07:34:31Z</time></trkpt><trkpt lat="44.35184027333351" lon="7.899858868341938"><ele>465.75</ele><time>2026-05-03T07:34:32Z</time></trkpt><trkpt lat="44.351725613773134" lon="7.899873997934981"><ele>466.5</ele><time>2026-05-03T07:34:33Z</time></trkpt><trkpt lat="44.35160208051076" lon="7.899880197785993"><ele>467.25</ele><time>2026-05-03T07:34:34Z</time></trkpt><trkpt lat="44.35147047637984" lon="7.899886918688364"><ele>468.0</ele><time>2026-05-03T07:34:35Z</time></trkpt><trkpt lat="44.351357522878665" lon="7.899898598431323"><ele>468.0</ele><time>2026-05-03T07:34:36Z</time></trkpt><trkpt lat="44.351257361363245" lon="7.899904683431986"><ele>467.99999999999994</ele><time>2026-05-03T07:34:37Z</time></trkpt><trkpt lat="44.35115154792083" lon="7.899902682066437"><ele>467.99999999999994</ele><time>2026-05-03T07:34:38Z</time></trkpt><trkpt lat="44.35103786692397" lon="7.899903741341652"><ele>468.0</ele><time>2026-05-03T07:34:39Z</time></trkpt><trkpt lat="44.35092136629077" lon="7.899919060419269"><ele>468.0</ele><time>2026-05-03T07:34:40Z</time></trkpt><trkpt lat="44.350812135646436" lon="7.899931269262397"><ele>468.0</ele><time>2026-05-03T07:34:41Z</time></trkpt><trkpt lat="44.35070332293994" lon="7.899939126384533"><ele>467.99999999999994</ele><time>2026-05-03T07:34:42Z</time></trkpt><trkpt lat="44.35060361183075" lon="7.899956991297416"><ele>467.99999999999994</ele><time>2026-05-03T07:34:43Z</time></trkpt><trkpt lat="44.350495980623705" lon="7.899982868965229"><ele>468.0</ele><time>2026-05-03T07:34:44Z</time></trkpt><trkpt lat="44.35039948637035" lon="7.899992308706546"><ele>468.0</ele><time>2026-05-03T07:34:45Z</time></trkpt><trkpt lat="44.35031093567738" lon="7.900001749340654"><ele>467.5</ele><time>2026-05-03T07:34:46Z</time></trkpt><trkpt lat="44.35022986384989" lon="7.900012963040021"><ele>467.0</ele><time>2026-05-03T07:34:47Z</time></trkpt><trkpt lat="44.35014821823842" lon="7.899999629519487"><ele>466.5</ele><time>2026-05-03T07:34:48Z</time></trkpt><trkpt lat="44.3500815479401" lon="7.900026576368144"><ele>466.0</ele><time>2026-05-03T07:34:49Z</time></trkpt><trkpt lat="44.350015926094954" lon="7.900072127115226"><ele>465.5</ele><time>2026-05-03T07:34:50Z</time></trkpt><trkpt lat="44.34995959992362" lon="7.900123102520771"><ele>465.0</ele><time>2026-05-03T07:34:51Z</time></trkpt><trkpt lat="44.34987607588925" lon="7.900188490415983"><ele>466.0</ele><time>2026-05-03T07:34:53Z</time></trkpt><trkpt lat="44.34974686014964" lon="7.900164768234808"><ele>467.0</ele><time>2026-05-03T07:34:54.999Z</time></trkpt><trkpt lat="44.34966834386793" lon="7.90013179627127"><ele>468.0</ele><time>2026-05-03T07:34:55.999Z</time></trkpt><trkpt lat="44.34957850886921" lon="7.900090267954487"><ele>469.0</ele><time>2026-05-03T07:34:56.999Z</time></trkpt><trkpt lat="44.349490281330084" lon="7.900041284627826"><ele>470.0</ele><time>2026-05-03T07:34:57.999Z</time></trkpt><trkpt lat="44.34940524367709" lon="7.899989624923476"><ele>469.99999999999994</ele><time>2026-05-03T07:34:58.999Z</time></trkpt><trkpt lat="44.34931747168294" lon="7.899938710859642"><ele>470.0</ele><time>2026-05-03T07:34:59.999Z</time></trkpt><trkpt lat="44.349224933046536" lon="7.899881335711761"><ele>470.0</ele><time>2026-05-03T07:35:00.999Z</time></trkpt><trkpt lat="44.349138231175246" lon="7.89983698826197"><ele>470.0</ele><time>2026-05-03T07:35:01.999Z</time></trkpt><trkpt lat="44.349065330899705" lon="7.899798592775778"><ele>469.99999999999994</ele><time>2026-05-03T07:35:02.999Z</time></trkpt><trkpt lat="44.34899289519974" lon="7.899755131333302"><ele>470.0</ele><time>2026-05-03T07:35:03.999Z</time></trkpt><trkpt lat="44.348916269170715" lon="7.89971105427678"><ele>471.66666666666663</ele><time>2026-05-03T07:35:04.999Z</time></trkpt><trkpt lat="44.34885016733107" lon="7.899669335177434"><ele>473.3333333333333</ele><time>2026-05-03T07:35:05.999Z</time></trkpt><trkpt lat="44.348783632377426" lon="7.8996239668543184"><ele>475.0</ele><time>2026-05-03T07:35:06.999Z</time></trkpt><trkpt lat="44.34871933055727" lon="7.899555615905255"><ele>476.66666666666663</ele><time>2026-05-03T07:35:07.999Z</time></trkpt><trkpt lat="44.348657855331524" lon="7.899473410307997"><ele>478.3333333333333</ele><time>2026-05-03T07:35:08.999Z</time></trkpt><trkpt lat="44.348611011572906" lon="7.899366316011494"><ele>480.0</ele><time>2026-05-03T07:35:09.999Z</time></trkpt><trkpt lat="44.3485675013337" lon="7.899255309291472"><ele>478.6</ele><time>2026-05-03T07:35:10.999Z</time></trkpt><trkpt lat="44.348529567550685" lon="7.899133833661137"><ele>477.2</ele><time>2026-05-03T07:35:11.999Z</time></trkpt><trkpt lat="44.348493010333165" lon="7.899008583630699"><ele>475.79999999999995</ele><time>2026-05-03T07:35:12.999Z</time></trkpt><trkpt lat="44.34845311177255" lon="7.89887878256117"><ele>474.4</ele><time>2026-05-03T07:35:13.999Z</time></trkpt><trkpt lat="44.34842040131276" lon="7.898752268301218"><ele>473.0</ele><time>2026-05-03T07:35:14.999Z</time></trkpt><trkpt lat="44.3483858908954" lon="7.89863505919992"><ele>473.0</ele><time>2026-05-03T07:35:15.999Z</time></trkpt><trkpt lat="44.34835201680543" lon="7.898513996896076"><ele>472.99999999999994</ele><time>2026-05-03T07:35:16.999Z</time></trkpt><trkpt lat="44.34832059236615" lon="7.8983936554868555"><ele>472.99999999999994</ele><time>2026-05-03T07:35:17.999Z</time></trkpt><trkpt lat="44.348288921905095" lon="7.898278943254989"><ele>473.0</ele><time>2026-05-03T07:35:18.999Z</time></trkpt><trkpt lat="44.34825523233055" lon="7.898157719778671"><ele>473.0</ele><time>2026-05-03T07:35:19.999Z</time></trkpt><trkpt lat="44.34823905794955" lon="7.89802997463772"><ele>472.79999999999995</ele><time>2026-05-03T07:35:20.999Z</time></trkpt><trkpt lat="44.348208758222505" lon="7.897914031598403"><ele>472.59999999999997</ele><time>2026-05-03T07:35:21.999Z</time></trkpt><trkpt lat="44.34815919346386" lon="7.897796133205388"><ele>472.40000000000003</ele><time>2026-05-03T07:35:22.999Z</time></trkpt><trkpt lat="44.348125925390406" lon="7.897671139588537"><ele>472.20000000000005</ele><time>2026-05-03T07:35:23.999Z</time></trkpt><trkpt lat="44.348096917426304" lon="7.897550845548715"><ele>472.0</ele><time>2026-05-03T07:35:24.999Z</time></trkpt><trkpt lat="44.34806304870256" lon="7.897431921397723"><ele>472.00000000000006</ele><time>2026-05-03T07:35:25.999Z</time></trkpt><trkpt lat="44.34805406380423" lon="7.897302849036617"><ele>472.0</ele><time>2026-05-03T07:35:26.999Z</time></trkpt><trkpt lat="44.34802607490934" lon="7.897188107532457"><ele>472.0</ele><time>2026-05-03T07:35:27.999Z</time></trkpt><trkpt lat="44.34799705231159" lon="7.897071599266867"><ele>472.0</ele><time>2026-05-03T07:35:28.999Z</time></trkpt><trkpt lat="44.34797096533782" lon="7.896971330003177"><ele>472.00000000000006</ele><time>2026-05-03T07:35:29.999Z</time></trkpt><trkpt lat="44.34794632483143" lon="7.896876620750475"><ele>472.0</ele><time>2026-05-03T07:35:30.999Z</time></trkpt><trkpt lat="44.34791976709352" lon="7.896777176658532"><ele>473.1666666666667</ele><time>2026-05-03T07:35:31.999Z</time></trkpt><trkpt lat="44.34789175593373" lon="7.896672410056238"><ele>474.33333333333337</ele><time>2026-05-03T07:35:32.999Z</time></trkpt><trkpt lat="44.34786206114198" lon="7.8965613465844555"><ele>475.5</ele><time>2026-05-03T07:35:33.999Z</time></trkpt><trkpt lat="44.34783074052686" lon="7.896444202223155"><ele>476.66666666666663</ele><time>2026-05-03T07:35:34.999Z</time></trkpt><trkpt lat="44.347799041639284" lon="7.896325643091381"><ele>477.8333333333333</ele><time>2026-05-03T07:35:35.999Z</time></trkpt><trkpt lat="44.34775262309042" lon="7.896216396852137"><ele>479.0</ele><time>2026-05-03T07:35:36.999Z</time></trkpt><trkpt lat="44.34773147007813" lon="7.896091247019907"><ele>479.0</ele><time>2026-05-03T07:35:37.999Z</time></trkpt><trkpt lat="44.347696489723376" lon="7.89595860485409"><ele>479.0</ele><time>2026-05-03T07:35:38.999Z</time></trkpt><trkpt lat="44.34765905075" lon="7.895823415142254"><ele>479.0</ele><time>2026-05-03T07:35:39.999Z</time></trkpt><trkpt lat="44.34762349632575" lon="7.8956904163018224"><ele>479.0</ele><time>2026-05-03T07:35:40.999Z</time></trkpt><trkpt lat="44.347584568113405" lon="7.895559783400778"><ele>479.0</ele><time>2026-05-03T07:35:41.999Z</time></trkpt><trkpt lat="44.34754779693314" lon="7.895422937658654"><ele>478.0</ele><time>2026-05-03T07:35:42.999Z</time></trkpt><trkpt lat="44.34751129106418" lon="7.895279698684756"><ele>477.0</ele><time>2026-05-03T07:35:43.999Z</time></trkpt><trkpt lat="44.347473694236626" lon="7.895134329458376"><ele>476.0</ele><time>2026-05-03T07:35:44.999Z</time></trkpt><trkpt lat="44.34743700270151" lon="7.894980589942839"><ele>475.0</ele><time>2026-05-03T07:35:45.999Z</time></trkpt><trkpt lat="44.347385424790424" lon="7.894804923359184"><ele>474.6666666666667</ele><time>2026-05-03T07:35:46.999Z</time></trkpt><trkpt lat="44.347329798034195" lon="7.894614969811563"><ele>474.33333333333337</ele><time>2026-05-03T07:35:47.999Z</time></trkpt><trkpt lat="44.34725682407886" lon="7.894423018971332"><ele>474.0</ele><time>2026-05-03T07:35:48.999Z</time></trkpt><trkpt lat="44.34717589413301" lon="7.894219519425252"><ele>478.0</ele><time>2026-05-03T07:35:49.999Z</time></trkpt><trkpt lat="44.34708543075962" lon="7.893990969118397"><ele>482.0</ele><time>2026-05-03T07:35:50.999Z</time></trkpt><trkpt lat="44.34700376094741" lon="7.893788675068655"><ele>486.0</ele><time>2026-05-03T07:35:51.998Z</time></trkpt><trkpt lat="44.34693757553767" lon="7.893599463029549"><ele>486.0</ele><time>2026-05-03T07:35:52.998Z</time></trkpt><trkpt lat="44.346875489304864" lon="7.893452092809289"><ele>486.0</ele><time>2026-05-03T07:35:53.998Z</time></trkpt><trkpt lat="44.346823915814845" lon="7.8933178264436386"><ele>486.0</ele><time>2026-05-03T07:35:54.998Z</time></trkpt><trkpt lat="44.34678042486139" lon="7.89318356585542"><ele>486.0</ele><time>2026-05-03T07:35:55.998Z</time></trkpt><trkpt lat="44.34672632071211" lon="7.893057804169981"><ele>486.0</ele><time>2026-05-03T07:35:56.998Z</time></trkpt><trkpt lat="44.346675999084724" lon="7.892912559489979"><ele>484.75</ele><time>2026-05-03T07:35:57.998Z</time></trkpt><trkpt lat="44.34662242330343" lon="7.892767906064437"><ele>483.5</ele><time>2026-05-03T07:35:58.998Z</time></trkpt><trkpt lat="44.34656548302381" lon="7.89261526529673"><ele>482.25</ele><time>2026-05-03T07:35:59.998Z</time></trkpt><trkpt lat="44.34650323991988" lon="7.892459529490705"><ele>481.0</ele><time>2026-05-03T07:36:00.998Z</time></trkpt><trkpt lat="44.3464399899851" lon="7.892309076909706"><ele>482.25</ele><time>2026-05-03T07:36:01.998Z</time></trkpt><trkpt lat="44.34637535312486" lon="7.892152710309575"><ele>483.5</ele><time>2026-05-03T07:36:02.998Z</time></trkpt><trkpt lat="44.34631348989459" lon="7.89200335727072"><ele>484.75</ele><time>2026-05-03T07:36:03.998Z</time></trkpt><trkpt lat="44.346239945916395" lon="7.891845165203617"><ele>486.0</ele><time>2026-05-03T07:36:04.998Z</time></trkpt><trkpt lat="44.34616236498935" lon="7.891692992471027"><ele>486.0</ele><time>2026-05-03T07:36:05.998Z</time></trkpt><trkpt lat="44.346069103766496" lon="7.891542479078057"><ele>486.0</ele><time>2026-05-03T07:36:06.998Z</time></trkpt><trkpt lat="44.34596293551496" lon="7.891397861946808"><ele>486.0</ele><time>2026-05-03T07:36:07.998Z</time></trkpt><trkpt lat="44.34584764690897" lon="7.891264799556788"><ele>486.0</ele><time>2026-05-03T07:36:08.998Z</time></trkpt><trkpt lat="44.34572121093135" lon="7.891134769566748"><ele>486.0</ele><time>2026-05-03T07:36:09.998Z</time></trkpt><trkpt lat="44.345593359200706" lon="7.891011864554251"><ele>486.0</ele><time>2026-05-03T07:36:10.998Z</time></trkpt><trkpt lat="44.345474042682355" lon="7.890902756517628"><ele>486.0</ele><time>2026-05-03T07:36:11.998Z</time></trkpt><trkpt lat="44.34537346782819" lon="7.890799037587773"><ele>486.0</ele><time>2026-05-03T07:36:12.998Z</time></trkpt><trkpt lat="44.345274974446305" lon="7.890702265787097"><ele>486.75</ele><time>2026-05-03T07:36:13.998Z</time></trkpt><trkpt lat="44.34518778654525" lon="7.890592074674121"><ele>487.5</ele><time>2026-05-03T07:36:14.998Z</time></trkpt><trkpt lat="44.34510822907751" lon="7.890456867206756"><ele>488.25</ele><time>2026-05-03T07:36:15.998Z</time></trkpt><trkpt lat="44.34503526806844" lon="7.890304058053466"><ele>489.0</ele><time>2026-05-03T07:36:16.998Z</time></trkpt><trkpt lat="44.34497203163621" lon="7.890134603383321"><ele>492.0</ele><time>2026-05-03T07:36:17.998Z</time></trkpt><trkpt lat="44.344915473254176" lon="7.889951924332343"><ele>495.0</ele><time>2026-05-03T07:36:19Z</time></trkpt><trkpt lat="44.34487055974123" lon="7.889784167904849"><ele>498.0</ele><time>2026-05-03T07:36:20Z</time></trkpt><trkpt lat="44.34482875758049" lon="7.889634317525178"><ele>501.0</ele><time>2026-05-03T07:36:21Z</time></trkpt><trkpt lat="44.34476338785515" lon="7.889499541087477"><ele>502.0</ele><time>2026-05-03T07:36:22Z</time></trkpt><trkpt lat="44.344685806810574" lon="7.889381114753809"><ele>503.0</ele><time>2026-05-03T07:36:23Z</time></trkpt><trkpt lat="44.34458456198488" lon="7.889266904759028"><ele>504.0</ele><time>2026-05-03T07:36:24Z</time></trkpt><trkpt lat="44.34447825920189" lon="7.8891850424723335"><ele>505.0</ele><time>2026-05-03T07:36:25Z</time></trkpt><trkpt lat="44.34436696379853" lon="7.8891205156168835"><ele>505.0</ele><time>2026-05-03T07:36:26Z</time></trkpt><trkpt lat="44.34424315864816" lon="7.889074261797377"><ele>505.0</ele><time>2026-05-03T07:36:27Z</time></trkpt><trkpt lat="44.34410234847924" lon="7.889057719641091"><ele>505.0</ele><time>2026-05-03T07:36:28Z</time></trkpt><trkpt lat="44.343952882526104" lon="7.889035004199302"><ele>505.0</ele><time>2026-05-03T07:36:29Z</time></trkpt><trkpt lat="44.34379867841638" lon="7.889008913884185"><ele>503.0</ele><time>2026-05-03T07:36:30Z</time></trkpt><trkpt lat="44.343646332336625" lon="7.888981559353705"><ele>501.0</ele><time>2026-05-03T07:36:31Z</time></trkpt><trkpt lat="44.343514500272775" lon="7.888960765726592"><ele>499.0</ele><time>2026-05-03T07:36:32Z</time></trkpt><trkpt lat="44.34340551064682" lon="7.88890580959498"><ele>497.0</ele><time>2026-05-03T07:36:33Z</time></trkpt><trkpt lat="44.34330684938644" lon="7.8888813668957765"><ele>497.0</ele><time>2026-05-03T07:36:34Z</time></trkpt><trkpt lat="44.34322387628192" lon="7.888827990743243"><ele>497.00000000000006</ele><time>2026-05-03T07:36:35Z</time></trkpt><trkpt lat="44.343147514870964" lon="7.888766263408424"><ele>497.00000000000006</ele><time>2026-05-03T07:36:36Z</time></trkpt><trkpt lat="44.343072861024794" lon="7.888672628215514"><ele>497.0</ele><time>2026-05-03T07:36:37Z</time></trkpt><trkpt lat="44.34301229740513" lon="7.888543936864344"><ele>497.0</ele><time>2026-05-03T07:36:38Z</time></trkpt><trkpt lat="44.3429631376899" lon="7.8884045793005395"><ele>498.0</ele><time>2026-05-03T07:36:39Z</time></trkpt><trkpt lat="44.34294485903995" lon="7.888268793821523"><ele>499.00000000000006</ele><time>2026-05-03T07:36:40Z</time></trkpt><trkpt lat="44.3429491821659" lon="7.888124657103656"><ele>500.00000000000006</ele><time>2026-05-03T07:36:41Z</time></trkpt><trkpt lat="44.3429707146392" lon="7.887973924410699"><ele>501.0</ele><time>2026-05-03T07:36:42Z</time></trkpt><trkpt lat="44.343039276206724" lon="7.88783366212364"><ele>502.0</ele><time>2026-05-03T07:36:43Z</time></trkpt><trkpt lat="44.3430699660562" lon="7.887673936260094"><ele>505.40000000000003</ele><time>2026-05-03T07:36:44Z</time></trkpt><trkpt lat="44.34310855914654" lon="7.887538599570117"><ele>508.80000000000007</ele><time>2026-05-03T07:36:45Z</time></trkpt><trkpt lat="44.34313873724301" lon="7.88739077937608"><ele>512.2</ele><time>2026-05-03T07:36:46Z</time></trkpt><trkpt lat="44.343153361523704" lon="7.88722509720571"><ele>515.6</ele><time>2026-05-03T07:36:47Z</time></trkpt><trkpt lat="44.34315004208986" lon="7.887073486513974"><ele>519.0</ele><time>2026-05-03T07:36:48Z</time></trkpt><trkpt lat="44.34314014108901" lon="7.8869199096698335"><ele>519.0</ele><time>2026-05-03T07:36:49Z</time></trkpt><trkpt lat="44.343112666635506" lon="7.886769868494503"><ele>519.0</ele><time>2026-05-03T07:36:50Z</time></trkpt><trkpt lat="44.34306549301063" lon="7.886618514677694"><ele>519.0</ele><time>2026-05-03T07:36:51Z</time></trkpt><trkpt lat="44.343006016818784" lon="7.886466528284884"><ele>519.0</ele><time>2026-05-03T07:36:52Z</time></trkpt><trkpt lat="44.34293328983446" lon="7.886331189551907"><ele>514.75</ele><time>2026-05-03T07:36:53Z</time></trkpt><trkpt lat="44.34284960424064" lon="7.886211734696123"><ele>510.5</ele><time>2026-05-03T07:36:54Z</time></trkpt><trkpt lat="44.34275537264144" lon="7.886103457559483"><ele>506.25</ele><time>2026-05-03T07:36:55Z</time></trkpt><trkpt lat="44.342637650744116" lon="7.886018156000506"><ele>502.0</ele><time>2026-05-03T07:36:56Z</time></trkpt><trkpt lat="44.34251408980515" lon="7.885944812970512"><ele>506.6666666666667</ele><time>2026-05-03T07:36:57Z</time></trkpt><trkpt lat="44.342377437594" lon="7.885887236485821"><ele>511.33333333333337</ele><time>2026-05-03T07:36:58Z</time></trkpt><trkpt lat="44.34222993247812" lon="7.88583136693948"><ele>516.0</ele><time>2026-05-03T07:36:59Z</time></trkpt><trkpt lat="44.34208064132996" lon="7.885772201148964"><ele>516.0</ele><time>2026-05-03T07:37:00Z</time></trkpt><trkpt lat="44.34195295494238" lon="7.885722917105547"><ele>516.0</ele><time>2026-05-03T07:37:01Z</time></trkpt><trkpt lat="44.3418309075902" lon="7.885674899338285"><ele>516.0</ele><time>2026-05-03T07:37:01.999Z</time></trkpt><trkpt lat="44.34171545896909" lon="7.885635712048867"><ele>516.0</ele><time>2026-05-03T07:37:02.999Z</time></trkpt><trkpt lat="44.341595294217505" lon="7.885616231904709"><ele>516.0</ele><time>2026-05-03T07:37:03.999Z</time></trkpt><trkpt lat="44.34146724195318" lon="7.885628466751056"><ele>516.0</ele><time>2026-05-03T07:37:04.999Z</time></trkpt><trkpt lat="44.34134206373523" lon="7.885641980836661"><ele>516.0</ele><time>2026-05-03T07:37:05.999Z</time></trkpt><trkpt lat="44.34121204598291" lon="7.885684973799843"><ele>516.0</ele><time>2026-05-03T07:37:06.999Z</time></trkpt><trkpt lat="44.34112631258967" lon="7.885713172418668"><ele>515.6</ele><time>2026-05-03T07:37:07.999Z</time></trkpt><trkpt lat="44.34101706882956" lon="7.8857205605459075"><ele>515.2</ele><time>2026-05-03T07:37:08.999Z</time></trkpt><trkpt lat="44.340925961935575" lon="7.885714449410835"><ele>514.8</ele><time>2026-05-03T07:37:09.999Z</time></trkpt><trkpt lat="44.340837380933806" lon="7.8856938994200245"><ele>514.4</ele><time>2026-05-03T07:37:10.999Z</time></trkpt><trkpt lat="44.340741397863006" lon="7.88565797011429"><ele>514.0</ele><time>2026-05-03T07:37:11.999Z</time></trkpt><trkpt lat="44.34063230742629" lon="7.885609455872967"><ele>511.75</ele><time>2026-05-03T07:37:12.999Z</time></trkpt><trkpt lat="44.34054665607246" lon="7.8855013494631745"><ele>509.5</ele><time>2026-05-03T07:37:13.999Z</time></trkpt><trkpt lat="44.34044955822286" lon="7.885404861557178"><ele>507.25</ele><time>2026-05-03T07:37:14.999Z</time></trkpt><trkpt lat="44.34035603037525" lon="7.885276458246111"><ele>505.0</ele><time>2026-05-03T07:37:15.999Z</time></trkpt><trkpt lat="44.34028190383924" lon="7.885118775147962"><ele>508.5</ele><time>2026-05-03T07:37:16.999Z</time></trkpt><trkpt lat="44.340183537327086" lon="7.8849747919418895"><ele>512.0</ele><time>2026-05-03T07:37:17.999Z</time></trkpt><trkpt lat="44.340080176792654" lon="7.884822902378709"><ele>515.5</ele><time>2026-05-03T07:37:18.999Z</time></trkpt><trkpt lat="44.33997805303293" lon="7.884672363310482"><ele>519.0</ele><time>2026-05-03T07:37:19.999Z</time></trkpt><trkpt lat="44.33986572353584" lon="7.884518275755756"><ele>519.0</ele><time>2026-05-03T07:37:20.999Z</time></trkpt><trkpt lat="44.339761383123154" lon="7.884359833487166"><ele>519.0</ele><time>2026-05-03T07:37:21.999Z</time></trkpt><trkpt lat="44.339666766131785" lon="7.884221328342151"><ele>519.0</ele><time>2026-05-03T07:37:22.999Z</time></trkpt><trkpt lat="44.339566651618604" lon="7.8840854831354985"><ele>519.0</ele><time>2026-05-03T07:37:23.999Z</time></trkpt><trkpt lat="44.339480430240364" lon="7.883954221485021"><ele>517.75</ele><time>2026-05-03T07:37:24.999Z</time></trkpt><trkpt lat="44.339394346338764" lon="7.8838079046160745"><ele>516.5</ele><time>2026-05-03T07:37:25.999Z</time></trkpt><trkpt lat="44.33931438516679" lon="7.883642600463349"><ele>515.25</ele><time>2026-05-03T07:37:26.999Z</time></trkpt><trkpt lat="44.33924296382826" lon="7.883463018187785"><ele>514.0</ele><time>2026-05-03T07:37:27.999Z</time></trkpt><trkpt lat="44.33918706228693" lon="7.883274419072731"><ele>517.75</ele><time>2026-05-03T07:37:28.999Z</time></trkpt><trkpt lat="44.33912851440502" lon="7.883077416276086"><ele>521.5</ele><time>2026-05-03T07:37:29.999Z</time></trkpt><trkpt lat="44.339083052692764" lon="7.882901875585257"><ele>525.25</ele><time>2026-05-03T07:37:30.999Z</time></trkpt><trkpt lat="44.339029918483796" lon="7.8827259329832104"><ele>529.0</ele><time>2026-05-03T07:37:31.999Z</time></trkpt><trkpt lat="44.33897263481779" lon="7.882548324939117"><ele>526.5</ele><time>2026-05-03T07:37:32.999Z</time></trkpt><trkpt lat="44.338904229477905" lon="7.882399944300293"><ele>524.0</ele><time>2026-05-03T07:37:33.999Z</time></trkpt><trkpt lat="44.33882197227949" lon="7.882256109629382"><ele>521.5</ele><time>2026-05-03T07:37:34.999Z</time></trkpt><trkpt lat="44.33872478060168" lon="7.882115929723833"><ele>519.0</ele><time>2026-05-03T07:37:35.999Z</time></trkpt><trkpt lat="44.338622045847465" lon="7.881981553851788"><ele>519.0</ele><time>2026-05-03T07:37:36.999Z</time></trkpt><trkpt lat="44.33850305991687" lon="7.881859674257125"><ele>519.0</ele><time>2026-05-03T07:37:37.999Z</time></trkpt><trkpt lat="44.33837542109639" lon="7.881755003210244"><ele>519.0</ele><time>2026-05-03T07:37:38.999Z</time></trkpt><trkpt lat="44.33824055790619" lon="7.8816716595945335"><ele>519.0</ele><time>2026-05-03T07:37:39.999Z</time></trkpt><trkpt lat="44.338111411557776" lon="7.881594499504318"><ele>522.25</ele><time>2026-05-03T07:37:40.999Z</time></trkpt><trkpt lat="44.337980955829366" lon="7.881527722771645"><ele>525.5</ele><time>2026-05-03T07:37:41.999Z</time></trkpt><trkpt lat="44.33785013533799" lon="7.881467365669601"><ele>528.75</ele><time>2026-05-03T07:37:42.999Z</time></trkpt><trkpt lat="44.33770759980467" lon="7.8814435804280265"><ele>532.0</ele><time>2026-05-03T07:37:43.999Z</time></trkpt><trkpt lat="44.33756642617258" lon="7.881438483686277"><ele>532.0</ele><time>2026-05-03T07:37:44.999Z</time></trkpt><trkpt lat="44.33743059086374" lon="7.881448345051266"><ele>532.0</ele><time>2026-05-03T07:37:45.999Z</time></trkpt><trkpt lat="44.33731374748199" lon="7.881447584486174"><ele>532.0</ele><time>2026-05-03T07:37:46.999Z</time></trkpt><trkpt lat="44.33718400903143" lon="7.88144110574728"><ele>532.0</ele><time>2026-05-03T07:37:47.999Z</time></trkpt><trkpt lat="44.33705258539177" lon="7.881417560857365"><ele>530.5</ele><time>2026-05-03T07:37:48.999Z</time></trkpt><trkpt lat="44.33691665234177" lon="7.881368212400182"><ele>529.0</ele><time>2026-05-03T07:37:49.999Z</time></trkpt><trkpt lat="44.33678775618821" lon="7.881312648307932"><ele>527.5</ele><time>2026-05-03T07:37:50.999Z</time></trkpt><trkpt lat="44.33665460572143" lon="7.881238021591996"><ele>526.0</ele><time>2026-05-03T07:37:51.999Z</time></trkpt><trkpt lat="44.336522540057565" lon="7.881144156595292"><ele>526.0</ele><time>2026-05-03T07:37:52.999Z</time></trkpt><trkpt lat="44.336388769375034" lon="7.881043852631256"><ele>526.0</ele><time>2026-05-03T07:37:53.999Z</time></trkpt><trkpt lat="44.33624670942567" lon="7.880934086210048"><ele>526.0</ele><time>2026-05-03T07:37:54.999Z</time></trkpt><trkpt lat="44.33610461319519" lon="7.88082058389845"><ele>530.0</ele><time>2026-05-03T07:37:55.999Z</time></trkpt><trkpt lat="44.3359622851722" lon="7.8806950612267475"><ele>534.0</ele><time>2026-05-03T07:37:56.999Z</time></trkpt><trkpt lat="44.335831548857676" lon="7.880557211581163"><ele>538.0</ele><time>2026-05-03T07:37:57.998Z</time></trkpt><trkpt lat="44.335699595582255" lon="7.88042149665013"><ele>538.0</ele><time>2026-05-03T07:37:58.998Z</time></trkpt><trkpt lat="44.335572765023834" lon="7.880301055397455"><ele>538.0</ele><time>2026-05-03T07:37:59.998Z</time></trkpt><trkpt lat="44.33545140083487" lon="7.880177783441355"><ele>538.0</ele><time>2026-05-03T07:38:00.998Z</time></trkpt><trkpt lat="44.33532418654837" lon="7.880047912431914"><ele>538.5</ele><time>2026-05-03T07:38:01.998Z</time></trkpt><trkpt lat="44.33521449547023" lon="7.879908905528351"><ele>539.0</ele><time>2026-05-03T07:38:02.998Z</time></trkpt><trkpt lat="44.335105388039466" lon="7.8797960455585505"><ele>539.5</ele><time>2026-05-03T07:38:03.998Z</time></trkpt><trkpt lat="44.33501132052727" lon="7.879698742789887"><ele>540.0</ele><time>2026-05-03T07:38:04.998Z</time></trkpt><trkpt lat="44.334906010260845" lon="7.87961458433878"><ele>540.0</ele><time>2026-05-03T07:38:05.998Z</time></trkpt><trkpt lat="44.334823455325825" lon="7.879495514720422"><ele>540.0</ele><time>2026-05-03T07:38:06.998Z</time></trkpt><trkpt lat="44.33473317241241" lon="7.8794055748037755"><ele>540.0</ele><time>2026-05-03T07:38:07.998Z</time></trkpt><trkpt lat="44.33463477508375" lon="7.87931629536214"><ele>540.0</ele><time>2026-05-03T07:38:08.998Z</time></trkpt><trkpt lat="44.33453079961913" lon="7.879240514392561"><ele>542.0</ele><time>2026-05-03T07:38:09.998Z</time></trkpt><trkpt lat="44.334436777725124" lon="7.879173460206625"><ele>544.0</ele><time>2026-05-03T07:38:10.998Z</time></trkpt><trkpt lat="44.33434813657138" lon="7.8791214480315706"><ele>546.0</ele><time>2026-05-03T07:38:11.998Z</time></trkpt><trkpt lat="44.334268783654565" lon="7.879075544391034"><ele>548.0</ele><time>2026-05-03T07:38:12.998Z</time></trkpt><trkpt lat="44.33419152818652" lon="7.8790271243505545"><ele>550.0</ele><time>2026-05-03T07:38:13.998Z</time></trkpt><trkpt lat="44.33411192857492" lon="7.878974854431463"><ele>550.0</ele><time>2026-05-03T07:38:14.998Z</time></trkpt><trkpt lat="44.334027216751196" lon="7.8789179584346645"><ele>550.0</ele><time>2026-05-03T07:38:15.998Z</time></trkpt><trkpt lat="44.33393450941134" lon="7.87885899210443"><ele>550.0</ele><time>2026-05-03T07:38:16.998Z</time></trkpt><trkpt lat="44.333838971766674" lon="7.878817337213903"><ele>550.0</ele><time>2026-05-03T07:38:17.998Z</time></trkpt><trkpt lat="44.333734046921464" lon="7.878802317440317"><ele>550.0</ele><time>2026-05-03T07:38:18.998Z</time></trkpt><trkpt lat="44.33362116642514" lon="7.878794275493652"><ele>549.25</ele><time>2026-05-03T07:38:19.998Z</time></trkpt><trkpt lat="44.333504118668685" lon="7.878787979578866"><ele>548.5</ele><time>2026-05-03T07:38:20.998Z</time></trkpt><trkpt lat="44.33337406727774" lon="7.878803917732759"><ele>547.75</ele><time>2026-05-03T07:38:21.998Z</time></trkpt><trkpt lat="44.33322956509005" lon="7.878821115636602"><ele>547.0</ele><time>2026-05-03T07:38:22.998Z</time></trkpt><trkpt lat="44.333093405947864" lon="7.878851541104541"><ele>549.0</ele><time>2026-05-03T07:38:23.998Z</time></trkpt><trkpt lat="44.332973758802765" lon="7.878884003995597"><ele>551.0</ele><time>2026-05-03T07:38:25Z</time></trkpt><trkpt lat="44.33286027050794" lon="7.878922199356414"><ele>553.0</ele><time>2026-05-03T07:38:26Z</time></trkpt><trkpt lat="44.332744769885785" lon="7.879003007063963"><ele>555.0</ele><time>2026-05-03T07:38:27Z</time></trkpt><trkpt lat="44.332646802942314" lon="7.879076303682032"><ele>555.0</ele><time>2026-05-03T07:38:28Z</time></trkpt><trkpt lat="44.332567665516784" lon="7.879117573652604"><ele>555.0</ele><time>2026-05-03T07:38:29Z</time></trkpt><trkpt lat="44.332484568323366" lon="7.879169387642591"><ele>555.0</ele><time>2026-05-03T07:38:30Z</time></trkpt><trkpt lat="44.3323814940679" lon="7.879190763480852"><ele>555.0</ele><time>2026-05-03T07:38:32Z</time></trkpt><trkpt lat="44.332275979199004" lon="7.879149662615713"><ele>555.0</ele><time>2026-05-03T07:38:34Z</time></trkpt><trkpt lat="44.332263366742545" lon="7.879030898417615"><ele>555.0</ele><time>2026-05-03T07:38:36Z</time></trkpt><trkpt lat="44.33229783495993" lon="7.878956499666516"><ele>555.0</ele><time>2026-05-03T07:38:37Z</time></trkpt><trkpt lat="44.33235806557356" lon="7.878911101618329"><ele>555.0</ele><time>2026-05-03T07:38:38Z</time></trkpt><trkpt lat="44.33243337280918" lon="7.8788798334116406"><ele>555.0</ele><time>2026-05-03T07:38:39Z</time></trkpt><trkpt lat="44.33252415723961" lon="7.878836218962798"><ele>555.0</ele><time>2026-05-03T07:38:40Z</time></trkpt><trkpt lat="44.33262105025125" lon="7.878783536967267"><ele>555.0</ele><time>2026-05-03T07:38:41Z</time></trkpt><trkpt lat="44.33272835211596" lon="7.8787230591750355"><ele>555.0</ele><time>2026-05-03T07:38:42Z</time></trkpt><trkpt lat="44.33283395826159" lon="7.8786546144456535"><ele>555.0</ele><time>2026-05-03T07:38:43Z</time></trkpt><trkpt lat="44.33294761261615" lon="7.8785858367489645"><ele>555.0</ele><time>2026-05-03T07:38:44Z</time></trkpt><trkpt lat="44.33304857097678" lon="7.878538015648365"><ele>555.0</ele><time>2026-05-03T07:38:45Z</time></trkpt><trkpt lat="44.33312740434706" lon="7.878499429476909"><ele>555.0</ele><time>2026-05-03T07:38:46Z</time></trkpt><trkpt lat="44.333191152508746" lon="7.878468253031199"><ele>558.6666666666666</ele><time>2026-05-03T07:38:47Z</time></trkpt><trkpt lat="44.33326329269934" lon="7.87838737256606"><ele>562.3333333333334</ele><time>2026-05-03T07:38:49Z</time></trkpt><trkpt lat="44.33325089152435" lon="7.8782461847924825"><ele>566.0</ele><time>2026-05-03T07:38:51Z</time></trkpt><trkpt lat="44.33316718633455" lon="7.878234571037023"><ele>569.6666666666667</ele><time>2026-05-03T07:38:52Z</time></trkpt><trkpt lat="44.33308634030213" lon="7.878253483723863"><ele>573.3333333333334</ele><time>2026-05-03T07:38:53Z</time></trkpt><trkpt lat="44.3330037336931" lon="7.878282015887646"><ele>577.0</ele><time>2026-05-03T07:38:54Z</time></trkpt><trkpt lat="44.332912877130866" lon="7.878316353713848"><ele>577.5</ele><time>2026-05-03T07:38:55Z</time></trkpt><trkpt lat="44.33281073690544" lon="7.878354744814757"><ele>578.0</ele><time>2026-05-03T07:38:56Z</time></trkpt><trkpt lat="44.33270262252802" lon="7.878416690407611"><ele>578.5</ele><time>2026-05-03T07:38:57Z</time></trkpt><trkpt lat="44.33259393798395" lon="7.878438178369549"><ele>579.0</ele><time>2026-05-03T07:38:58Z</time></trkpt><trkpt lat="44.33246171397694" lon="7.8784711815071615"><ele>574.6</ele><time>2026-05-03T07:38:59Z</time></trkpt><trkpt lat="44.33234929956464" lon="7.878510722415886"><ele>570.2</ele><time>2026-05-03T07:39:00Z</time></trkpt><trkpt lat="44.33224162618109" lon="7.8785560908798615"><ele>565.8000000000001</ele><time>2026-05-03T07:39:01Z</time></trkpt><trkpt lat="44.3321504243851" lon="7.878581404243441"><ele>561.4</ele><time>2026-05-03T07:39:02Z</time></trkpt><trkpt lat="44.33207196958618" lon="7.878601846675469"><ele>557.0</ele><time>2026-05-03T07:39:03Z</time></trkpt><trkpt lat="44.33200019359181" lon="7.878579852254578"><ele>557.0</ele><time>2026-05-03T07:39:04Z</time></trkpt><trkpt lat="44.33191900164696" lon="7.8785255930926805"><ele>557.0</ele><time>2026-05-03T07:39:05Z</time></trkpt><trkpt lat="44.33184209226952" lon="7.8784383104914415"><ele>557.0</ele><time>2026-05-03T07:39:06Z</time></trkpt><trkpt lat="44.33175472755567" lon="7.878344190060833"><ele>557.0</ele><time>2026-05-03T07:39:06.999Z</time></trkpt><trkpt lat="44.331682559087156" lon="7.878269862393662"><ele>557.0</ele><time>2026-05-03T07:39:07.999Z</time></trkpt><trkpt lat="44.331620957536515" lon="7.878203833891649"><ele>560.5</ele><time>2026-05-03T07:39:08.999Z</time></trkpt><trkpt lat="44.33155611786428" lon="7.878059736182602"><ele>564.0</ele><time>2026-05-03T07:39:10.999Z</time></trkpt><trkpt lat="44.33154839563583" lon="7.8779632407309075"><ele>567.5</ele><time>2026-05-03T07:39:11.999Z</time></trkpt><trkpt lat="44.33157368721402" lon="7.877860385142526"><ele>571.0</ele><time>2026-05-03T07:39:12.999Z</time></trkpt><trkpt lat="44.33161178209585" lon="7.877771523364618"><ele>574.5</ele><time>2026-05-03T07:39:13.999Z</time></trkpt><trkpt lat="44.3316728858242" lon="7.877687363804115"><ele>578.0</ele><time>2026-05-03T07:39:14.999Z</time></trkpt><trkpt lat="44.33174796026443" lon="7.8775993468783545"><ele>581.4</ele><time>2026-05-03T07:39:15.999Z</time></trkpt><trkpt lat="44.33183347588192" lon="7.877513863435019"><ele>584.8</ele><time>2026-05-03T07:39:16.999Z</time></trkpt><trkpt lat="44.33191098731447" lon="7.8774582765846715"><ele>588.2</ele><time>2026-05-03T07:39:17.999Z</time></trkpt><trkpt lat="44.332001447314305" lon="7.877423750456607"><ele>591.6</ele><time>2026-05-03T07:39:18.999Z</time></trkpt><trkpt lat="44.33209832700915" lon="7.877422294292408"><ele>595.0</ele><time>2026-05-03T07:39:19.999Z</time></trkpt><trkpt lat="44.33220521401669" lon="7.877468347234494"><ele>595.6</ele><time>2026-05-03T07:39:20.999Z</time></trkpt><trkpt lat="44.33231254032354" lon="7.877545232730169"><ele>596.2</ele><time>2026-05-03T07:39:21.999Z</time></trkpt><trkpt lat="44.33240892198108" lon="7.877639629038769"><ele>596.8</ele><time>2026-05-03T07:39:22.999Z</time></trkpt><trkpt lat="44.33248876128395" lon="7.8777164852367"><ele>597.4</ele><time>2026-05-03T07:39:23.999Z</time></trkpt><trkpt lat="44.33258735336148" lon="7.877778619894783"><ele>598.0</ele><time>2026-05-03T07:39:24.999Z</time></trkpt><trkpt lat="44.33268986475347" lon="7.877810856562671"><ele>599.6666666666667</ele><time>2026-05-03T07:39:25.999Z</time></trkpt><trkpt lat="44.332771739479824" lon="7.877825907273825"><ele>601.3333333333334</ele><time>2026-05-03T07:39:26.999Z</time></trkpt><trkpt lat="44.33285330784351" lon="7.877823823164896"><ele>603.0</ele><time>2026-05-03T07:39:27.999Z</time></trkpt><trkpt lat="44.33294571122121" lon="7.877796299024075"><ele>604.6666666666666</ele><time>2026-05-03T07:39:28.999Z</time></trkpt><trkpt lat="44.33300973706229" lon="7.877754298937657"><ele>606.3333333333333</ele><time>2026-05-03T07:39:29.999Z</time></trkpt><trkpt lat="44.333104610370036" lon="7.877674680678711"><ele>608.0</ele><time>2026-05-03T07:39:31.999Z</time></trkpt><trkpt lat="44.33314660070407" lon="7.8775321929768"><ele>608.0</ele><time>2026-05-03T07:39:33.999Z</time></trkpt><trkpt lat="44.33309759490227" lon="7.8773846384159345"><ele>608.0</ele><time>2026-05-03T07:39:35.999Z</time></trkpt><trkpt lat="44.33302942461661" lon="7.877336488456182"><ele>608.0</ele><time>2026-05-03T07:39:36.999Z</time></trkpt><trkpt lat="44.33294708592458" lon="7.877292529380997"><ele>608.0</ele><time>2026-05-03T07:39:37.999Z</time></trkpt><trkpt lat="44.332857930174164" lon="7.877220869928826"><ele>608.0</ele><time>2026-05-03T07:39:38.999Z</time></trkpt><trkpt lat="44.33275960690585" lon="7.877138626132775"><ele>606.0</ele><time>2026-05-03T07:39:39.999Z</time></trkpt><trkpt lat="44.33265605938253" lon="7.877058284470779"><ele>604.0</ele><time>2026-05-03T07:39:40.999Z</time></trkpt><trkpt lat="44.332561775211296" lon="7.876969596810052"><ele>602.0</ele><time>2026-05-03T07:39:41.999Z</time></trkpt><trkpt lat="44.332491313778604" lon="7.876889845121745"><ele>600.0</ele><time>2026-05-03T07:39:42.999Z</time></trkpt><trkpt lat="44.33242821836999" lon="7.876821608360797"><ele>598.0</ele><time>2026-05-03T07:39:43.999Z</time></trkpt><trkpt lat="44.33234206267539" lon="7.876776372253318"><ele>597.4</ele><time>2026-05-03T07:39:44.999Z</time></trkpt><trkpt lat="44.33224822358232" lon="7.876757611826095"><ele>596.8</ele><time>2026-05-03T07:39:45.999Z</time></trkpt><trkpt lat="44.33214148011263" lon="7.876765331643611"><ele>596.2</ele><time>2026-05-03T07:39:46.999Z</time></trkpt><trkpt lat="44.33202834055689" lon="7.876785873205997"><ele>595.6</ele><time>2026-05-03T07:39:47.999Z</time></trkpt><trkpt lat="44.33191317796874" lon="7.876805434765906"><ele>595.0</ele><time>2026-05-03T07:39:48.999Z</time></trkpt><trkpt lat="44.331788871365866" lon="7.876820886859656"><ele>595.0</ele><time>2026-05-03T07:39:49.999Z</time></trkpt><trkpt lat="44.33166106793429" lon="7.8768232384654135"><ele>595.0</ele><time>2026-05-03T07:39:50.999Z</time></trkpt><trkpt lat="44.33152045098882" lon="7.876832419682394"><ele>595.0</ele><time>2026-05-03T07:39:51.999Z</time></trkpt><trkpt lat="44.33138287498939" lon="7.876831003920496"><ele>595.0</ele><time>2026-05-03T07:39:52.999Z</time></trkpt><trkpt lat="44.3312377898324" lon="7.876840763021833"><ele>597.75</ele><time>2026-05-03T07:39:53.999Z</time></trkpt><trkpt lat="44.33110028150314" lon="7.876835276320506"><ele>600.5</ele><time>2026-05-03T07:39:54.999Z</time></trkpt><trkpt lat="44.33096786074688" lon="7.876853381870006"><ele>603.25</ele><time>2026-05-03T07:39:55.999Z</time></trkpt><trkpt lat="44.330869107100824" lon="7.876865571851209"><ele>606.0</ele><time>2026-05-03T07:39:56.999Z</time></trkpt><trkpt lat="44.33076801345679" lon="7.8768816274443365"><ele>606.0</ele><time>2026-05-03T07:39:57.999Z</time></trkpt><trkpt lat="44.330696255423916" lon="7.876890893278438"><ele>606.0</ele><time>2026-05-03T07:39:58.999Z</time></trkpt><trkpt lat="44.330585587478026" lon="7.87688881079942"><ele>606.0</ele><time>2026-05-03T07:40:00.999Z</time></trkpt><trkpt lat="44.33051408338341" lon="7.876822225308315"><ele>606.0</ele><time>2026-05-03T07:40:02.998Z</time></trkpt><trkpt lat="44.330540910986514" lon="7.876697862275385"><ele>606.0</ele><time>2026-05-03T07:40:04.998Z</time></trkpt><trkpt lat="44.330602371816" lon="7.876718100820174"><ele>606.0</ele><time>2026-05-03T07:40:05.998Z</time></trkpt><trkpt lat="44.33071372123495" lon="7.87676456893275"><ele>610.0</ele><time>2026-05-03T07:40:07.998Z</time></trkpt><trkpt lat="44.3307945748202" lon="7.876744228025977"><ele>614.0</ele><time>2026-05-03T07:40:08.998Z</time></trkpt><trkpt lat="44.33088762708744" lon="7.876716241019772"><ele>618.0</ele><time>2026-05-03T07:40:09.998Z</time></trkpt><trkpt lat="44.330984173172446" lon="7.876685552060974"><ele>622.0</ele><time>2026-05-03T07:40:10.998Z</time></trkpt><trkpt lat="44.33108047422946" lon="7.8766462207592305"><ele>626.0</ele><time>2026-05-03T07:40:11.998Z</time></trkpt><trkpt lat="44.33118016999548" lon="7.876588211441142"><ele>626.0</ele><time>2026-05-03T07:40:12.998Z</time></trkpt><trkpt lat="44.331293940345866" lon="7.876534306580442"><ele>626.0</ele><time>2026-05-03T07:40:13.998Z</time></trkpt><trkpt lat="44.331417081812496" lon="7.876480701468358"><ele>626.0</ele><time>2026-05-03T07:40:14.998Z</time></trkpt><trkpt lat="44.331538918155985" lon="7.876434986816089"><ele>626.0</ele><time>2026-05-03T07:40:15.998Z</time></trkpt><trkpt lat="44.33166192020394" lon="7.876377103590718"><ele>625.6</ele><time>2026-05-03T07:40:16.998Z</time></trkpt><trkpt lat="44.33178429906915" lon="7.876348840977625"><ele>625.2</ele><time>2026-05-03T07:40:17.998Z</time></trkpt><trkpt lat="44.33189679913427" lon="7.876302719907918"><ele>624.8</ele><time>2026-05-03T07:40:18.998Z</time></trkpt><trkpt lat="44.331982275350164" lon="7.876251584860605"><ele>624.4</ele><time>2026-05-03T07:40:19.998Z</time></trkpt><trkpt lat="44.33206858522407" lon="7.876210305276328"><ele>624.0</ele><time>2026-05-03T07:40:20.998Z</time></trkpt><trkpt lat="44.332139748653255" lon="7.876146752069827"><ele>624.0</ele><time>2026-05-03T07:40:21.998Z</time></trkpt><trkpt lat="44.33220256675104" lon="7.876075059811822"><ele>624.0</ele><time>2026-05-03T07:40:22.998Z</time></trkpt><trkpt lat="44.3322696823973" lon="7.8759929085892315"><ele>624.0</ele><time>2026-05-03T07:40:23.998Z</time></trkpt><trkpt lat="44.332331158334625" lon="7.875915077255029"><ele>624.0</ele><time>2026-05-03T07:40:24.998Z</time></trkpt><trkpt lat="44.33238278118355" lon="7.8758523910913505"><ele>624.0</ele><time>2026-05-03T07:40:25.998Z</time></trkpt><trkpt lat="44.332447087978494" lon="7.875725525269027"><ele>624.0</ele><time>2026-05-03T07:40:27.998Z</time></trkpt><trkpt lat="44.33241957991658" lon="7.875570409547006"><ele>627.1666666666666</ele><time>2026-05-03T07:40:29.998Z</time></trkpt><trkpt lat="44.332325744657325" lon="7.875501370972113"><ele>630.3333333333334</ele><time>2026-05-03T07:40:32Z</time></trkpt><trkpt lat="44.33224492872506" lon="7.875544561993152"><ele>633.5</ele><time>2026-05-03T07:40:33Z</time></trkpt><trkpt lat="44.33218612049901" lon="7.875610394318966"><ele>636.6666666666667</ele><time>2026-05-03T07:40:34Z</time></trkpt><trkpt lat="44.33212294421547" lon="7.875684655711358"><ele>639.8333333333334</ele><time>2026-05-03T07:40:35Z</time></trkpt><trkpt lat="44.33205735192907" lon="7.875750993717587"><ele>643.0</ele><time>2026-05-03T07:40:36Z</time></trkpt><trkpt lat="44.33197169028921" lon="7.87581489675882"><ele>644.0</ele><time>2026-05-03T07:40:37Z</time></trkpt><trkpt lat="44.33187914121628" lon="7.875855269340139"><ele>645.0</ele><time>2026-05-03T07:40:38Z</time></trkpt><trkpt lat="44.33178558621188" lon="7.875857946918178"><ele>646.0</ele><time>2026-05-03T07:40:39Z</time></trkpt><trkpt lat="44.331673725751656" lon="7.875852678424447"><ele>647.0</ele><time>2026-05-03T07:40:40Z</time></trkpt><trkpt lat="44.331566913960955" lon="7.875847525500571"><ele>648.0</ele><time>2026-05-03T07:40:41Z</time></trkpt><trkpt lat="44.33146011907743" lon="7.875836955123318"><ele>647.2</ele><time>2026-05-03T07:40:42Z</time></trkpt><trkpt lat="44.33136348303787" lon="7.875827553081467"><ele>646.4</ele><time>2026-05-03T07:40:43Z</time></trkpt><trkpt lat="44.33128968569915" lon="7.8757659320797995"><ele>645.6</ele><time>2026-05-03T07:40:44Z</time></trkpt><trkpt lat="44.331222089445205" lon="7.875683218555112"><ele>644.8000000000001</ele><time>2026-05-03T07:40:45Z</time></trkpt><trkpt lat="44.33117031119825" lon="7.875549727631977"><ele>644.0</ele><time>2026-05-03T07:40:46Z</time></trkpt><trkpt lat="44.33113837727178" lon="7.8754362111330884"><ele>644.0</ele><time>2026-05-03T07:40:47Z</time></trkpt><trkpt lat="44.33108572148395" lon="7.875341803008347"><ele>644.0</ele><time>2026-05-03T07:40:48Z</time></trkpt><trkpt lat="44.3310118469574" lon="7.875293660103399"><ele>644.0</ele><time>2026-05-03T07:40:49Z</time></trkpt><trkpt lat="44.330934025581534" lon="7.875222733935737"><ele>644.0</ele><time>2026-05-03T07:40:50Z</time></trkpt><trkpt lat="44.33082579207813" lon="7.875215632023726"><ele>644.0</ele><time>2026-05-03T07:40:51Z</time></trkpt><trkpt lat="44.330704709811606" lon="7.875227862112372"><ele>644.0</ele><time>2026-05-03T07:40:52Z</time></trkpt><trkpt lat="44.330593162553" lon="7.875248074307275"><ele>644.0</ele><time>2026-05-03T07:40:53Z</time></trkpt><trkpt lat="44.3304772872358" lon="7.875271965028963"><ele>644.0</ele><time>2026-05-03T07:40:54Z</time></trkpt><trkpt lat="44.33038233824844" lon="7.875283417212098"><ele>644.0</ele><time>2026-05-03T07:40:55Z</time></trkpt><trkpt lat="44.33028907146321" lon="7.875287151096294"><ele>644.0</ele><time>2026-05-03T07:40:56Z</time></trkpt><trkpt lat="44.330211016645826" lon="7.875272653031047"><ele>643.6</ele><time>2026-05-03T07:40:57Z</time></trkpt><trkpt lat="44.330139621972926" lon="7.875239689711783"><ele>643.2</ele><time>2026-05-03T07:40:58Z</time></trkpt><trkpt lat="44.3300644243786" lon="7.875194278930378"><ele>642.8000000000001</ele><time>2026-05-03T07:40:59Z</time></trkpt><trkpt lat="44.32999683534664" lon="7.87508737898111"><ele>642.4000000000001</ele><time>2026-05-03T07:41:00Z</time></trkpt><trkpt lat="44.329951141978306" lon="7.8749541463193085"><ele>642.0</ele><time>2026-05-03T07:41:01Z</time></trkpt><trkpt lat="44.329928628971324" lon="7.874802421478285"><ele>647.0</ele><time>2026-05-03T07:41:02Z</time></trkpt><trkpt lat="44.32992157364854" lon="7.874630405785395"><ele>652.0</ele><time>2026-05-03T07:41:03Z</time></trkpt><trkpt lat="44.329884023668434" lon="7.874459376712654"><ele>657.0</ele><time>2026-05-03T07:41:04Z</time></trkpt><trkpt lat="44.329817693942154" lon="7.874291072906268"><ele>662.0</ele><time>2026-05-03T07:41:05Z</time></trkpt><trkpt lat="44.32973788723235" lon="7.874124654275119"><ele>663.0</ele><time>2026-05-03T07:41:06Z</time></trkpt><trkpt lat="44.32967124776443" lon="7.873991942960171"><ele>664.0</ele><time>2026-05-03T07:41:07Z</time></trkpt><trkpt lat="44.329607601996926" lon="7.873858681328031"><ele>665.0</ele><time>2026-05-03T07:41:08Z</time></trkpt><trkpt lat="44.329576679222605" lon="7.873698850840188"><ele>666.0</ele><time>2026-05-03T07:41:09Z</time></trkpt><trkpt lat="44.32954587797815" lon="7.873575200966444"><ele>667.0</ele><time>2026-05-03T07:41:10Z</time></trkpt><trkpt lat="44.32950783140029" lon="7.873437089591618"><ele>669.75</ele><time>2026-05-03T07:41:11Z</time></trkpt><trkpt lat="44.32944408376026" lon="7.8732979594278145"><ele>672.5</ele><time>2026-05-03T07:41:12Z</time></trkpt><trkpt lat="44.32934162148553" lon="7.873183430510694"><ele>675.25</ele><time>2026-05-03T07:41:12.999Z</time></trkpt><trkpt lat="44.3292428963815" lon="7.873053929146372"><ele>678.0</ele><time>2026-05-03T07:41:13.999Z</time></trkpt><trkpt lat="44.329147932568524" lon="7.872922919737201"><ele>678.0</ele><time>2026-05-03T07:41:14.999Z</time></trkpt><trkpt lat="44.32906922118713" lon="7.8728018980946555"><ele>678.0</ele><time>2026-05-03T07:41:15.999Z</time></trkpt><trkpt lat="44.32903849717603" lon="7.872648154531797"><ele>678.0</ele><time>2026-05-03T07:41:16.999Z</time></trkpt><trkpt lat="44.328977904167765" lon="7.872564212157149"><ele>678.0</ele><time>2026-05-03T07:41:17.999Z</time></trkpt><trkpt lat="44.32892418594064" lon="7.872499775361003"><ele>678.0</ele><time>2026-05-03T07:41:18.999Z</time></trkpt><trkpt lat="44.32886134338566" lon="7.872441240614981"><ele>683.5999999999999</ele><time>2026-05-03T07:41:19.999Z</time></trkpt><trkpt lat="44.3287883933601" lon="7.872397918351786"><ele>689.1999999999999</ele><time>2026-05-03T07:41:20.999Z</time></trkpt><trkpt lat="44.328673315486455" lon="7.872367939247244"><ele>694.8</ele><time>2026-05-03T07:41:22.999Z</time></trkpt><trkpt lat="44.32859396030152" lon="7.872462775687385"><ele>700.4</ele><time>2026-05-03T07:41:24.999Z</time></trkpt><trkpt lat="44.32857474646365" lon="7.8725773238781835"><ele>706.0</ele><time>2026-05-03T07:41:26.999Z</time></trkpt><trkpt lat="44.32862579307911" lon="7.8726744131470765"><ele>706.1999999999999</ele><time>2026-05-03T07:41:28.999Z</time></trkpt><trkpt lat="44.328670631367416" lon="7.872832061361941"><ele>706.4</ele><time>2026-05-03T07:41:30.999Z</time></trkpt><trkpt lat="44.328713520172286" lon="7.872951012152787"><ele>706.6</ele><time>2026-05-03T07:41:31.999Z</time></trkpt><trkpt lat="44.32870112900289" lon="7.873090112791723"><ele>706.8</ele><time>2026-05-03T07:41:32.999Z</time></trkpt><trkpt lat="44.328696241043616" lon="7.873220598235073"><ele>707.0</ele><time>2026-05-03T07:41:33.999Z</time></trkpt><trkpt lat="44.328690618674884" lon="7.8733926930121045"><ele>705.8333333333333</ele><time>2026-05-03T07:41:34.999Z</time></trkpt><trkpt lat="44.32868327382338" lon="7.873572508975779"><ele>704.6666666666666</ele><time>2026-05-03T07:41:35.999Z</time></trkpt><trkpt lat="44.32867438195579" lon="7.873690060308339"><ele>703.5</ele><time>2026-05-03T07:41:36.999Z</time></trkpt><trkpt lat="44.32866818397027" lon="7.8738119500258605"><ele>702.3333333333334</ele><time>2026-05-03T07:41:37.999Z</time></trkpt><trkpt lat="44.32866565130093" lon="7.873902179720259"><ele>701.1666666666667</ele><time>2026-05-03T07:41:38.999Z</time></trkpt><trkpt lat="44.328644079089464" lon="7.873995466280673"><ele>700.0</ele><time>2026-05-03T07:41:39.999Z</time></trkpt><trkpt lat="44.328602207158646" lon="7.874097050404077"><ele>700.0</ele><time>2026-05-03T07:41:40.999Z</time></trkpt><trkpt lat="44.32854009726566" lon="7.8741770681352286"><ele>700.0</ele><time>2026-05-03T07:41:41.999Z</time></trkpt><trkpt lat="44.328447631850565" lon="7.874255293461708"><ele>700.0</ele><time>2026-05-03T07:41:42.999Z</time></trkpt><trkpt lat="44.32836748745633" lon="7.874333837391276"><ele>700.0</ele><time>2026-05-03T07:41:43.999Z</time></trkpt><trkpt lat="44.32831041401197" lon="7.874405864315478"><ele>700.0</ele><time>2026-05-03T07:41:44.999Z</time></trkpt><trkpt lat="44.328260140995326" lon="7.8745119460592665"><ele>697.1666666666667</ele><time>2026-05-03T07:41:45.999Z</time></trkpt><trkpt lat="44.328224860566145" lon="7.874619144307899"><ele>694.3333333333334</ele><time>2026-05-03T07:41:46.999Z</time></trkpt><trkpt lat="44.328201130942105" lon="7.87471006996577"><ele>691.5</ele><time>2026-05-03T07:41:47.999Z</time></trkpt><trkpt lat="44.32813167918888" lon="7.874833432607338"><ele>688.6666666666666</ele><time>2026-05-03T07:41:49.999Z</time></trkpt><trkpt lat="44.328033612451804" lon="7.874848176311667"><ele>685.8333333333333</ele><time>2026-05-03T07:41:51.999Z</time></trkpt><trkpt lat="44.327969476129596" lon="7.874833024852356"><ele>683.0</ele><time>2026-05-03T07:41:52.999Z</time></trkpt><trkpt lat="44.32788648830055" lon="7.874830764241104"><ele>682.8333333333333</ele><time>2026-05-03T07:41:53.999Z</time></trkpt><trkpt lat="44.32780940401651" lon="7.874810022573377"><ele>682.6666666666666</ele><time>2026-05-03T07:41:54.999Z</time></trkpt><trkpt lat="44.32775421218471" lon="7.874752175733078"><ele>682.5</ele><time>2026-05-03T07:41:55.999Z</time></trkpt><trkpt lat="44.327690990898056" lon="7.8746852653703066"><ele>682.3333333333334</ele><time>2026-05-03T07:41:56.999Z</time></trkpt><trkpt lat="44.32763283612282" lon="7.874588234606286"><ele>682.1666666666667</ele><time>2026-05-03T07:41:57.999Z</time></trkpt><trkpt lat="44.32757735613508" lon="7.874481401988526"><ele>682.0</ele><time>2026-05-03T07:41:58.999Z</time></trkpt><trkpt lat="44.3275245190956" lon="7.87436824118755"><ele>684.8333333333334</ele><time>2026-05-03T07:41:59.999Z</time></trkpt><trkpt lat="44.327466461537895" lon="7.8742393652502525"><ele>687.6666666666667</ele><time>2026-05-03T07:42:00.999Z</time></trkpt><trkpt lat="44.327423403135214" lon="7.874130573110198"><ele>690.5</ele><time>2026-05-03T07:42:01.999Z</time></trkpt><trkpt lat="44.32738732352322" lon="7.874038553004971"><ele>693.3333333333334</ele><time>2026-05-03T07:42:02.999Z</time></trkpt><trkpt lat="44.32735569810267" lon="7.8739324276166895"><ele>696.1666666666666</ele><time>2026-05-03T07:42:03.999Z</time></trkpt><trkpt lat="44.327332726957124" lon="7.873821259334463"><ele>699.0</ele><time>2026-05-03T07:42:04.999Z</time></trkpt><trkpt lat="44.3273051947674" lon="7.873702083864889"><ele>699.0</ele><time>2026-05-03T07:42:05.999Z</time></trkpt><trkpt lat="44.32727861013335" lon="7.873597091669725"><ele>699.0</ele><time>2026-05-03T07:42:06.999Z</time></trkpt><trkpt lat="44.32724389574766" lon="7.873484384120932"><ele>699.0</ele><time>2026-05-03T07:42:07.999Z</time></trkpt><trkpt lat="44.32721357813932" lon="7.873360292597385"><ele>699.0</ele><time>2026-05-03T07:42:08.999Z</time></trkpt><trkpt lat="44.32718022357767" lon="7.8732399896573595"><ele>699.0</ele><time>2026-05-03T07:42:09.998Z</time></trkpt><trkpt lat="44.32714081661018" lon="7.873119937877051"><ele>699.0</ele><time>2026-05-03T07:42:10.998Z</time></trkpt><trkpt lat="44.327124045199675" lon="7.873016827102276"><ele>697.0</ele><time>2026-05-03T07:42:11.998Z</time></trkpt><trkpt lat="44.32707733628906" lon="7.872892363012958"><ele>695.0</ele><time>2026-05-03T07:42:12.998Z</time></trkpt><trkpt lat="44.327029082435544" lon="7.8727828789058"><ele>693.0</ele><time>2026-05-03T07:42:13.998Z</time></trkpt><trkpt lat="44.32698167828376" lon="7.872694037173964"><ele>691.0</ele><time>2026-05-03T07:42:14.998Z</time></trkpt><trkpt lat="44.32691775971865" lon="7.87262031274941"><ele>689.0</ele><time>2026-05-03T07:42:15.998Z</time></trkpt><trkpt lat="44.32684916810751" lon="7.872558471854067"><ele>687.0</ele><time>2026-05-03T07:42:16.998Z</time></trkpt><trkpt lat="44.326766080533815" lon="7.8725248198667845"><ele>687.5</ele><time>2026-05-03T07:42:17.998Z</time></trkpt><trkpt lat="44.326680586569324" lon="7.8724954120805135"><ele>688.0</ele><time>2026-05-03T07:42:18.998Z</time></trkpt><trkpt lat="44.326596232458904" lon="7.8724714073000435"><ele>688.5</ele><time>2026-05-03T07:42:19.998Z</time></trkpt><trkpt lat="44.326511631523836" lon="7.8724541622162585"><ele>689.0</ele><time>2026-05-03T07:42:20.998Z</time></trkpt><trkpt lat="44.32643169472544" lon="7.8724266733849815"><ele>689.5</ele><time>2026-05-03T07:42:21.998Z</time></trkpt><trkpt lat="44.32635187238826" lon="7.8723689100200955"><ele>690.0</ele><time>2026-05-03T07:42:22.998Z</time></trkpt><trkpt lat="44.32626977047375" lon="7.872275631316318"><ele>690.0</ele><time>2026-05-03T07:42:23.998Z</time></trkpt><trkpt lat="44.32620112326209" lon="7.872154221801841"><ele>690.0</ele><time>2026-05-03T07:42:24.998Z</time></trkpt><trkpt lat="44.326139964352436" lon="7.872028957810267"><ele>690.0</ele><time>2026-05-03T07:42:25.998Z</time></trkpt><trkpt lat="44.32608617580414" lon="7.871875016381145"><ele>690.0</ele><time>2026-05-03T07:42:26.998Z</time></trkpt><trkpt lat="44.32602550057472" lon="7.8717463363583695"><ele>692.8</ele><time>2026-05-03T07:42:27.998Z</time></trkpt><trkpt lat="44.325992360613775" lon="7.871614499393367"><ele>695.6</ele><time>2026-05-03T07:42:28.998Z</time></trkpt><trkpt lat="44.32598034054767" lon="7.871446187710699"><ele>698.4000000000001</ele><time>2026-05-03T07:42:29.998Z</time></trkpt><trkpt lat="44.32596606271256" lon="7.8712881221758515"><ele>701.2</ele><time>2026-05-03T07:42:30.998Z</time></trkpt><trkpt lat="44.325914686608385" lon="7.8711541222973125"><ele>704.0</ele><time>2026-05-03T07:42:31.998Z</time></trkpt><trkpt lat="44.325841664590705" lon="7.871025197841202"><ele>708.25</ele><time>2026-05-03T07:42:32.998Z</time></trkpt><trkpt lat="44.325755068796575" lon="7.8709081302561685"><ele>712.5</ele><time>2026-05-03T07:42:33.998Z</time></trkpt><trkpt lat="44.32568652728231" lon="7.8707844735758385"><ele>716.75</ele><time>2026-05-03T07:42:34.998Z</time></trkpt><trkpt lat="44.325632265950794" lon="7.870629773580946"><ele>721.0</ele><time>2026-05-03T07:42:35.998Z</time></trkpt><trkpt lat="44.3255865661401" lon="7.870457402347025"><ele>720.5</ele><time>2026-05-03T07:42:37Z</time></trkpt><trkpt lat="44.32554654059769" lon="7.870304221474424"><ele>720.0</ele><time>2026-05-03T07:42:38Z</time></trkpt><trkpt lat="44.32550034419872" lon="7.870173980343709"><ele>719.5</ele><time>2026-05-03T07:42:39Z</time></trkpt><trkpt lat="44.32543585741679" lon="7.870039940491212"><ele>719.0</ele><time>2026-05-03T07:42:40Z</time></trkpt><trkpt lat="44.325359021402924" lon="7.86992146368509"><ele>719.0</ele><time>2026-05-03T07:42:41Z</time></trkpt><trkpt lat="44.325283018163915" lon="7.8698036511275875"><ele>719.0</ele><time>2026-05-03T07:42:42Z</time></trkpt><trkpt lat="44.325185932464805" lon="7.869711785946948"><ele>719.0</ele><time>2026-05-03T07:42:43Z</time></trkpt><trkpt lat="44.32506163563831" lon="7.86966727825866"><ele>719.0</ele><time>2026-05-03T07:42:44Z</time></trkpt><trkpt lat="44.324945297115825" lon="7.869626415168657"><ele>719.0</ele><time>2026-05-03T07:42:45Z</time></trkpt><trkpt lat="44.32484935744034" lon="7.86958378851091"><ele>719.0</ele><time>2026-05-03T07:42:46Z</time></trkpt><trkpt lat="44.32475565763689" lon="7.869526470923935"><ele>719.0</ele><time>2026-05-03T07:42:47Z</time></trkpt><trkpt lat="44.324656744555334" lon="7.869450048278211"><ele>719.0</ele><time>2026-05-03T07:42:48Z</time></trkpt><trkpt lat="44.32456182610779" lon="7.8693507373141385"><ele>719.0</ele><time>2026-05-03T07:42:49Z</time></trkpt><trkpt lat="44.32447861753378" lon="7.86923512709598"><ele>721.6</ele><time>2026-05-03T07:42:50Z</time></trkpt><trkpt lat="44.3244057233513" lon="7.869141999284488"><ele>724.2</ele><time>2026-05-03T07:42:51Z</time></trkpt><trkpt lat="44.32432877144156" lon="7.86903435920619"><ele>726.8000000000001</ele><time>2026-05-03T07:42:52Z</time></trkpt><trkpt lat="44.324211458584884" lon="7.8690018761229465"><ele>729.4000000000001</ele><time>2026-05-03T07:42:53Z</time></trkpt><trkpt lat="44.32409185969861" lon="7.868978351962855"><ele>732.0</ele><time>2026-05-03T07:42:54Z</time></trkpt><trkpt lat="44.32396151722938" lon="7.868964610106725"><ele>733.2</ele><time>2026-05-03T07:42:55Z</time></trkpt><trkpt lat="44.323852376022515" lon="7.868939941977692"><ele>734.4000000000001</ele><time>2026-05-03T07:42:56Z</time></trkpt><trkpt lat="44.323739896403175" lon="7.868909913567906"><ele>735.5999999999999</ele><time>2026-05-03T07:42:57Z</time></trkpt><trkpt lat="44.32362977479039" lon="7.868905173732179"><ele>736.8</ele><time>2026-05-03T07:42:58Z</time></trkpt><trkpt lat="44.32353340957503" lon="7.868925713411555"><ele>738.0</ele><time>2026-05-03T07:42:59Z</time></trkpt><trkpt lat="44.3234428812376" lon="7.868937204376632"><ele>738.0</ele><time>2026-05-03T07:43:00Z</time></trkpt><trkpt lat="44.32336252342527" lon="7.868949327533812"><ele>738.0</ele><time>2026-05-03T07:43:01Z</time></trkpt><trkpt lat="44.32328679898474" lon="7.868923604349647"><ele>738.0</ele><time>2026-05-03T07:43:02Z</time></trkpt><trkpt lat="44.32322874178914" lon="7.868825284434461"><ele>738.0</ele><time>2026-05-03T07:43:03Z</time></trkpt><trkpt lat="44.323162277325586" lon="7.868734094084269"><ele>738.0</ele><time>2026-05-03T07:43:04Z</time></trkpt><trkpt lat="44.32308480519231" lon="7.8686531449809785"><ele>738.0</ele><time>2026-05-03T07:43:05Z</time></trkpt><trkpt lat="44.32301243254886" lon="7.868553138115244"><ele>740.75</ele><time>2026-05-03T07:43:06Z</time></trkpt><trkpt lat="44.32292716218956" lon="7.868443249565529"><ele>743.5</ele><time>2026-05-03T07:43:07Z</time></trkpt><trkpt lat="44.322840629625354" lon="7.868329438722654"><ele>746.25</ele><time>2026-05-03T07:43:08Z</time></trkpt><trkpt lat="44.32277210014316" lon="7.868214610039183"><ele>749.0</ele><time>2026-05-03T07:43:09Z</time></trkpt><trkpt lat="44.32270436140963" lon="7.868089983301136"><ele>750.4000000000001</ele><time>2026-05-03T07:43:10Z</time></trkpt><trkpt lat="44.32266559881037" lon="7.867938509707183"><ele>751.8</ele><time>2026-05-03T07:43:11Z</time></trkpt><trkpt lat="44.322618103826855" lon="7.867824353381714"><ele>753.2</ele><time>2026-05-03T07:43:12Z</time></trkpt><trkpt lat="44.32260166763952" lon="7.867705069717391"><ele>754.5999999999999</ele><time>2026-05-03T07:43:13Z</time></trkpt><trkpt lat="44.3226082340876" lon="7.86760151558199"><ele>756.0</ele><time>2026-05-03T07:43:14Z</time></trkpt><trkpt lat="44.322630160799875" lon="7.867495317271372"><ele>756.0</ele><time>2026-05-03T07:43:15Z</time></trkpt><trkpt lat="44.32266281128853" lon="7.8674103014626455"><ele>756.0</ele><time>2026-05-03T07:43:16Z</time></trkpt><trkpt lat="44.32268416932304" lon="7.867267523565634"><ele>756.0</ele><time>2026-05-03T07:43:18Z</time></trkpt><trkpt lat="44.32263443496211" lon="7.867147748861084"><ele>756.0</ele><time>2026-05-03T07:43:19.999Z</time></trkpt><trkpt lat="44.32256360992442" lon="7.867149349974558"><ele>756.0</ele><time>2026-05-03T07:43:20.999Z</time></trkpt><trkpt lat="44.32251199147494" lon="7.867223589632801"><ele>756.0</ele><time>2026-05-03T07:43:21.999Z</time></trkpt><trkpt lat="44.32247712833348" lon="7.867311414082815"><ele>756.0</ele><time>2026-05-03T07:43:22.999Z</time></trkpt><trkpt lat="44.32245431582509" lon="7.867423583910321"><ele>756.0</ele><time>2026-05-03T07:43:23.999Z</time></trkpt><trkpt lat="44.322425000133705" lon="7.8675447567581385"><ele>756.0</ele><time>2026-05-03T07:43:24.999Z</time></trkpt><trkpt lat="44.32239975949459" lon="7.86769768017817"><ele>756.0</ele><time>2026-05-03T07:43:25.999Z</time></trkpt><trkpt lat="44.32239098342882" lon="7.867845687964054"><ele>756.0</ele><time>2026-05-03T07:43:26.999Z</time></trkpt><trkpt lat="44.32239355011098" lon="7.867986973421833"><ele>756.1666666666666</ele><time>2026-05-03T07:43:27.999Z</time></trkpt><trkpt lat="44.32240170852225" lon="7.868100498658926"><ele>756.3333333333334</ele><time>2026-05-03T07:43:28.999Z</time></trkpt><trkpt lat="44.32239671482569" lon="7.868244078893378"><ele>756.5</ele><time>2026-05-03T07:43:30.999Z</time></trkpt><trkpt lat="44.32232956334638" lon="7.868297944280223"><ele>756.6666666666667</ele><time>2026-05-03T07:43:32.999Z</time></trkpt><trkpt lat="44.32225122871377" lon="7.86827609888137"><ele>756.8333333333334</ele><time>2026-05-03T07:43:34.999Z</time></trkpt><trkpt lat="44.32221966312758" lon="7.868173190657399"><ele>757.0</ele><time>2026-05-03T07:43:35.999Z</time></trkpt><trkpt lat="44.322191909987986" lon="7.868066659086862"><ele>761.6</ele><time>2026-05-03T07:43:36.999Z</time></trkpt><trkpt lat="44.32215230018822" lon="7.867954627185957"><ele>766.2</ele><time>2026-05-03T07:43:37.999Z</time></trkpt><trkpt lat="44.32212557957431" lon="7.867810013319759"><ele>770.8</ele><time>2026-05-03T07:43:38.999Z</time></trkpt><trkpt lat="44.322121237054645" lon="7.8676690274354355"><ele>775.4</ele><time>2026-05-03T07:43:39.999Z</time></trkpt><trkpt lat="44.32213375245067" lon="7.867552434355418"><ele>780.0</ele><time>2026-05-03T07:43:40.999Z</time></trkpt><trkpt lat="44.32216886396991" lon="7.867425571820864"><ele>781.0</ele><time>2026-05-03T07:43:41.999Z</time></trkpt><trkpt lat="44.322230610784274" lon="7.8673113271977035"><ele>782.0</ele><time>2026-05-03T07:43:42.999Z</time></trkpt><trkpt lat="44.32226584990187" lon="7.867177537704683"><ele>783.0</ele><time>2026-05-03T07:43:43.999Z</time></trkpt><trkpt lat="44.32230460649361" lon="7.867081979425585"><ele>784.0</ele><time>2026-05-03T07:43:44.999Z</time></trkpt><trkpt lat="44.32233765734685" lon="7.867003455589003"><ele>785.0</ele><time>2026-05-03T07:43:45.999Z</time></trkpt><trkpt lat="44.322379870189636" lon="7.866846908008385"><ele>783.6</ele><time>2026-05-03T07:43:47.999Z</time></trkpt><trkpt lat="44.322344568124514" lon="7.866762258840333"><ele>782.2</ele><time>2026-05-03T07:43:48.999Z</time></trkpt><trkpt lat="44.32224064045355" lon="7.866646091247588"><ele>780.8</ele><time>2026-05-03T07:43:50.999Z</time></trkpt><trkpt lat="44.32216405208197" lon="7.866626953845516"><ele>779.4</ele><time>2026-05-03T07:43:51.999Z</time></trkpt><trkpt lat="44.322071043716754" lon="7.866614876983029"><ele>778.0</ele><time>2026-05-03T07:43:52.999Z</time></trkpt><trkpt lat="44.321961307573744" lon="7.8665992074460975"><ele>778.0</ele><time>2026-05-03T07:43:53.999Z</time></trkpt><trkpt lat="44.321842116895155" lon="7.866580305203172"><ele>778.0</ele><time>2026-05-03T07:43:54.999Z</time></trkpt><trkpt lat="44.32171511778642" lon="7.866549760774512"><ele>778.0</ele><time>2026-05-03T07:43:55.999Z</time></trkpt><trkpt lat="44.32159321868942" lon="7.8665065142789095"><ele>778.0</ele><time>2026-05-03T07:43:56.999Z</time></trkpt><trkpt lat="44.321482973986384" lon="7.866441429604084"><ele>782.25</ele><time>2026-05-03T07:43:57.999Z</time></trkpt><trkpt lat="44.32136276498901" lon="7.866338821161241"><ele>786.5</ele><time>2026-05-03T07:43:58.999Z</time></trkpt><trkpt lat="44.321242968896144" lon="7.8662258561263805"><ele>790.75</ele><time>2026-05-03T07:43:59.999Z</time></trkpt><trkpt lat="44.32110997584131" lon="7.866122596368519"><ele>795.0</ele><time>2026-05-03T07:44:00.999Z</time></trkpt><trkpt lat="44.320966614439705" lon="7.866050151247827"><ele>795.0</ele><time>2026-05-03T07:44:01.999Z</time></trkpt><trkpt lat="44.32084729368476" lon="7.866000750957903"><ele>795.0</ele><time>2026-05-03T07:44:02.999Z</time></trkpt><trkpt lat="44.32074585109127" lon="7.865919413307147"><ele>795.0</ele><time>2026-05-03T07:44:03.999Z</time></trkpt><trkpt lat="44.32064574646449" lon="7.86583080605528"><ele>795.0</ele><time>2026-05-03T07:44:04.999Z</time></trkpt><trkpt lat="44.32053724736342" lon="7.865736960055052"><ele>794.5</ele><time>2026-05-03T07:44:05.999Z</time></trkpt><trkpt lat="44.32043791905341" lon="7.8656309643907125"><ele>794.0</ele><time>2026-05-03T07:44:06.999Z</time></trkpt><trkpt lat="44.32035710254114" lon="7.865527473277205"><ele>793.5</ele><time>2026-05-03T07:44:07.999Z</time></trkpt><trkpt lat="44.320278152747335" lon="7.865407933227937"><ele>793.0</ele><time>2026-05-03T07:44:08.999Z</time></trkpt><trkpt lat="44.32021140894022" lon="7.865290086507515"><ele>792.9999999999999</ele><time>2026-05-03T07:44:09.999Z</time></trkpt><trkpt lat="44.32017544181532" lon="7.865172407416063"><ele>793.0</ele><time>2026-05-03T07:44:10.999Z</time></trkpt><trkpt lat="44.3201414381647" lon="7.865073634126612"><ele>793.0</ele><time>2026-05-03T07:44:11.999Z</time></trkpt><trkpt lat="44.32009135666197" lon="7.864997324510897"><ele>793.0</ele><time>2026-05-03T07:44:12.999Z</time></trkpt><trkpt lat="44.32003695781371" lon="7.864939416377077"><ele>792.9999999999999</ele><time>2026-05-03T07:44:13.999Z</time></trkpt><trkpt lat="44.31997689277208" lon="7.864903242711309"><ele>793.0</ele><time>2026-05-03T07:44:14.999Z</time></trkpt><trkpt lat="44.319895103486985" lon="7.864878960079329"><ele>790.6666666666666</ele><time>2026-05-03T07:44:15.998Z</time></trkpt><trkpt lat="44.31981788181776" lon="7.864860316086176"><ele>788.3333333333333</ele><time>2026-05-03T07:44:16.998Z</time></trkpt><trkpt lat="44.31975427647509" lon="7.864811664816828"><ele>786.0</ele><time>2026-05-03T07:44:17.998Z</time></trkpt><trkpt lat="44.319693669510265" lon="7.864768999703061"><ele>783.6666666666667</ele><time>2026-05-03T07:44:18.998Z</time></trkpt><trkpt lat="44.319635426583666" lon="7.864718211301297"><ele>781.3333333333334</ele><time>2026-05-03T07:44:19.998Z</time></trkpt><trkpt lat="44.319585811164416" lon="7.864663785047824"><ele>779.0</ele><time>2026-05-03T07:44:20.998Z</time></trkpt><trkpt lat="44.319494346841886" lon="7.864522346062766"><ele>777.5000000000001</ele><time>2026-05-03T07:44:22.998Z</time></trkpt><trkpt lat="44.31944944683783" lon="7.864441788939123"><ele>776.0</ele><time>2026-05-03T07:44:23.998Z</time></trkpt><trkpt lat="44.319411807867176" lon="7.864345562266269"><ele>774.5</ele><time>2026-05-03T07:44:24.998Z</time></trkpt><trkpt lat="44.31936422483488" lon="7.864221854369928"><ele>773.0</ele><time>2026-05-03T07:44:25.998Z</time></trkpt><trkpt lat="44.31930256937557" lon="7.8641077473112"><ele>771.5000000000001</ele><time>2026-05-03T07:44:26.998Z</time></trkpt><trkpt lat="44.319256650482735" lon="7.863994611389213"><ele>770.0</ele><time>2026-05-03T07:44:27.998Z</time></trkpt><trkpt lat="44.319230204729664" lon="7.863879105034905"><ele>770.0000000000001</ele><time>2026-05-03T07:44:28.998Z</time></trkpt><trkpt lat="44.319193743698435" lon="7.863771998996867"><ele>770.0</ele><time>2026-05-03T07:44:29.998Z</time></trkpt><trkpt lat="44.31916563186867" lon="7.863675705833859"><ele>770.0</ele><time>2026-05-03T07:44:30.998Z</time></trkpt><trkpt lat="44.31913959444733" lon="7.8635825653227585"><ele>770.0</ele><time>2026-05-03T07:44:31.998Z</time></trkpt><trkpt lat="44.31911087523353" lon="7.863471839029583"><ele>770.0000000000001</ele><time>2026-05-03T07:44:32.998Z</time></trkpt><trkpt lat="44.31908443663959" lon="7.863356895403139"><ele>770.0</ele><time>2026-05-03T07:44:33.998Z</time></trkpt><trkpt lat="44.31905804116201" lon="7.863251222664335"><ele>769.6666666666667</ele><time>2026-05-03T07:44:34.998Z</time></trkpt><trkpt lat="44.31903685918943" lon="7.863151141114173"><ele>769.3333333333334</ele><time>2026-05-03T07:44:35.998Z</time></trkpt><trkpt lat="44.3190155390793" lon="7.863052307134635"><ele>769.0</ele><time>2026-05-03T07:44:36.998Z</time></trkpt><trkpt lat="44.318986955978936" lon="7.862952648717153"><ele>768.6666666666667</ele><time>2026-05-03T07:44:37.998Z</time></trkpt><trkpt lat="44.31894353156712" lon="7.862840680029838"><ele>768.3333333333334</ele><time>2026-05-03T07:44:38.998Z</time></trkpt><trkpt lat="44.318884682733064" lon="7.862737604927438"><ele>768.0</ele><time>2026-05-03T07:44:39.998Z</time></trkpt><trkpt lat="44.318830246973185" lon="7.86264864570958"><ele>766.1666666666666</ele><time>2026-05-03T07:44:40.998Z</time></trkpt><trkpt lat="44.3187663358449" lon="7.862589108501364"><ele>764.3333333333334</ele><time>2026-05-03T07:44:41.998Z</time></trkpt><trkpt lat="44.31871141425763" lon="7.862510381831776"><ele>762.5</ele><time>2026-05-03T07:44:43Z</time></trkpt><trkpt lat="44.31865622516814" lon="7.862420726905762"><ele>760.6666666666667</ele><time>2026-05-03T07:44:44Z</time></trkpt><trkpt lat="44.318601643073784" lon="7.862315138967695"><ele>758.8333333333334</ele><time>2026-05-03T07:44:45Z</time></trkpt><trkpt lat="44.318550227001786" lon="7.862191540572667"><ele>757.0</ele><time>2026-05-03T07:44:46Z</time></trkpt><trkpt lat="44.3184993062103" lon="7.862065109495755"><ele>757.0</ele><time>2026-05-03T07:44:47Z</time></trkpt><trkpt lat="44.31844468635549" lon="7.861931427568677"><ele>757.0</ele><time>2026-05-03T07:44:48Z</time></trkpt><trkpt lat="44.31838684777921" lon="7.8617899909935804"><ele>757.0</ele><time>2026-05-03T07:44:49Z</time></trkpt><trkpt lat="44.31834796288462" lon="7.861640218086519"><ele>757.0</ele><time>2026-05-03T07:44:50Z</time></trkpt><trkpt lat="44.31830081817557" lon="7.8615048687265086"><ele>757.0</ele><time>2026-05-03T07:44:51Z</time></trkpt><trkpt lat="44.31827011022236" lon="7.861371761082398"><ele>756.8333333333334</ele><time>2026-05-03T07:44:52Z</time></trkpt><trkpt lat="44.31824189770148" lon="7.861243864363685"><ele>756.6666666666667</ele><time>2026-05-03T07:44:53Z</time></trkpt><trkpt lat="44.31821142790501" lon="7.861131597177952"><ele>756.5</ele><time>2026-05-03T07:44:54Z</time></trkpt><trkpt lat="44.31818303903862" lon="7.861023284712761"><ele>756.3333333333334</ele><time>2026-05-03T07:44:55Z</time></trkpt><trkpt lat="44.31814996266333" lon="7.860915555043684"><ele>756.1666666666666</ele><time>2026-05-03T07:44:56Z</time></trkpt><trkpt lat="44.31810136609231" lon="7.8608161912084835"><ele>756.0</ele><time>2026-05-03T07:44:57Z</time></trkpt><trkpt lat="44.31804092727056" lon="7.860724447992563"><ele>756.0</ele><time>2026-05-03T07:44:58Z</time></trkpt><trkpt lat="44.31797144314422" lon="7.860658657061198"><ele>756.0</ele><time>2026-05-03T07:44:59Z</time></trkpt><trkpt lat="44.31790415037582" lon="7.860608462835509"><ele>756.0</ele><time>2026-05-03T07:45:00Z</time></trkpt><trkpt lat="44.317839869103736" lon="7.860562162036766"><ele>756.0</ele><time>2026-05-03T07:45:01Z</time></trkpt><trkpt lat="44.31777265213087" lon="7.860509676350123"><ele>756.0</ele><time>2026-05-03T07:45:02Z</time></trkpt><trkpt lat="44.317701340716724" lon="7.8604450128113745"><ele>756.0</ele><time>2026-05-03T07:45:03Z</time></trkpt><trkpt lat="44.31763417292396" lon="7.8603748342414805"><ele>756.0</ele><time>2026-05-03T07:45:04Z</time></trkpt><trkpt lat="44.31757468490438" lon="7.860281386021701"><ele>756.0</ele><time>2026-05-03T07:45:05Z</time></trkpt><trkpt lat="44.317507828307406" lon="7.860201550938066"><ele>756.0</ele><time>2026-05-03T07:45:06Z</time></trkpt><trkpt lat="44.31744791412679" lon="7.860122981968006"><ele>756.0</ele><time>2026-05-03T07:45:07Z</time></trkpt><trkpt lat="44.31737479149626" lon="7.860058162449934"><ele>756.0</ele><time>2026-05-03T07:45:08Z</time></trkpt><trkpt lat="44.31729885106742" lon="7.8600005268667665"><ele>756.0</ele><time>2026-05-03T07:45:09Z</time></trkpt><trkpt lat="44.31720954616925" lon="7.859959285714516"><ele>756.1999999999999</ele><time>2026-05-03T07:45:10Z</time></trkpt><trkpt lat="44.31711254819275" lon="7.8599293300263575"><ele>756.4</ele><time>2026-05-03T07:45:11Z</time></trkpt><trkpt lat="44.317007780928066" lon="7.859895666617305"><ele>756.6</ele><time>2026-05-03T07:45:12Z</time></trkpt><trkpt lat="44.316900063548104" lon="7.859866441240372"><ele>756.8</ele><time>2026-05-03T07:45:13Z</time></trkpt><trkpt lat="44.316792710344444" lon="7.859838967217596"><ele>757.0</ele><time>2026-05-03T07:45:14Z</time></trkpt><trkpt lat="44.31669336998562" lon="7.859809185902093"><ele>757.0</ele><time>2026-05-03T07:45:15Z</time></trkpt><trkpt lat="44.31659437083542" lon="7.859787529261673"><ele>757.0</ele><time>2026-05-03T07:45:16Z</time></trkpt><trkpt lat="44.31650414081027" lon="7.859759916902624"><ele>757.0</ele><time>2026-05-03T07:45:17Z</time></trkpt><trkpt lat="44.316412236965895" lon="7.859722860699706"><ele>757.0</ele><time>2026-05-03T07:45:18Z</time></trkpt><trkpt lat="44.3163282606034" lon="7.859667126148093"><ele>757.0</ele><time>2026-05-03T07:45:19Z</time></trkpt><trkpt lat="44.31624852805291" lon="7.859602837262052"><ele>756.6</ele><time>2026-05-03T07:45:20Z</time></trkpt><trkpt lat="44.31617470112999" lon="7.859516703158362"><ele>756.2</ele><time>2026-05-03T07:45:21Z</time></trkpt><trkpt lat="44.31610429503709" lon="7.859416228217698"><ele>755.8</ele><time>2026-05-03T07:45:22Z</time></trkpt><trkpt lat="44.31603684694608" lon="7.859316243848073"><ele>755.4</ele><time>2026-05-03T07:45:23Z</time></trkpt><trkpt lat="44.31596472641442" lon="7.8592165736804205"><ele>755.0</ele><time>2026-05-03T07:45:24Z</time></trkpt><trkpt lat="44.315893776336814" lon="7.859128597438555"><ele>755.0</ele><time>2026-05-03T07:45:25Z</time></trkpt><trkpt lat="44.31582965835252" lon="7.859040242566629"><ele>755.0</ele><time>2026-05-03T07:45:25.999Z</time></trkpt><trkpt lat="44.31576217759902" lon="7.858964786250101"><ele>755.0</ele><time>2026-05-03T07:45:26.999Z</time></trkpt><trkpt lat="44.315688369678384" lon="7.858889935658198"><ele>755.0</ele><time>2026-05-03T07:45:27.999Z</time></trkpt><trkpt lat="44.3156115282912" lon="7.858816321905017"><ele>755.0</ele><time>2026-05-03T07:45:28.999Z</time></trkpt><trkpt lat="44.3155359138687" lon="7.8587488255851365"><ele>756.4</ele><time>2026-05-03T07:45:29.999Z</time></trkpt><trkpt lat="44.31545345631361" lon="7.858685753081764"><ele>757.8</ele><time>2026-05-03T07:45:30.999Z</time></trkpt><trkpt lat="44.31537393475386" lon="7.858612998024295"><ele>759.2</ele><time>2026-05-03T07:45:31.999Z</time></trkpt><trkpt lat="44.31530259209636" lon="7.858532302300838"><ele>760.6</ele><time>2026-05-03T07:45:32.999Z</time></trkpt><trkpt lat="44.31524194539428" lon="7.858435322414241"><ele>762.0</ele><time>2026-05-03T07:45:33.999Z</time></trkpt><trkpt lat="44.31518674127643" lon="7.858317753288874"><ele>764.2</ele><time>2026-05-03T07:45:34.999Z</time></trkpt><trkpt lat="44.31514958630846" lon="7.858188102954996"><ele>766.4000000000001</ele><time>2026-05-03T07:45:35.999Z</time></trkpt><trkpt lat="44.31512788213" lon="7.858064840542825"><ele>768.5999999999999</ele><time>2026-05-03T07:45:36.999Z</time></trkpt><trkpt lat="44.315111991351564" lon="7.857914702846697"><ele>770.8</ele><time>2026-05-03T07:45:37.999Z</time></trkpt><trkpt lat="44.315142132346594" lon="7.857743172301914"><ele>773.0</ele><time>2026-05-03T07:45:38.999Z</time></trkpt><trkpt lat="44.31517772410438" lon="7.857594087973477"><ele>773.8333333333334</ele><time>2026-05-03T07:45:39.999Z</time></trkpt><trkpt lat="44.31520375874749" lon="7.857469611081945"><ele>774.6666666666667</ele><time>2026-05-03T07:45:40.999Z</time></trkpt><trkpt lat="44.315233788625534" lon="7.857368440249716"><ele>775.5</ele><time>2026-05-03T07:45:41.999Z</time></trkpt><trkpt lat="44.315255318453694" lon="7.857283688538982"><ele>776.3333333333333</ele><time>2026-05-03T07:45:42.999Z</time></trkpt><trkpt lat="44.31524433225996" lon="7.857155330374949"><ele>777.1666666666666</ele><time>2026-05-03T07:45:44.999Z</time></trkpt><trkpt lat="44.31517181137044" lon="7.857106675026346"><ele>778.0</ele><time>2026-05-03T07:45:46.999Z</time></trkpt><trkpt lat="44.315089419134786" lon="7.857284483943445"><ele>778.0</ele><time>2026-05-03T07:45:49.999Z</time></trkpt><trkpt lat="44.31504279298361" lon="7.8573955554301005"><ele>778.0</ele><time>2026-05-03T07:45:50.999Z</time></trkpt><trkpt lat="44.31501684966239" lon="7.857589732301962"><ele>778.0</ele><time>2026-05-03T07:45:51.999Z</time></trkpt><trkpt lat="44.31497959174935" lon="7.857734983574153"><ele>778.0</ele><time>2026-05-03T07:45:52.999Z</time></trkpt><trkpt lat="44.314936511790805" lon="7.85788907906236"><ele>777.0</ele><time>2026-05-03T07:45:53.999Z</time></trkpt><trkpt lat="44.31491044727787" lon="7.858065653909941"><ele>776.0</ele><time>2026-05-03T07:45:54.999Z</time></trkpt><trkpt lat="44.314907669221945" lon="7.85819964601555"><ele>775.0</ele><time>2026-05-03T07:45:55.999Z</time></trkpt><trkpt lat="44.31491349920084" lon="7.858325651385553"><ele>774.0</ele><time>2026-05-03T07:45:56.999Z</time></trkpt><trkpt lat="44.3148942077818" lon="7.8584170050601765"><ele>773.0</ele><time>2026-05-03T07:45:57.999Z</time></trkpt><trkpt lat="44.314859142535575" lon="7.858531105352262"><ele>773.0000000000001</ele><time>2026-05-03T07:45:59.999Z</time></trkpt><trkpt lat="44.31478447888178" lon="7.8584706902661585"><ele>773.0</ele><time>2026-05-03T07:46:01.999Z</time></trkpt><trkpt lat="44.31475985719451" lon="7.858384121432973"><ele>773.0</ele><time>2026-05-03T07:46:02.999Z</time></trkpt><trkpt lat="44.31477847240771" lon="7.858267244757546"><ele>773.0</ele><time>2026-05-03T07:46:03.999Z</time></trkpt><trkpt lat="44.314792776239784" lon="7.85815693423692"><ele>773.0000000000001</ele><time>2026-05-03T07:46:04.999Z</time></trkpt><trkpt lat="44.31480825529877" lon="7.858023037615218"><ele>773.0</ele><time>2026-05-03T07:46:05.999Z</time></trkpt><trkpt lat="44.31483119437199" lon="7.857876799103352"><ele>773.0</ele><time>2026-05-03T07:46:06.999Z</time></trkpt><trkpt lat="44.314853130027295" lon="7.857715145662325"><ele>773.0</ele><time>2026-05-03T07:46:07.999Z</time></trkpt><trkpt lat="44.31488068925963" lon="7.857567876634335"><ele>773.0</ele><time>2026-05-03T07:46:08.999Z</time></trkpt><trkpt lat="44.314901394136996" lon="7.8574407683101235"><ele>773.0</ele><time>2026-05-03T07:46:09.999Z</time></trkpt><trkpt lat="44.31491527267893" lon="7.857342282514935"><ele>773.0</ele><time>2026-05-03T07:46:10.999Z</time></trkpt><trkpt lat="44.314877638516876" lon="7.857179507514661"><ele>773.8333333333334</ele><time>2026-05-03T07:46:12.999Z</time></trkpt><trkpt lat="44.31481835593778" lon="7.85710747388951"><ele>774.6666666666667</ele><time>2026-05-03T07:46:13.999Z</time></trkpt><trkpt lat="44.31473526835275" lon="7.857058271224976"><ele>775.5</ele><time>2026-05-03T07:46:14.999Z</time></trkpt><trkpt lat="44.314639799436094" lon="7.857007092751222"><ele>776.3333333333333</ele><time>2026-05-03T07:46:15.999Z</time></trkpt><trkpt lat="44.31454808944205" lon="7.856957450873314"><ele>777.1666666666666</ele><time>2026-05-03T07:46:16.999Z</time></trkpt><trkpt lat="44.314475427724645" lon="7.8569394073321845"><ele>778.0</ele><time>2026-05-03T07:46:17.999Z</time></trkpt><trkpt lat="44.31441153492276" lon="7.856884736834573"><ele>781.8333333333333</ele><time>2026-05-03T07:46:18.999Z</time></trkpt><trkpt lat="44.314365977831294" lon="7.856799793266607"><ele>785.6666666666666</ele><time>2026-05-03T07:46:19.999Z</time></trkpt><trkpt lat="44.314350462131664" lon="7.856706292595438"><ele>789.5</ele><time>2026-05-03T07:46:20.999Z</time></trkpt><trkpt lat="44.31435925497124" lon="7.856588232735461"><ele>793.3333333333333</ele><time>2026-05-03T07:46:21.999Z</time></trkpt><trkpt lat="44.31438313098546" lon="7.856453972977519"><ele>797.1666666666666</ele><time>2026-05-03T07:46:22.998Z</time></trkpt><trkpt lat="44.31440620259404" lon="7.856304935445301"><ele>801.0</ele><time>2026-05-03T07:46:23.998Z</time></trkpt><trkpt lat="44.314431152443326" lon="7.856181359790119"><ele>802.1999999999999</ele><time>2026-05-03T07:46:24.998Z</time></trkpt><trkpt lat="44.31445535890958" lon="7.856064534048823"><ele>803.4</ele><time>2026-05-03T07:46:25.998Z</time></trkpt><trkpt lat="44.314472980095104" lon="7.855977037501282"><ele>804.6</ele><time>2026-05-03T07:46:26.998Z</time></trkpt><trkpt lat="44.314440447822534" lon="7.855839481867888"><ele>805.8</ele><time>2026-05-03T07:46:28.998Z</time></trkpt><trkpt lat="44.31432940203684" lon="7.855751360796335"><ele>807.0</ele><time>2026-05-03T07:46:30.998Z</time></trkpt><trkpt lat="44.31425885848003" lon="7.855791886062915"><ele>807.0</ele><time>2026-05-03T07:46:31.998Z</time></trkpt><trkpt lat="44.31423497853782" lon="7.8558977856061345"><ele>807.0</ele><time>2026-05-03T07:46:32.998Z</time></trkpt><trkpt lat="44.31421470660215" lon="7.856021694289848"><ele>807.0</ele><time>2026-05-03T07:46:33.998Z</time></trkpt><trkpt lat="44.31421251816478" lon="7.856150219266379"><ele>807.0</ele><time>2026-05-03T07:46:34.998Z</time></trkpt><trkpt lat="44.314204628730906" lon="7.856292010044683"><ele>807.0</ele><time>2026-05-03T07:46:35.998Z</time></trkpt><trkpt lat="44.31419106786458" lon="7.856439320823012"><ele>807.1666666666666</ele><time>2026-05-03T07:46:36.998Z</time></trkpt><trkpt lat="44.31417707096211" lon="7.856554387836643"><ele>807.3333333333333</ele><time>2026-05-03T07:46:37.998Z</time></trkpt><trkpt lat="44.31415020663893" lon="7.856667952801025"><ele>807.5</ele><time>2026-05-03T07:46:38.998Z</time></trkpt><trkpt lat="44.31411060889861" lon="7.856783145975634"><ele>807.6666666666666</ele><time>2026-05-03T07:46:39.998Z</time></trkpt><trkpt lat="44.31405659666647" lon="7.8568889738556855"><ele>807.8333333333333</ele><time>2026-05-03T07:46:40.998Z</time></trkpt><trkpt lat="44.31399430957422" lon="7.8569875149536"><ele>808.0</ele><time>2026-05-03T07:46:41.998Z</time></trkpt><trkpt lat="44.31390740623521" lon="7.85704887640278"><ele>808.2</ele><time>2026-05-03T07:46:42.998Z</time></trkpt><trkpt lat="44.3138316431938" lon="7.857126079168893"><ele>808.4</ele><time>2026-05-03T07:46:43.998Z</time></trkpt><trkpt lat="44.31373513910264" lon="7.857156766219867"><ele>808.6</ele><time>2026-05-03T07:46:44.998Z</time></trkpt><trkpt lat="44.31363801924181" lon="7.857144637095415"><ele>808.8000000000001</ele><time>2026-05-03T07:46:45.998Z</time></trkpt><trkpt lat="44.313543924165074" lon="7.857151701171415"><ele>809.0</ele><time>2026-05-03T07:46:46.998Z</time></trkpt><trkpt lat="44.31344015096892" lon="7.85708450376951"><ele>809.0</ele><time>2026-05-03T07:46:47.998Z</time></trkpt><trkpt lat="44.31334572330419" lon="7.8570082065254505"><ele>809.0</ele><time>2026-05-03T07:46:49Z</time></trkpt><trkpt lat="44.31323966012524" lon="7.85693434930244"><ele>809.0</ele><time>2026-05-03T07:46:50Z</time></trkpt><trkpt lat="44.31315262190557" lon="7.856862851301871"><ele>809.0</ele><time>2026-05-03T07:46:51Z</time></trkpt><trkpt lat="44.31309088157634" lon="7.85680666431867"><ele>809.0</ele><time>2026-05-03T07:46:52Z</time></trkpt><trkpt lat="44.31303505480901" lon="7.856759056642349"><ele>809.0000000000001</ele><time>2026-05-03T07:46:53Z</time></trkpt><trkpt lat="44.31298296489441" lon="7.856669997042108"><ele>809.0</ele><time>2026-05-03T07:46:55Z</time></trkpt><trkpt lat="44.31302177983198" lon="7.856575555728322"><ele>809.0</ele><time>2026-05-03T07:46:57Z</time></trkpt><trkpt lat="44.3131324384434" lon="7.85659941829051"><ele>809.0</ele><time>2026-05-03T07:46:59Z</time></trkpt><trkpt lat="44.313179705136264" lon="7.8566724007239825"><ele>809.0000000000001</ele><time>2026-05-03T07:47:00Z</time></trkpt><trkpt lat="44.31323267704986" lon="7.856763387904648"><ele>809.0</ele><time>2026-05-03T07:47:01Z</time></trkpt><trkpt lat="44.313308304667274" lon="7.856844363994459"><ele>809.0000000000001</ele><time>2026-05-03T07:47:02Z</time></trkpt><trkpt lat="44.313375915124226" lon="7.856919992710874"><ele>809.0</ele><time>2026-05-03T07:47:03Z</time></trkpt><trkpt lat="44.313445216289956" lon="7.856977988875912"><ele>809.0</ele><time>2026-05-03T07:47:04Z</time></trkpt><trkpt lat="44.31351591474844" lon="7.85701887457101"><ele>809.0</ele><time>2026-05-03T07:47:05Z</time></trkpt><trkpt lat="44.31358907032763" lon="7.857023243079064"><ele>809.0000000000001</ele><time>2026-05-03T07:47:06Z</time></trkpt><trkpt lat="44.313652965109775" lon="7.8570092574434485"><ele>809.0</ele><time>2026-05-03T07:47:07Z</time></trkpt><trkpt lat="44.3137623408012" lon="7.8569140486750655"><ele>809.0000000000001</ele><time>2026-05-03T07:47:09Z</time></trkpt><trkpt lat="44.31380139351918" lon="7.856820332529317"><ele>809.0</ele><time>2026-05-03T07:47:10Z</time></trkpt><trkpt lat="44.313821418945636" lon="7.856720411340904"><ele>809.0</ele><time>2026-05-03T07:47:11Z</time></trkpt><trkpt lat="44.31382668981467" lon="7.8566160314127"><ele>809.0</ele><time>2026-05-03T07:47:12Z</time></trkpt><trkpt lat="44.31380981906494" lon="7.856507598639099"><ele>809.0000000000001</ele><time>2026-05-03T07:47:13Z</time></trkpt><trkpt lat="44.313776166912355" lon="7.856398801732523"><ele>809.0</ele><time>2026-05-03T07:47:14Z</time></trkpt><trkpt lat="44.31372505689773" lon="7.856277083513949"><ele>811.6</ele><time>2026-05-03T07:47:15Z</time></trkpt><trkpt lat="44.313657992655415" lon="7.856154924886635"><ele>814.2</ele><time>2026-05-03T07:47:16Z</time></trkpt><trkpt lat="44.31359202886505" lon="7.856056098036571"><ele>816.8000000000001</ele><time>2026-05-03T07:47:17Z</time></trkpt><trkpt lat="44.313517530715266" lon="7.855964915167827"><ele>819.4000000000001</ele><time>2026-05-03T07:47:18Z</time></trkpt><trkpt lat="44.313426504834" lon="7.8558893479304315"><ele>822.0</ele><time>2026-05-03T07:47:19Z</time></trkpt><trkpt lat="44.31331991273894" lon="7.85582394641625"><ele>822.75</ele><time>2026-05-03T07:47:20Z</time></trkpt><trkpt lat="44.31320375506515" lon="7.855753665091341"><ele>823.5</ele><time>2026-05-03T07:47:21Z</time></trkpt><trkpt lat="44.31309262047579" lon="7.8556708755669975"><ele>824.25</ele><time>2026-05-03T07:47:22Z</time></trkpt><trkpt lat="44.312997604506464" lon="7.855601860407967"><ele>825.0</ele><time>2026-05-03T07:47:23Z</time></trkpt><trkpt lat="44.31290491993654" lon="7.85551803418549"><ele>831.75</ele><time>2026-05-03T07:47:24Z</time></trkpt><trkpt lat="44.31280044624907" lon="7.855417734627842"><ele>838.5</ele><time>2026-05-03T07:47:25Z</time></trkpt><trkpt lat="44.31269602321526" lon="7.855307211640678"><ele>845.25</ele><time>2026-05-03T07:47:26Z</time></trkpt><trkpt lat="44.31261846523208" lon="7.8552073362898405"><ele>852.0</ele><time>2026-05-03T07:47:27Z</time></trkpt><trkpt lat="44.31255126178016" lon="7.855123301053598"><ele>849.6</ele><time>2026-05-03T07:47:28Z</time></trkpt><trkpt lat="44.31247724518606" lon="7.855025399417248"><ele>847.2</ele><time>2026-05-03T07:47:29Z</time></trkpt><trkpt lat="44.31240839112599" lon="7.854935276191397"><ele>844.8</ele><time>2026-05-03T07:47:30Z</time></trkpt><trkpt lat="44.312359474754686" lon="7.854854489250169"><ele>842.4</ele><time>2026-05-03T07:47:31Z</time></trkpt><trkpt lat="44.312312655259745" lon="7.854700494389963"><ele>840.0</ele><time>2026-05-03T07:47:32.999Z</time></trkpt><trkpt lat="44.31233738233891" lon="7.854602207610233"><ele>840.0</ele><time>2026-05-03T07:47:33.999Z</time></trkpt><trkpt lat="44.31237591878043" lon="7.854519318150129"><ele>840.0</ele><time>2026-05-03T07:47:34.999Z</time></trkpt><trkpt lat="44.31243347212905" lon="7.854454349208915"><ele>840.0</ele><time>2026-05-03T07:47:35.999Z</time></trkpt><trkpt lat="44.31250336399464" lon="7.854384901144161"><ele>840.0</ele><time>2026-05-03T07:47:36.999Z</time></trkpt><trkpt lat="44.31258262715701" lon="7.854308739166674"><ele>840.0</ele><time>2026-05-03T07:47:37.999Z</time></trkpt><trkpt lat="44.31265310363884" lon="7.854241020180282"><ele>840.0</ele><time>2026-05-03T07:47:38.999Z</time></trkpt><trkpt lat="44.312720729632794" lon="7.85416950713716"><ele>840.3333333333334</ele><time>2026-05-03T07:47:39.999Z</time></trkpt><trkpt lat="44.312760113288995" lon="7.854089089449252"><ele>840.6666666666667</ele><time>2026-05-03T07:47:40.999Z</time></trkpt><trkpt lat="44.312815039786436" lon="7.85403382437464"><ele>841.0</ele><time>2026-05-03T07:47:41.999Z</time></trkpt><trkpt lat="44.31286557727272" lon="7.853973551050124"><ele>841.3333333333334</ele><time>2026-05-03T07:47:42.999Z</time></trkpt><trkpt lat="44.31292626999535" lon="7.853940745107394"><ele>841.6666666666667</ele><time>2026-05-03T07:47:43.999Z</time></trkpt><trkpt lat="44.31302042137559" lon="7.853875353461267"><ele>842.0</ele><time>2026-05-03T07:47:45.999Z</time></trkpt><trkpt lat="44.31311957642113" lon="7.85384234181988"><ele>842.0000000000001</ele><time>2026-05-03T07:47:48.999Z</time></trkpt><trkpt lat="44.31318872602323" lon="7.853840122405547"><ele>842.0</ele><time>2026-05-03T07:47:51.999Z</time></trkpt><trkpt lat="44.313116969356784" lon="7.853826169596874"><ele>842.0</ele><time>2026-05-03T07:49:54.999Z</time></trkpt><trkpt lat="44.31306731107402" lon="7.853733431926803"><ele>842.0</ele><time>2026-05-03T07:49:59.999Z</time></trkpt><trkpt lat="44.313071444012685" lon="7.853589351911823"><ele>842.0000000000001</ele><time>2026-05-03T07:50:01.999Z</time></trkpt><trkpt lat="44.31304066438054" lon="7.853444011813946"><ele>842.0</ele><time>2026-05-03T07:50:03.999Z</time></trkpt><trkpt lat="44.31298529892694" lon="7.853293183656869"><ele>841.8571428571429</ele><time>2026-05-03T07:50:05.999Z</time></trkpt><trkpt lat="44.312955642479054" lon="7.853213137268915"><ele>841.7142857142858</ele><time>2026-05-03T07:50:06.999Z</time></trkpt><trkpt lat="44.3129203545801" lon="7.853124795607713"><ele>841.5714285714287</ele><time>2026-05-03T07:50:07.999Z</time></trkpt><trkpt lat="44.31287762210105" lon="7.853058567761912"><ele>841.4285714285714</ele><time>2026-05-03T07:50:08.999Z</time></trkpt><trkpt lat="44.31282794513338" lon="7.852998130517284"><ele>841.2857142857142</ele><time>2026-05-03T07:50:09.999Z</time></trkpt><trkpt lat="44.3127680901466" lon="7.852929530353854"><ele>841.1428571428572</ele><time>2026-05-03T07:50:10.999Z</time></trkpt><trkpt lat="44.31269413746997" lon="7.852883665732753"><ele>841.0</ele><time>2026-05-03T07:50:11.999Z</time></trkpt><trkpt lat="44.31261481619336" lon="7.852847663296072"><ele>840.9999999999999</ele><time>2026-05-03T07:50:12.999Z</time></trkpt><trkpt lat="44.312529525019954" lon="7.852822484111497"><ele>841.0</ele><time>2026-05-03T07:50:13.999Z</time></trkpt><trkpt lat="44.31244168411885" lon="7.852809589216601"><ele>841.0</ele><time>2026-05-03T07:50:14.999Z</time></trkpt><trkpt lat="44.312362150186175" lon="7.852768608573835"><ele>841.0</ele><time>2026-05-03T07:50:15.999Z</time></trkpt><trkpt lat="44.31227290230588" lon="7.852760806362279"><ele>840.9999999999999</ele><time>2026-05-03T07:50:16.999Z</time></trkpt><trkpt lat="44.31218627220651" lon="7.852715271717648"><ele>841.0</ele><time>2026-05-03T07:50:17.999Z</time></trkpt><trkpt lat="44.31210264709708" lon="7.852651227198548"><ele>838.9999999999999</ele><time>2026-05-03T07:50:18.999Z</time></trkpt><trkpt lat="44.31202450163551" lon="7.852583439025835"><ele>837.0</ele><time>2026-05-03T07:50:19.999Z</time></trkpt><trkpt lat="44.311949008057965" lon="7.852522445048213"><ele>835.0</ele><time>2026-05-03T07:50:20.999Z</time></trkpt><trkpt lat="44.31187717076634" lon="7.852445094540113"><ele>833.0</ele><time>2026-05-03T07:50:21.999Z</time></trkpt><trkpt lat="44.311821955952134" lon="7.852368990254157"><ele>830.9999999999999</ele><time>2026-05-03T07:50:22.999Z</time></trkpt><trkpt lat="44.311765863843995" lon="7.852280912880658"><ele>829.0</ele><time>2026-05-03T07:50:23.999Z</time></trkpt><trkpt lat="44.31171336984319" lon="7.852202923598311"><ele>828.9999999999999</ele><time>2026-05-03T07:50:24.999Z</time></trkpt><trkpt lat="44.311664923484386" lon="7.8520499453508235"><ele>829.0</ele><time>2026-05-03T07:50:26.999Z</time></trkpt><trkpt lat="44.31160328086055" lon="7.85195378077345"><ele>829.0</ele><time>2026-05-03T07:50:28.999Z</time></trkpt><trkpt lat="44.311539395350444" lon="7.851871288361267"><ele>829.0</ele><time>2026-05-03T07:50:30.999Z</time></trkpt><trkpt lat="44.31149055850598" lon="7.8518145979830765"><ele>828.9999999999999</ele><time>2026-05-03T07:50:31.999Z</time></trkpt><trkpt lat="44.31142535234926" lon="7.851789496598162"><ele>829.0</ele><time>2026-05-03T07:50:32.998Z</time></trkpt><trkpt lat="44.31135195213504" lon="7.851805779585845"><ele>828.9999999999999</ele><time>2026-05-03T07:50:33.998Z</time></trkpt><trkpt lat="44.31126376319429" lon="7.851807559069754"><ele>829.0</ele><time>2026-05-03T07:50:34.998Z</time></trkpt><trkpt lat="44.3111833857806" lon="7.851855706541837"><ele>829.0</ele><time>2026-05-03T07:50:35.998Z</time></trkpt><trkpt lat="44.31111178611662" lon="7.851910226349197"><ele>829.0</ele><time>2026-05-03T07:50:36.998Z</time></trkpt><trkpt lat="44.311036590943075" lon="7.851992678325866"><ele>828.9999999999999</ele><time>2026-05-03T07:50:37.998Z</time></trkpt><trkpt lat="44.310957115184564" lon="7.852047662395577"><ele>829.0</ele><time>2026-05-03T07:50:38.998Z</time></trkpt><trkpt lat="44.310882685671395" lon="7.85207942186919"><ele>829.0</ele><time>2026-05-03T07:50:39.998Z</time></trkpt><trkpt lat="44.31075722895677" lon="7.85209649811091"><ele>829.0</ele><time>2026-05-03T07:50:41.998Z</time></trkpt><trkpt lat="44.3106824428035" lon="7.85206931606905"><ele>829.0</ele><time>2026-05-03T07:50:42.998Z</time></trkpt><trkpt lat="44.310601097638326" lon="7.852016182292556"><ele>829.0</ele><time>2026-05-03T07:50:43.998Z</time></trkpt><trkpt lat="44.310533660011046" lon="7.851946333962835"><ele>829.0</ele><time>2026-05-03T07:50:44.998Z</time></trkpt><trkpt lat="44.31048454456015" lon="7.851854082687841"><ele>825.3333333333333</ele><time>2026-05-03T07:50:45.998Z</time></trkpt><trkpt lat="44.310418495427434" lon="7.8517892619530985"><ele>821.6666666666666</ele><time>2026-05-03T07:50:46.998Z</time></trkpt><trkpt lat="44.31036477368064" lon="7.851706531587752"><ele>818.0</ele><time>2026-05-03T07:50:47.998Z</time></trkpt><trkpt lat="44.310292800829004" lon="7.851646209826258"><ele>814.3333333333333</ele><time>2026-05-03T07:50:48.998Z</time></trkpt><trkpt lat="44.31020360539099" lon="7.851614679953476"><ele>810.6666666666666</ele><time>2026-05-03T07:50:49.998Z</time></trkpt><trkpt lat="44.3100993336316" lon="7.851601984588174"><ele>807.0</ele><time>2026-05-03T07:50:50.998Z</time></trkpt><trkpt lat="44.309998846119754" lon="7.851597829361959"><ele>807.0</ele><time>2026-05-03T07:50:51.998Z</time></trkpt><trkpt lat="44.309901232172365" lon="7.8515812945506775"><ele>807.0</ele><time>2026-05-03T07:50:52.998Z</time></trkpt><trkpt lat="44.30980488034391" lon="7.851560523362403"><ele>807.0</ele><time>2026-05-03T07:50:53.998Z</time></trkpt><trkpt lat="44.30970813695346" lon="7.85153740524587"><ele>807.0</ele><time>2026-05-03T07:50:54.998Z</time></trkpt><trkpt lat="44.30962708521237" lon="7.851494074069973"><ele>807.0</ele><time>2026-05-03T07:50:55.998Z</time></trkpt><trkpt lat="44.309549271452795" lon="7.851426792413103"><ele>807.4000000000001</ele><time>2026-05-03T07:50:56.998Z</time></trkpt><trkpt lat="44.30948233342628" lon="7.851350078517664"><ele>807.8000000000001</ele><time>2026-05-03T07:50:57.998Z</time></trkpt><trkpt lat="44.30941803612611" lon="7.851278299571569"><ele>808.2</ele><time>2026-05-03T07:50:58.998Z</time></trkpt><trkpt lat="44.30933470067794" lon="7.851182897234364"><ele>808.6</ele><time>2026-05-03T07:51:01Z</time></trkpt><trkpt lat="44.309292148861836" lon="7.851063911181399"><ele>809.0</ele><time>2026-05-03T07:51:03Z</time></trkpt><trkpt lat="44.30931692928681" lon="7.850895460156236"><ele>807.2857142857143</ele><time>2026-05-03T07:51:05Z</time></trkpt><trkpt lat="44.3093465435183" lon="7.850812991424448"><ele>805.5714285714287</ele><time>2026-05-03T07:51:06Z</time></trkpt><trkpt lat="44.30938432441139" lon="7.850733016559853"><ele>803.8571428571429</ele><time>2026-05-03T07:51:07Z</time></trkpt><trkpt lat="44.30942593683458" lon="7.850659320197428"><ele>802.1428571428571</ele><time>2026-05-03T07:51:08Z</time></trkpt><trkpt lat="44.30946308321219" lon="7.850581728944209"><ele>800.4285714285714</ele><time>2026-05-03T07:51:09Z</time></trkpt><trkpt lat="44.30949743303045" lon="7.850501046317837"><ele>798.7142857142857</ele><time>2026-05-03T07:51:10Z</time></trkpt><trkpt lat="44.309556134214795" lon="7.850367388410703"><ele>797.0</ele><time>2026-05-03T07:51:12Z</time></trkpt><trkpt lat="44.30960013503738" lon="7.850280815014847"><ele>797.0</ele><time>2026-05-03T07:51:15Z</time></trkpt><trkpt lat="44.30953393301999" lon="7.85033098836"><ele>797.0</ele><time>2026-05-03T07:51:39Z</time></trkpt><trkpt lat="44.30948513162951" lon="7.850451213408588"><ele>797.0</ele><time>2026-05-03T07:51:41Z</time></trkpt><trkpt lat="44.309420867836785" lon="7.850607201792825"><ele>797.0</ele><time>2026-05-03T07:51:42.999Z</time></trkpt><trkpt lat="44.30938399690806" lon="7.85069859054742"><ele>797.0</ele><time>2026-05-03T07:51:43.999Z</time></trkpt><trkpt lat="44.309341723346144" lon="7.850800990084437"><ele>797.0</ele><time>2026-05-03T07:51:44.999Z</time></trkpt><trkpt lat="44.309314538570725" lon="7.8508906032350785"><ele>797.0</ele><time>2026-05-03T07:51:45.999Z</time></trkpt><trkpt lat="44.309293770107246" lon="7.850978614404487"><ele>797.0</ele><time>2026-05-03T07:51:46.999Z</time></trkpt><trkpt lat="44.30928487073693" lon="7.85108584150787"><ele>797.0</ele><time>2026-05-03T07:51:47.999Z</time></trkpt><trkpt lat="44.309289159645886" lon="7.8511881601157905"><ele>797.0</ele><time>2026-05-03T07:51:48.999Z</time></trkpt><trkpt lat="44.309337350339106" lon="7.8512713079120795"><ele>797.0</ele><time>2026-05-03T07:51:49.999Z</time></trkpt><trkpt lat="44.309391159740485" lon="7.851353272377232"><ele>797.0</ele><time>2026-05-03T07:51:50.999Z</time></trkpt><trkpt lat="44.30946636862745" lon="7.851447990461859"><ele>799.0</ele><time>2026-05-03T07:51:51.999Z</time></trkpt><trkpt lat="44.30956940299214" lon="7.85151928320021"><ele>801.0</ele><time>2026-05-03T07:51:52.999Z</time></trkpt><trkpt lat="44.30966107063195" lon="7.851582414024276"><ele>803.0</ele><time>2026-05-03T07:51:53.999Z</time></trkpt><trkpt lat="44.30976077001428" lon="7.851620680446275"><ele>805.0</ele><time>2026-05-03T07:51:54.999Z</time></trkpt><trkpt lat="44.30987118762287" lon="7.851646663731511"><ele>807.0</ele><time>2026-05-03T07:51:55.999Z</time></trkpt><trkpt lat="44.30997570059237" lon="7.851618100018303"><ele>807.0</ele><time>2026-05-03T07:51:56.999Z</time></trkpt><trkpt lat="44.31007699180927" lon="7.8516381833583235"><ele>807.0</ele><time>2026-05-03T07:51:57.999Z</time></trkpt><trkpt lat="44.31014831428201" lon="7.851642848229708"><ele>807.0</ele><time>2026-05-03T07:51:58.999Z</time></trkpt><trkpt lat="44.31021321804797" lon="7.85167038205207"><ele>807.0</ele><time>2026-05-03T07:51:59.999Z</time></trkpt><trkpt lat="44.310285036158874" lon="7.851707645656767"><ele>807.0</ele><time>2026-05-03T07:52:00.999Z</time></trkpt><trkpt lat="44.31036052214589" lon="7.851760429885911"><ele>807.0</ele><time>2026-05-03T07:52:01.999Z</time></trkpt><trkpt lat="44.310431455187185" lon="7.851841168634121"><ele>809.5</ele><time>2026-05-03T07:52:02.999Z</time></trkpt><trkpt lat="44.310498314320704" lon="7.851939120117458"><ele>812.0</ele><time>2026-05-03T07:52:03.999Z</time></trkpt><trkpt lat="44.31054723722075" lon="7.852019031754467"><ele>814.5</ele><time>2026-05-03T07:52:04.999Z</time></trkpt><trkpt lat="44.31061604969817" lon="7.852070847726882"><ele>817.0</ele><time>2026-05-03T07:52:05.999Z</time></trkpt><trkpt lat="44.31070295314979" lon="7.852096319663918"><ele>819.5</ele><time>2026-05-03T07:52:06.999Z</time></trkpt><trkpt lat="44.31079024707704" lon="7.852110799291844"><ele>822.0</ele><time>2026-05-03T07:52:07.999Z</time></trkpt><trkpt lat="44.31087957206089" lon="7.8521098566726835"><ele>823.1666666666666</ele><time>2026-05-03T07:52:08.999Z</time></trkpt><trkpt lat="44.31097278676364" lon="7.85206438079089"><ele>824.3333333333333</ele><time>2026-05-03T07:52:09.999Z</time></trkpt><trkpt lat="44.31106141611858" lon="7.851988267098699"><ele>825.5</ele><time>2026-05-03T07:52:10.999Z</time></trkpt><trkpt lat="44.311148388531215" lon="7.851924620860801"><ele>826.6666666666666</ele><time>2026-05-03T07:52:11.999Z</time></trkpt><trkpt lat="44.311215804237925" lon="7.8518717835395115"><ele>827.8333333333333</ele><time>2026-05-03T07:52:12.999Z</time></trkpt><trkpt lat="44.31127653426212" lon="7.851837015706276"><ele>829.0</ele><time>2026-05-03T07:52:13.999Z</time></trkpt><trkpt lat="44.31135145688014" lon="7.8518279405303515"><ele>829.0</ele><time>2026-05-03T07:52:14.999Z</time></trkpt><trkpt lat="44.31147491905549" lon="7.851861712418828"><ele>829.0</ele><time>2026-05-03T07:52:16.999Z</time></trkpt><trkpt lat="44.31153337952639" lon="7.851906289799059"><ele>829.0</ele><time>2026-05-03T07:52:17.999Z</time></trkpt><trkpt lat="44.311588451916414" lon="7.851981762528127"><ele>829.0</ele><time>2026-05-03T07:52:18.999Z</time></trkpt><trkpt lat="44.311630712677584" lon="7.852074795923993"><ele>829.0</ele><time>2026-05-03T07:52:19.999Z</time></trkpt><trkpt lat="44.31167393195562" lon="7.852205599030566"><ele>829.0</ele><time>2026-05-03T07:52:21.999Z</time></trkpt><trkpt lat="44.311721439548606" lon="7.852267817448491"><ele>829.0</ele><time>2026-05-03T07:52:27.999Z</time></trkpt><trkpt lat="44.311683902257876" lon="7.852185443199805"><ele>829.0</ele><time>2026-05-03T07:52:43.998Z</time></trkpt><trkpt lat="44.311699034656876" lon="7.852069786464923"><ele>829.0</ele><time>2026-05-03T07:53:25Z</time></trkpt><trkpt lat="44.3116711891347" lon="7.851968798310965"><ele>829.0</ele><time>2026-05-03T07:53:52.999Z</time></trkpt><trkpt lat="44.31164109307992" lon="7.851885108551196"><ele>829.0</ele><time>2026-05-03T07:53:57.999Z</time></trkpt><trkpt lat="44.31160181537901" lon="7.851815545819225"><ele>829.0</ele><time>2026-05-03T07:54:17.999Z</time></trkpt><trkpt lat="44.3116652129424" lon="7.851781492655494"><ele>829.0</ele><time>2026-05-03T07:54:36.999Z</time></trkpt><trkpt lat="44.31165323425467" lon="7.85186961307623"><ele>829.0</ele><time>2026-05-03T07:55:38Z</time></trkpt><trkpt lat="44.311605828562776" lon="7.851972987244407"><ele>829.0</ele><time>2026-05-03T08:02:23.999Z</time></trkpt><trkpt lat="44.31165600429973" lon="7.852068918405508"><ele>829.0</ele><time>2026-05-03T08:02:28.999Z</time></trkpt><trkpt lat="44.31167621278363" lon="7.852163352231392"><ele>829.0</ele><time>2026-05-03T08:02:32.999Z</time></trkpt><trkpt lat="44.311690936360144" lon="7.852074043094993"><ele>829.0</ele><time>2026-05-03T08:04:45.999Z</time></trkpt><trkpt lat="44.31165812254175" lon="7.852149562048819"><ele>829.0</ele><time>2026-05-03T08:06:36.999Z</time></trkpt><trkpt lat="44.311714973916146" lon="7.852268902252531"><ele>828.9999999999999</ele><time>2026-05-03T08:06:38.999Z</time></trkpt><trkpt lat="44.31179300392905" lon="7.852380178256877"><ele>829.0</ele><time>2026-05-03T08:06:40.999Z</time></trkpt><trkpt lat="44.31184050029669" lon="7.852444054492879"><ele>829.0</ele><time>2026-05-03T08:06:41.999Z</time></trkpt><trkpt lat="44.311899869704234" lon="7.852515098939636"><ele>829.0</ele><time>2026-05-03T08:06:42.999Z</time></trkpt><trkpt lat="44.311974730332075" lon="7.852586000921705"><ele>828.9999999999999</ele><time>2026-05-03T08:06:43.999Z</time></trkpt><trkpt lat="44.312050714225435" lon="7.852659336880939"><ele>829.0</ele><time>2026-05-03T08:06:44.999Z</time></trkpt><trkpt lat="44.31213659078491" lon="7.852717448995993"><ele>831.4000000000001</ele><time>2026-05-03T08:06:45.999Z</time></trkpt><trkpt lat="44.31220925139721" lon="7.852761533616452"><ele>833.8</ele><time>2026-05-03T08:06:46.999Z</time></trkpt><trkpt lat="44.31230014672607" lon="7.852796629258948"><ele>836.2</ele><time>2026-05-03T08:06:47.999Z</time></trkpt><trkpt lat="44.312398777553774" lon="7.852822857074273"><ele>838.5999999999999</ele><time>2026-05-03T08:06:48.999Z</time></trkpt><trkpt lat="44.312510504393195" lon="7.852841472447001"><ele>841.0</ele><time>2026-05-03T08:06:49.999Z</time></trkpt><trkpt lat="44.31260424907844" lon="7.852859980915676"><ele>840.9999999999999</ele><time>2026-05-03T08:06:50.999Z</time></trkpt><trkpt lat="44.31268068622912" lon="7.852891394717522"><ele>841.0</ele><time>2026-05-03T08:06:51.999Z</time></trkpt><trkpt lat="44.31275352659765" lon="7.8529461532091505"><ele>841.0</ele><time>2026-05-03T08:06:52.999Z</time></trkpt><trkpt lat="44.31283032136252" lon="7.853017749043555"><ele>841.0</ele><time>2026-05-03T08:06:53.999Z</time></trkpt><trkpt lat="44.31289500432371" lon="7.853109029992246"><ele>840.9999999999999</ele><time>2026-05-03T08:06:54.999Z</time></trkpt><trkpt lat="44.312937776048095" lon="7.8532015387685155"><ele>841.0</ele><time>2026-05-03T08:06:55.999Z</time></trkpt><trkpt lat="44.312967268963845" lon="7.853284870780936"><ele>840.9999999999999</ele><time>2026-05-03T08:06:56.999Z</time></trkpt><trkpt lat="44.31299049007587" lon="7.853373415340932"><ele>841.0</ele><time>2026-05-03T08:06:57.999Z</time></trkpt><trkpt lat="44.312991366393575" lon="7.853486791047797"><ele>841.0</ele><time>2026-05-03T08:06:59.999Z</time></trkpt><trkpt lat="44.312939856117616" lon="7.853558914844333"><ele>841.0</ele><time>2026-05-03T08:07:01.999Z</time></trkpt><trkpt lat="44.3128717631629" lon="7.853533738305303"><ele>840.9999999999999</ele><time>2026-05-03T08:07:03.999Z</time></trkpt><trkpt lat="44.312815036868614" lon="7.853389966628082"><ele>841.0</ele><time>2026-05-03T08:07:05.999Z</time></trkpt><trkpt lat="44.3127715056649" lon="7.853314070498734"><ele>840.9999999999999</ele><time>2026-05-03T08:07:06.999Z</time></trkpt><trkpt lat="44.312711260676544" lon="7.853239542163975"><ele>841.0</ele><time>2026-05-03T08:07:07.999Z</time></trkpt><trkpt lat="44.312647012631665" lon="7.853190120342456"><ele>841.0</ele><time>2026-05-03T08:07:08.999Z</time></trkpt><trkpt lat="44.31257396741192" lon="7.853158615029666"><ele>841.0</ele><time>2026-05-03T08:07:09.999Z</time></trkpt><trkpt lat="44.31247577534568" lon="7.853149525907779"><ele>840.9999999999999</ele><time>2026-05-03T08:07:10.999Z</time></trkpt><trkpt lat="44.31236539053813" lon="7.853137474067645"><ele>841.0</ele><time>2026-05-03T08:07:11.999Z</time></trkpt><trkpt lat="44.31224285598893" lon="7.85312279937246"><ele>843.75</ele><time>2026-05-03T08:07:12.999Z</time></trkpt><trkpt lat="44.31212933101912" lon="7.853094880254946"><ele>846.5</ele><time>2026-05-03T08:07:13.999Z</time></trkpt><trkpt lat="44.31200946006883" lon="7.8530471098380525"><ele>849.25</ele><time>2026-05-03T08:07:14.999Z</time></trkpt><trkpt lat="44.31188032591758" lon="7.8529865389084685"><ele>852.0</ele><time>2026-05-03T08:07:15.999Z</time></trkpt><trkpt lat="44.31176661764973" lon="7.852942129028472"><ele>852.0</ele><time>2026-05-03T08:07:16.999Z</time></trkpt><trkpt lat="44.31166032683122" lon="7.8529016923820505"><ele>852.0</ele><time>2026-05-03T08:07:17.999Z</time></trkpt><trkpt lat="44.31156068307676" lon="7.8528590856852105"><ele>852.0</ele><time>2026-05-03T08:07:18.999Z</time></trkpt><trkpt lat="44.31145072164971" lon="7.852814455942261"><ele>852.0</ele><time>2026-05-03T08:07:19.999Z</time></trkpt><trkpt lat="44.31135887123591" lon="7.852805505937527"><ele>852.0</ele><time>2026-05-03T08:07:20.999Z</time></trkpt><trkpt lat="44.311265839896464" lon="7.8527696560625095"><ele>851.8</ele><time>2026-05-03T08:07:21.999Z</time></trkpt><trkpt lat="44.311170754774245" lon="7.852755802322796"><ele>851.6</ele><time>2026-05-03T08:07:22.999Z</time></trkpt><trkpt lat="44.31107936687951" lon="7.85274918817986"><ele>851.4</ele><time>2026-05-03T08:07:23.999Z</time></trkpt><trkpt lat="44.310986694244676" lon="7.852751182411182"><ele>851.1999999999999</ele><time>2026-05-03T08:07:24.999Z</time></trkpt><trkpt lat="44.31088221010102" lon="7.852776292519498"><ele>851.0</ele><time>2026-05-03T08:07:25.999Z</time></trkpt><trkpt lat="44.31078264020256" lon="7.852819578574063"><ele>851.0</ele><time>2026-05-03T08:07:26.999Z</time></trkpt><trkpt lat="44.31068214843603" lon="7.852872931257148"><ele>851.0</ele><time>2026-05-03T08:07:27.999Z</time></trkpt><trkpt lat="44.310583463220084" lon="7.852938632113483"><ele>851.0</ele><time>2026-05-03T08:07:28.999Z</time></trkpt><trkpt lat="44.31047648050156" lon="7.853000383998683"><ele>851.0</ele><time>2026-05-03T08:07:29.999Z</time></trkpt><trkpt lat="44.310370729651254" lon="7.853055187671203"><ele>851.0</ele><time>2026-05-03T08:07:30.999Z</time></trkpt><trkpt lat="44.310271180238566" lon="7.85308887948816"><ele>849.8</ele><time>2026-05-03T08:07:31.999Z</time></trkpt><trkpt lat="44.31016079377561" lon="7.853154674159278"><ele>848.5999999999999</ele><time>2026-05-03T08:07:32.999Z</time></trkpt><trkpt lat="44.31008122333418" lon="7.853205553018011"><ele>847.4</ele><time>2026-05-03T08:07:33.999Z</time></trkpt><trkpt lat="44.30998700705955" lon="7.853245506860835"><ele>846.2</ele><time>2026-05-03T08:07:34.999Z</time></trkpt><trkpt lat="44.30989992612495" lon="7.85327506421507"><ele>845.0</ele><time>2026-05-03T08:07:35.999Z</time></trkpt><trkpt lat="44.30982150585728" lon="7.853302878782601"><ele>845.4</ele><time>2026-05-03T08:07:36.999Z</time></trkpt><trkpt lat="44.30973030181686" lon="7.853316515176309"><ele>845.8</ele><time>2026-05-03T08:07:37.999Z</time></trkpt><trkpt lat="44.309649101757124" lon="7.853317563499573"><ele>846.2</ele><time>2026-05-03T08:07:38.999Z</time></trkpt><trkpt lat="44.30955165485195" lon="7.853299566766594"><ele>846.6</ele><time>2026-05-03T08:07:39.999Z</time></trkpt><trkpt lat="44.30944626265596" lon="7.853289362593762"><ele>847.0</ele><time>2026-05-03T08:07:40.999Z</time></trkpt><trkpt lat="44.30934246270983" lon="7.853266355878628"><ele>847.0</ele><time>2026-05-03T08:07:41.999Z</time></trkpt><trkpt lat="44.30922905998994" lon="7.8532327431031135"><ele>847.0</ele><time>2026-05-03T08:07:42.999Z</time></trkpt><trkpt lat="44.30912899986209" lon="7.853196847374382"><ele>847.0</ele><time>2026-05-03T08:07:43.999Z</time></trkpt><trkpt lat="44.30903876731085" lon="7.853155341683156"><ele>847.0</ele><time>2026-05-03T08:07:44.999Z</time></trkpt><trkpt lat="44.308943880140625" lon="7.853097291590695"><ele>847.0</ele><time>2026-05-03T08:07:45.998Z</time></trkpt><trkpt lat="44.308846614880814" lon="7.853039002926446"><ele>851.4000000000001</ele><time>2026-05-03T08:07:46.998Z</time></trkpt><trkpt lat="44.30874393729779" lon="7.852965376742955"><ele>855.8000000000001</ele><time>2026-05-03T08:07:47.998Z</time></trkpt><trkpt lat="44.308639146034515" lon="7.85287448023301"><ele>860.2</ele><time>2026-05-03T08:07:49Z</time></trkpt><trkpt lat="44.30854997045306" lon="7.852802985676765"><ele>864.6</ele><time>2026-05-03T08:07:50Z</time></trkpt><trkpt lat="44.30845655693203" lon="7.852738692791828"><ele>869.0</ele><time>2026-05-03T08:07:51Z</time></trkpt><trkpt lat="44.30834976221985" lon="7.852697478222952"><ele>869.0</ele><time>2026-05-03T08:07:52Z</time></trkpt><trkpt lat="44.3082225286189" lon="7.852671425669506"><ele>869.0</ele><time>2026-05-03T08:07:53Z</time></trkpt><trkpt lat="44.308097285467" lon="7.852659143220171"><ele>869.0</ele><time>2026-05-03T08:07:54Z</time></trkpt><trkpt lat="44.30799879877329" lon="7.8526421107774045"><ele>869.0</ele><time>2026-05-03T08:07:55Z</time></trkpt><trkpt lat="44.30789627746753" lon="7.852601115477735"><ele>866.0</ele><time>2026-05-03T08:07:56Z</time></trkpt><trkpt lat="44.30779119514221" lon="7.8525617383716355"><ele>863.0000000000001</ele><time>2026-05-03T08:07:57Z</time></trkpt><trkpt lat="44.30768948528042" lon="7.852521232300377"><ele>860.0000000000001</ele><time>2026-05-03T08:07:58Z</time></trkpt><trkpt lat="44.307597958971144" lon="7.852484779538629"><ele>857.0</ele><time>2026-05-03T08:07:59Z</time></trkpt><trkpt lat="44.30751798563376" lon="7.852455272609572"><ele>854.0</ele><time>2026-05-03T08:08:00Z</time></trkpt><trkpt lat="44.30743498837198" lon="7.852422923284253"><ele>854.0000000000001</ele><time>2026-05-03T08:08:01Z</time></trkpt><trkpt lat="44.30734948250116" lon="7.852405408060121"><ele>854.0</ele><time>2026-05-03T08:08:02Z</time></trkpt><trkpt lat="44.30726914577058" lon="7.852396959860606"><ele>854.0</ele><time>2026-05-03T08:08:03Z</time></trkpt><trkpt lat="44.30719103380876" lon="7.852395818997522"><ele>854.0</ele><time>2026-05-03T08:08:04Z</time></trkpt><trkpt lat="44.30711449990423" lon="7.85240953186384"><ele>854.0000000000001</ele><time>2026-05-03T08:08:05Z</time></trkpt><trkpt lat="44.30704130589329" lon="7.852430853740055"><ele>854.0</ele><time>2026-05-03T08:08:06Z</time></trkpt><trkpt lat="44.30695737291435" lon="7.852451608202474"><ele>854.0</ele><time>2026-05-03T08:08:07Z</time></trkpt><trkpt lat="44.306877953458375" lon="7.852484381663385"><ele>854.0000000000001</ele><time>2026-05-03T08:08:08Z</time></trkpt><trkpt lat="44.306788538459955" lon="7.852518601383014"><ele>854.0000000000001</ele><time>2026-05-03T08:08:09Z</time></trkpt><trkpt lat="44.30669569720317" lon="7.852560340640982"><ele>854.0</ele><time>2026-05-03T08:08:10Z</time></trkpt><trkpt lat="44.306594928716564" lon="7.852599220024216"><ele>854.0</ele><time>2026-05-03T08:08:11Z</time></trkpt><trkpt lat="44.3064951339117" lon="7.852641513463938"><ele>858.0</ele><time>2026-05-03T08:08:12Z</time></trkpt><trkpt lat="44.30638809396394" lon="7.85268087052848"><ele>862.0000000000001</ele><time>2026-05-03T08:08:13Z</time></trkpt><trkpt lat="44.30627437804059" lon="7.852721383797047"><ele>866.0000000000001</ele><time>2026-05-03T08:08:14Z</time></trkpt><trkpt lat="44.30617247103675" lon="7.852760089475522"><ele>870.0</ele><time>2026-05-03T08:08:15Z</time></trkpt><trkpt lat="44.30607071353739" lon="7.8528036757358235"><ele>874.0</ele><time>2026-05-03T08:08:16Z</time></trkpt><trkpt lat="44.305969092362815" lon="7.852845135270189"><ele>874.0</ele><time>2026-05-03T08:08:17Z</time></trkpt><trkpt lat="44.30586156488276" lon="7.852881058926277"><ele>874.0000000000001</ele><time>2026-05-03T08:08:18Z</time></trkpt><trkpt lat="44.3057511255942" lon="7.852924077791004"><ele>874.0000000000001</ele><time>2026-05-03T08:08:19Z</time></trkpt><trkpt lat="44.30565429911364" lon="7.852969447715802"><ele>874.0</ele><time>2026-05-03T08:08:20Z</time></trkpt><trkpt lat="44.30556693940379" lon="7.853002620263479"><ele>874.0</ele><time>2026-05-03T08:08:21Z</time></trkpt><trkpt lat="44.30547553587988" lon="7.853046072768929"><ele>873.0</ele><time>2026-05-03T08:08:22Z</time></trkpt><trkpt lat="44.305380810136775" lon="7.853069156667334"><ele>872.0000000000001</ele><time>2026-05-03T08:08:23Z</time></trkpt><trkpt lat="44.3052861947514" lon="7.8530977236276485"><ele>871.0000000000001</ele><time>2026-05-03T08:08:24Z</time></trkpt><trkpt lat="44.30518740679998" lon="7.853113100440443"><ele>870.0</ele><time>2026-05-03T08:08:25Z</time></trkpt><trkpt lat="44.30508792733757" lon="7.853114510054198"><ele>869.0</ele><time>2026-05-03T08:08:26Z</time></trkpt><trkpt lat="44.304996896378945" lon="7.853111423623527"><ele>869.0000000000001</ele><time>2026-05-03T08:08:27Z</time></trkpt><trkpt lat="44.304916199058205" lon="7.853106705578286"><ele>869.0</ele><time>2026-05-03T08:08:28Z</time></trkpt><trkpt lat="44.304833542218475" lon="7.853084061379678"><ele>869.0</ele><time>2026-05-03T08:08:29Z</time></trkpt><trkpt lat="44.30477020903305" lon="7.853055913980952"><ele>869.0</ele><time>2026-05-03T08:08:30Z</time></trkpt><trkpt lat="44.30470105834821" lon="7.853018499108621"><ele>869.0000000000001</ele><time>2026-05-03T08:08:31Z</time></trkpt><trkpt lat="44.30463295374551" lon="7.852973435937188"><ele>869.0</ele><time>2026-05-03T08:08:32Z</time></trkpt><trkpt lat="44.30457182589999" lon="7.852924824360445"><ele>869.5000000000001</ele><time>2026-05-03T08:08:33Z</time></trkpt><trkpt lat="44.3045106385094" lon="7.852865495238518"><ele>870.0</ele><time>2026-05-03T08:08:34Z</time></trkpt><trkpt lat="44.304449067085244" lon="7.852802876962476"><ele>870.5</ele><time>2026-05-03T08:08:35Z</time></trkpt><trkpt lat="44.304386797096114" lon="7.852738386480426"><ele>871.0</ele><time>2026-05-03T08:08:36Z</time></trkpt><trkpt lat="44.30432076748041" lon="7.8526693298254555"><ele>871.5000000000001</ele><time>2026-05-03T08:08:37Z</time></trkpt><trkpt lat="44.30425470710695" lon="7.8526082443931875"><ele>872.0</ele><time>2026-05-03T08:08:38Z</time></trkpt><trkpt lat="44.30418388598473" lon="7.852560682152119"><ele>871.3333333333334</ele><time>2026-05-03T08:08:39Z</time></trkpt><trkpt lat="44.30411165732552" lon="7.852507557125912"><ele>870.6666666666667</ele><time>2026-05-03T08:08:40Z</time></trkpt><trkpt lat="44.304036822521624" lon="7.852469249564991"><ele>870.0</ele><time>2026-05-03T08:08:41Z</time></trkpt><trkpt lat="44.30395688359921" lon="7.852427769116369"><ele>869.3333333333333</ele><time>2026-05-03T08:08:42Z</time></trkpt><trkpt lat="44.30387537611349" lon="7.852390668426352"><ele>868.6666666666666</ele><time>2026-05-03T08:08:43Z</time></trkpt><trkpt lat="44.303792180686415" lon="7.85235266082183"><ele>868.0</ele><time>2026-05-03T08:08:43.999Z</time></trkpt><trkpt lat="44.303709801831694" lon="7.852315364121688"><ele>867.9999999999999</ele><time>2026-05-03T08:08:44.999Z</time></trkpt><trkpt lat="44.30363004588537" lon="7.852281192701272"><ele>868.0</ele><time>2026-05-03T08:08:45.999Z</time></trkpt><trkpt lat="44.30355709163019" lon="7.852263341890827"><ele>868.0</ele><time>2026-05-03T08:08:46.999Z</time></trkpt><trkpt lat="44.30348156537338" lon="7.852261501984559"><ele>868.0</ele><time>2026-05-03T08:08:47.999Z</time></trkpt><trkpt lat="44.30340587673367" lon="7.8522810115848545"><ele>867.9999999999999</ele><time>2026-05-03T08:08:48.999Z</time></trkpt><trkpt lat="44.303334771768355" lon="7.852318180589548"><ele>868.0</ele><time>2026-05-03T08:08:49.999Z</time></trkpt><trkpt lat="44.30326861474559" lon="7.852377370620443"><ele>867.9999999999999</ele><time>2026-05-03T08:08:50.999Z</time></trkpt><trkpt lat="44.30320737301798" lon="7.852445650771927"><ele>868.0</ele><time>2026-05-03T08:08:51.999Z</time></trkpt><trkpt lat="44.303145161048285" lon="7.852516558704976"><ele>868.0</ele><time>2026-05-03T08:08:52.999Z</time></trkpt><trkpt lat="44.30308533352734" lon="7.852592318656987"><ele>868.0</ele><time>2026-05-03T08:08:53.999Z</time></trkpt><trkpt lat="44.30302917619285" lon="7.852663630371605"><ele>867.9999999999999</ele><time>2026-05-03T08:08:54.999Z</time></trkpt><trkpt lat="44.30298281598988" lon="7.852738835149391"><ele>868.0</ele><time>2026-05-03T08:08:55.999Z</time></trkpt><trkpt lat="44.30294518344224" lon="7.852831440464983"><ele>867.8333333333333</ele><time>2026-05-03T08:08:56.999Z</time></trkpt><trkpt lat="44.302914321523836" lon="7.85293490837274"><ele>867.6666666666666</ele><time>2026-05-03T08:08:57.999Z</time></trkpt><trkpt lat="44.302892239884414" lon="7.853047123184257"><ele>867.5</ele><time>2026-05-03T08:08:58.999Z</time></trkpt><trkpt lat="44.302878370227056" lon="7.853165774149966"><ele>867.3333333333333</ele><time>2026-05-03T08:08:59.999Z</time></trkpt><trkpt lat="44.3028607530529" lon="7.853282193979705"><ele>867.1666666666666</ele><time>2026-05-03T08:09:00.999Z</time></trkpt><trkpt lat="44.30284305050898" lon="7.8533898556133845"><ele>867.0</ele><time>2026-05-03T08:09:01.999Z</time></trkpt><trkpt lat="44.30282254353157" lon="7.85350250090271"><ele>869.2</ele><time>2026-05-03T08:09:02.999Z</time></trkpt><trkpt lat="44.30279011886738" lon="7.853614847914557"><ele>871.4000000000001</ele><time>2026-05-03T08:09:03.999Z</time></trkpt><trkpt lat="44.302757566664944" lon="7.853741332951681"><ele>873.5999999999999</ele><time>2026-05-03T08:09:04.999Z</time></trkpt><trkpt lat="44.302709213870095" lon="7.853853650883147"><ele>875.8</ele><time>2026-05-03T08:09:05.999Z</time></trkpt><trkpt lat="44.30266448019402" lon="7.85396950375617"><ele>878.0</ele><time>2026-05-03T08:09:06.999Z</time></trkpt><trkpt lat="44.3026203797623" lon="7.854083069669859"><ele>878.0000000000001</ele><time>2026-05-03T08:09:07.999Z</time></trkpt><trkpt lat="44.30257803790514" lon="7.854192449511076"><ele>878.0</ele><time>2026-05-03T08:09:08.999Z</time></trkpt><trkpt lat="44.30253813836254" lon="7.8543033842845995"><ele>878.0</ele><time>2026-05-03T08:09:09.999Z</time></trkpt><trkpt lat="44.302511715410986" lon="7.854425998026559"><ele>878.0</ele><time>2026-05-03T08:09:10.999Z</time></trkpt><trkpt lat="44.30249615578943" lon="7.854546276185738"><ele>878.0000000000001</ele><time>2026-05-03T08:09:11.999Z</time></trkpt><trkpt lat="44.30248383855745" lon="7.854673668949002"><ele>878.0</ele><time>2026-05-03T08:09:12.999Z</time></trkpt><trkpt lat="44.30247359292337" lon="7.854796029678206"><ele>879.1666666666667</ele><time>2026-05-03T08:09:13.999Z</time></trkpt><trkpt lat="44.30245935698288" lon="7.854917504598237"><ele>880.3333333333334</ele><time>2026-05-03T08:09:14.999Z</time></trkpt><trkpt lat="44.30243570581643" lon="7.855031910171269"><ele>881.5</ele><time>2026-05-03T08:09:15.999Z</time></trkpt><trkpt lat="44.30241531243174" lon="7.8551456581227415"><ele>882.6666666666667</ele><time>2026-05-03T08:09:16.999Z</time></trkpt><trkpt lat="44.3023788306597" lon="7.855262960790891"><ele>883.8333333333334</ele><time>2026-05-03T08:09:17.999Z</time></trkpt><trkpt lat="44.30233318548941" lon="7.855364464637615"><ele>885.0</ele><time>2026-05-03T08:09:18.999Z</time></trkpt><trkpt lat="44.30227973877672" lon="7.855477759739842"><ele>885.5</ele><time>2026-05-03T08:09:19.999Z</time></trkpt><trkpt lat="44.302225322880275" lon="7.855584558383851"><ele>886.0</ele><time>2026-05-03T08:09:20.999Z</time></trkpt><trkpt lat="44.30217264111681" lon="7.8556810438574525"><ele>886.5</ele><time>2026-05-03T08:09:21.999Z</time></trkpt><trkpt lat="44.30212823371987" lon="7.855767267446787"><ele>887.0</ele><time>2026-05-03T08:09:22.999Z</time></trkpt><trkpt lat="44.302082332604314" lon="7.855859705901418"><ele>887.5</ele><time>2026-05-03T08:09:23.999Z</time></trkpt><trkpt lat="44.302032658339115" lon="7.855957826462235"><ele>888.0</ele><time>2026-05-03T08:09:24.999Z</time></trkpt><trkpt lat="44.301980893281154" lon="7.856039580015688"><ele>888.0</ele><time>2026-05-03T08:09:25.999Z</time></trkpt><trkpt lat="44.301941078069085" lon="7.856139117945412"><ele>888.0</ele><time>2026-05-03T08:09:26.999Z</time></trkpt><trkpt lat="44.30190104522139" lon="7.85623967012346"><ele>888.0</ele><time>2026-05-03T08:09:27.999Z</time></trkpt><trkpt lat="44.30187399372319" lon="7.856355084524915"><ele>888.0</ele><time>2026-05-03T08:09:28.999Z</time></trkpt><trkpt lat="44.30181896516776" lon="7.856457991212512"><ele>888.0</ele><time>2026-05-03T08:09:29.999Z</time></trkpt><trkpt lat="44.30177687868201" lon="7.856566886759315"><ele>888.0</ele><time>2026-05-03T08:09:30.999Z</time></trkpt><trkpt lat="44.301729719854144" lon="7.856680545896229"><ele>887.2</ele><time>2026-05-03T08:09:31.999Z</time></trkpt><trkpt lat="44.30168542731819" lon="7.85678613970621"><ele>886.4</ele><time>2026-05-03T08:09:32.999Z</time></trkpt><trkpt lat="44.301629012751924" lon="7.856896381850636"><ele>885.6000000000001</ele><time>2026-05-03T08:09:33.999Z</time></trkpt><trkpt lat="44.30156089641322" lon="7.857003106618942"><ele>884.8000000000001</ele><time>2026-05-03T08:09:34.999Z</time></trkpt><trkpt lat="44.30148926680384" lon="7.85710577097209"><ele>884.0</ele><time>2026-05-03T08:09:35.999Z</time></trkpt><trkpt lat="44.301411492939025" lon="7.857208752671296"><ele>884.0</ele><time>2026-05-03T08:09:36.999Z</time></trkpt><trkpt lat="44.30133258633865" lon="7.857310931907363"><ele>884.0</ele><time>2026-05-03T08:09:37.999Z</time></trkpt><trkpt lat="44.30124392148329" lon="7.857421851941202"><ele>884.0</ele><time>2026-05-03T08:09:38.999Z</time></trkpt><trkpt lat="44.301140173545384" lon="7.857555110166646"><ele>884.0</ele><time>2026-05-03T08:09:39.999Z</time></trkpt><trkpt lat="44.30104638725744" lon="7.8576673101584715"><ele>888.0</ele><time>2026-05-03T08:09:40.999Z</time></trkpt><trkpt lat="44.30096104412734" lon="7.8577634978819315"><ele>892.0000000000001</ele><time>2026-05-03T08:09:41.999Z</time></trkpt><trkpt lat="44.30087760928129" lon="7.857860634751445"><ele>896.0000000000001</ele><time>2026-05-03T08:09:42.999Z</time></trkpt><trkpt lat="44.30079332166282" lon="7.857964088322355"><ele>900.0</ele><time>2026-05-03T08:09:43.999Z</time></trkpt><trkpt lat="44.300714502410926" lon="7.85806565859303"><ele>904.0</ele><time>2026-05-03T08:09:44.999Z</time></trkpt><trkpt lat="44.30063949480005" lon="7.85817454216527"><ele>903.8000000000001</ele><time>2026-05-03T08:09:45.999Z</time></trkpt><trkpt lat="44.30055499879139" lon="7.8582721495011825"><ele>903.6000000000001</ele><time>2026-05-03T08:09:46.999Z</time></trkpt><trkpt lat="44.30048579753222" lon="7.858380829038152"><ele>903.4</ele><time>2026-05-03T08:09:47.999Z</time></trkpt><trkpt lat="44.300421112645694" lon="7.858483381780907"><ele>903.2</ele><time>2026-05-03T08:09:48.999Z</time></trkpt><trkpt lat="44.30035385510626" lon="7.858585195773034"><ele>903.0</ele><time>2026-05-03T08:09:49.999Z</time></trkpt><trkpt lat="44.30029247569764" lon="7.858684303570178"><ele>903.0</ele><time>2026-05-03T08:09:50.999Z</time></trkpt><trkpt lat="44.30022576023381" lon="7.8587903899143665"><ele>903.0</ele><time>2026-05-03T08:09:51.999Z</time></trkpt><trkpt lat="44.30016026769689" lon="7.8588977122575505"><ele>903.0</ele><time>2026-05-03T08:09:52.999Z</time></trkpt><trkpt lat="44.300094996629944" lon="7.859003483405642"><ele>903.0</ele><time>2026-05-03T08:09:53.999Z</time></trkpt><trkpt lat="44.30002591853641" lon="7.8591181537731885"><ele>903.0</ele><time>2026-05-03T08:09:55Z</time></trkpt><trkpt lat="44.29995814922492" lon="7.859219781941671"><ele>903.4</ele><time>2026-05-03T08:09:56Z</time></trkpt><trkpt lat="44.29988127139523" lon="7.859325159783366"><ele>903.8</ele><time>2026-05-03T08:09:57Z</time></trkpt><trkpt lat="44.299810532072634" lon="7.85943059331186"><ele>904.2</ele><time>2026-05-03T08:09:58Z</time></trkpt><trkpt lat="44.2997358009206" lon="7.859532876864928"><ele>904.6</ele><time>2026-05-03T08:09:59Z</time></trkpt><trkpt lat="44.29965671918129" lon="7.859644064739229"><ele>905.0</ele><time>2026-05-03T08:10:00Z</time></trkpt><trkpt lat="44.29957167157749" lon="7.859748183347388"><ele>905.0</ele><time>2026-05-03T08:10:01Z</time></trkpt><trkpt lat="44.29950911473463" lon="7.859840672181568"><ele>905.0</ele><time>2026-05-03T08:10:02Z</time></trkpt><trkpt lat="44.29942079603271" lon="7.85992958055948"><ele>905.0</ele><time>2026-05-03T08:10:03Z</time></trkpt><trkpt lat="44.299357689828994" lon="7.8600361737462565"><ele>905.0</ele><time>2026-05-03T08:10:04Z</time></trkpt><trkpt lat="44.2992955904353" lon="7.86014778770743"><ele>905.0</ele><time>2026-05-03T08:10:05Z</time></trkpt><trkpt lat="44.2992346872485" lon="7.8602690931994825"><ele>907.2</ele><time>2026-05-03T08:10:06Z</time></trkpt><trkpt lat="44.299180381189416" lon="7.860384895639189"><ele>909.4</ele><time>2026-05-03T08:10:07Z</time></trkpt><trkpt lat="44.299128888161206" lon="7.860491425407492"><ele>911.5999999999999</ele><time>2026-05-03T08:10:08Z</time></trkpt><trkpt lat="44.29907307602179" lon="7.8605986991014865"><ele>913.8</ele><time>2026-05-03T08:10:09Z</time></trkpt><trkpt lat="44.299015592170804" lon="7.860705715416437"><ele>916.0</ele><time>2026-05-03T08:10:10Z</time></trkpt><trkpt lat="44.29896145453228" lon="7.86081546747585"><ele>915.0</ele><time>2026-05-03T08:10:11Z</time></trkpt><trkpt lat="44.2989080982038" lon="7.860930761218196"><ele>913.9999999999999</ele><time>2026-05-03T08:10:12Z</time></trkpt><trkpt lat="44.298848522550486" lon="7.861043560522478"><ele>912.9999999999999</ele><time>2026-05-03T08:10:13Z</time></trkpt><trkpt lat="44.298803249775304" lon="7.861156763366987"><ele>912.0</ele><time>2026-05-03T08:10:14Z</time></trkpt><trkpt lat="44.29874399539699" lon="7.8612708356985594"><ele>911.0</ele><time>2026-05-03T08:10:15Z</time></trkpt><trkpt lat="44.29868403556482" lon="7.8613726547965594"><ele>911.0</ele><time>2026-05-03T08:10:16Z</time></trkpt><trkpt lat="44.2986307367321" lon="7.861470908236689"><ele>910.9999999999999</ele><time>2026-05-03T08:10:17Z</time></trkpt><trkpt lat="44.2985736499208" lon="7.861579292660424"><ele>910.9999999999999</ele><time>2026-05-03T08:10:18Z</time></trkpt><trkpt lat="44.29851523686292" lon="7.861693954785157"><ele>911.0</ele><time>2026-05-03T08:10:19Z</time></trkpt><trkpt lat="44.29846319305974" lon="7.8618045921794675"><ele>911.0</ele><time>2026-05-03T08:10:20Z</time></trkpt><trkpt lat="44.29840726953466" lon="7.86191237669215"><ele>913.5999999999999</ele><time>2026-05-03T08:10:21Z</time></trkpt><trkpt lat="44.298335739545685" lon="7.862013899351884"><ele>916.1999999999999</ele><time>2026-05-03T08:10:22Z</time></trkpt><trkpt lat="44.298276413581455" lon="7.862131950144673"><ele>918.8000000000001</ele><time>2026-05-03T08:10:23Z</time></trkpt><trkpt lat="44.298224201516604" lon="7.862243495046203"><ele>921.4000000000001</ele><time>2026-05-03T08:10:24Z</time></trkpt><trkpt lat="44.298169629519265" lon="7.862375699865393"><ele>924.0</ele><time>2026-05-03T08:10:25Z</time></trkpt><trkpt lat="44.29811727285664" lon="7.862515628176007"><ele>922.2</ele><time>2026-05-03T08:10:26Z</time></trkpt><trkpt lat="44.29806974553373" lon="7.862645433982533"><ele>920.4000000000001</ele><time>2026-05-03T08:10:27Z</time></trkpt><trkpt lat="44.29802470205587" lon="7.862768455843483"><ele>918.6</ele><time>2026-05-03T08:10:28Z</time></trkpt><trkpt lat="44.297977381855176" lon="7.862900369468948"><ele>916.8</ele><time>2026-05-03T08:10:29Z</time></trkpt><trkpt lat="44.29792881722392" lon="7.863037525048552"><ele>915.0</ele><time>2026-05-03T08:10:30Z</time></trkpt><trkpt lat="44.29787892524211" lon="7.8631844283275765"><ele>915.0</ele><time>2026-05-03T08:10:31Z</time></trkpt><trkpt lat="44.2978370629478" lon="7.863320485324295"><ele>915.0</ele><time>2026-05-03T08:10:32Z</time></trkpt><trkpt lat="44.297804061442186" lon="7.863435238007242"><ele>915.0</ele><time>2026-05-03T08:10:33Z</time></trkpt><trkpt lat="44.29777742211317" lon="7.8635637714882085"><ele>915.0</ele><time>2026-05-03T08:10:34Z</time></trkpt><trkpt lat="44.29776075382608" lon="7.863713001654692"><ele>915.0</ele><time>2026-05-03T08:10:35Z</time></trkpt><trkpt lat="44.29775647588663" lon="7.8638599481154285"><ele>915.8</ele><time>2026-05-03T08:10:36Z</time></trkpt><trkpt lat="44.297759566616186" lon="7.864010695652356"><ele>916.6</ele><time>2026-05-03T08:10:37Z</time></trkpt><trkpt lat="44.297780191590725" lon="7.864166930934378"><ele>917.4000000000001</ele><time>2026-05-03T08:10:38Z</time></trkpt><trkpt lat="44.297772544889554" lon="7.864324833251282"><ele>918.2</ele><time>2026-05-03T08:10:39Z</time></trkpt><trkpt lat="44.297776753676025" lon="7.8644643527255775"><ele>919.0</ele><time>2026-05-03T08:10:40Z</time></trkpt><trkpt lat="44.29778034631916" lon="7.8646076078284475"><ele>920.0</ele><time>2026-05-03T08:10:41Z</time></trkpt><trkpt lat="44.297779113102806" lon="7.864740842408691"><ele>921.0000000000001</ele><time>2026-05-03T08:10:42Z</time></trkpt><trkpt lat="44.29776771541003" lon="7.864872910595108"><ele>922.0000000000001</ele><time>2026-05-03T08:10:43Z</time></trkpt><trkpt lat="44.29774229255618" lon="7.864989841129742"><ele>923.0</ele><time>2026-05-03T08:10:44Z</time></trkpt><trkpt lat="44.29770985631114" lon="7.865109752398187"><ele>924.0</ele><time>2026-05-03T08:10:45Z</time></trkpt><trkpt lat="44.297669860475814" lon="7.8652289829134014"><ele>925.8000000000001</ele><time>2026-05-03T08:10:46Z</time></trkpt><trkpt lat="44.297629581301024" lon="7.865344340262845"><ele>927.6000000000001</ele><time>2026-05-03T08:10:47Z</time></trkpt><trkpt lat="44.29758845331106" lon="7.865449214061901"><ele>929.4</ele><time>2026-05-03T08:10:48Z</time></trkpt><trkpt lat="44.29755220898019" lon="7.865567952812602"><ele>931.2</ele><time>2026-05-03T08:10:49Z</time></trkpt><trkpt lat="44.29752827446203" lon="7.865703648141078"><ele>933.0</ele><time>2026-05-03T08:10:50Z</time></trkpt><trkpt lat="44.29752438667401" lon="7.865847452941017"><ele>934.0</ele><time>2026-05-03T08:10:51Z</time></trkpt><trkpt lat="44.29752282751552" lon="7.865987450494529"><ele>935.0</ele><time>2026-05-03T08:10:51.999Z</time></trkpt><trkpt lat="44.2975240668883" lon="7.866097944607423"><ele>936.0</ele><time>2026-05-03T08:10:52.999Z</time></trkpt><trkpt lat="44.29751140957611" lon="7.8662116004672065"><ele>937.0</ele><time>2026-05-03T08:10:53.999Z</time></trkpt><trkpt lat="44.29748916625154" lon="7.8663445264518925"><ele>938.0</ele><time>2026-05-03T08:10:54.999Z</time></trkpt><trkpt lat="44.297449998366986" lon="7.866437134446997"><ele>939.0</ele><time>2026-05-03T08:10:55.999Z</time></trkpt><trkpt lat="44.29739338630192" lon="7.866528023071054"><ele>939.0</ele><time>2026-05-03T08:10:56.999Z</time></trkpt><trkpt lat="44.29734840552791" lon="7.866599647909497"><ele>939.0</ele><time>2026-05-03T08:10:57.999Z</time></trkpt><trkpt lat="44.29731737225859" lon="7.866679865206896"><ele>939.0</ele><time>2026-05-03T08:10:58.999Z</time></trkpt><trkpt lat="44.29729063284833" lon="7.86676327969305"><ele>939.0</ele><time>2026-05-03T08:10:59.999Z</time></trkpt><trkpt lat="44.2973164339167" lon="7.866913111328836"><ele>939.0</ele><time>2026-05-03T08:11:01.999Z</time></trkpt><trkpt lat="44.29738131843167" lon="7.866976090600732"><ele>939.0</ele><time>2026-05-03T08:11:03.999Z</time></trkpt><trkpt lat="44.29745201174943" lon="7.86697198778987"><ele>939.0</ele><time>2026-05-03T08:11:04.999Z</time></trkpt><trkpt lat="44.29753243939808" lon="7.866818840389818"><ele>939.0000000000001</ele><time>2026-05-03T08:11:05.999Z</time></trkpt><trkpt lat="44.29758196523136" lon="7.866706089526248"><ele>939.0000000000001</ele><time>2026-05-03T08:11:06.999Z</time></trkpt><trkpt lat="44.29762013475423" lon="7.86660598151327"><ele>939.0</ele><time>2026-05-03T08:11:07.999Z</time></trkpt><trkpt lat="44.29766178929182" lon="7.866499146639237"><ele>939.0</ele><time>2026-05-03T08:11:08.999Z</time></trkpt><trkpt lat="44.29769899745548" lon="7.8663872657855425"><ele>939.0</ele><time>2026-05-03T08:11:09.999Z</time></trkpt><trkpt lat="44.297722324219336" lon="7.86625471196677"><ele>939.0</ele><time>2026-05-03T08:11:10.999Z</time></trkpt><trkpt lat="44.29772735679737" lon="7.866098444425719"><ele>939.0</ele><time>2026-05-03T08:11:11.999Z</time></trkpt><trkpt lat="44.29774734754017" lon="7.865979834993523"><ele>939.0</ele><time>2026-05-03T08:11:12.999Z</time></trkpt><trkpt lat="44.29775329450258" lon="7.865884058150057"><ele>939.0</ele><time>2026-05-03T08:11:13.999Z</time></trkpt><trkpt lat="44.29776440928064" lon="7.865793784527409"><ele>939.0</ele><time>2026-05-03T08:11:14.999Z</time></trkpt><trkpt lat="44.29779747605949" lon="7.865641786615408"><ele>939.0</ele><time>2026-05-03T08:11:16.999Z</time></trkpt><trkpt lat="44.29785367589306" lon="7.865600261367875"><ele>939.0000000000001</ele><time>2026-05-03T08:11:17.999Z</time></trkpt><trkpt lat="44.29796959148973" lon="7.865633263183803"><ele>939.0000000000001</ele><time>2026-05-03T08:11:19.999Z</time></trkpt><trkpt lat="44.29805387822096" lon="7.865733892998374"><ele>939.0</ele><time>2026-05-03T08:11:21.999Z</time></trkpt><trkpt lat="44.29803479093339" lon="7.8658765662392085"><ele>939.0</ele><time>2026-05-03T08:11:22.999Z</time></trkpt><trkpt lat="44.29805320809402" lon="7.865984119359699"><ele>939.0</ele><time>2026-05-03T08:11:23.999Z</time></trkpt><trkpt lat="44.29808133104286" lon="7.866105065298532"><ele>939.0000000000001</ele><time>2026-05-03T08:11:24.999Z</time></trkpt><trkpt lat="44.29810459290733" lon="7.866235804282059"><ele>939.0000000000001</ele><time>2026-05-03T08:11:25.999Z</time></trkpt><trkpt lat="44.29813245065329" lon="7.866374494568902"><ele>939.0</ele><time>2026-05-03T08:11:26.999Z</time></trkpt><trkpt lat="44.29814462029454" lon="7.866554113668659"><ele>939.0</ele><time>2026-05-03T08:11:27.999Z</time></trkpt><trkpt lat="44.298164871360655" lon="7.866729833468891"><ele>944.0</ele><time>2026-05-03T08:11:28.999Z</time></trkpt><trkpt lat="44.29816832483173" lon="7.866894005963059"><ele>949.0</ele><time>2026-05-03T08:11:29.999Z</time></trkpt><trkpt lat="44.298140940433704" lon="7.867094997628501"><ele>954.0</ele><time>2026-05-03T08:11:30.999Z</time></trkpt><trkpt lat="44.2981154244142" lon="7.867260351480296"><ele>959.0</ele><time>2026-05-03T08:11:31.999Z</time></trkpt><trkpt lat="44.298115706875" lon="7.867423507197053"><ele>959.0</ele><time>2026-05-03T08:11:32.999Z</time></trkpt><trkpt lat="44.29811067745678" lon="7.867607143920898"><ele>959.0</ele><time>2026-05-03T08:11:33.999Z</time></trkpt><trkpt lat="44.29811001470357" lon="7.867784107885526"><ele>959.0</ele><time>2026-05-03T08:11:34.999Z</time></trkpt><trkpt lat="44.29810561277054" lon="7.867923663618889"><ele>959.0</ele><time>2026-05-03T08:11:35.999Z</time></trkpt><trkpt lat="44.29809511554658" lon="7.868076405287984"><ele>959.0</ele><time>2026-05-03T08:11:36.999Z</time></trkpt><trkpt lat="44.29807982988247" lon="7.868227396960224"><ele>959.0000000000001</ele><time>2026-05-03T08:11:37.999Z</time></trkpt><trkpt lat="44.298057166190894" lon="7.868375487588011"><ele>959.0000000000001</ele><time>2026-05-03T08:11:38.999Z</time></trkpt><trkpt lat="44.29804060361095" lon="7.868526585390124"><ele>959.0</ele><time>2026-05-03T08:11:39.999Z</time></trkpt><trkpt lat="44.298018367717496" lon="7.8686769883464205"><ele>959.0</ele><time>2026-05-03T08:11:40.999Z</time></trkpt><trkpt lat="44.29799630820714" lon="7.868848667624213"><ele>959.0</ele><time>2026-05-03T08:11:41.999Z</time></trkpt><trkpt lat="44.29797041019564" lon="7.868998303723234"><ele>959.0000000000001</ele><time>2026-05-03T08:11:42.999Z</time></trkpt><trkpt lat="44.29794633357944" lon="7.869147141752884"><ele>959.0000000000001</ele><time>2026-05-03T08:11:43.999Z</time></trkpt><trkpt lat="44.29792068340215" lon="7.86928509075984"><ele>959.0</ele><time>2026-05-03T08:11:44.999Z</time></trkpt><trkpt lat="44.29789540820712" lon="7.869419669514345"><ele>959.0</ele><time>2026-05-03T08:11:45.999Z</time></trkpt><trkpt lat="44.29786697700184" lon="7.86952768134121"><ele>960.8000000000001</ele><time>2026-05-03T08:11:46.999Z</time></trkpt><trkpt lat="44.29784037347253" lon="7.869643893852756"><ele>962.6000000000001</ele><time>2026-05-03T08:11:47.999Z</time></trkpt><trkpt lat="44.297799715197534" lon="7.869782707110648"><ele>964.4</ele><time>2026-05-03T08:11:48.999Z</time></trkpt><trkpt lat="44.29774793242785" lon="7.869912348395728"><ele>966.2</ele><time>2026-05-03T08:11:49.999Z</time></trkpt><trkpt lat="44.297674524286435" lon="7.870009651408743"><ele>968.0</ele><time>2026-05-03T08:11:50.999Z</time></trkpt><trkpt lat="44.2976082366313" lon="7.870133666644635"><ele>968.5999999999999</ele><time>2026-05-03T08:11:51.999Z</time></trkpt><trkpt lat="44.29752149133512" lon="7.870239163554062"><ele>969.1999999999999</ele><time>2026-05-03T08:11:52.999Z</time></trkpt><trkpt lat="44.29745192070817" lon="7.870329380211177"><ele>969.8</ele><time>2026-05-03T08:11:53.999Z</time></trkpt><trkpt lat="44.297380000708365" lon="7.870436970669599"><ele>970.4</ele><time>2026-05-03T08:11:54.999Z</time></trkpt><trkpt lat="44.29730768612504" lon="7.870536913804175"><ele>971.0</ele><time>2026-05-03T08:11:55.999Z</time></trkpt><trkpt lat="44.29721376792533" lon="7.870627912119985"><ele>971.0</ele><time>2026-05-03T08:11:56.999Z</time></trkpt><trkpt lat="44.297139113624986" lon="7.870733941392244"><ele>970.9999999999999</ele><time>2026-05-03T08:11:57.999Z</time></trkpt><trkpt lat="44.29704748738116" lon="7.870814739407931"><ele>970.9999999999999</ele><time>2026-05-03T08:11:58.999Z</time></trkpt><trkpt lat="44.296963403292246" lon="7.870883478979989"><ele>971.0</ele><time>2026-05-03T08:11:59.999Z</time></trkpt><trkpt lat="44.29688850626033" lon="7.870941009903558"><ele>971.0</ele><time>2026-05-03T08:12:01Z</time></trkpt><trkpt lat="44.296817345140305" lon="7.871013719679958"><ele>972.8</ele><time>2026-05-03T08:12:02Z</time></trkpt><trkpt lat="44.29676113981661" lon="7.871105245937805"><ele>974.5999999999999</ele><time>2026-05-03T08:12:03Z</time></trkpt><trkpt lat="44.29670417371337" lon="7.871202512913281"><ele>976.4</ele><time>2026-05-03T08:12:04Z</time></trkpt><trkpt lat="44.29667623288786" lon="7.8713264536586935"><ele>978.2</ele><time>2026-05-03T08:12:05Z</time></trkpt><trkpt lat="44.296664057164" lon="7.871470934112125"><ele>980.0</ele><time>2026-05-03T08:12:06Z</time></trkpt><trkpt lat="44.29665520932675" lon="7.87161554063708"><ele>980.0</ele><time>2026-05-03T08:12:07Z</time></trkpt><trkpt lat="44.296642249457456" lon="7.871769405721151"><ele>980.0</ele><time>2026-05-03T08:12:08Z</time></trkpt><trkpt lat="44.2966377438124" lon="7.87192291284651"><ele>980.0</ele><time>2026-05-03T08:12:09Z</time></trkpt><trkpt lat="44.29660917142324" lon="7.872051231132575"><ele>980.0</ele><time>2026-05-03T08:12:10Z</time></trkpt><trkpt lat="44.29655416447485" lon="7.8721687297431915"><ele>980.0</ele><time>2026-05-03T08:12:11Z</time></trkpt><trkpt lat="44.29647817352921" lon="7.872288289479418"><ele>980.0</ele><time>2026-05-03T08:12:12Z</time></trkpt><trkpt lat="44.29639741601144" lon="7.872365823990234"><ele>980.0</ele><time>2026-05-03T08:12:13Z</time></trkpt><trkpt lat="44.296330061282156" lon="7.872453561701804"><ele>980.0</ele><time>2026-05-03T08:12:14Z</time></trkpt><trkpt lat="44.29625772767586" lon="7.872552296695409"><ele>980.0</ele><time>2026-05-03T08:12:15Z</time></trkpt><trkpt lat="44.29617744757492" lon="7.872662124530441"><ele>980.0</ele><time>2026-05-03T08:12:16Z</time></trkpt><trkpt lat="44.29612182703514" lon="7.872770057622174"><ele>982.4</ele><time>2026-05-03T08:12:17Z</time></trkpt><trkpt lat="44.2960501358923" lon="7.872865455297679"><ele>984.8</ele><time>2026-05-03T08:12:18Z</time></trkpt><trkpt lat="44.29597149192566" lon="7.8729670707814465"><ele>987.2</ele><time>2026-05-03T08:12:19Z</time></trkpt><trkpt lat="44.295910118855204" lon="7.873072699970635"><ele>989.6</ele><time>2026-05-03T08:12:20Z</time></trkpt><trkpt lat="44.2958333529123" lon="7.87315633426101"><ele>992.0</ele><time>2026-05-03T08:12:21Z</time></trkpt><trkpt lat="44.29576426166025" lon="7.8732575551388475"><ele>992.0</ele><time>2026-05-03T08:12:22Z</time></trkpt><trkpt lat="44.29569754244195" lon="7.873355300936097"><ele>992.0</ele><time>2026-05-03T08:12:23Z</time></trkpt><trkpt lat="44.2956339268147" lon="7.873478507711422"><ele>992.0</ele><time>2026-05-03T08:12:24Z</time></trkpt><trkpt lat="44.29556654454487" lon="7.873562858644418"><ele>992.0</ele><time>2026-05-03T08:12:25Z</time></trkpt><trkpt lat="44.295495398890885" lon="7.873657923679645"><ele>992.0</ele><time>2026-05-03T08:12:26Z</time></trkpt><trkpt lat="44.2954147874409" lon="7.873732899333944"><ele>992.6666666666667</ele><time>2026-05-03T08:12:27Z</time></trkpt><trkpt lat="44.29535012057659" lon="7.873814951608287"><ele>993.3333333333334</ele><time>2026-05-03T08:12:28Z</time></trkpt><trkpt lat="44.29529407533304" lon="7.873888631861807"><ele>994.0</ele><time>2026-05-03T08:12:29Z</time></trkpt><trkpt lat="44.29524254900622" lon="7.873957404907492"><ele>994.6666666666667</ele><time>2026-05-03T08:12:30Z</time></trkpt><trkpt lat="44.29517775165567" lon="7.874044792767942"><ele>995.3333333333334</ele><time>2026-05-03T08:12:31Z</time></trkpt><trkpt lat="44.29512355335828" lon="7.874117886382077"><ele>996.0</ele><time>2026-05-03T08:12:32Z</time></trkpt><trkpt lat="44.29506251477879" lon="7.874200206111807"><ele>995.8333333333334</ele><time>2026-05-03T08:12:33Z</time></trkpt><trkpt lat="44.29500238876195" lon="7.874296370473801"><ele>995.6666666666667</ele><time>2026-05-03T08:12:34Z</time></trkpt><trkpt lat="44.29493385805725" lon="7.874369580273152"><ele>995.5</ele><time>2026-05-03T08:12:35Z</time></trkpt><trkpt lat="44.29486642427324" lon="7.874442754840361"><ele>995.3333333333334</ele><time>2026-05-03T08:12:36Z</time></trkpt><trkpt lat="44.294799260205416" lon="7.874519450336573"><ele>995.1666666666667</ele><time>2026-05-03T08:12:37Z</time></trkpt><trkpt lat="44.294726569277564" lon="7.8746078417268786"><ele>995.0</ele><time>2026-05-03T08:12:38Z</time></trkpt><trkpt lat="44.29466044804438" lon="7.874691285549959"><ele>995.0000000000001</ele><time>2026-05-03T08:12:39Z</time></trkpt><trkpt lat="44.29460129936093" lon="7.874761172170807"><ele>995.0</ele><time>2026-05-03T08:12:40Z</time></trkpt><trkpt lat="44.29454324638406" lon="7.874824125081255"><ele>995.0</ele><time>2026-05-03T08:12:41Z</time></trkpt><trkpt lat="44.29446651883139" lon="7.874863393033637"><ele>995.0</ele><time>2026-05-03T08:12:42Z</time></trkpt><trkpt lat="44.29439203241505" lon="7.874918805124572"><ele>995.0000000000001</ele><time>2026-05-03T08:12:43Z</time></trkpt><trkpt lat="44.29431466241704" lon="7.8749761315582"><ele>995.0</ele><time>2026-05-03T08:12:44Z</time></trkpt><trkpt lat="44.29422833914398" lon="7.87503993092559"><ele>996.0000000000001</ele><time>2026-05-03T08:12:45Z</time></trkpt><trkpt lat="44.294168717422906" lon="7.875107602407926"><ele>997.0</ele><time>2026-05-03T08:12:46Z</time></trkpt><trkpt lat="44.294094550473126" lon="7.875156303471343"><ele>998.0</ele><time>2026-05-03T08:12:47Z</time></trkpt><trkpt lat="44.29402066927248" lon="7.875210149995827"><ele>999.0</ele><time>2026-05-03T08:12:48Z</time></trkpt><trkpt lat="44.29395527406345" lon="7.8752682109680725"><ele>1000.0000000000001</ele><time>2026-05-03T08:12:49Z</time></trkpt><trkpt lat="44.29387509699733" lon="7.8753015277119465"><ele>1001.0</ele><time>2026-05-03T08:12:50Z</time></trkpt><trkpt lat="44.293804515832235" lon="7.875353908339766"><ele>1001.3333333333334</ele><time>2026-05-03T08:12:51Z</time></trkpt><trkpt lat="44.29373199540018" lon="7.875407729258934"><ele>1001.6666666666667</ele><time>2026-05-03T08:12:52Z</time></trkpt><trkpt lat="44.29366608325885" lon="7.875455385780616"><ele>1002.0</ele><time>2026-05-03T08:12:53Z</time></trkpt><trkpt lat="44.29358742989566" lon="7.875512699059189"><ele>1002.3333333333333</ele><time>2026-05-03T08:12:54Z</time></trkpt><trkpt lat="44.293498143083276" lon="7.875577786800135"><ele>1002.6666666666666</ele><time>2026-05-03T08:12:55Z</time></trkpt><trkpt lat="44.293412992289014" lon="7.875660496674842"><ele>1003.0</ele><time>2026-05-03T08:12:56Z</time></trkpt><trkpt lat="44.29331025657665" lon="7.875714752723345"><ele>1002.9999999999999</ele><time>2026-05-03T08:12:56.999Z</time></trkpt><trkpt lat="44.293248099626766" lon="7.875760063720253"><ele>1003.0</ele><time>2026-05-03T08:12:57.999Z</time></trkpt><trkpt lat="44.293175218297584" lon="7.875814817557312"><ele>1003.0</ele><time>2026-05-03T08:12:58.999Z</time></trkpt><trkpt lat="44.293103696690146" lon="7.8758692029953075"><ele>1003.0</ele><time>2026-05-03T08:12:59.999Z</time></trkpt><trkpt lat="44.293033149451624" lon="7.875924596057187"><ele>1002.9999999999999</ele><time>2026-05-03T08:13:00.999Z</time></trkpt><trkpt lat="44.292973518247564" lon="7.875994392645597"><ele>1003.0</ele><time>2026-05-03T08:13:01.999Z</time></trkpt><trkpt lat="44.29290331459805" lon="7.876043358668864"><ele>1003.4999999999999</ele><time>2026-05-03T08:13:02.999Z</time></trkpt><trkpt lat="44.29284169467345" lon="7.876100130286203"><ele>1004.0</ele><time>2026-05-03T08:13:03.999Z</time></trkpt><trkpt lat="44.292739283059966" lon="7.876178258519093"><ele>1004.5</ele><time>2026-05-03T08:13:05.999Z</time></trkpt><trkpt lat="44.29268772064683" lon="7.876229094173269"><ele>1005.0</ele><time>2026-05-03T08:13:06.999Z</time></trkpt><trkpt lat="44.29264612882738" lon="7.876297911584626"><ele>1005.4999999999999</ele><time>2026-05-03T08:13:07.999Z</time></trkpt><trkpt lat="44.292582644625085" lon="7.876354701208938"><ele>1006.0</ele><time>2026-05-03T08:13:08.999Z</time></trkpt><trkpt lat="44.292521180277916" lon="7.876380519491611"><ele>1006.0</ele><time>2026-05-03T08:13:09.999Z</time></trkpt><trkpt lat="44.29242341314429" lon="7.876425463024937"><ele>1005.9999999999999</ele><time>2026-05-03T08:13:11.999Z</time></trkpt><trkpt lat="44.29235385216735" lon="7.876435028379962"><ele>1005.9999999999999</ele><time>2026-05-03T08:13:12.999Z</time></trkpt><trkpt lat="44.292289101253246" lon="7.876430876770184"><ele>1006.0</ele><time>2026-05-03T08:13:13.999Z</time></trkpt><trkpt lat="44.29216644629866" lon="7.876434297574747"><ele>1006.0</ele><time>2026-05-03T08:13:15.999Z</time></trkpt><trkpt lat="44.2920599498171" lon="7.876398195107044"><ele>1004.6666666666666</ele><time>2026-05-03T08:13:17.999Z</time></trkpt><trkpt lat="44.2919953809886" lon="7.876371815337242"><ele>1003.3333333333333</ele><time>2026-05-03T08:13:18.999Z</time></trkpt><trkpt lat="44.291918109714075" lon="7.876402995625738"><ele>1002.0</ele><time>2026-05-03T08:13:19.999Z</time></trkpt><trkpt lat="44.29186316490408" lon="7.876281215354013"><ele>1000.6666666666667</ele><time>2026-05-03T08:13:20.999Z</time></trkpt><trkpt lat="44.29180471589434" lon="7.876220038865628"><ele>999.3333333333334</ele><time>2026-05-03T08:13:21.999Z</time></trkpt><trkpt lat="44.29174209667833" lon="7.876159328134079"><ele>998.0</ele><time>2026-05-03T08:13:22.999Z</time></trkpt><trkpt lat="44.291672123678936" lon="7.876104983715513"><ele>998.0000000000001</ele><time>2026-05-03T08:13:23.999Z</time></trkpt><trkpt lat="44.291596867959775" lon="7.876055818749844"><ele>998.0</ele><time>2026-05-03T08:13:24.999Z</time></trkpt><trkpt lat="44.291531739879" lon="7.87601521658953"><ele>998.0</ele><time>2026-05-03T08:13:25.999Z</time></trkpt><trkpt lat="44.29144744302935" lon="7.875964690836001"><ele>998.0</ele><time>2026-05-03T08:13:27.999Z</time></trkpt><trkpt lat="44.29139699010239" lon="7.876037875472181"><ele>998.0000000000001</ele><time>2026-05-03T08:13:35.999Z</time></trkpt><trkpt lat="44.29148258239914" lon="7.876027412488768"><ele>998.0</ele><time>2026-05-03T08:13:38.999Z</time></trkpt><trkpt lat="44.291553753011634" lon="7.87605513812575"><ele>998.0</ele><time>2026-05-03T08:13:41.999Z</time></trkpt><trkpt lat="44.29162781807812" lon="7.8760034973678605"><ele>998.0</ele><time>2026-05-03T08:13:43.999Z</time></trkpt><trkpt lat="44.29174412929687" lon="7.876249122161458"><ele>998.0</ele><time>2026-05-03T08:13:44.999Z</time></trkpt><trkpt lat="44.29180686077744" lon="7.876310290083357"><ele>998.0</ele><time>2026-05-03T08:13:45.999Z</time></trkpt><trkpt lat="44.291872176071465" lon="7.876375830115998"><ele>998.0000000000001</ele><time>2026-05-03T08:13:46.999Z</time></trkpt><trkpt lat="44.291949802504796" lon="7.876443357756999"><ele>998.0</ele><time>2026-05-03T08:13:47.999Z</time></trkpt><trkpt lat="44.292042320238544" lon="7.876464100477778"><ele>998.0</ele><time>2026-05-03T08:13:48.999Z</time></trkpt><trkpt lat="44.29212807634026" lon="7.87645167860201"><ele>998.0</ele><time>2026-05-03T08:13:49.999Z</time></trkpt><trkpt lat="44.29220694285712" lon="7.876459173932857"><ele>998.0000000000001</ele><time>2026-05-03T08:13:50.999Z</time></trkpt><trkpt lat="44.29227221606324" lon="7.876470640214989"><ele>998.0</ele><time>2026-05-03T08:13:51.999Z</time></trkpt><trkpt lat="44.292338705994" lon="7.87646316911516"><ele>999.3333333333334</ele><time>2026-05-03T08:13:52.999Z</time></trkpt><trkpt lat="44.29241491590921" lon="7.876444792667157"><ele>1000.6666666666667</ele><time>2026-05-03T08:13:53.999Z</time></trkpt><trkpt lat="44.29249331558668" lon="7.876398052826674"><ele>1002.0</ele><time>2026-05-03T08:13:54.999Z</time></trkpt><trkpt lat="44.292550638296426" lon="7.876353137760819"><ele>1003.3333333333333</ele><time>2026-05-03T08:13:55.999Z</time></trkpt><trkpt lat="44.29260334016634" lon="7.8762829202832405"><ele>1004.6666666666666</ele><time>2026-05-03T08:13:57.999Z</time></trkpt><trkpt lat="44.29266976292657" lon="7.876230744546294"><ele>1006.0</ele><time>2026-05-03T08:14:00.998Z</time></trkpt><trkpt lat="44.29273699221657" lon="7.876190688352265"><ele>1006.0</ele><time>2026-05-03T08:14:03.998Z</time></trkpt><trkpt lat="44.29280581268579" lon="7.876139353564828"><ele>1005.9999999999999</ele><time>2026-05-03T08:14:09Z</time></trkpt><trkpt lat="44.29274190602397" lon="7.876096209334645"><ele>1005.9999999999999</ele><time>2026-05-03T08:14:50Z</time></trkpt><trkpt lat="44.29275647629818" lon="7.8761837436756315"><ele>1006.0</ele><time>2026-05-03T08:16:25Z</time></trkpt><trkpt lat="44.292670277474684" lon="7.876301077015021"><ele>1006.0</ele><time>2026-05-03T08:18:36Z</time></trkpt><trkpt lat="44.292797866903534" lon="7.876226150915484"><ele>1006.0</ele><time>2026-05-03T08:18:43Z</time></trkpt><trkpt lat="44.292872186037194" lon="7.876188518450139"><ele>1006.0</ele><time>2026-05-03T08:18:45Z</time></trkpt><trkpt lat="44.29268251705888" lon="7.876430517458905"><ele>1006.0</ele><time>2026-05-03T08:18:58Z</time></trkpt><trkpt lat="44.29262027391048" lon="7.876375412463055"><ele>1006.0</ele><time>2026-05-03T08:19:07Z</time></trkpt><trkpt lat="44.2926816330845" lon="7.876299995534554"><ele>1006.0</ele><time>2026-05-03T08:19:12Z</time></trkpt><trkpt lat="44.29275736426523" lon="7.876193399548191"><ele>1005.9999999999999</ele><time>2026-05-03T08:19:19.999Z</time></trkpt><trkpt lat="44.29270594965059" lon="7.876126560359576"><ele>1005.9999999999999</ele><time>2026-05-03T08:19:32.999Z</time></trkpt><trkpt lat="44.292727592442716" lon="7.876214655123536"><ele>1006.0</ele><time>2026-05-03T08:19:42.999Z</time></trkpt><trkpt lat="44.29275604286159" lon="7.8763007990899"><ele>1006.0</ele><time>2026-05-03T08:19:43.999Z</time></trkpt><trkpt lat="44.29268562047942" lon="7.8764692727464745"><ele>1006.0</ele><time>2026-05-03T08:19:45.999Z</time></trkpt><trkpt lat="44.29275989084818" lon="7.876501101824727"><ele>1005.9999999999999</ele><time>2026-05-03T08:19:46.999Z</time></trkpt><trkpt lat="44.29269450234157" lon="7.876475497641319"><ele>1005.9999999999999</ele><time>2026-05-03T08:22:31.998Z</time></trkpt><trkpt lat="44.29262663902668" lon="7.87650255948996"><ele>1006.0</ele><time>2026-05-03T08:22:46Z</time></trkpt><trkpt lat="44.29277296310432" lon="7.8763664686973"><ele>1006.0</ele><time>2026-05-03T08:22:49Z</time></trkpt><trkpt lat="44.29286357906441" lon="7.8762816954669"><ele>1005.9999999999999</ele><time>2026-05-03T08:22:50Z</time></trkpt><trkpt lat="44.29279537475471" lon="7.876300733081622"><ele>1006.0</ele><time>2026-05-03T08:22:54Z</time></trkpt><trkpt lat="44.292824051486704" lon="7.876200998918469"><ele>1006.0</ele><time>2026-05-03T08:22:56Z</time></trkpt><trkpt lat="44.29276655855309" lon="7.876158454858889"><ele>1006.0</ele><time>2026-05-03T08:22:58Z</time></trkpt><trkpt lat="44.292725686966456" lon="7.876272788431348"><ele>1005.9999999999999</ele><time>2026-05-03T08:29:39.999Z</time></trkpt><trkpt lat="44.29276177455326" lon="7.876187963551781"><ele>1006.0</ele><time>2026-05-03T08:30:26.999Z</time></trkpt><trkpt lat="44.29270925747075" lon="7.8760939942977775"><ele>1005.9999999999999</ele><time>2026-05-03T08:31:29Z</time></trkpt><trkpt lat="44.29269917470462" lon="7.876207518277222"><ele>1006.0</ele><time>2026-05-03T08:31:42Z</time></trkpt><trkpt lat="44.29264482406239" lon="7.8763180302239855"><ele>1006.0</ele><time>2026-05-03T08:31:45Z</time></trkpt><trkpt lat="44.29257963504021" lon="7.876358071406401"><ele>1006.0</ele><time>2026-05-03T08:31:46Z</time></trkpt><trkpt lat="44.292525172145226" lon="7.8764022143637575"><ele>1005.9999999999999</ele><time>2026-05-03T08:31:47Z</time></trkpt><trkpt lat="44.29243697765593" lon="7.876449563776941"><ele>1006.0</ele><time>2026-05-03T08:31:48Z</time></trkpt><trkpt lat="44.29233523955468" lon="7.876475843621294"><ele>1004.6666666666666</ele><time>2026-05-03T08:31:49Z</time></trkpt><trkpt lat="44.29224163160552" lon="7.876433663020435"><ele>1003.3333333333333</ele><time>2026-05-03T08:31:50Z</time></trkpt><trkpt lat="44.29214455951202" lon="7.876438440624502"><ele>1002.0</ele><time>2026-05-03T08:31:51Z</time></trkpt><trkpt lat="44.29205760918981" lon="7.876414627524389"><ele>1000.6666666666667</ele><time>2026-05-03T08:31:52Z</time></trkpt><trkpt lat="44.29198579554238" lon="7.876404102519811"><ele>999.3333333333334</ele><time>2026-05-03T08:31:53Z</time></trkpt><trkpt lat="44.291920433670384" lon="7.876403033573049"><ele>998.0</ele><time>2026-05-03T08:31:54Z</time></trkpt><trkpt lat="44.29186179099818" lon="7.876299540215065"><ele>998.0000000000001</ele><time>2026-05-03T08:31:55Z</time></trkpt><trkpt lat="44.29180332964008" lon="7.876228326927419"><ele>998.0</ele><time>2026-05-03T08:31:56Z</time></trkpt><trkpt lat="44.29173883324358" lon="7.87617323675185"><ele>998.0</ele><time>2026-05-03T08:31:56.999Z</time></trkpt><trkpt lat="44.291660929427415" lon="7.8761079968523084"><ele>998.0</ele><time>2026-05-03T08:31:57.999Z</time></trkpt><trkpt lat="44.291572420510605" lon="7.876042076927693"><ele>998.0000000000001</ele><time>2026-05-03T08:31:58.999Z</time></trkpt><trkpt lat="44.29148809424331" lon="7.875977315211226"><ele>998.0</ele><time>2026-05-03T08:31:59.999Z</time></trkpt><trkpt lat="44.29140328196247" lon="7.875963136520604"><ele>998.3333333333334</ele><time>2026-05-03T08:32:00.999Z</time></trkpt><trkpt lat="44.29132928948466" lon="7.87600551157482"><ele>998.6666666666667</ele><time>2026-05-03T08:32:01.999Z</time></trkpt><trkpt lat="44.29125413915984" lon="7.876020725333791"><ele>999.0</ele><time>2026-05-03T08:32:02.999Z</time></trkpt><trkpt lat="44.29118544351586" lon="7.876032721102897"><ele>999.3333333333333</ele><time>2026-05-03T08:32:03.999Z</time></trkpt><trkpt lat="44.29110702526762" lon="7.876020163910006"><ele>999.6666666666666</ele><time>2026-05-03T08:32:04.999Z</time></trkpt><trkpt lat="44.2910415179463" lon="7.876029227417567"><ele>1000.0</ele><time>2026-05-03T08:32:05.999Z</time></trkpt><trkpt lat="44.290917892043566" lon="7.876041758032671"><ele>1000.0</ele><time>2026-05-03T08:32:07.999Z</time></trkpt><trkpt lat="44.2907989105196" lon="7.876038327231498"><ele>1000.0</ele><time>2026-05-03T08:32:09.999Z</time></trkpt><trkpt lat="44.29071863627024" lon="7.876040346710727"><ele>1000.0</ele><time>2026-05-03T08:32:11.999Z</time></trkpt><trkpt lat="44.29063134928527" lon="7.876032437543713"><ele>1000.0</ele><time>2026-05-03T08:32:13.999Z</time></trkpt><trkpt lat="44.29053472107214" lon="7.8760019714798375"><ele>1000.0</ele><time>2026-05-03T08:32:15.999Z</time></trkpt><trkpt lat="44.29041090329229" lon="7.875936517123545"><ele>1003.1666666666666</ele><time>2026-05-03T08:32:16.999Z</time></trkpt><trkpt lat="44.290312055440374" lon="7.875920855898882"><ele>1006.3333333333333</ele><time>2026-05-03T08:32:17.999Z</time></trkpt><trkpt lat="44.29023099007063" lon="7.875935602913503"><ele>1009.5</ele><time>2026-05-03T08:32:18.999Z</time></trkpt><trkpt lat="44.29015438700971" lon="7.875926585185428"><ele>1012.6666666666667</ele><time>2026-05-03T08:32:19.999Z</time></trkpt><trkpt lat="44.29007983321881" lon="7.875928108715801"><ele>1015.8333333333334</ele><time>2026-05-03T08:32:20.999Z</time></trkpt><trkpt lat="44.28999920849214" lon="7.875908349692946"><ele>1019.0</ele><time>2026-05-03T08:32:21.999Z</time></trkpt><trkpt lat="44.28991437930171" lon="7.875916586623187"><ele>1019.2</ele><time>2026-05-03T08:32:22.999Z</time></trkpt><trkpt lat="44.28982352368266" lon="7.875959015752056"><ele>1019.4000000000001</ele><time>2026-05-03T08:32:23.999Z</time></trkpt><trkpt lat="44.28972730939414" lon="7.876005189165463"><ele>1019.6</ele><time>2026-05-03T08:32:24.999Z</time></trkpt><trkpt lat="44.28965183456139" lon="7.876048278421752"><ele>1019.8</ele><time>2026-05-03T08:32:25.999Z</time></trkpt><trkpt lat="44.28955903521274" lon="7.8761254106682514"><ele>1020.0</ele><time>2026-05-03T08:32:26.999Z</time></trkpt><trkpt lat="44.28946837515642" lon="7.876218285360965"><ele>1020.0</ele><time>2026-05-03T08:32:27.999Z</time></trkpt><trkpt lat="44.289381457036676" lon="7.876335655488296"><ele>1020.0</ele><time>2026-05-03T08:32:28.999Z</time></trkpt><trkpt lat="44.28930328411825" lon="7.876446387799372"><ele>1020.0</ele><time>2026-05-03T08:32:29.999Z</time></trkpt><trkpt lat="44.28922193545868" lon="7.876536860827281"><ele>1020.0</ele><time>2026-05-03T08:32:30.999Z</time></trkpt><trkpt lat="44.28912713182011" lon="7.876628753434388"><ele>1020.0</ele><time>2026-05-03T08:32:31.999Z</time></trkpt><trkpt lat="44.28901579760473" lon="7.876716839484872"><ele>1020.0</ele><time>2026-05-03T08:32:32.999Z</time></trkpt><trkpt lat="44.28890997508314" lon="7.876787547477299"><ele>1020.0</ele><time>2026-05-03T08:32:33.999Z</time></trkpt><trkpt lat="44.288827306789685" lon="7.876851043123278"><ele>1020.0</ele><time>2026-05-03T08:32:34.999Z</time></trkpt><trkpt lat="44.288722977491204" lon="7.876886778676164"><ele>1020.0</ele><time>2026-05-03T08:32:35.999Z</time></trkpt><trkpt lat="44.28862131412326" lon="7.876933360879637"><ele>1020.6</ele><time>2026-05-03T08:32:36.999Z</time></trkpt><trkpt lat="44.28852802279564" lon="7.87697100448451"><ele>1021.2</ele><time>2026-05-03T08:32:37.999Z</time></trkpt><trkpt lat="44.28844935119352" lon="7.877015563757584"><ele>1021.8</ele><time>2026-05-03T08:32:38.999Z</time></trkpt><trkpt lat="44.28835236494567" lon="7.877099758151707"><ele>1022.4</ele><time>2026-05-03T08:32:39.999Z</time></trkpt><trkpt lat="44.28828005536782" lon="7.877248433127114"><ele>1023.0</ele><time>2026-05-03T08:32:40.999Z</time></trkpt><trkpt lat="44.288217669806215" lon="7.8773883758003285"><ele>1023.0</ele><time>2026-05-03T08:32:41.999Z</time></trkpt><trkpt lat="44.28816965666361" lon="7.8774992037045255"><ele>1023.0</ele><time>2026-05-03T08:32:42.999Z</time></trkpt><trkpt lat="44.28812381822387" lon="7.877607460372948"><ele>1023.0</ele><time>2026-05-03T08:32:43.999Z</time></trkpt><trkpt lat="44.28802861108158" lon="7.877746609534589"><ele>1023.0</ele><time>2026-05-03T08:32:45.999Z</time></trkpt><trkpt lat="44.28795497175677" lon="7.877775849183127"><ele>1023.0</ele><time>2026-05-03T08:32:46.999Z</time></trkpt><trkpt lat="44.287873155244974" lon="7.877798008967282"><ele>1024.1666666666667</ele><time>2026-05-03T08:32:47.999Z</time></trkpt><trkpt lat="44.28780507540892" lon="7.877852299540851"><ele>1025.3333333333333</ele><time>2026-05-03T08:32:48.999Z</time></trkpt><trkpt lat="44.287733168476855" lon="7.877905742007332"><ele>1026.5</ele><time>2026-05-03T08:32:49.999Z</time></trkpt><trkpt lat="44.28765986936039" lon="7.878004544770142"><ele>1027.6666666666665</ele><time>2026-05-03T08:32:50.999Z</time></trkpt><trkpt lat="44.28760986168666" lon="7.878117247291728"><ele>1028.8333333333333</ele><time>2026-05-03T08:32:51.999Z</time></trkpt><trkpt lat="44.287563180029466" lon="7.878214589185554"><ele>1030.0</ele><time>2026-05-03T08:32:52.999Z</time></trkpt><trkpt lat="44.287492990884644" lon="7.878269300924505"><ele>1030.0</ele><time>2026-05-03T08:32:53.999Z</time></trkpt><trkpt lat="44.28742491483751" lon="7.878347970758836"><ele>1030.0</ele><time>2026-05-03T08:32:54.999Z</time></trkpt><trkpt lat="44.28733793502189" lon="7.878417731141702"><ele>1030.0</ele><time>2026-05-03T08:32:55.999Z</time></trkpt><trkpt lat="44.287255094538644" lon="7.878471792070189"><ele>1030.0</ele><time>2026-05-03T08:32:56.999Z</time></trkpt><trkpt lat="44.2871563160869" lon="7.8784898821374165"><ele>1030.0</ele><time>2026-05-03T08:32:57.999Z</time></trkpt><trkpt lat="44.28706179966229" lon="7.878509241325844"><ele>1031.3333333333333</ele><time>2026-05-03T08:32:58.999Z</time></trkpt><trkpt lat="44.28696775363097" lon="7.878525424966252"><ele>1032.6666666666665</ele><time>2026-05-03T08:32:59.999Z</time></trkpt><trkpt lat="44.286881374760895" lon="7.878540813944246"><ele>1034.0</ele><time>2026-05-03T08:33:00.999Z</time></trkpt><trkpt lat="44.28679769666155" lon="7.878589731804593"><ele>1035.3333333333333</ele><time>2026-05-03T08:33:01.999Z</time></trkpt><trkpt lat="44.286729139633294" lon="7.878616078935185"><ele>1036.6666666666667</ele><time>2026-05-03T08:33:02.999Z</time></trkpt><trkpt lat="44.28667437970158" lon="7.878686092182642"><ele>1038.0</ele><time>2026-05-03T08:33:03.999Z</time></trkpt><trkpt lat="44.28664628852402" lon="7.878775460299135"><ele>1038.0</ele><time>2026-05-03T08:33:04.999Z</time></trkpt><trkpt lat="44.286646348153354" lon="7.878928106797191"><ele>1038.0</ele><time>2026-05-03T08:33:05.999Z</time></trkpt><trkpt lat="44.2866396695009" lon="7.8790825999690215"><ele>1038.0</ele><time>2026-05-03T08:33:06.999Z</time></trkpt><trkpt lat="44.28665103370341" lon="7.879238346222786"><ele>1038.0</ele><time>2026-05-03T08:33:07.998Z</time></trkpt><trkpt lat="44.28668683736278" lon="7.879338619239564"><ele>1038.0</ele><time>2026-05-03T08:33:08.998Z</time></trkpt><trkpt lat="44.28672915919208" lon="7.879488509550764"><ele>1037.8333333333333</ele><time>2026-05-03T08:33:09.998Z</time></trkpt><trkpt lat="44.2867881121428" lon="7.879607492283341"><ele>1037.6666666666667</ele><time>2026-05-03T08:33:10.998Z</time></trkpt><trkpt lat="44.28682790363517" lon="7.8797166678004"><ele>1037.5</ele><time>2026-05-03T08:33:11.998Z</time></trkpt><trkpt lat="44.28684383280749" lon="7.879823755914986"><ele>1037.3333333333335</ele><time>2026-05-03T08:33:13Z</time></trkpt><trkpt lat="44.28686613589876" lon="7.879926194311993"><ele>1037.1666666666667</ele><time>2026-05-03T08:33:14Z</time></trkpt><trkpt lat="44.286840372659924" lon="7.880025401878298"><ele>1037.0</ele><time>2026-05-03T08:33:15Z</time></trkpt><trkpt lat="44.28681896525342" lon="7.880125082035138"><ele>1037.0</ele><time>2026-05-03T08:33:16Z</time></trkpt><trkpt lat="44.28678934846212" lon="7.880214870020477"><ele>1037.0</ele><time>2026-05-03T08:33:17Z</time></trkpt><trkpt lat="44.286758973785254" lon="7.880329402961071"><ele>1037.0</ele><time>2026-05-03T08:33:18Z</time></trkpt><trkpt lat="44.286702185277626" lon="7.880416108567932"><ele>1037.0</ele><time>2026-05-03T08:33:19Z</time></trkpt><trkpt lat="44.28663747931194" lon="7.880525250132715"><ele>1037.0</ele><time>2026-05-03T08:33:20Z</time></trkpt><trkpt lat="44.286531619084094" lon="7.88068077702293"><ele>1041.0</ele><time>2026-05-03T08:33:21Z</time></trkpt><trkpt lat="44.28641296536123" lon="7.880841726698338"><ele>1045.0</ele><time>2026-05-03T08:33:22Z</time></trkpt><trkpt lat="44.28633393366328" lon="7.880960948135137"><ele>1049.0</ele><time>2026-05-03T08:33:23Z</time></trkpt><trkpt lat="44.28625698107659" lon="7.88108460312322"><ele>1053.0</ele><time>2026-05-03T08:33:24Z</time></trkpt><trkpt lat="44.286190924154184" lon="7.8811925872351605"><ele>1053.0</ele><time>2026-05-03T08:33:25Z</time></trkpt><trkpt lat="44.28614432272369" lon="7.881306579304617"><ele>1053.0</ele><time>2026-05-03T08:33:26Z</time></trkpt><trkpt lat="44.28610475022782" lon="7.881454226293016"><ele>1053.0</ele><time>2026-05-03T08:33:27Z</time></trkpt><trkpt lat="44.28608639089934" lon="7.881571464273771"><ele>1053.0</ele><time>2026-05-03T08:33:28Z</time></trkpt><trkpt lat="44.28604634077278" lon="7.881685007602541"><ele>1053.0</ele><time>2026-05-03T08:33:29Z</time></trkpt><trkpt lat="44.286000319592254" lon="7.881775013411566"><ele>1050.8333333333333</ele><time>2026-05-03T08:33:30Z</time></trkpt><trkpt lat="44.28594627455518" lon="7.881862715659176"><ele>1048.6666666666667</ele><time>2026-05-03T08:33:31Z</time></trkpt><trkpt lat="44.28589484231355" lon="7.881923099295871"><ele>1046.5</ele><time>2026-05-03T08:33:32Z</time></trkpt><trkpt lat="44.28579218921313" lon="7.881991298414443"><ele>1044.3333333333335</ele><time>2026-05-03T08:33:34Z</time></trkpt><trkpt lat="44.2857521714383" lon="7.882069343965258"><ele>1042.1666666666667</ele><time>2026-05-03T08:33:36Z</time></trkpt><trkpt lat="44.2856936266891" lon="7.882151284075294"><ele>1040.0</ele><time>2026-05-03T08:33:38Z</time></trkpt><trkpt lat="44.28568833415681" lon="7.882291483297745"><ele>1040.0</ele><time>2026-05-03T08:33:40Z</time></trkpt><trkpt lat="44.285606827028786" lon="7.8823633602473295"><ele>1040.0</ele><time>2026-05-03T08:33:42Z</time></trkpt><trkpt lat="44.28554243393358" lon="7.882380895906462"><ele>1040.0</ele><time>2026-05-03T08:33:43Z</time></trkpt><trkpt lat="44.285466064543314" lon="7.8823881178971815"><ele>1040.0</ele><time>2026-05-03T08:33:44Z</time></trkpt><trkpt lat="44.28537834916525" lon="7.882390101628389"><ele>1040.0</ele><time>2026-05-03T08:33:45Z</time></trkpt><trkpt lat="44.285270335448374" lon="7.882396084672442"><ele>1040.0</ele><time>2026-05-03T08:33:46Z</time></trkpt><trkpt lat="44.285136930241904" lon="7.882398367423662"><ele>1039.5</ele><time>2026-05-03T08:33:47Z</time></trkpt><trkpt lat="44.28501170288242" lon="7.882401154846552"><ele>1039.0</ele><time>2026-05-03T08:33:48Z</time></trkpt><trkpt lat="44.28489794524603" lon="7.882409211167355"><ele>1038.5</ele><time>2026-05-03T08:33:49Z</time></trkpt><trkpt lat="44.28478651757349" lon="7.882415053712653"><ele>1038.0</ele><time>2026-05-03T08:33:50Z</time></trkpt><trkpt lat="44.28467639303891" lon="7.882411015223788"><ele>1037.6</ele><time>2026-05-03T08:33:51Z</time></trkpt><trkpt lat="44.28457880867585" lon="7.882410774138169"><ele>1037.1999999999998</ele><time>2026-05-03T08:33:52Z</time></trkpt><trkpt lat="44.28445216111087" lon="7.882393759901508"><ele>1036.8</ele><time>2026-05-03T08:33:53Z</time></trkpt><trkpt lat="44.28435110789148" lon="7.88241233868689"><ele>1036.3999999999999</ele><time>2026-05-03T08:33:54Z</time></trkpt><trkpt lat="44.28424759729497" lon="7.882444021138263"><ele>1036.0</ele><time>2026-05-03T08:33:55Z</time></trkpt><trkpt lat="44.28414816090654" lon="7.8824828125589645"><ele>1036.0</ele><time>2026-05-03T08:33:56Z</time></trkpt><trkpt lat="44.284055033053946" lon="7.882530662661712"><ele>1036.0</ele><time>2026-05-03T08:33:57Z</time></trkpt><trkpt lat="44.283962360047205" lon="7.882592815499571"><ele>1036.0</ele><time>2026-05-03T08:33:58Z</time></trkpt><trkpt lat="44.28384743445739" lon="7.882648838464008"><ele>1036.0</ele><time>2026-05-03T08:33:59Z</time></trkpt><trkpt lat="44.28374854926256" lon="7.882731554820791"><ele>1036.0</ele><time>2026-05-03T08:34:00Z</time></trkpt><trkpt lat="44.2836596534005" lon="7.882832203420453"><ele>1035.25</ele><time>2026-05-03T08:34:01Z</time></trkpt><trkpt lat="44.283576659406855" lon="7.882946480716892"><ele>1034.5</ele><time>2026-05-03T08:34:02Z</time></trkpt><trkpt lat="44.28349077378941" lon="7.883077876118988"><ele>1033.75</ele><time>2026-05-03T08:34:03Z</time></trkpt><trkpt lat="44.2834192032625" lon="7.883211475246771"><ele>1033.0</ele><time>2026-05-03T08:34:04Z</time></trkpt><trkpt lat="44.2833287745201" lon="7.883332592147564"><ele>1032.25</ele><time>2026-05-03T08:34:04.999Z</time></trkpt><trkpt lat="44.28326737041929" lon="7.883484460664462"><ele>1031.5</ele><time>2026-05-03T08:34:05.999Z</time></trkpt><trkpt lat="44.283208098592574" lon="7.883627285878182"><ele>1030.75</ele><time>2026-05-03T08:34:06.999Z</time></trkpt><trkpt lat="44.28315146030237" lon="7.883757385231711"><ele>1030.0</ele><time>2026-05-03T08:34:07.999Z</time></trkpt><trkpt lat="44.28309639144809" lon="7.883887580369997"><ele>1030.0</ele><time>2026-05-03T08:34:08.999Z</time></trkpt><trkpt lat="44.283050496093615" lon="7.884023747744043"><ele>1030.0</ele><time>2026-05-03T08:34:09.999Z</time></trkpt><trkpt lat="44.28299363937502" lon="7.884162311928893"><ele>1030.0</ele><time>2026-05-03T08:34:10.999Z</time></trkpt><trkpt lat="44.2829420767675" lon="7.8842966437851"><ele>1030.0</ele><time>2026-05-03T08:34:11.999Z</time></trkpt><trkpt lat="44.2828929071366" lon="7.88442206298088"><ele>1030.0</ele><time>2026-05-03T08:34:12.999Z</time></trkpt><trkpt lat="44.28283845098977" lon="7.884554573602642"><ele>1028.4</ele><time>2026-05-03T08:34:13.999Z</time></trkpt><trkpt lat="44.28278158849865" lon="7.884671796647814"><ele>1026.8</ele><time>2026-05-03T08:34:14.999Z</time></trkpt><trkpt lat="44.282728482032226" lon="7.884810258936131"><ele>1025.2</ele><time>2026-05-03T08:34:15.999Z</time></trkpt><trkpt lat="44.282666794828764" lon="7.8849049933571305"><ele>1023.6</ele><time>2026-05-03T08:34:16.999Z</time></trkpt><trkpt lat="44.2826085637017" lon="7.885027685901727"><ele>1022.0</ele><time>2026-05-03T08:34:17.999Z</time></trkpt><trkpt lat="44.282540215336645" lon="7.885122037977316"><ele>1020.0</ele><time>2026-05-03T08:34:18.999Z</time></trkpt><trkpt lat="44.282456002499025" lon="7.8852270552620265"><ele>1018.0</ele><time>2026-05-03T08:34:19.999Z</time></trkpt><trkpt lat="44.28236063552543" lon="7.885327743690168"><ele>1016.0</ele><time>2026-05-03T08:34:20.999Z</time></trkpt><trkpt lat="44.28226121652139" lon="7.885420755530644"><ele>1014.0</ele><time>2026-05-03T08:34:21.999Z</time></trkpt><trkpt lat="44.28215613990018" lon="7.8854932457799904"><ele>1014.0</ele><time>2026-05-03T08:34:22.999Z</time></trkpt><trkpt lat="44.282062775507406" lon="7.885584643490719"><ele>1014.0000000000001</ele><time>2026-05-03T08:34:23.999Z</time></trkpt><trkpt lat="44.28197574913372" lon="7.885661478185721"><ele>1014.0000000000001</ele><time>2026-05-03T08:34:24.999Z</time></trkpt><trkpt lat="44.281885282583254" lon="7.885743867200916"><ele>1014.0</ele><time>2026-05-03T08:34:25.999Z</time></trkpt><trkpt lat="44.281793669411" lon="7.885860047265291"><ele>1014.0</ele><time>2026-05-03T08:34:26.999Z</time></trkpt><trkpt lat="44.2817073172848" lon="7.886020406245365"><ele>1015.25</ele><time>2026-05-03T08:34:27.999Z</time></trkpt><trkpt lat="44.28163361570066" lon="7.886188160625819"><ele>1016.5</ele><time>2026-05-03T08:34:28.999Z</time></trkpt><trkpt lat="44.28156369094125" lon="7.88635457197151"><ele>1017.75</ele><time>2026-05-03T08:34:29.999Z</time></trkpt><trkpt lat="44.28149209317202" lon="7.886514371127918"><ele>1019.0</ele><time>2026-05-03T08:34:30.999Z</time></trkpt><trkpt lat="44.2814274428972" lon="7.886652262923487"><ele>1015.0</ele><time>2026-05-03T08:34:31.999Z</time></trkpt><trkpt lat="44.28137816430273" lon="7.886776258181113"><ele>1011.0000000000001</ele><time>2026-05-03T08:34:32.999Z</time></trkpt><trkpt lat="44.28132143579296" lon="7.886896048561233"><ele>1007.0000000000001</ele><time>2026-05-03T08:34:33.999Z</time></trkpt><trkpt lat="44.28125340005125" lon="7.887010151393608"><ele>1003.0</ele><time>2026-05-03T08:34:34.999Z</time></trkpt><trkpt lat="44.281168150698385" lon="7.8871341757071125"><ele>999.0</ele><time>2026-05-03T08:34:35.999Z</time></trkpt><trkpt lat="44.28108581949503" lon="7.887247435926749"><ele>999.0</ele><time>2026-05-03T08:34:36.999Z</time></trkpt><trkpt lat="44.280974614299936" lon="7.887356369696971"><ele>999.0</ele><time>2026-05-03T08:34:37.999Z</time></trkpt><trkpt lat="44.28085849477225" lon="7.887430723307646"><ele>999.0</ele><time>2026-05-03T08:34:38.999Z</time></trkpt><trkpt lat="44.28075250137147" lon="7.887523347037066"><ele>999.0</ele><time>2026-05-03T08:34:39.999Z</time></trkpt><trkpt lat="44.28065942960274" lon="7.8876121602537745"><ele>998.8000000000001</ele><time>2026-05-03T08:34:40.999Z</time></trkpt><trkpt lat="44.28056449884209" lon="7.887708708831078"><ele>998.6000000000001</ele><time>2026-05-03T08:34:41.999Z</time></trkpt><trkpt lat="44.280480544837594" lon="7.887824238260782"><ele>998.4</ele><time>2026-05-03T08:34:42.999Z</time></trkpt><trkpt lat="44.28040043385281" lon="7.887907658837105"><ele>998.2</ele><time>2026-05-03T08:34:43.999Z</time></trkpt><trkpt lat="44.28031617899371" lon="7.887981990084191"><ele>998.0</ele><time>2026-05-03T08:34:44.999Z</time></trkpt><trkpt lat="44.28024867997479" lon="7.888073325161952"><ele>998.0</ele><time>2026-05-03T08:34:45.999Z</time></trkpt><trkpt lat="44.28019924390339" lon="7.8881998724580935"><ele>998.0</ele><time>2026-05-03T08:34:46.999Z</time></trkpt><trkpt lat="44.280148468928324" lon="7.888338135620585"><ele>998.0</ele><time>2026-05-03T08:34:47.999Z</time></trkpt><trkpt lat="44.28011816672959" lon="7.888517192421826"><ele>998.0</ele><time>2026-05-03T08:34:48.999Z</time></trkpt><trkpt lat="44.280101121306046" lon="7.888702068831815"><ele>996.6666666666667</ele><time>2026-05-03T08:34:49.999Z</time></trkpt><trkpt lat="44.28009699434927" lon="7.888900808603015"><ele>995.3333333333333</ele><time>2026-05-03T08:34:50.999Z</time></trkpt><trkpt lat="44.28010089632478" lon="7.889132897526589"><ele>994.0</ele><time>2026-05-03T08:34:51.999Z</time></trkpt><trkpt lat="44.28010721356924" lon="7.889343423429765"><ele>993.3333333333333</ele><time>2026-05-03T08:34:52.999Z</time></trkpt><trkpt lat="44.280125271395896" lon="7.889596348775261"><ele>992.6666666666667</ele><time>2026-05-03T08:34:53.999Z</time></trkpt><trkpt lat="44.28013258707604" lon="7.8898006075350615"><ele>992.0</ele><time>2026-05-03T08:34:54.999Z</time></trkpt><trkpt lat="44.28013986408928" lon="7.890028674679441"><ele>990.25</ele><time>2026-05-03T08:34:55.999Z</time></trkpt><trkpt lat="44.28014691045787" lon="7.890204606096994"><ele>988.5</ele><time>2026-05-03T08:34:56.999Z</time></trkpt><trkpt lat="44.28013782686012" lon="7.8903829795054445"><ele>986.75</ele><time>2026-05-03T08:34:57.999Z</time></trkpt><trkpt lat="44.28012844878075" lon="7.890547248782173"><ele>985.0</ele><time>2026-05-03T08:34:58.999Z</time></trkpt><trkpt lat="44.28010475905212" lon="7.890691931176952"><ele>985.0</ele><time>2026-05-03T08:34:59.999Z</time></trkpt><trkpt lat="44.280084812381816" lon="7.890836702500324"><ele>985.0</ele><time>2026-05-03T08:35:00.999Z</time></trkpt><trkpt lat="44.280045041753176" lon="7.890972919452425"><ele>985.0</ele><time>2026-05-03T08:35:01.999Z</time></trkpt><trkpt lat="44.27997240454538" lon="7.891094473431393"><ele>985.0</ele><time>2026-05-03T08:35:02.999Z</time></trkpt><trkpt lat="44.27989907877796" lon="7.891223637210809"><ele>985.0</ele><time>2026-05-03T08:35:03.999Z</time></trkpt><trkpt lat="44.27979479651846" lon="7.891280441501096"><ele>983.5</ele><time>2026-05-03T08:35:04.999Z</time></trkpt><trkpt lat="44.279684483611454" lon="7.891337807763795"><ele>982.0</ele><time>2026-05-03T08:35:05.999Z</time></trkpt><trkpt lat="44.27954254193794" lon="7.89141590418264"><ele>980.5</ele><time>2026-05-03T08:35:06.999Z</time></trkpt><trkpt lat="44.279399686160254" lon="7.89149674909441"><ele>979.0</ele><time>2026-05-03T08:35:07.999Z</time></trkpt><trkpt lat="44.27925821022936" lon="7.891588672171343"><ele>979.0</ele><time>2026-05-03T08:35:08.999Z</time></trkpt><trkpt lat="44.27911329230504" lon="7.891706490173478"><ele>979.0</ele><time>2026-05-03T08:35:09.999Z</time></trkpt><trkpt lat="44.27894213854231" lon="7.891863452309374"><ele>979.0</ele><time>2026-05-03T08:35:10.999Z</time></trkpt><trkpt lat="44.27881482691578" lon="7.892000141852166"><ele>977.3333333333333</ele><time>2026-05-03T08:35:11.999Z</time></trkpt><trkpt lat="44.27869494681004" lon="7.892143414505817"><ele>975.6666666666667</ele><time>2026-05-03T08:35:12.999Z</time></trkpt><trkpt lat="44.278557040381486" lon="7.892269273393316"><ele>974.0</ele><time>2026-05-03T08:35:13.999Z</time></trkpt><trkpt lat="44.27843726411046" lon="7.892355176219872"><ele>974.0</ele><time>2026-05-03T08:35:14.998Z</time></trkpt><trkpt lat="44.27832107687532" lon="7.892463699667501"><ele>974.0</ele><time>2026-05-03T08:35:15.998Z</time></trkpt><trkpt lat="44.27820177707692" lon="7.892544566174257"><ele>974.0</ele><time>2026-05-03T08:35:16.998Z</time></trkpt><trkpt lat="44.27808426646411" lon="7.892591609317372"><ele>974.0</ele><time>2026-05-03T08:35:17.998Z</time></trkpt><trkpt lat="44.27794537130185" lon="7.892631657347948"><ele>970.3333333333334</ele><time>2026-05-03T08:35:19Z</time></trkpt><trkpt lat="44.27781495045812" lon="7.892666950221992"><ele>966.6666666666667</ele><time>2026-05-03T08:35:20Z</time></trkpt><trkpt lat="44.27763323627888" lon="7.892715631313689"><ele>963.0</ele><time>2026-05-03T08:35:21Z</time></trkpt><trkpt lat="44.27745775628574" lon="7.892776223255379"><ele>963.0</ele><time>2026-05-03T08:35:22Z</time></trkpt><trkpt lat="44.27730989361323" lon="7.8928224776220945"><ele>963.0</ele><time>2026-05-03T08:35:23Z</time></trkpt><trkpt lat="44.27713434728226" lon="7.892839868708886"><ele>963.0</ele><time>2026-05-03T08:35:24Z</time></trkpt><trkpt lat="44.27697679301344" lon="7.892900832531839"><ele>964.75</ele><time>2026-05-03T08:35:25Z</time></trkpt><trkpt lat="44.2768490299476" lon="7.892921149313433"><ele>966.5</ele><time>2026-05-03T08:35:26Z</time></trkpt><trkpt lat="44.27671349154935" lon="7.892969672988392"><ele>968.25</ele><time>2026-05-03T08:35:27Z</time></trkpt><trkpt lat="44.27656866834541" lon="7.893011095527106"><ele>970.0</ele><time>2026-05-03T08:35:28Z</time></trkpt><trkpt lat="44.27640070124744" lon="7.893079157263769"><ele>973.6666666666666</ele><time>2026-05-03T08:35:29Z</time></trkpt><trkpt lat="44.27626133252767" lon="7.893150991116011"><ele>977.3333333333333</ele><time>2026-05-03T08:35:30Z</time></trkpt><trkpt lat="44.27611731975235" lon="7.8932322491057"><ele>981.0</ele><time>2026-05-03T08:35:31Z</time></trkpt><trkpt lat="44.27599225402154" lon="7.893338454741515"><ele>977.4</ele><time>2026-05-03T08:35:32Z</time></trkpt><trkpt lat="44.27588122206001" lon="7.893428227260391"><ele>973.8</ele><time>2026-05-03T08:35:33Z</time></trkpt><trkpt lat="44.27578509787315" lon="7.893488069604677"><ele>970.1999999999999</ele><time>2026-05-03T08:35:34Z</time></trkpt><trkpt lat="44.275698698420925" lon="7.893568529142262"><ele>966.5999999999999</ele><time>2026-05-03T08:35:35Z</time></trkpt><trkpt lat="44.2756118267969" lon="7.893613098285787"><ele>963.0</ele><time>2026-05-03T08:35:36Z</time></trkpt><trkpt lat="44.275493171552284" lon="7.8937126133367475"><ele>963.0</ele><time>2026-05-03T08:35:37Z</time></trkpt><trkpt lat="44.27535975854416" lon="7.893731054474772"><ele>963.0</ele><time>2026-05-03T08:35:38Z</time></trkpt><trkpt lat="44.27525355980801" lon="7.893764574543713"><ele>963.0</ele><time>2026-05-03T08:35:39Z</time></trkpt><trkpt lat="44.275112316262195" lon="7.893741311383362"><ele>963.0</ele><time>2026-05-03T08:35:40Z</time></trkpt><trkpt lat="44.27497504027666" lon="7.893716064414038"><ele>963.0</ele><time>2026-05-03T08:35:41Z</time></trkpt><trkpt lat="44.27485325253995" lon="7.89369074794498"><ele>963.0</ele><time>2026-05-03T08:35:42Z</time></trkpt><trkpt lat="44.27473584646352" lon="7.89365680860233"><ele>963.0</ele><time>2026-05-03T08:35:43Z</time></trkpt><trkpt lat="44.27461660296301" lon="7.893640033746027"><ele>963.0</ele><time>2026-05-03T08:35:44Z</time></trkpt><trkpt lat="44.27448689398814" lon="7.89362826349698"><ele>963.5</ele><time>2026-05-03T08:35:45Z</time></trkpt><trkpt lat="44.27435269042161" lon="7.893637162711226"><ele>964.0</ele><time>2026-05-03T08:35:46Z</time></trkpt><trkpt lat="44.27423250388036" lon="7.893644462844309"><ele>964.5</ele><time>2026-05-03T08:35:47Z</time></trkpt><trkpt lat="44.274122038809274" lon="7.893652428999069"><ele>965.0</ele><time>2026-05-03T08:35:48Z</time></trkpt><trkpt lat="44.27402150598755" lon="7.893672689712986"><ele>967.4</ele><time>2026-05-03T08:35:49Z</time></trkpt><trkpt lat="44.273924932234465" lon="7.893673913894577"><ele>969.8</ele><time>2026-05-03T08:35:50Z</time></trkpt><trkpt lat="44.27383236589548" lon="7.893659448903295"><ele>972.2</ele><time>2026-05-03T08:35:51Z</time></trkpt><trkpt lat="44.27373624071443" lon="7.893635675618454"><ele>974.6</ele><time>2026-05-03T08:35:52Z</time></trkpt><trkpt lat="44.27364442836943" lon="7.893585327514651"><ele>977.0</ele><time>2026-05-03T08:35:53Z</time></trkpt><trkpt lat="44.2735669312253" lon="7.893545032911011"><ele>977.0</ele><time>2026-05-03T08:35:54Z</time></trkpt><trkpt lat="44.273475431269944" lon="7.893484222178703"><ele>977.0</ele><time>2026-05-03T08:35:55Z</time></trkpt><trkpt lat="44.273418676439086" lon="7.8934398003285375"><ele>977.0</ele><time>2026-05-03T08:35:56Z</time></trkpt><trkpt lat="44.273346935526206" lon="7.893401698575202"><ele>977.0</ele><time>2026-05-03T08:35:57Z</time></trkpt><trkpt lat="44.27323759372627" lon="7.893332717150983"><ele>977.0</ele><time>2026-05-03T08:35:59Z</time></trkpt><trkpt lat="44.27311292138417" lon="7.8933444709641565"><ele>979.0</ele><time>2026-05-03T08:36:01Z</time></trkpt><trkpt lat="44.273040928032174" lon="7.8934041353877085"><ele>981.0</ele><time>2026-05-03T08:36:02Z</time></trkpt><trkpt lat="44.272972999317055" lon="7.893510109762308"><ele>983.0</ele><time>2026-05-03T08:36:03Z</time></trkpt><trkpt lat="44.27294421420815" lon="7.893601260752567"><ele>985.0</ele><time>2026-05-03T08:36:04Z</time></trkpt><trkpt lat="44.272923297970145" lon="7.893739166504345"><ele>987.0</ele><time>2026-05-03T08:36:05Z</time></trkpt><trkpt lat="44.272962854690356" lon="7.893870899508909"><ele>988.4000000000001</ele><time>2026-05-03T08:36:06Z</time></trkpt><trkpt lat="44.2730009384129" lon="7.893980932801443"><ele>989.8000000000001</ele><time>2026-05-03T08:36:07Z</time></trkpt><trkpt lat="44.2730500503934" lon="7.894090485432086"><ele>991.2</ele><time>2026-05-03T08:36:08Z</time></trkpt><trkpt lat="44.273097743691835" lon="7.894201605384835"><ele>992.6</ele><time>2026-05-03T08:36:09Z</time></trkpt><trkpt lat="44.27314695131355" lon="7.894320159102446"><ele>994.0</ele><time>2026-05-03T08:36:10Z</time></trkpt><trkpt lat="44.273207709189656" lon="7.894458204256339"><ele>994.0</ele><time>2026-05-03T08:36:11Z</time></trkpt><trkpt lat="44.27327826855933" lon="7.894597868144976"><ele>994.0</ele><time>2026-05-03T08:36:12Z</time></trkpt><trkpt lat="44.27337527425991" lon="7.894730889720949"><ele>994.0</ele><time>2026-05-03T08:36:12.999Z</time></trkpt><trkpt lat="44.27347824056467" lon="7.8948519105242365"><ele>994.0</ele><time>2026-05-03T08:36:13.999Z</time></trkpt><trkpt lat="44.273578598863146" lon="7.89498069804508"><ele>992.5</ele><time>2026-05-03T08:36:14.999Z</time></trkpt><trkpt lat="44.27367052589275" lon="7.895094142345651"><ele>991.0</ele><time>2026-05-03T08:36:15.999Z</time></trkpt><trkpt lat="44.27377607458462" lon="7.895247204484455"><ele>989.5</ele><time>2026-05-03T08:36:16.999Z</time></trkpt><trkpt lat="44.27390028618704" lon="7.895369050719691"><ele>988.0</ele><time>2026-05-03T08:36:17.999Z</time></trkpt><trkpt lat="44.274024889073374" lon="7.89549678980254"><ele>988.0</ele><time>2026-05-03T08:36:18.999Z</time></trkpt><trkpt lat="44.274144923655314" lon="7.895613203961735"><ele>988.0</ele><time>2026-05-03T08:36:19.999Z</time></trkpt><trkpt lat="44.27427882800766" lon="7.895720728613574"><ele>988.0</ele><time>2026-05-03T08:36:20.999Z</time></trkpt><trkpt lat="44.27440655921696" lon="7.895837232736806"><ele>987.3333333333333</ele><time>2026-05-03T08:36:21.999Z</time></trkpt><trkpt lat="44.27456168154321" lon="7.8959522792698635"><ele>986.6666666666667</ele><time>2026-05-03T08:36:22.999Z</time></trkpt><trkpt lat="44.27468823952113" lon="7.896081552925146"><ele>986.0</ele><time>2026-05-03T08:36:23.999Z</time></trkpt><trkpt lat="44.2748041667586" lon="7.896190566936809"><ele>986.0</ele><time>2026-05-03T08:36:24.999Z</time></trkpt><trkpt lat="44.27492544414736" lon="7.896291825998457"><ele>986.0</ele><time>2026-05-03T08:36:25.999Z</time></trkpt><trkpt lat="44.27503052305684" lon="7.896392137660941"><ele>986.0</ele><time>2026-05-03T08:36:26.999Z</time></trkpt><trkpt lat="44.2751350421615" lon="7.896457425012328"><ele>986.0</ele><time>2026-05-03T08:36:27.999Z</time></trkpt><trkpt lat="44.275244174816976" lon="7.896529564939524"><ele>986.0</ele><time>2026-05-03T08:36:28.999Z</time></trkpt><trkpt lat="44.2753655673812" lon="7.896602239516881"><ele>986.0</ele><time>2026-05-03T08:36:29.999Z</time></trkpt><trkpt lat="44.27545797348289" lon="7.896640679322986"><ele>986.0</ele><time>2026-05-03T08:36:30.999Z</time></trkpt><trkpt lat="44.27559126609561" lon="7.896698521118672"><ele>986.0</ele><time>2026-05-03T08:36:31.999Z</time></trkpt><trkpt lat="44.275742079802974" lon="7.8967670815237225"><ele>986.25</ele><time>2026-05-03T08:36:32.999Z</time></trkpt><trkpt lat="44.27588843165341" lon="7.896825145626198"><ele>986.5</ele><time>2026-05-03T08:36:33.999Z</time></trkpt><trkpt lat="44.27600800473223" lon="7.896882909642105"><ele>986.75</ele><time>2026-05-03T08:36:34.999Z</time></trkpt><trkpt lat="44.276128088055906" lon="7.89694609090806"><ele>987.0</ele><time>2026-05-03T08:36:35.999Z</time></trkpt><trkpt lat="44.276255910262286" lon="7.89701800627573"><ele>987.0</ele><time>2026-05-03T08:36:36.999Z</time></trkpt><trkpt lat="44.276403949740114" lon="7.897095331280656"><ele>987.0</ele><time>2026-05-03T08:36:37.999Z</time></trkpt><trkpt lat="44.27653329493975" lon="7.897180580048237"><ele>987.0</ele><time>2026-05-03T08:36:38.999Z</time></trkpt><trkpt lat="44.27666494615891" lon="7.897276049088076"><ele>987.0</ele><time>2026-05-03T08:36:39.999Z</time></trkpt><trkpt lat="44.27678731574811" lon="7.897400693226433"><ele>986.3333333333333</ele><time>2026-05-03T08:36:40.999Z</time></trkpt><trkpt lat="44.27692089556278" lon="7.8975285796908"><ele>985.6666666666666</ele><time>2026-05-03T08:36:41.999Z</time></trkpt><trkpt lat="44.27704862419401" lon="7.897679765638867"><ele>985.0</ele><time>2026-05-03T08:36:42.999Z</time></trkpt><trkpt lat="44.277154718573755" lon="7.89781062595445"><ele>985.0</ele><time>2026-05-03T08:36:43.999Z</time></trkpt><trkpt lat="44.27724634004214" lon="7.897924962746874"><ele>985.0</ele><time>2026-05-03T08:36:44.999Z</time></trkpt><trkpt lat="44.27732450658111" lon="7.898034237988773"><ele>985.0</ele><time>2026-05-03T08:36:45.999Z</time></trkpt><trkpt lat="44.27740440215737" lon="7.89813853726736"><ele>985.0</ele><time>2026-05-03T08:36:46.999Z</time></trkpt><trkpt lat="44.27748233257833" lon="7.898231610424612"><ele>985.0</ele><time>2026-05-03T08:36:47.999Z</time></trkpt><trkpt lat="44.27754801142573" lon="7.898324613584076"><ele>984.6</ele><time>2026-05-03T08:36:48.999Z</time></trkpt><trkpt lat="44.27761290810273" lon="7.898411790896221"><ele>984.2</ele><time>2026-05-03T08:36:49.999Z</time></trkpt><trkpt lat="44.27767706580972" lon="7.898496587805116"><ele>983.8</ele><time>2026-05-03T08:36:50.999Z</time></trkpt><trkpt lat="44.277750262160396" lon="7.898581844823557"><ele>983.4</ele><time>2026-05-03T08:36:51.999Z</time></trkpt><trkpt lat="44.27781456953218" lon="7.898667558493578"><ele>983.0</ele><time>2026-05-03T08:36:52.999Z</time></trkpt><trkpt lat="44.277885960884404" lon="7.898749890328436"><ele>983.0</ele><time>2026-05-03T08:36:53.999Z</time></trkpt><trkpt lat="44.277944197783114" lon="7.898836932348972"><ele>983.0</ele><time>2026-05-03T08:36:54.999Z</time></trkpt><trkpt lat="44.27801495884292" lon="7.89892479592817"><ele>983.0</ele><time>2026-05-03T08:36:55.999Z</time></trkpt><trkpt lat="44.27809794395" lon="7.899012018066375"><ele>983.0</ele><time>2026-05-03T08:36:56.999Z</time></trkpt><trkpt lat="44.278170245666495" lon="7.899102398961951"><ele>983.0</ele><time>2026-05-03T08:36:57.999Z</time></trkpt><trkpt lat="44.27823905207983" lon="7.8991833706884504"><ele>981.5999999999999</ele><time>2026-05-03T08:36:58.999Z</time></trkpt><trkpt lat="44.27831888838554" lon="7.899274126001613"><ele>980.1999999999999</ele><time>2026-05-03T08:36:59.999Z</time></trkpt><trkpt lat="44.27839705946546" lon="7.899358082194821"><ele>978.8</ele><time>2026-05-03T08:37:00.999Z</time></trkpt><trkpt lat="44.278479085748494" lon="7.899440253394392"><ele>977.4</ele><time>2026-05-03T08:37:01.999Z</time></trkpt><trkpt lat="44.27856350619737" lon="7.899514764005926"><ele>976.0</ele><time>2026-05-03T08:37:02.999Z</time></trkpt><trkpt lat="44.278655536059176" lon="7.8995708684972605"><ele>976.0</ele><time>2026-05-03T08:37:03.999Z</time></trkpt><trkpt lat="44.278753950760155" lon="7.899622306726901"><ele>975.9999999999999</ele><time>2026-05-03T08:37:04.999Z</time></trkpt><trkpt lat="44.2788499446607" lon="7.899662669927717"><ele>975.9999999999999</ele><time>2026-05-03T08:37:05.999Z</time></trkpt><trkpt lat="44.27894463101199" lon="7.899692585316779"><ele>976.0</ele><time>2026-05-03T08:37:06.999Z</time></trkpt><trkpt lat="44.279041513186186" lon="7.899701276508081"><ele>976.0</ele><time>2026-05-03T08:37:07.999Z</time></trkpt><trkpt lat="44.27914365810652" lon="7.899713912094638"><ele>975.1666666666666</ele><time>2026-05-03T08:37:08.999Z</time></trkpt><trkpt lat="44.27923319275003" lon="7.899736438789721"><ele>974.3333333333333</ele><time>2026-05-03T08:37:09.999Z</time></trkpt><trkpt lat="44.279327113180464" lon="7.899768006789438"><ele>973.5</ele><time>2026-05-03T08:37:10.999Z</time></trkpt><trkpt lat="44.279407937925974" lon="7.89979383789231"><ele>972.6666666666667</ele><time>2026-05-03T08:37:11.999Z</time></trkpt><trkpt lat="44.27948532117703" lon="7.899833680128518"><ele>971.8333333333334</ele><time>2026-05-03T08:37:12.999Z</time></trkpt><trkpt lat="44.27955214963365" lon="7.899887719679258"><ele>971.0</ele><time>2026-05-03T08:37:13.999Z</time></trkpt><trkpt lat="44.279622949942976" lon="7.899964369297641"><ele>971.0000000000001</ele><time>2026-05-03T08:37:14.999Z</time></trkpt><trkpt lat="44.279671846459486" lon="7.900058443124457"><ele>971.0</ele><time>2026-05-03T08:37:15.999Z</time></trkpt><trkpt lat="44.279712958185016" lon="7.90015447641197"><ele>971.0</ele><time>2026-05-03T08:37:16.999Z</time></trkpt><trkpt lat="44.279759205667546" lon="7.900269507422346"><ele>971.0</ele><time>2026-05-03T08:37:17.999Z</time></trkpt><trkpt lat="44.279801777538985" lon="7.900376365058007"><ele>971.0000000000001</ele><time>2026-05-03T08:37:18.999Z</time></trkpt><trkpt lat="44.279833050192366" lon="7.900484445973381"><ele>971.0</ele><time>2026-05-03T08:37:19.998Z</time></trkpt><trkpt lat="44.27987053179026" lon="7.900588152330992"><ele>968.1999999999999</ele><time>2026-05-03T08:37:20.998Z</time></trkpt><trkpt lat="44.27992107044373" lon="7.900704016441689"><ele>965.3999999999999</ele><time>2026-05-03T08:37:21.998Z</time></trkpt><trkpt lat="44.27997852333452" lon="7.900804092523544"><ele>962.6</ele><time>2026-05-03T08:37:22.998Z</time></trkpt><trkpt lat="44.28004417679487" lon="7.90090648481163"><ele>959.8</ele><time>2026-05-03T08:37:23.998Z</time></trkpt><trkpt lat="44.2801266816494" lon="7.901000613509069"><ele>957.0</ele><time>2026-05-03T08:37:25Z</time></trkpt><trkpt lat="44.28022071216117" lon="7.901095993608618"><ele>956.8</ele><time>2026-05-03T08:37:26Z</time></trkpt><trkpt lat="44.2803206181865" lon="7.901163270461589"><ele>956.6</ele><time>2026-05-03T08:37:27Z</time></trkpt><trkpt lat="44.28040532903952" lon="7.901233852897222"><ele>956.3999999999999</ele><time>2026-05-03T08:37:28Z</time></trkpt><trkpt lat="44.280493121391316" lon="7.901300219502965"><ele>956.1999999999999</ele><time>2026-05-03T08:37:29Z</time></trkpt><trkpt lat="44.28057376716066" lon="7.90136996863494"><ele>956.0</ele><time>2026-05-03T08:37:30Z</time></trkpt><trkpt lat="44.28065845934089" lon="7.9014582621454394"><ele>956.0</ele><time>2026-05-03T08:37:31Z</time></trkpt><trkpt lat="44.28074058612863" lon="7.9015564117758466"><ele>955.9999999999999</ele><time>2026-05-03T08:37:32Z</time></trkpt><trkpt lat="44.28081629117086" lon="7.901662749083428"><ele>955.9999999999999</ele><time>2026-05-03T08:37:33Z</time></trkpt><trkpt lat="44.28088485447566" lon="7.9017661902066605"><ele>956.0</ele><time>2026-05-03T08:37:34Z</time></trkpt><trkpt lat="44.28095021067383" lon="7.901857543994451"><ele>956.0</ele><time>2026-05-03T08:37:35Z</time></trkpt><trkpt lat="44.28101494607881" lon="7.901954289524478"><ele>955.3333333333334</ele><time>2026-05-03T08:37:36Z</time></trkpt><trkpt lat="44.28108068755765" lon="7.902057274483137"><ele>954.6666666666667</ele><time>2026-05-03T08:37:37Z</time></trkpt><trkpt lat="44.28113966506898" lon="7.902151231940268"><ele>954.0</ele><time>2026-05-03T08:37:38Z</time></trkpt><trkpt lat="44.28119805179172" lon="7.902228502634447"><ele>953.3333333333333</ele><time>2026-05-03T08:37:39Z</time></trkpt><trkpt lat="44.2812556196294" lon="7.902307754590899"><ele>952.6666666666666</ele><time>2026-05-03T08:37:40Z</time></trkpt><trkpt lat="44.28130704873569" lon="7.9023798882706835"><ele>952.0</ele><time>2026-05-03T08:37:41Z</time></trkpt><trkpt lat="44.28135150858127" lon="7.90244315880008"><ele>952.0</ele><time>2026-05-03T08:37:42Z</time></trkpt><trkpt lat="44.28139806998095" lon="7.9025712638468395"><ele>952.0</ele><time>2026-05-03T08:37:44Z</time></trkpt><trkpt lat="44.28143144539778" lon="7.902647865349224"><ele>952.0</ele><time>2026-05-03T08:37:46Z</time></trkpt><trkpt lat="44.28144156192767" lon="7.902736643223953"><ele>952.0</ele><time>2026-05-03T08:37:49Z</time></trkpt><trkpt lat="44.28128680460591" lon="7.90267990143208"><ele>952.0</ele><time>2026-05-03T08:37:51Z</time></trkpt><trkpt lat="44.281219529982806" lon="7.902619780321538"><ele>951.9999999999999</ele><time>2026-05-03T08:37:52Z</time></trkpt><trkpt lat="44.281149763097176" lon="7.902576343598166"><ele>952.0</ele><time>2026-05-03T08:37:53Z</time></trkpt><trkpt lat="44.281051659481925" lon="7.90255941673848"><ele>952.0</ele><time>2026-05-03T08:37:54Z</time></trkpt><trkpt lat="44.28097655328541" lon="7.902536090826908"><ele>952.0</ele><time>2026-05-03T08:37:55Z</time></trkpt><trkpt lat="44.280907900660786" lon="7.902512217468613"><ele>951.9999999999999</ele><time>2026-05-03T08:37:56Z</time></trkpt><trkpt lat="44.280841540889384" lon="7.902486425273962"><ele>952.0</ele><time>2026-05-03T08:37:57Z</time></trkpt><trkpt lat="44.280783719269245" lon="7.902444089958563"><ele>951.9999999999999</ele><time>2026-05-03T08:37:58Z</time></trkpt><trkpt lat="44.28073098050785" lon="7.90238210055236"><ele>952.0</ele><time>2026-05-03T08:37:59Z</time></trkpt><trkpt lat="44.2806865960241" lon="7.9022843998524195"><ele>952.0</ele><time>2026-05-03T08:38:00Z</time></trkpt><trkpt lat="44.28064197903642" lon="7.902186673804464"><ele>952.0</ele><time>2026-05-03T08:38:01Z</time></trkpt><trkpt lat="44.28060173909642" lon="7.902092626849936"><ele>951.9999999999999</ele><time>2026-05-03T08:38:02Z</time></trkpt><trkpt lat="44.28054809352712" lon="7.902009855283716"><ele>952.0</ele><time>2026-05-03T08:38:03Z</time></trkpt><trkpt lat="44.2804940473925" lon="7.90192967253906"><ele>948.9999999999999</ele><time>2026-05-03T08:38:04Z</time></trkpt><trkpt lat="44.28044337092263" lon="7.901843843024057"><ele>946.0</ele><time>2026-05-03T08:38:05Z</time></trkpt><trkpt lat="44.28037552500135" lon="7.901811411725691"><ele>943.0</ele><time>2026-05-03T08:38:06Z</time></trkpt><trkpt lat="44.28030026560942" lon="7.901768270620777"><ele>940.0</ele><time>2026-05-03T08:38:07Z</time></trkpt><trkpt lat="44.280214961175425" lon="7.901753718437062"><ele>936.9999999999999</ele><time>2026-05-03T08:38:08Z</time></trkpt><trkpt lat="44.280121438963164" lon="7.901798314392429"><ele>934.0</ele><time>2026-05-03T08:38:09Z</time></trkpt><trkpt lat="44.28001857850931" lon="7.901837776001364"><ele>934.0</ele><time>2026-05-03T08:38:10Z</time></trkpt><trkpt lat="44.27992609469727" lon="7.901869101854407"><ele>934.0000000000001</ele><time>2026-05-03T08:38:11Z</time></trkpt><trkpt lat="44.27982737143954" lon="7.901902951261103"><ele>934.0000000000001</ele><time>2026-05-03T08:38:12Z</time></trkpt><trkpt lat="44.2797185979503" lon="7.901938078818071"><ele>934.0</ele><time>2026-05-03T08:38:13Z</time></trkpt><trkpt lat="44.279606624740076" lon="7.901988745255164"><ele>934.0</ele><time>2026-05-03T08:38:14Z</time></trkpt><trkpt lat="44.27950447542326" lon="7.902056259005007"><ele>934.6</ele><time>2026-05-03T08:38:15Z</time></trkpt><trkpt lat="44.27941611730565" lon="7.902130418614342"><ele>935.2</ele><time>2026-05-03T08:38:16Z</time></trkpt><trkpt lat="44.279337172577385" lon="7.902212076373282"><ele>935.8000000000001</ele><time>2026-05-03T08:38:17Z</time></trkpt><trkpt lat="44.27925328229284" lon="7.902287771913792"><ele>936.4000000000001</ele><time>2026-05-03T08:38:17.999Z</time></trkpt><trkpt lat="44.279178656877704" lon="7.90237052483987"><ele>937.0</ele><time>2026-05-03T08:38:18.999Z</time></trkpt><trkpt lat="44.27910674942196" lon="7.902460488525582"><ele>936.25</ele><time>2026-05-03T08:38:19.999Z</time></trkpt><trkpt lat="44.279037408759486" lon="7.902586124142422"><ele>935.5</ele><time>2026-05-03T08:38:20.999Z</time></trkpt><trkpt lat="44.27897407949255" lon="7.902746820738237"><ele>934.75</ele><time>2026-05-03T08:38:21.999Z</time></trkpt><trkpt lat="44.27892063052242" lon="7.902889595006149"><ele>934.0</ele><time>2026-05-03T08:38:22.999Z</time></trkpt><trkpt lat="44.27886799989805" lon="7.903056441048337"><ele>934.0</ele><time>2026-05-03T08:38:23.999Z</time></trkpt><trkpt lat="44.27880556544911" lon="7.903173696058671"><ele>934.0000000000001</ele><time>2026-05-03T08:38:24.999Z</time></trkpt><trkpt lat="44.27875597952035" lon="7.903276238615936"><ele>934.0000000000001</ele><time>2026-05-03T08:38:25.999Z</time></trkpt><trkpt lat="44.27870280743169" lon="7.90337841043067"><ele>934.0</ele><time>2026-05-03T08:38:26.999Z</time></trkpt><trkpt lat="44.27864653400422" lon="7.903486418285606"><ele>934.0</ele><time>2026-05-03T08:38:27.999Z</time></trkpt><trkpt lat="44.27859757888053" lon="7.903575999139185"><ele>930.5714285714284</ele><time>2026-05-03T08:38:28.999Z</time></trkpt><trkpt lat="44.27855798037531" lon="7.903679421797643"><ele>927.1428571428571</ele><time>2026-05-03T08:38:29.999Z</time></trkpt><trkpt lat="44.278501655617895" lon="7.903735006736919"><ele>923.7142857142857</ele><time>2026-05-03T08:38:30.999Z</time></trkpt><trkpt lat="44.27845887896859" lon="7.903808737881318"><ele>920.2857142857142</ele><time>2026-05-03T08:38:31.999Z</time></trkpt><trkpt lat="44.27839307657056" lon="7.903827871965414"><ele>916.8571428571429</ele><time>2026-05-03T08:38:32.999Z</time></trkpt><trkpt lat="44.278316969899" lon="7.903817062442948"><ele>913.4285714285714</ele><time>2026-05-03T08:38:33.999Z</time></trkpt><trkpt lat="44.278238141109036" lon="7.903773418466804"><ele>910.0</ele><time>2026-05-03T08:38:34.999Z</time></trkpt><trkpt lat="44.27815483931368" lon="7.903705674842084"><ele>907.1666666666666</ele><time>2026-05-03T08:38:35.999Z</time></trkpt><trkpt lat="44.27806631629053" lon="7.903626946688207"><ele>904.3333333333333</ele><time>2026-05-03T08:38:36.999Z</time></trkpt><trkpt lat="44.27798030522553" lon="7.903559205395211"><ele>901.5</ele><time>2026-05-03T08:38:37.999Z</time></trkpt><trkpt lat="44.277902274080006" lon="7.903519043079077"><ele>898.6666666666667</ele><time>2026-05-03T08:38:38.999Z</time></trkpt><trkpt lat="44.27782125246396" lon="7.903486689163807"><ele>895.8333333333334</ele><time>2026-05-03T08:38:39.999Z</time></trkpt><trkpt lat="44.27774698406165" lon="7.903452599790612"><ele>893.0</ele><time>2026-05-03T08:38:40.999Z</time></trkpt><trkpt lat="44.27768115229153" lon="7.9034268654507045"><ele>893.0</ele><time>2026-05-03T08:38:41.999Z</time></trkpt><trkpt lat="44.27758695008528" lon="7.903404394797958"><ele>893.0</ele><time>2026-05-03T08:38:43.999Z</time></trkpt><trkpt lat="44.277511221505684" lon="7.903443372296278"><ele>893.0</ele><time>2026-05-03T08:38:45.999Z</time></trkpt><trkpt lat="44.27746895336079" lon="7.903606536067819"><ele>893.0</ele><time>2026-05-03T08:38:47.999Z</time></trkpt><trkpt lat="44.277528110692785" lon="7.903706247984063"><ele>893.0</ele><time>2026-05-03T08:38:48.999Z</time></trkpt><trkpt lat="44.277615137429876" lon="7.903739673915515"><ele>893.0</ele><time>2026-05-03T08:38:49.999Z</time></trkpt><trkpt lat="44.277709100989306" lon="7.903720718495604"><ele>893.0</ele><time>2026-05-03T08:38:50.999Z</time></trkpt><trkpt lat="44.277783166211286" lon="7.903746798308289"><ele>893.0</ele><time>2026-05-03T08:38:51.999Z</time></trkpt><trkpt lat="44.277864351178756" lon="7.903830642575127"><ele>893.0</ele><time>2026-05-03T08:38:52.999Z</time></trkpt><trkpt lat="44.277944999747405" lon="7.903949576229414"><ele>893.0</ele><time>2026-05-03T08:38:53.999Z</time></trkpt><trkpt lat="44.27806102541947" lon="7.904076247357137"><ele>892.5</ele><time>2026-05-03T08:38:54.999Z</time></trkpt><trkpt lat="44.278154377269345" lon="7.904205091691502"><ele>892.0</ele><time>2026-05-03T08:38:55.999Z</time></trkpt><trkpt lat="44.27824936911017" lon="7.904333520243231"><ele>891.5</ele><time>2026-05-03T08:38:56.999Z</time></trkpt><trkpt lat="44.27833813425645" lon="7.9044453210542"><ele>891.0</ele><time>2026-05-03T08:38:57.999Z</time></trkpt><trkpt lat="44.27842193933309" lon="7.904544894066193"><ele>891.0</ele><time>2026-05-03T08:38:58.999Z</time></trkpt><trkpt lat="44.27849610976308" lon="7.904650517527862"><ele>890.9999999999999</ele><time>2026-05-03T08:38:59.999Z</time></trkpt><trkpt lat="44.27855606694602" lon="7.904737213612497"><ele>890.9999999999999</ele><time>2026-05-03T08:39:00.999Z</time></trkpt><trkpt lat="44.2786161718102" lon="7.904823903169155"><ele>891.0</ele><time>2026-05-03T08:39:01.999Z</time></trkpt><trkpt lat="44.27865476334603" lon="7.904926988910143"><ele>891.0</ele><time>2026-05-03T08:39:02.999Z</time></trkpt><trkpt lat="44.27867314648749" lon="7.905062993604723"><ele>889.0</ele><time>2026-05-03T08:39:03.999Z</time></trkpt><trkpt lat="44.27865557775587" lon="7.905219234149437"><ele>886.9999999999999</ele><time>2026-05-03T08:39:04.999Z</time></trkpt><trkpt lat="44.27864354518253" lon="7.90537110818341"><ele>884.9999999999999</ele><time>2026-05-03T08:39:05.999Z</time></trkpt><trkpt lat="44.27864719461536" lon="7.905517244984516"><ele>883.0</ele><time>2026-05-03T08:39:06.999Z</time></trkpt><trkpt lat="44.27863827295469" lon="7.905650490390028"><ele>881.0</ele><time>2026-05-03T08:39:07.999Z</time></trkpt><trkpt lat="44.27863471512479" lon="7.905766478336196"><ele>881.0000000000001</ele><time>2026-05-03T08:39:08.999Z</time></trkpt><trkpt lat="44.27862745580399" lon="7.905889821130841"><ele>881.0</ele><time>2026-05-03T08:39:09.999Z</time></trkpt><trkpt lat="44.27863185186549" lon="7.905989513229928"><ele>881.0</ele><time>2026-05-03T08:39:10.999Z</time></trkpt><trkpt lat="44.27864203912894" lon="7.906134828807073"><ele>881.0</ele><time>2026-05-03T08:39:12.999Z</time></trkpt><trkpt lat="44.278608733357125" lon="7.906214712053423"><ele>881.0000000000001</ele><time>2026-05-03T08:39:14.999Z</time></trkpt><trkpt lat="44.27853711275932" lon="7.906197683098243"><ele>881.0</ele><time>2026-05-03T08:39:16.999Z</time></trkpt><trkpt lat="44.27852023358795" lon="7.906035766526049"><ele>881.0000000000001</ele><time>2026-05-03T08:39:18.999Z</time></trkpt><trkpt lat="44.278517867355895" lon="7.9059263716322095"><ele>881.0</ele><time>2026-05-03T08:39:19.999Z</time></trkpt><trkpt lat="44.27850901738417" lon="7.905795861825382"><ele>881.0</ele><time>2026-05-03T08:39:20.999Z</time></trkpt><trkpt lat="44.27849812943951" lon="7.905684810894563"><ele>881.0</ele><time>2026-05-03T08:39:21.999Z</time></trkpt><trkpt lat="44.27847714001499" lon="7.905578951578677"><ele>881.0000000000001</ele><time>2026-05-03T08:39:22.998Z</time></trkpt><trkpt lat="44.27842055419563" lon="7.905495266215653"><ele>881.0</ele><time>2026-05-03T08:39:23.998Z</time></trkpt><trkpt lat="44.278382071167364" lon="7.9053976774863255"><ele>881.0</ele><time>2026-05-03T08:39:24.998Z</time></trkpt><trkpt lat="44.27831492915138" lon="7.905329060348995"><ele>880.9999999999999</ele><time>2026-05-03T08:39:25.998Z</time></trkpt><trkpt lat="44.27822314030081" lon="7.905276259812896"><ele>880.9999999999999</ele><time>2026-05-03T08:39:26.998Z</time></trkpt><trkpt lat="44.27812043441366" lon="7.905211909906045"><ele>881.0</ele><time>2026-05-03T08:39:27.998Z</time></trkpt><trkpt lat="44.27801344371338" lon="7.90514867692082"><ele>881.0</ele><time>2026-05-03T08:39:28.998Z</time></trkpt><trkpt lat="44.277895136677984" lon="7.9051188081134445"><ele>880.4</ele><time>2026-05-03T08:39:29.998Z</time></trkpt><trkpt lat="44.277791081856414" lon="7.905083786095457"><ele>879.8</ele><time>2026-05-03T08:39:31Z</time></trkpt><trkpt lat="44.27768372065361" lon="7.905057336591371"><ele>879.1999999999999</ele><time>2026-05-03T08:39:32Z</time></trkpt><trkpt lat="44.27758754369892" lon="7.905040759089275"><ele>878.5999999999999</ele><time>2026-05-03T08:39:33Z</time></trkpt><trkpt lat="44.27750209582652" lon="7.904992240939971"><ele>878.0</ele><time>2026-05-03T08:39:34Z</time></trkpt><trkpt lat="44.27741645988983" lon="7.9049491860596435"><ele>878.0</ele><time>2026-05-03T08:39:35Z</time></trkpt><trkpt lat="44.2773301399289" lon="7.904898252547619"><ele>878.0</ele><time>2026-05-03T08:39:36Z</time></trkpt><trkpt lat="44.27724252568328" lon="7.904829530277517"><ele>878.0</ele><time>2026-05-03T08:39:37Z</time></trkpt><trkpt lat="44.277152386874484" lon="7.904756379628021"><ele>878.0</ele><time>2026-05-03T08:39:38Z</time></trkpt><trkpt lat="44.27707243980385" lon="7.9046852577230835"><ele>878.0</ele><time>2026-05-03T08:39:39Z</time></trkpt><trkpt lat="44.27699042363728" lon="7.9046199840544515"><ele>875.3333333333334</ele><time>2026-05-03T08:39:40Z</time></trkpt><trkpt lat="44.276918186643435" lon="7.904563605172029"><ele>872.6666666666667</ele><time>2026-05-03T08:39:41Z</time></trkpt><trkpt lat="44.27684347956662" lon="7.904505038629395"><ele>870.0</ele><time>2026-05-03T08:39:42Z</time></trkpt><trkpt lat="44.27676898782825" lon="7.904444286282177"><ele>867.3333333333333</ele><time>2026-05-03T08:39:43Z</time></trkpt><trkpt lat="44.27669728119018" lon="7.9043973006321995"><ele>864.6666666666666</ele><time>2026-05-03T08:39:44Z</time></trkpt><trkpt lat="44.27661848795601" lon="7.904354255014038"><ele>862.0</ele><time>2026-05-03T08:39:45Z</time></trkpt><trkpt lat="44.276543444911326" lon="7.904316263235798"><ele>861.9999999999999</ele><time>2026-05-03T08:39:46Z</time></trkpt><trkpt lat="44.27645377754521" lon="7.9043047099514006"><ele>862.0</ele><time>2026-05-03T08:39:47Z</time></trkpt><trkpt lat="44.276369034171005" lon="7.904314266961181"><ele>862.0</ele><time>2026-05-03T08:39:48Z</time></trkpt><trkpt lat="44.27628384051925" lon="7.904328410071652"><ele>862.0</ele><time>2026-05-03T08:39:49Z</time></trkpt><trkpt lat="44.276209763135" lon="7.904340745503508"><ele>861.9999999999999</ele><time>2026-05-03T08:39:50Z</time></trkpt><trkpt lat="44.27614664835063" lon="7.9043538059538605"><ele>862.0</ele><time>2026-05-03T08:39:51Z</time></trkpt><trkpt lat="44.27604480078848" lon="7.904392512480109"><ele>861.0</ele><time>2026-05-03T08:39:53Z</time></trkpt><trkpt lat="44.27596952703002" lon="7.904486129424176"><ele>860.0</ele><time>2026-05-03T08:39:55Z</time></trkpt><trkpt lat="44.27597191690566" lon="7.904580752505326"><ele>859.0</ele><time>2026-05-03T08:39:56Z</time></trkpt><trkpt lat="44.27601597853163" lon="7.904674885888816"><ele>858.0</ele><time>2026-05-03T08:39:57Z</time></trkpt><trkpt lat="44.276110539732294" lon="7.904750529493062"><ele>857.0</ele><time>2026-05-03T08:39:58Z</time></trkpt><trkpt lat="44.27619010776938" lon="7.904854582302032"><ele>857.0</ele><time>2026-05-03T08:39:59Z</time></trkpt><trkpt lat="44.27628227102154" lon="7.904961384469872"><ele>857.0</ele><time>2026-05-03T08:40:00Z</time></trkpt><trkpt lat="44.27636959841721" lon="7.905056019195308"><ele>857.0</ele><time>2026-05-03T08:40:01Z</time></trkpt><trkpt lat="44.276449725923435" lon="7.905147923967131"><ele>857.0</ele><time>2026-05-03T08:40:02Z</time></trkpt><trkpt lat="44.27652953633051" lon="7.905244291177536"><ele>857.0</ele><time>2026-05-03T08:40:03Z</time></trkpt><trkpt lat="44.27660542981099" lon="7.905332890509632"><ele>855.2</ele><time>2026-05-03T08:40:04Z</time></trkpt><trkpt lat="44.27666952658543" lon="7.905424168887316"><ele>853.4000000000001</ele><time>2026-05-03T08:40:05Z</time></trkpt><trkpt lat="44.27672347921819" lon="7.905536247116356"><ele>851.5999999999999</ele><time>2026-05-03T08:40:06Z</time></trkpt><trkpt lat="44.276761457924096" lon="7.905667703452056"><ele>849.8</ele><time>2026-05-03T08:40:07Z</time></trkpt><trkpt lat="44.276770839888485" lon="7.905811650422816"><ele>848.0</ele><time>2026-05-03T08:40:08Z</time></trkpt><trkpt lat="44.276779891856684" lon="7.905956621233771"><ele>845.75</ele><time>2026-05-03T08:40:09Z</time></trkpt><trkpt lat="44.276794205161984" lon="7.906115176571769"><ele>843.5</ele><time>2026-05-03T08:40:10Z</time></trkpt><trkpt lat="44.276797020541885" lon="7.906276181416658"><ele>841.25</ele><time>2026-05-03T08:40:11Z</time></trkpt><trkpt lat="44.276807653552154" lon="7.906437628714173"><ele>839.0</ele><time>2026-05-03T08:40:12Z</time></trkpt><trkpt lat="44.2768163629968" lon="7.906590568843878"><ele>837.0000000000001</ele><time>2026-05-03T08:40:13Z</time></trkpt><trkpt lat="44.27682659618406" lon="7.906744542858016"><ele>835.0</ele><time>2026-05-03T08:40:14Z</time></trkpt><trkpt lat="44.27683613372534" lon="7.906851279922268"><ele>833.0</ele><time>2026-05-03T08:40:15Z</time></trkpt><trkpt lat="44.276847032247275" lon="7.906955907010778"><ele>831.0</ele><time>2026-05-03T08:40:16Z</time></trkpt><trkpt lat="44.27684675522883" lon="7.907045103141114"><ele>829.0000000000001</ele><time>2026-05-03T08:40:17Z</time></trkpt><trkpt lat="44.27685318477401" lon="7.907150980313446"><ele>827.0</ele><time>2026-05-03T08:40:18Z</time></trkpt><trkpt lat="44.27688134368295" lon="7.907299837214206"><ele>827.0</ele><time>2026-05-03T08:40:19.999Z</time></trkpt><trkpt lat="44.27691638430801" lon="7.907375987319426"><ele>827.0</ele><time>2026-05-03T08:40:20.999Z</time></trkpt><trkpt lat="44.27697214650292" lon="7.90744390804904"><ele>827.0</ele><time>2026-05-03T08:40:21.999Z</time></trkpt><trkpt lat="44.27704740261786" lon="7.90750100974569"><ele>827.0</ele><time>2026-05-03T08:40:22.999Z</time></trkpt><trkpt lat="44.27715170691937" lon="7.907499267091124"><ele>827.0</ele><time>2026-05-03T08:40:23.999Z</time></trkpt><trkpt lat="44.27727571544085" lon="7.9075031099428195"><ele>829.1666666666667</ele><time>2026-05-03T08:40:24.999Z</time></trkpt><trkpt lat="44.27738077208564" lon="7.907506426037877"><ele>831.3333333333334</ele><time>2026-05-03T08:40:25.999Z</time></trkpt><trkpt lat="44.277475112345556" lon="7.90747702394203"><ele>833.5</ele><time>2026-05-03T08:40:26.999Z</time></trkpt><trkpt lat="44.27755536384228" lon="7.907449837518151"><ele>835.6666666666667</ele><time>2026-05-03T08:40:27.999Z</time></trkpt><trkpt lat="44.27761920219883" lon="7.9074444936623784"><ele>837.8333333333334</ele><time>2026-05-03T08:40:28.999Z</time></trkpt><trkpt lat="44.27769462624745" lon="7.907487963697227"><ele>840.0</ele><time>2026-05-03T08:40:29.999Z</time></trkpt><trkpt lat="44.27776859316707" lon="7.907538494633419"><ele>835.0</ele><time>2026-05-03T08:40:30.999Z</time></trkpt><trkpt lat="44.27783152217194" lon="7.907636092737928"><ele>830.0</ele><time>2026-05-03T08:40:31.999Z</time></trkpt><trkpt lat="44.2778832710363" lon="7.907733450656013"><ele>825.0</ele><time>2026-05-03T08:40:32.999Z</time></trkpt><trkpt lat="44.2779290803321" lon="7.907860328204096"><ele>820.0</ele><time>2026-05-03T08:40:33.999Z</time></trkpt><trkpt lat="44.277949230664774" lon="7.907995276936771"><ele>815.0</ele><time>2026-05-03T08:40:34.999Z</time></trkpt><trkpt lat="44.277960562146966" lon="7.908133379070411"><ele>815.0</ele><time>2026-05-03T08:40:35.999Z</time></trkpt><trkpt lat="44.277957222888" lon="7.908263870269262"><ele>815.0</ele><time>2026-05-03T08:40:36.999Z</time></trkpt><trkpt lat="44.277952282181175" lon="7.908406623702491"><ele>815.0</ele><time>2026-05-03T08:40:37.999Z</time></trkpt><trkpt lat="44.277956208154265" lon="7.908538641866593"><ele>815.0</ele><time>2026-05-03T08:40:38.999Z</time></trkpt><trkpt lat="44.27796673433717" lon="7.908661750686663"><ele>815.0</ele><time>2026-05-03T08:40:39.999Z</time></trkpt><trkpt lat="44.27799179202342" lon="7.908783663972677"><ele>813.0000000000001</ele><time>2026-05-03T08:40:40.999Z</time></trkpt><trkpt lat="44.27801513310338" lon="7.908891274831706"><ele>811.0</ele><time>2026-05-03T08:40:41.999Z</time></trkpt><trkpt lat="44.27803433342708" lon="7.9089803503091956"><ele>809.0</ele><time>2026-05-03T08:40:42.999Z</time></trkpt><trkpt lat="44.27806460898878" lon="7.909109523214093"><ele>807.0</ele><time>2026-05-03T08:40:44.999Z</time></trkpt><trkpt lat="44.278012164096914" lon="7.909216834214772"><ele>805.0000000000001</ele><time>2026-05-03T08:40:47.999Z</time></trkpt><trkpt lat="44.27793595604546" lon="7.909181053586551"><ele>803.0</ele><time>2026-05-03T08:40:49.999Z</time></trkpt><trkpt lat="44.27786455981238" lon="7.90900079303609"><ele>803.0000000000001</ele><time>2026-05-03T08:40:51.999Z</time></trkpt><trkpt lat="44.27784195296875" lon="7.908879118478935"><ele>803.0</ele><time>2026-05-03T08:40:52.999Z</time></trkpt><trkpt lat="44.27781933355867" lon="7.908753778863968"><ele>803.0</ele><time>2026-05-03T08:40:53.999Z</time></trkpt><trkpt lat="44.277790816512834" lon="7.9086480187664385"><ele>803.0</ele><time>2026-05-03T08:40:54.999Z</time></trkpt><trkpt lat="44.27774784498804" lon="7.908534748868475"><ele>803.0000000000001</ele><time>2026-05-03T08:40:55.999Z</time></trkpt><trkpt lat="44.27769805226771" lon="7.908431655592636"><ele>803.0</ele><time>2026-05-03T08:40:56.999Z</time></trkpt><trkpt lat="44.277631115620075" lon="7.908334370594788"><ele>802.6666666666667</ele><time>2026-05-03T08:40:57.999Z</time></trkpt><trkpt lat="44.277544638389195" lon="7.908250963315949"><ele>802.3333333333334</ele><time>2026-05-03T08:40:58.999Z</time></trkpt><trkpt lat="44.27745923762887" lon="7.908180224341518"><ele>802.0</ele><time>2026-05-03T08:40:59.999Z</time></trkpt><trkpt lat="44.277384089959824" lon="7.908142496389532"><ele>801.6666666666667</ele><time>2026-05-03T08:41:00.999Z</time></trkpt><trkpt lat="44.27731957481842" lon="7.908089364056886"><ele>801.3333333333334</ele><time>2026-05-03T08:41:01.999Z</time></trkpt><trkpt lat="44.27726246804163" lon="7.908051818155189"><ele>801.0</ele><time>2026-05-03T08:41:02.999Z</time></trkpt><trkpt lat="44.27718327470777" lon="7.908030153432023"><ele>801.0</ele><time>2026-05-03T08:41:04.999Z</time></trkpt><trkpt lat="44.27711173504402" lon="7.908074542503127"><ele>801.0</ele><time>2026-05-03T08:41:06.999Z</time></trkpt><trkpt lat="44.277079609643856" lon="7.908175293092825"><ele>801.0</ele><time>2026-05-03T08:41:07.999Z</time></trkpt><trkpt lat="44.277099209966366" lon="7.908307580621996"><ele>801.0</ele><time>2026-05-03T08:41:08.999Z</time></trkpt><trkpt lat="44.27717030416739" lon="7.908413195962535"><ele>801.0</ele><time>2026-05-03T08:41:09.999Z</time></trkpt><trkpt lat="44.277241978423554" lon="7.908497254612663"><ele>801.2857142857142</ele><time>2026-05-03T08:41:10.999Z</time></trkpt><trkpt lat="44.277289914515265" lon="7.908580909488534"><ele>801.5714285714286</ele><time>2026-05-03T08:41:11.999Z</time></trkpt><trkpt lat="44.27733968224218" lon="7.908647337787974"><ele>801.8571428571429</ele><time>2026-05-03T08:41:12.999Z</time></trkpt><trkpt lat="44.27738593184144" lon="7.908725202411582"><ele>802.1428571428571</ele><time>2026-05-03T08:41:13.999Z</time></trkpt><trkpt lat="44.27743009606048" lon="7.908788475962335"><ele>802.4285714285714</ele><time>2026-05-03T08:41:14.999Z</time></trkpt><trkpt lat="44.27747191431851" lon="7.908880073364436"><ele>802.7142857142857</ele><time>2026-05-03T08:41:16.999Z</time></trkpt><trkpt lat="44.27744085255635" lon="7.9089739301851765"><ele>803.0</ele><time>2026-05-03T08:41:18.999Z</time></trkpt><trkpt lat="44.277348331838475" lon="7.909011334663498"><ele>803.0</ele><time>2026-05-03T08:41:20.998Z</time></trkpt><trkpt lat="44.27728835748769" lon="7.908976344995276"><ele>803.0</ele><time>2026-05-03T08:41:21.998Z</time></trkpt><trkpt lat="44.27720741701267" lon="7.908860257403468"><ele>803.0</ele><time>2026-05-03T08:41:22.998Z</time></trkpt><trkpt lat="44.27711006949828" lon="7.908742216918007"><ele>803.0</ele><time>2026-05-03T08:41:23.998Z</time></trkpt><trkpt lat="44.27700619426991" lon="7.908638074801507"><ele>803.0</ele><time>2026-05-03T08:41:24.998Z</time></trkpt><trkpt lat="44.27692280559393" lon="7.908548719231491"><ele>802.5</ele><time>2026-05-03T08:41:25.998Z</time></trkpt><trkpt lat="44.276837925819294" lon="7.908445031820397"><ele>802.0</ele><time>2026-05-03T08:41:26.998Z</time></trkpt><trkpt lat="44.27672593463299" lon="7.90840595049832"><ele>801.5</ele><time>2026-05-03T08:41:27.998Z</time></trkpt><trkpt lat="44.27660466592218" lon="7.908353809619465"><ele>801.0</ele><time>2026-05-03T08:41:28.998Z</time></trkpt><trkpt lat="44.2764867003282" lon="7.908335062105061"><ele>796.0</ele><time>2026-05-03T08:41:29.998Z</time></trkpt><trkpt lat="44.27637042182552" lon="7.9082740451331395"><ele>791.0</ele><time>2026-05-03T08:41:30.998Z</time></trkpt><trkpt lat="44.276255865242746" lon="7.908142616027065"><ele>786.0</ele><time>2026-05-03T08:41:31.998Z</time></trkpt><trkpt lat="44.27615016274847" lon="7.908043846547364"><ele>781.0</ele><time>2026-05-03T08:41:32.998Z</time></trkpt><trkpt lat="44.2760439332084" lon="7.907950346435059"><ele>781.0</ele><time>2026-05-03T08:41:33.998Z</time></trkpt><trkpt lat="44.27593769905551" lon="7.907884862356183"><ele>781.0</ele><time>2026-05-03T08:41:34.998Z</time></trkpt><trkpt lat="44.27584613205771" lon="7.907815856111392"><ele>781.0</ele><time>2026-05-03T08:41:35.998Z</time></trkpt><trkpt lat="44.275766722948084" lon="7.90777164363756"><ele>781.0</ele><time>2026-05-03T08:41:37Z</time></trkpt><trkpt lat="44.27567773859474" lon="7.907726189961139"><ele>781.0</ele><time>2026-05-03T08:41:38Z</time></trkpt><trkpt lat="44.27560006954053" lon="7.90768326867726"><ele>780.0</ele><time>2026-05-03T08:41:39Z</time></trkpt><trkpt lat="44.27552549704099" lon="7.907666106039858"><ele>779.0</ele><time>2026-05-03T08:41:40Z</time></trkpt><trkpt lat="44.27539017122107" lon="7.907692851562526"><ele>778.0</ele><time>2026-05-03T08:41:42Z</time></trkpt><trkpt lat="44.27532126176883" lon="7.9077473715874715"><ele>777.0</ele><time>2026-05-03T08:41:43Z</time></trkpt><trkpt lat="44.27524161011482" lon="7.907811455782884"><ele>776.0</ele><time>2026-05-03T08:41:44Z</time></trkpt><trkpt lat="44.275162166843785" lon="7.907851932769389"><ele>776.0000000000001</ele><time>2026-05-03T08:41:45Z</time></trkpt><trkpt lat="44.275095804878354" lon="7.90791332980166"><ele>776.0</ele><time>2026-05-03T08:41:46Z</time></trkpt><trkpt lat="44.275032799951646" lon="7.907979351076729"><ele>776.0</ele><time>2026-05-03T08:41:47Z</time></trkpt><trkpt lat="44.27496575956571" lon="7.90806136753917"><ele>776.0</ele><time>2026-05-03T08:41:48Z</time></trkpt><trkpt lat="44.27491473644816" lon="7.908171614507488"><ele>776.0000000000001</ele><time>2026-05-03T08:41:49Z</time></trkpt><trkpt lat="44.27485176570485" lon="7.9082661361986"><ele>776.0</ele><time>2026-05-03T08:41:50Z</time></trkpt><trkpt lat="44.27480592738138" lon="7.908367828360302"><ele>775.1999999999999</ele><time>2026-05-03T08:41:51Z</time></trkpt><trkpt lat="44.27476324740979" lon="7.908464632820629"><ele>774.4</ele><time>2026-05-03T08:41:52Z</time></trkpt><trkpt lat="44.27471443442852" lon="7.9085756753046965"><ele>773.6</ele><time>2026-05-03T08:41:53Z</time></trkpt><trkpt lat="44.274660296219714" lon="7.908703257645807"><ele>772.8</ele><time>2026-05-03T08:41:54Z</time></trkpt><trkpt lat="44.27460517455723" lon="7.908833157431684"><ele>772.0</ele><time>2026-05-03T08:41:55Z</time></trkpt><trkpt lat="44.274555041336875" lon="7.908951301543261"><ele>771.9999999999999</ele><time>2026-05-03T08:41:56Z</time></trkpt><trkpt lat="44.274509687113934" lon="7.909058187380175"><ele>772.0</ele><time>2026-05-03T08:41:57Z</time></trkpt><trkpt lat="44.27446691824688" lon="7.909163151981376"><ele>772.0</ele><time>2026-05-03T08:41:58Z</time></trkpt><trkpt lat="44.27442842417985" lon="7.9092570051021776"><ele>772.0</ele><time>2026-05-03T08:41:59Z</time></trkpt><trkpt lat="44.274391549650325" lon="7.909345663496529"><ele>771.9999999999999</ele><time>2026-05-03T08:42:00Z</time></trkpt><trkpt lat="44.27435633500752" lon="7.909444906642049"><ele>772.0</ele><time>2026-05-03T08:42:01Z</time></trkpt><trkpt lat="44.274319163532006" lon="7.909638223004755"><ele>772.3333333333333</ele><time>2026-05-03T08:42:03Z</time></trkpt><trkpt lat="44.274327130923034" lon="7.909758918582775"><ele>772.6666666666666</ele><time>2026-05-03T08:42:04Z</time></trkpt><trkpt lat="44.27431553438632" lon="7.909871620708085"><ele>773.0</ele><time>2026-05-03T08:42:05Z</time></trkpt><trkpt lat="44.274331990844225" lon="7.9099600770241825"><ele>773.3333333333333</ele><time>2026-05-03T08:42:06Z</time></trkpt><trkpt lat="44.27435338457139" lon="7.910052751776568"><ele>773.6666666666666</ele><time>2026-05-03T08:42:07Z</time></trkpt><trkpt lat="44.27438742297282" lon="7.910198862748306"><ele>774.0</ele><time>2026-05-03T08:42:09Z</time></trkpt><trkpt lat="44.27437948558675" lon="7.910321032000021"><ele>778.0</ele><time>2026-05-03T08:42:11Z</time></trkpt><trkpt lat="44.27440301807411" lon="7.910453590803754"><ele>782.0</ele><time>2026-05-03T08:42:13Z</time></trkpt><trkpt lat="44.274464069371795" lon="7.910510639138826"><ele>786.0</ele><time>2026-05-03T08:42:15Z</time></trkpt><trkpt lat="44.274573659489825" lon="7.910546094248945"><ele>790.0</ele><time>2026-05-03T08:42:17Z</time></trkpt><trkpt lat="44.274628604226955" lon="7.910593050397234"><ele>794.0</ele><time>2026-05-03T08:42:18Z</time></trkpt><trkpt lat="44.274674837666566" lon="7.910671744222825"><ele>798.0</ele><time>2026-05-03T08:42:19Z</time></trkpt><trkpt lat="44.27474177591504" lon="7.910716450700864"><ele>796.0</ele><time>2026-05-03T08:42:20Z</time></trkpt><trkpt lat="44.27481715763941" lon="7.9107642497814314"><ele>794.0</ele><time>2026-05-03T08:42:21Z</time></trkpt><trkpt lat="44.274903347622605" lon="7.910831060122338"><ele>792.0</ele><time>2026-05-03T08:42:22Z</time></trkpt><trkpt lat="44.27498949941599" lon="7.910917607062698"><ele>790.0</ele><time>2026-05-03T08:42:23Z</time></trkpt><trkpt lat="44.27505663192818" lon="7.910994116060924"><ele>788.0</ele><time>2026-05-03T08:42:24Z</time></trkpt><trkpt lat="44.275108626551884" lon="7.91106432305008"><ele>786.0</ele><time>2026-05-03T08:42:25Z</time></trkpt><trkpt lat="44.27515833101294" lon="7.911142113463716"><ele>786.0</ele><time>2026-05-03T08:42:26Z</time></trkpt><trkpt lat="44.2752052134372" lon="7.911247777960993"><ele>786.0</ele><time>2026-05-03T08:42:26.999Z</time></trkpt><trkpt lat="44.275222425026584" lon="7.911386191948343"><ele>786.0</ele><time>2026-05-03T08:42:27.999Z</time></trkpt><trkpt lat="44.27523403886083" lon="7.911503034883269"><ele>786.0</ele><time>2026-05-03T08:42:28.999Z</time></trkpt><trkpt lat="44.27524935792547" lon="7.911638170829762"><ele>786.0</ele><time>2026-05-03T08:42:29.999Z</time></trkpt><trkpt lat="44.275260298387416" lon="7.911767657723971"><ele>786.0</ele><time>2026-05-03T08:42:30.999Z</time></trkpt><trkpt lat="44.275277726421784" lon="7.9118686053855685"><ele>786.0</ele><time>2026-05-03T08:42:31.999Z</time></trkpt><trkpt lat="44.2752894067009" lon="7.911981347581969"><ele>786.0</ele><time>2026-05-03T08:42:32.999Z</time></trkpt><trkpt lat="44.27530233639297" lon="7.912087393585368"><ele>786.0</ele><time>2026-05-03T08:42:33.999Z</time></trkpt><trkpt lat="44.275311933914814" lon="7.91221967681237"><ele>786.0</ele><time>2026-05-03T08:42:34.999Z</time></trkpt><trkpt lat="44.2753121973436" lon="7.912352782074978"><ele>786.0</ele><time>2026-05-03T08:42:35.999Z</time></trkpt><trkpt lat="44.27528446926378" lon="7.912490593742458"><ele>786.0</ele><time>2026-05-03T08:42:36.999Z</time></trkpt><trkpt lat="44.27524646910944" lon="7.912595233962486"><ele>786.0</ele><time>2026-05-03T08:42:37.999Z</time></trkpt><trkpt lat="44.275174468851326" lon="7.912721730523221"><ele>786.0</ele><time>2026-05-03T08:42:38.999Z</time></trkpt><trkpt lat="44.27508681849501" lon="7.912842459269243"><ele>786.0</ele><time>2026-05-03T08:42:39.999Z</time></trkpt><trkpt lat="44.27501056074683" lon="7.912956509229105"><ele>786.0</ele><time>2026-05-03T08:42:40.999Z</time></trkpt><trkpt lat="44.27494651910763" lon="7.913055171514901"><ele>786.0</ele><time>2026-05-03T08:42:41.999Z</time></trkpt><trkpt lat="44.27488751388939" lon="7.913168521510461"><ele>786.0</ele><time>2026-05-03T08:42:42.999Z</time></trkpt><trkpt lat="44.27485874927534" lon="7.913286946395897"><ele>786.0</ele><time>2026-05-03T08:42:43.999Z</time></trkpt><trkpt lat="44.27482210106005" lon="7.913401705108232"><ele>786.0</ele><time>2026-05-03T08:42:44.999Z</time></trkpt><trkpt lat="44.2748009130622" lon="7.913534024618262"><ele>786.0</ele><time>2026-05-03T08:42:45.999Z</time></trkpt><trkpt lat="44.27479817508896" lon="7.913644878676206"><ele>786.5</ele><time>2026-05-03T08:42:46.999Z</time></trkpt><trkpt lat="44.27479695325186" lon="7.913760350596762"><ele>787.0</ele><time>2026-05-03T08:42:47.999Z</time></trkpt><trkpt lat="44.27479411415047" lon="7.913857494207934"><ele>787.5</ele><time>2026-05-03T08:42:48.999Z</time></trkpt><trkpt lat="44.27479466504963" lon="7.913948918990054"><ele>788.0</ele><time>2026-05-03T08:42:49.999Z</time></trkpt><trkpt lat="44.27478779544338" lon="7.914047578031739"><ele>788.5</ele><time>2026-05-03T08:42:50.999Z</time></trkpt><trkpt lat="44.274798105778494" lon="7.9141675012726544"><ele>789.0</ele><time>2026-05-03T08:42:51.999Z</time></trkpt><trkpt lat="44.27482807671223" lon="7.914298085314243"><ele>789.0</ele><time>2026-05-03T08:42:52.999Z</time></trkpt><trkpt lat="44.2748663861291" lon="7.914402587318808"><ele>789.0</ele><time>2026-05-03T08:42:53.999Z</time></trkpt><trkpt lat="44.27488047665014" lon="7.914504345466658"><ele>789.0</ele><time>2026-05-03T08:42:54.999Z</time></trkpt><trkpt lat="44.274912767515005" lon="7.9145969712792645"><ele>789.0</ele><time>2026-05-03T08:42:55.999Z</time></trkpt><trkpt lat="44.2749357384364" lon="7.9146815033745295"><ele>789.0</ele><time>2026-05-03T08:42:56.999Z</time></trkpt><trkpt lat="44.27499037483417" lon="7.914818809803368"><ele>789.0</ele><time>2026-05-03T08:42:58.999Z</time></trkpt><trkpt lat="44.275107444791935" lon="7.91491601779454"><ele>789.0</ele><time>2026-05-03T08:43:00.999Z</time></trkpt><trkpt lat="44.27518998188563" lon="7.914915187736135"><ele>789.0</ele><time>2026-05-03T08:43:01.999Z</time></trkpt><trkpt lat="44.275253697572865" lon="7.914925422114189"><ele>789.0</ele><time>2026-05-03T08:43:02.999Z</time></trkpt><trkpt lat="44.275370491520334" lon="7.91495654734737"><ele>789.0</ele><time>2026-05-03T08:43:04.999Z</time></trkpt><trkpt lat="44.27549973416689" lon="7.914910806997087"><ele>789.0</ele><time>2026-05-03T08:43:06.999Z</time></trkpt><trkpt lat="44.27555212325281" lon="7.914845338099832"><ele>789.0</ele><time>2026-05-03T08:43:07.999Z</time></trkpt><trkpt lat="44.27560118559165" lon="7.914749913839826"><ele>789.0</ele><time>2026-05-03T08:43:08.999Z</time></trkpt><trkpt lat="44.27560569838929" lon="7.914615254302037"><ele>789.0</ele><time>2026-05-03T08:43:09.999Z</time></trkpt><trkpt lat="44.27561035905668" lon="7.914515042760058"><ele>789.0</ele><time>2026-05-03T08:43:10.999Z</time></trkpt><trkpt lat="44.275678700167184" lon="7.914369746383984"><ele>789.0</ele><time>2026-05-03T08:43:12.999Z</time></trkpt><trkpt lat="44.27573729964473" lon="7.914306823646482"><ele>788.8333333333334</ele><time>2026-05-03T08:43:13.999Z</time></trkpt><trkpt lat="44.275814689245244" lon="7.914288422367838"><ele>788.6666666666667</ele><time>2026-05-03T08:43:14.999Z</time></trkpt><trkpt lat="44.275880131084314" lon="7.914262109835983"><ele>788.5</ele><time>2026-05-03T08:43:15.999Z</time></trkpt><trkpt lat="44.275951914207056" lon="7.914222589542353"><ele>788.3333333333334</ele><time>2026-05-03T08:43:16.999Z</time></trkpt><trkpt lat="44.27602624282745" lon="7.914183423021403"><ele>788.1666666666667</ele><time>2026-05-03T08:43:17.999Z</time></trkpt><trkpt lat="44.2760979324264" lon="7.914124008903645"><ele>788.0</ele><time>2026-05-03T08:43:18.999Z</time></trkpt><trkpt lat="44.276179720384526" lon="7.914097354525539"><ele>788.0000000000001</ele><time>2026-05-03T08:43:19.999Z</time></trkpt><trkpt lat="44.2762470142407" lon="7.914055930990599"><ele>788.0</ele><time>2026-05-03T08:43:20.999Z</time></trkpt><trkpt lat="44.27632181225173" lon="7.914010936814486"><ele>788.0</ele><time>2026-05-03T08:43:21.999Z</time></trkpt><trkpt lat="44.276396606533204" lon="7.913976959558056"><ele>788.0</ele><time>2026-05-03T08:43:22.999Z</time></trkpt><trkpt lat="44.27648571197674" lon="7.91395674800937"><ele>788.0000000000001</ele><time>2026-05-03T08:43:23.999Z</time></trkpt><trkpt lat="44.276565135751" lon="7.913935933742403"><ele>788.0</ele><time>2026-05-03T08:43:24.999Z</time></trkpt><trkpt lat="44.27664449192335" lon="7.913924933188071"><ele>789.7142857142858</ele><time>2026-05-03T08:43:25.999Z</time></trkpt><trkpt lat="44.27671237096879" lon="7.913912428610613"><ele>791.4285714285714</ele><time>2026-05-03T08:43:26.998Z</time></trkpt><trkpt lat="44.27678236031144" lon="7.913902800066099"><ele>793.1428571428571</ele><time>2026-05-03T08:43:27.998Z</time></trkpt><trkpt lat="44.27685482759574" lon="7.913891479597421"><ele>794.8571428571429</ele><time>2026-05-03T08:43:28.998Z</time></trkpt><trkpt lat="44.27691902983252" lon="7.913882018041971"><ele>796.5714285714286</ele><time>2026-05-03T08:43:29.998Z</time></trkpt><trkpt lat="44.27698538749054" lon="7.913881685797228"><ele>798.2857142857143</ele><time>2026-05-03T08:43:31.998Z</time></trkpt><trkpt lat="44.27706387507803" lon="7.913949339875478"><ele>800.0</ele><time>2026-05-03T08:43:33.998Z</time></trkpt><trkpt lat="44.27715607497634" lon="7.914020058021222"><ele>800.0</ele><time>2026-05-03T08:43:35.998Z</time></trkpt><trkpt lat="44.277250477909895" lon="7.914079107128788"><ele>800.0</ele><time>2026-05-03T08:43:37.998Z</time></trkpt><trkpt lat="44.27734527350483" lon="7.914123106770907"><ele>800.0</ele><time>2026-05-03T08:43:39.998Z</time></trkpt><trkpt lat="44.277458482246594" lon="7.914151619153125"><ele>800.0</ele><time>2026-05-03T08:43:41.998Z</time></trkpt><trkpt lat="44.277521821374314" lon="7.914171453247534"><ele>800.0</ele><time>2026-05-03T08:43:43Z</time></trkpt><trkpt lat="44.277620901536984" lon="7.914209410610162"><ele>800.0000000000001</ele><time>2026-05-03T08:43:45Z</time></trkpt><trkpt lat="44.27771562683972" lon="7.914205305184337"><ele>800.0</ele><time>2026-05-03T08:43:47Z</time></trkpt><trkpt lat="44.27778807422814" lon="7.914184946624638"><ele>800.0</ele><time>2026-05-03T08:43:49Z</time></trkpt><trkpt lat="44.27788901941329" lon="7.914194970765116"><ele>800.0</ele><time>2026-05-03T08:43:51Z</time></trkpt><trkpt lat="44.277952877379064" lon="7.914171145210442"><ele>800.0000000000001</ele><time>2026-05-03T08:43:52Z</time></trkpt><trkpt lat="44.278020586734904" lon="7.914145177160896"><ele>800.0</ele><time>2026-05-03T08:43:53Z</time></trkpt><trkpt lat="44.27813986202061" lon="7.914122802081671"><ele>800.0</ele><time>2026-05-03T08:43:54Z</time></trkpt><trkpt lat="44.27831620510983" lon="7.914026208112009"><ele>800.0</ele><time>2026-05-03T08:43:55Z</time></trkpt><trkpt lat="44.27839550591479" lon="7.914006425408963"><ele>800.0</ele><time>2026-05-03T08:43:56Z</time></trkpt><trkpt lat="44.27848606425388" lon="7.914002576500009"><ele>800.0</ele><time>2026-05-03T08:43:57Z</time></trkpt><trkpt lat="44.27856174185962" lon="7.914028353492599"><ele>800.0</ele><time>2026-05-03T08:43:58Z</time></trkpt><trkpt lat="44.27864572799469" lon="7.914051029622295"><ele>800.0</ele><time>2026-05-03T08:43:59Z</time></trkpt><trkpt lat="44.27873375856281" lon="7.914103317110295"><ele>800.0</ele><time>2026-05-03T08:44:00Z</time></trkpt><trkpt lat="44.27881725369159" lon="7.914172257084758"><ele>800.0</ele><time>2026-05-03T08:44:01Z</time></trkpt><trkpt lat="44.278888858404784" lon="7.914262348959076"><ele>800.0</ele><time>2026-05-03T08:44:02Z</time></trkpt><trkpt lat="44.27893431241033" lon="7.914392923922341"><ele>800.0</ele><time>2026-05-03T08:44:03Z</time></trkpt><trkpt lat="44.27901774423323" lon="7.914430859532036"><ele>804.4</ele><time>2026-05-03T08:44:04Z</time></trkpt><trkpt lat="44.27912226689565" lon="7.914418468545455"><ele>808.8</ele><time>2026-05-03T08:44:05Z</time></trkpt><trkpt lat="44.279210439936136" lon="7.914398487123425"><ele>813.2</ele><time>2026-05-03T08:44:06Z</time></trkpt><trkpt lat="44.2793013070096" lon="7.9143830076801605"><ele>817.6</ele><time>2026-05-03T08:44:07Z</time></trkpt><trkpt lat="44.279394169902695" lon="7.914333116290385"><ele>822.0</ele><time>2026-05-03T08:44:08Z</time></trkpt><trkpt lat="44.27946038484791" lon="7.91433146204879"><ele>822.0</ele><time>2026-05-03T08:44:09Z</time></trkpt><trkpt lat="44.279532385774274" lon="7.914374501253387"><ele>822.0</ele><time>2026-05-03T08:44:10Z</time></trkpt><trkpt lat="44.27959753860307" lon="7.9144441366093625"><ele>822.0</ele><time>2026-05-03T08:44:11Z</time></trkpt><trkpt lat="44.27964934453646" lon="7.914552121284976"><ele>822.0</ele><time>2026-05-03T08:44:12Z</time></trkpt><trkpt lat="44.27960358561908" lon="7.914762736362865"><ele>822.0</ele><time>2026-05-03T08:44:13Z</time></trkpt><trkpt lat="44.27967264573888" lon="7.914874981323182"><ele>822.0</ele><time>2026-05-03T08:44:15Z</time></trkpt><trkpt lat="44.27975212033525" lon="7.914929761532686"><ele>822.0</ele><time>2026-05-03T08:44:16Z</time></trkpt><trkpt lat="44.27981047628765" lon="7.914966642868403"><ele>822.0</ele><time>2026-05-03T08:44:17Z</time></trkpt><trkpt lat="44.27999830022183" lon="7.914894885211111"><ele>822.0</ele><time>2026-05-03T08:44:19Z</time></trkpt><trkpt lat="44.280106333886515" lon="7.91493916710815"><ele>821.3333333333334</ele><time>2026-05-03T08:44:21Z</time></trkpt><trkpt lat="44.280211653888294" lon="7.915008493288209"><ele>820.6666666666667</ele><time>2026-05-03T08:44:22Z</time></trkpt><trkpt lat="44.28029655952634" lon="7.915039019903341"><ele>820.0</ele><time>2026-05-03T08:44:23Z</time></trkpt><trkpt lat="44.28038492663182" lon="7.915012165256442"><ele>819.3333333333334</ele><time>2026-05-03T08:44:24Z</time></trkpt><trkpt lat="44.28045585600406" lon="7.914989625468893"><ele>818.6666666666667</ele><time>2026-05-03T08:44:25Z</time></trkpt><trkpt lat="44.2805223733559" lon="7.914973020406423"><ele>818.0</ele><time>2026-05-03T08:44:26Z</time></trkpt><trkpt lat="44.280606104367884" lon="7.915041375165383"><ele>823.2</ele><time>2026-05-03T08:44:29Z</time></trkpt><trkpt lat="44.28056811514694" lon="7.915112688691313"><ele>828.4</ele><time>2026-05-03T08:44:29.999Z</time></trkpt><trkpt lat="44.280447107976585" lon="7.915192354757807"><ele>833.6</ele><time>2026-05-03T08:44:31.999Z</time></trkpt><trkpt lat="44.28036167967763" lon="7.9151982092919635"><ele>838.8000000000001</ele><time>2026-05-03T08:44:32.999Z</time></trkpt><trkpt lat="44.28027520724123" lon="7.915200228068031"><ele>844.0</ele><time>2026-05-03T08:44:33.999Z</time></trkpt><trkpt lat="44.280185920892286" lon="7.915200211753431"><ele>843.9999999999999</ele><time>2026-05-03T08:44:34.999Z</time></trkpt><trkpt lat="44.28009085134167" lon="7.9152011876145885"><ele>844.0</ele><time>2026-05-03T08:44:35.999Z</time></trkpt><trkpt lat="44.28001208613097" lon="7.915211180101976"><ele>844.0</ele><time>2026-05-03T08:44:36.999Z</time></trkpt><trkpt lat="44.27993839298324" lon="7.915237743970307"><ele>844.0</ele><time>2026-05-03T08:44:37.999Z</time></trkpt><trkpt lat="44.27985572292594" lon="7.915273406720596"><ele>843.9999999999999</ele><time>2026-05-03T08:44:38.999Z</time></trkpt><trkpt lat="44.27975395055084" lon="7.915335340789739"><ele>844.0</ele><time>2026-05-03T08:44:39.999Z</time></trkpt><trkpt lat="44.2796537149363" lon="7.915396980867087"><ele>843.4000000000001</ele><time>2026-05-03T08:44:40.999Z</time></trkpt><trkpt lat="44.27955186717783" lon="7.915459852809079"><ele>842.8</ele><time>2026-05-03T08:44:41.999Z</time></trkpt><trkpt lat="44.27945936440547" lon="7.915538218241342"><ele>842.2</ele><time>2026-05-03T08:44:42.999Z</time></trkpt><trkpt lat="44.2793641544569" lon="7.915627992847775"><ele>841.5999999999999</ele><time>2026-05-03T08:44:43.999Z</time></trkpt><trkpt lat="44.27926368857011" lon="7.915694574252389"><ele>841.0</ele><time>2026-05-03T08:44:44.999Z</time></trkpt><trkpt lat="44.27919111482224" lon="7.915750073171091"><ele>841.0</ele><time>2026-05-03T08:44:45.999Z</time></trkpt><trkpt lat="44.27904212812511" lon="7.915817363755554"><ele>841.0</ele><time>2026-05-03T08:44:47.999Z</time></trkpt><trkpt lat="44.27895040699915" lon="7.915793228958912"><ele>841.0</ele><time>2026-05-03T08:44:48.999Z</time></trkpt><trkpt lat="44.27889843282443" lon="7.915680060474503"><ele>841.0</ele><time>2026-05-03T08:44:49.999Z</time></trkpt><trkpt lat="44.27877564590351" lon="7.915691985346989"><ele>839.5999999999999</ele><time>2026-05-03T08:44:51.999Z</time></trkpt><trkpt lat="44.278700718710354" lon="7.91575576659419"><ele>838.2</ele><time>2026-05-03T08:44:52.999Z</time></trkpt><trkpt lat="44.278607604854486" lon="7.915824192710116"><ele>836.8</ele><time>2026-05-03T08:44:53.999Z</time></trkpt><trkpt lat="44.27857450806161" lon="7.91594563985767"><ele>835.4000000000001</ele><time>2026-05-03T08:44:54.999Z</time></trkpt><trkpt lat="44.27851372285684" lon="7.9160283133344125"><ele>834.0</ele><time>2026-05-03T08:44:55.999Z</time></trkpt><trkpt lat="44.27846436827028" lon="7.916153309792726"><ele>839.5</ele><time>2026-05-03T08:44:56.999Z</time></trkpt><trkpt lat="44.27840523287858" lon="7.916260868657534"><ele>845.0</ele><time>2026-05-03T08:44:57.999Z</time></trkpt><trkpt lat="44.27831308904535" lon="7.916436686594454"><ele>850.5</ele><time>2026-05-03T08:44:58.999Z</time></trkpt><trkpt lat="44.27823406464669" lon="7.916574746890225"><ele>856.0</ele><time>2026-05-03T08:44:59.999Z</time></trkpt><trkpt lat="44.27813167294904" lon="7.916668624013634"><ele>854.8333333333333</ele><time>2026-05-03T08:45:00.999Z</time></trkpt><trkpt lat="44.278073144710014" lon="7.916729899610048"><ele>853.6666666666666</ele><time>2026-05-03T08:45:01.999Z</time></trkpt><trkpt lat="44.27800700247681" lon="7.91680717404982"><ele>852.5</ele><time>2026-05-03T08:45:02.999Z</time></trkpt><trkpt lat="44.27794387239046" lon="7.916848512444557"><ele>851.3333333333333</ele><time>2026-05-03T08:45:03.999Z</time></trkpt><trkpt lat="44.27788484962647" lon="7.916895660832364"><ele>850.1666666666666</ele><time>2026-05-03T08:45:04.999Z</time></trkpt><trkpt lat="44.27780187466589" lon="7.916961526165732"><ele>849.0</ele><time>2026-05-03T08:45:06.999Z</time></trkpt><trkpt lat="44.27777942710882" lon="7.917083741958667"><ele>851.8000000000001</ele><time>2026-05-03T08:45:08.999Z</time></trkpt><trkpt lat="44.277897671087366" lon="7.9171766914576835"><ele>854.6</ele><time>2026-05-03T08:45:10.999Z</time></trkpt><trkpt lat="44.277984740460624" lon="7.917113446813084"><ele>857.4</ele><time>2026-05-03T08:45:11.999Z</time></trkpt><trkpt lat="44.27805713505561" lon="7.917063189201869"><ele>860.2</ele><time>2026-05-03T08:45:12.999Z</time></trkpt><trkpt lat="44.27813207911004" lon="7.917015925747961"><ele>863.0</ele><time>2026-05-03T08:45:13.999Z</time></trkpt><trkpt lat="44.27821849700715" lon="7.916948426164055"><ele>861.5999999999999</ele><time>2026-05-03T08:45:14.999Z</time></trkpt><trkpt lat="44.27832533952056" lon="7.916872918829307"><ele>860.1999999999999</ele><time>2026-05-03T08:45:15.999Z</time></trkpt><trkpt lat="44.2784144461198" lon="7.916804045555908"><ele>858.8</ele><time>2026-05-03T08:45:16.999Z</time></trkpt><trkpt lat="44.278516655476324" lon="7.916734835741723"><ele>857.4</ele><time>2026-05-03T08:45:17.999Z</time></trkpt><trkpt lat="44.2786085002367" lon="7.916681561226547"><ele>856.0</ele><time>2026-05-03T08:45:18.999Z</time></trkpt><trkpt lat="44.278678926304785" lon="7.916643240753825"><ele>856.0</ele><time>2026-05-03T08:45:19.999Z</time></trkpt><trkpt lat="44.278773784154566" lon="7.916619916329005"><ele>855.9999999999999</ele><time>2026-05-03T08:45:21.999Z</time></trkpt><trkpt lat="44.27888380276273" lon="7.9166613285279315"><ele>855.9999999999999</ele><time>2026-05-03T08:45:23.999Z</time></trkpt><trkpt lat="44.27893220025589" lon="7.916816896258837"><ele>856.0</ele><time>2026-05-03T08:45:25.999Z</time></trkpt><trkpt lat="44.278979494629695" lon="7.916923136401339"><ele>856.0</ele><time>2026-05-03T08:45:26.999Z</time></trkpt><trkpt lat="44.27904174039095" lon="7.917005756106189"><ele>861.8</ele><time>2026-05-03T08:45:27.999Z</time></trkpt><trkpt lat="44.27913398729717" lon="7.917089210672707"><ele>867.5999999999999</ele><time>2026-05-03T08:45:28.998Z</time></trkpt><trkpt lat="44.27922084906755" lon="7.917141691109943"><ele>873.4</ele><time>2026-05-03T08:45:29.998Z</time></trkpt><trkpt lat="44.27930936525617" lon="7.917161600017841"><ele>879.2</ele><time>2026-05-03T08:45:30.998Z</time></trkpt><trkpt lat="44.27941737400951" lon="7.917157242932954"><ele>885.0</ele><time>2026-05-03T08:45:31.998Z</time></trkpt><trkpt lat="44.2795333686612" lon="7.917132977273901"><ele>885.0</ele><time>2026-05-03T08:45:32.998Z</time></trkpt><trkpt lat="44.279625459745674" lon="7.917124443275235"><ele>885.0</ele><time>2026-05-03T08:45:33.998Z</time></trkpt><trkpt lat="44.27974984405492" lon="7.917127028887956"><ele>885.0</ele><time>2026-05-03T08:45:35.998Z</time></trkpt><trkpt lat="44.27979234059353" lon="7.917217477451172"><ele>885.0</ele><time>2026-05-03T08:45:39.998Z</time></trkpt><trkpt lat="44.27975727867274" lon="7.917353264642583"><ele>885.0</ele><time>2026-05-03T08:45:41.998Z</time></trkpt><trkpt lat="44.27972428635325" lon="7.917494557230583"><ele>886.3333333333334</ele><time>2026-05-03T08:45:43.998Z</time></trkpt><trkpt lat="44.2797011470086" lon="7.917608682029135"><ele>887.6666666666667</ele><time>2026-05-03T08:45:44.998Z</time></trkpt><trkpt lat="44.27967014450624" lon="7.917710293272574"><ele>889.0</ele><time>2026-05-03T08:45:45.998Z</time></trkpt><trkpt lat="44.27962212684519" lon="7.917813413687572"><ele>890.3333333333334</ele><time>2026-05-03T08:45:46.998Z</time></trkpt><trkpt lat="44.27958493603769" lon="7.9179166395243055"><ele>891.6666666666667</ele><time>2026-05-03T08:45:47.998Z</time></trkpt><trkpt lat="44.27954065427897" lon="7.918034052195619"><ele>893.0</ele><time>2026-05-03T08:45:49Z</time></trkpt><trkpt lat="44.27950939081847" lon="7.918138961525607"><ele>893.0000000000001</ele><time>2026-05-03T08:45:50Z</time></trkpt><trkpt lat="44.27948197642872" lon="7.9182559847051825"><ele>893.0</ele><time>2026-05-03T08:45:51Z</time></trkpt><trkpt lat="44.279454417066596" lon="7.918391226756689"><ele>893.0</ele><time>2026-05-03T08:45:52Z</time></trkpt><trkpt lat="44.2794340280614" lon="7.918496805579478"><ele>893.0</ele><time>2026-05-03T08:45:53Z</time></trkpt><trkpt lat="44.27941404722867" lon="7.91860415176487"><ele>893.0000000000001</ele><time>2026-05-03T08:45:54Z</time></trkpt><trkpt lat="44.27939565936151" lon="7.9187046750862295"><ele>893.0</ele><time>2026-05-03T08:45:55Z</time></trkpt><trkpt lat="44.27936937960789" lon="7.91884263512786"><ele>894.0000000000001</ele><time>2026-05-03T08:45:56Z</time></trkpt><trkpt lat="44.27932716048684" lon="7.9189713148401735"><ele>895.0</ele><time>2026-05-03T08:45:57Z</time></trkpt><trkpt lat="44.27927374226244" lon="7.919037394769901"><ele>896.0</ele><time>2026-05-03T08:45:58Z</time></trkpt><trkpt lat="44.279227768041466" lon="7.919150697494585"><ele>897.0</ele><time>2026-05-03T08:45:59Z</time></trkpt><trkpt lat="44.279199216767324" lon="7.919255592096824"><ele>898.0000000000001</ele><time>2026-05-03T08:46:00Z</time></trkpt><trkpt lat="44.27918233566987" lon="7.919379337199728"><ele>899.0</ele><time>2026-05-03T08:46:01Z</time></trkpt><trkpt lat="44.2791833606093" lon="7.919515053729788"><ele>899.8333333333334</ele><time>2026-05-03T08:46:02Z</time></trkpt><trkpt lat="44.27917230952227" lon="7.919629983735816"><ele>900.6666666666667</ele><time>2026-05-03T08:46:03Z</time></trkpt><trkpt lat="44.279139982382254" lon="7.919739164199902"><ele>901.5</ele><time>2026-05-03T08:46:04Z</time></trkpt><trkpt lat="44.27911346896464" lon="7.919843216248976"><ele>902.3333333333333</ele><time>2026-05-03T08:46:05Z</time></trkpt><trkpt lat="44.27908278212313" lon="7.9199523926316004"><ele>903.1666666666666</ele><time>2026-05-03T08:46:06Z</time></trkpt><trkpt lat="44.27905233797804" lon="7.920043337382448"><ele>904.0</ele><time>2026-05-03T08:46:07Z</time></trkpt><trkpt lat="44.279017929660036" lon="7.920145021070247"><ele>903.9999999999999</ele><time>2026-05-03T08:46:08Z</time></trkpt><trkpt lat="44.27898040002971" lon="7.920261408152258"><ele>904.0</ele><time>2026-05-03T08:46:09Z</time></trkpt><trkpt lat="44.278962481215416" lon="7.920387537260035"><ele>904.0</ele><time>2026-05-03T08:46:10Z</time></trkpt><trkpt lat="44.27893922949791" lon="7.92048879973893"><ele>904.0</ele><time>2026-05-03T08:46:11Z</time></trkpt><trkpt lat="44.278929165495036" lon="7.920599588075861"><ele>903.9999999999999</ele><time>2026-05-03T08:46:12Z</time></trkpt><trkpt lat="44.27889657839997" lon="7.920695592743241"><ele>904.0</ele><time>2026-05-03T08:46:13Z</time></trkpt><trkpt lat="44.27887985572345" lon="7.920790192678321"><ele>909.6</ele><time>2026-05-03T08:46:14Z</time></trkpt><trkpt lat="44.27885841275952" lon="7.9208852297703745"><ele>915.2</ele><time>2026-05-03T08:46:15Z</time></trkpt><trkpt lat="44.278736043612746" lon="7.921049030763725"><ele>920.8000000000001</ele><time>2026-05-03T08:46:17Z</time></trkpt><trkpt lat="44.27865274099118" lon="7.92113784785148"><ele>926.4000000000001</ele><time>2026-05-03T08:46:18Z</time></trkpt><trkpt lat="44.278601057404714" lon="7.921196851324955"><ele>932.0</ele><time>2026-05-03T08:46:19Z</time></trkpt><trkpt lat="44.27854168759702" lon="7.9213015325518645"><ele>932.0</ele><time>2026-05-03T08:46:20Z</time></trkpt><trkpt lat="44.27847622818512" lon="7.9213552514211285"><ele>932.0</ele><time>2026-05-03T08:46:21Z</time></trkpt><trkpt lat="44.278422665198256" lon="7.921438748977099"><ele>932.0</ele><time>2026-05-03T08:46:22Z</time></trkpt><trkpt lat="44.278393746662175" lon="7.921558366532681"><ele>932.0</ele><time>2026-05-03T08:46:23Z</time></trkpt><trkpt lat="44.27837754239276" lon="7.921685713817275"><ele>932.0</ele><time>2026-05-03T08:46:24Z</time></trkpt><trkpt lat="44.278367387121975" lon="7.921872122694585"><ele>932.5000000000001</ele><time>2026-05-03T08:46:25Z</time></trkpt><trkpt lat="44.27834529080849" lon="7.9220530921354895"><ele>933.0</ele><time>2026-05-03T08:46:27Z</time></trkpt><trkpt lat="44.27831421077189" lon="7.922143351007186"><ele>933.5</ele><time>2026-05-03T08:46:28Z</time></trkpt><trkpt lat="44.27825750361809" lon="7.922221877664488"><ele>934.0</ele><time>2026-05-03T08:46:29Z</time></trkpt><trkpt lat="44.278218631513404" lon="7.922325019492953"><ele>934.5000000000001</ele><time>2026-05-03T08:46:30Z</time></trkpt><trkpt lat="44.27820190137896" lon="7.92241013218138"><ele>935.0</ele><time>2026-05-03T08:46:31Z</time></trkpt><trkpt lat="44.278223614990935" lon="7.922582314747994"><ele>936.4</ele><time>2026-05-03T08:46:32.999Z</time></trkpt><trkpt lat="44.27828954920201" lon="7.9226991309134185"><ele>937.8</ele><time>2026-05-03T08:46:33.999Z</time></trkpt><trkpt lat="44.2783191086573" lon="7.922811088041021"><ele>939.2</ele><time>2026-05-03T08:46:34.999Z</time></trkpt><trkpt lat="44.278348726581676" lon="7.922928179116153"><ele>940.6</ele><time>2026-05-03T08:46:35.999Z</time></trkpt><trkpt lat="44.278347547908275" lon="7.923045665029642"><ele>942.0</ele><time>2026-05-03T08:46:36.999Z</time></trkpt><trkpt lat="44.27837755081426" lon="7.92320156349824"><ele>942.0</ele><time>2026-05-03T08:46:38.999Z</time></trkpt><trkpt lat="44.27841657827684" lon="7.923287462631838"><ele>942.0</ele><time>2026-05-03T08:46:39.999Z</time></trkpt><trkpt lat="44.27846985213588" lon="7.92335630601028"><ele>942.0</ele><time>2026-05-03T08:46:40.999Z</time></trkpt><trkpt lat="44.27854894399594" lon="7.9234102119859875"><ele>942.0</ele><time>2026-05-03T08:46:41.999Z</time></trkpt><trkpt lat="44.27860194004445" lon="7.923461267077628"><ele>942.0</ele><time>2026-05-03T08:46:42.999Z</time></trkpt><trkpt lat="44.278661031374696" lon="7.923501799325999"><ele>942.0</ele><time>2026-05-03T08:46:43.999Z</time></trkpt><trkpt lat="44.27873731260869" lon="7.923568366194271"><ele>943.3333333333334</ele><time>2026-05-03T08:46:44.999Z</time></trkpt><trkpt lat="44.27882981426257" lon="7.923593909984848"><ele>944.6666666666667</ele><time>2026-05-03T08:46:45.999Z</time></trkpt><trkpt lat="44.27889303362768" lon="7.923639002615766"><ele>946.0</ele><time>2026-05-03T08:46:46.999Z</time></trkpt><trkpt lat="44.278956980444185" lon="7.923686129585093"><ele>947.3333333333334</ele><time>2026-05-03T08:46:47.999Z</time></trkpt><trkpt lat="44.27900821532909" lon="7.923761406942494"><ele>948.6666666666667</ele><time>2026-05-03T08:46:48.999Z</time></trkpt><trkpt lat="44.27905554558509" lon="7.92384000037228"><ele>950.0</ele><time>2026-05-03T08:46:49.999Z</time></trkpt><trkpt lat="44.27910207912984" lon="7.92396939896534"><ele>950.2</ele><time>2026-05-03T08:46:50.999Z</time></trkpt><trkpt lat="44.27914537875426" lon="7.924100963345346"><ele>950.4</ele><time>2026-05-03T08:46:51.999Z</time></trkpt><trkpt lat="44.27919035913209" lon="7.924219901525691"><ele>950.5999999999999</ele><time>2026-05-03T08:46:52.999Z</time></trkpt><trkpt lat="44.27923389463109" lon="7.924320490644044"><ele>950.8</ele><time>2026-05-03T08:46:53.999Z</time></trkpt><trkpt lat="44.279296262646426" lon="7.924494526017149"><ele>951.0</ele><time>2026-05-03T08:46:55.999Z</time></trkpt><trkpt lat="44.2792991012509" lon="7.9246016528314955"><ele>951.0</ele><time>2026-05-03T08:46:56.999Z</time></trkpt><trkpt lat="44.27930499171647" lon="7.924692765814862"><ele>950.9999999999999</ele><time>2026-05-03T08:46:57.999Z</time></trkpt><trkpt lat="44.27934081100273" lon="7.924884747181481"><ele>950.9999999999999</ele><time>2026-05-03T08:46:59.999Z</time></trkpt><trkpt lat="44.27939717864696" lon="7.924993050330767"><ele>951.0</ele><time>2026-05-03T08:47:00.999Z</time></trkpt><trkpt lat="44.279464936206836" lon="7.92508217886334"><ele>951.0</ele><time>2026-05-03T08:47:01.999Z</time></trkpt><trkpt lat="44.27953634175515" lon="7.925142489787976"><ele>949.6666666666666</ele><time>2026-05-03T08:47:02.999Z</time></trkpt><trkpt lat="44.279609870583464" lon="7.925152199832474"><ele>948.3333333333333</ele><time>2026-05-03T08:47:03.999Z</time></trkpt><trkpt lat="44.279668613080354" lon="7.925205366701274"><ele>947.0</ele><time>2026-05-03T08:47:04.999Z</time></trkpt><trkpt lat="44.27973035445497" lon="7.92528085538059"><ele>945.6666666666666</ele><time>2026-05-03T08:47:05.999Z</time></trkpt><trkpt lat="44.27977202489821" lon="7.925384225196223"><ele>944.3333333333333</ele><time>2026-05-03T08:47:06.999Z</time></trkpt><trkpt lat="44.279808483378105" lon="7.925520784545569"><ele>943.0</ele><time>2026-05-03T08:47:07.999Z</time></trkpt><trkpt lat="44.27984671729487" lon="7.925654666604682"><ele>943.0</ele><time>2026-05-03T08:47:08.999Z</time></trkpt><trkpt lat="44.27987450975426" lon="7.925769087637702"><ele>943.0</ele><time>2026-05-03T08:47:09.999Z</time></trkpt><trkpt lat="44.27988673080817" lon="7.925863676182563"><ele>943.0</ele><time>2026-05-03T08:47:10.999Z</time></trkpt><trkpt lat="44.27990741806632" lon="7.926023603185127"><ele>943.0</ele><time>2026-05-03T08:47:12.999Z</time></trkpt><trkpt lat="44.27992277749976" lon="7.92614066195249"><ele>943.0</ele><time>2026-05-03T08:47:14.999Z</time></trkpt><trkpt lat="44.27996272354757" lon="7.926292852611364"><ele>947.3333333333333</ele><time>2026-05-03T08:47:16.999Z</time></trkpt><trkpt lat="44.280001970325756" lon="7.926364309091937"><ele>951.6666666666666</ele><time>2026-05-03T08:47:17.999Z</time></trkpt><trkpt lat="44.28006588738497" lon="7.926422004825313"><ele>956.0</ele><time>2026-05-03T08:47:18.999Z</time></trkpt><trkpt lat="44.280124015318336" lon="7.926493310647541"><ele>960.3333333333333</ele><time>2026-05-03T08:47:19.999Z</time></trkpt><trkpt lat="44.28019427507431" lon="7.9265240034191065"><ele>964.6666666666666</ele><time>2026-05-03T08:47:20.999Z</time></trkpt><trkpt lat="44.280264574544866" lon="7.926583966572674"><ele>969.0</ele><time>2026-05-03T08:47:21.999Z</time></trkpt><trkpt lat="44.280355406893946" lon="7.926629979224306"><ele>969.0</ele><time>2026-05-03T08:47:22.999Z</time></trkpt><trkpt lat="44.28043897196919" lon="7.926695424100582"><ele>969.0000000000001</ele><time>2026-05-03T08:47:23.999Z</time></trkpt><trkpt lat="44.28052224153442" lon="7.926746414178715"><ele>969.0000000000001</ele><time>2026-05-03T08:47:24.999Z</time></trkpt><trkpt lat="44.28062018366455" lon="7.926774124446927"><ele>969.0</ele><time>2026-05-03T08:47:25.999Z</time></trkpt><trkpt lat="44.28071767804493" lon="7.926779323746316"><ele>969.0</ele><time>2026-05-03T08:47:26.999Z</time></trkpt><trkpt lat="44.280819096724024" lon="7.926748213699225"><ele>969.6</ele><time>2026-05-03T08:47:27.999Z</time></trkpt><trkpt lat="44.28089745037739" lon="7.926742346116119"><ele>970.2</ele><time>2026-05-03T08:47:28.999Z</time></trkpt><trkpt lat="44.28101862334601" lon="7.926839468463922"><ele>970.8000000000001</ele><time>2026-05-03T08:47:30.998Z</time></trkpt><trkpt lat="44.28107268111476" lon="7.926923269566292"><ele>971.4000000000001</ele><time>2026-05-03T08:47:31.998Z</time></trkpt><trkpt lat="44.28111895269532" lon="7.927005744414805"><ele>972.0</ele><time>2026-05-03T08:47:32.998Z</time></trkpt><trkpt lat="44.281175037366644" lon="7.927118909789555"><ele>972.0</ele><time>2026-05-03T08:47:34.998Z</time></trkpt><trkpt lat="44.28119651386165" lon="7.927268813156313"><ele>972.0</ele><time>2026-05-03T08:47:36.998Z</time></trkpt><trkpt lat="44.28112000740905" lon="7.927375691454956"><ele>972.0</ele><time>2026-05-03T08:47:38.998Z</time></trkpt><trkpt lat="44.281081312132436" lon="7.927446439755032"><ele>972.0</ele><time>2026-05-03T08:47:39.998Z</time></trkpt><trkpt lat="44.28102600205753" lon="7.927518549257474"><ele>972.0</ele><time>2026-05-03T08:47:40.998Z</time></trkpt><trkpt lat="44.28098448982524" lon="7.927621409506242"><ele>972.0</ele><time>2026-05-03T08:47:41.998Z</time></trkpt><trkpt lat="44.28094310745486" lon="7.927689404227295"><ele>973.2</ele><time>2026-05-03T08:47:42.998Z</time></trkpt><trkpt lat="44.28088468719206" lon="7.927760509375495"><ele>974.4000000000001</ele><time>2026-05-03T08:47:43.998Z</time></trkpt><trkpt lat="44.28084021414167" lon="7.927862297506529"><ele>975.5999999999999</ele><time>2026-05-03T08:47:44.998Z</time></trkpt><trkpt lat="44.28080657904781" lon="7.927974825295043"><ele>976.8</ele><time>2026-05-03T08:47:45.998Z</time></trkpt><trkpt lat="44.28080320061891" lon="7.928149253286478"><ele>978.0</ele><time>2026-05-03T08:47:46.998Z</time></trkpt><trkpt lat="44.28083288553833" lon="7.928299455271586"><ele>980.2</ele><time>2026-05-03T08:47:47.998Z</time></trkpt><trkpt lat="44.280841790245844" lon="7.928429697746818"><ele>982.4</ele><time>2026-05-03T08:47:48.998Z</time></trkpt><trkpt lat="44.28086602454503" lon="7.928561600782102"><ele>984.6000000000001</ele><time>2026-05-03T08:47:49.998Z</time></trkpt><trkpt lat="44.28088409527751" lon="7.928701348466987"><ele>986.8000000000001</ele><time>2026-05-03T08:47:50.998Z</time></trkpt><trkpt lat="44.28092473038104" lon="7.92884522867565"><ele>989.0</ele><time>2026-05-03T08:47:51.998Z</time></trkpt><trkpt lat="44.28097860277582" lon="7.928996044435475"><ele>989.0</ele><time>2026-05-03T08:47:52.998Z</time></trkpt><trkpt lat="44.28103705746537" lon="7.929135315287096"><ele>989.0</ele><time>2026-05-03T08:47:53.998Z</time></trkpt><trkpt lat="44.28109436780761" lon="7.929269696183291"><ele>989.0</ele><time>2026-05-03T08:47:55Z</time></trkpt><trkpt lat="44.281162080278705" lon="7.9294072881233495"><ele>989.0</ele><time>2026-05-03T08:47:56Z</time></trkpt><trkpt lat="44.28124191754713" lon="7.929515274826673"><ele>987.6666666666667</ele><time>2026-05-03T08:47:57Z</time></trkpt><trkpt lat="44.281290199198274" lon="7.929602721818479"><ele>986.3333333333334</ele><time>2026-05-03T08:47:58Z</time></trkpt><trkpt lat="44.28133081192293" lon="7.929715610437699"><ele>985.0</ele><time>2026-05-03T08:47:59Z</time></trkpt><trkpt lat="44.28137611496278" lon="7.929792116038969"><ele>983.6666666666667</ele><time>2026-05-03T08:48:00Z</time></trkpt><trkpt lat="44.28141368612938" lon="7.929866769018151"><ele>982.3333333333334</ele><time>2026-05-03T08:48:01Z</time></trkpt><trkpt lat="44.281461032999076" lon="7.9300506558636314"><ele>981.0</ele><time>2026-05-03T08:48:03Z</time></trkpt><trkpt lat="44.281457704968005" lon="7.930153735827002"><ele>981.0</ele><time>2026-05-03T08:48:04Z</time></trkpt><trkpt lat="44.28142528434293" lon="7.930284206039728"><ele>980.9999999999999</ele><time>2026-05-03T08:48:06Z</time></trkpt><trkpt lat="44.28147258631314" lon="7.930360792326882"><ele>980.9999999999999</ele><time>2026-05-03T08:48:07Z</time></trkpt><trkpt lat="44.28139745839122" lon="7.930546738040725"><ele>981.0</ele><time>2026-05-03T08:48:09Z</time></trkpt><trkpt lat="44.2813889600126" lon="7.930659287764609"><ele>981.0</ele><time>2026-05-03T08:48:10Z</time></trkpt><trkpt lat="44.28138062711483" lon="7.930791678429218"><ele>988.4</ele><time>2026-05-03T08:48:11Z</time></trkpt><trkpt lat="44.28136376612786" lon="7.930920154689048"><ele>995.8</ele><time>2026-05-03T08:48:12Z</time></trkpt><trkpt lat="44.28133982591822" lon="7.93105799697972"><ele>1003.1999999999999</ele><time>2026-05-03T08:48:13Z</time></trkpt><trkpt lat="44.28131255914254" lon="7.931197760231875"><ele>1010.5999999999999</ele><time>2026-05-03T08:48:14Z</time></trkpt><trkpt lat="44.28127659808041" lon="7.931339170568593"><ele>1018.0</ele><time>2026-05-03T08:48:15Z</time></trkpt><trkpt lat="44.28124117114151" lon="7.931455691077347"><ele>1018.0</ele><time>2026-05-03T08:48:16Z</time></trkpt><trkpt lat="44.28121553821408" lon="7.931586279608607"><ele>1018.0</ele><time>2026-05-03T08:48:17Z</time></trkpt><trkpt lat="44.281200534518305" lon="7.931727941889121"><ele>1018.0</ele><time>2026-05-03T08:48:18Z</time></trkpt><trkpt lat="44.2811928924527" lon="7.931868589087835"><ele>1018.0</ele><time>2026-05-03T08:48:19Z</time></trkpt><trkpt lat="44.28119768596636" lon="7.93202439472325"><ele>1018.0</ele><time>2026-05-03T08:48:20Z</time></trkpt><trkpt lat="44.28118186542455" lon="7.932162766826512"><ele>1017.4999999999999</ele><time>2026-05-03T08:48:21Z</time></trkpt><trkpt lat="44.28116743756346" lon="7.932286268127909"><ele>1017.0</ele><time>2026-05-03T08:48:22Z</time></trkpt><trkpt lat="44.281156430781856" lon="7.932403698055642"><ele>1016.5</ele><time>2026-05-03T08:48:23Z</time></trkpt><trkpt lat="44.28114294989497" lon="7.9325386272129155"><ele>1016.0</ele><time>2026-05-03T08:48:24Z</time></trkpt><trkpt lat="44.28113397521722" lon="7.932650311342524"><ele>1015.4999999999999</ele><time>2026-05-03T08:48:25Z</time></trkpt><trkpt lat="44.2811300718655" lon="7.932763976728949"><ele>1015.0</ele><time>2026-05-03T08:48:26Z</time></trkpt><trkpt lat="44.28112986247268" lon="7.93285961159379"><ele>1014.8</ele><time>2026-05-03T08:48:27Z</time></trkpt><trkpt lat="44.281136849490316" lon="7.933022358440025"><ele>1014.6</ele><time>2026-05-03T08:48:29Z</time></trkpt><trkpt lat="44.281136870491366" lon="7.933178317897279"><ele>1014.4000000000001</ele><time>2026-05-03T08:48:31Z</time></trkpt><trkpt lat="44.28109298951504" lon="7.93330431786584"><ele>1014.2</ele><time>2026-05-03T08:48:33Z</time></trkpt><trkpt lat="44.281055565241886" lon="7.933419332682939"><ele>1014.0</ele><time>2026-05-03T08:48:35Z</time></trkpt><trkpt lat="44.28097204962008" lon="7.933548599975898"><ele>1014.0</ele><time>2026-05-03T08:48:37Z</time></trkpt><trkpt lat="44.28090618193793" lon="7.93367876083838"><ele>1014.0000000000001</ele><time>2026-05-03T08:48:38.999Z</time></trkpt><trkpt lat="44.28089731356143" lon="7.933772289118162"><ele>1014.0000000000001</ele><time>2026-05-03T08:48:39.999Z</time></trkpt><trkpt lat="44.280894063637604" lon="7.933911242965753"><ele>1014.0</ele><time>2026-05-03T08:48:40.999Z</time></trkpt><trkpt lat="44.28090077716522" lon="7.934037478738199"><ele>1014.0</ele><time>2026-05-03T08:48:41.999Z</time></trkpt><trkpt lat="44.28090614709114" lon="7.934160356338256"><ele>1015.3333333333334</ele><time>2026-05-03T08:48:42.999Z</time></trkpt><trkpt lat="44.280920884708735" lon="7.934281694234116"><ele>1016.6666666666667</ele><time>2026-05-03T08:48:43.999Z</time></trkpt><trkpt lat="44.28091624931623" lon="7.934414831960953"><ele>1018.0</ele><time>2026-05-03T08:48:44.999Z</time></trkpt><trkpt lat="44.28091812080212" lon="7.934531654726177"><ele>1019.3333333333334</ele><time>2026-05-03T08:48:45.999Z</time></trkpt><trkpt lat="44.2809308422863" lon="7.934621060638115"><ele>1020.6666666666667</ele><time>2026-05-03T08:48:46.999Z</time></trkpt><trkpt lat="44.28093958627431" lon="7.934722758982386"><ele>1022.0</ele><time>2026-05-03T08:48:47.999Z</time></trkpt><trkpt lat="44.28095368338066" lon="7.934822536680937"><ele>1022.0000000000001</ele><time>2026-05-03T08:48:48.999Z</time></trkpt><trkpt lat="44.28099526754038" lon="7.934914447278118"><ele>1022.0</ele><time>2026-05-03T08:48:49.999Z</time></trkpt><trkpt lat="44.281033456752084" lon="7.935014667939737"><ele>1022.0</ele><time>2026-05-03T08:48:50.999Z</time></trkpt><trkpt lat="44.281093144999204" lon="7.935106064999378"><ele>1022.0</ele><time>2026-05-03T08:48:51.999Z</time></trkpt><trkpt lat="44.28115400480223" lon="7.935181946276402"><ele>1022.0000000000001</ele><time>2026-05-03T08:48:52.999Z</time></trkpt><trkpt lat="44.28122747815656" lon="7.9352188045898915"><ele>1022.0</ele><time>2026-05-03T08:48:53.999Z</time></trkpt><trkpt lat="44.281300031244335" lon="7.935297330257275"><ele>1024.0</ele><time>2026-05-03T08:48:54.999Z</time></trkpt><trkpt lat="44.28136622974366" lon="7.935396620485218"><ele>1026.0</ele><time>2026-05-03T08:48:55.999Z</time></trkpt><trkpt lat="44.28142910942479" lon="7.935478972726903"><ele>1028.0</ele><time>2026-05-03T08:48:56.999Z</time></trkpt><trkpt lat="44.28148438924429" lon="7.93555322734524"><ele>1030.0</ele><time>2026-05-03T08:48:57.999Z</time></trkpt><trkpt lat="44.28154246136818" lon="7.935630759367851"><ele>1032.0</ele><time>2026-05-03T08:48:58.999Z</time></trkpt><trkpt lat="44.28159330128278" lon="7.9357065987280775"><ele>1034.0</ele><time>2026-05-03T08:48:59.999Z</time></trkpt><trkpt lat="44.28164966939743" lon="7.935748546098772"><ele>1029.8</ele><time>2026-05-03T08:49:00.999Z</time></trkpt><trkpt lat="44.28170428672305" lon="7.935826576857463"><ele>1025.6000000000001</ele><time>2026-05-03T08:49:01.999Z</time></trkpt><trkpt lat="44.28181302556052" lon="7.935870775211826"><ele>1021.4</ele><time>2026-05-03T08:49:03.999Z</time></trkpt><trkpt lat="44.28187149781195" lon="7.935907369659371"><ele>1017.2</ele><time>2026-05-03T08:49:04.999Z</time></trkpt><trkpt lat="44.28193848091714" lon="7.935984901814373"><ele>1013.0</ele><time>2026-05-03T08:49:06.999Z</time></trkpt><trkpt lat="44.281987526424" lon="7.936120480706888"><ele>1013.0000000000001</ele><time>2026-05-03T08:49:08.999Z</time></trkpt><trkpt lat="44.28199439579875" lon="7.936240900858083"><ele>1013.0</ele><time>2026-05-03T08:49:09.999Z</time></trkpt><trkpt lat="44.2819905268745" lon="7.936387618747462"><ele>1013.0</ele><time>2026-05-03T08:49:10.999Z</time></trkpt><trkpt lat="44.281999107743864" lon="7.936496024941431"><ele>1013.0</ele><time>2026-05-03T08:49:11.999Z</time></trkpt><trkpt lat="44.28200647804241" lon="7.936603398670611"><ele>1013.0000000000001</ele><time>2026-05-03T08:49:12.999Z</time></trkpt><trkpt lat="44.28201143941467" lon="7.936735409787495"><ele>1013.0</ele><time>2026-05-03T08:49:13.999Z</time></trkpt><trkpt lat="44.28202088555381" lon="7.93687482046712"><ele>1010.3333333333334</ele><time>2026-05-03T08:49:14.999Z</time></trkpt><trkpt lat="44.282004512625804" lon="7.936992810698753"><ele>1007.6666666666667</ele><time>2026-05-03T08:49:15.999Z</time></trkpt><trkpt lat="44.281993710056256" lon="7.937081471828549"><ele>1005.0</ele><time>2026-05-03T08:49:16.999Z</time></trkpt><trkpt lat="44.2819853999735" lon="7.937222942085416"><ele>1002.3333333333333</ele><time>2026-05-03T08:49:18.999Z</time></trkpt><trkpt lat="44.28193350860822" lon="7.937295507767516"><ele>999.6666666666666</ele><time>2026-05-03T08:49:20.999Z</time></trkpt><trkpt lat="44.28184373316478" lon="7.93724857262337"><ele>997.0</ele><time>2026-05-03T08:49:22.999Z</time></trkpt><trkpt lat="44.28181234531759" lon="7.937158583422679"><ele>996.9999999999999</ele><time>2026-05-03T08:49:23.999Z</time></trkpt><trkpt lat="44.28174534495517" lon="7.937093091643564"><ele>997.0</ele><time>2026-05-03T08:49:24.999Z</time></trkpt><trkpt lat="44.281640101217135" lon="7.937001128181369"><ele>997.0</ele><time>2026-05-03T08:49:26.999Z</time></trkpt><trkpt lat="44.28157182467017" lon="7.93696221094751"><ele>997.0</ele><time>2026-05-03T08:49:27.999Z</time></trkpt><trkpt lat="44.28150458102959" lon="7.936924355352416"><ele>996.9999999999999</ele><time>2026-05-03T08:49:28.999Z</time></trkpt><trkpt lat="44.28143921388972" lon="7.936876509899132"><ele>997.0</ele><time>2026-05-03T08:49:29.999Z</time></trkpt><trkpt lat="44.28134229554415" lon="7.9368598701677024"><ele>996.4999999999999</ele><time>2026-05-03T08:49:30.999Z</time></trkpt><trkpt lat="44.28125224042536" lon="7.9368654061055635"><ele>996.0</ele><time>2026-05-03T08:49:31.999Z</time></trkpt><trkpt lat="44.281170891938636" lon="7.9369102317593"><ele>995.5</ele><time>2026-05-03T08:49:32.999Z</time></trkpt><trkpt lat="44.28108755723568" lon="7.936930892817052"><ele>995.0</ele><time>2026-05-03T08:49:33.999Z</time></trkpt><trkpt lat="44.281020788781895" lon="7.9369608560643385"><ele>994.4999999999999</ele><time>2026-05-03T08:49:34.999Z</time></trkpt><trkpt lat="44.28092982925927" lon="7.937015843278057"><ele>994.0</ele><time>2026-05-03T08:49:35.999Z</time></trkpt><trkpt lat="44.28084416785035" lon="7.937079330495156"><ele>993.9999999999999</ele><time>2026-05-03T08:49:36.998Z</time></trkpt><trkpt lat="44.28077104046986" lon="7.937114601975127"><ele>994.0</ele><time>2026-05-03T08:49:37.998Z</time></trkpt><trkpt lat="44.28068627017637" lon="7.937168447664584"><ele>994.0</ele><time>2026-05-03T08:49:38.998Z</time></trkpt><trkpt lat="44.28061590636054" lon="7.937216707938618"><ele>994.0</ele><time>2026-05-03T08:49:39.998Z</time></trkpt><trkpt lat="44.28054496280612" lon="7.937262584183343"><ele>993.9999999999999</ele><time>2026-05-03T08:49:40.998Z</time></trkpt><trkpt lat="44.28048785057006" lon="7.937303544609113"><ele>994.0</ele><time>2026-05-03T08:49:41.998Z</time></trkpt><trkpt lat="44.28042475303842" lon="7.9373042462679235"><ele>992.4999999999999</ele><time>2026-05-03T08:49:42.998Z</time></trkpt><trkpt lat="44.28036344496273" lon="7.937325693915589"><ele>991.0</ele><time>2026-05-03T08:49:43.998Z</time></trkpt><trkpt lat="44.28029327014423" lon="7.93736262994909"><ele>989.5</ele><time>2026-05-03T08:49:44.998Z</time></trkpt><trkpt lat="44.280207579308765" lon="7.93745554923423"><ele>988.0</ele><time>2026-05-03T08:49:45.998Z</time></trkpt><trkpt lat="44.280172125819206" lon="7.937575089928585"><ele>986.4999999999999</ele><time>2026-05-03T08:49:46.998Z</time></trkpt><trkpt lat="44.28012735401764" lon="7.937666821099586"><ele>985.0</ele><time>2026-05-03T08:49:47.998Z</time></trkpt><trkpt lat="44.28007624354168" lon="7.937727713332789"><ele>984.9999999999999</ele><time>2026-05-03T08:49:48.998Z</time></trkpt><trkpt lat="44.28000977217645" lon="7.93780681002235"><ele>985.0</ele><time>2026-05-03T08:49:49.998Z</time></trkpt><trkpt lat="44.27994447609081" lon="7.937894613972815"><ele>985.0</ele><time>2026-05-03T08:49:50.998Z</time></trkpt><trkpt lat="44.27988827332961" lon="7.937984804569319"><ele>985.0</ele><time>2026-05-03T08:49:51.998Z</time></trkpt><trkpt lat="44.27983866230158" lon="7.938067937926803"><ele>984.9999999999999</ele><time>2026-05-03T08:49:52.998Z</time></trkpt><trkpt lat="44.27978796300333" lon="7.93814366057445"><ele>985.0</ele><time>2026-05-03T08:49:53.998Z</time></trkpt><trkpt lat="44.27971302164839" lon="7.938235777445241"><ele>985.8</ele><time>2026-05-03T08:49:55.998Z</time></trkpt><trkpt lat="44.27961860676287" lon="7.938246316749856"><ele>986.6</ele><time>2026-05-03T08:49:57.998Z</time></trkpt><trkpt lat="44.279552492164925" lon="7.938178558583229"><ele>987.4000000000001</ele><time>2026-05-03T08:49:58.998Z</time></trkpt><trkpt lat="44.27947696741949" lon="7.938176337357017"><ele>988.2</ele><time>2026-05-03T08:49:59.998Z</time></trkpt><trkpt lat="44.27937400337807" lon="7.938131757185907"><ele>989.0</ele><time>2026-05-03T08:50:01Z</time></trkpt><trkpt lat="44.27927694013306" lon="7.9381040151729545"><ele>989.0</ele><time>2026-05-03T08:50:02Z</time></trkpt><trkpt lat="44.27917566567275" lon="7.938103147831145"><ele>989.0000000000001</ele><time>2026-05-03T08:50:03Z</time></trkpt><trkpt lat="44.279094612347876" lon="7.938084362743241"><ele>989.0000000000001</ele><time>2026-05-03T08:50:04Z</time></trkpt><trkpt lat="44.279010338552574" lon="7.938096029653222"><ele>989.0</ele><time>2026-05-03T08:50:05Z</time></trkpt><trkpt lat="44.27888045099629" lon="7.938146086400081"><ele>989.0</ele><time>2026-05-03T08:50:07Z</time></trkpt><trkpt lat="44.27877710133855" lon="7.938174830812067"><ele>990.6</ele><time>2026-05-03T08:50:08Z</time></trkpt><trkpt lat="44.2786530635283" lon="7.938258453906968"><ele>992.2</ele><time>2026-05-03T08:50:09Z</time></trkpt><trkpt lat="44.2785513410296" lon="7.9383257368098175"><ele>993.8000000000001</ele><time>2026-05-03T08:50:10Z</time></trkpt><trkpt lat="44.27845748945539" lon="7.93838826575709"><ele>995.4000000000001</ele><time>2026-05-03T08:50:11Z</time></trkpt><trkpt lat="44.27840450036038" lon="7.938456039240555"><ele>997.0</ele><time>2026-05-03T08:50:12Z</time></trkpt><trkpt lat="44.278337132980894" lon="7.938484532079713"><ele>999.75</ele><time>2026-05-03T08:50:13Z</time></trkpt><trkpt lat="44.2782587099377" lon="7.938538807792061"><ele>1002.5</ele><time>2026-05-03T08:50:14Z</time></trkpt><trkpt lat="44.27815313203334" lon="7.938648740803441"><ele>1005.25</ele><time>2026-05-03T08:50:16Z</time></trkpt><trkpt lat="44.2780591204765" lon="7.938746016341788"><ele>1008.0</ele><time>2026-05-03T08:50:18Z</time></trkpt><trkpt lat="44.27808960757184" lon="7.938926466734957"><ele>1002.6666666666666</ele><time>2026-05-03T08:50:20Z</time></trkpt><trkpt lat="44.278155500040576" lon="7.9390103552334"><ele>997.3333333333333</ele><time>2026-05-03T08:50:21Z</time></trkpt><trkpt lat="44.27821240937232" lon="7.9391051176494045"><ele>992.0</ele><time>2026-05-03T08:50:22Z</time></trkpt><trkpt lat="44.27827205704384" lon="7.939199871085246"><ele>986.6666666666666</ele><time>2026-05-03T08:50:23Z</time></trkpt><trkpt lat="44.27831469517712" lon="7.939276115057705"><ele>981.3333333333333</ele><time>2026-05-03T08:50:24Z</time></trkpt><trkpt lat="44.278331709277765" lon="7.939379478260083"><ele>976.0</ele><time>2026-05-03T08:50:25Z</time></trkpt><trkpt lat="44.27833297689044" lon="7.939491459760964"><ele>974.1666666666666</ele><time>2026-05-03T08:50:27Z</time></trkpt><trkpt lat="44.278302242566404" lon="7.939624300821483"><ele>972.3333333333333</ele><time>2026-05-03T08:50:29Z</time></trkpt><trkpt lat="44.27825084199096" lon="7.939802930744898"><ele>970.5</ele><time>2026-05-03T08:50:31Z</time></trkpt><trkpt lat="44.27819859870831" lon="7.939858244418541"><ele>968.6666666666667</ele><time>2026-05-03T08:50:32Z</time></trkpt><trkpt lat="44.27816944360555" lon="7.939944941709683"><ele>966.8333333333334</ele><time>2026-05-03T08:50:33Z</time></trkpt><trkpt lat="44.27812997522098" lon="7.940013460776962"><ele>965.0</ele><time>2026-05-03T08:50:34Z</time></trkpt><trkpt lat="44.2780833214203" lon="7.940082915285277"><ele>963.7142857142857</ele><time>2026-05-03T08:50:35Z</time></trkpt><trkpt lat="44.278034394554325" lon="7.94014665850017"><ele>962.4285714285716</ele><time>2026-05-03T08:50:36Z</time></trkpt><trkpt lat="44.27797959402699" lon="7.940207646659188"><ele>961.1428571428572</ele><time>2026-05-03T08:50:37Z</time></trkpt><trkpt lat="44.27791267716626" lon="7.940248385001843"><ele>959.8571428571429</ele><time>2026-05-03T08:50:38Z</time></trkpt><trkpt lat="44.27785930138926" lon="7.940306587271988"><ele>958.5714285714287</ele><time>2026-05-03T08:50:39Z</time></trkpt><trkpt lat="44.27780366093799" lon="7.940360281181873"><ele>957.2857142857144</ele><time>2026-05-03T08:50:40Z</time></trkpt><trkpt lat="44.2777348980484" lon="7.940393400842404"><ele>956.0000000000001</ele><time>2026-05-03T08:50:41Z</time></trkpt><trkpt lat="44.277653823579534" lon="7.9404546678450005"><ele>956.0</ele><time>2026-05-03T08:50:42.999Z</time></trkpt><trkpt lat="44.277589035467166" lon="7.940469644488395"><ele>955.9999999999999</ele><time>2026-05-03T08:50:43.999Z</time></trkpt><trkpt lat="44.277473867288634" lon="7.94047469598765"><ele>955.9999999999999</ele><time>2026-05-03T08:50:45.999Z</time></trkpt><trkpt lat="44.27740205153299" lon="7.940473648711829"><ele>956.0</ele><time>2026-05-03T08:50:46.999Z</time></trkpt><trkpt lat="44.27722853523045" lon="7.940453829399906"><ele>956.0</ele><time>2026-05-03T08:50:48.999Z</time></trkpt><trkpt lat="44.277109318900244" lon="7.9404648091766905"><ele>955.8</ele><time>2026-05-03T08:50:49.999Z</time></trkpt><trkpt lat="44.27700584249112" lon="7.940512472997877"><ele>955.5999999999999</ele><time>2026-05-03T08:50:50.999Z</time></trkpt><trkpt lat="44.27692408157619" lon="7.940546457201282"><ele>955.4</ele><time>2026-05-03T08:50:51.999Z</time></trkpt><trkpt lat="44.276828462557106" lon="7.940577559421364"><ele>955.2</ele><time>2026-05-03T08:50:52.999Z</time></trkpt><trkpt lat="44.2767227010763" lon="7.9406144613271685"><ele>955.0</ele><time>2026-05-03T08:50:54.999Z</time></trkpt><trkpt lat="44.276652722932695" lon="7.940591810856709"><ele>954.9999999999999</ele><time>2026-05-03T08:50:55.999Z</time></trkpt><trkpt lat="44.27657060477425" lon="7.9405485664963535"><ele>955.0</ele><time>2026-05-03T08:50:56.999Z</time></trkpt><trkpt lat="44.27649797316158" lon="7.940504455959499"><ele>955.0</ele><time>2026-05-03T08:50:57.999Z</time></trkpt><trkpt lat="44.27641426848631" lon="7.940491723939201"><ele>955.0</ele><time>2026-05-03T08:50:58.999Z</time></trkpt><trkpt lat="44.276344503991076" lon="7.940383769191421"><ele>954.9999999999999</ele><time>2026-05-03T08:50:59.999Z</time></trkpt><trkpt lat="44.27626218064073" lon="7.940366082346535"><ele>955.0</ele><time>2026-05-03T08:51:00.999Z</time></trkpt><trkpt lat="44.27614999793398" lon="7.940376780556141"><ele>956.8</ele><time>2026-05-03T08:51:01.999Z</time></trkpt><trkpt lat="44.2760364554289" lon="7.940420040065545"><ele>958.6</ele><time>2026-05-03T08:51:02.999Z</time></trkpt><trkpt lat="44.27594912135224" lon="7.940456008833714"><ele>960.4000000000001</ele><time>2026-05-03T08:51:03.999Z</time></trkpt><trkpt lat="44.275864184359946" lon="7.940483637540795"><ele>962.2</ele><time>2026-05-03T08:51:04.999Z</time></trkpt><trkpt lat="44.2757974900748" lon="7.940517001337094"><ele>964.0</ele><time>2026-05-03T08:51:05.999Z</time></trkpt><trkpt lat="44.27568833089352" lon="7.940573118754619"><ele>964.0</ele><time>2026-05-03T08:51:07.999Z</time></trkpt><trkpt lat="44.275604220828825" lon="7.940652418973122"><ele>964.0000000000001</ele><time>2026-05-03T08:51:09.999Z</time></trkpt><trkpt lat="44.2755727689222" lon="7.940789047068939"><ele>964.0000000000001</ele><time>2026-05-03T08:51:11.999Z</time></trkpt><trkpt lat="44.27556344248037" lon="7.940876654498113"><ele>964.0</ele><time>2026-05-03T08:51:12.999Z</time></trkpt><trkpt lat="44.27559262422401" lon="7.941047192704991"><ele>964.0</ele><time>2026-05-03T08:51:14.999Z</time></trkpt><trkpt lat="44.27564057114294" lon="7.941122679937042"><ele>964.9999999999999</ele><time>2026-05-03T08:51:15.999Z</time></trkpt><trkpt lat="44.27568288461921" lon="7.941190347584811"><ele>966.0</ele><time>2026-05-03T08:51:16.999Z</time></trkpt><trkpt lat="44.27575813755572" lon="7.94126053701361"><ele>967.0</ele><time>2026-05-03T08:51:17.999Z</time></trkpt><trkpt lat="44.275834994933774" lon="7.941324150346872"><ele>968.0</ele><time>2026-05-03T08:51:18.999Z</time></trkpt><trkpt lat="44.27590649962691" lon="7.941381991940077"><ele>968.9999999999999</ele><time>2026-05-03T08:51:19.999Z</time></trkpt><trkpt lat="44.27597339276771" lon="7.9414692308500685"><ele>970.0</ele><time>2026-05-03T08:51:20.999Z</time></trkpt><trkpt lat="44.276039404888614" lon="7.941538767237384"><ele>970.0</ele><time>2026-05-03T08:51:21.999Z</time></trkpt><trkpt lat="44.2761249563229" lon="7.941656697204536"><ele>970.0</ele><time>2026-05-03T08:51:23.999Z</time></trkpt><trkpt lat="44.276160325945156" lon="7.941746619999061"><ele>970.0</ele><time>2026-05-03T08:51:24.999Z</time></trkpt><trkpt lat="44.27617704015707" lon="7.941867263694072"><ele>970.0</ele><time>2026-05-03T08:51:25.999Z</time></trkpt><trkpt lat="44.27616514494463" lon="7.942032241156577"><ele>970.0</ele><time>2026-05-03T08:51:26.999Z</time></trkpt><trkpt lat="44.276192522286784" lon="7.942167791662164"><ele>975.5</ele><time>2026-05-03T08:51:27.999Z</time></trkpt><trkpt lat="44.276215400922744" lon="7.942304899063824"><ele>981.0</ele><time>2026-05-03T08:51:28.999Z</time></trkpt><trkpt lat="44.27623614313552" lon="7.942474004328663"><ele>986.5</ele><time>2026-05-03T08:51:29.999Z</time></trkpt><trkpt lat="44.27625323816707" lon="7.942652309368476"><ele>992.0</ele><time>2026-05-03T08:51:30.999Z</time></trkpt><trkpt lat="44.27626543141693" lon="7.9428351196776115"><ele>996.25</ele><time>2026-05-03T08:51:31.999Z</time></trkpt><trkpt lat="44.276290024888695" lon="7.943013768343229"><ele>1000.5</ele><time>2026-05-03T08:51:32.999Z</time></trkpt><trkpt lat="44.27633497958524" lon="7.943199948949752"><ele>1004.75</ele><time>2026-05-03T08:51:33.999Z</time></trkpt><trkpt lat="44.276361464406136" lon="7.943369730087137"><ele>1009.0</ele><time>2026-05-03T08:51:34.999Z</time></trkpt><trkpt lat="44.27638615463149" lon="7.943521453650127"><ele>1012.25</ele><time>2026-05-03T08:51:35.999Z</time></trkpt><trkpt lat="44.27641310988884" lon="7.943686521076516"><ele>1015.5</ele><time>2026-05-03T08:51:36.999Z</time></trkpt><trkpt lat="44.27642196527504" lon="7.943841446393285"><ele>1018.75</ele><time>2026-05-03T08:51:37.999Z</time></trkpt><trkpt lat="44.27644514788325" lon="7.944007137226594"><ele>1022.0</ele><time>2026-05-03T08:51:38.999Z</time></trkpt><trkpt lat="44.27645595059586" lon="7.944188104479474"><ele>1011.0</ele><time>2026-05-03T08:51:39.999Z</time></trkpt><trkpt lat="44.276459335275675" lon="7.944356279458222"><ele>1000.0</ele><time>2026-05-03T08:51:40.999Z</time></trkpt><trkpt lat="44.27645622395477" lon="7.9445363293470725"><ele>989.0</ele><time>2026-05-03T08:51:41.999Z</time></trkpt><trkpt lat="44.27645462557891" lon="7.9447323575018505"><ele>978.0</ele><time>2026-05-03T08:51:42.998Z</time></trkpt><trkpt lat="44.27644856892883" lon="7.944880834808181"><ele>978.75</ele><time>2026-05-03T08:51:43.998Z</time></trkpt><trkpt lat="44.27646466642316" lon="7.945055310827934"><ele>979.5</ele><time>2026-05-03T08:51:44.998Z</time></trkpt><trkpt lat="44.276486113268135" lon="7.9452232150307145"><ele>980.25</ele><time>2026-05-03T08:51:45.998Z</time></trkpt><trkpt lat="44.276496900790896" lon="7.945368609908775"><ele>981.0</ele><time>2026-05-03T08:51:46.998Z</time></trkpt><trkpt lat="44.27649929664246" lon="7.945508003389487"><ele>981.0</ele><time>2026-05-03T08:51:47.998Z</time></trkpt><trkpt lat="44.27649519535687" lon="7.945646571967667"><ele>980.9999999999999</ele><time>2026-05-03T08:51:48.998Z</time></trkpt><trkpt lat="44.2764903478335" lon="7.945773027534598"><ele>980.9999999999999</ele><time>2026-05-03T08:51:49.998Z</time></trkpt><trkpt lat="44.27647076081172" lon="7.9459051000765255"><ele>981.0</ele><time>2026-05-03T08:51:50.998Z</time></trkpt><trkpt lat="44.27644253490121" lon="7.946039196274605"><ele>981.0</ele><time>2026-05-03T08:51:51.998Z</time></trkpt><trkpt lat="44.27637978684645" lon="7.946195019977823"><ele>989.5999999999999</ele><time>2026-05-03T08:51:52.998Z</time></trkpt><trkpt lat="44.276326527774785" lon="7.946321994693787"><ele>998.1999999999999</ele><time>2026-05-03T08:51:53.998Z</time></trkpt><trkpt lat="44.27628090230307" lon="7.946452013793243"><ele>1006.8000000000001</ele><time>2026-05-03T08:51:54.998Z</time></trkpt><trkpt lat="44.27626639634523" lon="7.9466048910666744"><ele>1015.4000000000001</ele><time>2026-05-03T08:51:55.998Z</time></trkpt><trkpt lat="44.276234318762455" lon="7.9467626755335"><ele>1024.0</ele><time>2026-05-03T08:51:56.998Z</time></trkpt><trkpt lat="44.27622354392121" lon="7.94687866124651"><ele>1025.3333333333333</ele><time>2026-05-03T08:51:57.998Z</time></trkpt><trkpt lat="44.276215015733484" lon="7.94697790273226"><ele>1026.6666666666665</ele><time>2026-05-03T08:51:58.998Z</time></trkpt><trkpt lat="44.2762284546468" lon="7.947089127648271"><ele>1028.0</ele><time>2026-05-03T08:51:59.998Z</time></trkpt><trkpt lat="44.27624391069837" lon="7.947198900135222"><ele>1029.3333333333333</ele><time>2026-05-03T08:52:00.998Z</time></trkpt><trkpt lat="44.27630163825596" lon="7.947320953979585"><ele>1030.6666666666667</ele><time>2026-05-03T08:52:01.998Z</time></trkpt><trkpt lat="44.2763841826456" lon="7.947413872484416"><ele>1032.0</ele><time>2026-05-03T08:52:02.998Z</time></trkpt><trkpt lat="44.27645639810199" lon="7.947497043566396"><ele>1028.4</ele><time>2026-05-03T08:52:03.998Z</time></trkpt><trkpt lat="44.27653082480004" lon="7.9475713210569285"><ele>1024.8000000000002</ele><time>2026-05-03T08:52:04.998Z</time></trkpt><trkpt lat="44.27660809186201" lon="7.94764690829908"><ele>1021.2</ele><time>2026-05-03T08:52:05.998Z</time></trkpt><trkpt lat="44.27667767208256" lon="7.947730435238133"><ele>1017.6</ele><time>2026-05-03T08:52:07Z</time></trkpt><trkpt lat="44.27676702098362" lon="7.947796149703444"><ele>1014.0</ele><time>2026-05-03T08:52:08Z</time></trkpt><trkpt lat="44.27684512864358" lon="7.947930809247933"><ele>1014.0</ele><time>2026-05-03T08:52:09Z</time></trkpt><trkpt lat="44.276903365724806" lon="7.9480683311783515"><ele>1014.0</ele><time>2026-05-03T08:52:10Z</time></trkpt><trkpt lat="44.27696460271638" lon="7.948175577584057"><ele>1014.0</ele><time>2026-05-03T08:52:11Z</time></trkpt><trkpt lat="44.27705352671196" lon="7.948277723859216"><ele>1014.0</ele><time>2026-05-03T08:52:12Z</time></trkpt><trkpt lat="44.27716356654992" lon="7.948387031048696"><ele>1012.8000000000001</ele><time>2026-05-03T08:52:13Z</time></trkpt><trkpt lat="44.27724766245712" lon="7.9484785403231"><ele>1011.6000000000001</ele><time>2026-05-03T08:52:14Z</time></trkpt><trkpt lat="44.27732989120552" lon="7.948544378031182"><ele>1010.4</ele><time>2026-05-03T08:52:15Z</time></trkpt><trkpt lat="44.27739439267302" lon="7.948596851247995"><ele>1009.2</ele><time>2026-05-03T08:52:16Z</time></trkpt><trkpt lat="44.277478545990725" lon="7.948743379652456"><ele>1008.0</ele><time>2026-05-03T08:52:18Z</time></trkpt><trkpt lat="44.277510855375446" lon="7.948901888300995"><ele>1008.0</ele><time>2026-05-03T08:52:19Z</time></trkpt><trkpt lat="44.27753912103105" lon="7.949054805745998"><ele>1008.0</ele><time>2026-05-03T08:52:20Z</time></trkpt><trkpt lat="44.27756226413698" lon="7.949223706472085"><ele>1008.0</ele><time>2026-05-03T08:52:21Z</time></trkpt><trkpt lat="44.277594710488636" lon="7.949386943147811"><ele>1008.0</ele><time>2026-05-03T08:52:22Z</time></trkpt><trkpt lat="44.27760903959412" lon="7.949529211799857"><ele>1008.5999999999999</ele><time>2026-05-03T08:52:23Z</time></trkpt><trkpt lat="44.27761629294281" lon="7.949643476478424"><ele>1009.1999999999999</ele><time>2026-05-03T08:52:24Z</time></trkpt><trkpt lat="44.277620768757274" lon="7.949795303420533"><ele>1009.8</ele><time>2026-05-03T08:52:25Z</time></trkpt><trkpt lat="44.27761932970785" lon="7.94995025394859"><ele>1010.4</ele><time>2026-05-03T08:52:26Z</time></trkpt><trkpt lat="44.27759521379179" lon="7.950105142640203"><ele>1011.0</ele><time>2026-05-03T08:52:27Z</time></trkpt><trkpt lat="44.277582813229344" lon="7.950260688534132"><ele>1011.0</ele><time>2026-05-03T08:52:28Z</time></trkpt><trkpt lat="44.27755850564044" lon="7.950473247695275"><ele>1011.0</ele><time>2026-05-03T08:52:29Z</time></trkpt><trkpt lat="44.27754923522898" lon="7.950653922578104"><ele>1011.0</ele><time>2026-05-03T08:52:30Z</time></trkpt><trkpt lat="44.27754372501347" lon="7.950824938045176"><ele>1011.0</ele><time>2026-05-03T08:52:31Z</time></trkpt><trkpt lat="44.27753642515231" lon="7.950968491456925"><ele>1010.4</ele><time>2026-05-03T08:52:32Z</time></trkpt><trkpt lat="44.277524301322195" lon="7.951068922305833"><ele>1009.8</ele><time>2026-05-03T08:52:33Z</time></trkpt><trkpt lat="44.277518916757366" lon="7.951213674282355"><ele>1009.1999999999999</ele><time>2026-05-03T08:52:34Z</time></trkpt><trkpt lat="44.277474768720765" lon="7.951360410170342"><ele>1008.5999999999999</ele><time>2026-05-03T08:52:35Z</time></trkpt><trkpt lat="44.27742931407599" lon="7.951501325617229"><ele>1008.0</ele><time>2026-05-03T08:52:36Z</time></trkpt><trkpt lat="44.27736519752029" lon="7.951649400908748"><ele>1007.25</ele><time>2026-05-03T08:52:37Z</time></trkpt><trkpt lat="44.277297003521845" lon="7.951808710770085"><ele>1006.5</ele><time>2026-05-03T08:52:38Z</time></trkpt><trkpt lat="44.27721685960846" lon="7.951972749031518"><ele>1005.75</ele><time>2026-05-03T08:52:39Z</time></trkpt><trkpt lat="44.27714737779871" lon="7.952154004509214"><ele>1005.0</ele><time>2026-05-03T08:52:40Z</time></trkpt><trkpt lat="44.2770739365261" lon="7.952330790181942"><ele>1012.3333333333333</ele><time>2026-05-03T08:52:41Z</time></trkpt><trkpt lat="44.27699724457863" lon="7.952520905872116"><ele>1019.6666666666666</ele><time>2026-05-03T08:52:42Z</time></trkpt><trkpt lat="44.276935324084185" lon="7.95271749122424"><ele>1027.0</ele><time>2026-05-03T08:52:43Z</time></trkpt><trkpt lat="44.276873466932" lon="7.952918345765041"><ele>1027.0</ele><time>2026-05-03T08:52:44Z</time></trkpt><trkpt lat="44.276821677391816" lon="7.953121570212526"><ele>1027.0</ele><time>2026-05-03T08:52:45Z</time></trkpt><trkpt lat="44.27678444608154" lon="7.953301342364459"><ele>1027.0</ele><time>2026-05-03T08:52:46Z</time></trkpt><trkpt lat="44.27674690420523" lon="7.95346172707965"><ele>1027.0</ele><time>2026-05-03T08:52:47Z</time></trkpt><trkpt lat="44.276710368962036" lon="7.953596511771192"><ele>1025.8</ele><time>2026-05-03T08:52:48Z</time></trkpt><trkpt lat="44.27667112446783" lon="7.953717194242801"><ele>1024.6</ele><time>2026-05-03T08:52:48.999Z</time></trkpt><trkpt lat="44.27663481196407" lon="7.953839600284239"><ele>1023.3999999999999</ele><time>2026-05-03T08:52:49.999Z</time></trkpt><trkpt lat="44.276595769197925" lon="7.953960328168365"><ele>1022.1999999999999</ele><time>2026-05-03T08:52:50.999Z</time></trkpt><trkpt lat="44.27654048767453" lon="7.954079437617452"><ele>1021.0</ele><time>2026-05-03T08:52:51.999Z</time></trkpt><trkpt lat="44.27647416226998" lon="7.954199340305018"><ele>1024.3999999999999</ele><time>2026-05-03T08:52:52.999Z</time></trkpt><trkpt lat="44.2764238898028" lon="7.954303566579662"><ele>1027.8</ele><time>2026-05-03T08:52:53.999Z</time></trkpt><trkpt lat="44.27638063939303" lon="7.95441415632413"><ele>1031.1999999999998</ele><time>2026-05-03T08:52:54.999Z</time></trkpt><trkpt lat="44.276335792848904" lon="7.954501037048825"><ele>1034.6</ele><time>2026-05-03T08:52:55.999Z</time></trkpt><trkpt lat="44.27622967644206" lon="7.954620860413956"><ele>1038.0</ele><time>2026-05-03T08:52:57.999Z</time></trkpt><trkpt lat="44.27616410987544" lon="7.954695062511023"><ele>1038.0</ele><time>2026-05-03T08:52:58.999Z</time></trkpt><trkpt lat="44.276089727131854" lon="7.954783650661701"><ele>1038.0</ele><time>2026-05-03T08:52:59.999Z</time></trkpt><trkpt lat="44.276018292127546" lon="7.954859055755544"><ele>1038.0</ele><time>2026-05-03T08:53:00.999Z</time></trkpt><trkpt lat="44.27595001440402" lon="7.954922261218185"><ele>1038.0</ele><time>2026-05-03T08:53:01.999Z</time></trkpt><trkpt lat="44.27588816211859" lon="7.95498756376084"><ele>1038.0</ele><time>2026-05-03T08:53:02.999Z</time></trkpt><trkpt lat="44.275828919767804" lon="7.955067005999713"><ele>1038.0</ele><time>2026-05-03T08:53:03.999Z</time></trkpt><trkpt lat="44.27580137878991" lon="7.955168130624806"><ele>1038.142857142857</ele><time>2026-05-03T08:53:04.999Z</time></trkpt><trkpt lat="44.275770870247364" lon="7.955269987143638"><ele>1038.2857142857142</ele><time>2026-05-03T08:53:05.999Z</time></trkpt><trkpt lat="44.27575890197639" lon="7.9553675717834595"><ele>1038.4285714285713</ele><time>2026-05-03T08:53:06.999Z</time></trkpt><trkpt lat="44.275762815271285" lon="7.955463968446956"><ele>1038.5714285714284</ele><time>2026-05-03T08:53:07.999Z</time></trkpt><trkpt lat="44.27578211964931" lon="7.955560344356615"><ele>1038.7142857142858</ele><time>2026-05-03T08:53:08.999Z</time></trkpt><trkpt lat="44.27581639160652" lon="7.955660350643991"><ele>1038.8571428571427</ele><time>2026-05-03T08:53:09.999Z</time></trkpt><trkpt lat="44.2758555204707" lon="7.955743053311402"><ele>1039.0</ele><time>2026-05-03T08:53:10.999Z</time></trkpt><trkpt lat="44.275915692112214" lon="7.955792485290056"><ele>1039.0</ele><time>2026-05-03T08:53:11.999Z</time></trkpt><trkpt lat="44.275991405054285" lon="7.955864089533789"><ele>1039.0</ele><time>2026-05-03T08:53:12.999Z</time></trkpt><trkpt lat="44.27606387781744" lon="7.955951411965114"><ele>1039.0</ele><time>2026-05-03T08:53:13.999Z</time></trkpt><trkpt lat="44.27613858436535" lon="7.956019495889632"><ele>1039.0</ele><time>2026-05-03T08:53:14.999Z</time></trkpt><trkpt lat="44.27621283595845" lon="7.956079824701802"><ele>1039.0</ele><time>2026-05-03T08:53:15.999Z</time></trkpt><trkpt lat="44.27627793888505" lon="7.956145316495908"><ele>1039.0</ele><time>2026-05-03T08:53:16.999Z</time></trkpt><trkpt lat="44.27634557292123" lon="7.95620432276345"><ele>1040.5</ele><time>2026-05-03T08:53:17.999Z</time></trkpt><trkpt lat="44.27640828745947" lon="7.9562603950032775"><ele>1042.0</ele><time>2026-05-03T08:53:18.999Z</time></trkpt><trkpt lat="44.27648240964491" lon="7.956329135864613"><ele>1043.5</ele><time>2026-05-03T08:53:19.999Z</time></trkpt><trkpt lat="44.276556361696464" lon="7.956406797598799"><ele>1045.0</ele><time>2026-05-03T08:53:20.999Z</time></trkpt><trkpt lat="44.27662966128243" lon="7.956471353442548"><ele>1046.5</ele><time>2026-05-03T08:53:21.999Z</time></trkpt><trkpt lat="44.27669853798062" lon="7.9565280794801385"><ele>1048.0</ele><time>2026-05-03T08:53:22.999Z</time></trkpt><trkpt lat="44.27676258505722" lon="7.956585336691424"><ele>1045.142857142857</ele><time>2026-05-03T08:53:23.999Z</time></trkpt><trkpt lat="44.27682224254787" lon="7.95663706703733"><ele>1042.2857142857144</ele><time>2026-05-03T08:53:24.999Z</time></trkpt><trkpt lat="44.276887004499436" lon="7.956696064277384"><ele>1039.4285714285716</ele><time>2026-05-03T08:53:25.999Z</time></trkpt><trkpt lat="44.276949488538456" lon="7.956758058646493"><ele>1036.5714285714287</ele><time>2026-05-03T08:53:26.999Z</time></trkpt><trkpt lat="44.277008678884705" lon="7.956818132940425"><ele>1033.7142857142858</ele><time>2026-05-03T08:53:27.999Z</time></trkpt><trkpt lat="44.277065552481176" lon="7.956880037433081"><ele>1030.857142857143</ele><time>2026-05-03T08:53:28.999Z</time></trkpt><trkpt lat="44.277122981485704" lon="7.956942294373345"><ele>1028.0</ele><time>2026-05-03T08:53:29.999Z</time></trkpt><trkpt lat="44.27720621925396" lon="7.95705586733584"><ele>1026.0</ele><time>2026-05-03T08:53:31.999Z</time></trkpt><trkpt lat="44.27729404320336" lon="7.957155914585171"><ele>1024.0</ele><time>2026-05-03T08:53:33.999Z</time></trkpt><trkpt lat="44.277354805523075" lon="7.957258745302265"><ele>1022.0</ele><time>2026-05-03T08:53:35.999Z</time></trkpt><trkpt lat="44.277401741767754" lon="7.957320011187728"><ele>1020.0</ele><time>2026-05-03T08:53:39.999Z</time></trkpt><trkpt lat="44.277482988935084" lon="7.95733462327133"><ele>1018.0000000000001</ele><time>2026-05-03T08:53:42.999Z</time></trkpt><trkpt lat="44.27755163572343" lon="7.9573394325376245"><ele>1016.0</ele><time>2026-05-03T08:53:45.999Z</time></trkpt><trkpt lat="44.2776451676792" lon="7.957391554214922"><ele>1016.0000000000001</ele><time>2026-05-03T08:53:48.998Z</time></trkpt><trkpt lat="44.27775503856258" lon="7.9574219117478195"><ele>1016.0</ele><time>2026-05-03T08:53:50.998Z</time></trkpt><trkpt lat="44.27782050564993" lon="7.957445306243976"><ele>1016.0</ele><time>2026-05-03T08:53:51.998Z</time></trkpt><trkpt lat="44.27789528662961" lon="7.957471555650499"><ele>1016.0</ele><time>2026-05-03T08:53:52.998Z</time></trkpt><trkpt lat="44.27797483787771" lon="7.957498584512247"><ele>1016.0000000000001</ele><time>2026-05-03T08:53:53.998Z</time></trkpt><trkpt lat="44.27806810497393" lon="7.957524850462037"><ele>1016.0</ele><time>2026-05-03T08:53:54.998Z</time></trkpt><trkpt lat="44.27816944325491" lon="7.957564920875408"><ele>1014.8</ele><time>2026-05-03T08:53:55.998Z</time></trkpt><trkpt lat="44.27827741155934" lon="7.957598077596965"><ele>1013.5999999999999</ele><time>2026-05-03T08:53:56.998Z</time></trkpt><trkpt lat="44.278384823028716" lon="7.95761624816807"><ele>1012.4</ele><time>2026-05-03T08:53:57.998Z</time></trkpt><trkpt lat="44.27847630926649" lon="7.957620390631412"><ele>1011.2</ele><time>2026-05-03T08:53:58.998Z</time></trkpt><trkpt lat="44.27857562764257" lon="7.957614240921512"><ele>1010.0</ele><time>2026-05-03T08:53:59.998Z</time></trkpt><trkpt lat="44.278672001098506" lon="7.95759967917652"><ele>1010.0000000000001</ele><time>2026-05-03T08:54:00.998Z</time></trkpt><trkpt lat="44.27875876742541" lon="7.957569748852416"><ele>1010.0</ele><time>2026-05-03T08:54:01.998Z</time></trkpt><trkpt lat="44.278843359961364" lon="7.957541112977182"><ele>1010.0</ele><time>2026-05-03T08:54:02.998Z</time></trkpt><trkpt lat="44.27891358899554" lon="7.957503879405802"><ele>1010.0</ele><time>2026-05-03T08:54:03.998Z</time></trkpt><trkpt lat="44.27898040555696" lon="7.957452506076797"><ele>1010.0000000000001</ele><time>2026-05-03T08:54:04.998Z</time></trkpt><trkpt lat="44.27905375152924" lon="7.957387492665284"><ele>1010.0</ele><time>2026-05-03T08:54:05.998Z</time></trkpt><trkpt lat="44.27914006183131" lon="7.95731722922928"><ele>1011.6</ele><time>2026-05-03T08:54:06.998Z</time></trkpt><trkpt lat="44.27922304891524" lon="7.957248310563723"><ele>1013.2</ele><time>2026-05-03T08:54:07.998Z</time></trkpt><trkpt lat="44.27930149820982" lon="7.957183464703638"><ele>1014.8</ele><time>2026-05-03T08:54:08.998Z</time></trkpt><trkpt lat="44.279385787564486" lon="7.957123160236458"><ele>1016.4</ele><time>2026-05-03T08:54:09.998Z</time></trkpt><trkpt lat="44.27946857801372" lon="7.957059367206386"><ele>1018.0</ele><time>2026-05-03T08:54:10.998Z</time></trkpt><trkpt lat="44.279552117437" lon="7.956989925437353"><ele>1017.9999999999999</ele><time>2026-05-03T08:54:11.998Z</time></trkpt><trkpt lat="44.279630550299935" lon="7.956920458844464"><ele>1018.0</ele><time>2026-05-03T08:54:13Z</time></trkpt><trkpt lat="44.27970629578583" lon="7.956847287373702"><ele>1018.0</ele><time>2026-05-03T08:54:14Z</time></trkpt><trkpt lat="44.279772406759115" lon="7.956765744747294"><ele>1018.0</ele><time>2026-05-03T08:54:15Z</time></trkpt><trkpt lat="44.27983529344508" lon="7.956689388541905"><ele>1017.9999999999999</ele><time>2026-05-03T08:54:16Z</time></trkpt><trkpt lat="44.27990532761578" lon="7.956603973490539"><ele>1018.0</ele><time>2026-05-03T08:54:17Z</time></trkpt><trkpt lat="44.27997919182304" lon="7.956521149698223"><ele>1017.4999999999999</ele><time>2026-05-03T08:54:18Z</time></trkpt><trkpt lat="44.280066291238654" lon="7.956444598771189"><ele>1017.0</ele><time>2026-05-03T08:54:19Z</time></trkpt><trkpt lat="44.280136518474485" lon="7.956391213910467"><ele>1016.5</ele><time>2026-05-03T08:54:20Z</time></trkpt><trkpt lat="44.280196454956105" lon="7.956339980700853"><ele>1016.0</ele><time>2026-05-03T08:54:21Z</time></trkpt><trkpt lat="44.28027648336697" lon="7.9562925620325275"><ele>1015.4999999999999</ele><time>2026-05-03T08:54:22Z</time></trkpt><trkpt lat="44.28035041826927" lon="7.95624038045659"><ele>1015.0</ele><time>2026-05-03T08:54:23Z</time></trkpt><trkpt lat="44.28041484638987" lon="7.95617724525507"><ele>1014.9999999999999</ele><time>2026-05-03T08:54:24Z</time></trkpt><trkpt lat="44.28047445852978" lon="7.956123009690492"><ele>1015.0</ele><time>2026-05-03T08:54:25Z</time></trkpt><trkpt lat="44.28052585097754" lon="7.956066463019504"><ele>1015.0</ele><time>2026-05-03T08:54:26Z</time></trkpt><trkpt lat="44.28057125397964" lon="7.956000880663188"><ele>1015.0</ele><time>2026-05-03T08:54:27Z</time></trkpt><trkpt lat="44.28062739328083" lon="7.955925543125278"><ele>1014.9999999999999</ele><time>2026-05-03T08:54:28Z</time></trkpt><trkpt lat="44.2806883332901" lon="7.955828858782418"><ele>1015.0</ele><time>2026-05-03T08:54:29Z</time></trkpt><trkpt lat="44.280740188716436" lon="7.955721047444309"><ele>1015.0</ele><time>2026-05-03T08:54:30Z</time></trkpt><trkpt lat="44.28078853319659" lon="7.955617751340807"><ele>1015.0</ele><time>2026-05-03T08:54:31Z</time></trkpt><trkpt lat="44.28085570469899" lon="7.9555215688441425"><ele>1015.0</ele><time>2026-05-03T08:54:32Z</time></trkpt><trkpt lat="44.28091840913066" lon="7.95542254907852"><ele>1015.0</ele><time>2026-05-03T08:54:33Z</time></trkpt><trkpt lat="44.280985965785575" lon="7.955323154198266"><ele>1015.0</ele><time>2026-05-03T08:54:34Z</time></trkpt><trkpt lat="44.28105483228022" lon="7.955216898905303"><ele>1015.0</ele><time>2026-05-03T08:54:35Z</time></trkpt><trkpt lat="44.28113022876841" lon="7.955105459258377"><ele>1015.0</ele><time>2026-05-03T08:54:36Z</time></trkpt><trkpt lat="44.28120615141979" lon="7.95499399255063"><ele>1015.0</ele><time>2026-05-03T08:54:37Z</time></trkpt><trkpt lat="44.28128235881688" lon="7.954894154543284"><ele>1015.0</ele><time>2026-05-03T08:54:38Z</time></trkpt><trkpt lat="44.2813467365336" lon="7.9548074414564365"><ele>1015.0</ele><time>2026-05-03T08:54:39Z</time></trkpt><trkpt lat="44.28142146811281" lon="7.954698833425314"><ele>1018.8</ele><time>2026-05-03T08:54:40Z</time></trkpt><trkpt lat="44.281487583693085" lon="7.954601570318025"><ele>1022.6</ele><time>2026-05-03T08:54:41Z</time></trkpt><trkpt lat="44.28154191471274" lon="7.9545014491800465"><ele>1026.4</ele><time>2026-05-03T08:54:42Z</time></trkpt><trkpt lat="44.28159584597903" lon="7.954376459316397"><ele>1030.2</ele><time>2026-05-03T08:54:43Z</time></trkpt><trkpt lat="44.281644318869574" lon="7.954237344583959"><ele>1034.0</ele><time>2026-05-03T08:54:44Z</time></trkpt><trkpt lat="44.28168792779552" lon="7.9540999096913785"><ele>1034.0</ele><time>2026-05-03T08:54:45Z</time></trkpt><trkpt lat="44.281721548849596" lon="7.953975823899018"><ele>1034.0</ele><time>2026-05-03T08:54:46Z</time></trkpt><trkpt lat="44.28175592487399" lon="7.953868726102515"><ele>1034.0</ele><time>2026-05-03T08:54:47Z</time></trkpt><trkpt lat="44.28179092211541" lon="7.953789345607521"><ele>1034.0</ele><time>2026-05-03T08:54:48Z</time></trkpt><trkpt lat="44.281885795763294" lon="7.953651904455568"><ele>1034.0</ele><time>2026-05-03T08:54:50Z</time></trkpt><trkpt lat="44.28194095994682" lon="7.953579940651073"><ele>1034.0</ele><time>2026-05-03T08:54:51Z</time></trkpt><trkpt lat="44.28201188970472" lon="7.953530835294101"><ele>1034.0</ele><time>2026-05-03T08:54:52Z</time></trkpt><trkpt lat="44.28207291700038" lon="7.953475065332992"><ele>1034.0</ele><time>2026-05-03T08:54:53Z</time></trkpt><trkpt lat="44.282168936251914" lon="7.953395912541057"><ele>1034.0</ele><time>2026-05-03T08:54:54.999Z</time></trkpt><trkpt lat="44.28223904182183" lon="7.953360843657475"><ele>1034.0</ele><time>2026-05-03T08:54:55.999Z</time></trkpt><trkpt lat="44.28232717017114" lon="7.953322613876133"><ele>1034.0</ele><time>2026-05-03T08:54:56.999Z</time></trkpt><trkpt lat="44.282430791933045" lon="7.95327554743551"><ele>1035.4</ele><time>2026-05-03T08:54:57.999Z</time></trkpt><trkpt lat="44.282533828207775" lon="7.953227864202033"><ele>1036.8000000000002</ele><time>2026-05-03T08:54:58.999Z</time></trkpt><trkpt lat="44.282623592209085" lon="7.953164090994268"><ele>1038.1999999999998</ele><time>2026-05-03T08:54:59.999Z</time></trkpt><trkpt lat="44.28271364117017" lon="7.953087641432679"><ele>1039.6</ele><time>2026-05-03T08:55:00.999Z</time></trkpt><trkpt lat="44.28279158326749" lon="7.953025487083784"><ele>1041.0</ele><time>2026-05-03T08:55:01.999Z</time></trkpt><trkpt lat="44.28286181267476" lon="7.952962605485057"><ele>1041.0</ele><time>2026-05-03T08:55:02.999Z</time></trkpt><trkpt lat="44.282944720715676" lon="7.952890411788216"><ele>1041.0</ele><time>2026-05-03T08:55:03.999Z</time></trkpt><trkpt lat="44.28301268471698" lon="7.952831559879001"><ele>1041.0</ele><time>2026-05-03T08:55:04.999Z</time></trkpt><trkpt lat="44.28309615978986" lon="7.9527807869715375"><ele>1041.0</ele><time>2026-05-03T08:55:05.999Z</time></trkpt><trkpt lat="44.28318330351203" lon="7.952740380695101"><ele>1041.0</ele><time>2026-05-03T08:55:06.999Z</time></trkpt><trkpt lat="44.28328229490769" lon="7.952696238023613"><ele>1039.6</ele><time>2026-05-03T08:55:07.999Z</time></trkpt><trkpt lat="44.28338531582336" lon="7.952670427929485"><ele>1038.1999999999998</ele><time>2026-05-03T08:55:08.999Z</time></trkpt><trkpt lat="44.283476466145814" lon="7.952631904569069"><ele>1036.8000000000002</ele><time>2026-05-03T08:55:09.999Z</time></trkpt><trkpt lat="44.28356925914864" lon="7.9525892995078795"><ele>1035.4</ele><time>2026-05-03T08:55:10.999Z</time></trkpt><trkpt lat="44.283665120597256" lon="7.9525215794566355"><ele>1034.0</ele><time>2026-05-03T08:55:11.999Z</time></trkpt><trkpt lat="44.28376716054836" lon="7.952484974475884"><ele>1034.0</ele><time>2026-05-03T08:55:12.999Z</time></trkpt><trkpt lat="44.28386005631041" lon="7.952424607293149"><ele>1034.0</ele><time>2026-05-03T08:55:13.999Z</time></trkpt><trkpt lat="44.28396421254478" lon="7.952361528872633"><ele>1034.0</ele><time>2026-05-03T08:55:14.999Z</time></trkpt><trkpt lat="44.28406911212371" lon="7.952303819713833"><ele>1034.0</ele><time>2026-05-03T08:55:15.999Z</time></trkpt><trkpt lat="44.28415711302928" lon="7.952246071705392"><ele>1034.0</ele><time>2026-05-03T08:55:16.999Z</time></trkpt><trkpt lat="44.284247567450116" lon="7.9522173436500605"><ele>1032.6666666666667</ele><time>2026-05-03T08:55:17.999Z</time></trkpt><trkpt lat="44.2843165861886" lon="7.952181143435028"><ele>1031.3333333333335</ele><time>2026-05-03T08:55:18.999Z</time></trkpt><trkpt lat="44.28438536970852" lon="7.952103415515647"><ele>1030.0</ele><time>2026-05-03T08:55:19.999Z</time></trkpt><trkpt lat="44.284436185189875" lon="7.952017914407119"><ele>1028.6666666666667</ele><time>2026-05-03T08:55:20.999Z</time></trkpt><trkpt lat="44.28450537864518" lon="7.951884935851314"><ele>1027.3333333333333</ele><time>2026-05-03T08:55:21.999Z</time></trkpt><trkpt lat="44.28453047440902" lon="7.9517700656532435"><ele>1026.0</ele><time>2026-05-03T08:55:22.999Z</time></trkpt><trkpt lat="44.28459873271993" lon="7.951617297094256"><ele>1026.0</ele><time>2026-05-03T08:55:24.999Z</time></trkpt><trkpt lat="44.28465153572296" lon="7.951562350890126"><ele>1026.0</ele><time>2026-05-03T08:55:25.999Z</time></trkpt><trkpt lat="44.28471766232264" lon="7.951543664750171"><ele>1026.0</ele><time>2026-05-03T08:55:26.999Z</time></trkpt><trkpt lat="44.28479222261181" lon="7.951561513965736"><ele>1026.0</ele><time>2026-05-03T08:55:27.999Z</time></trkpt><trkpt lat="44.28487121945461" lon="7.95160091374703"><ele>1026.0</ele><time>2026-05-03T08:55:28.999Z</time></trkpt><trkpt lat="44.284963187288334" lon="7.951670599139999"><ele>1026.0</ele><time>2026-05-03T08:55:29.999Z</time></trkpt><trkpt lat="44.28505466220974" lon="7.951730746875567"><ele>1030.6</ele><time>2026-05-03T08:55:30.999Z</time></trkpt><trkpt lat="44.28515226900829" lon="7.951791859580996"><ele>1035.1999999999998</ele><time>2026-05-03T08:55:31.999Z</time></trkpt><trkpt lat="44.28523283681603" lon="7.951845397663622"><ele>1039.8000000000002</ele><time>2026-05-03T08:55:32.999Z</time></trkpt><trkpt lat="44.28530959497951" lon="7.951910495613627"><ele>1044.4</ele><time>2026-05-03T08:55:33.999Z</time></trkpt><trkpt lat="44.28539127625683" lon="7.951975194315436"><ele>1049.0</ele><time>2026-05-03T08:55:34.999Z</time></trkpt><trkpt lat="44.285485596701" lon="7.952028288223396"><ele>1049.0</ele><time>2026-05-03T08:55:35.999Z</time></trkpt><trkpt lat="44.28557578736467" lon="7.952077440521977"><ele>1049.0</ele><time>2026-05-03T08:55:36.999Z</time></trkpt><trkpt lat="44.285659287828054" lon="7.952105172448334"><ele>1049.0</ele><time>2026-05-03T08:55:37.999Z</time></trkpt><trkpt lat="44.28573653763563" lon="7.952139829171446"><ele>1049.0</ele><time>2026-05-03T08:55:38.999Z</time></trkpt><trkpt lat="44.28580900511553" lon="7.952180004054941"><ele>1049.0</ele><time>2026-05-03T08:55:39.999Z</time></trkpt><trkpt lat="44.28587583819367" lon="7.95221656120702"><ele>1049.0</ele><time>2026-05-03T08:55:40.999Z</time></trkpt><trkpt lat="44.28594173254493" lon="7.952254581648847"><ele>1049.0</ele><time>2026-05-03T08:55:41.999Z</time></trkpt><trkpt lat="44.28604981333145" lon="7.952347178166035"><ele>1049.0</ele><time>2026-05-03T08:55:43.999Z</time></trkpt><trkpt lat="44.2861116790994" lon="7.952391259281073"><ele>1049.0</ele><time>2026-05-03T08:55:44.999Z</time></trkpt><trkpt lat="44.28617257135768" lon="7.952441063717428"><ele>1049.0</ele><time>2026-05-03T08:55:45.999Z</time></trkpt><trkpt lat="44.28628103115597" lon="7.952525339178242"><ele>1049.0</ele><time>2026-05-03T08:55:47.999Z</time></trkpt><trkpt lat="44.28634430948032" lon="7.952575126643971"><ele>1046.8</ele><time>2026-05-03T08:55:48.999Z</time></trkpt><trkpt lat="44.286438561095956" lon="7.952663245890768"><ele>1044.6000000000001</ele><time>2026-05-03T08:55:50.999Z</time></trkpt><trkpt lat="44.28648865326937" lon="7.952727342813296"><ele>1042.4</ele><time>2026-05-03T08:55:51.999Z</time></trkpt><trkpt lat="44.28656622482207" lon="7.952840150633328"><ele>1040.2</ele><time>2026-05-03T08:55:53.999Z</time></trkpt><trkpt lat="44.28663833904266" lon="7.952904143498028"><ele>1038.0</ele><time>2026-05-03T08:56:01.998Z</time></trkpt><trkpt lat="44.28673163659319" lon="7.95298873529542"><ele>1038.0</ele><time>2026-05-03T08:56:03.998Z</time></trkpt><trkpt lat="44.28678856716415" lon="7.953027467059925"><ele>1038.0</ele><time>2026-05-03T08:56:05.998Z</time></trkpt><trkpt lat="44.28686677368632" lon="7.95309152999631"><ele>1038.0</ele><time>2026-05-03T08:56:08.998Z</time></trkpt><trkpt lat="44.28693116296521" lon="7.95306271705701"><ele>1038.0</ele><time>2026-05-03T08:56:10.998Z</time></trkpt><trkpt lat="44.28701013516515" lon="7.9529974763070586"><ele>1038.0</ele><time>2026-05-03T08:56:13.998Z</time></trkpt><trkpt lat="44.287088341080924" lon="7.952947021921312"><ele>1038.0</ele><time>2026-05-03T08:56:15.998Z</time></trkpt><trkpt lat="44.28718810543608" lon="7.9529478909102425"><ele>1039.0</ele><time>2026-05-03T08:56:17.998Z</time></trkpt><trkpt lat="44.287289675550745" lon="7.952923479235114"><ele>1040.0</ele><time>2026-05-03T08:56:20Z</time></trkpt><trkpt lat="44.287331319244615" lon="7.9528480885035036"><ele>1041.0</ele><time>2026-05-03T08:56:22Z</time></trkpt><trkpt lat="44.28738055398452" lon="7.952759668435018"><ele>1042.0</ele><time>2026-05-03T08:56:24Z</time></trkpt><trkpt lat="44.28744471825278" lon="7.952620511271481"><ele>1043.0</ele><time>2026-05-03T08:56:26Z</time></trkpt><trkpt lat="44.287478243380555" lon="7.952541839421238"><ele>1044.0</ele><time>2026-05-03T08:56:27Z</time></trkpt><trkpt lat="44.287517144269934" lon="7.952458566759555"><ele>1045.0</ele><time>2026-05-03T08:56:28Z</time></trkpt><trkpt lat="44.28758958233204" lon="7.952317294784615"><ele>1046.0</ele><time>2026-05-03T08:56:30Z</time></trkpt><trkpt lat="44.28763227447351" lon="7.952247856764304"><ele>1047.0</ele><time>2026-05-03T08:56:31Z</time></trkpt><trkpt lat="44.28767791069998" lon="7.952173987769077"><ele>1048.0</ele><time>2026-05-03T08:56:33Z</time></trkpt><trkpt lat="44.28772928849012" lon="7.952109361276663"><ele>1049.0</ele><time>2026-05-03T08:56:36Z</time></trkpt><trkpt lat="44.287796555279705" lon="7.952066091910142"><ele>1050.0</ele><time>2026-05-03T08:56:40Z</time></trkpt><trkpt lat="44.2878832025149" lon="7.952049146540728"><ele>1050.0</ele><time>2026-05-03T08:56:42Z</time></trkpt><trkpt lat="44.287958141032846" lon="7.95205595009984"><ele>1050.0</ele><time>2026-05-03T08:56:43Z</time></trkpt><trkpt lat="44.28803882971187" lon="7.9520620140891785"><ele>1050.0</ele><time>2026-05-03T08:56:44Z</time></trkpt><trkpt lat="44.2881096813014" lon="7.952064508730066"><ele>1050.0</ele><time>2026-05-03T08:56:45Z</time></trkpt><trkpt lat="44.288236798444196" lon="7.95205855568162"><ele>1050.0</ele><time>2026-05-03T08:56:47Z</time></trkpt><trkpt lat="44.28831046464712" lon="7.952051558743775"><ele>1050.0</ele><time>2026-05-03T08:56:48Z</time></trkpt><trkpt lat="44.288374839042156" lon="7.952049134160988"><ele>1052.0</ele><time>2026-05-03T08:56:49Z</time></trkpt><trkpt lat="44.28844793203639" lon="7.952050879748481"><ele>1054.0</ele><time>2026-05-03T08:56:50Z</time></trkpt><trkpt lat="44.288519998378455" lon="7.952043467042391"><ele>1056.0</ele><time>2026-05-03T08:56:51Z</time></trkpt><trkpt lat="44.288584024989675" lon="7.952037636191974"><ele>1058.0</ele><time>2026-05-03T08:56:52Z</time></trkpt><trkpt lat="44.288647231133844" lon="7.952022492214671"><ele>1060.0</ele><time>2026-05-03T08:56:53Z</time></trkpt><trkpt lat="44.28874313200297" lon="7.95196741265029"><ele>1062.0</ele><time>2026-05-03T08:56:55Z</time></trkpt><trkpt lat="44.28881906136354" lon="7.951865919292456"><ele>1062.0</ele><time>2026-05-03T08:56:57Z</time></trkpt><trkpt lat="44.28885255309672" lon="7.951779846061454"><ele>1062.0</ele><time>2026-05-03T08:56:58Z</time></trkpt><trkpt lat="44.28887899487907" lon="7.951667198738671"><ele>1062.0</ele><time>2026-05-03T08:56:59Z</time></trkpt><trkpt lat="44.28889989556126" lon="7.951544053033884"><ele>1062.0</ele><time>2026-05-03T08:57:00Z</time></trkpt><trkpt lat="44.288914307991995" lon="7.951442231945126"><ele>1062.0</ele><time>2026-05-03T08:57:01Z</time></trkpt><trkpt lat="44.28893321734344" lon="7.951327178429705"><ele>1062.0</ele><time>2026-05-03T08:57:02.999Z</time></trkpt><trkpt lat="44.289004320378744" lon="7.951199085931587"><ele>1062.8</ele><time>2026-05-03T08:57:04.999Z</time></trkpt><trkpt lat="44.28910047073209" lon="7.951136428020247"><ele>1063.6</ele><time>2026-05-03T08:57:06.999Z</time></trkpt><trkpt lat="44.289229353957815" lon="7.951068836838379"><ele>1064.3999999999999</ele><time>2026-05-03T08:57:08.999Z</time></trkpt><trkpt lat="44.289291496135" lon="7.951041647776218"><ele>1065.2</ele><time>2026-05-03T08:57:09.999Z</time></trkpt><trkpt lat="44.28936733017297" lon="7.951006444878119"><ele>1066.0</ele><time>2026-05-03T08:57:10.999Z</time></trkpt><trkpt lat="44.28948406500989" lon="7.95094530118391"><ele>1066.0</ele><time>2026-05-03T08:57:12.999Z</time></trkpt><trkpt lat="44.28958160296795" lon="7.9508760254216915"><ele>1066.0</ele><time>2026-05-03T08:57:14.999Z</time></trkpt><trkpt lat="44.28969060704239" lon="7.9508318944141685"><ele>1066.0</ele><time>2026-05-03T08:57:16.999Z</time></trkpt><trkpt lat="44.28977591401788" lon="7.950801742658395"><ele>1066.0</ele><time>2026-05-03T08:57:19.999Z</time></trkpt><trkpt lat="44.28987556620773" lon="7.950770441641482"><ele>1066.0</ele><time>2026-05-03T08:57:21.999Z</time></trkpt><trkpt lat="44.29000904819071" lon="7.950711123669158"><ele>1066.3333333333333</ele><time>2026-05-03T08:57:23.999Z</time></trkpt><trkpt lat="44.29031581194043" lon="7.950553033059978"><ele>1066.6666666666667</ele><time>2026-05-03T08:57:28.999Z</time></trkpt><trkpt lat="44.29040563883351" lon="7.950526143854936"><ele>1067.0</ele><time>2026-05-03T08:57:30.999Z</time></trkpt><trkpt lat="44.29051011648223" lon="7.950461880384108"><ele>1067.0</ele><time>2026-05-03T08:57:32.999Z</time></trkpt><trkpt lat="44.290570632119326" lon="7.950424276210493"><ele>1067.0</ele><time>2026-05-03T08:57:33.999Z</time></trkpt><trkpt lat="44.29067860278953" lon="7.9503520518815"><ele>1067.0</ele><time>2026-05-03T08:57:36.999Z</time></trkpt><trkpt lat="44.29075651393237" lon="7.950267204383444"><ele>1067.0</ele><time>2026-05-03T08:57:38.999Z</time></trkpt><trkpt lat="44.29084047626745" lon="7.95021299481577"><ele>1067.0</ele><time>2026-05-03T08:57:40.999Z</time></trkpt><trkpt lat="44.290940866755854" lon="7.950133537918689"><ele>1067.8333333333335</ele><time>2026-05-03T08:57:46.999Z</time></trkpt><trkpt lat="44.29101895280608" lon="7.950094569968667"><ele>1068.6666666666667</ele><time>2026-05-03T08:57:49.999Z</time></trkpt><trkpt lat="44.291108481367175" lon="7.950034748319325"><ele>1069.5</ele><time>2026-05-03T08:57:52.999Z</time></trkpt><trkpt lat="44.29120578206902" lon="7.9500112251318376"><ele>1070.3333333333333</ele><time>2026-05-03T08:57:55.999Z</time></trkpt><trkpt lat="44.2912777460434" lon="7.949983593233275"><ele>1071.1666666666665</ele><time>2026-05-03T08:57:58.999Z</time></trkpt><trkpt lat="44.29135954626471" lon="7.949967820787115"><ele>1072.0</ele><time>2026-05-03T08:57:59.999Z</time></trkpt><trkpt lat="44.291533918256036" lon="7.94992361496685"><ele>1072.0</ele><time>2026-05-03T08:58:01.998Z</time></trkpt><trkpt lat="44.29162646068231" lon="7.949933407624723"><ele>1072.0</ele><time>2026-05-03T08:58:04.998Z</time></trkpt><trkpt lat="44.291760005684026" lon="7.949936760068537"><ele>1072.0</ele><time>2026-05-03T08:58:06.998Z</time></trkpt><trkpt lat="44.291844557824064" lon="7.949941947327152"><ele>1072.0</ele><time>2026-05-03T08:58:07.998Z</time></trkpt><trkpt lat="44.29190476374432" lon="7.949975348673502"><ele>1072.0</ele><time>2026-05-03T08:58:08.998Z</time></trkpt><trkpt lat="44.29196737580594" lon="7.950021663245582"><ele>1072.0</ele><time>2026-05-03T08:58:10.998Z</time></trkpt><trkpt lat="44.29205243282585" lon="7.95006116348026"><ele>1072.0</ele><time>2026-05-03T08:58:11.998Z</time></trkpt><trkpt lat="44.292108595378934" lon="7.950197216125347"><ele>1072.0</ele><time>2026-05-03T08:58:13.998Z</time></trkpt><trkpt lat="44.29216267322987" lon="7.950272332377375"><ele>1072.0</ele><time>2026-05-03T08:58:15.998Z</time></trkpt><trkpt lat="44.29221941437234" lon="7.950374606741203"><ele>1072.0</ele><time>2026-05-03T08:58:18.998Z</time></trkpt><trkpt lat="44.29226522043714" lon="7.950475866322202"><ele>1072.0</ele><time>2026-05-03T08:58:21.998Z</time></trkpt><trkpt lat="44.292321636653924" lon="7.950576030510727"><ele>1072.0</ele><time>2026-05-03T08:58:25Z</time></trkpt><trkpt lat="44.29241601073113" lon="7.9506026491704205"><ele>1072.0</ele><time>2026-05-03T08:58:28Z</time></trkpt><trkpt lat="44.292425847541736" lon="7.9504516413507975"><ele>1072.0</ele><time>2026-05-03T08:58:57Z</time></trkpt><trkpt lat="44.29235272032928" lon="7.950458445618774"><ele>1072.0</ele><time>2026-05-03T08:59:03Z</time></trkpt><trkpt lat="44.29226925817568" lon="7.950400145825349"><ele>1072.0</ele><time>2026-05-03T08:59:06Z</time></trkpt><trkpt lat="44.29221834576844" lon="7.950326344397629"><ele>1072.0</ele><time>2026-05-03T08:59:08Z</time></trkpt><trkpt lat="44.29216839254513" lon="7.95025016877402"><ele>1072.0</ele><time>2026-05-03T08:59:09.999Z</time></trkpt><trkpt lat="44.29214862390082" lon="7.9501589756629"><ele>1072.0</ele><time>2026-05-03T08:59:10.999Z</time></trkpt><trkpt lat="44.29209396957084" lon="7.95009341321903"><ele>1072.0</ele><time>2026-05-03T08:59:12.999Z</time></trkpt><trkpt lat="44.29203050505094" lon="7.9500195271992995"><ele>1072.0</ele><time>2026-05-03T08:59:14.999Z</time></trkpt><trkpt lat="44.29196261852125" lon="7.949949286549438"><ele>1072.0</ele><time>2026-05-03T08:59:16.999Z</time></trkpt><trkpt lat="44.29186173792391" lon="7.949888344678402"><ele>1072.0</ele><time>2026-05-03T08:59:18.999Z</time></trkpt><trkpt lat="44.291757462780744" lon="7.949861116312111"><ele>1068.4</ele><time>2026-05-03T08:59:20.999Z</time></trkpt><trkpt lat="44.29168199922355" lon="7.949834692638455"><ele>1064.8000000000002</ele><time>2026-05-03T08:59:22.999Z</time></trkpt><trkpt lat="44.29160414213969" lon="7.949834490493883"><ele>1061.2</ele><time>2026-05-03T08:59:24.999Z</time></trkpt><trkpt lat="44.29149692601784" lon="7.949848970624714"><ele>1057.6000000000001</ele><time>2026-05-03T08:59:27.999Z</time></trkpt><trkpt lat="44.291394951048595" lon="7.949893188228539"><ele>1054.0</ele><time>2026-05-03T08:59:29.999Z</time></trkpt><trkpt lat="44.29126977230434" lon="7.9498967015093545"><ele>1053.8</ele><time>2026-05-03T08:59:31.999Z</time></trkpt><trkpt lat="44.29117666447163" lon="7.949950028223819"><ele>1053.6000000000001</ele><time>2026-05-03T08:59:33.999Z</time></trkpt><trkpt lat="44.29108230414584" lon="7.949991674404934"><ele>1053.4</ele><time>2026-05-03T08:59:35.999Z</time></trkpt><trkpt lat="44.2909936271987" lon="7.950033325681489"><ele>1053.2</ele><time>2026-05-03T08:59:38.999Z</time></trkpt><trkpt lat="44.290903998525806" lon="7.950078551637465"><ele>1053.0</ele><time>2026-05-03T08:59:40.999Z</time></trkpt><trkpt lat="44.29077254433297" lon="7.950152037472351"><ele>1055.8</ele><time>2026-05-03T08:59:42.999Z</time></trkpt><trkpt lat="44.29068393271953" lon="7.950234251424345"><ele>1058.6</ele><time>2026-05-03T08:59:44.999Z</time></trkpt><trkpt lat="44.29061158989558" lon="7.950317826517045"><ele>1061.4</ele><time>2026-05-03T08:59:46.999Z</time></trkpt><trkpt lat="44.290497364282615" lon="7.9504004605112755"><ele>1064.2</ele><time>2026-05-03T08:59:48.999Z</time></trkpt><trkpt lat="44.29041205257028" lon="7.950434236759166"><ele>1067.0</ele><time>2026-05-03T08:59:49.999Z</time></trkpt><trkpt lat="44.29031225273363" lon="7.950486452397973"><ele>1067.0</ele><time>2026-05-03T08:59:51.999Z</time></trkpt><trkpt lat="44.29021331744742" lon="7.950567092395612"><ele>1067.0</ele><time>2026-05-03T08:59:53.999Z</time></trkpt><trkpt lat="44.29010899823506" lon="7.9506296204903215"><ele>1067.0</ele><time>2026-05-03T08:59:55.999Z</time></trkpt><trkpt lat="44.289951039376064" lon="7.95069524098954"><ele>1067.0</ele><time>2026-05-03T08:59:57.999Z</time></trkpt><trkpt lat="44.28986981920091" lon="7.95075180678458"><ele>1067.0</ele><time>2026-05-03T08:59:58.999Z</time></trkpt><trkpt lat="44.2897988133187" lon="7.9507565500161625"><ele>1067.0</ele><time>2026-05-03T08:59:59.999Z</time></trkpt><trkpt lat="44.28973661496985" lon="7.950781225598759"><ele>1067.0</ele><time>2026-05-03T09:00:00.999Z</time></trkpt><trkpt lat="44.28967542397598" lon="7.950805936414749"><ele>1067.0</ele><time>2026-05-03T09:00:01.999Z</time></trkpt><trkpt lat="44.28957119644108" lon="7.950867567079944"><ele>1067.0</ele><time>2026-05-03T09:00:03.999Z</time></trkpt><trkpt lat="44.28945390746049" lon="7.95093009798387"><ele>1067.0</ele><time>2026-05-03T09:00:05.999Z</time></trkpt><trkpt lat="44.28935783425227" lon="7.950983779359738"><ele>1066.8</ele><time>2026-05-03T09:00:07.999Z</time></trkpt><trkpt lat="44.289270896708004" lon="7.951021490847235"><ele>1066.6</ele><time>2026-05-03T09:00:09.998Z</time></trkpt><trkpt lat="44.28916507261757" lon="7.9510504210598985"><ele>1066.3999999999999</ele><time>2026-05-03T09:00:11.998Z</time></trkpt><trkpt lat="44.289053202694035" lon="7.951123549983978"><ele>1066.2</ele><time>2026-05-03T09:00:13.998Z</time></trkpt><trkpt lat="44.288991610588546" lon="7.951182888138661"><ele>1066.0</ele><time>2026-05-03T09:00:14.998Z</time></trkpt><trkpt lat="44.28894599060834" lon="7.951244685654566"><ele>1065.2</ele><time>2026-05-03T09:00:15.998Z</time></trkpt><trkpt lat="44.28890370613375" lon="7.951364991843944"><ele>1064.3999999999999</ele><time>2026-05-03T09:00:17.998Z</time></trkpt><trkpt lat="44.28887330692271" lon="7.951520965421623"><ele>1063.6</ele><time>2026-05-03T09:00:19.998Z</time></trkpt><trkpt lat="44.28885520277511" lon="7.951619677638314"><ele>1062.8</ele><time>2026-05-03T09:00:20.998Z</time></trkpt><trkpt lat="44.288837708081424" lon="7.95170992626986"><ele>1062.0</ele><time>2026-05-03T09:00:21.998Z</time></trkpt><trkpt lat="44.28880780589982" lon="7.951841513794857"><ele>1062.0</ele><time>2026-05-03T09:00:23.998Z</time></trkpt><trkpt lat="44.288734720357844" lon="7.951929689212256"><ele>1062.0</ele><time>2026-05-03T09:00:25.998Z</time></trkpt><trkpt lat="44.28865336936752" lon="7.951985778021905"><ele>1062.0</ele><time>2026-05-03T09:00:27.998Z</time></trkpt><trkpt lat="44.28854100598335" lon="7.952008174224071"><ele>1062.0</ele><time>2026-05-03T09:00:29.998Z</time></trkpt><trkpt lat="44.28847820804163" lon="7.952022277476922"><ele>1062.0</ele><time>2026-05-03T09:00:31Z</time></trkpt><trkpt lat="44.28840091926578" lon="7.952024826490208"><ele>1062.0</ele><time>2026-05-03T09:00:32Z</time></trkpt><trkpt lat="44.28833502411387" lon="7.952027270411495"><ele>1062.0</ele><time>2026-05-03T09:00:33Z</time></trkpt><trkpt lat="44.28826703612744" lon="7.952023859560338"><ele>1062.0</ele><time>2026-05-03T09:00:34Z</time></trkpt><trkpt lat="44.28818620417232" lon="7.952022985556238"><ele>1062.0</ele><time>2026-05-03T09:00:35Z</time></trkpt><trkpt lat="44.28811394766247" lon="7.952016544833991"><ele>1062.0</ele><time>2026-05-03T09:00:36Z</time></trkpt><trkpt lat="44.288009597559935" lon="7.952008402623201"><ele>1062.0</ele><time>2026-05-03T09:00:38Z</time></trkpt><trkpt lat="44.287901984957735" lon="7.9520108636923155"><ele>1062.0</ele><time>2026-05-03T09:00:40Z</time></trkpt><trkpt lat="44.28781206293835" lon="7.95203103745029"><ele>1060.0</ele><time>2026-05-03T09:00:43Z</time></trkpt><trkpt lat="44.287727017934394" lon="7.952054681272691"><ele>1058.0</ele><time>2026-05-03T09:00:46Z</time></trkpt><trkpt lat="44.287659233367066" lon="7.952118749336293"><ele>1056.0</ele><time>2026-05-03T09:00:49Z</time></trkpt><trkpt lat="44.28760780735528" lon="7.952205353325513"><ele>1054.0</ele><time>2026-05-03T09:00:52Z</time></trkpt><trkpt lat="44.28757622962125" lon="7.952316990599508"><ele>1052.0</ele><time>2026-05-03T09:00:54Z</time></trkpt><trkpt lat="44.2875411847651" lon="7.952393901730313"><ele>1050.0</ele><time>2026-05-03T09:00:56Z</time></trkpt><trkpt lat="44.287500631524715" lon="7.952484886028423"><ele>1049.0</ele><time>2026-05-03T09:00:58Z</time></trkpt><trkpt lat="44.287450129455955" lon="7.952562924245818"><ele>1048.0</ele><time>2026-05-03T09:01:00Z</time></trkpt><trkpt lat="44.28740102756733" lon="7.952671101416577"><ele>1047.0</ele><time>2026-05-03T09:01:03Z</time></trkpt><trkpt lat="44.2873691448765" lon="7.952766400619812"><ele>1046.0</ele><time>2026-05-03T09:01:13Z</time></trkpt><trkpt lat="44.28733259323326" lon="7.9528441710083975"><ele>1045.0</ele><time>2026-05-03T09:01:18.999Z</time></trkpt><trkpt lat="44.28727673512521" lon="7.952906420585817"><ele>1044.0</ele><time>2026-05-03T09:01:22.999Z</time></trkpt><trkpt lat="44.28718636374156" lon="7.952926817918538"><ele>1043.0</ele><time>2026-05-03T09:01:25.999Z</time></trkpt><trkpt lat="44.287099020429" lon="7.952941170980714"><ele>1042.0</ele><time>2026-05-03T09:01:27.999Z</time></trkpt><trkpt lat="44.287018940217024" lon="7.9529836179914515"><ele>1041.0</ele><time>2026-05-03T09:01:30.999Z</time></trkpt><trkpt lat="44.286952902812416" lon="7.953034328908356"><ele>1040.0</ele><time>2026-05-03T09:01:34.999Z</time></trkpt><trkpt lat="44.28687784882877" lon="7.953038041928583"><ele>1039.0</ele><time>2026-05-03T09:01:37.999Z</time></trkpt><trkpt lat="44.28680671353192" lon="7.952984143995943"><ele>1038.0</ele><time>2026-05-03T09:01:39.999Z</time></trkpt><trkpt lat="44.28671697909339" lon="7.952929541407644"><ele>1038.0</ele><time>2026-05-03T09:01:41.999Z</time></trkpt><trkpt lat="44.2866514057981" lon="7.9528751872673515"><ele>1038.0</ele><time>2026-05-03T09:01:42.999Z</time></trkpt><trkpt lat="44.28660394525404" lon="7.9527872469203675"><ele>1038.0</ele><time>2026-05-03T09:01:43.999Z</time></trkpt><trkpt lat="44.286535213510476" lon="7.9526725108211265"><ele>1038.0</ele><time>2026-05-03T09:01:45.999Z</time></trkpt><trkpt lat="44.286465691293046" lon="7.952616970823046"><ele>1038.0</ele><time>2026-05-03T09:01:47.999Z</time></trkpt><trkpt lat="44.28641449282326" lon="7.952558628701766"><ele>1038.0</ele><time>2026-05-03T09:01:50.999Z</time></trkpt><trkpt lat="44.28634174704781" lon="7.952480809132475"><ele>1038.0</ele><time>2026-05-03T09:01:53.999Z</time></trkpt><trkpt lat="44.28627904462237" lon="7.9524221233369845"><ele>1038.0</ele><time>2026-05-03T09:01:57.999Z</time></trkpt><trkpt lat="44.28630626632522" lon="7.952290507090027"><ele>1038.0</ele><time>2026-05-03T09:02:14.998Z</time></trkpt><trkpt lat="44.286291559029486" lon="7.952382337282351"><ele>1038.0</ele><time>2026-05-03T09:03:56.999Z</time></trkpt><trkpt lat="44.28631208662858" lon="7.9524723411445"><ele>1038.0</ele><time>2026-05-03T09:03:57.999Z</time></trkpt><trkpt lat="44.2863928522042" lon="7.952538936157547"><ele>1038.0</ele><time>2026-05-03T09:03:58.999Z</time></trkpt><trkpt lat="44.286439203476064" lon="7.952676629929188"><ele>1038.0</ele><time>2026-05-03T09:04:00.999Z</time></trkpt><trkpt lat="44.28648946327882" lon="7.952733901971611"><ele>1038.0</ele><time>2026-05-03T09:04:01.999Z</time></trkpt><trkpt lat="44.28654258477591" lon="7.952793995800342"><ele>1038.0</ele><time>2026-05-03T09:04:02.999Z</time></trkpt><trkpt lat="44.286617561215586" lon="7.952872200722786"><ele>1038.0</ele><time>2026-05-03T09:04:04.999Z</time></trkpt><trkpt lat="44.28667819825867" lon="7.95292019151107"><ele>1038.0</ele><time>2026-05-03T09:04:06.999Z</time></trkpt><trkpt lat="44.28673743100183" lon="7.952982612759195"><ele>1038.0</ele><time>2026-05-03T09:04:08.999Z</time></trkpt><trkpt lat="44.28681549152391" lon="7.953042193139039"><ele>1038.0</ele><time>2026-05-03T09:04:11.999Z</time></trkpt><trkpt lat="44.28690624674315" lon="7.953128422591073"><ele>1038.0</ele><time>2026-05-03T09:04:14.999Z</time></trkpt><trkpt lat="44.28700242744616" lon="7.953213458987453"><ele>1038.0</ele><time>2026-05-03T09:04:16.999Z</time></trkpt><trkpt lat="44.287098752988996" lon="7.953282068908841"><ele>1038.0</ele><time>2026-05-03T09:04:18.999Z</time></trkpt><trkpt lat="44.28720140572269" lon="7.953359192557951"><ele>1038.0</ele><time>2026-05-03T09:04:20.998Z</time></trkpt><trkpt lat="44.28730283089517" lon="7.953468499696187"><ele>1034.6</ele><time>2026-05-03T09:04:22.998Z</time></trkpt><trkpt lat="44.28741341776633" lon="7.953571921255045"><ele>1031.1999999999998</ele><time>2026-05-03T09:04:24.998Z</time></trkpt><trkpt lat="44.2874723148626" lon="7.953620886668544"><ele>1027.8</ele><time>2026-05-03T09:04:25.998Z</time></trkpt><trkpt lat="44.2875943897871" lon="7.953727245898336"><ele>1024.3999999999999</ele><time>2026-05-03T09:04:27.998Z</time></trkpt><trkpt lat="44.287661030664424" lon="7.953779128953686"><ele>1021.0</ele><time>2026-05-03T09:04:28.998Z</time></trkpt><trkpt lat="44.287746181028325" lon="7.95382287307467"><ele>1020.9999999999999</ele><time>2026-05-03T09:04:29.998Z</time></trkpt><trkpt lat="44.2878485395949" lon="7.953825695015322"><ele>1021.0</ele><time>2026-05-03T09:04:30.998Z</time></trkpt><trkpt lat="44.28793434379073" lon="7.953856557005888"><ele>1021.0</ele><time>2026-05-03T09:04:31.998Z</time></trkpt><trkpt lat="44.28801169204604" lon="7.953844891198058"><ele>1021.0</ele><time>2026-05-03T09:04:32.998Z</time></trkpt><trkpt lat="44.28808468165761" lon="7.953874662450691"><ele>1020.9999999999999</ele><time>2026-05-03T09:04:33.998Z</time></trkpt><trkpt lat="44.288177027840426" lon="7.953904676452118"><ele>1021.0</ele><time>2026-05-03T09:04:34.998Z</time></trkpt><trkpt lat="44.2882789232666" lon="7.953963918964156"><ele>1022.5999999999999</ele><time>2026-05-03T09:04:35.998Z</time></trkpt><trkpt lat="44.28837007875731" lon="7.954020991837979"><ele>1024.1999999999998</ele><time>2026-05-03T09:04:36.998Z</time></trkpt><trkpt lat="44.288455810431365" lon="7.954089654675354"><ele>1025.8000000000002</ele><time>2026-05-03T09:04:37.998Z</time></trkpt><trkpt lat="44.28853895774809" lon="7.954150268082801"><ele>1027.4</ele><time>2026-05-03T09:04:38.998Z</time></trkpt><trkpt lat="44.28865773687496" lon="7.954206790044298"><ele>1029.0</ele><time>2026-05-03T09:04:39.998Z</time></trkpt><trkpt lat="44.288774935939145" lon="7.954363673092866"><ele>1026.1666666666667</ele><time>2026-05-03T09:04:41.998Z</time></trkpt><trkpt lat="44.28887141869641" lon="7.954427979441721"><ele>1023.3333333333333</ele><time>2026-05-03T09:04:43Z</time></trkpt><trkpt lat="44.288943640139216" lon="7.954508131719195"><ele>1020.5</ele><time>2026-05-03T09:04:44Z</time></trkpt><trkpt lat="44.28900108027441" lon="7.954593206730403"><ele>1017.6666666666666</ele><time>2026-05-03T09:04:45Z</time></trkpt><trkpt lat="44.2890503005322" lon="7.954661027248394"><ele>1014.8333333333333</ele><time>2026-05-03T09:04:46Z</time></trkpt><trkpt lat="44.289108093037406" lon="7.95474340919528"><ele>1012.0</ele><time>2026-05-03T09:04:47Z</time></trkpt><trkpt lat="44.28916518092889" lon="7.954817290594487"><ele>1012.0</ele><time>2026-05-03T09:04:48Z</time></trkpt><trkpt lat="44.289229972150736" lon="7.9548934874781105"><ele>1012.0</ele><time>2026-05-03T09:04:49Z</time></trkpt><trkpt lat="44.28931158681161" lon="7.954936132854095"><ele>1012.0</ele><time>2026-05-03T09:04:50Z</time></trkpt><trkpt lat="44.289408059274656" lon="7.9549901112732035"><ele>1012.0</ele><time>2026-05-03T09:04:51Z</time></trkpt><trkpt lat="44.28950696195121" lon="7.955041806187601"><ele>1012.0</ele><time>2026-05-03T09:04:52Z</time></trkpt><trkpt lat="44.28960677980783" lon="7.955092326386501"><ele>1007.5</ele><time>2026-05-03T09:04:53Z</time></trkpt><trkpt lat="44.28972269824673" lon="7.95514715497235"><ele>1003.0</ele><time>2026-05-03T09:04:54Z</time></trkpt><trkpt lat="44.28981965388718" lon="7.9551898721465175"><ele>998.5</ele><time>2026-05-03T09:04:55Z</time></trkpt><trkpt lat="44.28993416097051" lon="7.955220274265928"><ele>994.0</ele><time>2026-05-03T09:04:56Z</time></trkpt><trkpt lat="44.29004105031862" lon="7.955250893402037"><ele>994.0</ele><time>2026-05-03T09:04:57Z</time></trkpt><trkpt lat="44.29015240733626" lon="7.955293619280157"><ele>994.0</ele><time>2026-05-03T09:04:58Z</time></trkpt><trkpt lat="44.29024150720354" lon="7.95538047226336"><ele>994.0</ele><time>2026-05-03T09:04:59Z</time></trkpt><trkpt lat="44.29036143892819" lon="7.955489626021946"><ele>994.0</ele><time>2026-05-03T09:05:01Z</time></trkpt><trkpt lat="44.29042889038796" lon="7.955603790496702"><ele>993.9999999999999</ele><time>2026-05-03T09:05:02Z</time></trkpt><trkpt lat="44.290497810497705" lon="7.955675552697999"><ele>994.0</ele><time>2026-05-03T09:05:03Z</time></trkpt><trkpt lat="44.290576523184114" lon="7.955721281876513"><ele>994.0</ele><time>2026-05-03T09:05:04Z</time></trkpt><trkpt lat="44.29065224536427" lon="7.955780413190367"><ele>994.0</ele><time>2026-05-03T09:05:05Z</time></trkpt><trkpt lat="44.290735713492886" lon="7.95584270320418"><ele>993.9999999999999</ele><time>2026-05-03T09:05:06Z</time></trkpt><trkpt lat="44.290810156090316" lon="7.9558864658608694"><ele>994.0</ele><time>2026-05-03T09:05:07Z</time></trkpt><trkpt lat="44.29089142116885" lon="7.9559377137089005"><ele>993.1666666666666</ele><time>2026-05-03T09:05:08Z</time></trkpt><trkpt lat="44.29095348229423" lon="7.955974718917359"><ele>992.3333333333333</ele><time>2026-05-03T09:05:09Z</time></trkpt><trkpt lat="44.291033514734295" lon="7.956069293621254"><ele>991.5</ele><time>2026-05-03T09:05:11Z</time></trkpt><trkpt lat="44.291034226851885" lon="7.956157492250238"><ele>990.6666666666667</ele><time>2026-05-03T09:05:13Z</time></trkpt><trkpt lat="44.290953184725865" lon="7.956215523773064"><ele>989.8333333333334</ele><time>2026-05-03T09:05:16Z</time></trkpt><trkpt lat="44.290896542302264" lon="7.9561686221169134"><ele>989.0</ele><time>2026-05-03T09:05:17Z</time></trkpt><trkpt lat="44.29081401877622" lon="7.956086722922449"><ele>989.0000000000001</ele><time>2026-05-03T09:05:19Z</time></trkpt><trkpt lat="44.290749545604605" lon="7.956014240986342"><ele>989.0</ele><time>2026-05-03T09:05:21Z</time></trkpt><trkpt lat="44.29065084552253" lon="7.9559522206266236"><ele>989.0</ele><time>2026-05-03T09:05:23Z</time></trkpt><trkpt lat="44.290560279387414" lon="7.955918151659457"><ele>989.0</ele><time>2026-05-03T09:05:23.999Z</time></trkpt><trkpt lat="44.290490645180924" lon="7.955916022033635"><ele>989.0000000000001</ele><time>2026-05-03T09:05:24.999Z</time></trkpt><trkpt lat="44.290421666294165" lon="7.955899892366834"><ele>989.0</ele><time>2026-05-03T09:05:25.999Z</time></trkpt><trkpt lat="44.29036306960281" lon="7.955861472939857"><ele>989.8333333333334</ele><time>2026-05-03T09:05:26.999Z</time></trkpt><trkpt lat="44.290284153880435" lon="7.955864012694441"><ele>990.6666666666667</ele><time>2026-05-03T09:05:27.999Z</time></trkpt><trkpt lat="44.2901929386554" lon="7.9558329437717195"><ele>991.5</ele><time>2026-05-03T09:05:28.999Z</time></trkpt><trkpt lat="44.29010409784698" lon="7.955802919202484"><ele>992.3333333333333</ele><time>2026-05-03T09:05:29.999Z</time></trkpt><trkpt lat="44.290003614287286" lon="7.955776516464918"><ele>993.1666666666666</ele><time>2026-05-03T09:05:30.999Z</time></trkpt><trkpt lat="44.289925038757396" lon="7.9557474585620644"><ele>994.0</ele><time>2026-05-03T09:05:31.999Z</time></trkpt><trkpt lat="44.28985011073306" lon="7.955723581096492"><ele>993.9999999999999</ele><time>2026-05-03T09:05:32.999Z</time></trkpt><trkpt lat="44.2897841641526" lon="7.95569356072596"><ele>994.0</ele><time>2026-05-03T09:05:33.999Z</time></trkpt><trkpt lat="44.28971999088602" lon="7.955686360854638"><ele>994.0</ele><time>2026-05-03T09:05:34.999Z</time></trkpt><trkpt lat="44.289601207277435" lon="7.955705762996957"><ele>994.0</ele><time>2026-05-03T09:05:36.999Z</time></trkpt><trkpt lat="44.28954431229614" lon="7.955746344615546"><ele>993.9999999999999</ele><time>2026-05-03T09:05:37.999Z</time></trkpt><trkpt lat="44.289490826226626" lon="7.955794118748233"><ele>994.0</ele><time>2026-05-03T09:05:38.999Z</time></trkpt><trkpt lat="44.28944410362392" lon="7.955865654168897"><ele>989.8000000000001</ele><time>2026-05-03T09:05:39.999Z</time></trkpt><trkpt lat="44.289392979668236" lon="7.955973629247207"><ele>985.6000000000001</ele><time>2026-05-03T09:05:40.999Z</time></trkpt><trkpt lat="44.28931282131465" lon="7.956111716373393"><ele>981.4</ele><time>2026-05-03T09:05:41.999Z</time></trkpt><trkpt lat="44.2892568170118" lon="7.956225245996161"><ele>977.2</ele><time>2026-05-03T09:05:42.999Z</time></trkpt><trkpt lat="44.289191897400094" lon="7.956335878768627"><ele>973.0</ele><time>2026-05-03T09:05:43.999Z</time></trkpt><trkpt lat="44.28913511895512" lon="7.956428176557178"><ele>972.9999999999999</ele><time>2026-05-03T09:05:44.999Z</time></trkpt><trkpt lat="44.2890912869051" lon="7.956507758198096"><ele>973.0</ele><time>2026-05-03T09:05:45.999Z</time></trkpt><trkpt lat="44.28901097810819" lon="7.956602462559517"><ele>973.0</ele><time>2026-05-03T09:05:47.999Z</time></trkpt><trkpt lat="44.288949901401956" lon="7.956625968925377"><ele>973.0</ele><time>2026-05-03T09:05:48.999Z</time></trkpt><trkpt lat="44.28885504902988" lon="7.956636118626419"><ele>972.9999999999999</ele><time>2026-05-03T09:05:49.999Z</time></trkpt><trkpt lat="44.288750061705485" lon="7.9566241300712415"><ele>973.0</ele><time>2026-05-03T09:05:50.999Z</time></trkpt><trkpt lat="44.28866023615613" lon="7.956618006668362"><ele>973.8333333333333</ele><time>2026-05-03T09:05:51.999Z</time></trkpt><trkpt lat="44.28856286477175" lon="7.956617824755711"><ele>974.6666666666666</ele><time>2026-05-03T09:05:52.999Z</time></trkpt><trkpt lat="44.28847925425794" lon="7.956619302960575"><ele>975.5</ele><time>2026-05-03T09:05:53.999Z</time></trkpt><trkpt lat="44.288397954315684" lon="7.956620631220883"><ele>976.3333333333333</ele><time>2026-05-03T09:05:54.999Z</time></trkpt><trkpt lat="44.288314600612885" lon="7.956629273269434"><ele>977.1666666666666</ele><time>2026-05-03T09:05:55.999Z</time></trkpt><trkpt lat="44.28821967527612" lon="7.956655005855458"><ele>978.0</ele><time>2026-05-03T09:05:56.999Z</time></trkpt><trkpt lat="44.28812826517453" lon="7.956700398445722"><ele>974.8333333333334</ele><time>2026-05-03T09:05:57.999Z</time></trkpt><trkpt lat="44.28804337574663" lon="7.956757276453189"><ele>971.6666666666667</ele><time>2026-05-03T09:05:58.999Z</time></trkpt><trkpt lat="44.28796169131226" lon="7.956818847317562"><ele>968.5</ele><time>2026-05-03T09:05:59.999Z</time></trkpt><trkpt lat="44.287895591388875" lon="7.9568743593008655"><ele>965.3333333333334</ele><time>2026-05-03T09:06:00.999Z</time></trkpt><trkpt lat="44.28782789890628" lon="7.956917204747079"><ele>962.1666666666667</ele><time>2026-05-03T09:06:01.999Z</time></trkpt><trkpt lat="44.287757823590105" lon="7.956940948077524"><ele>959.0</ele><time>2026-05-03T09:06:02.999Z</time></trkpt><trkpt lat="44.287692917980486" lon="7.956948204146455"><ele>959.0000000000001</ele><time>2026-05-03T09:06:03.999Z</time></trkpt><trkpt lat="44.28761808349939" lon="7.956953843505023"><ele>959.0</ele><time>2026-05-03T09:06:04.999Z</time></trkpt><trkpt lat="44.28753222386078" lon="7.956948839827822"><ele>959.0</ele><time>2026-05-03T09:06:05.999Z</time></trkpt><trkpt lat="44.28745695432616" lon="7.956924690421196"><ele>959.0</ele><time>2026-05-03T09:06:06.999Z</time></trkpt><trkpt lat="44.2873961688465" lon="7.956897029734679"><ele>959.0000000000001</ele><time>2026-05-03T09:06:07.999Z</time></trkpt><trkpt lat="44.28727863452941" lon="7.956864213753465"><ele>959.0</ele><time>2026-05-03T09:06:09.999Z</time></trkpt><trkpt lat="44.28718542269433" lon="7.956876243375995"><ele>959.0</ele><time>2026-05-03T09:06:11.999Z</time></trkpt><trkpt lat="44.28721118296854" lon="7.956957641768168"><ele>959.0000000000001</ele><time>2026-05-03T09:06:13.999Z</time></trkpt><trkpt lat="44.28725994901517" lon="7.95715622602397"><ele>959.0000000000001</ele><time>2026-05-03T09:06:15.999Z</time></trkpt><trkpt lat="44.28737862664907" lon="7.9572168055853645"><ele>959.0</ele><time>2026-05-03T09:06:16.999Z</time></trkpt><trkpt lat="44.28744464922949" lon="7.957261533293636"><ele>959.0</ele><time>2026-05-03T09:06:17.999Z</time></trkpt><trkpt lat="44.28758797504587" lon="7.9573686252149916"><ele>959.0</ele><time>2026-05-03T09:06:19.999Z</time></trkpt><trkpt lat="44.2876781096991" lon="7.957443089001441"><ele>959.0000000000001</ele><time>2026-05-03T09:06:20.999Z</time></trkpt><trkpt lat="44.28776120057683" lon="7.957476026038105"><ele>959.0000000000001</ele><time>2026-05-03T09:06:21.999Z</time></trkpt><trkpt lat="44.28784370988645" lon="7.957511921186908"><ele>959.0</ele><time>2026-05-03T09:06:22.998Z</time></trkpt><trkpt lat="44.2879416281743" lon="7.957572044397741"><ele>959.0</ele><time>2026-05-03T09:06:23.998Z</time></trkpt><trkpt lat="44.28805277301994" lon="7.957586077969711"><ele>955.8333333333334</ele><time>2026-05-03T09:06:24.998Z</time></trkpt><trkpt lat="44.288165935856696" lon="7.957627895804054"><ele>952.6666666666667</ele><time>2026-05-03T09:06:25.998Z</time></trkpt><trkpt lat="44.288261725073404" lon="7.957652046702901"><ele>949.5</ele><time>2026-05-03T09:06:26.998Z</time></trkpt><trkpt lat="44.28834391060105" lon="7.957682612475578"><ele>946.3333333333333</ele><time>2026-05-03T09:06:27.998Z</time></trkpt><trkpt lat="44.288427087876606" lon="7.957704346162294"><ele>943.1666666666666</ele><time>2026-05-03T09:06:28.998Z</time></trkpt><trkpt lat="44.28849050426195" lon="7.957720332723474"><ele>940.0</ele><time>2026-05-03T09:06:29.998Z</time></trkpt><trkpt lat="44.2885667191753" lon="7.9577404100556945"><ele>940.0</ele><time>2026-05-03T09:06:30.998Z</time></trkpt><trkpt lat="44.288641415730126" lon="7.957766530193897"><ele>940.0</ele><time>2026-05-03T09:06:31.998Z</time></trkpt><trkpt lat="44.288715123620605" lon="7.957774639251279"><ele>940.0</ele><time>2026-05-03T09:06:32.998Z</time></trkpt><trkpt lat="44.28886065149557" lon="7.957772281000457"><ele>940.0</ele><time>2026-05-03T09:06:34.998Z</time></trkpt><trkpt lat="44.28894715282786" lon="7.9577575288555105"><ele>940.0</ele><time>2026-05-03T09:06:35.998Z</time></trkpt><trkpt lat="44.28905838482124" lon="7.9577295012375036"><ele>938.8</ele><time>2026-05-03T09:06:36.998Z</time></trkpt><trkpt lat="44.289184189720736" lon="7.957700021231172"><ele>937.6</ele><time>2026-05-03T09:06:38.998Z</time></trkpt><trkpt lat="44.289324745041064" lon="7.957660971589551"><ele>936.4000000000001</ele><time>2026-05-03T09:06:40.998Z</time></trkpt><trkpt lat="44.28940458436497" lon="7.957661828993544"><ele>935.2</ele><time>2026-05-03T09:06:41.998Z</time></trkpt><trkpt lat="44.28947424277905" lon="7.957673073633387"><ele>934.0</ele><time>2026-05-03T09:06:42.998Z</time></trkpt><trkpt lat="44.28953247492602" lon="7.957710772837382"><ele>933.9999999999999</ele><time>2026-05-03T09:06:43.998Z</time></trkpt><trkpt lat="44.28959356861714" lon="7.957826044408659"><ele>934.0</ele><time>2026-05-03T09:06:45.998Z</time></trkpt><trkpt lat="44.289582587444386" lon="7.957921057365155"><ele>934.0</ele><time>2026-05-03T09:06:46.998Z</time></trkpt><trkpt lat="44.289591599234704" lon="7.9580366179822555"><ele>934.0</ele><time>2026-05-03T09:06:47.998Z</time></trkpt><trkpt lat="44.28960943833897" lon="7.9581845661690815"><ele>933.9999999999999</ele><time>2026-05-03T09:06:49Z</time></trkpt><trkpt lat="44.289619447954294" lon="7.958290740020328"><ele>934.0</ele><time>2026-05-03T09:06:50Z</time></trkpt><trkpt lat="44.28964032560865" lon="7.958377237453393"><ele>932.0</ele><time>2026-05-03T09:06:51Z</time></trkpt><trkpt lat="44.28967223683747" lon="7.958534048930031"><ele>930.0</ele><time>2026-05-03T09:06:53Z</time></trkpt><trkpt lat="44.28970851271561" lon="7.958689168357434"><ele>928.0</ele><time>2026-05-03T09:06:55Z</time></trkpt><trkpt lat="44.289785285545676" lon="7.958795745199762"><ele>926.0</ele><time>2026-05-03T09:06:57Z</time></trkpt><trkpt lat="44.28990676508859" lon="7.958827736144383"><ele>926.0000000000001</ele><time>2026-05-03T09:06:59Z</time></trkpt><trkpt lat="44.289979349270986" lon="7.958835326156292"><ele>926.0</ele><time>2026-05-03T09:07:00Z</time></trkpt><trkpt lat="44.290049614055754" lon="7.958838677287109"><ele>926.0</ele><time>2026-05-03T09:07:01Z</time></trkpt><trkpt lat="44.29011658770785" lon="7.9588380713628135"><ele>926.0</ele><time>2026-05-03T09:07:02Z</time></trkpt><trkpt lat="44.290188074217454" lon="7.958833636541977"><ele>926.0000000000001</ele><time>2026-05-03T09:07:03Z</time></trkpt><trkpt lat="44.29025288512777" lon="7.958823459310644"><ele>926.0</ele><time>2026-05-03T09:07:04Z</time></trkpt><trkpt lat="44.29037595179186" lon="7.958820672665122"><ele>926.0</ele><time>2026-05-03T09:07:06Z</time></trkpt><trkpt lat="44.29046205273077" lon="7.958823621481021"><ele>925.9999999999999</ele><time>2026-05-03T09:07:08Z</time></trkpt><trkpt lat="44.29057870121275" lon="7.9588626965315"><ele>925.9999999999999</ele><time>2026-05-03T09:07:10Z</time></trkpt><trkpt lat="44.290582483308" lon="7.9589534553886185"><ele>926.0</ele><time>2026-05-03T09:07:11Z</time></trkpt><trkpt lat="44.2906253684507" lon="7.959118722525219"><ele>926.0</ele><time>2026-05-03T09:07:12Z</time></trkpt><trkpt lat="44.29064914123529" lon="7.9592386141100695"><ele>924.6666666666667</ele><time>2026-05-03T09:07:13Z</time></trkpt><trkpt lat="44.29067507471857" lon="7.959344966620449"><ele>923.3333333333334</ele><time>2026-05-03T09:07:14Z</time></trkpt><trkpt lat="44.29069829031953" lon="7.959450546704548"><ele>922.0</ele><time>2026-05-03T09:07:15Z</time></trkpt><trkpt lat="44.29071325030998" lon="7.959607685196041"><ele>920.6666666666667</ele><time>2026-05-03T09:07:17Z</time></trkpt><trkpt lat="44.2907162427878" lon="7.959697434297847"><ele>919.3333333333334</ele><time>2026-05-03T09:07:18Z</time></trkpt><trkpt lat="44.290721961580296" lon="7.959796849943313"><ele>918.0</ele><time>2026-05-03T09:07:19Z</time></trkpt><trkpt lat="44.290734427072124" lon="7.959896630993311"><ele>918.0</ele><time>2026-05-03T09:07:20Z</time></trkpt><trkpt lat="44.29075621483157" lon="7.959994378576164"><ele>918.0</ele><time>2026-05-03T09:07:21Z</time></trkpt><trkpt lat="44.29080283338094" lon="7.960150062922304"><ele>918.0</ele><time>2026-05-03T09:07:23Z</time></trkpt><trkpt lat="44.290878994748724" lon="7.960297869549457"><ele>918.0</ele><time>2026-05-03T09:07:25Z</time></trkpt><trkpt lat="44.29094119042665" lon="7.960405736955605"><ele>918.0</ele><time>2026-05-03T09:07:27Z</time></trkpt><trkpt lat="44.29099904000127" lon="7.960516230106693"><ele>914.4</ele><time>2026-05-03T09:07:29Z</time></trkpt><trkpt lat="44.29097388732667" lon="7.960620891363479"><ele>910.8</ele><time>2026-05-03T09:07:32.999Z</time></trkpt><trkpt lat="44.290861332714286" lon="7.960588632695433"><ele>907.2</ele><time>2026-05-03T09:07:35.999Z</time></trkpt><trkpt lat="44.29073930709924" lon="7.960523815206444"><ele>903.6</ele><time>2026-05-03T09:07:37.999Z</time></trkpt><trkpt lat="44.29066758510372" lon="7.960472676072488"><ele>900.0</ele><time>2026-05-03T09:07:38.999Z</time></trkpt><trkpt lat="44.2905873782415" lon="7.960416053871806"><ele>899.8</ele><time>2026-05-03T09:07:39.999Z</time></trkpt><trkpt lat="44.29051496017945" lon="7.960361935184455"><ele>899.6</ele><time>2026-05-03T09:07:40.999Z</time></trkpt><trkpt lat="44.29039955365979" lon="7.960288570611711"><ele>899.4000000000001</ele><time>2026-05-03T09:07:42.999Z</time></trkpt><trkpt lat="44.29033991466773" lon="7.960259276588926"><ele>899.2</ele><time>2026-05-03T09:07:43.999Z</time></trkpt><trkpt lat="44.290222581865066" lon="7.9601742678328895"><ele>899.0</ele><time>2026-05-03T09:07:45.999Z</time></trkpt><trkpt lat="44.290139859125844" lon="7.960174510978385"><ele>899.0</ele><time>2026-05-03T09:07:47.999Z</time></trkpt><trkpt lat="44.29010403787912" lon="7.96026635185195"><ele>899.0000000000001</ele><time>2026-05-03T09:07:51.999Z</time></trkpt><trkpt lat="44.290077353354675" lon="7.9603536273832995"><ele>899.0000000000001</ele><time>2026-05-03T09:07:52.999Z</time></trkpt><trkpt lat="44.29014713796716" lon="7.960524570510729"><ele>899.0</ele><time>2026-05-03T09:07:54.999Z</time></trkpt><trkpt lat="44.29020884759227" lon="7.960602453967851"><ele>899.0</ele><time>2026-05-03T09:07:55.999Z</time></trkpt><trkpt lat="44.29026458077388" lon="7.9606882721082215"><ele>899.0</ele><time>2026-05-03T09:07:56.999Z</time></trkpt><trkpt lat="44.2903919379914" lon="7.960768597573245"><ele>899.0000000000001</ele><time>2026-05-03T09:07:57.999Z</time></trkpt><trkpt lat="44.29046183743073" lon="7.960852553028463"><ele>899.0000000000001</ele><time>2026-05-03T09:07:58.999Z</time></trkpt><trkpt lat="44.290551437961916" lon="7.960955476014939"><ele>899.0</ele><time>2026-05-03T09:07:59.999Z</time></trkpt><trkpt lat="44.29063599560576" lon="7.961030016948186"><ele>899.0</ele><time>2026-05-03T09:08:00.999Z</time></trkpt><trkpt lat="44.29069810356828" lon="7.96110685841637"><ele>897.0000000000001</ele><time>2026-05-03T09:08:01.999Z</time></trkpt><trkpt lat="44.29077852979265" lon="7.961166936776303"><ele>895.0</ele><time>2026-05-03T09:08:02.999Z</time></trkpt><trkpt lat="44.29086847376136" lon="7.961183204541249"><ele>893.0</ele><time>2026-05-03T09:08:04.999Z</time></trkpt><trkpt lat="44.29092226669398" lon="7.96128110069023"><ele>891.0</ele><time>2026-05-03T09:08:06.999Z</time></trkpt><trkpt lat="44.29097088204546" lon="7.961356822860029"><ele>889.0000000000001</ele><time>2026-05-03T09:08:07.999Z</time></trkpt><trkpt lat="44.29099486837559" lon="7.961478172907239"><ele>887.0</ele><time>2026-05-03T09:08:08.999Z</time></trkpt><trkpt lat="44.29099899367239" lon="7.961595813037869"><ele>887.0000000000001</ele><time>2026-05-03T09:08:09.999Z</time></trkpt><trkpt lat="44.29102469387392" lon="7.9616869588834325"><ele>887.0</ele><time>2026-05-03T09:08:10.999Z</time></trkpt><trkpt lat="44.29105049009276" lon="7.96177416338047"><ele>887.0</ele><time>2026-05-03T09:08:11.999Z</time></trkpt><trkpt lat="44.29107313160311" lon="7.961878023307844"><ele>887.0</ele><time>2026-05-03T09:08:12.999Z</time></trkpt><trkpt lat="44.29108246912556" lon="7.962088924559384"><ele>887.0000000000001</ele><time>2026-05-03T09:08:14.999Z</time></trkpt><trkpt lat="44.29109494990863" lon="7.962186639536511"><ele>887.0</ele><time>2026-05-03T09:08:15.999Z</time></trkpt><trkpt lat="44.291099003502886" lon="7.962288371177434"><ele>884.8333333333334</ele><time>2026-05-03T09:08:16.999Z</time></trkpt><trkpt lat="44.29110389135607" lon="7.962376873888102"><ele>882.6666666666667</ele><time>2026-05-03T09:08:17.999Z</time></trkpt><trkpt lat="44.291086844803935" lon="7.962474522201108"><ele>880.5</ele><time>2026-05-03T09:08:18.999Z</time></trkpt><trkpt lat="44.29106316262854" lon="7.962589374117658"><ele>878.3333333333333</ele><time>2026-05-03T09:08:19.999Z</time></trkpt><trkpt lat="44.29102437357226" lon="7.962702099955066"><ele>876.1666666666666</ele><time>2026-05-03T09:08:20.999Z</time></trkpt><trkpt lat="44.29100376245582" lon="7.962811519164464"><ele>874.0</ele><time>2026-05-03T09:08:21.999Z</time></trkpt><trkpt lat="44.29098383923833" lon="7.962916324429953"><ele>872.9999999999999</ele><time>2026-05-03T09:08:22.999Z</time></trkpt><trkpt lat="44.2909678397137" lon="7.96300205168591"><ele>872.0</ele><time>2026-05-03T09:08:23.999Z</time></trkpt><trkpt lat="44.29094904265877" lon="7.963086869529043"><ele>871.0</ele><time>2026-05-03T09:08:24.999Z</time></trkpt><trkpt lat="44.290914211116814" lon="7.963169138775239"><ele>870.0</ele><time>2026-05-03T09:08:25.999Z</time></trkpt><trkpt lat="44.29087813442994" lon="7.96332770614969"><ele>868.9999999999999</ele><time>2026-05-03T09:08:27.999Z</time></trkpt><trkpt lat="44.29085068587147" lon="7.963475706619647"><ele>868.0</ele><time>2026-05-03T09:08:29.998Z</time></trkpt><trkpt lat="44.29085610595812" lon="7.9636027653316"><ele>866.5999999999999</ele><time>2026-05-03T09:08:31.998Z</time></trkpt><trkpt lat="44.29089774203952" lon="7.963711323645365"><ele>865.1999999999999</ele><time>2026-05-03T09:08:33.998Z</time></trkpt><trkpt lat="44.291004016061784" lon="7.963785457426221"><ele>863.8</ele><time>2026-05-03T09:08:35.998Z</time></trkpt><trkpt lat="44.29108138832396" lon="7.963816955026631"><ele>862.4</ele><time>2026-05-03T09:08:36.998Z</time></trkpt><trkpt lat="44.29115812211648" lon="7.963860697236416"><ele>861.0</ele><time>2026-05-03T09:08:37.998Z</time></trkpt><trkpt lat="44.29124242847336" lon="7.963913808977161"><ele>861.0</ele><time>2026-05-03T09:08:38.998Z</time></trkpt><trkpt lat="44.29132994592712" lon="7.963946846232155"><ele>861.0</ele><time>2026-05-03T09:08:39.998Z</time></trkpt><trkpt lat="44.29139965146235" lon="7.963972154479212"><ele>861.0</ele><time>2026-05-03T09:08:40.998Z</time></trkpt><trkpt lat="44.29147348216581" lon="7.9639944261135875"><ele>861.0</ele><time>2026-05-03T09:08:41.998Z</time></trkpt><trkpt lat="44.29156756034361" lon="7.9640129826241495"><ele>861.0</ele><time>2026-05-03T09:08:42.998Z</time></trkpt><trkpt lat="44.29165188260473" lon="7.964024870545704"><ele>861.0</ele><time>2026-05-03T09:08:43.998Z</time></trkpt><trkpt lat="44.2917407298913" lon="7.96403361001473"><ele>860.6666666666666</ele><time>2026-05-03T09:08:44.998Z</time></trkpt><trkpt lat="44.29181749046591" lon="7.964040555857157"><ele>860.3333333333333</ele><time>2026-05-03T09:08:45.998Z</time></trkpt><trkpt lat="44.291896975036245" lon="7.964047291832663"><ele>860.0</ele><time>2026-05-03T09:08:46.998Z</time></trkpt><trkpt lat="44.29196354593694" lon="7.9640529334223835"><ele>859.6666666666666</ele><time>2026-05-03T09:08:47.998Z</time></trkpt><trkpt lat="44.29206047720199" lon="7.9640616325576925"><ele>859.3333333333333</ele><time>2026-05-03T09:08:49.998Z</time></trkpt><trkpt lat="44.29215293889537" lon="7.964101295552438"><ele>859.0</ele><time>2026-05-03T09:08:52.998Z</time></trkpt><trkpt lat="44.29218545989005" lon="7.964187693264974"><ele>856.3333333333333</ele><time>2026-05-03T09:08:55Z</time></trkpt><trkpt lat="44.29217815872929" lon="7.964281572508872"><ele>853.6666666666666</ele><time>2026-05-03T09:08:59Z</time></trkpt><trkpt lat="44.29208259279324" lon="7.964310761359594"><ele>851.0</ele><time>2026-05-03T09:09:01Z</time></trkpt><trkpt lat="44.29200303766665" lon="7.964336346288628"><ele>848.3333333333333</ele><time>2026-05-03T09:09:02Z</time></trkpt><trkpt lat="44.29190872720042" lon="7.964367878913734"><ele>845.6666666666666</ele><time>2026-05-03T09:09:03Z</time></trkpt><trkpt lat="44.291833121877104" lon="7.964418281083936"><ele>843.0</ele><time>2026-05-03T09:09:04Z</time></trkpt><trkpt lat="44.29177545312542" lon="7.964476284280419"><ele>843.0</ele><time>2026-05-03T09:09:05Z</time></trkpt><trkpt lat="44.29171717091444" lon="7.964537255862591"><ele>843.0</ele><time>2026-05-03T09:09:06Z</time></trkpt><trkpt lat="44.29166414341192" lon="7.964584708163048"><ele>843.0</ele><time>2026-05-03T09:09:07Z</time></trkpt><trkpt lat="44.29160769542528" lon="7.964634858216912"><ele>843.0</ele><time>2026-05-03T09:09:08Z</time></trkpt><trkpt lat="44.29154049052522" lon="7.964691776889406"><ele>843.0</ele><time>2026-05-03T09:09:09Z</time></trkpt><trkpt lat="44.291466002162274" lon="7.964745443276388"><ele>843.0</ele><time>2026-05-03T09:09:10Z</time></trkpt><trkpt lat="44.291391996109994" lon="7.964800125357067"><ele>843.0</ele><time>2026-05-03T09:09:11Z</time></trkpt><trkpt lat="44.29131453329278" lon="7.964857429644833"><ele>842.5</ele><time>2026-05-03T09:09:12Z</time></trkpt><trkpt lat="44.291233552082275" lon="7.964924641564129"><ele>842.0</ele><time>2026-05-03T09:09:13Z</time></trkpt><trkpt lat="44.291156362756446" lon="7.964964498604397"><ele>841.5</ele><time>2026-05-03T09:09:14Z</time></trkpt><trkpt lat="44.29106437063351" lon="7.9649773192919175"><ele>841.0</ele><time>2026-05-03T09:09:15Z</time></trkpt><trkpt lat="44.290994097878865" lon="7.964995832399848"><ele>840.5</ele><time>2026-05-03T09:09:16Z</time></trkpt><trkpt lat="44.29092949354236" lon="7.965014046160118"><ele>840.0</ele><time>2026-05-03T09:09:17Z</time></trkpt><trkpt lat="44.29083919977842" lon="7.965054431437048"><ele>840.0</ele><time>2026-05-03T09:09:19Z</time></trkpt><trkpt lat="44.29076104914081" lon="7.965096612802284"><ele>840.0</ele><time>2026-05-03T09:09:21Z</time></trkpt><trkpt lat="44.29070176647015" lon="7.965166380553331"><ele>840.0</ele><time>2026-05-03T09:09:23Z</time></trkpt><trkpt lat="44.290643027307674" lon="7.965227311894523"><ele>840.0</ele><time>2026-05-03T09:09:26Z</time></trkpt><trkpt lat="44.290570152606534" lon="7.965342280394042"><ele>840.0</ele><time>2026-05-03T09:09:28Z</time></trkpt><trkpt lat="44.2905892812614" lon="7.965457949062363"><ele>840.0</ele><time>2026-05-03T09:09:29Z</time></trkpt><trkpt lat="44.29055967696123" lon="7.965563607596042"><ele>839.8333333333334</ele><time>2026-05-03T09:09:31Z</time></trkpt><trkpt lat="44.29052851847848" lon="7.965668551517121"><ele>839.6666666666667</ele><time>2026-05-03T09:09:32Z</time></trkpt><trkpt lat="44.290493777544064" lon="7.965785561133239"><ele>839.5</ele><time>2026-05-03T09:09:33Z</time></trkpt><trkpt lat="44.29046727857309" lon="7.965874811432885"><ele>839.3333333333334</ele><time>2026-05-03T09:09:34Z</time></trkpt><trkpt lat="44.29043883034337" lon="7.965968613067412"><ele>839.1666666666667</ele><time>2026-05-03T09:09:35Z</time></trkpt><trkpt lat="44.29038809101347" lon="7.966105133161241"><ele>839.0</ele><time>2026-05-03T09:09:36.999Z</time></trkpt><trkpt lat="44.2903406570715" lon="7.966225946658941"><ele>838.0</ele><time>2026-05-03T09:09:38.999Z</time></trkpt><trkpt lat="44.290360837285306" lon="7.96637778996081"><ele>837.0</ele><time>2026-05-03T09:09:42.999Z</time></trkpt><trkpt lat="44.29036928382375" lon="7.96652418420275"><ele>836.0</ele><time>2026-05-03T09:09:44.999Z</time></trkpt><trkpt lat="44.29036681662575" lon="7.966705183071875"><ele>835.0</ele><time>2026-05-03T09:09:46.999Z</time></trkpt><trkpt lat="44.29037405319606" lon="7.966831156644794"><ele>834.0</ele><time>2026-05-03T09:09:47.999Z</time></trkpt><trkpt lat="44.290367439642345" lon="7.9669382478839506"><ele>833.2</ele><time>2026-05-03T09:09:48.999Z</time></trkpt><trkpt lat="44.29036182260704" lon="7.96704023725732"><ele>832.4000000000001</ele><time>2026-05-03T09:09:49.999Z</time></trkpt><trkpt lat="44.290374597908794" lon="7.967209535380881"><ele>831.6</ele><time>2026-05-03T09:09:51.999Z</time></trkpt><trkpt lat="44.29038409550002" lon="7.9673929587469905"><ele>830.8</ele><time>2026-05-03T09:09:53.999Z</time></trkpt><trkpt lat="44.290409349815086" lon="7.967501494045933"><ele>830.0</ele><time>2026-05-03T09:09:54.999Z</time></trkpt><trkpt lat="44.290438529821145" lon="7.96759320500177"><ele>829.1666666666667</ele><time>2026-05-03T09:09:55.999Z</time></trkpt><trkpt lat="44.290496735686176" lon="7.967754380605058"><ele>828.3333333333334</ele><time>2026-05-03T09:09:57.999Z</time></trkpt><trkpt lat="44.29051669964999" lon="7.967843638788971"><ele>827.5</ele><time>2026-05-03T09:09:58.999Z</time></trkpt><trkpt lat="44.29055183085022" lon="7.967946713422478"><ele>826.6666666666667</ele><time>2026-05-03T09:09:59.999Z</time></trkpt><trkpt lat="44.29058675557402" lon="7.96806192839616"><ele>825.8333333333334</ele><time>2026-05-03T09:10:00.999Z</time></trkpt><trkpt lat="44.2906105683987" lon="7.968147165979363"><ele>825.0</ele><time>2026-05-03T09:10:01.999Z</time></trkpt><trkpt lat="44.29064381107573" lon="7.9682364016823595"><ele>824.8571428571428</ele><time>2026-05-03T09:10:02.999Z</time></trkpt><trkpt lat="44.2906742106217" lon="7.968336172453328"><ele>824.7142857142858</ele><time>2026-05-03T09:10:03.999Z</time></trkpt><trkpt lat="44.29070531491194" lon="7.968424201786313"><ele>824.5714285714286</ele><time>2026-05-03T09:10:04.999Z</time></trkpt><trkpt lat="44.29072828818766" lon="7.968518085377888"><ele>824.4285714285713</ele><time>2026-05-03T09:10:05.999Z</time></trkpt><trkpt lat="44.290751662548324" lon="7.968605061687387"><ele>824.2857142857142</ele><time>2026-05-03T09:10:06.999Z</time></trkpt><trkpt lat="44.29078761134984" lon="7.968718794043998"><ele>824.1428571428571</ele><time>2026-05-03T09:10:08.999Z</time></trkpt><trkpt lat="44.29078541781661" lon="7.968812282089582"><ele>824.0</ele><time>2026-05-03T09:10:10.999Z</time></trkpt><trkpt lat="44.29068263822514" lon="7.9689043180822425"><ele>822.6</ele><time>2026-05-03T09:10:12.999Z</time></trkpt><trkpt lat="44.29060843826605" lon="7.968918634663474"><ele>821.2</ele><time>2026-05-03T09:10:13.999Z</time></trkpt><trkpt lat="44.29049692885687" lon="7.968874024518848"><ele>819.8000000000001</ele><time>2026-05-03T09:10:14.999Z</time></trkpt><trkpt lat="44.29039501972568" lon="7.968844225443576"><ele>818.4000000000001</ele><time>2026-05-03T09:10:15.999Z</time></trkpt><trkpt lat="44.29029466971456" lon="7.968809402533908"><ele>817.0</ele><time>2026-05-03T09:10:16.999Z</time></trkpt><trkpt lat="44.29018713641127" lon="7.968788517024417"><ele>814.6</ele><time>2026-05-03T09:10:17.999Z</time></trkpt><trkpt lat="44.29008662385721" lon="7.968758742357534"><ele>812.2</ele><time>2026-05-03T09:10:18.999Z</time></trkpt><trkpt lat="44.28998840509207" lon="7.968757567865203"><ele>809.8</ele><time>2026-05-03T09:10:19.999Z</time></trkpt><trkpt lat="44.289881727963106" lon="7.968749755545234"><ele>807.4</ele><time>2026-05-03T09:10:20.999Z</time></trkpt><trkpt lat="44.289777743974135" lon="7.968750511280382"><ele>805.0</ele><time>2026-05-03T09:10:21.999Z</time></trkpt><trkpt lat="44.289685934233255" lon="7.968752626083924"><ele>802.3333333333333</ele><time>2026-05-03T09:10:22.999Z</time></trkpt><trkpt lat="44.28958892047052" lon="7.96875815735999"><ele>799.6666666666666</ele><time>2026-05-03T09:10:23.999Z</time></trkpt><trkpt lat="44.28950662696298" lon="7.96876742003767"><ele>797.0</ele><time>2026-05-03T09:10:24.999Z</time></trkpt><trkpt lat="44.28943621696214" lon="7.968771661882932"><ele>794.3333333333333</ele><time>2026-05-03T09:10:25.999Z</time></trkpt><trkpt lat="44.28936294926042" lon="7.968776264086029"><ele>791.6666666666666</ele><time>2026-05-03T09:10:26.999Z</time></trkpt><trkpt lat="44.289293059207" lon="7.968786977319912"><ele>789.0</ele><time>2026-05-03T09:10:27.999Z</time></trkpt><trkpt lat="44.28922510805191" lon="7.96876713089913"><ele>789.0</ele><time>2026-05-03T09:10:28.999Z</time></trkpt><trkpt lat="44.28914420173532" lon="7.9687032471191825"><ele>789.0</ele><time>2026-05-03T09:10:29.999Z</time></trkpt><trkpt lat="44.28909682195752" lon="7.9686348694227656"><ele>789.0</ele><time>2026-05-03T09:10:30.999Z</time></trkpt><trkpt lat="44.289012048274024" lon="7.968527348625108"><ele>789.0</ele><time>2026-05-03T09:10:32.999Z</time></trkpt><trkpt lat="44.28894849941461" lon="7.968498562032257"><ele>789.0</ele><time>2026-05-03T09:10:34.999Z</time></trkpt><trkpt lat="44.28885831717497" lon="7.968612428169644"><ele>789.0</ele><time>2026-05-03T09:10:37.998Z</time></trkpt><trkpt lat="44.2888947156908" lon="7.96874523362219"><ele>789.0</ele><time>2026-05-03T09:10:38.998Z</time></trkpt><trkpt lat="44.28899122264842" lon="7.968798922018838"><ele>789.0</ele><time>2026-05-03T09:10:39.998Z</time></trkpt><trkpt lat="44.2890621307293" lon="7.968870581437862"><ele>789.0</ele><time>2026-05-03T09:10:40.998Z</time></trkpt><trkpt lat="44.28913546663256" lon="7.968968808307209"><ele>789.0</ele><time>2026-05-03T09:10:41.998Z</time></trkpt><trkpt lat="44.28922381883214" lon="7.969052956551764"><ele>789.0</ele><time>2026-05-03T09:10:42.998Z</time></trkpt><trkpt lat="44.28931812816071" lon="7.969111743918028"><ele>789.0</ele><time>2026-05-03T09:10:43.998Z</time></trkpt><trkpt lat="44.28941034647556" lon="7.969183958090437"><ele>789.0</ele><time>2026-05-03T09:10:44.998Z</time></trkpt><trkpt lat="44.28951760486639" lon="7.96926310789933"><ele>789.0</ele><time>2026-05-03T09:10:45.998Z</time></trkpt><trkpt lat="44.289633427637085" lon="7.969314630902913"><ele>788.0</ele><time>2026-05-03T09:10:46.998Z</time></trkpt><trkpt lat="44.2897126252528" lon="7.9693639877767355"><ele>787.0</ele><time>2026-05-03T09:10:47.998Z</time></trkpt><trkpt lat="44.2897928547938" lon="7.9694103185789515"><ele>786.0</ele><time>2026-05-03T09:10:48.998Z</time></trkpt><trkpt lat="44.289883310051145" lon="7.969493254885074"><ele>785.0</ele><time>2026-05-03T09:10:49.998Z</time></trkpt><trkpt lat="44.28995305718773" lon="7.969574025837395"><ele>784.0</ele><time>2026-05-03T09:10:50.998Z</time></trkpt><trkpt lat="44.290028905512365" lon="7.969665234031433"><ele>784.0</ele><time>2026-05-03T09:10:51.998Z</time></trkpt><trkpt lat="44.2900967707829" lon="7.969833453892577"><ele>784.0</ele><time>2026-05-03T09:10:52.998Z</time></trkpt><trkpt lat="44.29016168252228" lon="7.969963457279722"><ele>784.0</ele><time>2026-05-03T09:10:53.998Z</time></trkpt><trkpt lat="44.29021031671733" lon="7.970102924697723"><ele>784.0</ele><time>2026-05-03T09:10:54.998Z</time></trkpt><trkpt lat="44.29026118480571" lon="7.97024725481417"><ele>780.8000000000001</ele><time>2026-05-03T09:10:55.998Z</time></trkpt><trkpt lat="44.29030624169753" lon="7.9703797435515105"><ele>777.6</ele><time>2026-05-03T09:10:56.998Z</time></trkpt><trkpt lat="44.29035243445484" lon="7.9705100496816"><ele>774.4</ele><time>2026-05-03T09:10:57.998Z</time></trkpt><trkpt lat="44.29040509221346" lon="7.970637375937443"><ele>771.2</ele><time>2026-05-03T09:10:58.998Z</time></trkpt><trkpt lat="44.29045125693984" lon="7.970767262522985"><ele>768.0</ele><time>2026-05-03T09:10:59.998Z</time></trkpt><trkpt lat="44.290496443847736" lon="7.970892380610867"><ele>769.2</ele><time>2026-05-03T09:11:01Z</time></trkpt><trkpt lat="44.290541625117115" lon="7.971028719732932"><ele>770.4</ele><time>2026-05-03T09:11:02Z</time></trkpt><trkpt lat="44.29059214118888" lon="7.971139399291676"><ele>771.6</ele><time>2026-05-03T09:11:03Z</time></trkpt><trkpt lat="44.29062239928516" lon="7.9712591615685415"><ele>772.8000000000001</ele><time>2026-05-03T09:11:04Z</time></trkpt><trkpt lat="44.29067113293687" lon="7.971356391254399"><ele>774.0</ele><time>2026-05-03T09:11:05Z</time></trkpt><trkpt lat="44.2907080959057" lon="7.971455074470695"><ele>774.0</ele><time>2026-05-03T09:11:06Z</time></trkpt><trkpt lat="44.29076271964017" lon="7.971576736580748"><ele>774.0</ele><time>2026-05-03T09:11:07Z</time></trkpt><trkpt lat="44.290833473580925" lon="7.971670502544973"><ele>774.0</ele><time>2026-05-03T09:11:08Z</time></trkpt><trkpt lat="44.29090088508265" lon="7.971756310246299"><ele>774.0</ele><time>2026-05-03T09:11:09Z</time></trkpt><trkpt lat="44.29097871731103" lon="7.97182860860904"><ele>774.0</ele><time>2026-05-03T09:11:10Z</time></trkpt><trkpt lat="44.29105475387849" lon="7.971883562928816"><ele>770.0</ele><time>2026-05-03T09:11:11Z</time></trkpt><trkpt lat="44.291134955764136" lon="7.9719275377545795"><ele>766.0</ele><time>2026-05-03T09:11:12Z</time></trkpt><trkpt lat="44.2912086137348" lon="7.971984482282559"><ele>762.0</ele><time>2026-05-03T09:11:13Z</time></trkpt><trkpt lat="44.291298926409915" lon="7.971987908278336"><ele>758.0</ele><time>2026-05-03T09:11:14Z</time></trkpt><trkpt lat="44.29140417059188" lon="7.971990214183708"><ele>754.0</ele><time>2026-05-03T09:11:15Z</time></trkpt><trkpt lat="44.29151655672676" lon="7.971997877330164"><ele>753.6</ele><time>2026-05-03T09:11:16Z</time></trkpt><trkpt lat="44.29162148455514" lon="7.971978690591207"><ele>753.2</ele><time>2026-05-03T09:11:17Z</time></trkpt><trkpt lat="44.29172509013046" lon="7.971961222040383"><ele>752.8000000000001</ele><time>2026-05-03T09:11:18Z</time></trkpt><trkpt lat="44.291821338056664" lon="7.971954297937191"><ele>752.4000000000001</ele><time>2026-05-03T09:11:19Z</time></trkpt><trkpt lat="44.291915263617064" lon="7.97196870151697"><ele>752.0</ele><time>2026-05-03T09:11:20Z</time></trkpt><trkpt lat="44.29200357919857" lon="7.9720099954825265"><ele>752.0</ele><time>2026-05-03T09:11:21Z</time></trkpt><trkpt lat="44.29209423917897" lon="7.972038418454565"><ele>752.0</ele><time>2026-05-03T09:11:22Z</time></trkpt><trkpt lat="44.292176345624675" lon="7.972095437426598"><ele>752.0</ele><time>2026-05-03T09:11:23Z</time></trkpt><trkpt lat="44.29225008522259" lon="7.972141728386599"><ele>752.0</ele><time>2026-05-03T09:11:24Z</time></trkpt><trkpt lat="44.292334499151416" lon="7.972171728439223"><ele>752.0</ele><time>2026-05-03T09:11:25Z</time></trkpt><trkpt lat="44.29243705845994" lon="7.972207675564213"><ele>752.6</ele><time>2026-05-03T09:11:26Z</time></trkpt><trkpt lat="44.292537770953416" lon="7.972193875915343"><ele>753.2</ele><time>2026-05-03T09:11:27Z</time></trkpt><trkpt lat="44.29263637075011" lon="7.972179028066851"><ele>753.8</ele><time>2026-05-03T09:11:28Z</time></trkpt><trkpt lat="44.292730174506005" lon="7.972149675453287"><ele>754.4</ele><time>2026-05-03T09:11:29Z</time></trkpt><trkpt lat="44.29283442293207" lon="7.972147683134858"><ele>755.0</ele><time>2026-05-03T09:11:30Z</time></trkpt><trkpt lat="44.29294496098299" lon="7.972159035727534"><ele>755.0</ele><time>2026-05-03T09:11:31Z</time></trkpt><trkpt lat="44.293044308535215" lon="7.9721681119759085"><ele>755.0</ele><time>2026-05-03T09:11:32Z</time></trkpt><trkpt lat="44.293145815314574" lon="7.972172983105463"><ele>755.0</ele><time>2026-05-03T09:11:33Z</time></trkpt><trkpt lat="44.2932557301015" lon="7.9721937917518435"><ele>755.0</ele><time>2026-05-03T09:11:34Z</time></trkpt><trkpt lat="44.29336139710369" lon="7.972243407131661"><ele>755.0</ele><time>2026-05-03T09:11:35Z</time></trkpt><trkpt lat="44.29344584222463" lon="7.972313390467055"><ele>755.0</ele><time>2026-05-03T09:11:36Z</time></trkpt><trkpt lat="44.2935320415699" lon="7.972405972781014"><ele>755.0</ele><time>2026-05-03T09:11:37Z</time></trkpt><trkpt lat="44.293610459846455" lon="7.97251507539506"><ele>755.0</ele><time>2026-05-03T09:11:38Z</time></trkpt><trkpt lat="44.29367263061104" lon="7.972616993692389"><ele>755.0</ele><time>2026-05-03T09:11:39Z</time></trkpt><trkpt lat="44.2937092736849" lon="7.972715914462306"><ele>755.0</ele><time>2026-05-03T09:11:40Z</time></trkpt><trkpt lat="44.293749055749004" lon="7.97285530357519"><ele>754.2</ele><time>2026-05-03T09:11:41Z</time></trkpt><trkpt lat="44.29378053362616" lon="7.9730037015654505"><ele>753.4</ele><time>2026-05-03T09:11:42Z</time></trkpt><trkpt lat="44.293825030458436" lon="7.973157069599906"><ele>752.5999999999999</ele><time>2026-05-03T09:11:43Z</time></trkpt><trkpt lat="44.29386642928392" lon="7.97327373241995"><ele>751.8</ele><time>2026-05-03T09:11:44Z</time></trkpt><trkpt lat="44.29392479818833" lon="7.973394160593491"><ele>751.0</ele><time>2026-05-03T09:11:44.999Z</time></trkpt><trkpt lat="44.29399662301185" lon="7.973487722343977"><ele>751.0</ele><time>2026-05-03T09:11:45.999Z</time></trkpt><trkpt lat="44.29406874279927" lon="7.973596186575646"><ele>751.0</ele><time>2026-05-03T09:11:46.999Z</time></trkpt><trkpt lat="44.29414860006007" lon="7.97372491487136"><ele>751.0</ele><time>2026-05-03T09:11:47.999Z</time></trkpt><trkpt lat="44.29419830501553" lon="7.973838295642006"><ele>751.0</ele><time>2026-05-03T09:11:48.999Z</time></trkpt><trkpt lat="44.294251023369796" lon="7.973944576825852"><ele>751.0</ele><time>2026-05-03T09:11:49.999Z</time></trkpt><trkpt lat="44.2943163144659" lon="7.974061805827469"><ele>751.0</ele><time>2026-05-03T09:11:50.999Z</time></trkpt><trkpt lat="44.29438735723837" lon="7.9741694006589325"><ele>751.0</ele><time>2026-05-03T09:11:51.999Z</time></trkpt><trkpt lat="44.29445234767592" lon="7.9742600006588376"><ele>751.0</ele><time>2026-05-03T09:11:52.999Z</time></trkpt><trkpt lat="44.29452406671938" lon="7.974354007241032"><ele>751.0</ele><time>2026-05-03T09:11:53.999Z</time></trkpt><trkpt lat="44.29459720332545" lon="7.974437767968156"><ele>751.0</ele><time>2026-05-03T09:11:54.999Z</time></trkpt><trkpt lat="44.294664367711775" lon="7.974512363144467"><ele>750.4</ele><time>2026-05-03T09:11:55.999Z</time></trkpt><trkpt lat="44.294728709242975" lon="7.974583574007666"><ele>749.8</ele><time>2026-05-03T09:11:56.999Z</time></trkpt><trkpt lat="44.29478574008165" lon="7.974637901683347"><ele>749.1999999999999</ele><time>2026-05-03T09:11:57.999Z</time></trkpt><trkpt lat="44.294845370330734" lon="7.974694507753788"><ele>748.5999999999999</ele><time>2026-05-03T09:11:58.999Z</time></trkpt><trkpt lat="44.294950452483924" lon="7.9747870992216185"><ele>748.0</ele><time>2026-05-03T09:12:00.999Z</time></trkpt><trkpt lat="44.29505946690506" lon="7.974850110758809"><ele>748.0</ele><time>2026-05-03T09:12:02.999Z</time></trkpt><trkpt lat="44.295141929216065" lon="7.9748487430371595"><ele>748.0</ele><time>2026-05-03T09:12:03.999Z</time></trkpt><trkpt lat="44.29521922878685" lon="7.974812189142147"><ele>748.0</ele><time>2026-05-03T09:12:04.999Z</time></trkpt><trkpt lat="44.29532126836111" lon="7.974729088844217"><ele>748.0</ele><time>2026-05-03T09:12:05.999Z</time></trkpt><trkpt lat="44.295402723337965" lon="7.9746641823085955"><ele>748.0</ele><time>2026-05-03T09:12:06.999Z</time></trkpt><trkpt lat="44.29549461458943" lon="7.974609360266098"><ele>744.8</ele><time>2026-05-03T09:12:07.999Z</time></trkpt><trkpt lat="44.2955940693015" lon="7.974544707072435"><ele>741.5999999999999</ele><time>2026-05-03T09:12:08.999Z</time></trkpt><trkpt lat="44.29568594711973" lon="7.974491545763937"><ele>738.4000000000001</ele><time>2026-05-03T09:12:09.999Z</time></trkpt><trkpt lat="44.29578767652939" lon="7.974461467423943"><ele>735.2</ele><time>2026-05-03T09:12:10.999Z</time></trkpt><trkpt lat="44.295867201884775" lon="7.974396031999052"><ele>732.0</ele><time>2026-05-03T09:12:11.999Z</time></trkpt><trkpt lat="44.29594255560743" lon="7.974357466428312"><ele>732.0</ele><time>2026-05-03T09:12:12.999Z</time></trkpt><trkpt lat="44.296004898288125" lon="7.974338340029922"><ele>732.0</ele><time>2026-05-03T09:12:13.999Z</time></trkpt><trkpt lat="44.29610386854176" lon="7.9743046021352075"><ele>732.0</ele><time>2026-05-03T09:12:15.999Z</time></trkpt><trkpt lat="44.29620063194122" lon="7.974350686525094"><ele>732.0</ele><time>2026-05-03T09:12:17.999Z</time></trkpt><trkpt lat="44.2962294521844" lon="7.974470705909229"><ele>732.0</ele><time>2026-05-03T09:12:19.999Z</time></trkpt><trkpt lat="44.296113001843764" lon="7.97457328152513"><ele>732.0</ele><time>2026-05-03T09:12:21.999Z</time></trkpt><trkpt lat="44.296014927396705" lon="7.974598362319336"><ele>732.0</ele><time>2026-05-03T09:12:22.999Z</time></trkpt><trkpt lat="44.29591716124441" lon="7.974643673944121"><ele>732.0</ele><time>2026-05-03T09:12:23.999Z</time></trkpt><trkpt lat="44.295830581118835" lon="7.974726418195962"><ele>732.0</ele><time>2026-05-03T09:12:24.999Z</time></trkpt><trkpt lat="44.295722084604066" lon="7.974821183057405"><ele>732.0</ele><time>2026-05-03T09:12:25.999Z</time></trkpt><trkpt lat="44.295643784399104" lon="7.974941144385809"><ele>730.2</ele><time>2026-05-03T09:12:26.999Z</time></trkpt><trkpt lat="44.295553691949756" lon="7.975051065874774"><ele>728.4000000000001</ele><time>2026-05-03T09:12:27.999Z</time></trkpt><trkpt lat="44.295467005567936" lon="7.9751368661263164"><ele>726.5999999999999</ele><time>2026-05-03T09:12:28.999Z</time></trkpt><trkpt lat="44.2954021291199" lon="7.975232454363584"><ele>724.8</ele><time>2026-05-03T09:12:29.999Z</time></trkpt><trkpt lat="44.29534698358175" lon="7.9753578775792215"><ele>723.0</ele><time>2026-05-03T09:12:30.999Z</time></trkpt><trkpt lat="44.29531929713931" lon="7.975487523135839"><ele>723.0</ele><time>2026-05-03T09:12:31.999Z</time></trkpt><trkpt lat="44.29527855250474" lon="7.975593293139978"><ele>723.0</ele><time>2026-05-03T09:12:32.999Z</time></trkpt><trkpt lat="44.29522271433257" lon="7.975678507356518"><ele>723.0</ele><time>2026-05-03T09:12:33.999Z</time></trkpt><trkpt lat="44.295176824511444" lon="7.975752120414191"><ele>723.0</ele><time>2026-05-03T09:12:34.999Z</time></trkpt><trkpt lat="44.295111558819464" lon="7.975807252280527"><ele>723.0</ele><time>2026-05-03T09:12:35.999Z</time></trkpt><trkpt lat="44.295011523630976" lon="7.975834217072126"><ele>723.0</ele><time>2026-05-03T09:12:36.999Z</time></trkpt><trkpt lat="44.29488291252247" lon="7.975840823765922"><ele>717.0</ele><time>2026-05-03T09:12:37.999Z</time></trkpt><trkpt lat="44.29474572802731" lon="7.975880277229195"><ele>711.0</ele><time>2026-05-03T09:12:38.999Z</time></trkpt><trkpt lat="44.29459546560328" lon="7.975906969186475"><ele>705.0</ele><time>2026-05-03T09:12:39.999Z</time></trkpt><trkpt lat="44.294461399858015" lon="7.9759516871988865"><ele>699.0</ele><time>2026-05-03T09:12:40.999Z</time></trkpt><trkpt lat="44.294335353932" lon="7.976007557077128"><ele>699.0</ele><time>2026-05-03T09:12:41.999Z</time></trkpt><trkpt lat="44.294239415349836" lon="7.976021807530426"><ele>699.0</ele><time>2026-05-03T09:12:42.999Z</time></trkpt><trkpt lat="44.2941515298801" lon="7.976044780460857"><ele>699.0</ele><time>2026-05-03T09:12:43.998Z</time></trkpt><trkpt lat="44.29406569928353" lon="7.9760747554539115"><ele>699.0</ele><time>2026-05-03T09:12:44.998Z</time></trkpt><trkpt lat="44.29398287169438" lon="7.976136360517299"><ele>699.0</ele><time>2026-05-03T09:12:45.998Z</time></trkpt><trkpt lat="44.29391170622258" lon="7.976199912774278"><ele>697.8000000000001</ele><time>2026-05-03T09:12:46.998Z</time></trkpt><trkpt lat="44.29384128979988" lon="7.976247550614114"><ele>696.6</ele><time>2026-05-03T09:12:47.998Z</time></trkpt><trkpt lat="44.29373289271161" lon="7.976308636434296"><ele>695.4</ele><time>2026-05-03T09:12:49.998Z</time></trkpt><trkpt lat="44.29365890122467" lon="7.976294144255292"><ele>694.2</ele><time>2026-05-03T09:12:50.998Z</time></trkpt><trkpt lat="44.293575944239834" lon="7.9762261735641795"><ele>693.0</ele><time>2026-05-03T09:12:51.998Z</time></trkpt><trkpt lat="44.293489308127604" lon="7.976119619071719"><ele>693.0</ele><time>2026-05-03T09:12:52.998Z</time></trkpt><trkpt lat="44.293413992499055" lon="7.975986675415189"><ele>693.0</ele><time>2026-05-03T09:12:53.998Z</time></trkpt><trkpt lat="44.293340691984625" lon="7.975866298181384"><ele>693.0</ele><time>2026-05-03T09:12:54.998Z</time></trkpt><trkpt lat="44.29325852340985" lon="7.975734250337415"><ele>693.0</ele><time>2026-05-03T09:12:55.998Z</time></trkpt><trkpt lat="44.29318733133642" lon="7.9756195829606105"><ele>692.2</ele><time>2026-05-03T09:12:56.998Z</time></trkpt><trkpt lat="44.29309899836839" lon="7.97550277213168"><ele>691.4</ele><time>2026-05-03T09:12:57.998Z</time></trkpt><trkpt lat="44.29304789391704" lon="7.9753836347200275"><ele>690.6</ele><time>2026-05-03T09:12:58.998Z</time></trkpt><trkpt lat="44.293022973461134" lon="7.9752732469959"><ele>689.8000000000001</ele><time>2026-05-03T09:12:59.998Z</time></trkpt><trkpt lat="44.292982125824764" lon="7.975169215100085"><ele>689.0</ele><time>2026-05-03T09:13:00.998Z</time></trkpt><trkpt lat="44.29292107353379" lon="7.975067406608207"><ele>690.8000000000001</ele><time>2026-05-03T09:13:01.998Z</time></trkpt><trkpt lat="44.292847835594955" lon="7.975011114885247"><ele>692.6</ele><time>2026-05-03T09:13:02.998Z</time></trkpt><trkpt lat="44.29274327162545" lon="7.974930739997426"><ele>694.4</ele><time>2026-05-03T09:13:03.998Z</time></trkpt><trkpt lat="44.292637225774406" lon="7.9749092474732155"><ele>696.2</ele><time>2026-05-03T09:13:04.998Z</time></trkpt><trkpt lat="44.29254380256465" lon="7.974832072847288"><ele>698.0</ele><time>2026-05-03T09:13:05.998Z</time></trkpt><trkpt lat="44.29243056496832" lon="7.974786440732803"><ele>698.0</ele><time>2026-05-03T09:13:07Z</time></trkpt><trkpt lat="44.29230003545047" lon="7.974732865785849"><ele>698.0</ele><time>2026-05-03T09:13:08Z</time></trkpt><trkpt lat="44.29219163447545" lon="7.974687202478996"><ele>698.0</ele><time>2026-05-03T09:13:09Z</time></trkpt><trkpt lat="44.29208239773117" lon="7.974639304826232"><ele>698.0</ele><time>2026-05-03T09:13:10Z</time></trkpt><trkpt lat="44.292004313285986" lon="7.974588159517345"><ele>695.1666666666666</ele><time>2026-05-03T09:13:11Z</time></trkpt><trkpt lat="44.29194468027219" lon="7.974545678236286"><ele>692.3333333333333</ele><time>2026-05-03T09:13:12Z</time></trkpt><trkpt lat="44.29183509989496" lon="7.974479454946107"><ele>689.5</ele><time>2026-05-03T09:13:14Z</time></trkpt><trkpt lat="44.291741723310935" lon="7.974461643490644"><ele>686.6666666666666</ele><time>2026-05-03T09:13:16Z</time></trkpt><trkpt lat="44.2916632884514" lon="7.97453472447141"><ele>683.8333333333334</ele><time>2026-05-03T09:13:18Z</time></trkpt><trkpt lat="44.29164351035935" lon="7.974620511360928"><ele>681.0</ele><time>2026-05-03T09:13:19Z</time></trkpt><trkpt lat="44.29165649278224" lon="7.974715054614295"><ele>681.0</ele><time>2026-05-03T09:13:20Z</time></trkpt><trkpt lat="44.29171917507511" lon="7.974807395875963"><ele>681.0</ele><time>2026-05-03T09:13:21Z</time></trkpt><trkpt lat="44.29178426625154" lon="7.974915109906718"><ele>681.0</ele><time>2026-05-03T09:13:22Z</time></trkpt><trkpt lat="44.29185387822477" lon="7.975011484318041"><ele>681.0</ele><time>2026-05-03T09:13:23Z</time></trkpt><trkpt lat="44.2918969576019" lon="7.975109667684573"><ele>681.0</ele><time>2026-05-03T09:13:24Z</time></trkpt><trkpt lat="44.29194780722916" lon="7.975189422435063"><ele>681.0</ele><time>2026-05-03T09:13:25Z</time></trkpt><trkpt lat="44.29200569561536" lon="7.975261477984446"><ele>682.3333333333334</ele><time>2026-05-03T09:13:26Z</time></trkpt><trkpt lat="44.292075982751825" lon="7.975312022582598"><ele>683.6666666666666</ele><time>2026-05-03T09:13:27Z</time></trkpt><trkpt lat="44.292133627372294" lon="7.975368550102054"><ele>685.0</ele><time>2026-05-03T09:13:28Z</time></trkpt><trkpt lat="44.292197867533375" lon="7.975408121324875"><ele>686.3333333333333</ele><time>2026-05-03T09:13:29Z</time></trkpt><trkpt lat="44.29225375745832" lon="7.975450474457317"><ele>687.6666666666666</ele><time>2026-05-03T09:13:30Z</time></trkpt><trkpt lat="44.292304892110955" lon="7.975543279215565"><ele>689.0</ele><time>2026-05-03T09:13:32Z</time></trkpt><trkpt lat="44.29229467367229" lon="7.975682749460278"><ele>685.5</ele><time>2026-05-03T09:13:34Z</time></trkpt><trkpt lat="44.29223431955308" lon="7.975821575539078"><ele>682.0</ele><time>2026-05-03T09:13:35Z</time></trkpt><trkpt lat="44.292198694810494" lon="7.9759180611812726"><ele>678.5</ele><time>2026-05-03T09:13:36Z</time></trkpt><trkpt lat="44.292161612094155" lon="7.97602456526665"><ele>675.0</ele><time>2026-05-03T09:13:37Z</time></trkpt><trkpt lat="44.292139334059144" lon="7.97614674795477"><ele>671.5</ele><time>2026-05-03T09:13:38Z</time></trkpt><trkpt lat="44.29211588410707" lon="7.976244237979265"><ele>668.0</ele><time>2026-05-03T09:13:39Z</time></trkpt><trkpt lat="44.292091026476996" lon="7.976340501909263"><ele>666.8333333333333</ele><time>2026-05-03T09:13:40Z</time></trkpt><trkpt lat="44.29206491923154" lon="7.976454402457681"><ele>665.6666666666666</ele><time>2026-05-03T09:13:41Z</time></trkpt><trkpt lat="44.292055856003934" lon="7.9765422913869815"><ele>664.5</ele><time>2026-05-03T09:13:42Z</time></trkpt><trkpt lat="44.29204829511925" lon="7.976659861328106"><ele>663.3333333333334</ele><time>2026-05-03T09:13:43Z</time></trkpt><trkpt lat="44.2920616613428" lon="7.976775318162467"><ele>662.1666666666667</ele><time>2026-05-03T09:13:44Z</time></trkpt><trkpt lat="44.292049022945655" lon="7.976889519693795"><ele>661.0</ele><time>2026-05-03T09:13:45Z</time></trkpt><trkpt lat="44.29205422729953" lon="7.976987149578647"><ele>661.1428571428571</ele><time>2026-05-03T09:13:46Z</time></trkpt><trkpt lat="44.29208094290783" lon="7.97707776573506"><ele>661.2857142857143</ele><time>2026-05-03T09:13:47Z</time></trkpt><trkpt lat="44.29208524902015" lon="7.977167936046603"><ele>661.4285714285714</ele><time>2026-05-03T09:13:48Z</time></trkpt><trkpt lat="44.29214073520186" lon="7.977247086101883"><ele>661.5714285714286</ele><time>2026-05-03T09:13:49Z</time></trkpt><trkpt lat="44.292187740360525" lon="7.977319735697739"><ele>661.7142857142857</ele><time>2026-05-03T09:13:50Z</time></trkpt><trkpt lat="44.29224592347264" lon="7.977394226609956"><ele>661.8571428571429</ele><time>2026-05-03T09:13:51Z</time></trkpt><trkpt lat="44.29231270313476" lon="7.977446684313662"><ele>662.0</ele><time>2026-05-03T09:13:51.999Z</time></trkpt><trkpt lat="44.29238727406247" lon="7.977495589612817"><ele>662.0</ele><time>2026-05-03T09:13:52.999Z</time></trkpt><trkpt lat="44.292460530993836" lon="7.977523845825722"><ele>662.0</ele><time>2026-05-03T09:13:53.999Z</time></trkpt><trkpt lat="44.2925331979093" lon="7.977538570033113"><ele>662.0</ele><time>2026-05-03T09:13:54.999Z</time></trkpt><trkpt lat="44.29261696402174" lon="7.977528739963826"><ele>662.0</ele><time>2026-05-03T09:13:55.999Z</time></trkpt><trkpt lat="44.292704934043314" lon="7.977489633667102"><ele>662.0</ele><time>2026-05-03T09:13:56.999Z</time></trkpt><trkpt lat="44.29277911237763" lon="7.977443579496666"><ele>662.0</ele><time>2026-05-03T09:13:57.999Z</time></trkpt><trkpt lat="44.29285853298077" lon="7.977402169062677"><ele>662.0</ele><time>2026-05-03T09:13:58.999Z</time></trkpt><trkpt lat="44.29292691645674" lon="7.977373669581354"><ele>662.0</ele><time>2026-05-03T09:13:59.999Z</time></trkpt><trkpt lat="44.29299605007858" lon="7.977356056651563"><ele>662.0</ele><time>2026-05-03T09:14:00.999Z</time></trkpt><trkpt lat="44.293092020447084" lon="7.977378427822984"><ele>662.0</ele><time>2026-05-03T09:14:01.999Z</time></trkpt><trkpt lat="44.29319635805861" lon="7.977440259830241"><ele>662.0</ele><time>2026-05-03T09:14:02.999Z</time></trkpt><trkpt lat="44.29331884494045" lon="7.9774920013313135"><ele>654.75</ele><time>2026-05-03T09:14:03.999Z</time></trkpt><trkpt lat="44.29346138598143" lon="7.977610904016596"><ele>647.5</ele><time>2026-05-03T09:14:04.999Z</time></trkpt><trkpt lat="44.29356334615832" lon="7.977695042951328"><ele>640.25</ele><time>2026-05-03T09:14:05.999Z</time></trkpt><trkpt lat="44.29365496114224" lon="7.977791903766961"><ele>633.0</ele><time>2026-05-03T09:14:06.999Z</time></trkpt><trkpt lat="44.2937194352213" lon="7.977859170435236"><ele>633.0</ele><time>2026-05-03T09:14:07.999Z</time></trkpt><trkpt lat="44.29377975160768" lon="7.9779206145620245"><ele>633.0</ele><time>2026-05-03T09:14:08.999Z</time></trkpt><trkpt lat="44.29390294220411" lon="7.977993822401507"><ele>633.0</ele><time>2026-05-03T09:14:10.999Z</time></trkpt><trkpt lat="44.29398364963853" lon="7.978034929062249"><ele>633.0</ele><time>2026-05-03T09:14:11.999Z</time></trkpt><trkpt lat="44.294054570274255" lon="7.978040178680777"><ele>633.0</ele><time>2026-05-03T09:14:12.999Z</time></trkpt><trkpt lat="44.29412905224578" lon="7.978002604731016"><ele>633.0</ele><time>2026-05-03T09:14:13.999Z</time></trkpt><trkpt lat="44.29421688887687" lon="7.977906816908012"><ele>632.75</ele><time>2026-05-03T09:14:14.999Z</time></trkpt><trkpt lat="44.294347058784304" lon="7.9777368581597115"><ele>632.5</ele><time>2026-05-03T09:14:15.999Z</time></trkpt><trkpt lat="44.29444553984501" lon="7.977653024007739"><ele>632.25</ele><time>2026-05-03T09:14:16.999Z</time></trkpt><trkpt lat="44.294513162602456" lon="7.977598059706387"><ele>632.0</ele><time>2026-05-03T09:14:17.999Z</time></trkpt><trkpt lat="44.29466869798756" lon="7.977610657995033"><ele>628.75</ele><time>2026-05-03T09:14:19.999Z</time></trkpt><trkpt lat="44.29478402953216" lon="7.9776392213904455"><ele>625.5</ele><time>2026-05-03T09:14:20.999Z</time></trkpt><trkpt lat="44.294914028323205" lon="7.977644262739962"><ele>622.25</ele><time>2026-05-03T09:14:21.999Z</time></trkpt><trkpt lat="44.295024005373755" lon="7.977626997274619"><ele>619.0</ele><time>2026-05-03T09:14:22.999Z</time></trkpt><trkpt lat="44.29514656986883" lon="7.977608419364976"><ele>619.0</ele><time>2026-05-03T09:14:23.999Z</time></trkpt><trkpt lat="44.29528075090735" lon="7.977580391712129"><ele>619.0</ele><time>2026-05-03T09:14:24.999Z</time></trkpt><trkpt lat="44.29544057407225" lon="7.977552257555373"><ele>619.0</ele><time>2026-05-03T09:14:25.999Z</time></trkpt><trkpt lat="44.295568046318905" lon="7.977500103711484"><ele>619.0</ele><time>2026-05-03T09:14:26.999Z</time></trkpt><trkpt lat="44.29571262364717" lon="7.9774822215704635"><ele>625.75</ele><time>2026-05-03T09:14:27.999Z</time></trkpt><trkpt lat="44.295825153756795" lon="7.977464867958829"><ele>632.5</ele><time>2026-05-03T09:14:28.999Z</time></trkpt><trkpt lat="44.29589296523835" lon="7.977450512091112"><ele>639.25</ele><time>2026-05-03T09:14:29.999Z</time></trkpt><trkpt lat="44.296042253838735" lon="7.977458222968175"><ele>646.0</ele><time>2026-05-03T09:14:31.999Z</time></trkpt><trkpt lat="44.29616246846627" lon="7.9774775165192615"><ele>638.75</ele><time>2026-05-03T09:14:32.999Z</time></trkpt><trkpt lat="44.29628915920378" lon="7.977543249659217"><ele>631.5</ele><time>2026-05-03T09:14:33.999Z</time></trkpt><trkpt lat="44.296397807953795" lon="7.977615598181655"><ele>624.25</ele><time>2026-05-03T09:14:34.999Z</time></trkpt><trkpt lat="44.296481914445394" lon="7.977726194187551"><ele>617.0</ele><time>2026-05-03T09:14:35.999Z</time></trkpt><trkpt lat="44.296576710784656" lon="7.977823918029442"><ele>616.3333333333333</ele><time>2026-05-03T09:14:36.999Z</time></trkpt><trkpt lat="44.29664279890076" lon="7.977918863994768"><ele>615.6666666666666</ele><time>2026-05-03T09:14:37.999Z</time></trkpt><trkpt lat="44.29671720471322" lon="7.9780004019725785"><ele>615.0</ele><time>2026-05-03T09:14:38.999Z</time></trkpt><trkpt lat="44.29679096723178" lon="7.978049017036677"><ele>614.3333333333334</ele><time>2026-05-03T09:14:39.999Z</time></trkpt><trkpt lat="44.29686245095146" lon="7.978105183209113"><ele>613.6666666666667</ele><time>2026-05-03T09:14:40.999Z</time></trkpt><trkpt lat="44.29693561845998" lon="7.978172055752437"><ele>613.0</ele><time>2026-05-03T09:14:41.999Z</time></trkpt><trkpt lat="44.297019012103185" lon="7.978223767970961"><ele>613.0</ele><time>2026-05-03T09:14:42.999Z</time></trkpt><trkpt lat="44.297117546902065" lon="7.978252414515056"><ele>613.0</ele><time>2026-05-03T09:14:43.999Z</time></trkpt><trkpt lat="44.29721862728105" lon="7.97827174969689"><ele>613.0</ele><time>2026-05-03T09:14:44.999Z</time></trkpt><trkpt lat="44.297351819998866" lon="7.97820597501737"><ele>613.0</ele><time>2026-05-03T09:14:45.999Z</time></trkpt><trkpt lat="44.29745073034855" lon="7.978186977596496"><ele>613.0</ele><time>2026-05-03T09:14:46.999Z</time></trkpt><trkpt lat="44.29755226854373" lon="7.97817086520418"><ele>612.6</ele><time>2026-05-03T09:14:47.999Z</time></trkpt><trkpt lat="44.297642643383426" lon="7.978131241913032"><ele>612.1999999999999</ele><time>2026-05-03T09:14:48.999Z</time></trkpt><trkpt lat="44.29772521373278" lon="7.978088905658885"><ele>611.8</ele><time>2026-05-03T09:14:49.998Z</time></trkpt><trkpt lat="44.29782860868153" lon="7.978031616881036"><ele>611.4</ele><time>2026-05-03T09:14:50.998Z</time></trkpt><trkpt lat="44.29791435908939" lon="7.977951907597399"><ele>611.0</ele><time>2026-05-03T09:14:51.998Z</time></trkpt><trkpt lat="44.298031970887656" lon="7.977852610570564"><ele>613.8</ele><time>2026-05-03T09:14:52.998Z</time></trkpt><trkpt lat="44.29813831657946" lon="7.977747347960627"><ele>616.6</ele><time>2026-05-03T09:14:53.998Z</time></trkpt><trkpt lat="44.298230703896415" lon="7.977668146076095"><ele>619.4</ele><time>2026-05-03T09:14:54.998Z</time></trkpt><trkpt lat="44.298310758362945" lon="7.977589732384093"><ele>622.2</ele><time>2026-05-03T09:14:55.998Z</time></trkpt><trkpt lat="44.29840342552095" lon="7.9775160131169285"><ele>625.0</ele><time>2026-05-03T09:14:56.998Z</time></trkpt><trkpt lat="44.298497820849825" lon="7.977445466526186"><ele>625.0</ele><time>2026-05-03T09:14:57.998Z</time></trkpt><trkpt lat="44.29857451598615" lon="7.977385436503594"><ele>625.0</ele><time>2026-05-03T09:14:58.998Z</time></trkpt><trkpt lat="44.29864130608994" lon="7.977352465332469"><ele>625.0</ele><time>2026-05-03T09:14:59.998Z</time></trkpt><trkpt lat="44.29872860969062" lon="7.977355129035487"><ele>625.0</ele><time>2026-05-03T09:15:00.998Z</time></trkpt><trkpt lat="44.298805218710406" lon="7.977357127625639"><ele>625.0</ele><time>2026-05-03T09:15:01.998Z</time></trkpt><trkpt lat="44.29888711893471" lon="7.97734423384512"><ele>625.0</ele><time>2026-05-03T09:15:02.998Z</time></trkpt><trkpt lat="44.29897378315328" lon="7.97729003081957"><ele>621.0</ele><time>2026-05-03T09:15:03.998Z</time></trkpt><trkpt lat="44.29906961613223" lon="7.977228028738173"><ele>617.0</ele><time>2026-05-03T09:15:04.998Z</time></trkpt><trkpt lat="44.29916646139876" lon="7.9771572428195885"><ele>613.0</ele><time>2026-05-03T09:15:05.998Z</time></trkpt><trkpt lat="44.29926638714516" lon="7.977081882421531"><ele>609.0</ele><time>2026-05-03T09:15:06.998Z</time></trkpt><trkpt lat="44.29934849862953" lon="7.977010702690579"><ele>605.0</ele><time>2026-05-03T09:15:07.998Z</time></trkpt><trkpt lat="44.299466913338435" lon="7.976969318301385"><ele>605.0</ele><time>2026-05-03T09:15:08.998Z</time></trkpt><trkpt lat="44.29960095005978" lon="7.976960565147689"><ele>605.0</ele><time>2026-05-03T09:15:09.998Z</time></trkpt><trkpt lat="44.29974551409775" lon="7.976975954253165"><ele>605.0</ele><time>2026-05-03T09:15:10.998Z</time></trkpt><trkpt lat="44.299904482330525" lon="7.976986680035984"><ele>605.0</ele><time>2026-05-03T09:15:11.998Z</time></trkpt><trkpt lat="44.30002450636176" lon="7.976986680043885"><ele>603.0</ele><time>2026-05-03T09:15:13Z</time></trkpt><trkpt lat="44.3001559444341" lon="7.976964749887442"><ele>601.0</ele><time>2026-05-03T09:15:14Z</time></trkpt><trkpt lat="44.300305626312024" lon="7.976952076889282"><ele>599.0</ele><time>2026-05-03T09:15:15Z</time></trkpt><trkpt lat="44.30046445722404" lon="7.976956816170751"><ele>597.0</ele><time>2026-05-03T09:15:16Z</time></trkpt><trkpt lat="44.300614845552396" lon="7.97694652220737"><ele>595.5</ele><time>2026-05-03T09:15:17Z</time></trkpt><trkpt lat="44.30076021951293" lon="7.976936121076018"><ele>594.0</ele><time>2026-05-03T09:15:18Z</time></trkpt><trkpt lat="44.300887366905336" lon="7.97690815285363"><ele>592.5</ele><time>2026-05-03T09:15:19Z</time></trkpt><trkpt lat="44.300999624701525" lon="7.976917331302527"><ele>591.0</ele><time>2026-05-03T09:15:20Z</time></trkpt><trkpt lat="44.30111391005354" lon="7.976939119933878"><ele>591.0</ele><time>2026-05-03T09:15:21Z</time></trkpt><trkpt lat="44.30120795479209" lon="7.976964455463916"><ele>591.0</ele><time>2026-05-03T09:15:22Z</time></trkpt><trkpt lat="44.30131437145029" lon="7.976999433660536"><ele>591.0</ele><time>2026-05-03T09:15:23Z</time></trkpt><trkpt lat="44.30143330802317" lon="7.9770171590348715"><ele>591.0</ele><time>2026-05-03T09:15:24Z</time></trkpt><trkpt lat="44.30154171707697" lon="7.977079582170953"><ele>591.0</ele><time>2026-05-03T09:15:25Z</time></trkpt><trkpt lat="44.30163963713945" lon="7.977096530348337"><ele>588.8</ele><time>2026-05-03T09:15:26Z</time></trkpt><trkpt lat="44.30173802088776" lon="7.977132382978477"><ele>586.6</ele><time>2026-05-03T09:15:27Z</time></trkpt><trkpt lat="44.3018157805009" lon="7.977190998989607"><ele>584.4</ele><time>2026-05-03T09:15:28Z</time></trkpt><trkpt lat="44.30190779215663" lon="7.977230005842283"><ele>582.2</ele><time>2026-05-03T09:15:29Z</time></trkpt><trkpt lat="44.30198748384505" lon="7.977251782059106"><ele>580.0</ele><time>2026-05-03T09:15:30Z</time></trkpt><trkpt lat="44.30207285185632" lon="7.977284307462171"><ele>580.0</ele><time>2026-05-03T09:15:31Z</time></trkpt><trkpt lat="44.302173674174554" lon="7.9773125694356635"><ele>580.0</ele><time>2026-05-03T09:15:32Z</time></trkpt><trkpt lat="44.30224548118809" lon="7.977344428124522"><ele>580.0</ele><time>2026-05-03T09:15:33Z</time></trkpt><trkpt lat="44.302328090227" lon="7.977381553707251"><ele>580.0</ele><time>2026-05-03T09:15:34Z</time></trkpt><trkpt lat="44.302401872781644" lon="7.9774301697222"><ele>580.0</ele><time>2026-05-03T09:15:35Z</time></trkpt><trkpt lat="44.302470323882396" lon="7.977483461207702"><ele>580.0</ele><time>2026-05-03T09:15:36Z</time></trkpt><trkpt lat="44.30254951717645" lon="7.9775599794290395"><ele>579.3333333333334</ele><time>2026-05-03T09:15:37Z</time></trkpt><trkpt lat="44.302606764016446" lon="7.9776401313810075"><ele>578.6666666666667</ele><time>2026-05-03T09:15:38Z</time></trkpt><trkpt lat="44.30266877536868" lon="7.97772231872087"><ele>578.0</ele><time>2026-05-03T09:15:39Z</time></trkpt><trkpt lat="44.30272570735049" lon="7.977806640246608"><ele>577.3333333333334</ele><time>2026-05-03T09:15:40Z</time></trkpt><trkpt lat="44.30278182024105" lon="7.9778859312775"><ele>576.6666666666666</ele><time>2026-05-03T09:15:41Z</time></trkpt><trkpt lat="44.302842533561396" lon="7.9779571507546505"><ele>576.0</ele><time>2026-05-03T09:15:42Z</time></trkpt><trkpt lat="44.30289927311287" lon="7.978026190587303"><ele>576.0</ele><time>2026-05-03T09:15:43Z</time></trkpt><trkpt lat="44.30296100726117" lon="7.978084258341508"><ele>576.0</ele><time>2026-05-03T09:15:44Z</time></trkpt><trkpt lat="44.303036545887906" lon="7.978146551937828"><ele>576.0</ele><time>2026-05-03T09:15:45Z</time></trkpt><trkpt lat="44.303104956049694" lon="7.978209767592145"><ele>576.0</ele><time>2026-05-03T09:15:46Z</time></trkpt><trkpt lat="44.30317582060837" lon="7.978270351519695"><ele>576.0</ele><time>2026-05-03T09:15:47Z</time></trkpt><trkpt lat="44.30325851441709" lon="7.978335335837161"><ele>576.0</ele><time>2026-05-03T09:15:48Z</time></trkpt><trkpt lat="44.30333453529664" lon="7.9783913172572625"><ele>576.6666666666666</ele><time>2026-05-03T09:15:49Z</time></trkpt><trkpt lat="44.30340066401081" lon="7.97844243475328"><ele>577.3333333333334</ele><time>2026-05-03T09:15:50Z</time></trkpt><trkpt lat="44.30346312968532" lon="7.97847967680304"><ele>578.0</ele><time>2026-05-03T09:15:51Z</time></trkpt><trkpt lat="44.30357318109519" lon="7.97855056484922"><ele>578.6666666666667</ele><time>2026-05-03T09:15:53Z</time></trkpt><trkpt lat="44.303648843559614" lon="7.9785810534145245"><ele>579.3333333333334</ele><time>2026-05-03T09:15:54Z</time></trkpt><trkpt lat="44.303727310411915" lon="7.978598510585635"><ele>580.0</ele><time>2026-05-03T09:15:55Z</time></trkpt><trkpt lat="44.30379745085691" lon="7.978616174648678"><ele>580.0</ele><time>2026-05-03T09:15:56Z</time></trkpt><trkpt lat="44.30387548507546" lon="7.978621537421026"><ele>580.0</ele><time>2026-05-03T09:15:57Z</time></trkpt><trkpt lat="44.303958130384416" lon="7.978615204815737"><ele>580.0</ele><time>2026-05-03T09:15:57.999Z</time></trkpt><trkpt lat="44.30404822040117" lon="7.978602918991438"><ele>580.0</ele><time>2026-05-03T09:15:58.999Z</time></trkpt><trkpt lat="44.304132922043834" lon="7.9785884563139176"><ele>580.0</ele><time>2026-05-03T09:15:59.999Z</time></trkpt><trkpt lat="44.30421447818758" lon="7.978560516569727"><ele>580.0</ele><time>2026-05-03T09:16:00.999Z</time></trkpt><trkpt lat="44.3042998544253" lon="7.978542870363936"><ele>579.3333333333334</ele><time>2026-05-03T09:16:01.999Z</time></trkpt><trkpt lat="44.304396528744945" lon="7.978543380612599"><ele>578.6666666666667</ele><time>2026-05-03T09:16:02.999Z</time></trkpt><trkpt lat="44.304494864878" lon="7.978541715735422"><ele>578.0</ele><time>2026-05-03T09:16:03.999Z</time></trkpt><trkpt lat="44.30457746946243" lon="7.97854762176334"><ele>577.3333333333334</ele><time>2026-05-03T09:16:04.999Z</time></trkpt><trkpt lat="44.30466277540645" lon="7.978559372344897"><ele>576.6666666666666</ele><time>2026-05-03T09:16:05.999Z</time></trkpt><trkpt lat="44.304739939450066" lon="7.978565660171158"><ele>576.0</ele><time>2026-05-03T09:16:06.999Z</time></trkpt><trkpt lat="44.304826902298934" lon="7.97857288347078"><ele>575.3333333333334</ele><time>2026-05-03T09:16:07.999Z</time></trkpt><trkpt lat="44.30491776518352" lon="7.9785732376975655"><ele>574.6666666666666</ele><time>2026-05-03T09:16:08.999Z</time></trkpt><trkpt lat="44.30500041587052" lon="7.978590183837425"><ele>574.0</ele><time>2026-05-03T09:16:09.999Z</time></trkpt><trkpt lat="44.3050909192539" lon="7.978604330324608"><ele>573.3333333333333</ele><time>2026-05-03T09:16:10.999Z</time></trkpt><trkpt lat="44.305178876747455" lon="7.978621422472062"><ele>572.6666666666666</ele><time>2026-05-03T09:16:11.999Z</time></trkpt><trkpt lat="44.305263150585205" lon="7.978634725372523"><ele>572.0</ele><time>2026-05-03T09:16:12.999Z</time></trkpt><trkpt lat="44.30534769310968" lon="7.978651848497886"><ele>572.0</ele><time>2026-05-03T09:16:13.999Z</time></trkpt><trkpt lat="44.30541970592126" lon="7.978671054698759"><ele>572.0</ele><time>2026-05-03T09:16:14.999Z</time></trkpt><trkpt lat="44.30549454152099" lon="7.978694612135579"><ele>572.0</ele><time>2026-05-03T09:16:15.999Z</time></trkpt><trkpt lat="44.30557428218781" lon="7.97871450998887"><ele>572.0</ele><time>2026-05-03T09:16:16.999Z</time></trkpt><trkpt lat="44.3056925692519" lon="7.978770655489739"><ele>572.0</ele><time>2026-05-03T09:16:18.999Z</time></trkpt><trkpt lat="44.305764327427724" lon="7.978803131180994"><ele>572.0</ele><time>2026-05-03T09:16:19.999Z</time></trkpt><trkpt lat="44.30585844858927" lon="7.978834055938024"><ele>572.5</ele><time>2026-05-03T09:16:20.999Z</time></trkpt><trkpt lat="44.3059502236294" lon="7.978872846799488"><ele>573.0</ele><time>2026-05-03T09:16:21.999Z</time></trkpt><trkpt lat="44.30601812496068" lon="7.978920962782838"><ele>573.5</ele><time>2026-05-03T09:16:22.999Z</time></trkpt><trkpt lat="44.306104419745544" lon="7.978966394107977"><ele>574.0</ele><time>2026-05-03T09:16:23.999Z</time></trkpt><trkpt lat="44.306185667499726" lon="7.979023289408361"><ele>574.5</ele><time>2026-05-03T09:16:24.999Z</time></trkpt><trkpt lat="44.30625819335825" lon="7.979072101413175"><ele>575.0</ele><time>2026-05-03T09:16:25.999Z</time></trkpt><trkpt lat="44.30633302195271" lon="7.9791155445498285"><ele>575.0</ele><time>2026-05-03T09:16:26.999Z</time></trkpt><trkpt lat="44.30641073229582" lon="7.979138409655703"><ele>575.0</ele><time>2026-05-03T09:16:27.999Z</time></trkpt><trkpt lat="44.30652441409076" lon="7.979172487793269"><ele>575.0</ele><time>2026-05-03T09:16:29.999Z</time></trkpt><trkpt lat="44.30661929727647" lon="7.979272139448691"><ele>575.0</ele><time>2026-05-03T09:16:31.999Z</time></trkpt><trkpt lat="44.30666816749107" lon="7.979369565785246"><ele>575.0</ele><time>2026-05-03T09:16:32.999Z</time></trkpt><trkpt lat="44.30670948935105" lon="7.979474739300373"><ele>575.8</ele><time>2026-05-03T09:16:33.999Z</time></trkpt><trkpt lat="44.30674757488967" lon="7.979546106314333"><ele>576.6</ele><time>2026-05-03T09:16:34.999Z</time></trkpt><trkpt lat="44.30679617340574" lon="7.979610817843784"><ele>577.4</ele><time>2026-05-03T09:16:35.999Z</time></trkpt><trkpt lat="44.3068498073744" lon="7.97975348107681"><ele>578.2</ele><time>2026-05-03T09:16:37.999Z</time></trkpt><trkpt lat="44.30696358043365" lon="7.97981405803361"><ele>579.0</ele><time>2026-05-03T09:16:39.999Z</time></trkpt><trkpt lat="44.30704118916458" lon="7.979871950288571"><ele>579.0</ele><time>2026-05-03T09:16:40.999Z</time></trkpt><trkpt lat="44.30715671368467" lon="7.979947098622425"><ele>579.0</ele><time>2026-05-03T09:16:42.999Z</time></trkpt><trkpt lat="44.30726147835114" lon="7.980011400556507"><ele>579.0</ele><time>2026-05-03T09:16:44.999Z</time></trkpt><trkpt lat="44.30736967516479" lon="7.980065804363914"><ele>579.0</ele><time>2026-05-03T09:16:46.999Z</time></trkpt><trkpt lat="44.30744691461161" lon="7.980090825013708"><ele>579.0</ele><time>2026-05-03T09:16:48.999Z</time></trkpt><trkpt lat="44.3074600659413" lon="7.979847020118418"><ele>579.0</ele><time>2026-05-03T09:16:51.999Z</time></trkpt><trkpt lat="44.30749033075773" lon="7.97976335456628"><ele>579.0</ele><time>2026-05-03T09:16:54.999Z</time></trkpt><trkpt lat="44.30742332330284" lon="7.979637628895396"><ele>579.0</ele><time>2026-05-03T09:16:56.998Z</time></trkpt><trkpt lat="44.30737135675684" lon="7.979547862180998"><ele>579.0</ele><time>2026-05-03T09:16:57.998Z</time></trkpt><trkpt lat="44.30730146338237" lon="7.979476532070009"><ele>579.0</ele><time>2026-05-03T09:16:58.998Z</time></trkpt><trkpt lat="44.307237044854574" lon="7.979373468790117"><ele>579.0</ele><time>2026-05-03T09:16:59.998Z</time></trkpt><trkpt lat="44.30717103530947" lon="7.979182221048369"><ele>579.5</ele><time>2026-05-03T09:17:01.998Z</time></trkpt><trkpt lat="44.30712995140257" lon="7.979050555081017"><ele>580.0</ele><time>2026-05-03T09:17:02.998Z</time></trkpt><trkpt lat="44.3071144451526" lon="7.9789372907962175"><ele>580.5</ele><time>2026-05-03T09:17:03.998Z</time></trkpt><trkpt lat="44.30710349378742" lon="7.978847332307906"><ele>581.0</ele><time>2026-05-03T09:17:04.998Z</time></trkpt><trkpt lat="44.307099944300546" lon="7.978694363911994"><ele>581.5</ele><time>2026-05-03T09:17:06.998Z</time></trkpt><trkpt lat="44.30710624086168" lon="7.978606574769754"><ele>582.0</ele><time>2026-05-03T09:17:07.998Z</time></trkpt><trkpt lat="44.30712460741741" lon="7.978518697841312"><ele>582.0</ele><time>2026-05-03T09:17:08.998Z</time></trkpt><trkpt lat="44.30717097829911" lon="7.978374196850199"><ele>582.0</ele><time>2026-05-03T09:17:10.998Z</time></trkpt><trkpt lat="44.30727151669398" lon="7.9783065173113314"><ele>582.0</ele><time>2026-05-03T09:17:12.998Z</time></trkpt><trkpt lat="44.30733561699696" lon="7.978322211286739"><ele>582.0</ele><time>2026-05-03T09:17:13.998Z</time></trkpt><trkpt lat="44.30738780391865" lon="7.978375087546903"><ele>582.0</ele><time>2026-05-03T09:17:14.998Z</time></trkpt><trkpt lat="44.307430097454045" lon="7.978481258271361"><ele>582.0</ele><time>2026-05-03T09:17:15.998Z</time></trkpt><trkpt lat="44.307491658902364" lon="7.97855692687313"><ele>582.0</ele><time>2026-05-03T09:17:16.998Z</time></trkpt><trkpt lat="44.30754875629059" lon="7.978630234650291"><ele>582.0</ele><time>2026-05-03T09:17:17.998Z</time></trkpt><trkpt lat="44.307602888276676" lon="7.978703913886058"><ele>582.0</ele><time>2026-05-03T09:17:20Z</time></trkpt><trkpt lat="44.30765019751316" lon="7.978801566649122"><ele>582.0</ele><time>2026-05-03T09:17:22Z</time></trkpt><trkpt lat="44.30768212969534" lon="7.978982424749457"><ele>582.0</ele><time>2026-05-03T09:17:24Z</time></trkpt><trkpt lat="44.30770534679079" lon="7.9790864800303725"><ele>582.0</ele><time>2026-05-03T09:17:25Z</time></trkpt><trkpt lat="44.307730319520715" lon="7.979190593779846"><ele>582.0</ele><time>2026-05-03T09:17:26Z</time></trkpt><trkpt lat="44.30777001430364" lon="7.979334719228595"><ele>582.0</ele><time>2026-05-03T09:17:28Z</time></trkpt><trkpt lat="44.30783321630828" lon="7.97946192324027"><ele>582.0</ele><time>2026-05-03T09:17:30Z</time></trkpt><trkpt lat="44.30789420456132" lon="7.97952322499131"><ele>582.0</ele><time>2026-05-03T09:17:32Z</time></trkpt><trkpt lat="44.30798353461899" lon="7.979535017723913"><ele>582.0</ele><time>2026-05-03T09:17:34Z</time></trkpt><trkpt lat="44.30803005311493" lon="7.979456192082027"><ele>582.0</ele><time>2026-05-03T09:17:35Z</time></trkpt><trkpt lat="44.308040623599474" lon="7.979318853831338"><ele>582.0</ele><time>2026-05-03T09:17:36Z</time></trkpt><trkpt lat="44.30805306480004" lon="7.979201982816782"><ele>582.0</ele><time>2026-05-03T09:17:37Z</time></trkpt><trkpt lat="44.30806058109282" lon="7.979083865731352"><ele>582.0</ele><time>2026-05-03T09:17:38Z</time></trkpt><trkpt lat="44.30808132314571" lon="7.978971400829718"><ele>582.0</ele><time>2026-05-03T09:17:39Z</time></trkpt><trkpt lat="44.30808367027776" lon="7.978874816477661"><ele>582.0</ele><time>2026-05-03T09:17:40Z</time></trkpt><trkpt lat="44.30808981988505" lon="7.978785811265662"><ele>582.5</ele><time>2026-05-03T09:17:41Z</time></trkpt><trkpt lat="44.30809442582622" lon="7.9786803402774344"><ele>583.0</ele><time>2026-05-03T09:17:42Z</time></trkpt><trkpt lat="44.30810346016042" lon="7.978549134489604"><ele>583.5</ele><time>2026-05-03T09:17:44Z</time></trkpt><trkpt lat="44.30812773416665" lon="7.978459406292114"><ele>584.0</ele><time>2026-05-03T09:17:49Z</time></trkpt><trkpt lat="44.3080793926965" lon="7.9785450928871295"><ele>584.5</ele><time>2026-05-03T09:18:02Z</time></trkpt><trkpt lat="44.30808405260771" lon="7.978656002507745"><ele>585.0</ele><time>2026-05-03T09:18:03.999Z</time></trkpt><trkpt lat="44.30807001561027" lon="7.978861034139505"><ele>585.0</ele><time>2026-05-03T09:18:05.999Z</time></trkpt><trkpt lat="44.30806298295805" lon="7.978950587624121"><ele>585.0</ele><time>2026-05-03T09:18:06.999Z</time></trkpt><trkpt lat="44.308051624809615" lon="7.979051852803008"><ele>585.0</ele><time>2026-05-03T09:18:07.999Z</time></trkpt><trkpt lat="44.30804300314812" lon="7.979150942679049"><ele>585.0</ele><time>2026-05-03T09:18:08.999Z</time></trkpt><trkpt lat="44.308030705620354" lon="7.979241282711045"><ele>585.0</ele><time>2026-05-03T09:18:09.999Z</time></trkpt><trkpt lat="44.30801269899381" lon="7.9793775954780415"><ele>585.0</ele><time>2026-05-03T09:18:11.999Z</time></trkpt><trkpt lat="44.30798114030131" lon="7.97946961792799"><ele>585.0</ele><time>2026-05-03T09:18:13.999Z</time></trkpt><trkpt lat="44.30791375776082" lon="7.979511022820571"><ele>585.0</ele><time>2026-05-03T09:18:15.999Z</time></trkpt><trkpt lat="44.307831886938295" lon="7.97945717083019"><ele>585.0</ele><time>2026-05-03T09:18:17.999Z</time></trkpt><trkpt lat="44.30780403845268" lon="7.979350334003091"><ele>585.0</ele><time>2026-05-03T09:18:18.999Z</time></trkpt><trkpt lat="44.307774986861325" lon="7.9792287301623"><ele>585.0</ele><time>2026-05-03T09:18:19.999Z</time></trkpt><trkpt lat="44.30774707482376" lon="7.979119935108091"><ele>585.0</ele><time>2026-05-03T09:18:20.999Z</time></trkpt><trkpt lat="44.30772623752488" lon="7.979023849837736"><ele>585.0</ele><time>2026-05-03T09:18:21.999Z</time></trkpt><trkpt lat="44.30769315811498" lon="7.97892943062832"><ele>585.0</ele><time>2026-05-03T09:18:22.999Z</time></trkpt><trkpt lat="44.30765961336709" lon="7.9787706669116165"><ele>585.0</ele><time>2026-05-03T09:18:24.999Z</time></trkpt><trkpt lat="44.3075961074102" lon="7.978652062266242"><ele>585.0</ele><time>2026-05-03T09:18:26.999Z</time></trkpt><trkpt lat="44.30755499538734" lon="7.978573892420394"><ele>585.0</ele><time>2026-05-03T09:18:27.999Z</time></trkpt><trkpt lat="44.3074958646156" lon="7.9785002527564535"><ele>585.0</ele><time>2026-05-03T09:18:28.999Z</time></trkpt><trkpt lat="44.30743458826442" lon="7.978452070018165"><ele>585.0</ele><time>2026-05-03T09:18:29.999Z</time></trkpt><trkpt lat="44.30740153740112" lon="7.978375794141551"><ele>584.5</ele><time>2026-05-03T09:18:30.999Z</time></trkpt><trkpt lat="44.307352567986364" lon="7.978319635641929"><ele>584.0</ele><time>2026-05-03T09:18:31.999Z</time></trkpt><trkpt lat="44.30728958580476" lon="7.978301383721877"><ele>583.5</ele><time>2026-05-03T09:18:32.999Z</time></trkpt><trkpt lat="44.30719815732045" lon="7.978268199172294"><ele>583.0</ele><time>2026-05-03T09:18:34.999Z</time></trkpt><trkpt lat="44.30712875195193" lon="7.978364421631456"><ele>582.5</ele><time>2026-05-03T09:18:36.999Z</time></trkpt><trkpt lat="44.30705997479686" lon="7.978463761000443"><ele>582.0</ele><time>2026-05-03T09:18:37.999Z</time></trkpt><trkpt lat="44.30705329382032" lon="7.978559360134127"><ele>582.0</ele><time>2026-05-03T09:18:38.999Z</time></trkpt><trkpt lat="44.307028880392366" lon="7.978729813877908"><ele>582.0</ele><time>2026-05-03T09:18:40.999Z</time></trkpt><trkpt lat="44.307040918858696" lon="7.978869335176785"><ele>582.0</ele><time>2026-05-03T09:18:41.999Z</time></trkpt><trkpt lat="44.30705129562406" lon="7.9789748270399805"><ele>582.0</ele><time>2026-05-03T09:18:42.999Z</time></trkpt><trkpt lat="44.307086651409065" lon="7.979057860776267"><ele>582.0</ele><time>2026-05-03T09:18:43.999Z</time></trkpt><trkpt lat="44.30712051380699" lon="7.979228355998729"><ele>582.0</ele><time>2026-05-03T09:18:45.999Z</time></trkpt><trkpt lat="44.30718122770434" lon="7.979393570306489"><ele>582.0</ele><time>2026-05-03T09:18:47.999Z</time></trkpt><trkpt lat="44.307239035218416" lon="7.979455060947346"><ele>582.0</ele><time>2026-05-03T09:18:48.999Z</time></trkpt><trkpt lat="44.3072739613159" lon="7.979528423817978"><ele>582.0</ele><time>2026-05-03T09:18:49.999Z</time></trkpt><trkpt lat="44.307325615714795" lon="7.979606352403783"><ele>582.0</ele><time>2026-05-03T09:18:50.999Z</time></trkpt><trkpt lat="44.307372244958394" lon="7.9796672253258025"><ele>582.0</ele><time>2026-05-03T09:18:51.999Z</time></trkpt><trkpt lat="44.30742880861737" lon="7.979731786440358"><ele>582.0</ele><time>2026-05-03T09:18:52.999Z</time></trkpt><trkpt lat="44.30749810324884" lon="7.979775452466821"><ele>582.0</ele><time>2026-05-03T09:18:53.999Z</time></trkpt><trkpt lat="44.307592631466186" lon="7.979876308252992"><ele>582.0</ele><time>2026-05-03T09:18:55.999Z</time></trkpt><trkpt lat="44.30768083884305" lon="7.979961659204428"><ele>582.0</ele><time>2026-05-03T09:18:57.999Z</time></trkpt><trkpt lat="44.307738704822064" lon="7.980018288335691"><ele>582.0</ele><time>2026-05-03T09:18:58.999Z</time></trkpt><trkpt lat="44.3078173960248" lon="7.9801091401893585"><ele>583.0</ele><time>2026-05-03T09:18:59.998Z</time></trkpt><trkpt lat="44.307924039543025" lon="7.980155252101839"><ele>584.0</ele><time>2026-05-03T09:19:00.998Z</time></trkpt><trkpt lat="44.30803403022129" lon="7.98023614115343"><ele>585.0</ele><time>2026-05-03T09:19:01.998Z</time></trkpt><trkpt lat="44.308157820028136" lon="7.9802941073355225"><ele>586.0</ele><time>2026-05-03T09:19:02.998Z</time></trkpt><trkpt lat="44.308254090664455" lon="7.980367981619522"><ele>584.0</ele><time>2026-05-03T09:19:03.998Z</time></trkpt><trkpt lat="44.308346572961675" lon="7.980411139820731"><ele>582.0</ele><time>2026-05-03T09:19:04.998Z</time></trkpt><trkpt lat="44.308436855642846" lon="7.980472443061958"><ele>580.0</ele><time>2026-05-03T09:19:05.998Z</time></trkpt><trkpt lat="44.30851166144827" lon="7.980552724858709"><ele>578.0</ele><time>2026-05-03T09:19:06.998Z</time></trkpt><trkpt lat="44.308587139278856" lon="7.980635510268964"><ele>576.0</ele><time>2026-05-03T09:19:07.998Z</time></trkpt><trkpt lat="44.308682098230506" lon="7.980754164542449"><ele>576.0</ele><time>2026-05-03T09:19:08.998Z</time></trkpt><trkpt lat="44.30876679188582" lon="7.980873315992187"><ele>576.0</ele><time>2026-05-03T09:19:09.998Z</time></trkpt><trkpt lat="44.30884620040805" lon="7.9809702138988525"><ele>576.0</ele><time>2026-05-03T09:19:10.998Z</time></trkpt><trkpt lat="44.30892183511139" lon="7.981069508460805"><ele>576.0</ele><time>2026-05-03T09:19:11.998Z</time></trkpt><trkpt lat="44.309005543315266" lon="7.981183151998481"><ele>576.0</ele><time>2026-05-03T09:19:12.998Z</time></trkpt><trkpt lat="44.309083598494034" lon="7.981289187460277"><ele>574.4</ele><time>2026-05-03T09:19:13.998Z</time></trkpt><trkpt lat="44.30915891049866" lon="7.981393418459742"><ele>572.8</ele><time>2026-05-03T09:19:14.998Z</time></trkpt><trkpt lat="44.30922780464258" lon="7.98148097692058"><ele>571.1999999999999</ele><time>2026-05-03T09:19:15.998Z</time></trkpt><trkpt lat="44.309300363102885" lon="7.981567479262086"><ele>569.6</ele><time>2026-05-03T09:19:16.998Z</time></trkpt><trkpt lat="44.309369919645356" lon="7.981651520795907"><ele>568.0</ele><time>2026-05-03T09:19:17.998Z</time></trkpt><trkpt lat="44.30943800379737" lon="7.981733513294492"><ele>566.8</ele><time>2026-05-03T09:19:18.998Z</time></trkpt><trkpt lat="44.309503095356746" lon="7.981807665757856"><ele>565.5999999999999</ele><time>2026-05-03T09:19:19.998Z</time></trkpt><trkpt lat="44.30957891722604" lon="7.981869757110244"><ele>564.4000000000001</ele><time>2026-05-03T09:19:20.998Z</time></trkpt><trkpt lat="44.309678796860986" lon="7.981934050189473"><ele>563.2</ele><time>2026-05-03T09:19:21.998Z</time></trkpt><trkpt lat="44.30978369997016" lon="7.981982897354805"><ele>562.0</ele><time>2026-05-03T09:19:22.998Z</time></trkpt><trkpt lat="44.30989906004853" lon="7.982025109297734"><ele>561.2</ele><time>2026-05-03T09:19:23.998Z</time></trkpt><trkpt lat="44.31000767546976" lon="7.9820433747595665"><ele>560.4000000000001</ele><time>2026-05-03T09:19:25Z</time></trkpt><trkpt lat="44.31011835324348" lon="7.982059942456567"><ele>559.5999999999999</ele><time>2026-05-03T09:19:26Z</time></trkpt><trkpt lat="44.31021975224559" lon="7.982070833208111"><ele>558.8</ele><time>2026-05-03T09:19:27Z</time></trkpt><trkpt lat="44.31031703106028" lon="7.982102848684848"><ele>558.0</ele><time>2026-05-03T09:19:28Z</time></trkpt><trkpt lat="44.31042732484985" lon="7.98213251882648"><ele>558.0</ele><time>2026-05-03T09:19:29Z</time></trkpt><trkpt lat="44.310537514902954" lon="7.982166772728514"><ele>558.0</ele><time>2026-05-03T09:19:30Z</time></trkpt><trkpt lat="44.310643034212916" lon="7.982190536774112"><ele>558.0</ele><time>2026-05-03T09:19:31Z</time></trkpt><trkpt lat="44.31074824865819" lon="7.982215349066796"><ele>558.0</ele><time>2026-05-03T09:19:32Z</time></trkpt><trkpt lat="44.31085729553059" lon="7.982238716309035"><ele>558.0</ele><time>2026-05-03T09:19:33Z</time></trkpt><trkpt lat="44.31096968297303" lon="7.982244789285183"><ele>557.75</ele><time>2026-05-03T09:19:34Z</time></trkpt><trkpt lat="44.31108305224591" lon="7.982237890040031"><ele>557.5</ele><time>2026-05-03T09:19:35Z</time></trkpt><trkpt lat="44.311211498331986" lon="7.982225793004655"><ele>557.25</ele><time>2026-05-03T09:19:36Z</time></trkpt><trkpt lat="44.3113434549129" lon="7.982210342554212"><ele>557.0</ele><time>2026-05-03T09:19:37Z</time></trkpt><trkpt lat="44.31147450237137" lon="7.982200316122213"><ele>556.25</ele><time>2026-05-03T09:19:38Z</time></trkpt><trkpt lat="44.31159868599263" lon="7.982200442189547"><ele>555.5</ele><time>2026-05-03T09:19:39Z</time></trkpt><trkpt lat="44.31169732787761" lon="7.9822027209406965"><ele>554.75</ele><time>2026-05-03T09:19:40Z</time></trkpt><trkpt lat="44.31180746351993" lon="7.982212204035644"><ele>554.0</ele><time>2026-05-03T09:19:41Z</time></trkpt><trkpt lat="44.311927984419725" lon="7.982212848654651"><ele>554.0</ele><time>2026-05-03T09:19:42Z</time></trkpt><trkpt lat="44.312037883991415" lon="7.982232192250907"><ele>554.0</ele><time>2026-05-03T09:19:43Z</time></trkpt><trkpt lat="44.31214127372996" lon="7.982290724559"><ele>554.0</ele><time>2026-05-03T09:19:44Z</time></trkpt><trkpt lat="44.31224802443663" lon="7.982374740913375"><ele>554.0</ele><time>2026-05-03T09:19:45Z</time></trkpt><trkpt lat="44.312358104364755" lon="7.982468360873166"><ele>552.6</ele><time>2026-05-03T09:19:46Z</time></trkpt><trkpt lat="44.3124635314344" lon="7.982556321541094"><ele>551.2</ele><time>2026-05-03T09:19:47Z</time></trkpt><trkpt lat="44.31254350625402" lon="7.982642159381566"><ele>549.8000000000001</ele><time>2026-05-03T09:19:48Z</time></trkpt><trkpt lat="44.3126272577344" lon="7.98273351538236"><ele>548.4</ele><time>2026-05-03T09:19:49Z</time></trkpt><trkpt lat="44.31270164078375" lon="7.982812070460161"><ele>547.0</ele><time>2026-05-03T09:19:50Z</time></trkpt><trkpt lat="44.31276478619019" lon="7.982875296321933"><ele>547.0</ele><time>2026-05-03T09:19:51Z</time></trkpt><trkpt lat="44.31282889108026" lon="7.982932102574207"><ele>547.0</ele><time>2026-05-03T09:19:52Z</time></trkpt><trkpt lat="44.312912336369195" lon="7.982991350758341"><ele>547.0</ele><time>2026-05-03T09:19:53Z</time></trkpt><trkpt lat="44.31302446184969" lon="7.983027182092048"><ele>547.0</ele><time>2026-05-03T09:19:54Z</time></trkpt><trkpt lat="44.31314863192832" lon="7.983050980571409"><ele>547.0</ele><time>2026-05-03T09:19:55Z</time></trkpt><trkpt lat="44.313289220155966" lon="7.983085705340383"><ele>548.0</ele><time>2026-05-03T09:19:56Z</time></trkpt><trkpt lat="44.31345130151991" lon="7.983121765246064"><ele>549.0</ele><time>2026-05-03T09:19:57Z</time></trkpt><trkpt lat="44.31359460855523" lon="7.983169767584765"><ele>550.0</ele><time>2026-05-03T09:19:58Z</time></trkpt><trkpt lat="44.31376508051831" lon="7.983219716893659"><ele>549.6666666666667</ele><time>2026-05-03T09:19:59Z</time></trkpt><trkpt lat="44.31395365453797" lon="7.983260091415352"><ele>549.3333333333334</ele><time>2026-05-03T09:20:00Z</time></trkpt><trkpt lat="44.31412765357145" lon="7.983308071656096"><ele>549.0</ele><time>2026-05-03T09:20:01Z</time></trkpt><trkpt lat="44.31431173534322" lon="7.983353004960585"><ele>547.0</ele><time>2026-05-03T09:20:02Z</time></trkpt><trkpt lat="44.3144923239367" lon="7.983393002715049"><ele>545.0</ele><time>2026-05-03T09:20:03Z</time></trkpt><trkpt lat="44.314657632309896" lon="7.983446159640651"><ele>543.0</ele><time>2026-05-03T09:20:04Z</time></trkpt><trkpt lat="44.31482231499512" lon="7.983487251527229"><ele>541.3333333333334</ele><time>2026-05-03T09:20:05Z</time></trkpt><trkpt lat="44.31499173533852" lon="7.983524543287909"><ele>539.6666666666667</ele><time>2026-05-03T09:20:06Z</time></trkpt><trkpt lat="44.31516552119299" lon="7.983564782624074"><ele>538.0</ele><time>2026-05-03T09:20:07Z</time></trkpt><trkpt lat="44.315323076441516" lon="7.983605305064283"><ele>538.0</ele><time>2026-05-03T09:20:07.999Z</time></trkpt><trkpt lat="44.3154768098577" lon="7.983639763369709"><ele>538.0</ele><time>2026-05-03T09:20:08.999Z</time></trkpt><trkpt lat="44.31562402665044" lon="7.9836755577965395"><ele>538.0</ele><time>2026-05-03T09:20:09.999Z</time></trkpt><trkpt lat="44.31577762743195" lon="7.9837175564807"><ele>538.3333333333334</ele><time>2026-05-03T09:20:10.999Z</time></trkpt><trkpt lat="44.31593932997188" lon="7.983754818689422"><ele>538.6666666666666</ele><time>2026-05-03T09:20:11.999Z</time></trkpt><trkpt lat="44.316089379755" lon="7.983789629957493"><ele>539.0</ele><time>2026-05-03T09:20:12.999Z</time></trkpt><trkpt lat="44.31624248629667" lon="7.98382686467239"><ele>538.0</ele><time>2026-05-03T09:20:13.999Z</time></trkpt><trkpt lat="44.316406540733304" lon="7.983863474516645"><ele>537.0</ele><time>2026-05-03T09:20:14.999Z</time></trkpt><trkpt lat="44.31655821039096" lon="7.9839007091283785"><ele>536.0</ele><time>2026-05-03T09:20:15.999Z</time></trkpt><trkpt lat="44.316695194603554" lon="7.983936878047664"><ele>536.0</ele><time>2026-05-03T09:20:16.999Z</time></trkpt><trkpt lat="44.316830144277574" lon="7.983963677748763"><ele>536.0</ele><time>2026-05-03T09:20:17.999Z</time></trkpt><trkpt lat="44.316973845995285" lon="7.983999886664837"><ele>536.0</ele><time>2026-05-03T09:20:18.999Z</time></trkpt><trkpt lat="44.31711165948823" lon="7.984033431507944"><ele>536.0</ele><time>2026-05-03T09:20:19.999Z</time></trkpt><trkpt lat="44.31723710732798" lon="7.9840690952415665"><ele>537.0</ele><time>2026-05-03T09:20:20.999Z</time></trkpt><trkpt lat="44.317363735882125" lon="7.984099841531433"><ele>538.0</ele><time>2026-05-03T09:20:21.999Z</time></trkpt><trkpt lat="44.317483697526896" lon="7.98413048881379"><ele>539.0</ele><time>2026-05-03T09:20:22.999Z</time></trkpt><trkpt lat="44.31760283521866" lon="7.984157049213558"><ele>540.0</ele><time>2026-05-03T09:20:23.999Z</time></trkpt><trkpt lat="44.31773001196482" lon="7.984176419601082"><ele>540.25</ele><time>2026-05-03T09:20:24.999Z</time></trkpt><trkpt lat="44.317847549843485" lon="7.984184206446022"><ele>540.5</ele><time>2026-05-03T09:20:25.999Z</time></trkpt><trkpt lat="44.31797306975589" lon="7.984186182923099"><ele>540.75</ele><time>2026-05-03T09:20:26.999Z</time></trkpt><trkpt lat="44.318103871230356" lon="7.984149188835142"><ele>541.0</ele><time>2026-05-03T09:20:27.999Z</time></trkpt><trkpt lat="44.318235695053865" lon="7.984101066496745"><ele>541.25</ele><time>2026-05-03T09:20:28.999Z</time></trkpt><trkpt lat="44.31834348611105" lon="7.984015995165487"><ele>541.5</ele><time>2026-05-03T09:20:29.999Z</time></trkpt><trkpt lat="44.31846394736385" lon="7.983956534982028"><ele>541.75</ele><time>2026-05-03T09:20:30.999Z</time></trkpt><trkpt lat="44.31858242922512" lon="7.983890336526267"><ele>542.0</ele><time>2026-05-03T09:20:31.999Z</time></trkpt><trkpt lat="44.318689385448046" lon="7.983824283361352"><ele>542.0</ele><time>2026-05-03T09:20:32.999Z</time></trkpt><trkpt lat="44.31880733798796" lon="7.9837580370113175"><ele>542.0</ele><time>2026-05-03T09:20:33.999Z</time></trkpt><trkpt lat="44.318927301810376" lon="7.9836941194885735"><ele>542.0</ele><time>2026-05-03T09:20:34.999Z</time></trkpt><trkpt lat="44.319047918964294" lon="7.983636942741401"><ele>542.0</ele><time>2026-05-03T09:20:35.999Z</time></trkpt><trkpt lat="44.31914585027745" lon="7.983587478806922"><ele>539.75</ele><time>2026-05-03T09:20:36.999Z</time></trkpt><trkpt lat="44.31926164176498" lon="7.98353579284952"><ele>537.5</ele><time>2026-05-03T09:20:37.999Z</time></trkpt><trkpt lat="44.31937957878283" lon="7.98350062253425"><ele>535.25</ele><time>2026-05-03T09:20:38.999Z</time></trkpt><trkpt lat="44.319517661990005" lon="7.983454868113326"><ele>533.0</ele><time>2026-05-03T09:20:39.999Z</time></trkpt><trkpt lat="44.31964452465879" lon="7.983400727173298"><ele>532.75</ele><time>2026-05-03T09:20:40.999Z</time></trkpt><trkpt lat="44.31977620770761" lon="7.9833583541011"><ele>532.5</ele><time>2026-05-03T09:20:41.999Z</time></trkpt><trkpt lat="44.31990090097339" lon="7.983325985208712"><ele>532.25</ele><time>2026-05-03T09:20:42.999Z</time></trkpt><trkpt lat="44.32002133077037" lon="7.98329094368741"><ele>532.0</ele><time>2026-05-03T09:20:43.999Z</time></trkpt><trkpt lat="44.32015247775705" lon="7.983248116268228"><ele>532.0</ele><time>2026-05-03T09:20:44.999Z</time></trkpt><trkpt lat="44.32028138874544" lon="7.983195455308896"><ele>532.0</ele><time>2026-05-03T09:20:45.999Z</time></trkpt><trkpt lat="44.320411047328534" lon="7.983143215384298"><ele>532.0</ele><time>2026-05-03T09:20:46.999Z</time></trkpt><trkpt lat="44.320533139549866" lon="7.983072017063989"><ele>532.0</ele><time>2026-05-03T09:20:47.999Z</time></trkpt><trkpt lat="44.32066556410046" lon="7.982992300200393"><ele>532.0</ele><time>2026-05-03T09:20:48.999Z</time></trkpt><trkpt lat="44.3208062139149" lon="7.982878936356732"><ele>532.0</ele><time>2026-05-03T09:20:49.999Z</time></trkpt><trkpt lat="44.32095243647559" lon="7.9827619506250755"><ele>532.0</ele><time>2026-05-03T09:20:50.999Z</time></trkpt><trkpt lat="44.32108739592708" lon="7.982638636497824"><ele>532.0</ele><time>2026-05-03T09:20:51.999Z</time></trkpt><trkpt lat="44.32123601592904" lon="7.982516453375368"><ele>532.0</ele><time>2026-05-03T09:20:52.999Z</time></trkpt><trkpt lat="44.32138946637508" lon="7.98239539868978"><ele>532.0</ele><time>2026-05-03T09:20:53.999Z</time></trkpt><trkpt lat="44.3215410125625" lon="7.982279216263907"><ele>531.6666666666667</ele><time>2026-05-03T09:20:54.999Z</time></trkpt><trkpt lat="44.321697989051714" lon="7.982168291848275"><ele>531.3333333333334</ele><time>2026-05-03T09:20:55.999Z</time></trkpt><trkpt lat="44.321850168961255" lon="7.9820794215877315"><ele>531.0</ele><time>2026-05-03T09:20:56.999Z</time></trkpt><trkpt lat="44.32201624871983" lon="7.98199927891092"><ele>531.0</ele><time>2026-05-03T09:20:57.999Z</time></trkpt><trkpt lat="44.322170015536265" lon="7.981926669110913"><ele>531.0</ele><time>2026-05-03T09:20:58.999Z</time></trkpt><trkpt lat="44.32231844859692" lon="7.981870405408958"><ele>531.0</ele><time>2026-05-03T09:20:59.999Z</time></trkpt><trkpt lat="44.322457506829096" lon="7.98182363576144"><ele>530.2</ele><time>2026-05-03T09:21:00.999Z</time></trkpt><trkpt lat="44.32258525156669" lon="7.981793333531449"><ele>529.4000000000001</ele><time>2026-05-03T09:21:01.999Z</time></trkpt><trkpt lat="44.322676838242636" lon="7.981767335460012"><ele>528.6</ele><time>2026-05-03T09:21:02.999Z</time></trkpt><trkpt lat="44.32275134150373" lon="7.981749722392622"><ele>527.8000000000001</ele><time>2026-05-03T09:21:03.999Z</time></trkpt><trkpt lat="44.32282536867623" lon="7.981723837465479"><ele>527.0</ele><time>2026-05-03T09:21:04.998Z</time></trkpt><trkpt lat="44.32291402564017" lon="7.9816669341865305"><ele>526.5</ele><time>2026-05-03T09:21:05.998Z</time></trkpt><trkpt lat="44.322995083678556" lon="7.981576951710816"><ele>526.0</ele><time>2026-05-03T09:21:06.998Z</time></trkpt><trkpt lat="44.3230709078814" lon="7.981480412579003"><ele>525.5</ele><time>2026-05-03T09:21:07.998Z</time></trkpt><trkpt lat="44.323138798652934" lon="7.981336555156309"><ele>525.0</ele><time>2026-05-03T09:21:08.998Z</time></trkpt><trkpt lat="44.32320397753526" lon="7.9811632979999585"><ele>525.0</ele><time>2026-05-03T09:21:09.998Z</time></trkpt><trkpt lat="44.32323761132601" lon="7.98101387999188"><ele>525.0</ele><time>2026-05-03T09:21:10.998Z</time></trkpt><trkpt lat="44.32328632284815" lon="7.980869283549166"><ele>525.0</ele><time>2026-05-03T09:21:11.998Z</time></trkpt><trkpt lat="44.32336614254306" lon="7.980725031317429"><ele>525.0</ele><time>2026-05-03T09:21:12.998Z</time></trkpt><trkpt lat="44.32342947289913" lon="7.9806085229424495"><ele>527.75</ele><time>2026-05-03T09:21:13.998Z</time></trkpt><trkpt lat="44.323525084731344" lon="7.980491604973118"><ele>530.5</ele><time>2026-05-03T09:21:14.998Z</time></trkpt><trkpt lat="44.32363671329868" lon="7.980390136347082"><ele>533.25</ele><time>2026-05-03T09:21:15.998Z</time></trkpt><trkpt lat="44.32376542964047" lon="7.9802995184190255"><ele>536.0</ele><time>2026-05-03T09:21:16.998Z</time></trkpt><trkpt lat="44.3238916843737" lon="7.980215866725783"><ele>534.0</ele><time>2026-05-03T09:21:17.998Z</time></trkpt><trkpt lat="44.32401120075513" lon="7.980123211554486"><ele>532.0</ele><time>2026-05-03T09:21:18.998Z</time></trkpt><trkpt lat="44.3241323572879" lon="7.980019555846647"><ele>530.0</ele><time>2026-05-03T09:21:19.998Z</time></trkpt><trkpt lat="44.324258468619824" lon="7.979895193409193"><ele>528.0</ele><time>2026-05-03T09:21:20.998Z</time></trkpt><trkpt lat="44.32435977863082" lon="7.979740755901399"><ele>528.0</ele><time>2026-05-03T09:21:21.998Z</time></trkpt><trkpt lat="44.32448032278794" lon="7.979592848984184"><ele>528.0</ele><time>2026-05-03T09:21:22.998Z</time></trkpt><trkpt lat="44.32457774300369" lon="7.97946979584901"><ele>528.0</ele><time>2026-05-03T09:21:23.998Z</time></trkpt><trkpt lat="44.324672236250606" lon="7.979367300728794"><ele>528.0</ele><time>2026-05-03T09:21:24.998Z</time></trkpt><trkpt lat="44.324769112004994" lon="7.979266931503586"><ele>527.75</ele><time>2026-05-03T09:21:25.998Z</time></trkpt><trkpt lat="44.32487894950125" lon="7.979189361621312"><ele>527.5</ele><time>2026-05-03T09:21:26.998Z</time></trkpt><trkpt lat="44.32499869950456" lon="7.979119199085814"><ele>527.25</ele><time>2026-05-03T09:21:27.998Z</time></trkpt><trkpt lat="44.32512100972479" lon="7.9790533059380495"><ele>527.0</ele><time>2026-05-03T09:21:28.998Z</time></trkpt><trkpt lat="44.325240190428275" lon="7.9789696387603675"><ele>527.0</ele><time>2026-05-03T09:21:29.998Z</time></trkpt><trkpt lat="44.32538507967807" lon="7.97887963561152"><ele>527.0</ele><time>2026-05-03T09:21:31Z</time></trkpt><trkpt lat="44.325513603513194" lon="7.978756591084366"><ele>527.0</ele><time>2026-05-03T09:21:32Z</time></trkpt><trkpt lat="44.32561945266671" lon="7.978570656707849"><ele>527.0</ele><time>2026-05-03T09:21:33Z</time></trkpt><trkpt lat="44.3257154241417" lon="7.978456069785705"><ele>527.0</ele><time>2026-05-03T09:21:34Z</time></trkpt><trkpt lat="44.32582680318431" lon="7.978354289485489"><ele>527.0</ele><time>2026-05-03T09:21:35Z</time></trkpt><trkpt lat="44.3259175621427" lon="7.978265892553547"><ele>527.0</ele><time>2026-05-03T09:21:36Z</time></trkpt><trkpt lat="44.326006533043675" lon="7.978167592238141"><ele>527.0</ele><time>2026-05-03T09:21:37Z</time></trkpt><trkpt lat="44.32607629167937" lon="7.978073892457058"><ele>527.0</ele><time>2026-05-03T09:21:38Z</time></trkpt><trkpt lat="44.32614038167766" lon="7.977937109079792"><ele>527.0</ele><time>2026-05-03T09:21:39Z</time></trkpt><trkpt lat="44.326177898674345" lon="7.977792638305918"><ele>527.0</ele><time>2026-05-03T09:21:40Z</time></trkpt><trkpt lat="44.326209047775535" lon="7.977597869894329"><ele>533.3333333333333</ele><time>2026-05-03T09:21:41Z</time></trkpt><trkpt lat="44.32622284409931" lon="7.977415951523765"><ele>539.6666666666666</ele><time>2026-05-03T09:21:42Z</time></trkpt><trkpt lat="44.3262667143328" lon="7.977208567216906"><ele>546.0</ele><time>2026-05-03T09:21:43Z</time></trkpt><trkpt lat="44.32631761102383" lon="7.976989648846013"><ele>546.0</ele><time>2026-05-03T09:21:44Z</time></trkpt><trkpt lat="44.32638253085461" lon="7.976769696820261"><ele>546.0</ele><time>2026-05-03T09:21:45Z</time></trkpt><trkpt lat="44.32645879613169" lon="7.9765414133890955"><ele>546.0</ele><time>2026-05-03T09:21:46Z</time></trkpt><trkpt lat="44.32654375935856" lon="7.976353535299843"><ele>541.5</ele><time>2026-05-03T09:21:47Z</time></trkpt><trkpt lat="44.32661694537766" lon="7.976154140179933"><ele>537.0</ele><time>2026-05-03T09:21:48Z</time></trkpt><trkpt lat="44.326688461004714" lon="7.97597213989019"><ele>532.5</ele><time>2026-05-03T09:21:49Z</time></trkpt><trkpt lat="44.32676389554508" lon="7.975811970661464"><ele>528.0</ele><time>2026-05-03T09:21:50Z</time></trkpt><trkpt lat="44.326848457404566" lon="7.9756805864527545"><ele>528.0</ele><time>2026-05-03T09:21:51Z</time></trkpt><trkpt lat="44.32693009090025" lon="7.975550381191376"><ele>528.0</ele><time>2026-05-03T09:21:52Z</time></trkpt><trkpt lat="44.3270076853669" lon="7.975438702154576"><ele>528.0</ele><time>2026-05-03T09:21:53Z</time></trkpt><trkpt lat="44.327080828589054" lon="7.975332066026886"><ele>528.0</ele><time>2026-05-03T09:21:54Z</time></trkpt><trkpt lat="44.327153380227074" lon="7.975220471104661"><ele>528.0</ele><time>2026-05-03T09:21:55Z</time></trkpt><trkpt lat="44.32723910595588" lon="7.975100875388107"><ele>525.8</ele><time>2026-05-03T09:21:56Z</time></trkpt><trkpt lat="44.327323843599615" lon="7.974999066512285"><ele>523.5999999999999</ele><time>2026-05-03T09:21:57Z</time></trkpt><trkpt lat="44.32741538158844" lon="7.974905682874476"><ele>521.4000000000001</ele><time>2026-05-03T09:21:58Z</time></trkpt><trkpt lat="44.32749811506818" lon="7.974820464232735"><ele>519.2</ele><time>2026-05-03T09:21:59Z</time></trkpt><trkpt lat="44.327562061628335" lon="7.974730696566182"><ele>517.0</ele><time>2026-05-03T09:22:00Z</time></trkpt><trkpt lat="44.32763280842881" lon="7.97463070889343"><ele>517.0</ele><time>2026-05-03T09:22:01Z</time></trkpt><trkpt lat="44.32770337182592" lon="7.974527429835056"><ele>517.0</ele><time>2026-05-03T09:22:02Z</time></trkpt><trkpt lat="44.32775605619636" lon="7.97442944296673"><ele>517.0</ele><time>2026-05-03T09:22:03Z</time></trkpt><trkpt lat="44.327813918108056" lon="7.974324356638467"><ele>517.0</ele><time>2026-05-03T09:22:04Z</time></trkpt><trkpt lat="44.32787926434944" lon="7.974219226483351"><ele>517.0</ele><time>2026-05-03T09:22:05Z</time></trkpt><trkpt lat="44.327941067705446" lon="7.97412415584669"><ele>516.2</ele><time>2026-05-03T09:22:06Z</time></trkpt><trkpt lat="44.328003107586" lon="7.974022475082564"><ele>515.4000000000001</ele><time>2026-05-03T09:22:07Z</time></trkpt><trkpt lat="44.32807395725623" lon="7.973926878664866"><ele>514.5999999999999</ele><time>2026-05-03T09:22:08Z</time></trkpt><trkpt lat="44.32814149931141" lon="7.9738379134895565"><ele>513.8</ele><time>2026-05-03T09:22:09Z</time></trkpt><trkpt lat="44.3282133567309" lon="7.97375577199776"><ele>513.0</ele><time>2026-05-03T09:22:10Z</time></trkpt><trkpt lat="44.32827287941167" lon="7.973681118151508"><ele>513.0</ele><time>2026-05-03T09:22:11Z</time></trkpt><trkpt lat="44.328338217228335" lon="7.973593742115563"><ele>513.0</ele><time>2026-05-03T09:22:12Z</time></trkpt><trkpt lat="44.328402932530274" lon="7.973514650094463"><ele>513.0</ele><time>2026-05-03T09:22:12.999Z</time></trkpt><trkpt lat="44.32846497727618" lon="7.97343976362747"><ele>513.0</ele><time>2026-05-03T09:22:13.999Z</time></trkpt><trkpt lat="44.32853528827505" lon="7.973353861007131"><ele>513.0</ele><time>2026-05-03T09:22:14.999Z</time></trkpt><trkpt lat="44.328596356492874" lon="7.973279282773365"><ele>513.0</ele><time>2026-05-03T09:22:15.999Z</time></trkpt><trkpt lat="44.32865594547752" lon="7.973205763728201"><ele>512.3333333333334</ele><time>2026-05-03T09:22:16.999Z</time></trkpt><trkpt lat="44.328723236010184" lon="7.973122609472326"><ele>511.66666666666663</ele><time>2026-05-03T09:22:17.999Z</time></trkpt><trkpt lat="44.32879366089393" lon="7.973036316264558"><ele>511.0</ele><time>2026-05-03T09:22:18.999Z</time></trkpt><trkpt lat="44.32886823715256" lon="7.972946172011741"><ele>510.3333333333333</ele><time>2026-05-03T09:22:19.999Z</time></trkpt><trkpt lat="44.328930049190134" lon="7.972864064027464"><ele>509.66666666666663</ele><time>2026-05-03T09:22:20.999Z</time></trkpt><trkpt lat="44.328989414741244" lon="7.972791997680812"><ele>509.0</ele><time>2026-05-03T09:22:21.999Z</time></trkpt><trkpt lat="44.329044475907814" lon="7.972722992417028"><ele>509.0</ele><time>2026-05-03T09:22:22.999Z</time></trkpt><trkpt lat="44.329112169326386" lon="7.972642149951721"><ele>509.0</ele><time>2026-05-03T09:22:23.999Z</time></trkpt><trkpt lat="44.32918298536505" lon="7.972554132823674"><ele>509.0</ele><time>2026-05-03T09:22:24.999Z</time></trkpt><trkpt lat="44.3292616938507" lon="7.97246012516193"><ele>509.0</ele><time>2026-05-03T09:22:25.999Z</time></trkpt><trkpt lat="44.32934798781754" lon="7.972362993344304"><ele>509.0</ele><time>2026-05-03T09:22:26.999Z</time></trkpt><trkpt lat="44.32942256576538" lon="7.972259774842568"><ele>508.2</ele><time>2026-05-03T09:22:27.999Z</time></trkpt><trkpt lat="44.32949276832908" lon="7.972167248210135"><ele>507.4</ele><time>2026-05-03T09:22:28.999Z</time></trkpt><trkpt lat="44.3295569516329" lon="7.9720824356271365"><ele>506.6</ele><time>2026-05-03T09:22:29.999Z</time></trkpt><trkpt lat="44.32962821139863" lon="7.971990555667056"><ele>505.8</ele><time>2026-05-03T09:22:30.999Z</time></trkpt><trkpt lat="44.3297071383958" lon="7.971892521258134"><ele>505.0</ele><time>2026-05-03T09:22:31.999Z</time></trkpt><trkpt lat="44.32977092316507" lon="7.971806612148228"><ele>505.0</ele><time>2026-05-03T09:22:32.999Z</time></trkpt><trkpt lat="44.329839550074546" lon="7.971709152597887"><ele>505.0</ele><time>2026-05-03T09:22:33.999Z</time></trkpt><trkpt lat="44.32991343440038" lon="7.971605098958525"><ele>505.0</ele><time>2026-05-03T09:22:34.999Z</time></trkpt><trkpt lat="44.3299852392546" lon="7.971503473487255"><ele>505.0</ele><time>2026-05-03T09:22:35.999Z</time></trkpt><trkpt lat="44.3300546125956" lon="7.971410753297109"><ele>505.0</ele><time>2026-05-03T09:22:36.999Z</time></trkpt><trkpt lat="44.33012091079033" lon="7.971317251974992"><ele>506.2</ele><time>2026-05-03T09:22:37.999Z</time></trkpt><trkpt lat="44.33018775898333" lon="7.971224097938476"><ele>507.4</ele><time>2026-05-03T09:22:38.999Z</time></trkpt><trkpt lat="44.33026066147928" lon="7.971126066711096"><ele>508.6</ele><time>2026-05-03T09:22:39.999Z</time></trkpt><trkpt lat="44.33033369653956" lon="7.971022107851283"><ele>509.8</ele><time>2026-05-03T09:22:40.999Z</time></trkpt><trkpt lat="44.33040392240327" lon="7.970919169341035"><ele>511.0</ele><time>2026-05-03T09:22:41.999Z</time></trkpt><trkpt lat="44.330469836214" lon="7.970826388959485"><ele>509.8</ele><time>2026-05-03T09:22:42.999Z</time></trkpt><trkpt lat="44.33054953140704" lon="7.970736258650673"><ele>508.6</ele><time>2026-05-03T09:22:43.999Z</time></trkpt><trkpt lat="44.33062877946293" lon="7.970632405521634"><ele>507.4</ele><time>2026-05-03T09:22:44.999Z</time></trkpt><trkpt lat="44.3307008566942" lon="7.970527611692499"><ele>506.2</ele><time>2026-05-03T09:22:45.999Z</time></trkpt><trkpt lat="44.33076821845291" lon="7.970439663549255"><ele>505.0</ele><time>2026-05-03T09:22:46.999Z</time></trkpt><trkpt lat="44.3308394206309" lon="7.970351589313975"><ele>505.0</ele><time>2026-05-03T09:22:47.999Z</time></trkpt><trkpt lat="44.33090777003942" lon="7.970250312725307"><ele>505.0</ele><time>2026-05-03T09:22:48.999Z</time></trkpt><trkpt lat="44.330975008373244" lon="7.970139511301845"><ele>505.0</ele><time>2026-05-03T09:22:49.999Z</time></trkpt><trkpt lat="44.331046486806244" lon="7.970018594228238"><ele>505.0</ele><time>2026-05-03T09:22:50.999Z</time></trkpt><trkpt lat="44.331116297473976" lon="7.969886213120337"><ele>505.0</ele><time>2026-05-03T09:22:51.999Z</time></trkpt><trkpt lat="44.331177400761085" lon="7.9697671157006535"><ele>505.2</ele><time>2026-05-03T09:22:52.999Z</time></trkpt><trkpt lat="44.33122163494737" lon="7.969654885434267"><ele>505.4</ele><time>2026-05-03T09:22:53.999Z</time></trkpt><trkpt lat="44.331269354727844" lon="7.969543447632395"><ele>505.6</ele><time>2026-05-03T09:22:54.999Z</time></trkpt><trkpt lat="44.33132222505004" lon="7.9694273514061615"><ele>505.8</ele><time>2026-05-03T09:22:55.999Z</time></trkpt><trkpt lat="44.33137908492281" lon="7.969314348394586"><ele>506.0</ele><time>2026-05-03T09:22:56.999Z</time></trkpt><trkpt lat="44.33143743728551" lon="7.969191478533022"><ele>506.0</ele><time>2026-05-03T09:22:57.999Z</time></trkpt><trkpt lat="44.33149311543426" lon="7.969063736322692"><ele>506.0</ele><time>2026-05-03T09:22:58.999Z</time></trkpt><trkpt lat="44.331544466933536" lon="7.968946580133065"><ele>506.0</ele><time>2026-05-03T09:22:59.999Z</time></trkpt><trkpt lat="44.331598336582616" lon="7.968837055722168"><ele>506.0</ele><time>2026-05-03T09:23:00.999Z</time></trkpt><trkpt lat="44.33165384313462" lon="7.968723572139322"><ele>506.0</ele><time>2026-05-03T09:23:01.999Z</time></trkpt><trkpt lat="44.33171717042551" lon="7.968613136970974"><ele>506.0</ele><time>2026-05-03T09:23:02.999Z</time></trkpt><trkpt lat="44.331785750545194" lon="7.968500577486999"><ele>506.0</ele><time>2026-05-03T09:23:03.999Z</time></trkpt><trkpt lat="44.33186333799123" lon="7.968386674304812"><ele>506.0</ele><time>2026-05-03T09:23:04.999Z</time></trkpt><trkpt lat="44.33193756577519" lon="7.968279372761497"><ele>506.0</ele><time>2026-05-03T09:23:05.999Z</time></trkpt><trkpt lat="44.33200617164628" lon="7.96818317025058"><ele>506.0</ele><time>2026-05-03T09:23:06.999Z</time></trkpt><trkpt lat="44.332079775574286" lon="7.968084597780864"><ele>505.4</ele><time>2026-05-03T09:23:07.999Z</time></trkpt><trkpt lat="44.332150758372656" lon="7.967983667738916"><ele>504.8</ele><time>2026-05-03T09:23:08.999Z</time></trkpt><trkpt lat="44.33222228105818" lon="7.967877274911021"><ele>504.19999999999993</ele><time>2026-05-03T09:23:09.999Z</time></trkpt><trkpt lat="44.33228992337312" lon="7.967777843641436"><ele>503.59999999999997</ele><time>2026-05-03T09:23:10.998Z</time></trkpt><trkpt lat="44.33235797269324" lon="7.967679749909208"><ele>503.0</ele><time>2026-05-03T09:23:11.998Z</time></trkpt><trkpt lat="44.33242856069839" lon="7.96758105565224"><ele>503.79999999999995</ele><time>2026-05-03T09:23:12.998Z</time></trkpt><trkpt lat="44.33250317587347" lon="7.967475915504466"><ele>504.59999999999997</ele><time>2026-05-03T09:23:13.998Z</time></trkpt><trkpt lat="44.332571963102474" lon="7.967370957361038"><ele>505.40000000000003</ele><time>2026-05-03T09:23:14.998Z</time></trkpt><trkpt lat="44.33263938090693" lon="7.967270521632938"><ele>506.20000000000005</ele><time>2026-05-03T09:23:15.998Z</time></trkpt><trkpt lat="44.33270194559109" lon="7.967179299041964"><ele>507.0</ele><time>2026-05-03T09:23:16.998Z</time></trkpt><trkpt lat="44.33277084370548" lon="7.9670891405823445"><ele>507.0</ele><time>2026-05-03T09:23:17.998Z</time></trkpt><trkpt lat="44.332844674346866" lon="7.966995728555031"><ele>507.00000000000006</ele><time>2026-05-03T09:23:18.998Z</time></trkpt><trkpt lat="44.332919502922756" lon="7.966891081706585"><ele>507.00000000000006</ele><time>2026-05-03T09:23:19.998Z</time></trkpt><trkpt lat="44.332994530853355" lon="7.9667808335740204"><ele>507.0</ele><time>2026-05-03T09:23:20.998Z</time></trkpt><trkpt lat="44.33306951917469" lon="7.966669773498137"><ele>507.0</ele><time>2026-05-03T09:23:21.998Z</time></trkpt><trkpt lat="44.333143616572634" lon="7.96657133116071"><ele>506.25</ele><time>2026-05-03T09:23:22.998Z</time></trkpt><trkpt lat="44.333219803597686" lon="7.966470928633456"><ele>505.5</ele><time>2026-05-03T09:23:23.998Z</time></trkpt><trkpt lat="44.33330010622419" lon="7.966370404171365"><ele>504.75</ele><time>2026-05-03T09:23:24.998Z</time></trkpt><trkpt lat="44.33339140489058" lon="7.9662693776217095"><ele>504.0</ele><time>2026-05-03T09:23:25.998Z</time></trkpt><trkpt lat="44.33350136059947" lon="7.966162041437743"><ele>504.0</ele><time>2026-05-03T09:23:26.998Z</time></trkpt><trkpt lat="44.333618495076486" lon="7.966050879881643"><ele>504.0</ele><time>2026-05-03T09:23:27.998Z</time></trkpt><trkpt lat="44.333747579762395" lon="7.965929225841586"><ele>504.0</ele><time>2026-05-03T09:23:28.998Z</time></trkpt><trkpt lat="44.333890266184596" lon="7.965805371607129"><ele>502.0</ele><time>2026-05-03T09:23:29.998Z</time></trkpt><trkpt lat="44.334044219065" lon="7.965685130968409"><ele>500.0</ele><time>2026-05-03T09:23:30.998Z</time></trkpt><trkpt lat="44.3342116264075" lon="7.965559374156099"><ele>498.0</ele><time>2026-05-03T09:23:31.998Z</time></trkpt><trkpt lat="44.33437409231352" lon="7.965439294807489"><ele>498.0</ele><time>2026-05-03T09:23:32.998Z</time></trkpt><trkpt lat="44.334533280831536" lon="7.965328110949959"><ele>498.0</ele><time>2026-05-03T09:23:33.998Z</time></trkpt><trkpt lat="44.33469619091296" lon="7.96521635057342"><ele>498.0</ele><time>2026-05-03T09:23:34.998Z</time></trkpt><trkpt lat="44.33486627068859" lon="7.965096800993358"><ele>497.33333333333337</ele><time>2026-05-03T09:23:35.998Z</time></trkpt><trkpt lat="44.33504579963761" lon="7.964968248664465"><ele>496.6666666666667</ele><time>2026-05-03T09:23:37Z</time></trkpt><trkpt lat="44.33523328034098" lon="7.964833533859355"><ele>496.0</ele><time>2026-05-03T09:23:38Z</time></trkpt><trkpt lat="44.335419891084285" lon="7.964704833984013"><ele>494.6666666666667</ele><time>2026-05-03T09:23:39Z</time></trkpt><trkpt lat="44.33561111436172" lon="7.96457659389605"><ele>493.33333333333337</ele><time>2026-05-03T09:23:40Z</time></trkpt><trkpt lat="44.3358013402485" lon="7.964432167796813"><ele>492.0</ele><time>2026-05-03T09:23:41Z</time></trkpt><trkpt lat="44.3359971458016" lon="7.9642917362438315"><ele>492.0</ele><time>2026-05-03T09:23:42Z</time></trkpt><trkpt lat="44.336191869216584" lon="7.964150431828483"><ele>492.0</ele><time>2026-05-03T09:23:43Z</time></trkpt><trkpt lat="44.33637741509643" lon="7.964029755922586"><ele>492.0</ele><time>2026-05-03T09:23:44Z</time></trkpt><trkpt lat="44.336530802023496" lon="7.963915566906709"><ele>492.0</ele><time>2026-05-03T09:23:45Z</time></trkpt><trkpt lat="44.33669855657517" lon="7.963804239934065"><ele>492.0</ele><time>2026-05-03T09:23:46Z</time></trkpt><trkpt lat="44.33682795704839" lon="7.963715504574731"><ele>492.0</ele><time>2026-05-03T09:23:47Z</time></trkpt><trkpt lat="44.336965619146994" lon="7.963622756976206"><ele>492.0</ele><time>2026-05-03T09:23:48Z</time></trkpt><trkpt lat="44.33709523252254" lon="7.963537869339255"><ele>492.0</ele><time>2026-05-03T09:23:49Z</time></trkpt><trkpt lat="44.33723466914318" lon="7.9634416322133115"><ele>492.0</ele><time>2026-05-03T09:23:50Z</time></trkpt><trkpt lat="44.33738141739133" lon="7.963364023559589"><ele>493.66666666666663</ele><time>2026-05-03T09:23:51Z</time></trkpt><trkpt lat="44.337531294562886" lon="7.963296208799413"><ele>495.3333333333333</ele><time>2026-05-03T09:23:52Z</time></trkpt><trkpt lat="44.33769962901137" lon="7.963239932603438"><ele>497.0</ele><time>2026-05-03T09:23:53Z</time></trkpt><trkpt lat="44.33786647636861" lon="7.96319912682594"><ele>497.0</ele><time>2026-05-03T09:23:54Z</time></trkpt><trkpt lat="44.33802908213035" lon="7.963174756174974"><ele>497.0</ele><time>2026-05-03T09:23:55Z</time></trkpt><trkpt lat="44.338207137493264" lon="7.963165480011978"><ele>497.0</ele><time>2026-05-03T09:23:56Z</time></trkpt><trkpt lat="44.3383954932715" lon="7.963163503609542"><ele>497.0</ele><time>2026-05-03T09:23:57Z</time></trkpt><trkpt lat="44.33856883535021" lon="7.9631820047577015"><ele>497.0</ele><time>2026-05-03T09:23:58Z</time></trkpt><trkpt lat="44.33872303352823" lon="7.963201801891059"><ele>497.0</ele><time>2026-05-03T09:23:59Z</time></trkpt><trkpt lat="44.33883885804097" lon="7.963218976072538"><ele>497.0</ele><time>2026-05-03T09:24:00Z</time></trkpt><trkpt lat="44.338963033668485" lon="7.96323613142059"><ele>496.25</ele><time>2026-05-03T09:24:01Z</time></trkpt><trkpt lat="44.33907740837495" lon="7.963253433835848"><ele>495.5</ele><time>2026-05-03T09:24:02Z</time></trkpt><trkpt lat="44.33918354667848" lon="7.963271630176479"><ele>494.75</ele><time>2026-05-03T09:24:03Z</time></trkpt><trkpt lat="44.33929561490398" lon="7.963287905288431"><ele>494.0</ele><time>2026-05-03T09:24:04Z</time></trkpt><trkpt lat="44.33941886885753" lon="7.9632866109947775"><ele>494.0</ele><time>2026-05-03T09:24:05Z</time></trkpt><trkpt lat="44.33953191412033" lon="7.96327458306454"><ele>494.0</ele><time>2026-05-03T09:24:06Z</time></trkpt><trkpt lat="44.33965226654731" lon="7.963249500624219"><ele>494.0</ele><time>2026-05-03T09:24:07Z</time></trkpt><trkpt lat="44.33978850132303" lon="7.963212200372397"><ele>494.0</ele><time>2026-05-03T09:24:08Z</time></trkpt><trkpt lat="44.339933342007676" lon="7.963142556264183"><ele>493.66666666666663</ele><time>2026-05-03T09:24:09Z</time></trkpt><trkpt lat="44.340080434891675" lon="7.963065192604682"><ele>493.33333333333337</ele><time>2026-05-03T09:24:10Z</time></trkpt><trkpt lat="44.34023260993891" lon="7.962975881381407"><ele>493.0</ele><time>2026-05-03T09:24:11Z</time></trkpt><trkpt lat="44.340389959033956" lon="7.962879589006576"><ele>493.0</ele><time>2026-05-03T09:24:12Z</time></trkpt><trkpt lat="44.340533266175925" lon="7.96279474936778"><ele>493.0</ele><time>2026-05-03T09:24:13Z</time></trkpt><trkpt lat="44.340678478368645" lon="7.962702243091898"><ele>493.0</ele><time>2026-05-03T09:24:14Z</time></trkpt><trkpt lat="44.34083891039266" lon="7.96258477427678"><ele>494.33333333333337</ele><time>2026-05-03T09:24:15Z</time></trkpt><trkpt lat="44.34099114552604" lon="7.962430166780876"><ele>495.66666666666663</ele><time>2026-05-03T09:24:16Z</time></trkpt><trkpt lat="44.341138768935245" lon="7.962286816476287"><ele>497.0</ele><time>2026-05-03T09:24:17Z</time></trkpt><trkpt lat="44.341269531323825" lon="7.962156417276267"><ele>493.66666666666663</ele><time>2026-05-03T09:24:18Z</time></trkpt><trkpt lat="44.34141038996601" lon="7.962036022481997"><ele>490.33333333333337</ele><time>2026-05-03T09:24:19Z</time></trkpt><trkpt lat="44.341535434669844" lon="7.961929488624551"><ele>487.0</ele><time>2026-05-03T09:24:19.999Z</time></trkpt><trkpt lat="44.34166468311811" lon="7.961822013202368"><ele>487.0</ele><time>2026-05-03T09:24:20.999Z</time></trkpt><trkpt lat="44.34178937123322" lon="7.961725118075963"><ele>487.0</ele><time>2026-05-03T09:24:21.999Z</time></trkpt><trkpt lat="44.34192201790441" lon="7.96162418550324"><ele>487.0</ele><time>2026-05-03T09:24:22.999Z</time></trkpt><trkpt lat="44.34206492683209" lon="7.961543021493172"><ele>487.0</ele><time>2026-05-03T09:24:23.999Z</time></trkpt><trkpt lat="44.34219187984371" lon="7.961477552308347"><ele>487.75</ele><time>2026-05-03T09:24:24.999Z</time></trkpt><trkpt lat="44.34229347714563" lon="7.961429713527181"><ele>488.5</ele><time>2026-05-03T09:24:25.999Z</time></trkpt><trkpt lat="44.34239492840906" lon="7.961410455379737"><ele>489.25</ele><time>2026-05-03T09:24:26.999Z</time></trkpt><trkpt lat="44.34252597716574" lon="7.961391711071459"><ele>490.0</ele><time>2026-05-03T09:24:27.999Z</time></trkpt><trkpt lat="44.34265369339736" lon="7.961408485351133"><ele>490.0</ele><time>2026-05-03T09:24:28.999Z</time></trkpt><trkpt lat="44.34278176009636" lon="7.9614462458993485"><ele>490.0</ele><time>2026-05-03T09:24:29.999Z</time></trkpt><trkpt lat="44.342921973113306" lon="7.961512592656345"><ele>490.0</ele><time>2026-05-03T09:24:30.999Z</time></trkpt><trkpt lat="44.34306607486965" lon="7.96156961539044"><ele>490.0</ele><time>2026-05-03T09:24:31.999Z</time></trkpt><trkpt lat="44.34319366447035" lon="7.961622579467558"><ele>490.25</ele><time>2026-05-03T09:24:32.999Z</time></trkpt><trkpt lat="44.3433033236415" lon="7.96166562054252"><ele>490.5</ele><time>2026-05-03T09:24:33.999Z</time></trkpt><trkpt lat="44.343417869609766" lon="7.961704133076867"><ele>490.75</ele><time>2026-05-03T09:24:34.999Z</time></trkpt><trkpt lat="44.34351173567161" lon="7.961752515112929"><ele>491.0</ele><time>2026-05-03T09:24:35.999Z</time></trkpt><trkpt lat="44.34363034308496" lon="7.961787739996438"><ele>489.0</ele><time>2026-05-03T09:24:36.999Z</time></trkpt><trkpt lat="44.3437461562893" lon="7.961830867417149"><ele>487.0</ele><time>2026-05-03T09:24:37.999Z</time></trkpt><trkpt lat="44.34384433482363" lon="7.961864911640584"><ele>485.0</ele><time>2026-05-03T09:24:38.999Z</time></trkpt><trkpt lat="44.343937267909226" lon="7.96190210816135"><ele>483.0</ele><time>2026-05-03T09:24:39.999Z</time></trkpt><trkpt lat="44.34402653816616" lon="7.961937886379126"><ele>481.0</ele><time>2026-05-03T09:24:40.999Z</time></trkpt><trkpt lat="44.344115817401686" lon="7.961976409960636"><ele>481.0</ele><time>2026-05-03T09:24:41.999Z</time></trkpt><trkpt lat="44.344205596743926" lon="7.962011510741042"><ele>481.0</ele><time>2026-05-03T09:24:42.999Z</time></trkpt><trkpt lat="44.34429327337111" lon="7.962041885561686"><ele>481.0</ele><time>2026-05-03T09:24:43.999Z</time></trkpt><trkpt lat="44.344391490776296" lon="7.9620642849099275"><ele>481.0</ele><time>2026-05-03T09:24:44.999Z</time></trkpt><trkpt lat="44.34448414284219" lon="7.962083064395148"><ele>481.0</ele><time>2026-05-03T09:24:45.999Z</time></trkpt><trkpt lat="44.34457996221132" lon="7.962090454519382"><ele>481.0</ele><time>2026-05-03T09:24:46.999Z</time></trkpt><trkpt lat="44.344684643104834" lon="7.962095054651503"><ele>481.0</ele><time>2026-05-03T09:24:47.999Z</time></trkpt><trkpt lat="44.344795201736424" lon="7.962092030781011"><ele>481.0</ele><time>2026-05-03T09:24:48.999Z</time></trkpt><trkpt lat="44.344904010708795" lon="7.962084311991385"><ele>481.0</ele><time>2026-05-03T09:24:49.999Z</time></trkpt><trkpt lat="44.34503048448087" lon="7.962070169166807"><ele>481.25</ele><time>2026-05-03T09:24:50.999Z</time></trkpt><trkpt lat="44.34514873613115" lon="7.96205800195775"><ele>481.5</ele><time>2026-05-03T09:24:51.999Z</time></trkpt><trkpt lat="44.3452710816238" lon="7.962040936139244"><ele>481.75</ele><time>2026-05-03T09:24:52.999Z</time></trkpt><trkpt lat="44.3454018480798" lon="7.962031473214705"><ele>482.0</ele><time>2026-05-03T09:24:53.999Z</time></trkpt><trkpt lat="44.34553019332368" lon="7.962022049645577"><ele>481.25</ele><time>2026-05-03T09:24:54.999Z</time></trkpt><trkpt lat="44.345655695046574" lon="7.962006702774784"><ele>480.5</ele><time>2026-05-03T09:24:55.999Z</time></trkpt><trkpt lat="44.34577504384425" lon="7.961992969199159"><ele>479.75</ele><time>2026-05-03T09:24:56.999Z</time></trkpt><trkpt lat="44.34590243246525" lon="7.961979341018111"><ele>479.0</ele><time>2026-05-03T09:24:57.999Z</time></trkpt><trkpt lat="44.346030725392545" lon="7.961963834489311"><ele>479.0</ele><time>2026-05-03T09:24:58.999Z</time></trkpt><trkpt lat="44.34616945231864" lon="7.9619524695411465"><ele>479.0</ele><time>2026-05-03T09:24:59.999Z</time></trkpt><trkpt lat="44.346312116325095" lon="7.961962389939521"><ele>479.0</ele><time>2026-05-03T09:25:00.999Z</time></trkpt><trkpt lat="44.34647111401608" lon="7.961973100226984"><ele>479.0</ele><time>2026-05-03T09:25:01.999Z</time></trkpt><trkpt lat="44.34663693510318" lon="7.961988855303789"><ele>478.66666666666663</ele><time>2026-05-03T09:25:02.999Z</time></trkpt><trkpt lat="44.346785537352375" lon="7.962015216984979"><ele>478.33333333333337</ele><time>2026-05-03T09:25:03.999Z</time></trkpt><trkpt lat="44.346935329636" lon="7.962043862845105"><ele>478.0</ele><time>2026-05-03T09:25:04.999Z</time></trkpt><trkpt lat="44.34709000516877" lon="7.962070304906422"><ele>478.5</ele><time>2026-05-03T09:25:05.999Z</time></trkpt><trkpt lat="44.34723372545466" lon="7.96208903314559"><ele>479.0</ele><time>2026-05-03T09:25:06.999Z</time></trkpt><trkpt lat="44.34737646685177" lon="7.962108934905083"><ele>479.5</ele><time>2026-05-03T09:25:07.999Z</time></trkpt><trkpt lat="44.347511637003194" lon="7.962129755083975"><ele>480.0</ele><time>2026-05-03T09:25:08.999Z</time></trkpt><trkpt lat="44.347640595251605" lon="7.962149262354438"><ele>480.0</ele><time>2026-05-03T09:25:09.999Z</time></trkpt><trkpt lat="44.347762633425255" lon="7.9621709519203385"><ele>480.0</ele><time>2026-05-03T09:25:10.999Z</time></trkpt><trkpt lat="44.34789416764013" lon="7.962185025372936"><ele>480.0</ele><time>2026-05-03T09:25:11.999Z</time></trkpt><trkpt lat="44.34801849584124" lon="7.962211220776883"><ele>480.0</ele><time>2026-05-03T09:25:12.999Z</time></trkpt><trkpt lat="44.34814231091288" lon="7.962249900016921"><ele>480.25</ele><time>2026-05-03T09:25:13.999Z</time></trkpt><trkpt lat="44.34826615952848" lon="7.96229355189037"><ele>480.5</ele><time>2026-05-03T09:25:14.999Z</time></trkpt><trkpt lat="44.34839263239611" lon="7.9623468009419085"><ele>480.75</ele><time>2026-05-03T09:25:15.999Z</time></trkpt><trkpt lat="44.34850910742257" lon="7.962394076854064"><ele>481.0</ele><time>2026-05-03T09:25:16.999Z</time></trkpt><trkpt lat="44.34863276019573" lon="7.9624501301076345"><ele>481.0</ele><time>2026-05-03T09:25:17.998Z</time></trkpt><trkpt lat="44.3487654297127" lon="7.962505916760004"><ele>481.0</ele><time>2026-05-03T09:25:18.998Z</time></trkpt><trkpt lat="44.348908852049824" lon="7.96256373434087"><ele>481.0</ele><time>2026-05-03T09:25:19.998Z</time></trkpt><trkpt lat="44.34905708756622" lon="7.962628691806831"><ele>481.0</ele><time>2026-05-03T09:25:20.998Z</time></trkpt><trkpt lat="44.34922280719668" lon="7.962695041164272"><ele>479.0</ele><time>2026-05-03T09:25:21.998Z</time></trkpt><trkpt lat="44.34937491238677" lon="7.962759144890198"><ele>477.0</ele><time>2026-05-03T09:25:22.998Z</time></trkpt><trkpt lat="44.34953376276481" lon="7.962826020219502"><ele>475.0</ele><time>2026-05-03T09:25:23.998Z</time></trkpt><trkpt lat="44.34968000840359" lon="7.96288608140665"><ele>475.0</ele><time>2026-05-03T09:25:24.998Z</time></trkpt><trkpt lat="44.34982916239981" lon="7.9629448458591945"><ele>475.0</ele><time>2026-05-03T09:25:25.998Z</time></trkpt><trkpt lat="44.34997653961579" lon="7.963004948872975"><ele>475.0</ele><time>2026-05-03T09:25:26.998Z</time></trkpt><trkpt lat="44.35011609067295" lon="7.963061433003229"><ele>475.0</ele><time>2026-05-03T09:25:27.998Z</time></trkpt><trkpt lat="44.35025605296874" lon="7.963125022187985"><ele>475.0</ele><time>2026-05-03T09:25:28.998Z</time></trkpt><trkpt lat="44.35039987815791" lon="7.963187994709574"><ele>475.0</ele><time>2026-05-03T09:25:29.998Z</time></trkpt><trkpt lat="44.35053632448699" lon="7.963247325375047"><ele>475.0</ele><time>2026-05-03T09:25:30.998Z</time></trkpt><trkpt lat="44.35067523409977" lon="7.96330353784606"><ele>475.5</ele><time>2026-05-03T09:25:31.998Z</time></trkpt><trkpt lat="44.35081367093122" lon="7.963358238712837"><ele>476.0</ele><time>2026-05-03T09:25:32.998Z</time></trkpt><trkpt lat="44.350950304260984" lon="7.963408399320286"><ele>476.5</ele><time>2026-05-03T09:25:33.998Z</time></trkpt><trkpt lat="44.351087444788995" lon="7.963462800059915"><ele>477.0</ele><time>2026-05-03T09:25:34.998Z</time></trkpt><trkpt lat="44.35123277430199" lon="7.963514950910531"><ele>476.25</ele><time>2026-05-03T09:25:35.998Z</time></trkpt><trkpt lat="44.35138222652442" lon="7.963561569478666"><ele>475.5</ele><time>2026-05-03T09:25:36.998Z</time></trkpt><trkpt lat="44.35151884850513" lon="7.963609456827411"><ele>474.75</ele><time>2026-05-03T09:25:37.998Z</time></trkpt><trkpt lat="44.35165825905848" lon="7.963654788476827"><ele>474.0</ele><time>2026-05-03T09:25:38.998Z</time></trkpt><trkpt lat="44.351784048867884" lon="7.963695259063566"><ele>474.0</ele><time>2026-05-03T09:25:39.998Z</time></trkpt><trkpt lat="44.35191626904401" lon="7.963733984126739"><ele>474.0</ele><time>2026-05-03T09:25:40.998Z</time></trkpt><trkpt lat="44.35205190053712" lon="7.963783162111243"><ele>474.0</ele><time>2026-05-03T09:25:41.998Z</time></trkpt><trkpt lat="44.35218113704603" lon="7.9638249596074075"><ele>474.0</ele><time>2026-05-03T09:25:43Z</time></trkpt><trkpt lat="44.35230937171206" lon="7.963863292139112"><ele>474.0</ele><time>2026-05-03T09:25:44Z</time></trkpt><trkpt lat="44.352440055829604" lon="7.963903068352146"><ele>474.0</ele><time>2026-05-03T09:25:45Z</time></trkpt><trkpt lat="44.352563677705454" lon="7.963941934433466"><ele>474.0</ele><time>2026-05-03T09:25:46Z</time></trkpt><trkpt lat="44.3526875499288" lon="7.96398430253718"><ele>474.0</ele><time>2026-05-03T09:25:47Z</time></trkpt><trkpt lat="44.35280083690592" lon="7.964025097248416"><ele>474.0</ele><time>2026-05-03T09:25:48Z</time></trkpt><trkpt lat="44.35291515460595" lon="7.964063649155206"><ele>474.0</ele><time>2026-05-03T09:25:49Z</time></trkpt><trkpt lat="44.353032885497456" lon="7.964107349130481"><ele>474.0</ele><time>2026-05-03T09:25:50Z</time></trkpt><trkpt lat="44.35314992582353" lon="7.96417369352724"><ele>474.0</ele><time>2026-05-03T09:25:51Z</time></trkpt><trkpt lat="44.35326758801124" lon="7.964254222449478"><ele>472.25</ele><time>2026-05-03T09:25:52Z</time></trkpt><trkpt lat="44.35338318860997" lon="7.964351944488267"><ele>470.5</ele><time>2026-05-03T09:25:53Z</time></trkpt><trkpt lat="44.35348142656639" lon="7.964445303229428"><ele>468.75</ele><time>2026-05-03T09:25:54Z</time></trkpt><trkpt lat="44.35356559935655" lon="7.9645302166097"><ele>467.0</ele><time>2026-05-03T09:25:55Z</time></trkpt><trkpt lat="44.35365949046459" lon="7.964615411871891"><ele>467.0</ele><time>2026-05-03T09:25:56Z</time></trkpt><trkpt lat="44.35377240535012" lon="7.964693643366876"><ele>467.0</ele><time>2026-05-03T09:25:57Z</time></trkpt><trkpt lat="44.353900380646614" lon="7.964768268705798"><ele>467.0</ele><time>2026-05-03T09:25:58Z</time></trkpt><trkpt lat="44.354027360215284" lon="7.964831775991048"><ele>467.0</ele><time>2026-05-03T09:25:59Z</time></trkpt><trkpt lat="44.35417443984352" lon="7.964872659539938"><ele>468.66666666666663</ele><time>2026-05-03T09:26:00Z</time></trkpt><trkpt lat="44.354333460060666" lon="7.964909213602053"><ele>470.33333333333337</ele><time>2026-05-03T09:26:01Z</time></trkpt><trkpt lat="44.35447391143472" lon="7.964949456201903"><ele>472.0</ele><time>2026-05-03T09:26:02Z</time></trkpt><trkpt lat="44.354618696391896" lon="7.9649794906148506"><ele>470.0</ele><time>2026-05-03T09:26:03Z</time></trkpt><trkpt lat="44.35477473337353" lon="7.965054144087627"><ele>468.0</ele><time>2026-05-03T09:26:04Z</time></trkpt><trkpt lat="44.35492801641531" lon="7.965159297597566"><ele>466.0</ele><time>2026-05-03T09:26:05Z</time></trkpt><trkpt lat="44.355086851936065" lon="7.965284768016628"><ele>466.0</ele><time>2026-05-03T09:26:06Z</time></trkpt><trkpt lat="44.35524489281171" lon="7.965408751451977"><ele>466.0</ele><time>2026-05-03T09:26:07Z</time></trkpt><trkpt lat="44.35540612025586" lon="7.965532993675815"><ele>466.0</ele><time>2026-05-03T09:26:08Z</time></trkpt><trkpt lat="44.355576991066975" lon="7.965658855583569"><ele>464.6666666666667</ele><time>2026-05-03T09:26:09Z</time></trkpt><trkpt lat="44.35575037489095" lon="7.965784713659613"><ele>463.33333333333337</ele><time>2026-05-03T09:26:10Z</time></trkpt><trkpt lat="44.355918030375214" lon="7.965906934922039"><ele>462.0</ele><time>2026-05-03T09:26:11Z</time></trkpt><trkpt lat="44.35607506759618" lon="7.966023293169633"><ele>462.0</ele><time>2026-05-03T09:26:12Z</time></trkpt><trkpt lat="44.3562077461474" lon="7.9661221789065015"><ele>462.0</ele><time>2026-05-03T09:26:13Z</time></trkpt><trkpt lat="44.356328025055824" lon="7.966215859767404"><ele>462.0</ele><time>2026-05-03T09:26:14Z</time></trkpt><trkpt lat="44.356451278303105" lon="7.966312793524659"><ele>462.0</ele><time>2026-05-03T09:26:15Z</time></trkpt><trkpt lat="44.35656550927753" lon="7.9664003365452976"><ele>463.66666666666663</ele><time>2026-05-03T09:26:16Z</time></trkpt><trkpt lat="44.35670726236498" lon="7.966492797298897"><ele>465.3333333333333</ele><time>2026-05-03T09:26:17Z</time></trkpt><trkpt lat="44.356848875226085" lon="7.966581984007199"><ele>467.0</ele><time>2026-05-03T09:26:18Z</time></trkpt><trkpt lat="44.356987869548774" lon="7.966665501752171"><ele>465.75</ele><time>2026-05-03T09:26:19Z</time></trkpt><trkpt lat="44.35712913484978" lon="7.966738279300894"><ele>464.5</ele><time>2026-05-03T09:26:20Z</time></trkpt><trkpt lat="44.3572663984577" lon="7.966803886789613"><ele>463.25</ele><time>2026-05-03T09:26:21Z</time></trkpt><trkpt lat="44.35741139546484" lon="7.966856028533791"><ele>462.0</ele><time>2026-05-03T09:26:22Z</time></trkpt><trkpt lat="44.35754492443539" lon="7.966907614248822"><ele>461.75</ele><time>2026-05-03T09:26:23Z</time></trkpt><trkpt lat="44.357675260184386" lon="7.9669559721021"><ele>461.5</ele><time>2026-05-03T09:26:24Z</time></trkpt><trkpt lat="44.35780039051142" lon="7.96700621285971"><ele>461.25</ele><time>2026-05-03T09:26:25Z</time></trkpt><trkpt lat="44.35793035352875" lon="7.967041008392183"><ele>461.0</ele><time>2026-05-03T09:26:25.999Z</time></trkpt><trkpt lat="44.35803983532916" lon="7.967077772264713"><ele>460.5</ele><time>2026-05-03T09:26:26.999Z</time></trkpt><trkpt lat="44.358144647615234" lon="7.9671216568906305"><ele>460.0</ele><time>2026-05-03T09:26:27.999Z</time></trkpt><trkpt lat="44.35826963363896" lon="7.967196800244619"><ele>459.5</ele><time>2026-05-03T09:26:28.999Z</time></trkpt><trkpt lat="44.358385876781604" lon="7.9672704668872605"><ele>459.0</ele><time>2026-05-03T09:26:29.999Z</time></trkpt><trkpt lat="44.3585009128515" lon="7.9673821286125"><ele>459.0</ele><time>2026-05-03T09:26:30.999Z</time></trkpt><trkpt lat="44.35859393619956" lon="7.967496140183255"><ele>459.0</ele><time>2026-05-03T09:26:31.999Z</time></trkpt><trkpt lat="44.35869370202036" lon="7.967608449033641"><ele>459.0</ele><time>2026-05-03T09:26:32.999Z</time></trkpt><trkpt lat="44.358787399941335" lon="7.967728674934952"><ele>459.0</ele><time>2026-05-03T09:26:33.999Z</time></trkpt><trkpt lat="44.35889184572547" lon="7.967839079395845"><ele>459.25</ele><time>2026-05-03T09:26:34.999Z</time></trkpt><trkpt lat="44.35897607328143" lon="7.967944618552305"><ele>459.5</ele><time>2026-05-03T09:26:35.999Z</time></trkpt><trkpt lat="44.35907904680555" lon="7.968050206476857"><ele>459.75</ele><time>2026-05-03T09:26:36.999Z</time></trkpt><trkpt lat="44.3591636889592" lon="7.968159825853613"><ele>460.0</ele><time>2026-05-03T09:26:37.999Z</time></trkpt><trkpt lat="44.35924657142342" lon="7.96825958086666"><ele>460.0</ele><time>2026-05-03T09:26:38.999Z</time></trkpt><trkpt lat="44.35933034319615" lon="7.968359445562619"><ele>460.0</ele><time>2026-05-03T09:26:39.999Z</time></trkpt><trkpt lat="44.35941992552567" lon="7.968468454670923"><ele>460.0</ele><time>2026-05-03T09:26:40.999Z</time></trkpt><trkpt lat="44.35950064045251" lon="7.968571186959825"><ele>460.0</ele><time>2026-05-03T09:26:41.999Z</time></trkpt><trkpt lat="44.35957557749755" lon="7.968669580893534"><ele>460.0</ele><time>2026-05-03T09:26:42.999Z</time></trkpt><trkpt lat="44.359650081387315" lon="7.968745341390754"><ele>460.0</ele><time>2026-05-03T09:26:43.999Z</time></trkpt><trkpt lat="44.35973113617133" lon="7.968835298716962"><ele>460.0</ele><time>2026-05-03T09:26:44.999Z</time></trkpt><trkpt lat="44.359804423629434" lon="7.968948060690803"><ele>460.0</ele><time>2026-05-03T09:26:45.999Z</time></trkpt><trkpt lat="44.35987648560754" lon="7.96902959913903"><ele>460.0</ele><time>2026-05-03T09:26:46.999Z</time></trkpt><trkpt lat="44.35995252650124" lon="7.969127284009904"><ele>460.0</ele><time>2026-05-03T09:26:47.999Z</time></trkpt><trkpt lat="44.36003186252191" lon="7.96922360976128"><ele>462.0</ele><time>2026-05-03T09:26:48.999Z</time></trkpt><trkpt lat="44.36010860085606" lon="7.969326993268402"><ele>464.0</ele><time>2026-05-03T09:26:49.999Z</time></trkpt><trkpt lat="44.36018642258582" lon="7.969421427808159"><ele>466.0</ele><time>2026-05-03T09:26:50.999Z</time></trkpt><trkpt lat="44.36026908870171" lon="7.9695259002956895"><ele>468.0</ele><time>2026-05-03T09:26:51.999Z</time></trkpt><trkpt lat="44.3603646954326" lon="7.9696404482716865"><ele>470.0</ele><time>2026-05-03T09:26:52.999Z</time></trkpt><trkpt lat="44.360433046869744" lon="7.969748032365074"><ele>470.0</ele><time>2026-05-03T09:26:53.999Z</time></trkpt><trkpt lat="44.36051833856744" lon="7.969838095867782"><ele>470.0</ele><time>2026-05-03T09:26:54.999Z</time></trkpt><trkpt lat="44.36061516616647" lon="7.969929665095193"><ele>470.0</ele><time>2026-05-03T09:26:55.999Z</time></trkpt><trkpt lat="44.36071483810044" lon="7.970013246274703"><ele>470.0</ele><time>2026-05-03T09:26:56.999Z</time></trkpt><trkpt lat="44.36081647853277" lon="7.970089891623048"><ele>468.3333333333333</ele><time>2026-05-03T09:26:57.999Z</time></trkpt><trkpt lat="44.360923433272504" lon="7.970144626742355"><ele>466.66666666666663</ele><time>2026-05-03T09:26:58.999Z</time></trkpt><trkpt lat="44.361008630464184" lon="7.970197468827876"><ele>465.0</ele><time>2026-05-03T09:26:59.999Z</time></trkpt><trkpt lat="44.361082857998134" lon="7.970238442852656"><ele>463.33333333333337</ele><time>2026-05-03T09:27:00.999Z</time></trkpt><trkpt lat="44.36116245559724" lon="7.970281861232605"><ele>461.6666666666667</ele><time>2026-05-03T09:27:01.999Z</time></trkpt><trkpt lat="44.36122235296987" lon="7.970335550844146"><ele>460.0</ele><time>2026-05-03T09:27:02.999Z</time></trkpt><trkpt lat="44.36127681684939" lon="7.9703839587578775"><ele>459.4</ele><time>2026-05-03T09:27:03.999Z</time></trkpt><trkpt lat="44.361390895099355" lon="7.970484713433309"><ele>458.8</ele><time>2026-05-03T09:27:05.999Z</time></trkpt><trkpt lat="44.361448570889756" lon="7.970545844504186"><ele>458.20000000000005</ele><time>2026-05-03T09:27:06.999Z</time></trkpt><trkpt lat="44.36149730708338" lon="7.970608277134943"><ele>457.6</ele><time>2026-05-03T09:27:07.999Z</time></trkpt><trkpt lat="44.361580766276354" lon="7.970724621007677"><ele>457.0</ele><time>2026-05-03T09:27:09.999Z</time></trkpt><trkpt lat="44.361679652627934" lon="7.970777006466876"><ele>457.0</ele><time>2026-05-03T09:27:11.999Z</time></trkpt><trkpt lat="44.36179751361351" lon="7.970743531077244"><ele>457.00000000000006</ele><time>2026-05-03T09:27:13.999Z</time></trkpt><trkpt lat="44.36188159718658" lon="7.970760115330025"><ele>457.00000000000006</ele><time>2026-05-03T09:27:14.999Z</time></trkpt><trkpt lat="44.3619750560102" lon="7.9708148731645325"><ele>457.0</ele><time>2026-05-03T09:27:15.999Z</time></trkpt><trkpt lat="44.3620732445097" lon="7.9708628742608"><ele>457.0</ele><time>2026-05-03T09:27:16.999Z</time></trkpt><trkpt lat="44.362154085954714" lon="7.970893275034379"><ele>456.6666666666667</ele><time>2026-05-03T09:27:17.999Z</time></trkpt><trkpt lat="44.362236495271794" lon="7.970912530095248"><ele>456.33333333333337</ele><time>2026-05-03T09:27:18.999Z</time></trkpt><trkpt lat="44.36231859764611" lon="7.970924797502514"><ele>456.0</ele><time>2026-05-03T09:27:19.999Z</time></trkpt><trkpt lat="44.362412584265044" lon="7.970907263577942"><ele>455.66666666666663</ele><time>2026-05-03T09:27:20.999Z</time></trkpt><trkpt lat="44.362502485875204" lon="7.970872770584752"><ele>455.3333333333333</ele><time>2026-05-03T09:27:21.999Z</time></trkpt><trkpt lat="44.36258496463379" lon="7.970825408697375"><ele>455.0</ele><time>2026-05-03T09:27:22.999Z</time></trkpt><trkpt lat="44.36267446253937" lon="7.970758187577083"><ele>454.99999999999994</ele><time>2026-05-03T09:27:23.998Z</time></trkpt><trkpt lat="44.362755001253305" lon="7.97068831206923"><ele>455.0</ele><time>2026-05-03T09:27:24.998Z</time></trkpt><trkpt lat="44.36282856411952" lon="7.970623552758436"><ele>455.0</ele><time>2026-05-03T09:27:25.998Z</time></trkpt><trkpt lat="44.362887174711986" lon="7.970544934801039"><ele>455.0</ele><time>2026-05-03T09:27:26.998Z</time></trkpt><trkpt lat="44.362946497834955" lon="7.970488500278456"><ele>454.99999999999994</ele><time>2026-05-03T09:27:27.998Z</time></trkpt><trkpt lat="44.36303833936181" lon="7.970409360834698"><ele>455.0</ele><time>2026-05-03T09:27:29.998Z</time></trkpt><trkpt lat="44.3631026289932" lon="7.97036058232217"><ele>454.2</ele><time>2026-05-03T09:27:30.998Z</time></trkpt><trkpt lat="44.363182902233326" lon="7.970297097073615"><ele>453.4</ele><time>2026-05-03T09:27:31.998Z</time></trkpt><trkpt lat="44.36325999957911" lon="7.970231257493851"><ele>452.6</ele><time>2026-05-03T09:27:32.998Z</time></trkpt><trkpt lat="44.363339887550204" lon="7.970167722369616"><ele>451.8</ele><time>2026-05-03T09:27:33.998Z</time></trkpt><trkpt lat="44.36341950014366" lon="7.9701056473408585"><ele>451.0</ele><time>2026-05-03T09:27:34.998Z</time></trkpt><trkpt lat="44.36349253335211" lon="7.9700368552839835"><ele>450.83333333333337</ele><time>2026-05-03T09:27:35.998Z</time></trkpt><trkpt lat="44.3635649149354" lon="7.969954330724918"><ele>450.6666666666667</ele><time>2026-05-03T09:27:36.998Z</time></trkpt><trkpt lat="44.36361844686451" lon="7.969887144421183"><ele>450.5</ele><time>2026-05-03T09:27:37.998Z</time></trkpt><trkpt lat="44.36367099089728" lon="7.969818475733606"><ele>450.33333333333337</ele><time>2026-05-03T09:27:38.998Z</time></trkpt><trkpt lat="44.363721939516864" lon="7.969750869860651"><ele>450.1666666666667</ele><time>2026-05-03T09:27:39.998Z</time></trkpt><trkpt lat="44.36382385775423" lon="7.969661454205619"><ele>450.0</ele><time>2026-05-03T09:27:41.998Z</time></trkpt><trkpt lat="44.363898060131206" lon="7.9695738914154735"><ele>450.8</ele><time>2026-05-03T09:27:43.998Z</time></trkpt><trkpt lat="44.36395657882042" lon="7.96933026085409"><ele>451.6</ele><time>2026-05-03T09:27:45.998Z</time></trkpt><trkpt lat="44.36398943555423" lon="7.9691910584330525"><ele>452.4</ele><time>2026-05-03T09:27:46.998Z</time></trkpt><trkpt lat="44.36401170777824" lon="7.969089451719892"><ele>453.2</ele><time>2026-05-03T09:27:47.998Z</time></trkpt><trkpt lat="44.364031370500676" lon="7.9689872751282484"><ele>454.0</ele><time>2026-05-03T09:27:49Z</time></trkpt><trkpt lat="44.364050144903686" lon="7.968837120228331"><ele>454.0</ele><time>2026-05-03T09:27:51Z</time></trkpt><trkpt lat="44.36406044365721" lon="7.968645053618565"><ele>454.0</ele><time>2026-05-03T09:27:53Z</time></trkpt><trkpt lat="44.364053202911634" lon="7.968524717412942"><ele>454.0</ele><time>2026-05-03T09:27:54Z</time></trkpt><trkpt lat="44.364060005457624" lon="7.968418603052602"><ele>454.0</ele><time>2026-05-03T09:27:55Z</time></trkpt><trkpt lat="44.36407767046698" lon="7.968250948588444"><ele>454.0</ele><time>2026-05-03T09:27:57Z</time></trkpt><trkpt lat="44.36408444421731" lon="7.968119236918003"><ele>453.75</ele><time>2026-05-03T09:27:59Z</time></trkpt><trkpt lat="44.36410955613551" lon="7.967827098395305"><ele>453.5</ele><time>2026-05-03T09:28:34.999Z</time></trkpt><trkpt lat="44.364128303014866" lon="7.967658176880681"><ele>453.25</ele><time>2026-05-03T09:28:36.999Z</time></trkpt><trkpt lat="44.36415428718299" lon="7.967560129095298"><ele>453.0</ele><time>2026-05-03T09:28:37.999Z</time></trkpt><trkpt lat="44.3641986526509" lon="7.96741267897554"><ele>452.4</ele><time>2026-05-03T09:28:38.999Z</time></trkpt><trkpt lat="44.36427498918455" lon="7.967308340335352"><ele>451.79999999999995</ele><time>2026-05-03T09:28:39.999Z</time></trkpt><trkpt lat="44.36434998285691" lon="7.9672059927657894"><ele>451.2</ele><time>2026-05-03T09:28:40.999Z</time></trkpt><trkpt lat="44.36442050937469" lon="7.9671160821064"><ele>450.6</ele><time>2026-05-03T09:28:41.999Z</time></trkpt><trkpt lat="44.3644943533417" lon="7.967021942080984"><ele>450.0</ele><time>2026-05-03T09:28:42.999Z</time></trkpt><trkpt lat="44.36457395172574" lon="7.9669137323336745"><ele>450.0</ele><time>2026-05-03T09:28:43.999Z</time></trkpt><trkpt lat="44.364640799531564" lon="7.966821958229071"><ele>450.0</ele><time>2026-05-03T09:28:44.999Z</time></trkpt><trkpt lat="44.36470932220982" lon="7.966731629449333"><ele>450.0</ele><time>2026-05-03T09:28:45.999Z</time></trkpt><trkpt lat="44.36477568993239" lon="7.966646719528077"><ele>450.0</ele><time>2026-05-03T09:28:46.999Z</time></trkpt><trkpt lat="44.36484002534901" lon="7.966575240317619"><ele>450.0</ele><time>2026-05-03T09:28:47.999Z</time></trkpt><trkpt lat="44.364911605039985" lon="7.9665144182420216"><ele>450.0</ele><time>2026-05-03T09:28:48.999Z</time></trkpt><trkpt lat="44.36500224571737" lon="7.966448218105336"><ele>451.4</ele><time>2026-05-03T09:28:49.999Z</time></trkpt><trkpt lat="44.36510760915882" lon="7.966380666348999"><ele>452.8</ele><time>2026-05-03T09:28:50.999Z</time></trkpt><trkpt lat="44.365201873505534" lon="7.966323124928758"><ele>454.20000000000005</ele><time>2026-05-03T09:28:51.999Z</time></trkpt><trkpt lat="44.3652852866682" lon="7.966275295898438"><ele>455.6</ele><time>2026-05-03T09:28:52.999Z</time></trkpt><trkpt lat="44.365374021292816" lon="7.96622450567306"><ele>457.0</ele><time>2026-05-03T09:28:53.999Z</time></trkpt><trkpt lat="44.365480246565596" lon="7.966163704193164"><ele>461.0</ele><time>2026-05-03T09:28:54.999Z</time></trkpt><trkpt lat="44.36555758939408" lon="7.966121944891585"><ele>465.00000000000006</ele><time>2026-05-03T09:28:55.999Z</time></trkpt><trkpt lat="44.36564058517706" lon="7.966076164521476"><ele>469.00000000000006</ele><time>2026-05-03T09:28:56.999Z</time></trkpt><trkpt lat="44.36573144638124" lon="7.966012740552714"><ele>473.0</ele><time>2026-05-03T09:28:57.999Z</time></trkpt><trkpt lat="44.36580770044367" lon="7.965931699864117"><ele>477.0</ele><time>2026-05-03T09:28:58.999Z</time></trkpt><trkpt lat="44.36588565226716" lon="7.965863626902331"><ele>472.20000000000005</ele><time>2026-05-03T09:28:59.999Z</time></trkpt><trkpt lat="44.36595222042771" lon="7.965803884563227"><ele>467.40000000000003</ele><time>2026-05-03T09:29:00.999Z</time></trkpt><trkpt lat="44.366029172776386" lon="7.965736569056623"><ele>462.59999999999997</ele><time>2026-05-03T09:29:01.999Z</time></trkpt><trkpt lat="44.36611298026762" lon="7.96567177050036"><ele>457.79999999999995</ele><time>2026-05-03T09:29:02.999Z</time></trkpt><trkpt lat="44.36619813711354" lon="7.965604585183714"><ele>453.0</ele><time>2026-05-03T09:29:03.999Z</time></trkpt><trkpt lat="44.36629213968849" lon="7.965579997695465"><ele>456.2</ele><time>2026-05-03T09:29:04.999Z</time></trkpt><trkpt lat="44.36636959214916" lon="7.965520606777931"><ele>459.4</ele><time>2026-05-03T09:29:05.999Z</time></trkpt><trkpt lat="44.36643810990553" lon="7.965450639177052"><ele>462.59999999999997</ele><time>2026-05-03T09:29:06.999Z</time></trkpt><trkpt lat="44.36652384831515" lon="7.965391393317978"><ele>465.79999999999995</ele><time>2026-05-03T09:29:07.999Z</time></trkpt><trkpt lat="44.36661947919485" lon="7.965349130713972"><ele>469.0</ele><time>2026-05-03T09:29:08.999Z</time></trkpt><trkpt lat="44.36670052718371" lon="7.965279223907478"><ele>469.0</ele><time>2026-05-03T09:29:09.999Z</time></trkpt><trkpt lat="44.366794082177854" lon="7.9652442192472686"><ele>469.0</ele><time>2026-05-03T09:29:10.999Z</time></trkpt><trkpt lat="44.36689932852211" lon="7.965196026530601"><ele>469.0</ele><time>2026-05-03T09:29:11.999Z</time></trkpt><trkpt lat="44.36700821304425" lon="7.965147887098689"><ele>469.0</ele><time>2026-05-03T09:29:12.999Z</time></trkpt><trkpt lat="44.36710362475568" lon="7.965114502734788"><ele>469.0</ele><time>2026-05-03T09:29:13.999Z</time></trkpt><trkpt lat="44.36720301075808" lon="7.965077234976453"><ele>469.6</ele><time>2026-05-03T09:29:14.999Z</time></trkpt><trkpt lat="44.36730294711714" lon="7.965052135337037"><ele>470.2</ele><time>2026-05-03T09:29:15.999Z</time></trkpt><trkpt lat="44.36740117363238" lon="7.965011844200409"><ele>470.80000000000007</ele><time>2026-05-03T09:29:16.999Z</time></trkpt><trkpt lat="44.367491375776225" lon="7.96497331494225"><ele>471.40000000000003</ele><time>2026-05-03T09:29:17.999Z</time></trkpt><trkpt lat="44.367582951384605" lon="7.964943303479336"><ele>472.0</ele><time>2026-05-03T09:29:18.999Z</time></trkpt><trkpt lat="44.36767510388924" lon="7.964912575952539"><ele>466.8</ele><time>2026-05-03T09:29:19.999Z</time></trkpt><trkpt lat="44.36777606377955" lon="7.964874755330212"><ele>461.6</ele><time>2026-05-03T09:29:20.999Z</time></trkpt><trkpt lat="44.367869185580176" lon="7.96484114169822"><ele>456.40000000000003</ele><time>2026-05-03T09:29:21.999Z</time></trkpt><trkpt lat="44.36796338810755" lon="7.964800531189325"><ele>451.20000000000005</ele><time>2026-05-03T09:29:22.999Z</time></trkpt><trkpt lat="44.36805881635603" lon="7.964756690214391"><ele>446.0</ele><time>2026-05-03T09:29:23.999Z</time></trkpt><trkpt lat="44.36814671498358" lon="7.964700758638126"><ele>445.4</ele><time>2026-05-03T09:29:24.999Z</time></trkpt><trkpt lat="44.36823125302583" lon="7.964644923510624"><ele>444.8</ele><time>2026-05-03T09:29:25.999Z</time></trkpt><trkpt lat="44.368318097678184" lon="7.964583849725863"><ele>444.19999999999993</ele><time>2026-05-03T09:29:26.999Z</time></trkpt><trkpt lat="44.36841355465119" lon="7.96450691498519"><ele>443.59999999999997</ele><time>2026-05-03T09:29:27.999Z</time></trkpt><trkpt lat="44.368489276913174" lon="7.9644421165876835"><ele>443.0</ele><time>2026-05-03T09:29:28.998Z</time></trkpt><trkpt lat="44.36857852856589" lon="7.964360492025466"><ele>443.0</ele><time>2026-05-03T09:29:29.998Z</time></trkpt><trkpt lat="44.36865670642551" lon="7.964287132629481"><ele>442.99999999999994</ele><time>2026-05-03T09:29:30.998Z</time></trkpt><trkpt lat="44.36874223751409" lon="7.964224148147792"><ele>442.99999999999994</ele><time>2026-05-03T09:29:31.998Z</time></trkpt><trkpt lat="44.368806009243656" lon="7.964110074946569"><ele>443.0</ele><time>2026-05-03T09:29:32.998Z</time></trkpt><trkpt lat="44.36885215422085" lon="7.963972136977596"><ele>443.0</ele><time>2026-05-03T09:29:33.998Z</time></trkpt><trkpt lat="44.368887075611326" lon="7.963790461473665"><ele>443.99999999999994</ele><time>2026-05-03T09:29:34.998Z</time></trkpt><trkpt lat="44.36890504279516" lon="7.963646760163556"><ele>445.0</ele><time>2026-05-03T09:29:35.998Z</time></trkpt><trkpt lat="44.36894206637549" lon="7.963525262156163"><ele>446.0</ele><time>2026-05-03T09:29:36.998Z</time></trkpt><trkpt lat="44.3689630306155" lon="7.963406438978392"><ele>447.0</ele><time>2026-05-03T09:29:37.998Z</time></trkpt><trkpt lat="44.368985825060555" lon="7.963295341890465"><ele>447.99999999999994</ele><time>2026-05-03T09:29:38.998Z</time></trkpt><trkpt lat="44.3690129250314" lon="7.963195306540818"><ele>449.0</ele><time>2026-05-03T09:29:39.998Z</time></trkpt><trkpt lat="44.36905134634829" lon="7.963089877178981"><ele>448.99999999999994</ele><time>2026-05-03T09:29:40.998Z</time></trkpt><trkpt lat="44.36908733198118" lon="7.962976445171854"><ele>449.0</ele><time>2026-05-03T09:29:41.998Z</time></trkpt><trkpt lat="44.36916463793969" lon="7.962898761553838"><ele>449.0</ele><time>2026-05-03T09:29:42.998Z</time></trkpt><trkpt lat="44.3692335852971" lon="7.962822332644366"><ele>449.0</ele><time>2026-05-03T09:29:43.998Z</time></trkpt><trkpt lat="44.36929674612211" lon="7.962748482280338"><ele>448.99999999999994</ele><time>2026-05-03T09:29:44.998Z</time></trkpt><trkpt lat="44.369348328005835" lon="7.96265567842616"><ele>449.0</ele><time>2026-05-03T09:29:45.998Z</time></trkpt><trkpt lat="44.36939177848871" lon="7.962559976573804"><ele>447.4</ele><time>2026-05-03T09:29:46.998Z</time></trkpt><trkpt lat="44.36942440883553" lon="7.962430580126981"><ele>445.79999999999995</ele><time>2026-05-03T09:29:47.998Z</time></trkpt><trkpt lat="44.36944148965419" lon="7.962273153517651"><ele>444.20000000000005</ele><time>2026-05-03T09:29:48.998Z</time></trkpt><trkpt lat="44.369438792555535" lon="7.962119653971216"><ele>442.6</ele><time>2026-05-03T09:29:49.998Z</time></trkpt><trkpt lat="44.36943158352338" lon="7.961984631726176"><ele>441.0</ele><time>2026-05-03T09:29:50.998Z</time></trkpt><trkpt lat="44.36944885637371" lon="7.961845285321814"><ele>441.0</ele><time>2026-05-03T09:29:51.998Z</time></trkpt><trkpt lat="44.36944566817617" lon="7.961709918195299"><ele>441.0</ele><time>2026-05-03T09:29:52.998Z</time></trkpt><trkpt lat="44.36944327192686" lon="7.961561261593735"><ele>441.0</ele><time>2026-05-03T09:29:53.998Z</time></trkpt><trkpt lat="44.369442456473706" lon="7.961405043649241"><ele>441.0</ele><time>2026-05-03T09:29:55Z</time></trkpt><trkpt lat="44.369439865806946" lon="7.96124783527316"><ele>441.0</ele><time>2026-05-03T09:29:56Z</time></trkpt><trkpt lat="44.36944405090236" lon="7.961110748379319"><ele>440.5</ele><time>2026-05-03T09:29:57Z</time></trkpt><trkpt lat="44.369460183083504" lon="7.960961068328631"><ele>440.0</ele><time>2026-05-03T09:29:58Z</time></trkpt><trkpt lat="44.369481591086846" lon="7.960814551016839"><ele>439.5</ele><time>2026-05-03T09:29:59Z</time></trkpt><trkpt lat="44.3695083141581" lon="7.960654890888163"><ele>439.0</ele><time>2026-05-03T09:30:00Z</time></trkpt><trkpt lat="44.36953740626104" lon="7.960491086040261"><ele>438.6</ele><time>2026-05-03T09:30:01Z</time></trkpt><trkpt lat="44.36956742417384" lon="7.960347364713996"><ele>438.2</ele><time>2026-05-03T09:30:02Z</time></trkpt><trkpt lat="44.3695928265711" lon="7.960212620452214"><ele>437.80000000000007</ele><time>2026-05-03T09:30:03Z</time></trkpt><trkpt lat="44.3696164455815" lon="7.96007700832561"><ele>437.40000000000003</ele><time>2026-05-03T09:30:04Z</time></trkpt><trkpt lat="44.369641119948135" lon="7.959947709857659"><ele>437.0</ele><time>2026-05-03T09:30:05Z</time></trkpt><trkpt lat="44.36966566217365" lon="7.9598054893229255"><ele>436.6</ele><time>2026-05-03T09:30:06Z</time></trkpt><trkpt lat="44.36969119675076" lon="7.959663078865301"><ele>436.20000000000005</ele><time>2026-05-03T09:30:07Z</time></trkpt><trkpt lat="44.36971359355589" lon="7.9595224839851815"><ele>435.8</ele><time>2026-05-03T09:30:08Z</time></trkpt><trkpt lat="44.36973723638283" lon="7.9593762030244335"><ele>435.4</ele><time>2026-05-03T09:30:09Z</time></trkpt><trkpt lat="44.36975908093143" lon="7.959227766921949"><ele>435.0</ele><time>2026-05-03T09:30:10Z</time></trkpt><trkpt lat="44.36978234845899" lon="7.959081169391565"><ele>434.8</ele><time>2026-05-03T09:30:11Z</time></trkpt><trkpt lat="44.36980600908314" lon="7.958930198928308"><ele>434.6</ele><time>2026-05-03T09:30:12Z</time></trkpt><trkpt lat="44.369833675307675" lon="7.958785913075465"><ele>434.4</ele><time>2026-05-03T09:30:13Z</time></trkpt><trkpt lat="44.36986063660487" lon="7.958636109365328"><ele>434.2</ele><time>2026-05-03T09:30:14Z</time></trkpt><trkpt lat="44.36988562329347" lon="7.958484660444683"><ele>434.0</ele><time>2026-05-03T09:30:15Z</time></trkpt><trkpt lat="44.36991495087417" lon="7.958324589920611"><ele>433.25</ele><time>2026-05-03T09:30:16Z</time></trkpt><trkpt lat="44.36994737496913" lon="7.958159910218636"><ele>432.5</ele><time>2026-05-03T09:30:17Z</time></trkpt><trkpt lat="44.36997970894237" lon="7.957988994267023"><ele>431.75</ele><time>2026-05-03T09:30:18Z</time></trkpt><trkpt lat="44.370013186847984" lon="7.957811523498124"><ele>431.0</ele><time>2026-05-03T09:30:19Z</time></trkpt><trkpt lat="44.37004617237788" lon="7.957617099650633"><ele>431.0</ele><time>2026-05-03T09:30:20Z</time></trkpt><trkpt lat="44.370083110422954" lon="7.957404503637067"><ele>431.0</ele><time>2026-05-03T09:30:21Z</time></trkpt><trkpt lat="44.37012844874225" lon="7.957180583284474"><ele>431.0</ele><time>2026-05-03T09:30:22Z</time></trkpt><trkpt lat="44.370176829678186" lon="7.956957142487721"><ele>431.0</ele><time>2026-05-03T09:30:23Z</time></trkpt><trkpt lat="44.37022139295917" lon="7.956744533548147"><ele>431.0</ele><time>2026-05-03T09:30:24Z</time></trkpt><trkpt lat="44.37026923367055" lon="7.95654206025588"><ele>431.0</ele><time>2026-05-03T09:30:25Z</time></trkpt><trkpt lat="44.3703234171755" lon="7.9563395740346445"><ele>429.66666666666663</ele><time>2026-05-03T09:30:26Z</time></trkpt><trkpt lat="44.37038450509984" lon="7.956134172010967"><ele>428.33333333333337</ele><time>2026-05-03T09:30:27Z</time></trkpt><trkpt lat="44.37044379194336" lon="7.955944567954714"><ele>427.0</ele><time>2026-05-03T09:30:28Z</time></trkpt><trkpt lat="44.37051440252263" lon="7.95575198279354"><ele>426.6666666666667</ele><time>2026-05-03T09:30:29Z</time></trkpt><trkpt lat="44.37060584426755" lon="7.955557044677593"><ele>426.33333333333337</ele><time>2026-05-03T09:30:30Z</time></trkpt><trkpt lat="44.370704768448974" lon="7.9553617326361215"><ele>426.0</ele><time>2026-05-03T09:30:31Z</time></trkpt><trkpt lat="44.370805163913936" lon="7.955181187070915"><ele>425.0</ele><time>2026-05-03T09:30:32Z</time></trkpt><trkpt lat="44.37089568033282" lon="7.955027614655818"><ele>424.0</ele><time>2026-05-03T09:30:33Z</time></trkpt><trkpt lat="44.3709750153659" lon="7.954891566966803"><ele>423.0</ele><time>2026-05-03T09:30:34Z</time></trkpt><trkpt lat="44.37105011333675" lon="7.9547557056204115"><ele>422.0</ele><time>2026-05-03T09:30:35Z</time></trkpt><trkpt lat="44.371118829522516" lon="7.954636586815822"><ele>422.0</ele><time>2026-05-03T09:30:36Z</time></trkpt><trkpt lat="44.371175174119074" lon="7.954523761581495"><ele>422.0</ele><time>2026-05-03T09:30:36.999Z</time></trkpt><trkpt lat="44.37122868604663" lon="7.954403822631847"><ele>422.0</ele><time>2026-05-03T09:30:37.999Z</time></trkpt><trkpt lat="44.37127027991635" lon="7.954276169710454"><ele>422.0</ele><time>2026-05-03T09:30:38.999Z</time></trkpt><trkpt lat="44.37129859961888" lon="7.954127551809989"><ele>422.0</ele><time>2026-05-03T09:30:39.999Z</time></trkpt><trkpt lat="44.3712869014948" lon="7.953961926675484"><ele>422.0</ele><time>2026-05-03T09:30:40.999Z</time></trkpt><trkpt lat="44.371255292180884" lon="7.953792483674233"><ele>422.0</ele><time>2026-05-03T09:30:41.999Z</time></trkpt><trkpt lat="44.371181042309146" lon="7.953618380808098"><ele>422.0</ele><time>2026-05-03T09:30:42.999Z</time></trkpt><trkpt lat="44.37111087722247" lon="7.953442942227387"><ele>422.0</ele><time>2026-05-03T09:30:43.999Z</time></trkpt><trkpt lat="44.37106113667564" lon="7.953271038584837"><ele>423.75</ele><time>2026-05-03T09:30:44.999Z</time></trkpt><trkpt lat="44.37102704714307" lon="7.953105483086928"><ele>425.5</ele><time>2026-05-03T09:30:45.999Z</time></trkpt><trkpt lat="44.371010173880045" lon="7.952906657764605"><ele>427.25</ele><time>2026-05-03T09:30:46.999Z</time></trkpt><trkpt lat="44.371025282292734" lon="7.952723755042249"><ele>429.0</ele><time>2026-05-03T09:30:47.999Z</time></trkpt><trkpt lat="44.37103031440701" lon="7.952559634287785"><ele>429.75</ele><time>2026-05-03T09:30:48.999Z</time></trkpt><trkpt lat="44.37107126616684" lon="7.952373715683585"><ele>430.5</ele><time>2026-05-03T09:30:49.999Z</time></trkpt><trkpt lat="44.37112389685122" lon="7.95217145550387"><ele>431.25</ele><time>2026-05-03T09:30:50.999Z</time></trkpt><trkpt lat="44.37118783871633" lon="7.951972804285553"><ele>432.0</ele><time>2026-05-03T09:30:51.999Z</time></trkpt><trkpt lat="44.3712620472788" lon="7.95176122401283"><ele>432.33333333333337</ele><time>2026-05-03T09:30:52.999Z</time></trkpt><trkpt lat="44.3713415675319" lon="7.9515566105888675"><ele>432.6666666666667</ele><time>2026-05-03T09:30:53.999Z</time></trkpt><trkpt lat="44.37142470299769" lon="7.951343444167432"><ele>433.0</ele><time>2026-05-03T09:30:54.999Z</time></trkpt><trkpt lat="44.37151036977366" lon="7.951128642946043"><ele>433.0</ele><time>2026-05-03T09:30:55.999Z</time></trkpt><trkpt lat="44.371585416586704" lon="7.950912260655244"><ele>433.0</ele><time>2026-05-03T09:30:56.999Z</time></trkpt><trkpt lat="44.37165769418985" lon="7.950719691176671"><ele>433.0</ele><time>2026-05-03T09:30:57.999Z</time></trkpt><trkpt lat="44.37171394631488" lon="7.9505475623062845"><ele>433.0</ele><time>2026-05-03T09:30:58.999Z</time></trkpt><trkpt lat="44.371771789355755" lon="7.950399263806633"><ele>433.0</ele><time>2026-05-03T09:30:59.999Z</time></trkpt><trkpt lat="44.37182472830046" lon="7.950257601846318"><ele>433.0</ele><time>2026-05-03T09:31:00.999Z</time></trkpt><trkpt lat="44.37187979028978" lon="7.950105377335036"><ele>433.0</ele><time>2026-05-03T09:31:01.999Z</time></trkpt><trkpt lat="44.37192678380251" lon="7.94993152460708"><ele>433.25</ele><time>2026-05-03T09:31:02.999Z</time></trkpt><trkpt lat="44.37196399085539" lon="7.949738678102796"><ele>433.5</ele><time>2026-05-03T09:31:03.999Z</time></trkpt><trkpt lat="44.37197371144054" lon="7.94952981736762"><ele>433.75</ele><time>2026-05-03T09:31:04.999Z</time></trkpt><trkpt lat="44.371975545883544" lon="7.949318541967436"><ele>434.0</ele><time>2026-05-03T09:31:05.999Z</time></trkpt><trkpt lat="44.371976498232165" lon="7.949097670881056"><ele>435.3333333333333</ele><time>2026-05-03T09:31:06.999Z</time></trkpt><trkpt lat="44.371981207970755" lon="7.948864890612371"><ele>436.66666666666663</ele><time>2026-05-03T09:31:07.999Z</time></trkpt><trkpt lat="44.37200957267936" lon="7.948654820063372"><ele>438.0</ele><time>2026-05-03T09:31:08.999Z</time></trkpt><trkpt lat="44.37203661430945" lon="7.948458081047914"><ele>438.79999999999995</ele><time>2026-05-03T09:31:09.999Z</time></trkpt><trkpt lat="44.37206328760685" lon="7.948299878101462"><ele>439.59999999999997</ele><time>2026-05-03T09:31:10.999Z</time></trkpt><trkpt lat="44.372096585943815" lon="7.948155040767014"><ele>440.40000000000003</ele><time>2026-05-03T09:31:11.999Z</time></trkpt><trkpt lat="44.3721395000183" lon="7.948021223930231"><ele>441.20000000000005</ele><time>2026-05-03T09:31:12.999Z</time></trkpt><trkpt lat="44.37220026181734" lon="7.947889041857323"><ele>442.0</ele><time>2026-05-03T09:31:13.999Z</time></trkpt><trkpt lat="44.37227433593859" lon="7.9477675694822265"><ele>440.25</ele><time>2026-05-03T09:31:14.999Z</time></trkpt><trkpt lat="44.37236272732002" lon="7.9476667635739355"><ele>438.5</ele><time>2026-05-03T09:31:15.999Z</time></trkpt><trkpt lat="44.3724727111978" lon="7.94757894305545"><ele>436.75</ele><time>2026-05-03T09:31:16.999Z</time></trkpt><trkpt lat="44.37260582853049" lon="7.947508604672923"><ele>435.0</ele><time>2026-05-03T09:31:17.999Z</time></trkpt><trkpt lat="44.372730976696324" lon="7.947447889739397"><ele>435.0</ele><time>2026-05-03T09:31:18.999Z</time></trkpt><trkpt lat="44.372854091446676" lon="7.9473584309555525"><ele>435.0</ele><time>2026-05-03T09:31:19.999Z</time></trkpt><trkpt lat="44.372991347538644" lon="7.947252781073116"><ele>435.0</ele><time>2026-05-03T09:31:20.999Z</time></trkpt><trkpt lat="44.37312745088214" lon="7.947145771013394"><ele>432.66666666666663</ele><time>2026-05-03T09:31:21.999Z</time></trkpt><trkpt lat="44.37326382954498" lon="7.947012261492327"><ele>430.3333333333333</ele><time>2026-05-03T09:31:22.999Z</time></trkpt><trkpt lat="44.37339604881726" lon="7.946874963089197"><ele>428.0</ele><time>2026-05-03T09:31:23.999Z</time></trkpt><trkpt lat="44.37351850250124" lon="7.946746161801878"><ele>428.59999999999997</ele><time>2026-05-03T09:31:24.999Z</time></trkpt><trkpt lat="44.37361653616175" lon="7.946651332108581"><ele>429.19999999999993</ele><time>2026-05-03T09:31:25.999Z</time></trkpt><trkpt lat="44.37369452840162" lon="7.946569488219643"><ele>429.8</ele><time>2026-05-03T09:31:26.999Z</time></trkpt><trkpt lat="44.373775838385974" lon="7.9464872654367396"><ele>430.4</ele><time>2026-05-03T09:31:27.999Z</time></trkpt><trkpt lat="44.37385671773269" lon="7.946400282931883"><ele>431.0</ele><time>2026-05-03T09:31:28.999Z</time></trkpt><trkpt lat="44.37394584691849" lon="7.946296746376296"><ele>428.75</ele><time>2026-05-03T09:31:29.999Z</time></trkpt><trkpt lat="44.37403031209151" lon="7.946164616436123"><ele>426.5</ele><time>2026-05-03T09:31:30.999Z</time></trkpt><trkpt lat="44.37410254256733" lon="7.945969858813343"><ele>424.25</ele><time>2026-05-03T09:31:31.999Z</time></trkpt><trkpt lat="44.37415072485264" lon="7.9457786325209"><ele>422.0</ele><time>2026-05-03T09:31:32.999Z</time></trkpt><trkpt lat="44.374181427821846" lon="7.94558821010847"><ele>422.0</ele><time>2026-05-03T09:31:33.999Z</time></trkpt><trkpt lat="44.374213654964585" lon="7.945407917375763"><ele>422.0</ele><time>2026-05-03T09:31:34.998Z</time></trkpt><trkpt lat="44.37424806453049" lon="7.945214213465548"><ele>422.0</ele><time>2026-05-03T09:31:35.998Z</time></trkpt><trkpt lat="44.37429768372816" lon="7.945001519647858"><ele>422.0</ele><time>2026-05-03T09:31:36.998Z</time></trkpt><trkpt lat="44.37434441654937" lon="7.944790145408655"><ele>422.3333333333333</ele><time>2026-05-03T09:31:37.998Z</time></trkpt><trkpt lat="44.37439372665617" lon="7.94457068267152"><ele>422.66666666666663</ele><time>2026-05-03T09:31:38.998Z</time></trkpt><trkpt lat="44.37443663391361" lon="7.944356308239519"><ele>423.0</ele><time>2026-05-03T09:31:39.998Z</time></trkpt><trkpt lat="44.37447940840949" lon="7.944179033109338"><ele>424.0</ele><time>2026-05-03T09:31:40.998Z</time></trkpt><trkpt lat="44.37452122928177" lon="7.944009792932757"><ele>425.0</ele><time>2026-05-03T09:31:41.998Z</time></trkpt><trkpt lat="44.37455911973594" lon="7.943850672830421"><ele>426.0</ele><time>2026-05-03T09:31:42.998Z</time></trkpt><trkpt lat="44.37460492929755" lon="7.943711474928428"><ele>427.0</ele><time>2026-05-03T09:31:43.998Z</time></trkpt><trkpt lat="44.37466955359244" lon="7.943588471652934"><ele>426.5</ele><time>2026-05-03T09:31:44.998Z</time></trkpt><trkpt lat="44.37474190415054" lon="7.94347579111661"><ele>426.0</ele><time>2026-05-03T09:31:45.998Z</time></trkpt><trkpt lat="44.37484167002463" lon="7.943388799096328"><ele>425.5</ele><time>2026-05-03T09:31:46.998Z</time></trkpt><trkpt lat="44.37496155701692" lon="7.943324884723712"><ele>425.0</ele><time>2026-05-03T09:31:47.998Z</time></trkpt><trkpt lat="44.375094837828854" lon="7.943281667194583"><ele>425.0</ele><time>2026-05-03T09:31:48.998Z</time></trkpt><trkpt lat="44.37523428708988" lon="7.943234961313469"><ele>425.0</ele><time>2026-05-03T09:31:49.998Z</time></trkpt><trkpt lat="44.37538496127197" lon="7.943190720704472"><ele>425.0</ele><time>2026-05-03T09:31:50.998Z</time></trkpt><trkpt lat="44.37551335651312" lon="7.943150493795162"><ele>425.0</ele><time>2026-05-03T09:31:51.998Z</time></trkpt><trkpt lat="44.375631205210354" lon="7.943113077945495"><ele>424.25</ele><time>2026-05-03T09:31:52.998Z</time></trkpt><trkpt lat="44.37574146854461" lon="7.943089186491815"><ele>423.5</ele><time>2026-05-03T09:31:53.998Z</time></trkpt><trkpt lat="44.37584695797143" lon="7.943051370261518"><ele>422.75</ele><time>2026-05-03T09:31:54.998Z</time></trkpt><trkpt lat="44.37595325339664" lon="7.94300597150576"><ele>422.0</ele><time>2026-05-03T09:31:55.998Z</time></trkpt><trkpt lat="44.37606480375623" lon="7.942940305398862"><ele>422.0</ele><time>2026-05-03T09:31:56.998Z</time></trkpt><trkpt lat="44.37617492793278" lon="7.9428444911033775"><ele>422.0</ele><time>2026-05-03T09:31:57.998Z</time></trkpt><trkpt lat="44.37626935793281" lon="7.942724888972359"><ele>422.0</ele><time>2026-05-03T09:31:58.998Z</time></trkpt><trkpt lat="44.376351170261444" lon="7.942567489169879"><ele>422.0</ele><time>2026-05-03T09:31:59.998Z</time></trkpt><trkpt lat="44.37641816600817" lon="7.942387634921007"><ele>424.0</ele><time>2026-05-03T09:32:01Z</time></trkpt><trkpt lat="44.37649338326856" lon="7.942216618245287"><ele>426.0</ele><time>2026-05-03T09:32:02Z</time></trkpt><trkpt lat="44.376547377748" lon="7.942058496093606"><ele>428.0</ele><time>2026-05-03T09:32:03Z</time></trkpt><trkpt lat="44.37659747289859" lon="7.941921388510482"><ele>430.0</ele><time>2026-05-03T09:32:04Z</time></trkpt><trkpt lat="44.376661425758755" lon="7.941791516278147"><ele>433.25</ele><time>2026-05-03T09:32:05Z</time></trkpt><trkpt lat="44.37674999333041" lon="7.941680743623299"><ele>436.5</ele><time>2026-05-03T09:32:06Z</time></trkpt><trkpt lat="44.37684519375583" lon="7.941598980850665"><ele>439.75</ele><time>2026-05-03T09:32:07Z</time></trkpt><trkpt lat="44.376945036893275" lon="7.941523888317148"><ele>443.0</ele><time>2026-05-03T09:32:08Z</time></trkpt><trkpt lat="44.37705675849821" lon="7.941461407324469"><ele>443.0</ele><time>2026-05-03T09:32:09Z</time></trkpt><trkpt lat="44.37717204529176" lon="7.94140532599398"><ele>443.0</ele><time>2026-05-03T09:32:10Z</time></trkpt><trkpt lat="44.377292007915386" lon="7.941356590045759"><ele>443.0</ele><time>2026-05-03T09:32:11Z</time></trkpt><trkpt lat="44.377420753583074" lon="7.941316894195668"><ele>443.0</ele><time>2026-05-03T09:32:12Z</time></trkpt><trkpt lat="44.37756120306007" lon="7.941260902873226"><ele>439.3333333333333</ele><time>2026-05-03T09:32:13Z</time></trkpt><trkpt lat="44.37771180882382" lon="7.941194822710319"><ele>435.66666666666663</ele><time>2026-05-03T09:32:14Z</time></trkpt><trkpt lat="44.377864184259984" lon="7.941131353421694"><ele>432.0</ele><time>2026-05-03T09:32:15Z</time></trkpt><trkpt lat="44.378019507166854" lon="7.941066844189851"><ele>427.66666666666663</ele><time>2026-05-03T09:32:16Z</time></trkpt><trkpt lat="44.378202147802405" lon="7.941007044959067"><ele>423.3333333333333</ele><time>2026-05-03T09:32:17Z</time></trkpt><trkpt lat="44.37837391574686" lon="7.940939963720034"><ele>419.0</ele><time>2026-05-03T09:32:18Z</time></trkpt><trkpt lat="44.3785492263199" lon="7.9408561043656105"><ele>424.66666666666663</ele><time>2026-05-03T09:32:19Z</time></trkpt><trkpt lat="44.37873701394348" lon="7.940789667010768"><ele>430.33333333333337</ele><time>2026-05-03T09:32:20Z</time></trkpt><trkpt lat="44.378919660444765" lon="7.940708926619234"><ele>436.0</ele><time>2026-05-03T09:32:21Z</time></trkpt><trkpt lat="44.37911441656163" lon="7.940633575401821"><ele>436.0</ele><time>2026-05-03T09:32:22Z</time></trkpt><trkpt lat="44.37931479564054" lon="7.940550657951085"><ele>436.0</ele><time>2026-05-03T09:32:23Z</time></trkpt><trkpt lat="44.37949804473555" lon="7.940477942717431"><ele>436.0</ele><time>2026-05-03T09:32:24Z</time></trkpt><trkpt lat="44.379660367578495" lon="7.9404120520213235"><ele>435.0</ele><time>2026-05-03T09:32:25Z</time></trkpt><trkpt lat="44.37983149974447" lon="7.940340281430658"><ele>434.0</ele><time>2026-05-03T09:32:26Z</time></trkpt><trkpt lat="44.380011127825306" lon="7.9402798304779205"><ele>433.0</ele><time>2026-05-03T09:32:27Z</time></trkpt><trkpt lat="44.380209110877466" lon="7.940224246803702"><ele>433.0</ele><time>2026-05-03T09:32:28Z</time></trkpt><trkpt lat="44.380406244895134" lon="7.940193724093147"><ele>433.0</ele><time>2026-05-03T09:32:29Z</time></trkpt><trkpt lat="44.38060615637233" lon="7.94018287086394"><ele>433.0</ele><time>2026-05-03T09:32:30Z</time></trkpt><trkpt lat="44.38079305099253" lon="7.9401606708158505"><ele>431.6666666666667</ele><time>2026-05-03T09:32:31Z</time></trkpt><trkpt lat="44.38095911917768" lon="7.940145187552699"><ele>430.33333333333337</ele><time>2026-05-03T09:32:32Z</time></trkpt><trkpt lat="44.38114043827723" lon="7.940141010466817"><ele>429.0</ele><time>2026-05-03T09:32:33Z</time></trkpt><trkpt lat="44.38131387061743" lon="7.94015907531633"><ele>429.66666666666663</ele><time>2026-05-03T09:32:34Z</time></trkpt><trkpt lat="44.38149682778197" lon="7.940210424822676"><ele>430.3333333333333</ele><time>2026-05-03T09:32:35Z</time></trkpt><trkpt lat="44.38168275084065" lon="7.940293209065185"><ele>431.0</ele><time>2026-05-03T09:32:36Z</time></trkpt><trkpt lat="44.381862075458315" lon="7.94039432383813"><ele>431.0</ele><time>2026-05-03T09:32:37Z</time></trkpt><trkpt lat="44.3820502056362" lon="7.940498792983645"><ele>431.0</ele><time>2026-05-03T09:32:38Z</time></trkpt><trkpt lat="44.38222402209712" lon="7.940596015142425"><ele>431.0</ele><time>2026-05-03T09:32:39Z</time></trkpt><trkpt lat="44.382393982898265" lon="7.940683231325253"><ele>429.66666666666663</ele><time>2026-05-03T09:32:40Z</time></trkpt><trkpt lat="44.38252886591637" lon="7.9407866652271935"><ele>428.33333333333337</ele><time>2026-05-03T09:32:41Z</time></trkpt><trkpt lat="44.3826748669578" lon="7.9409235597346415"><ele>427.0</ele><time>2026-05-03T09:32:42Z</time></trkpt><trkpt lat="44.38282623950277" lon="7.941060499425785"><ele>427.0</ele><time>2026-05-03T09:32:43Z</time></trkpt><trkpt lat="44.38297085831214" lon="7.941199990877338"><ele>427.0</ele><time>2026-05-03T09:32:43.999Z</time></trkpt><trkpt lat="44.38309403950517" lon="7.941324395005496"><ele>427.0</ele><time>2026-05-03T09:32:44.999Z</time></trkpt><trkpt lat="44.38319615038245" lon="7.941439195450825"><ele>429.40000000000003</ele><time>2026-05-03T09:32:45.999Z</time></trkpt><trkpt lat="44.38328538433913" lon="7.941554291617383"><ele>431.80000000000007</ele><time>2026-05-03T09:32:46.999Z</time></trkpt><trkpt lat="44.38335111438935" lon="7.9416532174409955"><ele>434.2</ele><time>2026-05-03T09:32:47.999Z</time></trkpt><trkpt lat="44.383417423843596" lon="7.941747455986754"><ele>436.6</ele><time>2026-05-03T09:32:48.999Z</time></trkpt><trkpt lat="44.3834725990109" lon="7.941841673919144"><ele>439.0</ele><time>2026-05-03T09:32:49.999Z</time></trkpt><trkpt lat="44.38354292538251" lon="7.941926705613845"><ele>439.00000000000006</ele><time>2026-05-03T09:32:50.999Z</time></trkpt><trkpt lat="44.38360811455625" lon="7.942002726195684"><ele>439.0</ele><time>2026-05-03T09:32:51.999Z</time></trkpt><trkpt lat="44.38367515462255" lon="7.942067118322546"><ele>439.0</ele><time>2026-05-03T09:32:52.999Z</time></trkpt><trkpt lat="44.38375333047414" lon="7.942111173909706"><ele>439.0</ele><time>2026-05-03T09:32:53.999Z</time></trkpt><trkpt lat="44.383835647083814" lon="7.942116626529881"><ele>439.00000000000006</ele><time>2026-05-03T09:32:54.999Z</time></trkpt><trkpt lat="44.383921739721465" lon="7.94208112915176"><ele>439.0</ele><time>2026-05-03T09:32:55.999Z</time></trkpt><trkpt lat="44.383988653972835" lon="7.942026611642065"><ele>440.4</ele><time>2026-05-03T09:32:56.999Z</time></trkpt><trkpt lat="44.38402243291068" lon="7.9419505487619855"><ele>441.79999999999995</ele><time>2026-05-03T09:32:57.999Z</time></trkpt><trkpt lat="44.38405025442054" lon="7.9418561728949335"><ele>443.20000000000005</ele><time>2026-05-03T09:32:58.999Z</time></trkpt><trkpt lat="44.3840455656331" lon="7.941722655087324"><ele>444.6</ele><time>2026-05-03T09:32:59.999Z</time></trkpt><trkpt lat="44.384035310437596" lon="7.941560026290812"><ele>446.0</ele><time>2026-05-03T09:33:00.999Z</time></trkpt><trkpt lat="44.38398217569672" lon="7.941350817948194"><ele>446.0</ele><time>2026-05-03T09:33:01.999Z</time></trkpt><trkpt lat="44.38396572687519" lon="7.941153855634591"><ele>446.0</ele><time>2026-05-03T09:33:02.999Z</time></trkpt><trkpt lat="44.38392342674477" lon="7.940930545095415"><ele>446.0</ele><time>2026-05-03T09:33:03.999Z</time></trkpt><trkpt lat="44.383887787209815" lon="7.94069120881921"><ele>444.66666666666663</ele><time>2026-05-03T09:33:04.999Z</time></trkpt><trkpt lat="44.38385688570291" lon="7.9404489755828545"><ele>443.33333333333337</ele><time>2026-05-03T09:33:05.999Z</time></trkpt><trkpt lat="44.38381600281444" lon="7.940191885271114"><ele>442.0</ele><time>2026-05-03T09:33:06.999Z</time></trkpt><trkpt lat="44.383774256348794" lon="7.939902058581693"><ele>447.33333333333337</ele><time>2026-05-03T09:33:07.999Z</time></trkpt><trkpt lat="44.38372976974323" lon="7.9396254653311065"><ele>452.66666666666663</ele><time>2026-05-03T09:33:08.999Z</time></trkpt><trkpt lat="44.383688348194866" lon="7.939371907177524"><ele>458.0</ele><time>2026-05-03T09:33:09.999Z</time></trkpt><trkpt lat="44.38365946161186" lon="7.939127343482955"><ele>458.0</ele><time>2026-05-03T09:33:10.999Z</time></trkpt><trkpt lat="44.383616963852496" lon="7.938910429006586"><ele>458.0</ele><time>2026-05-03T09:33:11.999Z</time></trkpt><trkpt lat="44.38357962851452" lon="7.938697654538512"><ele>458.0</ele><time>2026-05-03T09:33:12.999Z</time></trkpt><trkpt lat="44.383545188766945" lon="7.938478012752226"><ele>456.5</ele><time>2026-05-03T09:33:13.999Z</time></trkpt><trkpt lat="44.38350934073747" lon="7.938270638433369"><ele>455.0</ele><time>2026-05-03T09:33:14.999Z</time></trkpt><trkpt lat="44.383472204137675" lon="7.938082147629495"><ele>453.5</ele><time>2026-05-03T09:33:15.999Z</time></trkpt><trkpt lat="44.38343102660516" lon="7.9378869010244"><ele>452.0</ele><time>2026-05-03T09:33:16.999Z</time></trkpt><trkpt lat="44.38338070008997" lon="7.93770943376969"><ele>450.25</ele><time>2026-05-03T09:33:17.999Z</time></trkpt><trkpt lat="44.38333089859666" lon="7.937536802129956"><ele>448.5</ele><time>2026-05-03T09:33:18.999Z</time></trkpt><trkpt lat="44.38326386345445" lon="7.937364643491169"><ele>446.75</ele><time>2026-05-03T09:33:19.999Z</time></trkpt><trkpt lat="44.38320699486929" lon="7.93721609445838"><ele>445.0</ele><time>2026-05-03T09:33:20.999Z</time></trkpt><trkpt lat="44.38315979816146" lon="7.937094011765514"><ele>445.00000000000006</ele><time>2026-05-03T09:33:21.999Z</time></trkpt><trkpt lat="44.38312290344164" lon="7.936962597562981"><ele>445.0</ele><time>2026-05-03T09:33:22.999Z</time></trkpt><trkpt lat="44.38310812343504" lon="7.936851226678257"><ele>445.0</ele><time>2026-05-03T09:33:23.999Z</time></trkpt><trkpt lat="44.383106569084454" lon="7.93672112535156"><ele>445.0</ele><time>2026-05-03T09:33:24.999Z</time></trkpt><trkpt lat="44.383131299692096" lon="7.936594248481995"><ele>445.00000000000006</ele><time>2026-05-03T09:33:25.999Z</time></trkpt><trkpt lat="44.383180025103194" lon="7.936504315398218"><ele>445.0</ele><time>2026-05-03T09:33:26.999Z</time></trkpt><trkpt lat="44.383249158961874" lon="7.936412067650242"><ele>443.0</ele><time>2026-05-03T09:33:27.999Z</time></trkpt><trkpt lat="44.383345230499735" lon="7.936331340348695"><ele>441.0</ele><time>2026-05-03T09:33:28.999Z</time></trkpt><trkpt lat="44.3834577029234" lon="7.936265936486068"><ele>439.0</ele><time>2026-05-03T09:33:29.999Z</time></trkpt><trkpt lat="44.38355632630124" lon="7.936199785213615"><ele>437.0</ele><time>2026-05-03T09:33:30.999Z</time></trkpt><trkpt lat="44.383642100630425" lon="7.936135372217647"><ele>435.0</ele><time>2026-05-03T09:33:31.999Z</time></trkpt><trkpt lat="44.38372457705449" lon="7.93606998606402"><ele>435.0</ele><time>2026-05-03T09:33:32.999Z</time></trkpt><trkpt lat="44.383804616756514" lon="7.936007172781473"><ele>435.0</ele><time>2026-05-03T09:33:33.999Z</time></trkpt><trkpt lat="44.38387693562065" lon="7.935941735250483"><ele>435.0</ele><time>2026-05-03T09:33:34.999Z</time></trkpt><trkpt lat="44.38393782056695" lon="7.935889612693212"><ele>435.0</ele><time>2026-05-03T09:33:35.999Z</time></trkpt><trkpt lat="44.38399977261362" lon="7.935785841981427"><ele>435.0</ele><time>2026-05-03T09:33:37.999Z</time></trkpt><trkpt lat="44.38405348827096" lon="7.9356341633183884"><ele>434.25</ele><time>2026-05-03T09:33:39.999Z</time></trkpt><trkpt lat="44.38398256548276" lon="7.935493964809975"><ele>433.5</ele><time>2026-05-03T09:33:40.999Z</time></trkpt><trkpt lat="44.38392571534912" lon="7.935367831767053"><ele>432.75</ele><time>2026-05-03T09:33:41.998Z</time></trkpt><trkpt lat="44.383852126855274" lon="7.93521954634337"><ele>432.0</ele><time>2026-05-03T09:33:42.998Z</time></trkpt><trkpt lat="44.3837986931429" lon="7.935089291898179"><ele>431.40000000000003</ele><time>2026-05-03T09:33:43.998Z</time></trkpt><trkpt lat="44.38374771292501" lon="7.93496330591222"><ele>430.80000000000007</ele><time>2026-05-03T09:33:44.998Z</time></trkpt><trkpt lat="44.38369792903307" lon="7.934847826610363"><ele>430.2</ele><time>2026-05-03T09:33:45.998Z</time></trkpt><trkpt lat="44.38365265933141" lon="7.934736437061192"><ele>429.6</ele><time>2026-05-03T09:33:46.998Z</time></trkpt><trkpt lat="44.3836111814912" lon="7.934631946356261"><ele>429.0</ele><time>2026-05-03T09:33:47.998Z</time></trkpt><trkpt lat="44.383566861718336" lon="7.9345366452798105"><ele>429.0</ele><time>2026-05-03T09:33:48.998Z</time></trkpt><trkpt lat="44.383511471248475" lon="7.934405823295075"><ele>429.0</ele><time>2026-05-03T09:33:50.998Z</time></trkpt><trkpt lat="44.38349652612242" lon="7.934315193008009"><ele>429.0</ele><time>2026-05-03T09:33:55.998Z</time></trkpt><trkpt lat="44.38349137010067" lon="7.934220016279065"><ele>429.0</ele><time>2026-05-03T09:33:58.998Z</time></trkpt><trkpt lat="44.383488077842216" lon="7.9341081380847065"><ele>429.0</ele><time>2026-05-03T09:34:00.998Z</time></trkpt><trkpt lat="44.383457311960555" lon="7.934005954234332"><ele>429.0</ele><time>2026-05-03T09:34:01.998Z</time></trkpt><trkpt lat="44.383393930759375" lon="7.933899428733129"><ele>429.0</ele><time>2026-05-03T09:34:02.998Z</time></trkpt><trkpt lat="44.383306298939864" lon="7.933753951891645"><ele>429.0</ele><time>2026-05-03T09:34:03.998Z</time></trkpt><trkpt lat="44.38323153764333" lon="7.933602906717539"><ele>429.0</ele><time>2026-05-03T09:34:04.998Z</time></trkpt><trkpt lat="44.38314745702104" lon="7.933445380486174"><ele>429.0</ele><time>2026-05-03T09:34:05.998Z</time></trkpt><trkpt lat="44.383075990246304" lon="7.933305067361079"><ele>429.75</ele><time>2026-05-03T09:34:07Z</time></trkpt><trkpt lat="44.38299939205429" lon="7.933158064128436"><ele>430.5</ele><time>2026-05-03T09:34:08Z</time></trkpt><trkpt lat="44.38291592094114" lon="7.932988971688432"><ele>431.25</ele><time>2026-05-03T09:34:09Z</time></trkpt><trkpt lat="44.38282568231226" lon="7.932818047035617"><ele>432.0</ele><time>2026-05-03T09:34:10Z</time></trkpt><trkpt lat="44.38273681689046" lon="7.932645607173937"><ele>430.66666666666663</ele><time>2026-05-03T09:34:11Z</time></trkpt><trkpt lat="44.38265375874479" lon="7.932479910472637"><ele>429.3333333333333</ele><time>2026-05-03T09:34:12Z</time></trkpt><trkpt lat="44.38256759683637" lon="7.932305558346285"><ele>428.0</ele><time>2026-05-03T09:34:13Z</time></trkpt><trkpt lat="44.382474209837795" lon="7.932132870977587"><ele>428.0</ele><time>2026-05-03T09:34:14Z</time></trkpt><trkpt lat="44.382380030138556" lon="7.931952505211973"><ele>428.0</ele><time>2026-05-03T09:34:15Z</time></trkpt><trkpt lat="44.38228744026872" lon="7.931763759347152"><ele>428.0</ele><time>2026-05-03T09:34:16Z</time></trkpt><trkpt lat="44.38218691364482" lon="7.931561613091517"><ele>428.66666666666663</ele><time>2026-05-03T09:34:17Z</time></trkpt><trkpt lat="44.38208415391606" lon="7.931361090112281"><ele>429.33333333333337</ele><time>2026-05-03T09:34:18Z</time></trkpt><trkpt lat="44.38198342806784" lon="7.931156513820646"><ele>430.0</ele><time>2026-05-03T09:34:19Z</time></trkpt><trkpt lat="44.38189099426858" lon="7.930968658301108"><ele>429.6666666666667</ele><time>2026-05-03T09:34:20Z</time></trkpt><trkpt lat="44.38179354347407" lon="7.930783715012504"><ele>429.33333333333337</ele><time>2026-05-03T09:34:21Z</time></trkpt><trkpt lat="44.38168996209192" lon="7.930579759728439"><ele>429.0</ele><time>2026-05-03T09:34:22Z</time></trkpt><trkpt lat="44.38158544921925" lon="7.930379366122343"><ele>429.0</ele><time>2026-05-03T09:34:23Z</time></trkpt><trkpt lat="44.381475930152654" lon="7.9301633418408795"><ele>429.0</ele><time>2026-05-03T09:34:24Z</time></trkpt><trkpt lat="44.381373663570024" lon="7.929957738272665"><ele>429.0</ele><time>2026-05-03T09:34:25Z</time></trkpt><trkpt lat="44.38126819476255" lon="7.929762876526156"><ele>429.33333333333337</ele><time>2026-05-03T09:34:26Z</time></trkpt><trkpt lat="44.3811623723457" lon="7.929555203056786"><ele>429.6666666666667</ele><time>2026-05-03T09:34:27Z</time></trkpt><trkpt lat="44.38105109432761" lon="7.92934147832003"><ele>430.0</ele><time>2026-05-03T09:34:28Z</time></trkpt><trkpt lat="44.38093942593552" lon="7.92913415692737"><ele>430.0</ele><time>2026-05-03T09:34:29Z</time></trkpt><trkpt lat="44.38082477611432" lon="7.928918348729179"><ele>430.0</ele><time>2026-05-03T09:34:30Z</time></trkpt><trkpt lat="44.38072082933408" lon="7.9287130638572"><ele>430.0</ele><time>2026-05-03T09:34:31Z</time></trkpt><trkpt lat="44.38060084700834" lon="7.928504367561974"><ele>431.33333333333337</ele><time>2026-05-03T09:34:32Z</time></trkpt><trkpt lat="44.38048003425286" lon="7.92828536456599"><ele>432.66666666666663</ele><time>2026-05-03T09:34:33Z</time></trkpt><trkpt lat="44.38036664367414" lon="7.928082630381878"><ele>434.0</ele><time>2026-05-03T09:34:34Z</time></trkpt><trkpt lat="44.380243983893415" lon="7.927862375035228"><ele>434.0</ele><time>2026-05-03T09:34:35Z</time></trkpt><trkpt lat="44.38012285264268" lon="7.9276562390057554"><ele>434.0</ele><time>2026-05-03T09:34:36Z</time></trkpt><trkpt lat="44.38000941828809" lon="7.92744617091253"><ele>434.0</ele><time>2026-05-03T09:34:37Z</time></trkpt><trkpt lat="44.379891404379734" lon="7.927240601361874"><ele>434.0</ele><time>2026-05-03T09:34:38Z</time></trkpt><trkpt lat="44.37976367594708" lon="7.927020033387831"><ele>434.0</ele><time>2026-05-03T09:34:39Z</time></trkpt><trkpt lat="44.37963287507439" lon="7.926800899657057"><ele>434.0</ele><time>2026-05-03T09:34:40Z</time></trkpt><trkpt lat="44.379492944210774" lon="7.926569285068412"><ele>433.66666666666663</ele><time>2026-05-03T09:34:41Z</time></trkpt><trkpt lat="44.379365349873005" lon="7.926313001885459"><ele>433.33333333333337</ele><time>2026-05-03T09:34:42Z</time></trkpt><trkpt lat="44.37922668766233" lon="7.926066381765059"><ele>433.0</ele><time>2026-05-03T09:34:43Z</time></trkpt><trkpt lat="44.379087953033405" lon="7.925819633016754"><ele>433.6666666666667</ele><time>2026-05-03T09:34:44Z</time></trkpt><trkpt lat="44.378951802488345" lon="7.925577480123471"><ele>434.33333333333337</ele><time>2026-05-03T09:34:45Z</time></trkpt><trkpt lat="44.378808527997144" lon="7.925333438174384"><ele>435.0</ele><time>2026-05-03T09:34:46Z</time></trkpt><trkpt lat="44.3786675328029" lon="7.925069459096265"><ele>435.0</ele><time>2026-05-03T09:34:47Z</time></trkpt><trkpt lat="44.378520845649824" lon="7.924808311958586"><ele>435.0</ele><time>2026-05-03T09:34:48Z</time></trkpt><trkpt lat="44.37837329826606" lon="7.924553229362411"><ele>435.0</ele><time>2026-05-03T09:34:48.999Z</time></trkpt><trkpt lat="44.37822015547747" lon="7.924284269002966"><ele>435.0</ele><time>2026-05-03T09:34:49.999Z</time></trkpt><trkpt lat="44.378064784664446" lon="7.924012988015042"><ele>436.0</ele><time>2026-05-03T09:34:50.999Z</time></trkpt><trkpt lat="44.377915190905696" lon="7.923752649901892"><ele>437.0</ele><time>2026-05-03T09:34:51.999Z</time></trkpt><trkpt lat="44.377765912442946" lon="7.923483996910044"><ele>436.5</ele><time>2026-05-03T09:34:52.999Z</time></trkpt><trkpt lat="44.37761895250353" lon="7.923218613572947"><ele>436.0</ele><time>2026-05-03T09:34:53.999Z</time></trkpt><trkpt lat="44.37748579983088" lon="7.922972783802447"><ele>436.0</ele><time>2026-05-03T09:34:54.999Z</time></trkpt><trkpt lat="44.377350596081556" lon="7.922735836515461"><ele>436.0</ele><time>2026-05-03T09:34:55.999Z</time></trkpt><trkpt lat="44.37722140223009" lon="7.922512710859079"><ele>436.0</ele><time>2026-05-03T09:34:56.999Z</time></trkpt><trkpt lat="44.37709155202613" lon="7.922291703111138"><ele>436.33333333333337</ele><time>2026-05-03T09:34:57.999Z</time></trkpt><trkpt lat="44.37697393335342" lon="7.9220808142189485"><ele>436.66666666666663</ele><time>2026-05-03T09:34:58.999Z</time></trkpt><trkpt lat="44.376854352898285" lon="7.921881041079952"><ele>437.0</ele><time>2026-05-03T09:34:59.999Z</time></trkpt><trkpt lat="44.37674371831237" lon="7.921681823836844"><ele>437.0</ele><time>2026-05-03T09:35:00.999Z</time></trkpt><trkpt lat="44.37666429962506" lon="7.921462632160059"><ele>437.0</ele><time>2026-05-03T09:35:01.999Z</time></trkpt><trkpt lat="44.37658312361604" lon="7.921259670884894"><ele>437.0</ele><time>2026-05-03T09:35:02.999Z</time></trkpt><trkpt lat="44.376485013019774" lon="7.921091882903893"><ele>437.0</ele><time>2026-05-03T09:35:03.999Z</time></trkpt><trkpt lat="44.376368396543754" lon="7.920912680647804"><ele>437.0</ele><time>2026-05-03T09:35:04.999Z</time></trkpt><trkpt lat="44.376258953871584" lon="7.920736847638367"><ele>437.0</ele><time>2026-05-03T09:35:05.999Z</time></trkpt><trkpt lat="44.37615560742378" lon="7.920564451765875"><ele>436.3333333333333</ele><time>2026-05-03T09:35:06.999Z</time></trkpt><trkpt lat="44.3760444484868" lon="7.920379687739722"><ele>435.66666666666663</ele><time>2026-05-03T09:35:07.999Z</time></trkpt><trkpt lat="44.37593858997285" lon="7.920183312936478"><ele>435.0</ele><time>2026-05-03T09:35:08.999Z</time></trkpt><trkpt lat="44.37582773745696" lon="7.919990272254534"><ele>434.0</ele><time>2026-05-03T09:35:09.999Z</time></trkpt><trkpt lat="44.37571313033598" lon="7.919800767900846"><ele>433.0</ele><time>2026-05-03T09:35:10.999Z</time></trkpt><trkpt lat="44.37561225464323" lon="7.9196187564882425"><ele>432.0</ele><time>2026-05-03T09:35:11.999Z</time></trkpt><trkpt lat="44.37552148386396" lon="7.919449402670556"><ele>432.33333333333337</ele><time>2026-05-03T09:35:12.999Z</time></trkpt><trkpt lat="44.375453192940505" lon="7.919277633717617"><ele>432.6666666666667</ele><time>2026-05-03T09:35:13.999Z</time></trkpt><trkpt lat="44.37534870434185" lon="7.919108321779264"><ele>433.0</ele><time>2026-05-03T09:35:14.999Z</time></trkpt><trkpt lat="44.37524486783252" lon="7.918926305999286"><ele>433.0</ele><time>2026-05-03T09:35:15.999Z</time></trkpt><trkpt lat="44.37513706535718" lon="7.918749181017742"><ele>433.0</ele><time>2026-05-03T09:35:16.999Z</time></trkpt><trkpt lat="44.37504012035319" lon="7.918568135061307"><ele>433.0</ele><time>2026-05-03T09:35:17.999Z</time></trkpt><trkpt lat="44.37496130772477" lon="7.918400735032638"><ele>429.6666666666667</ele><time>2026-05-03T09:35:18.999Z</time></trkpt><trkpt lat="44.374867873919705" lon="7.918227933226999"><ele>426.33333333333337</ele><time>2026-05-03T09:35:19.999Z</time></trkpt><trkpt lat="44.37479328824863" lon="7.918041791765866"><ele>423.0</ele><time>2026-05-03T09:35:20.999Z</time></trkpt><trkpt lat="44.37470685339154" lon="7.9178699899350775"><ele>427.33333333333337</ele><time>2026-05-03T09:35:21.999Z</time></trkpt><trkpt lat="44.37462419501913" lon="7.917684999429323"><ele>431.6666666666667</ele><time>2026-05-03T09:35:22.999Z</time></trkpt><trkpt lat="44.37455071441614" lon="7.917490048366901"><ele>436.0</ele><time>2026-05-03T09:35:23.999Z</time></trkpt><trkpt lat="44.374464417337855" lon="7.917294165897776"><ele>436.0</ele><time>2026-05-03T09:35:24.999Z</time></trkpt><trkpt lat="44.374381234424675" lon="7.917107002314121"><ele>436.0</ele><time>2026-05-03T09:35:25.999Z</time></trkpt><trkpt lat="44.37430795361719" lon="7.91694933865858"><ele>436.0</ele><time>2026-05-03T09:35:26.999Z</time></trkpt><trkpt lat="44.37423740418576" lon="7.916771495315767"><ele>436.0</ele><time>2026-05-03T09:35:27.999Z</time></trkpt><trkpt lat="44.37415996976272" lon="7.916582110561645"><ele>434.0</ele><time>2026-05-03T09:35:28.999Z</time></trkpt><trkpt lat="44.374098285043885" lon="7.916373188929775"><ele>432.0</ele><time>2026-05-03T09:35:29.999Z</time></trkpt><trkpt lat="44.374042589596506" lon="7.916169191261923"><ele>430.0</ele><time>2026-05-03T09:35:30.999Z</time></trkpt><trkpt lat="44.37398651217314" lon="7.9159571269630336"><ele>431.0</ele><time>2026-05-03T09:35:31.999Z</time></trkpt><trkpt lat="44.37393428390883" lon="7.915742416878588"><ele>432.0</ele><time>2026-05-03T09:35:32.999Z</time></trkpt><trkpt lat="44.37389077232751" lon="7.915520327589162"><ele>433.0</ele><time>2026-05-03T09:35:33.999Z</time></trkpt><trkpt lat="44.37384115495202" lon="7.915311478329762"><ele>433.0</ele><time>2026-05-03T09:35:34.999Z</time></trkpt><trkpt lat="44.373795339753855" lon="7.915091448344734"><ele>433.0</ele><time>2026-05-03T09:35:35.999Z</time></trkpt><trkpt lat="44.37374592028772" lon="7.914877691033907"><ele>433.0</ele><time>2026-05-03T09:35:36.999Z</time></trkpt><trkpt lat="44.37369553056519" lon="7.9146637088847305"><ele>432.33333333333337</ele><time>2026-05-03T09:35:37.999Z</time></trkpt><trkpt lat="44.37365119671126" lon="7.914448827816489"><ele>431.66666666666663</ele><time>2026-05-03T09:35:38.999Z</time></trkpt><trkpt lat="44.37360584928755" lon="7.914236818162026"><ele>431.0</ele><time>2026-05-03T09:35:39.999Z</time></trkpt><trkpt lat="44.37356098606198" lon="7.9140277976535875"><ele>430.0</ele><time>2026-05-03T09:35:40.999Z</time></trkpt><trkpt lat="44.373512684420184" lon="7.913812083381001"><ele>429.0</ele><time>2026-05-03T09:35:41.999Z</time></trkpt><trkpt lat="44.37346170403623" lon="7.913594636498411"><ele>428.0</ele><time>2026-05-03T09:35:42.999Z</time></trkpt><trkpt lat="44.373418376796316" lon="7.913380968367345"><ele>426.66666666666663</ele><time>2026-05-03T09:35:43.999Z</time></trkpt><trkpt lat="44.37336788351346" lon="7.913172220311807"><ele>425.33333333333337</ele><time>2026-05-03T09:35:44.999Z</time></trkpt><trkpt lat="44.373320692871445" lon="7.912955750485544"><ele>424.0</ele><time>2026-05-03T09:35:45.999Z</time></trkpt><trkpt lat="44.37327421397349" lon="7.912746169970493"><ele>423.33333333333337</ele><time>2026-05-03T09:35:46.998Z</time></trkpt><trkpt lat="44.37322691673968" lon="7.912533703858959"><ele>422.66666666666663</ele><time>2026-05-03T09:35:47.998Z</time></trkpt><trkpt lat="44.3731773422266" lon="7.912315447255815"><ele>422.0</ele><time>2026-05-03T09:35:48.998Z</time></trkpt><trkpt lat="44.37312702763957" lon="7.912094199198137"><ele>422.0</ele><time>2026-05-03T09:35:49.998Z</time></trkpt><trkpt lat="44.373076964233114" lon="7.911875761614474"><ele>422.0</ele><time>2026-05-03T09:35:50.998Z</time></trkpt><trkpt lat="44.37303431424311" lon="7.911655173075186"><ele>422.0</ele><time>2026-05-03T09:35:51.998Z</time></trkpt><trkpt lat="44.37298448920532" lon="7.9114345669125985"><ele>421.66666666666663</ele><time>2026-05-03T09:35:52.998Z</time></trkpt><trkpt lat="44.37293769294419" lon="7.9112146615238705"><ele>421.33333333333337</ele><time>2026-05-03T09:35:53.998Z</time></trkpt><trkpt lat="44.372887246969576" lon="7.910993570884331"><ele>421.0</ele><time>2026-05-03T09:35:54.998Z</time></trkpt><trkpt lat="44.37284366004487" lon="7.9107729767185955"><ele>420.33333333333337</ele><time>2026-05-03T09:35:55.998Z</time></trkpt><trkpt lat="44.372795880651935" lon="7.9105450309694785"><ele>419.66666666666663</ele><time>2026-05-03T09:35:56.998Z</time></trkpt><trkpt lat="44.372745564957405" lon="7.910317146468999"><ele>419.0</ele><time>2026-05-03T09:35:57.998Z</time></trkpt><trkpt lat="44.372690304734064" lon="7.910085765026058"><ele>419.3333333333333</ele><time>2026-05-03T09:35:58.998Z</time></trkpt><trkpt lat="44.372638480321285" lon="7.90984661073045"><ele>419.66666666666663</ele><time>2026-05-03T09:35:59.998Z</time></trkpt><trkpt lat="44.372574937279715" lon="7.909603606611617"><ele>420.0</ele><time>2026-05-03T09:36:00.998Z</time></trkpt><trkpt lat="44.37252207283162" lon="7.909357575259191"><ele>421.33333333333337</ele><time>2026-05-03T09:36:01.998Z</time></trkpt><trkpt lat="44.372465372833844" lon="7.909103522760471"><ele>422.6666666666667</ele><time>2026-05-03T09:36:02.998Z</time></trkpt><trkpt lat="44.372416472965526" lon="7.9088480025585595"><ele>424.0</ele><time>2026-05-03T09:36:03.998Z</time></trkpt><trkpt lat="44.37235895558761" lon="7.908582969404076"><ele>426.33333333333337</ele><time>2026-05-03T09:36:04.998Z</time></trkpt><trkpt lat="44.37229740473592" lon="7.9083088041390175"><ele>428.66666666666663</ele><time>2026-05-03T09:36:05.998Z</time></trkpt><trkpt lat="44.37223876936754" lon="7.90803311294954"><ele>431.0</ele><time>2026-05-03T09:36:06.998Z</time></trkpt><trkpt lat="44.37217348155559" lon="7.907750040662223"><ele>432.0</ele><time>2026-05-03T09:36:07.998Z</time></trkpt><trkpt lat="44.372129466461786" lon="7.907499624181638"><ele>433.0</ele><time>2026-05-03T09:36:08.998Z</time></trkpt><trkpt lat="44.37208584862705" lon="7.907258413986705"><ele>434.0</ele><time>2026-05-03T09:36:09.998Z</time></trkpt><trkpt lat="44.37205308848169" lon="7.907035248891485"><ele>434.0</ele><time>2026-05-03T09:36:10.998Z</time></trkpt><trkpt lat="44.3720320099943" lon="7.90679116170828"><ele>434.0</ele><time>2026-05-03T09:36:11.998Z</time></trkpt><trkpt lat="44.3720335539225" lon="7.906587646616409"><ele>434.0</ele><time>2026-05-03T09:36:13Z</time></trkpt><trkpt lat="44.372046855481194" lon="7.9063830196504075"><ele>434.66666666666663</ele><time>2026-05-03T09:36:14Z</time></trkpt><trkpt lat="44.37206391471772" lon="7.906157281049307"><ele>435.33333333333337</ele><time>2026-05-03T09:36:15Z</time></trkpt><trkpt lat="44.37209940997224" lon="7.905923233160042"><ele>436.0</ele><time>2026-05-03T09:36:16Z</time></trkpt><trkpt lat="44.37215999787233" lon="7.905692110991424"><ele>437.6666666666667</ele><time>2026-05-03T09:36:17Z</time></trkpt><trkpt lat="44.37222853103059" lon="7.9054688679603755"><ele>439.33333333333337</ele><time>2026-05-03T09:36:18Z</time></trkpt><trkpt lat="44.372302468313435" lon="7.905240270223031"><ele>441.0</ele><time>2026-05-03T09:36:19Z</time></trkpt><trkpt lat="44.37239764556966" lon="7.9050111287993285"><ele>441.33333333333337</ele><time>2026-05-03T09:36:20Z</time></trkpt><trkpt lat="44.37247357386354" lon="7.904792979781246"><ele>441.6666666666667</ele><time>2026-05-03T09:36:21Z</time></trkpt><trkpt lat="44.37253830545334" lon="7.904556944218765"><ele>442.0</ele><time>2026-05-03T09:36:22Z</time></trkpt><trkpt lat="44.372622480153844" lon="7.904315026987336"><ele>442.0</ele><time>2026-05-03T09:36:23Z</time></trkpt><trkpt lat="44.37270864665273" lon="7.904069662922119"><ele>442.0</ele><time>2026-05-03T09:36:24Z</time></trkpt><trkpt lat="44.37278650127661" lon="7.903825587526558"><ele>442.0</ele><time>2026-05-03T09:36:25Z</time></trkpt><trkpt lat="44.372855813153805" lon="7.903574993475675"><ele>441.6666666666667</ele><time>2026-05-03T09:36:26Z</time></trkpt><trkpt lat="44.37291347124978" lon="7.903318877287084"><ele>441.33333333333337</ele><time>2026-05-03T09:36:27Z</time></trkpt><trkpt lat="44.372958185129015" lon="7.903077164130728"><ele>441.0</ele><time>2026-05-03T09:36:28Z</time></trkpt><trkpt lat="44.37299270755058" lon="7.9028419550141145"><ele>441.0</ele><time>2026-05-03T09:36:29Z</time></trkpt><trkpt lat="44.37301185600315" lon="7.902608433858946"><ele>441.0</ele><time>2026-05-03T09:36:30Z</time></trkpt><trkpt lat="44.37297448189762" lon="7.902413734226018"><ele>441.0</ele><time>2026-05-03T09:36:31Z</time></trkpt><trkpt lat="44.372973314589466" lon="7.902232479719931"><ele>441.0</ele><time>2026-05-03T09:36:32Z</time></trkpt><trkpt lat="44.372963788517566" lon="7.902071495131384"><ele>441.3333333333333</ele><time>2026-05-03T09:36:33Z</time></trkpt><trkpt lat="44.37294144711906" lon="7.901940357618985"><ele>441.66666666666663</ele><time>2026-05-03T09:36:34Z</time></trkpt><trkpt lat="44.37292874271103" lon="7.901840977581161"><ele>442.0</ele><time>2026-05-03T09:36:35Z</time></trkpt><trkpt lat="44.37293015529245" lon="7.9017367946179915"><ele>442.3333333333333</ele><time>2026-05-03T09:36:36Z</time></trkpt><trkpt lat="44.3729343783125" lon="7.901608636037062"><ele>442.66666666666663</ele><time>2026-05-03T09:36:37Z</time></trkpt><trkpt lat="44.372958416497774" lon="7.901487764503082"><ele>443.0</ele><time>2026-05-03T09:36:38Z</time></trkpt><trkpt lat="44.37297735129733" lon="7.901345578901482"><ele>443.75</ele><time>2026-05-03T09:36:39Z</time></trkpt><trkpt lat="44.373006258722825" lon="7.901175245421345"><ele>444.5</ele><time>2026-05-03T09:36:40Z</time></trkpt><trkpt lat="44.373034771971454" lon="7.900999226058908"><ele>445.25</ele><time>2026-05-03T09:36:41Z</time></trkpt><trkpt lat="44.373065296407454" lon="7.900814083067461"><ele>446.0</ele><time>2026-05-03T09:36:42Z</time></trkpt><trkpt lat="44.37309994616032" lon="7.900620620052137"><ele>449.5</ele><time>2026-05-03T09:36:43Z</time></trkpt><trkpt lat="44.373152544166736" lon="7.9004273258662945"><ele>453.0</ele><time>2026-05-03T09:36:44Z</time></trkpt><trkpt lat="44.37320381322263" lon="7.900260907959105"><ele>456.5</ele><time>2026-05-03T09:36:45Z</time></trkpt><trkpt lat="44.373254074623006" lon="7.900092171555614"><ele>460.0</ele><time>2026-05-03T09:36:46Z</time></trkpt><trkpt lat="44.37331531541639" lon="7.899912736972583"><ele>460.0</ele><time>2026-05-03T09:36:47Z</time></trkpt><trkpt lat="44.37338222815459" lon="7.899710407261349"><ele>460.0</ele><time>2026-05-03T09:36:48Z</time></trkpt><trkpt lat="44.37344858048605" lon="7.899519701713461"><ele>460.0</ele><time>2026-05-03T09:36:49Z</time></trkpt><trkpt lat="44.37352367524694" lon="7.8993189344684795"><ele>458.0</ele><time>2026-05-03T09:36:50Z</time></trkpt><trkpt lat="44.37359377911407" lon="7.89911614015608"><ele>456.0</ele><time>2026-05-03T09:36:51Z</time></trkpt><trkpt lat="44.37367348178742" lon="7.898892144520879"><ele>454.0</ele><time>2026-05-03T09:36:52Z</time></trkpt><trkpt lat="44.373751270644284" lon="7.898668080735615"><ele>454.0</ele><time>2026-05-03T09:36:53Z</time></trkpt><trkpt lat="44.37383127077397" lon="7.898459140257975"><ele>454.0</ele><time>2026-05-03T09:36:54Z</time></trkpt><trkpt lat="44.373912013059126" lon="7.8982281421019245"><ele>454.0</ele><time>2026-05-03T09:36:55Z</time></trkpt><trkpt lat="44.37397801752302" lon="7.898032542899849"><ele>457.6666666666667</ele><time>2026-05-03T09:36:55.999Z</time></trkpt><trkpt lat="44.37404577127339" lon="7.8978476472224886"><ele>461.33333333333337</ele><time>2026-05-03T09:36:56.999Z</time></trkpt><trkpt lat="44.37411821644652" lon="7.897651433291723"><ele>465.0</ele><time>2026-05-03T09:36:57.999Z</time></trkpt><trkpt lat="44.374184729561144" lon="7.897460216196486"><ele>465.0</ele><time>2026-05-03T09:36:58.999Z</time></trkpt><trkpt lat="44.37425374511637" lon="7.897298474597336"><ele>465.0</ele><time>2026-05-03T09:36:59.999Z</time></trkpt><trkpt lat="44.374317390087604" lon="7.8971156265343705"><ele>465.0</ele><time>2026-05-03T09:37:00.999Z</time></trkpt><trkpt lat="44.3743818227762" lon="7.896910892656969"><ele>465.0</ele><time>2026-05-03T09:37:01.999Z</time></trkpt><trkpt lat="44.37445191007596" lon="7.896740391940481"><ele>464.25</ele><time>2026-05-03T09:37:02.999Z</time></trkpt><trkpt lat="44.37451551591117" lon="7.89656807927414"><ele>463.5</ele><time>2026-05-03T09:37:03.999Z</time></trkpt><trkpt lat="44.37457533161455" lon="7.896393331245404"><ele>462.75</ele><time>2026-05-03T09:37:04.999Z</time></trkpt><trkpt lat="44.37463971930574" lon="7.896211070868375"><ele>462.0</ele><time>2026-05-03T09:37:05.999Z</time></trkpt><trkpt lat="44.374719879070746" lon="7.896016805626252"><ele>464.66666666666663</ele><time>2026-05-03T09:37:06.999Z</time></trkpt><trkpt lat="44.374787002794406" lon="7.895813647606688"><ele>467.3333333333333</ele><time>2026-05-03T09:37:07.999Z</time></trkpt><trkpt lat="44.37485890991399" lon="7.895627980716673"><ele>470.0</ele><time>2026-05-03T09:37:08.999Z</time></trkpt><trkpt lat="44.374938519995624" lon="7.895453406443512"><ele>470.0</ele><time>2026-05-03T09:37:09.999Z</time></trkpt><trkpt lat="44.37500659493134" lon="7.895264950267412"><ele>470.0</ele><time>2026-05-03T09:37:10.999Z</time></trkpt><trkpt lat="44.37506801024799" lon="7.895080192763673"><ele>470.0</ele><time>2026-05-03T09:37:11.999Z</time></trkpt><trkpt lat="44.37513416205106" lon="7.894919970207792"><ele>470.0</ele><time>2026-05-03T09:37:12.999Z</time></trkpt><trkpt lat="44.37518921193148" lon="7.894757151046076"><ele>469.3333333333333</ele><time>2026-05-03T09:37:13.999Z</time></trkpt><trkpt lat="44.375243292710145" lon="7.894571271149817"><ele>468.66666666666663</ele><time>2026-05-03T09:37:14.999Z</time></trkpt><trkpt lat="44.37528625254743" lon="7.894370128736411"><ele>468.0</ele><time>2026-05-03T09:37:15.999Z</time></trkpt><trkpt lat="44.37529693318488" lon="7.894148197688918"><ele>467.5</ele><time>2026-05-03T09:37:16.999Z</time></trkpt><trkpt lat="44.375278769815516" lon="7.89394487449063"><ele>467.0</ele><time>2026-05-03T09:37:17.999Z</time></trkpt><trkpt lat="44.37525327536059" lon="7.893757813493583"><ele>466.5</ele><time>2026-05-03T09:37:18.999Z</time></trkpt><trkpt lat="44.37519764596176" lon="7.893569020120465"><ele>466.0</ele><time>2026-05-03T09:37:19.999Z</time></trkpt><trkpt lat="44.37511485241458" lon="7.893380363966966"><ele>466.0</ele><time>2026-05-03T09:37:20.999Z</time></trkpt><trkpt lat="44.37501651532901" lon="7.8932081228293285"><ele>466.0</ele><time>2026-05-03T09:37:21.999Z</time></trkpt><trkpt lat="44.37489303133812" lon="7.893042187281794"><ele>466.0</ele><time>2026-05-03T09:37:22.999Z</time></trkpt><trkpt lat="44.37479441461335" lon="7.892897456234081"><ele>465.33333333333337</ele><time>2026-05-03T09:37:23.999Z</time></trkpt><trkpt lat="44.37468693905089" lon="7.892743644319963"><ele>464.66666666666663</ele><time>2026-05-03T09:37:24.999Z</time></trkpt><trkpt lat="44.3745808502734" lon="7.8925871665780205"><ele>464.0</ele><time>2026-05-03T09:37:25.999Z</time></trkpt><trkpt lat="44.37446133323595" lon="7.8924188746626935"><ele>464.0</ele><time>2026-05-03T09:37:26.999Z</time></trkpt><trkpt lat="44.37433619545746" lon="7.892245420182836"><ele>464.0</ele><time>2026-05-03T09:37:27.999Z</time></trkpt><trkpt lat="44.374227933643645" lon="7.892076195537816"><ele>464.0</ele><time>2026-05-03T09:37:28.999Z</time></trkpt><trkpt lat="44.37411536351414" lon="7.891899080236821"><ele>464.66666666666663</ele><time>2026-05-03T09:37:29.999Z</time></trkpt><trkpt lat="44.374008890617006" lon="7.891742098815705"><ele>465.33333333333337</ele><time>2026-05-03T09:37:30.999Z</time></trkpt><trkpt lat="44.37389512005305" lon="7.89157799054888"><ele>466.0</ele><time>2026-05-03T09:37:31.999Z</time></trkpt><trkpt lat="44.37378323393324" lon="7.891415093267676"><ele>466.5</ele><time>2026-05-03T09:37:32.999Z</time></trkpt><trkpt lat="44.37368645211924" lon="7.891269147843583"><ele>467.0</ele><time>2026-05-03T09:37:33.999Z</time></trkpt><trkpt lat="44.37357654449592" lon="7.891112458876218"><ele>467.5</ele><time>2026-05-03T09:37:34.999Z</time></trkpt><trkpt lat="44.37348118687078" lon="7.8909682842278155"><ele>468.0</ele><time>2026-05-03T09:37:35.999Z</time></trkpt><trkpt lat="44.373386172772626" lon="7.890824988967992"><ele>468.25</ele><time>2026-05-03T09:37:36.999Z</time></trkpt><trkpt lat="44.373295619883606" lon="7.890692516167809"><ele>468.5</ele><time>2026-05-03T09:37:37.999Z</time></trkpt><trkpt lat="44.37321556649887" lon="7.890571960657225"><ele>468.75</ele><time>2026-05-03T09:37:38.999Z</time></trkpt><trkpt lat="44.37313506311262" lon="7.890465965890408"><ele>469.0</ele><time>2026-05-03T09:37:39.999Z</time></trkpt><trkpt lat="44.373060215061926" lon="7.890373466182967"><ele>469.0</ele><time>2026-05-03T09:37:40.999Z</time></trkpt><trkpt lat="44.37294752704209" lon="7.890252351947309"><ele>469.0</ele><time>2026-05-03T09:37:41.999Z</time></trkpt><trkpt lat="44.372858721285816" lon="7.890132938568056"><ele>469.0</ele><time>2026-05-03T09:37:42.999Z</time></trkpt><trkpt lat="44.3727668164387" lon="7.890008789272604"><ele>469.0</ele><time>2026-05-03T09:37:43.999Z</time></trkpt><trkpt lat="44.37267573212237" lon="7.889906932138741"><ele>470.25</ele><time>2026-05-03T09:37:44.999Z</time></trkpt><trkpt lat="44.37257339280117" lon="7.889772354565849"><ele>471.5</ele><time>2026-05-03T09:37:45.999Z</time></trkpt><trkpt lat="44.37252055727539" lon="7.889630718628817"><ele>472.75</ele><time>2026-05-03T09:37:46.999Z</time></trkpt><trkpt lat="44.372475254173" lon="7.889441240447112"><ele>474.0</ele><time>2026-05-03T09:37:47.999Z</time></trkpt><trkpt lat="44.37242805481148" lon="7.889275712818933"><ele>475.0</ele><time>2026-05-03T09:37:48.999Z</time></trkpt><trkpt lat="44.372375464478004" lon="7.889099453621788"><ele>476.0</ele><time>2026-05-03T09:37:49.999Z</time></trkpt><trkpt lat="44.37232338297978" lon="7.888927148511472"><ele>477.0</ele><time>2026-05-03T09:37:50.999Z</time></trkpt><trkpt lat="44.37226243005557" lon="7.888747495789482"><ele>478.0</ele><time>2026-05-03T09:37:51.999Z</time></trkpt><trkpt lat="44.372197638024005" lon="7.888542887306038"><ele>477.0</ele><time>2026-05-03T09:37:52.999Z</time></trkpt><trkpt lat="44.37213246984115" lon="7.888325148126581"><ele>476.0</ele><time>2026-05-03T09:37:53.998Z</time></trkpt><trkpt lat="44.37206979463627" lon="7.888119581458931"><ele>475.0</ele><time>2026-05-03T09:37:54.998Z</time></trkpt><trkpt lat="44.37200380751376" lon="7.887897158519034"><ele>475.0</ele><time>2026-05-03T09:37:55.998Z</time></trkpt><trkpt lat="44.37193179747579" lon="7.887663301020444"><ele>475.0</ele><time>2026-05-03T09:37:56.998Z</time></trkpt><trkpt lat="44.37187342333643" lon="7.8874621330446395"><ele>475.0</ele><time>2026-05-03T09:37:57.998Z</time></trkpt><trkpt lat="44.371794049735264" lon="7.887238386231097"><ele>476.33333333333337</ele><time>2026-05-03T09:37:58.998Z</time></trkpt><trkpt lat="44.37171283944537" lon="7.8870254670886135"><ele>477.66666666666663</ele><time>2026-05-03T09:37:59.998Z</time></trkpt><trkpt lat="44.371610966530056" lon="7.886816323248196"><ele>479.0</ele><time>2026-05-03T09:38:00.998Z</time></trkpt><trkpt lat="44.3714932603711" lon="7.886624452408037"><ele>478.3333333333333</ele><time>2026-05-03T09:38:01.998Z</time></trkpt><trkpt lat="44.3713455608166" lon="7.886449188907965"><ele>477.66666666666663</ele><time>2026-05-03T09:38:02.998Z</time></trkpt><trkpt lat="44.37117504901383" lon="7.886298028554857"><ele>477.0</ele><time>2026-05-03T09:38:03.998Z</time></trkpt><trkpt lat="44.37100135560671" lon="7.886154229498801"><ele>477.0</ele><time>2026-05-03T09:38:04.998Z</time></trkpt><trkpt lat="44.3708303812337" lon="7.886000715952464"><ele>477.0</ele><time>2026-05-03T09:38:05.998Z</time></trkpt><trkpt lat="44.3706645948526" lon="7.885832276440544"><ele>477.0</ele><time>2026-05-03T09:38:06.998Z</time></trkpt><trkpt lat="44.37050363041406" lon="7.885674336847253"><ele>480.0</ele><time>2026-05-03T09:38:07.998Z</time></trkpt><trkpt lat="44.37033467499756" lon="7.885519777569442"><ele>483.0</ele><time>2026-05-03T09:38:08.998Z</time></trkpt><trkpt lat="44.37016772285416" lon="7.8853647379693905"><ele>486.0</ele><time>2026-05-03T09:38:09.998Z</time></trkpt><trkpt lat="44.37000422107442" lon="7.885207447410024"><ele>488.0</ele><time>2026-05-03T09:38:10.998Z</time></trkpt><trkpt lat="44.369833282872285" lon="7.88504791730751"><ele>490.0</ele><time>2026-05-03T09:38:11.998Z</time></trkpt><trkpt lat="44.36968585977594" lon="7.884898033373615"><ele>492.0</ele><time>2026-05-03T09:38:12.998Z</time></trkpt><trkpt lat="44.3695383631569" lon="7.88474563748258"><ele>492.0</ele><time>2026-05-03T09:38:13.998Z</time></trkpt><trkpt lat="44.36940044294739" lon="7.884566036398434"><ele>492.0</ele><time>2026-05-03T09:38:14.998Z</time></trkpt><trkpt lat="44.369257284424826" lon="7.884374082673874"><ele>492.0</ele><time>2026-05-03T09:38:15.998Z</time></trkpt><trkpt lat="44.36912560162725" lon="7.88418547688333"><ele>494.0</ele><time>2026-05-03T09:38:16.998Z</time></trkpt><trkpt lat="44.368978684570024" lon="7.883993616852394"><ele>496.0</ele><time>2026-05-03T09:38:17.998Z</time></trkpt><trkpt lat="44.368863510813455" lon="7.883818552338902"><ele>498.0</ele><time>2026-05-03T09:38:19Z</time></trkpt><trkpt lat="44.36875017638099" lon="7.883654290964626"><ele>498.0</ele><time>2026-05-03T09:38:20Z</time></trkpt><trkpt lat="44.36864530734016" lon="7.88348526062034"><ele>498.0</ele><time>2026-05-03T09:38:21Z</time></trkpt><trkpt lat="44.36854780832045" lon="7.883303189912331"><ele>498.0</ele><time>2026-05-03T09:38:22Z</time></trkpt><trkpt lat="44.36845768311834" lon="7.883098460715164"><ele>499.0</ele><time>2026-05-03T09:38:23Z</time></trkpt><trkpt lat="44.368385731890186" lon="7.882871300857419"><ele>500.0</ele><time>2026-05-03T09:38:24Z</time></trkpt><trkpt lat="44.3683049307671" lon="7.882639209781078"><ele>501.0</ele><time>2026-05-03T09:38:25Z</time></trkpt><trkpt lat="44.36823012420038" lon="7.8824086757591205"><ele>503.25</ele><time>2026-05-03T09:38:26Z</time></trkpt><trkpt lat="44.36817131930139" lon="7.882214004316305"><ele>505.5</ele><time>2026-05-03T09:38:27Z</time></trkpt><trkpt lat="44.36812372182481" lon="7.882032485613262"><ele>507.75</ele><time>2026-05-03T09:38:28Z</time></trkpt><trkpt lat="44.368079219673675" lon="7.881851792212894"><ele>510.0</ele><time>2026-05-03T09:38:29Z</time></trkpt><trkpt lat="44.368058921993736" lon="7.881667974558156"><ele>512.0</ele><time>2026-05-03T09:38:30Z</time></trkpt><trkpt lat="44.368058921690626" lon="7.881474928830793"><ele>514.0</ele><time>2026-05-03T09:38:31Z</time></trkpt><trkpt lat="44.36807687742393" lon="7.881292617845962"><ele>516.0</ele><time>2026-05-03T09:38:32Z</time></trkpt><trkpt lat="44.368136920978934" lon="7.881120862096248"><ele>518.0</ele><time>2026-05-03T09:38:33Z</time></trkpt><trkpt lat="44.36821879119213" lon="7.8809626429204425"><ele>517.75</ele><time>2026-05-03T09:38:34Z</time></trkpt><trkpt lat="44.36832679403092" lon="7.8808299435033105"><ele>517.5</ele><time>2026-05-03T09:38:35Z</time></trkpt><trkpt lat="44.3684350568849" lon="7.8806828946910965"><ele>517.25</ele><time>2026-05-03T09:38:36Z</time></trkpt><trkpt lat="44.3685331356898" lon="7.880528985842892"><ele>517.0</ele><time>2026-05-03T09:38:37Z</time></trkpt><trkpt lat="44.368637116292646" lon="7.880366326815735"><ele>517.0</ele><time>2026-05-03T09:38:38Z</time></trkpt><trkpt lat="44.36874235153886" lon="7.880195136602452"><ele>517.0</ele><time>2026-05-03T09:38:39Z</time></trkpt><trkpt lat="44.368846084937935" lon="7.880039799321067"><ele>517.0</ele><time>2026-05-03T09:38:40Z</time></trkpt><trkpt lat="44.36893516241175" lon="7.879902546498191"><ele>517.0</ele><time>2026-05-03T09:38:41Z</time></trkpt><trkpt lat="44.369011421674124" lon="7.879776626716145"><ele>518.0</ele><time>2026-05-03T09:38:42Z</time></trkpt><trkpt lat="44.36907966797833" lon="7.879639838735364"><ele>519.0</ele><time>2026-05-03T09:38:43Z</time></trkpt><trkpt lat="44.36914619325092" lon="7.879488352691008"><ele>520.0</ele><time>2026-05-03T09:38:44Z</time></trkpt><trkpt lat="44.369187142899364" lon="7.879329005443425"><ele>521.0</ele><time>2026-05-03T09:38:45Z</time></trkpt><trkpt lat="44.36920026847557" lon="7.879138169865466"><ele>521.0</ele><time>2026-05-03T09:38:46Z</time></trkpt><trkpt lat="44.36918669326196" lon="7.878958648159244"><ele>521.0</ele><time>2026-05-03T09:38:47Z</time></trkpt><trkpt lat="44.369129025784574" lon="7.8787704605636675"><ele>521.0</ele><time>2026-05-03T09:38:48Z</time></trkpt><trkpt lat="44.36904894041999" lon="7.878574238366479"><ele>521.0</ele><time>2026-05-03T09:38:49Z</time></trkpt><trkpt lat="44.36898605262082" lon="7.878386952352376"><ele>521.25</ele><time>2026-05-03T09:38:50Z</time></trkpt><trkpt lat="44.36892101676566" lon="7.878216186351697"><ele>521.5</ele><time>2026-05-03T09:38:51Z</time></trkpt><trkpt lat="44.36886621432688" lon="7.878054385982445"><ele>521.75</ele><time>2026-05-03T09:38:52Z</time></trkpt><trkpt lat="44.36880802750585" lon="7.87788535122961"><ele>522.0</ele><time>2026-05-03T09:38:53Z</time></trkpt><trkpt lat="44.36875268966555" lon="7.877722565773734"><ele>523.0</ele><time>2026-05-03T09:38:54Z</time></trkpt><trkpt lat="44.368698414366925" lon="7.877567234235986"><ele>524.0</ele><time>2026-05-03T09:38:55Z</time></trkpt><trkpt lat="44.36865210184877" lon="7.877427210140304"><ele>525.0</ele><time>2026-05-03T09:38:56Z</time></trkpt><trkpt lat="44.36860558373804" lon="7.87729241281157"><ele>526.0</ele><time>2026-05-03T09:38:57Z</time></trkpt><trkpt lat="44.36856183239313" lon="7.877177005091949"><ele>527.0</ele><time>2026-05-03T09:38:58Z</time></trkpt><trkpt lat="44.368525016223465" lon="7.877069286938111"><ele>527.0</ele><time>2026-05-03T09:38:59Z</time></trkpt><trkpt lat="44.36848279358223" lon="7.876942178400155"><ele>527.0</ele><time>2026-05-03T09:39:00Z</time></trkpt><trkpt lat="44.36843701971196" lon="7.876812712006078"><ele>527.0</ele><time>2026-05-03T09:39:01Z</time></trkpt><trkpt lat="44.36839511427621" lon="7.876685995268273"><ele>527.0</ele><time>2026-05-03T09:39:01.999Z</time></trkpt><trkpt lat="44.368358637147" lon="7.876561978629446"><ele>527.0</ele><time>2026-05-03T09:39:02.999Z</time></trkpt><trkpt lat="44.36831480634174" lon="7.876433087661009"><ele>529.1666666666666</ele><time>2026-05-03T09:39:03.999Z</time></trkpt><trkpt lat="44.368272543773855" lon="7.876312814818643"><ele>531.3333333333333</ele><time>2026-05-03T09:39:04.999Z</time></trkpt><trkpt lat="44.36823131595114" lon="7.876195135785259"><ele>533.5</ele><time>2026-05-03T09:39:05.999Z</time></trkpt><trkpt lat="44.36819496763754" lon="7.8760971166880225"><ele>535.6666666666666</ele><time>2026-05-03T09:39:06.999Z</time></trkpt><trkpt lat="44.368159582166484" lon="7.876003004423351"><ele>537.8333333333334</ele><time>2026-05-03T09:39:08.015Z</time></trkpt><trkpt lat="44.368122240533836" lon="7.875894447724876"><ele>540.0</ele><time>2026-05-03T09:39:09.014Z</time></trkpt><trkpt lat="44.36803175641482" lon="7.875656434645788"><ele>542.5</ele><time>2026-05-03T09:39:11.015Z</time></trkpt><trkpt lat="44.367989902587155" lon="7.875547742449196"><ele>545.0</ele><time>2026-05-03T09:39:12.015Z</time></trkpt><trkpt lat="44.36756755229492" lon="7.8738308418615475"><ele>545.0</ele><time>2026-05-03T09:39:20.999Z</time></trkpt><trkpt lat="44.367527646552674" lon="7.873665851210973"><ele>545.0</ele><time>2026-05-03T09:39:21.999Z</time></trkpt><trkpt lat="44.36742240268212" lon="7.87376807147532"><ele>545.0</ele><time>2026-05-03T09:39:22.999Z</time></trkpt><trkpt lat="44.36739325054766" lon="7.8736078939082805"><ele>545.0</ele><time>2026-05-03T09:39:25.999Z</time></trkpt><trkpt lat="44.36731057504913" lon="7.873462905516047"><ele>544.2</ele><time>2026-05-03T09:39:26.999Z</time></trkpt><trkpt lat="44.36727025032285" lon="7.873339074193658"><ele>543.4</ele><time>2026-05-03T09:39:27.999Z</time></trkpt><trkpt lat="44.367211439547745" lon="7.873192863855326"><ele>542.6</ele><time>2026-05-03T09:39:28.999Z</time></trkpt><trkpt lat="44.36717515576097" lon="7.873070252030598"><ele>541.8</ele><time>2026-05-03T09:39:29.999Z</time></trkpt><trkpt lat="44.36711969105408" lon="7.8729273937225575"><ele>541.0</ele><time>2026-05-03T09:39:30.999Z</time></trkpt><trkpt lat="44.367071867113424" lon="7.872794427445925"><ele>539.2</ele><time>2026-05-03T09:39:31.999Z</time></trkpt><trkpt lat="44.36703556021235" lon="7.87267135491034"><ele>537.4000000000001</ele><time>2026-05-03T09:39:32.999Z</time></trkpt><trkpt lat="44.36699101365066" lon="7.872530629444312"><ele>535.6</ele><time>2026-05-03T09:39:33.999Z</time></trkpt><trkpt lat="44.366942534411635" lon="7.87238765161775"><ele>533.8000000000001</ele><time>2026-05-03T09:39:34.999Z</time></trkpt><trkpt lat="44.366888194372116" lon="7.8722269659130815"><ele>532.0</ele><time>2026-05-03T09:39:35.999Z</time></trkpt><trkpt lat="44.36683197411003" lon="7.872067699006285"><ele>531.8000000000001</ele><time>2026-05-03T09:39:36.999Z</time></trkpt><trkpt lat="44.366794014419675" lon="7.871957572353617"><ele>531.6</ele><time>2026-05-03T09:39:37.999Z</time></trkpt><trkpt lat="44.3667464424757" lon="7.87183303071578"><ele>531.4000000000001</ele><time>2026-05-03T09:39:38.999Z</time></trkpt><trkpt lat="44.36669612127705" lon="7.871696379333647"><ele>531.2</ele><time>2026-05-03T09:39:39.999Z</time></trkpt><trkpt lat="44.366654449320635" lon="7.871563703498691"><ele>531.0</ele><time>2026-05-03T09:39:40.999Z</time></trkpt><trkpt lat="44.3666045387345" lon="7.871414280185987"><ele>530.6</ele><time>2026-05-03T09:39:41.999Z</time></trkpt><trkpt lat="44.366553882510026" lon="7.871265327589669"><ele>530.2</ele><time>2026-05-03T09:39:42.999Z</time></trkpt><trkpt lat="44.366503220110864" lon="7.871140651731201"><ele>529.8</ele><time>2026-05-03T09:39:43.999Z</time></trkpt><trkpt lat="44.36645942167742" lon="7.871010635564409"><ele>529.4</ele><time>2026-05-03T09:39:44.999Z</time></trkpt><trkpt lat="44.3664113213335" lon="7.870878272292162"><ele>529.0</ele><time>2026-05-03T09:39:45.999Z</time></trkpt><trkpt lat="44.36636514574128" lon="7.8707417305127185"><ele>527.0</ele><time>2026-05-03T09:39:46.999Z</time></trkpt><trkpt lat="44.3663206282014" lon="7.870604767709465"><ele>525.0</ele><time>2026-05-03T09:39:47.999Z</time></trkpt><trkpt lat="44.36626983529786" lon="7.870459340813608"><ele>523.0</ele><time>2026-05-03T09:39:48.999Z</time></trkpt><trkpt lat="44.36620201275152" lon="7.870317619586054"><ele>521.0</ele><time>2026-05-03T09:39:49.999Z</time></trkpt><trkpt lat="44.36614605528678" lon="7.870172764100637"><ele>520.6</ele><time>2026-05-03T09:39:50.999Z</time></trkpt><trkpt lat="44.36608727324451" lon="7.870033288344993"><ele>520.2</ele><time>2026-05-03T09:39:51.999Z</time></trkpt><trkpt lat="44.36602755140913" lon="7.869901267757944"><ele>519.8</ele><time>2026-05-03T09:39:52.999Z</time></trkpt><trkpt lat="44.3659642600485" lon="7.869775597919106"><ele>519.4</ele><time>2026-05-03T09:39:53.999Z</time></trkpt><trkpt lat="44.36591357708809" lon="7.8696604079998"><ele>519.0</ele><time>2026-05-03T09:39:54.999Z</time></trkpt><trkpt lat="44.36588490775165" lon="7.869538184295238"><ele>519.0</ele><time>2026-05-03T09:39:55.999Z</time></trkpt><trkpt lat="44.36583896773573" lon="7.869375962864966"><ele>519.0</ele><time>2026-05-03T09:39:56.999Z</time></trkpt><trkpt lat="44.36578492174765" lon="7.869223879445289"><ele>519.0</ele><time>2026-05-03T09:39:57.999Z</time></trkpt><trkpt lat="44.36571078471382" lon="7.869072748370347"><ele>519.0</ele><time>2026-05-03T09:39:58.998Z</time></trkpt><trkpt lat="44.36568277533584" lon="7.868907305482744"><ele>519.0</ele><time>2026-05-03T09:39:59.998Z</time></trkpt><trkpt lat="44.36564862271718" lon="7.868761791809467"><ele>519.0</ele><time>2026-05-03T09:40:00.998Z</time></trkpt><trkpt lat="44.365615522947884" lon="7.868623958438973"><ele>519.0</ele><time>2026-05-03T09:40:01.998Z</time></trkpt><trkpt lat="44.36557019204119" lon="7.868484466226439"><ele>519.0</ele><time>2026-05-03T09:40:02.998Z</time></trkpt><trkpt lat="44.36552655273439" lon="7.868348268784357"><ele>519.0</ele><time>2026-05-03T09:40:03.998Z</time></trkpt><trkpt lat="44.36548819433834" lon="7.868212936803069"><ele>518.4</ele><time>2026-05-03T09:40:04.998Z</time></trkpt><trkpt lat="44.36543263829896" lon="7.868078264718979"><ele>517.8</ele><time>2026-05-03T09:40:05.998Z</time></trkpt><trkpt lat="44.36538367004381" lon="7.867941353095714"><ele>517.2</ele><time>2026-05-03T09:40:06.998Z</time></trkpt><trkpt lat="44.36534518752809" lon="7.867804689868005"><ele>516.6</ele><time>2026-05-03T09:40:07.998Z</time></trkpt><trkpt lat="44.36529684708297" lon="7.867672320504341"><ele>516.0</ele><time>2026-05-03T09:40:08.998Z</time></trkpt><trkpt lat="44.365248896318974" lon="7.867532743631174"><ele>516.0</ele><time>2026-05-03T09:40:09.998Z</time></trkpt><trkpt lat="44.36519716774467" lon="7.867403746744343"><ele>516.0</ele><time>2026-05-03T09:40:10.998Z</time></trkpt><trkpt lat="44.36515642477253" lon="7.867280992570119"><ele>516.0</ele><time>2026-05-03T09:40:11.998Z</time></trkpt><trkpt lat="44.36511995103966" lon="7.86715482175126"><ele>516.0</ele><time>2026-05-03T09:40:12.998Z</time></trkpt><trkpt lat="44.365075977287546" lon="7.8670137863660825"><ele>516.0</ele><time>2026-05-03T09:40:13.998Z</time></trkpt><trkpt lat="44.36502832872238" lon="7.866871777896569"><ele>516.6</ele><time>2026-05-03T09:40:14.998Z</time></trkpt><trkpt lat="44.36498360596506" lon="7.8667559195567405"><ele>517.2</ele><time>2026-05-03T09:40:15.998Z</time></trkpt><trkpt lat="44.36493763581323" lon="7.866636358527514"><ele>517.8</ele><time>2026-05-03T09:40:16.998Z</time></trkpt><trkpt lat="44.36489632988576" lon="7.866512020673322"><ele>518.4</ele><time>2026-05-03T09:40:17.998Z</time></trkpt><trkpt lat="44.36485251551774" lon="7.8663872480594685"><ele>519.0</ele><time>2026-05-03T09:40:18.998Z</time></trkpt><trkpt lat="44.364806448226446" lon="7.866247298821261"><ele>519.0</ele><time>2026-05-03T09:40:19.998Z</time></trkpt><trkpt lat="44.364764566571495" lon="7.866120183766252"><ele>519.0</ele><time>2026-05-03T09:40:20.998Z</time></trkpt><trkpt lat="44.36471812275822" lon="7.865990062239339"><ele>519.0</ele><time>2026-05-03T09:40:21.998Z</time></trkpt><trkpt lat="44.364683539310086" lon="7.865877756154142"><ele>519.0</ele><time>2026-05-03T09:40:22.998Z</time></trkpt><trkpt lat="44.3646395392388" lon="7.865762897726572"><ele>519.0</ele><time>2026-05-03T09:40:23.998Z</time></trkpt><trkpt lat="44.36459938821255" lon="7.865661851114582"><ele>518.6666666666666</ele><time>2026-05-03T09:40:25Z</time></trkpt><trkpt lat="44.36454413396669" lon="7.8655520227078135"><ele>518.3333333333334</ele><time>2026-05-03T09:40:26Z</time></trkpt><trkpt lat="44.36448598401867" lon="7.86547792038834"><ele>518.0</ele><time>2026-05-03T09:40:27Z</time></trkpt><trkpt lat="44.36440797031084" lon="7.865413179528408"><ele>517.6666666666667</ele><time>2026-05-03T09:40:28Z</time></trkpt><trkpt lat="44.364338507456424" lon="7.865369487422854"><ele>517.3333333333334</ele><time>2026-05-03T09:40:29Z</time></trkpt><trkpt lat="44.3642631877468" lon="7.865294297976241"><ele>517.0</ele><time>2026-05-03T09:40:31Z</time></trkpt><trkpt lat="44.36429931839834" lon="7.865117316754655"><ele>517.1666666666667</ele><time>2026-05-03T09:40:34Z</time></trkpt><trkpt lat="44.36430373815665" lon="7.864924587750275"><ele>517.3333333333334</ele><time>2026-05-03T09:40:44Z</time></trkpt><trkpt lat="44.36426961034285" lon="7.864849969064405"><ele>517.5</ele><time>2026-05-03T09:40:45Z</time></trkpt><trkpt lat="44.36423055274509" lon="7.864777039951133"><ele>517.6666666666666</ele><time>2026-05-03T09:40:46Z</time></trkpt><trkpt lat="44.36417742888645" lon="7.86468034558631"><ele>517.8333333333333</ele><time>2026-05-03T09:40:47Z</time></trkpt><trkpt lat="44.36411251153045" lon="7.86458934463292"><ele>518.0</ele><time>2026-05-03T09:40:48Z</time></trkpt><trkpt lat="44.36405344770172" lon="7.86450263887922"><ele>518.0</ele><time>2026-05-03T09:40:49Z</time></trkpt><trkpt lat="44.364004004953415" lon="7.864426716282889"><ele>518.0</ele><time>2026-05-03T09:40:50Z</time></trkpt><trkpt lat="44.36392881851774" lon="7.864329679882935"><ele>518.0</ele><time>2026-05-03T09:40:51Z</time></trkpt><trkpt lat="44.36387894450636" lon="7.864241424321582"><ele>518.0</ele><time>2026-05-03T09:40:52Z</time></trkpt><trkpt lat="44.363831882567546" lon="7.864161287342809"><ele>518.0</ele><time>2026-05-03T09:40:53Z</time></trkpt><trkpt lat="44.36379852047865" lon="7.86408649349798"><ele>518.0</ele><time>2026-05-03T09:40:54Z</time></trkpt><trkpt lat="44.363749617625125" lon="7.863989917117608"><ele>517.5</ele><time>2026-05-03T09:40:56Z</time></trkpt><trkpt lat="44.36363688769404" lon="7.864037517708656"><ele>517.0</ele><time>2026-05-03T09:40:58Z</time></trkpt><trkpt lat="44.36355695656976" lon="7.864102791507235"><ele>516.5</ele><time>2026-05-03T09:40:59Z</time></trkpt><trkpt lat="44.36347005509398" lon="7.86414080149651"><ele>516.0</ele><time>2026-05-03T09:41:00Z</time></trkpt><trkpt lat="44.36339550747986" lon="7.864117277180947"><ele>515.5</ele><time>2026-05-03T09:41:01Z</time></trkpt><trkpt lat="44.36332854526244" lon="7.864126826210613"><ele>515.0</ele><time>2026-05-03T09:41:02Z</time></trkpt><trkpt lat="44.363238376429685" lon="7.86409990231472"><ele>515.0</ele><time>2026-05-03T09:41:03Z</time></trkpt><trkpt lat="44.36315481882124" lon="7.864082250873157"><ele>515.0</ele><time>2026-05-03T09:41:04Z</time></trkpt><trkpt lat="44.3630928945785" lon="7.864049352216995"><ele>515.0</ele><time>2026-05-03T09:41:05Z</time></trkpt><trkpt lat="44.36305694186023" lon="7.863950934834954"><ele>515.0</ele><time>2026-05-03T09:41:06Z</time></trkpt><trkpt lat="44.36300222210643" lon="7.863860147705874"><ele>515.0</ele><time>2026-05-03T09:41:07Z</time></trkpt><trkpt lat="44.362955103382795" lon="7.863752628986328"><ele>515.0</ele><time>2026-05-03T09:41:07.999Z</time></trkpt><trkpt lat="44.36290931201219" lon="7.863670954039889"><ele>515.0</ele><time>2026-05-03T09:41:08.999Z</time></trkpt><trkpt lat="44.36286696155064" lon="7.863596461698281"><ele>515.0</ele><time>2026-05-03T09:41:09.999Z</time></trkpt><trkpt lat="44.36282704814253" lon="7.863514967383883"><ele>515.0</ele><time>2026-05-03T09:41:10.999Z</time></trkpt><trkpt lat="44.36277766620738" lon="7.863415267542022"><ele>515.0</ele><time>2026-05-03T09:41:11.999Z</time></trkpt><trkpt lat="44.36273586049195" lon="7.863343701792786"><ele>515.0</ele><time>2026-05-03T09:41:12.999Z</time></trkpt><trkpt lat="44.36266470928775" lon="7.863213966606624"><ele>515.0</ele><time>2026-05-03T09:41:14.999Z</time></trkpt><trkpt lat="44.362695010080074" lon="7.863004670798059"><ele>515.0</ele><time>2026-05-03T09:41:16.999Z</time></trkpt><trkpt lat="44.36270961210385" lon="7.862887760944469"><ele>515.0</ele><time>2026-05-03T09:41:17.999Z</time></trkpt><trkpt lat="44.36270192863998" lon="7.8627800093027815"><ele>515.0</ele><time>2026-05-03T09:41:19.999Z</time></trkpt><trkpt lat="44.36270831218777" lon="7.862684688652025"><ele>515.0</ele><time>2026-05-03T09:41:21.999Z</time></trkpt><trkpt lat="44.36275511063862" lon="7.862604751903985"><ele>515.0</ele><time>2026-05-03T09:41:24.999Z</time></trkpt><trkpt lat="44.36278074954005" lon="7.862520222385715"><ele>515.0</ele><time>2026-05-03T09:41:27.999Z</time></trkpt><trkpt lat="44.36286094126976" lon="7.862451122637457"><ele>514.75</ele><time>2026-05-03T09:41:29.999Z</time></trkpt><trkpt lat="44.36278120448069" lon="7.862267821897989"><ele>514.5</ele><time>2026-05-03T09:41:30.999Z</time></trkpt><trkpt lat="44.36270941566904" lon="7.862157429086198"><ele>514.25</ele><time>2026-05-03T09:41:31.999Z</time></trkpt><trkpt lat="44.362618952460835" lon="7.862013628193826"><ele>514.0</ele><time>2026-05-03T09:41:32.999Z</time></trkpt><trkpt lat="44.36256752824131" lon="7.861911685439495"><ele>514.0</ele><time>2026-05-03T09:41:33.999Z</time></trkpt><trkpt lat="44.36251741618818" lon="7.861838133187609"><ele>514.0</ele><time>2026-05-03T09:41:34.999Z</time></trkpt><trkpt lat="44.36246592396393" lon="7.861741465818397"><ele>514.0</ele><time>2026-05-03T09:41:35.999Z</time></trkpt><trkpt lat="44.36242142053885" lon="7.8616656445938995"><ele>514.0</ele><time>2026-05-03T09:41:36.999Z</time></trkpt><trkpt lat="44.362375405407676" lon="7.861575255318192"><ele>514.0</ele><time>2026-05-03T09:41:37.999Z</time></trkpt><trkpt lat="44.36232342186832" lon="7.861474571790023"><ele>514.0</ele><time>2026-05-03T09:41:38.999Z</time></trkpt><trkpt lat="44.362264037996944" lon="7.861359965217099"><ele>513.6666666666667</ele><time>2026-05-03T09:41:39.999Z</time></trkpt><trkpt lat="44.36220606849616" lon="7.8612586871820405"><ele>513.3333333333334</ele><time>2026-05-03T09:41:40.999Z</time></trkpt><trkpt lat="44.362156620344216" lon="7.861172331590173"><ele>513.0</ele><time>2026-05-03T09:41:41.999Z</time></trkpt><trkpt lat="44.36210343261064" lon="7.861079477612307"><ele>512.6666666666666</ele><time>2026-05-03T09:41:42.999Z</time></trkpt><trkpt lat="44.36205282175511" lon="7.860985926493964"><ele>512.3333333333333</ele><time>2026-05-03T09:41:43.999Z</time></trkpt><trkpt lat="44.36199508528807" lon="7.8608928445407305"><ele>512.0</ele><time>2026-05-03T09:41:44.999Z</time></trkpt><trkpt lat="44.361938276568544" lon="7.86078244614705"><ele>511.6</ele><time>2026-05-03T09:41:45.999Z</time></trkpt><trkpt lat="44.36186006180225" lon="7.860703195330672"><ele>511.20000000000005</ele><time>2026-05-03T09:41:46.999Z</time></trkpt><trkpt lat="44.36180631641836" lon="7.860608856109101"><ele>510.8</ele><time>2026-05-03T09:41:47.999Z</time></trkpt><trkpt lat="44.36175230253048" lon="7.8605140456884435"><ele>510.4</ele><time>2026-05-03T09:41:48.999Z</time></trkpt><trkpt lat="44.36170191451167" lon="7.8604256002790684"><ele>510.0</ele><time>2026-05-03T09:41:49.999Z</time></trkpt><trkpt lat="44.36163622562902" lon="7.860310296758899"><ele>510.0</ele><time>2026-05-03T09:41:50.999Z</time></trkpt><trkpt lat="44.361563317063684" lon="7.860182320809892"><ele>510.0</ele><time>2026-05-03T09:41:51.999Z</time></trkpt><trkpt lat="44.36149123136669" lon="7.8600557890676015"><ele>510.0</ele><time>2026-05-03T09:41:52.999Z</time></trkpt><trkpt lat="44.36142402541223" lon="7.859940930246952"><ele>510.0</ele><time>2026-05-03T09:41:53.999Z</time></trkpt><trkpt lat="44.3613689925688" lon="7.859847966792733"><ele>510.0</ele><time>2026-05-03T09:41:54.999Z</time></trkpt><trkpt lat="44.36131331857632" lon="7.859755209380841"><ele>509.2</ele><time>2026-05-03T09:41:55.999Z</time></trkpt><trkpt lat="44.36126383199916" lon="7.859678061449933"><ele>508.4</ele><time>2026-05-03T09:41:56.999Z</time></trkpt><trkpt lat="44.36120392811169" lon="7.859594296186036"><ele>507.6</ele><time>2026-05-03T09:41:57.999Z</time></trkpt><trkpt lat="44.36111649347658" lon="7.8594967457339555"><ele>506.8</ele><time>2026-05-03T09:41:59.999Z</time></trkpt><trkpt lat="44.36105195150502" lon="7.859424940250162"><ele>506.0</ele><time>2026-05-03T09:42:02.999Z</time></trkpt><trkpt lat="44.3610314260258" lon="7.859217234280544"><ele>506.0</ele><time>2026-05-03T09:42:04.999Z</time></trkpt><trkpt lat="44.36100554215325" lon="7.859117699553693"><ele>506.0</ele><time>2026-05-03T09:42:05.998Z</time></trkpt><trkpt lat="44.36097033606801" lon="7.858996243587235"><ele>506.0</ele><time>2026-05-03T09:42:06.998Z</time></trkpt><trkpt lat="44.36092439782818" lon="7.858821195195959"><ele>506.0</ele><time>2026-05-03T09:42:07.998Z</time></trkpt><trkpt lat="44.3608754956487" lon="7.858654585151719"><ele>506.0</ele><time>2026-05-03T09:42:08.998Z</time></trkpt><trkpt lat="44.36082980158559" lon="7.85850649995253"><ele>506.0</ele><time>2026-05-03T09:42:09.998Z</time></trkpt><trkpt lat="44.36079522653971" lon="7.858376701082991"><ele>506.0</ele><time>2026-05-03T09:42:10.998Z</time></trkpt><trkpt lat="44.36075311799012" lon="7.858233741596143"><ele>506.0</ele><time>2026-05-03T09:42:11.998Z</time></trkpt><trkpt lat="44.36070599857415" lon="7.858078602761154"><ele>506.0</ele><time>2026-05-03T09:42:12.998Z</time></trkpt><trkpt lat="44.360669692953714" lon="7.857920845954413"><ele>506.0</ele><time>2026-05-03T09:42:13.998Z</time></trkpt><trkpt lat="44.36063159870488" lon="7.857763317252349"><ele>506.0</ele><time>2026-05-03T09:42:14.998Z</time></trkpt><trkpt lat="44.36057856984423" lon="7.857607845419013"><ele>506.0</ele><time>2026-05-03T09:42:15.998Z</time></trkpt><trkpt lat="44.360530392388675" lon="7.8574676467838085"><ele>506.0</ele><time>2026-05-03T09:42:16.998Z</time></trkpt><trkpt lat="44.36049933074826" lon="7.857336271697306"><ele>506.0</ele><time>2026-05-03T09:42:17.998Z</time></trkpt><trkpt lat="44.36045566011053" lon="7.857203155148229"><ele>506.0</ele><time>2026-05-03T09:42:18.998Z</time></trkpt><trkpt lat="44.36041027626684" lon="7.8570521861671665"><ele>505.5</ele><time>2026-05-03T09:42:19.998Z</time></trkpt><trkpt lat="44.36036079190344" lon="7.8568917581397715"><ele>505.0</ele><time>2026-05-03T09:42:20.998Z</time></trkpt><trkpt lat="44.360323670415134" lon="7.85672770436623"><ele>504.5</ele><time>2026-05-03T09:42:21.998Z</time></trkpt><trkpt lat="44.36028859458587" lon="7.856580965980831"><ele>504.0</ele><time>2026-05-03T09:42:22.998Z</time></trkpt><trkpt lat="44.36024389002323" lon="7.856437975131999"><ele>503.75</ele><time>2026-05-03T09:42:23.998Z</time></trkpt><trkpt lat="44.36020230873305" lon="7.856298447929009"><ele>503.5</ele><time>2026-05-03T09:42:24.998Z</time></trkpt><trkpt lat="44.36015703420769" lon="7.856151432312052"><ele>503.25</ele><time>2026-05-03T09:42:25.998Z</time></trkpt><trkpt lat="44.36011559302657" lon="7.855993860746586"><ele>503.0</ele><time>2026-05-03T09:42:26.998Z</time></trkpt><trkpt lat="44.36007303207952" lon="7.855853423235056"><ele>502.59999999999997</ele><time>2026-05-03T09:42:27.998Z</time></trkpt><trkpt lat="44.360030201385335" lon="7.85570650784813"><ele>502.19999999999993</ele><time>2026-05-03T09:42:28.998Z</time></trkpt><trkpt lat="44.36000082145108" lon="7.855595059018303"><ele>501.8</ele><time>2026-05-03T09:42:29.998Z</time></trkpt><trkpt lat="44.359963506878636" lon="7.8554529197260425"><ele>501.4</ele><time>2026-05-03T09:42:31Z</time></trkpt><trkpt lat="44.359921547586865" lon="7.855296065193072"><ele>501.0</ele><time>2026-05-03T09:42:32Z</time></trkpt><trkpt lat="44.359880972709604" lon="7.855149734246579"><ele>501.20000000000005</ele><time>2026-05-03T09:42:33Z</time></trkpt><trkpt lat="44.35984297279682" lon="7.855009981738006"><ele>501.40000000000003</ele><time>2026-05-03T09:42:34Z</time></trkpt><trkpt lat="44.35980485589458" lon="7.854883353498173"><ele>501.6</ele><time>2026-05-03T09:42:35Z</time></trkpt><trkpt lat="44.35975989962036" lon="7.854735828391166"><ele>501.8</ele><time>2026-05-03T09:42:36Z</time></trkpt><trkpt lat="44.35971847627202" lon="7.854574389133122"><ele>502.0</ele><time>2026-05-03T09:42:37Z</time></trkpt><trkpt lat="44.359676286103706" lon="7.854415246551478"><ele>501.40000000000003</ele><time>2026-05-03T09:42:38Z</time></trkpt><trkpt lat="44.359630480772815" lon="7.8542665428947815"><ele>500.80000000000007</ele><time>2026-05-03T09:42:39Z</time></trkpt><trkpt lat="44.35957873826865" lon="7.854135012496942"><ele>500.2</ele><time>2026-05-03T09:42:40Z</time></trkpt><trkpt lat="44.35955694627046" lon="7.854010229946111"><ele>499.6</ele><time>2026-05-03T09:42:41Z</time></trkpt><trkpt lat="44.35950099693001" lon="7.853852671853813"><ele>499.0</ele><time>2026-05-03T09:42:42Z</time></trkpt><trkpt lat="44.35946836902586" lon="7.853716095178015"><ele>499.0</ele><time>2026-05-03T09:42:43Z</time></trkpt><trkpt lat="44.359421565451825" lon="7.853566652121833"><ele>499.0</ele><time>2026-05-03T09:42:44Z</time></trkpt><trkpt lat="44.3593821959342" lon="7.853402287032973"><ele>499.0</ele><time>2026-05-03T09:42:45Z</time></trkpt><trkpt lat="44.35933829761962" lon="7.85325585575402"><ele>499.0</ele><time>2026-05-03T09:42:46Z</time></trkpt><trkpt lat="44.35929781048483" lon="7.853114424282662"><ele>498.79999999999995</ele><time>2026-05-03T09:42:47Z</time></trkpt><trkpt lat="44.35925929948643" lon="7.85297562117269"><ele>498.59999999999997</ele><time>2026-05-03T09:42:48Z</time></trkpt><trkpt lat="44.35921673343884" lon="7.852820445010362"><ele>498.4</ele><time>2026-05-03T09:42:49Z</time></trkpt><trkpt lat="44.35917944032885" lon="7.852696017245882"><ele>498.2</ele><time>2026-05-03T09:42:50Z</time></trkpt><trkpt lat="44.35913516978548" lon="7.852549558603596"><ele>498.0</ele><time>2026-05-03T09:42:51Z</time></trkpt><trkpt lat="44.35909563008866" lon="7.852395858138055"><ele>498.75</ele><time>2026-05-03T09:42:52Z</time></trkpt><trkpt lat="44.35905137649978" lon="7.852227953656482"><ele>499.5</ele><time>2026-05-03T09:42:53Z</time></trkpt><trkpt lat="44.35898936518688" lon="7.852069268789677"><ele>500.25</ele><time>2026-05-03T09:42:54Z</time></trkpt><trkpt lat="44.35893493116821" lon="7.851910018760812"><ele>501.0</ele><time>2026-05-03T09:42:55Z</time></trkpt><trkpt lat="44.35888517236544" lon="7.8517461042408225"><ele>499.25</ele><time>2026-05-03T09:42:56Z</time></trkpt><trkpt lat="44.35884272658639" lon="7.85158277902097"><ele>497.5</ele><time>2026-05-03T09:42:57Z</time></trkpt><trkpt lat="44.35880009526482" lon="7.851409773458366"><ele>495.75</ele><time>2026-05-03T09:42:58Z</time></trkpt><trkpt lat="44.35876553673755" lon="7.8512691345679935"><ele>494.0</ele><time>2026-05-03T09:42:59Z</time></trkpt><trkpt lat="44.358727395676226" lon="7.851117143335771"><ele>494.0</ele><time>2026-05-03T09:43:00Z</time></trkpt><trkpt lat="44.35868747966043" lon="7.850965442287064"><ele>494.0</ele><time>2026-05-03T09:43:01Z</time></trkpt><trkpt lat="44.35864528938092" lon="7.850809385671388"><ele>494.0</ele><time>2026-05-03T09:43:02Z</time></trkpt><trkpt lat="44.35860335385693" lon="7.850639741022176"><ele>494.0</ele><time>2026-05-03T09:43:03Z</time></trkpt><trkpt lat="44.35856133584503" lon="7.850490168125297"><ele>494.0</ele><time>2026-05-03T09:43:04Z</time></trkpt><trkpt lat="44.35851247613972" lon="7.85032405537289"><ele>494.0</ele><time>2026-05-03T09:43:05Z</time></trkpt><trkpt lat="44.358463722667544" lon="7.850156491347761"><ele>494.0</ele><time>2026-05-03T09:43:06Z</time></trkpt><trkpt lat="44.35841630137401" lon="7.85001208625451"><ele>494.0</ele><time>2026-05-03T09:43:07Z</time></trkpt><trkpt lat="44.358382686540395" lon="7.849875407607252"><ele>494.0</ele><time>2026-05-03T09:43:08Z</time></trkpt><trkpt lat="44.35834278786548" lon="7.849731598007427"><ele>494.0</ele><time>2026-05-03T09:43:09Z</time></trkpt><trkpt lat="44.358290990610655" lon="7.849571264122994"><ele>494.0</ele><time>2026-05-03T09:43:10Z</time></trkpt><trkpt lat="44.358247934982806" lon="7.849415459904014"><ele>494.0</ele><time>2026-05-03T09:43:11Z</time></trkpt><trkpt lat="44.35820490645629" lon="7.8492570647333695"><ele>494.0</ele><time>2026-05-03T09:43:12Z</time></trkpt><trkpt lat="44.35816109341959" lon="7.849107535271477"><ele>494.0</ele><time>2026-05-03T09:43:12.999Z</time></trkpt><trkpt lat="44.35811332191713" lon="7.8489396804040865"><ele>494.0</ele><time>2026-05-03T09:43:13.999Z</time></trkpt><trkpt lat="44.3580568035138" lon="7.848759011930147"><ele>494.0</ele><time>2026-05-03T09:43:14.999Z</time></trkpt><trkpt lat="44.35799592076441" lon="7.848560860834943"><ele>492.3333333333333</ele><time>2026-05-03T09:43:15.999Z</time></trkpt><trkpt lat="44.35793433839992" lon="7.848352741243566"><ele>490.66666666666663</ele><time>2026-05-03T09:43:16.999Z</time></trkpt><trkpt lat="44.35787146940648" lon="7.848169774841225"><ele>489.0</ele><time>2026-05-03T09:43:17.999Z</time></trkpt><trkpt lat="44.3578169927271" lon="7.847976618060851"><ele>489.0</ele><time>2026-05-03T09:43:18.999Z</time></trkpt><trkpt lat="44.357766802123514" lon="7.847792160006251"><ele>489.0</ele><time>2026-05-03T09:43:19.999Z</time></trkpt><trkpt lat="44.357708941853" lon="7.847606852671035"><ele>489.0</ele><time>2026-05-03T09:43:20.999Z</time></trkpt><trkpt lat="44.35765065026674" lon="7.847413838903486"><ele>489.0</ele><time>2026-05-03T09:43:21.999Z</time></trkpt><trkpt lat="44.357601756684815" lon="7.847229924958732"><ele>489.25</ele><time>2026-05-03T09:43:22.999Z</time></trkpt><trkpt lat="44.35754397717717" lon="7.847038715873609"><ele>489.5</ele><time>2026-05-03T09:43:23.999Z</time></trkpt><trkpt lat="44.35749184590903" lon="7.846845934782884"><ele>489.75</ele><time>2026-05-03T09:43:24.999Z</time></trkpt><trkpt lat="44.357447782024515" lon="7.8466591519667706"><ele>490.0</ele><time>2026-05-03T09:43:25.999Z</time></trkpt><trkpt lat="44.35739737737123" lon="7.846489604676114"><ele>490.25</ele><time>2026-05-03T09:43:26.999Z</time></trkpt><trkpt lat="44.3573490656214" lon="7.846312104501658"><ele>490.5</ele><time>2026-05-03T09:43:27.999Z</time></trkpt><trkpt lat="44.357300138675676" lon="7.846142165394021"><ele>490.75</ele><time>2026-05-03T09:43:28.999Z</time></trkpt><trkpt lat="44.35724743182178" lon="7.845961739275085"><ele>491.0</ele><time>2026-05-03T09:43:29.999Z</time></trkpt><trkpt lat="44.35719478402435" lon="7.845778226931954"><ele>490.5</ele><time>2026-05-03T09:43:30.999Z</time></trkpt><trkpt lat="44.357139746950615" lon="7.845601153766035"><ele>490.0</ele><time>2026-05-03T09:43:31.999Z</time></trkpt><trkpt lat="44.357088797419735" lon="7.845420205506235"><ele>489.5</ele><time>2026-05-03T09:43:32.999Z</time></trkpt><trkpt lat="44.35703668824437" lon="7.845253927088784"><ele>489.0</ele><time>2026-05-03T09:43:33.999Z</time></trkpt><trkpt lat="44.35698603483539" lon="7.84507976654873"><ele>489.0</ele><time>2026-05-03T09:43:34.999Z</time></trkpt><trkpt lat="44.35693541563541" lon="7.844917712175439"><ele>489.0</ele><time>2026-05-03T09:43:35.999Z</time></trkpt><trkpt lat="44.356888631181555" lon="7.844737067914477"><ele>489.0</ele><time>2026-05-03T09:43:36.999Z</time></trkpt><trkpt lat="44.356841313211895" lon="7.844558838443638"><ele>489.0</ele><time>2026-05-03T09:43:37.999Z</time></trkpt><trkpt lat="44.35679769790158" lon="7.844385124982357"><ele>489.5</ele><time>2026-05-03T09:43:38.999Z</time></trkpt><trkpt lat="44.35674185122434" lon="7.844212872859902"><ele>490.0</ele><time>2026-05-03T09:43:39.999Z</time></trkpt><trkpt lat="44.35669194414221" lon="7.844036146025462"><ele>490.5</ele><time>2026-05-03T09:43:40.999Z</time></trkpt><trkpt lat="44.35663545590081" lon="7.843857412698156"><ele>491.0</ele><time>2026-05-03T09:43:41.999Z</time></trkpt><trkpt lat="44.35657735050216" lon="7.843672676990255"><ele>491.0</ele><time>2026-05-03T09:43:42.999Z</time></trkpt><trkpt lat="44.35652475906019" lon="7.8434690603108255"><ele>491.0</ele><time>2026-05-03T09:43:43.999Z</time></trkpt><trkpt lat="44.356473214875585" lon="7.843257221927241"><ele>491.0</ele><time>2026-05-03T09:43:44.999Z</time></trkpt><trkpt lat="44.35643004996371" lon="7.8430474973109385"><ele>491.0</ele><time>2026-05-03T09:43:45.999Z</time></trkpt><trkpt lat="44.35639756359896" lon="7.842833149896671"><ele>491.0</ele><time>2026-05-03T09:43:46.999Z</time></trkpt><trkpt lat="44.35637917763658" lon="7.842620892907429"><ele>491.0</ele><time>2026-05-03T09:43:47.999Z</time></trkpt><trkpt lat="44.356381475052956" lon="7.842405217138218"><ele>490.66666666666663</ele><time>2026-05-03T09:43:48.999Z</time></trkpt><trkpt lat="44.35639394752806" lon="7.842168763115624"><ele>490.33333333333337</ele><time>2026-05-03T09:43:49.999Z</time></trkpt><trkpt lat="44.356430504551064" lon="7.841933366226076"><ele>490.0</ele><time>2026-05-03T09:43:50.999Z</time></trkpt><trkpt lat="44.35649063925157" lon="7.841694656352144"><ele>489.0</ele><time>2026-05-03T09:43:51.999Z</time></trkpt><trkpt lat="44.35656580161819" lon="7.841454267556935"><ele>488.0</ele><time>2026-05-03T09:43:52.999Z</time></trkpt><trkpt lat="44.356644129716884" lon="7.84120496576611"><ele>487.0</ele><time>2026-05-03T09:43:53.999Z</time></trkpt><trkpt lat="44.35673448084157" lon="7.840941528958401"><ele>484.6666666666667</ele><time>2026-05-03T09:43:54.999Z</time></trkpt><trkpt lat="44.35682712939111" lon="7.840665017897353"><ele>482.33333333333337</ele><time>2026-05-03T09:43:55.999Z</time></trkpt><trkpt lat="44.356920305347785" lon="7.840380378897729"><ele>480.0</ele><time>2026-05-03T09:43:56.999Z</time></trkpt><trkpt lat="44.3570113744584" lon="7.840095188590991"><ele>478.5</ele><time>2026-05-03T09:43:57.999Z</time></trkpt><trkpt lat="44.35710787534436" lon="7.839806716228577"><ele>477.0</ele><time>2026-05-03T09:43:58.999Z</time></trkpt><trkpt lat="44.35720237192873" lon="7.839510725475476"><ele>478.0</ele><time>2026-05-03T09:43:59.999Z</time></trkpt><trkpt lat="44.357303085612216" lon="7.839204817850856"><ele>479.0</ele><time>2026-05-03T09:44:00.999Z</time></trkpt><trkpt lat="44.35740094403231" lon="7.8388879968236616"><ele>479.0</ele><time>2026-05-03T09:44:01.999Z</time></trkpt><trkpt lat="44.357500397924525" lon="7.8385731962740675"><ele>479.0</ele><time>2026-05-03T09:44:02.999Z</time></trkpt><trkpt lat="44.35760540543849" lon="7.838264051056555"><ele>478.0</ele><time>2026-05-03T09:44:03.999Z</time></trkpt><trkpt lat="44.357701233765304" lon="7.8379739180180765"><ele>477.0</ele><time>2026-05-03T09:44:04.999Z</time></trkpt><trkpt lat="44.35779432895597" lon="7.837679938432203"><ele>474.5</ele><time>2026-05-03T09:44:05.999Z</time></trkpt><trkpt lat="44.35789262184564" lon="7.837383406086565"><ele>472.0</ele><time>2026-05-03T09:44:06.999Z</time></trkpt><trkpt lat="44.357990109561314" lon="7.837080771006589"><ele>472.0</ele><time>2026-05-03T09:44:07.999Z</time></trkpt><trkpt lat="44.358080329765684" lon="7.8368109751847115"><ele>472.0</ele><time>2026-05-03T09:44:08.999Z</time></trkpt><trkpt lat="44.35816446697029" lon="7.836549350484827"><ele>472.0</ele><time>2026-05-03T09:44:09.999Z</time></trkpt><trkpt lat="44.35824997328357" lon="7.836301678485306"><ele>471.33333333333337</ele><time>2026-05-03T09:44:10.998Z</time></trkpt><trkpt lat="44.35833159448797" lon="7.836065923288079"><ele>470.66666666666663</ele><time>2026-05-03T09:44:11.998Z</time></trkpt><trkpt lat="44.35839525794318" lon="7.835851754356596"><ele>470.0</ele><time>2026-05-03T09:44:12.998Z</time></trkpt><trkpt lat="44.358457774148846" lon="7.835655045539868"><ele>470.0</ele><time>2026-05-03T09:44:13.998Z</time></trkpt><trkpt lat="44.358520333770414" lon="7.835475245450825"><ele>470.0</ele><time>2026-05-03T09:44:14.998Z</time></trkpt><trkpt lat="44.35857510781916" lon="7.835300557993768"><ele>470.0</ele><time>2026-05-03T09:44:15.998Z</time></trkpt><trkpt lat="44.35864835995961" lon="7.835159763478174"><ele>470.0</ele><time>2026-05-03T09:44:16.998Z</time></trkpt><trkpt lat="44.35876127438744" lon="7.835038783677298"><ele>471.3333333333333</ele><time>2026-05-03T09:44:17.998Z</time></trkpt><trkpt lat="44.35888759783808" lon="7.83495783355308"><ele>472.66666666666663</ele><time>2026-05-03T09:44:18.998Z</time></trkpt><trkpt lat="44.359035404347146" lon="7.8348815854417175"><ele>474.0</ele><time>2026-05-03T09:44:19.998Z</time></trkpt><trkpt lat="44.35919148326595" lon="7.834796242547342"><ele>474.0</ele><time>2026-05-03T09:44:20.998Z</time></trkpt><trkpt lat="44.35935183654149" lon="7.834734619317606"><ele>474.0</ele><time>2026-05-03T09:44:21.998Z</time></trkpt><trkpt lat="44.35952466852259" lon="7.834656655625699"><ele>474.0</ele><time>2026-05-03T09:44:22.998Z</time></trkpt><trkpt lat="44.35970498408718" lon="7.834573644160242"><ele>472.66666666666663</ele><time>2026-05-03T09:44:23.998Z</time></trkpt><trkpt lat="44.359898207109595" lon="7.834491715009888"><ele>471.3333333333333</ele><time>2026-05-03T09:44:24.998Z</time></trkpt><trkpt lat="44.3600999138429" lon="7.834408879653396"><ele>470.0</ele><time>2026-05-03T09:44:25.998Z</time></trkpt><trkpt lat="44.36029309884396" lon="7.834319241240014"><ele>471.0</ele><time>2026-05-03T09:44:26.998Z</time></trkpt><trkpt lat="44.36049679330872" lon="7.834221615795391"><ele>472.0</ele><time>2026-05-03T09:44:27.998Z</time></trkpt><trkpt lat="44.360697318182226" lon="7.834134944366987"><ele>473.0</ele><time>2026-05-03T09:44:28.998Z</time></trkpt><trkpt lat="44.36090347870387" lon="7.834049795226547"><ele>473.0</ele><time>2026-05-03T09:44:29.998Z</time></trkpt><trkpt lat="44.3610983259124" lon="7.83395811862508"><ele>473.0</ele><time>2026-05-03T09:44:30.998Z</time></trkpt><trkpt lat="44.36129831275445" lon="7.833874714733579"><ele>473.0</ele><time>2026-05-03T09:44:31.998Z</time></trkpt><trkpt lat="44.36148216595858" lon="7.83379453084983"><ele>471.3333333333333</ele><time>2026-05-03T09:44:32.998Z</time></trkpt><trkpt lat="44.361668753810086" lon="7.833711466683387"><ele>469.66666666666663</ele><time>2026-05-03T09:44:33.998Z</time></trkpt><trkpt lat="44.36186096462493" lon="7.833628149869525"><ele>468.0</ele><time>2026-05-03T09:44:34.998Z</time></trkpt><trkpt lat="44.362039188672405" lon="7.833546567245014"><ele>468.33333333333337</ele><time>2026-05-03T09:44:35.998Z</time></trkpt><trkpt lat="44.362217328941725" lon="7.833470980149662"><ele>468.6666666666667</ele><time>2026-05-03T09:44:37Z</time></trkpt><trkpt lat="44.362401507100365" lon="7.833391298393341"><ele>469.0</ele><time>2026-05-03T09:44:38Z</time></trkpt><trkpt lat="44.362588455865406" lon="7.833309835859654"><ele>469.0</ele><time>2026-05-03T09:44:39Z</time></trkpt><trkpt lat="44.36276854046714" lon="7.8332340431086065"><ele>469.0</ele><time>2026-05-03T09:44:40Z</time></trkpt><trkpt lat="44.36295825997503" lon="7.833145703400357"><ele>469.0</ele><time>2026-05-03T09:44:41Z</time></trkpt><trkpt lat="44.36314413718427" lon="7.833060875473887"><ele>468.33333333333337</ele><time>2026-05-03T09:44:42Z</time></trkpt><trkpt lat="44.363329902212314" lon="7.832978135086908"><ele>467.66666666666663</ele><time>2026-05-03T09:44:43Z</time></trkpt><trkpt lat="44.36354888736383" lon="7.83289337625059"><ele>467.0</ele><time>2026-05-03T09:44:44Z</time></trkpt><trkpt lat="44.36375329680123" lon="7.832812792816446"><ele>466.66666666666663</ele><time>2026-05-03T09:44:45Z</time></trkpt><trkpt lat="44.363953208624494" lon="7.832730357388297"><ele>466.33333333333337</ele><time>2026-05-03T09:44:46Z</time></trkpt><trkpt lat="44.36417006216932" lon="7.832648584265606"><ele>466.0</ele><time>2026-05-03T09:44:47Z</time></trkpt><trkpt lat="44.36436958358692" lon="7.832579190074113"><ele>466.0</ele><time>2026-05-03T09:44:48Z</time></trkpt><trkpt lat="44.36458628278347" lon="7.832498963510247"><ele>466.0</ele><time>2026-05-03T09:44:49Z</time></trkpt><trkpt lat="44.364815305197546" lon="7.832425669836574"><ele>466.0</ele><time>2026-05-03T09:44:50Z</time></trkpt><trkpt lat="44.365035407284836" lon="7.832368907301043"><ele>466.0</ele><time>2026-05-03T09:44:51Z</time></trkpt><trkpt lat="44.365274236363774" lon="7.8322985644828815"><ele>466.0</ele><time>2026-05-03T09:44:52Z</time></trkpt><trkpt lat="44.36550599454458" lon="7.832227091671074"><ele>466.0</ele><time>2026-05-03T09:44:53Z</time></trkpt><trkpt lat="44.36572382187553" lon="7.832155073927213"><ele>464.0</ele><time>2026-05-03T09:44:54Z</time></trkpt><trkpt lat="44.36593859545582" lon="7.832093834442654"><ele>462.0</ele><time>2026-05-03T09:44:55Z</time></trkpt><trkpt lat="44.36615938272949" lon="7.832034222948854"><ele>460.0</ele><time>2026-05-03T09:44:56Z</time></trkpt><trkpt lat="44.366371301201276" lon="7.831967437168584"><ele>460.33333333333337</ele><time>2026-05-03T09:44:57Z</time></trkpt><trkpt lat="44.36657256400098" lon="7.831898505882274"><ele>460.66666666666663</ele><time>2026-05-03T09:44:58Z</time></trkpt><trkpt lat="44.36678589134374" lon="7.8318384489636585"><ele>461.0</ele><time>2026-05-03T09:44:59Z</time></trkpt><trkpt lat="44.367003854423054" lon="7.831771953934571"><ele>459.5</ele><time>2026-05-03T09:45:00Z</time></trkpt><trkpt lat="44.367224876673276" lon="7.831706651529765"><ele>458.0</ele><time>2026-05-03T09:45:01Z</time></trkpt><trkpt lat="44.3674455177834" lon="7.831642095757573"><ele>458.0</ele><time>2026-05-03T09:45:02Z</time></trkpt><trkpt lat="44.367655006109615" lon="7.831571695036093"><ele>458.0</ele><time>2026-05-03T09:45:03Z</time></trkpt><trkpt lat="44.36787678997781" lon="7.831504235957327"><ele>458.0</ele><time>2026-05-03T09:45:04Z</time></trkpt><trkpt lat="44.36808138466532" lon="7.831444962003371"><ele>457.3333333333333</ele><time>2026-05-03T09:45:05Z</time></trkpt><trkpt lat="44.3682898538904" lon="7.831379112486728"><ele>456.66666666666663</ele><time>2026-05-03T09:45:06Z</time></trkpt><trkpt lat="44.36850214546043" lon="7.831312570830536"><ele>456.0</ele><time>2026-05-03T09:45:07Z</time></trkpt><trkpt lat="44.368724197224644" lon="7.831247615410688"><ele>455.0</ele><time>2026-05-03T09:45:08Z</time></trkpt><trkpt lat="44.36894581841491" lon="7.831182713315984"><ele>454.0</ele><time>2026-05-03T09:45:09Z</time></trkpt><trkpt lat="44.369170057771235" lon="7.831110121128131"><ele>454.0</ele><time>2026-05-03T09:45:10Z</time></trkpt><trkpt lat="44.36939928286425" lon="7.831040766927647"><ele>454.0</ele><time>2026-05-03T09:45:11Z</time></trkpt><trkpt lat="44.3696113403572" lon="7.8309774100248655"><ele>454.33333333333337</ele><time>2026-05-03T09:45:12Z</time></trkpt><trkpt lat="44.36981236989628" lon="7.830916339640282"><ele>454.66666666666663</ele><time>2026-05-03T09:45:13Z</time></trkpt><trkpt lat="44.37000816791101" lon="7.830857487899897"><ele>455.0</ele><time>2026-05-03T09:45:14Z</time></trkpt><trkpt lat="44.370181752424095" lon="7.830804935407939"><ele>455.0</ele><time>2026-05-03T09:45:15Z</time></trkpt><trkpt lat="44.37036221154294" lon="7.830747694200791"><ele>455.0</ele><time>2026-05-03T09:45:16Z</time></trkpt><trkpt lat="44.3705359920295" lon="7.830694223536437"><ele>455.0</ele><time>2026-05-03T09:45:17Z</time></trkpt><trkpt lat="44.37071673283096" lon="7.8306358315066795"><ele>454.3333333333333</ele><time>2026-05-03T09:45:18Z</time></trkpt><trkpt lat="44.37089958817639" lon="7.830581864203195"><ele>453.66666666666663</ele><time>2026-05-03T09:45:19Z</time></trkpt><trkpt lat="44.37107222893656" lon="7.830529550592433"><ele>453.0</ele><time>2026-05-03T09:45:19.999Z</time></trkpt><trkpt lat="44.3712606324817" lon="7.8304782101454995"><ele>451.66666666666663</ele><time>2026-05-03T09:45:20.999Z</time></trkpt><trkpt lat="44.37144048924908" lon="7.830428591544633"><ele>450.3333333333333</ele><time>2026-05-03T09:45:21.999Z</time></trkpt><trkpt lat="44.37162166685121" lon="7.830374194481252"><ele>449.0</ele><time>2026-05-03T09:45:22.999Z</time></trkpt><trkpt lat="44.3717948714186" lon="7.830322452480499"><ele>449.0</ele><time>2026-05-03T09:45:23.999Z</time></trkpt><trkpt lat="44.371971756113226" lon="7.830266183279494"><ele>449.0</ele><time>2026-05-03T09:45:24.999Z</time></trkpt><trkpt lat="44.372146165359936" lon="7.830209785398167"><ele>449.0</ele><time>2026-05-03T09:45:25.999Z</time></trkpt><trkpt lat="44.372318594886906" lon="7.830155707150372"><ele>449.0</ele><time>2026-05-03T09:45:26.999Z</time></trkpt><trkpt lat="44.37248772341697" lon="7.830102584963942"><ele>449.0</ele><time>2026-05-03T09:45:27.999Z</time></trkpt><trkpt lat="44.37266919327728" lon="7.830045635774222"><ele>449.0</ele><time>2026-05-03T09:45:28.999Z</time></trkpt><trkpt lat="44.372838945504846" lon="7.829990374696846"><ele>449.0</ele><time>2026-05-03T09:45:29.999Z</time></trkpt><trkpt lat="44.37300645772491" lon="7.829943290078557"><ele>449.0</ele><time>2026-05-03T09:45:30.999Z</time></trkpt><trkpt lat="44.37316797615457" lon="7.829895867194351"><ele>449.0</ele><time>2026-05-03T09:45:31.999Z</time></trkpt><trkpt lat="44.373320025300075" lon="7.82985308854962"><ele>449.5</ele><time>2026-05-03T09:45:32.999Z</time></trkpt><trkpt lat="44.37346870619238" lon="7.829805904401452"><ele>450.0</ele><time>2026-05-03T09:45:33.999Z</time></trkpt><trkpt lat="44.37359043012899" lon="7.82976768151863"><ele>450.5</ele><time>2026-05-03T09:45:34.999Z</time></trkpt><trkpt lat="44.373712904421616" lon="7.829727161543702"><ele>451.0</ele><time>2026-05-03T09:45:35.999Z</time></trkpt><trkpt lat="44.37381946540468" lon="7.829688327351776"><ele>451.75</ele><time>2026-05-03T09:45:36.999Z</time></trkpt><trkpt lat="44.373931646689506" lon="7.829651660771582"><ele>452.5</ele><time>2026-05-03T09:45:37.999Z</time></trkpt><trkpt lat="44.37405677532018" lon="7.8296187455379505"><ele>453.25</ele><time>2026-05-03T09:45:38.999Z</time></trkpt><trkpt lat="44.37418787964339" lon="7.829573122104568"><ele>454.0</ele><time>2026-05-03T09:45:39.999Z</time></trkpt><trkpt lat="44.37433527625329" lon="7.829525977129402"><ele>454.0</ele><time>2026-05-03T09:45:40.999Z</time></trkpt><trkpt lat="44.374481602631825" lon="7.829488655330039"><ele>454.0</ele><time>2026-05-03T09:45:41.999Z</time></trkpt><trkpt lat="44.37462184334278" lon="7.829450805916093"><ele>454.0</ele><time>2026-05-03T09:45:42.999Z</time></trkpt><trkpt lat="44.37476269243949" lon="7.829404596098149"><ele>454.0</ele><time>2026-05-03T09:45:43.999Z</time></trkpt><trkpt lat="44.37489694816548" lon="7.829355557013899"><ele>451.5</ele><time>2026-05-03T09:45:44.999Z</time></trkpt><trkpt lat="44.37502974462225" lon="7.82928848663504"><ele>449.0</ele><time>2026-05-03T09:45:45.999Z</time></trkpt><trkpt lat="44.37516105551058" lon="7.829211463749332"><ele>446.5</ele><time>2026-05-03T09:45:46.999Z</time></trkpt><trkpt lat="44.37529001255805" lon="7.829088619048032"><ele>444.0</ele><time>2026-05-03T09:45:47.999Z</time></trkpt><trkpt lat="44.37541241140065" lon="7.828953683137392"><ele>445.33333333333337</ele><time>2026-05-03T09:45:48.999Z</time></trkpt><trkpt lat="44.37554707662771" lon="7.828818893426238"><ele>446.6666666666667</ele><time>2026-05-03T09:45:49.999Z</time></trkpt><trkpt lat="44.37569480746998" lon="7.828677699100336"><ele>448.0</ele><time>2026-05-03T09:45:50.999Z</time></trkpt><trkpt lat="44.37582647651436" lon="7.828555294298086"><ele>447.5</ele><time>2026-05-03T09:45:51.999Z</time></trkpt><trkpt lat="44.3759537640633" lon="7.828439244959945"><ele>447.0</ele><time>2026-05-03T09:45:52.999Z</time></trkpt><trkpt lat="44.37606897104947" lon="7.828332173329997"><ele>446.5</ele><time>2026-05-03T09:45:53.999Z</time></trkpt><trkpt lat="44.376191016979504" lon="7.828215178906842"><ele>446.0</ele><time>2026-05-03T09:45:54.999Z</time></trkpt><trkpt lat="44.37632850804491" lon="7.828081029736745"><ele>448.3333333333333</ele><time>2026-05-03T09:45:55.999Z</time></trkpt><trkpt lat="44.376452358585965" lon="7.827957112165116"><ele>450.66666666666663</ele><time>2026-05-03T09:45:56.999Z</time></trkpt><trkpt lat="44.376578687172874" lon="7.827839987312075"><ele>453.0</ele><time>2026-05-03T09:45:57.999Z</time></trkpt><trkpt lat="44.37671615257415" lon="7.8277131078166695"><ele>450.66666666666663</ele><time>2026-05-03T09:45:58.999Z</time></trkpt><trkpt lat="44.37684801755972" lon="7.827583211855749"><ele>448.3333333333333</ele><time>2026-05-03T09:45:59.999Z</time></trkpt><trkpt lat="44.376978812082704" lon="7.827458678727336"><ele>446.0</ele><time>2026-05-03T09:46:00.999Z</time></trkpt><trkpt lat="44.37710192550442" lon="7.827335596257493"><ele>448.0</ele><time>2026-05-03T09:46:01.999Z</time></trkpt><trkpt lat="44.377235722449214" lon="7.827209189541795"><ele>450.0</ele><time>2026-05-03T09:46:02.999Z</time></trkpt><trkpt lat="44.377349910142556" lon="7.827068346092489"><ele>452.0</ele><time>2026-05-03T09:46:03.999Z</time></trkpt><trkpt lat="44.377458292904414" lon="7.826899110098834"><ele>448.66666666666663</ele><time>2026-05-03T09:46:04.999Z</time></trkpt><trkpt lat="44.37755143308857" lon="7.826712717150178"><ele>445.33333333333337</ele><time>2026-05-03T09:46:05.999Z</time></trkpt><trkpt lat="44.37762878878869" lon="7.826519060221609"><ele>442.0</ele><time>2026-05-03T09:46:06.999Z</time></trkpt><trkpt lat="44.37770000165975" lon="7.826262425417354"><ele>442.0</ele><time>2026-05-03T09:46:07.999Z</time></trkpt><trkpt lat="44.377768133711605" lon="7.8260218293168915"><ele>442.0</ele><time>2026-05-03T09:46:08.999Z</time></trkpt><trkpt lat="44.3778451974966" lon="7.82581614732272"><ele>442.0</ele><time>2026-05-03T09:46:09.999Z</time></trkpt><trkpt lat="44.377920413731474" lon="7.8256218586339825"><ele>441.33333333333337</ele><time>2026-05-03T09:46:10.999Z</time></trkpt><trkpt lat="44.378002178790084" lon="7.825411165909688"><ele>440.66666666666663</ele><time>2026-05-03T09:46:11.999Z</time></trkpt><trkpt lat="44.37805627384925" lon="7.825183601191787"><ele>440.0</ele><time>2026-05-03T09:46:12.999Z</time></trkpt><trkpt lat="44.378089973885196" lon="7.8249244692307025"><ele>442.0</ele><time>2026-05-03T09:46:13.999Z</time></trkpt><trkpt lat="44.378111455870346" lon="7.824668363508885"><ele>444.0</ele><time>2026-05-03T09:46:14.999Z</time></trkpt><trkpt lat="44.37813531592131" lon="7.824433365364607"><ele>446.0</ele><time>2026-05-03T09:46:15.999Z</time></trkpt><trkpt lat="44.37815478358788" lon="7.824188140036006"><ele>446.0</ele><time>2026-05-03T09:46:16.999Z</time></trkpt><trkpt lat="44.378154420481046" lon="7.823969337848821"><ele>446.0</ele><time>2026-05-03T09:46:17.998Z</time></trkpt><trkpt lat="44.378161244857566" lon="7.823744094069934"><ele>446.0</ele><time>2026-05-03T09:46:18.998Z</time></trkpt><trkpt lat="44.37818096370498" lon="7.823535676195692"><ele>444.66666666666663</ele><time>2026-05-03T09:46:19.998Z</time></trkpt><trkpt lat="44.37820877934999" lon="7.823324323335681"><ele>443.33333333333337</ele><time>2026-05-03T09:46:20.998Z</time></trkpt><trkpt lat="44.37824987151483" lon="7.823099666656098"><ele>442.0</ele><time>2026-05-03T09:46:21.998Z</time></trkpt><trkpt lat="44.37832279194154" lon="7.822901668799656"><ele>442.0</ele><time>2026-05-03T09:46:22.998Z</time></trkpt><trkpt lat="44.37845166769486" lon="7.822708975582038"><ele>442.0</ele><time>2026-05-03T09:46:23.998Z</time></trkpt><trkpt lat="44.378580455711166" lon="7.822480685785977"><ele>442.0</ele><time>2026-05-03T09:46:24.998Z</time></trkpt><trkpt lat="44.37868937682356" lon="7.8222905560598335"><ele>441.33333333333337</ele><time>2026-05-03T09:46:25.998Z</time></trkpt><trkpt lat="44.37880141413359" lon="7.822107649164407"><ele>440.66666666666663</ele><time>2026-05-03T09:46:26.998Z</time></trkpt><trkpt lat="44.378902373393686" lon="7.821941735350847"><ele>440.0</ele><time>2026-05-03T09:46:27.998Z</time></trkpt><trkpt lat="44.378994904340495" lon="7.8217821344328655"><ele>437.0</ele><time>2026-05-03T09:46:28.998Z</time></trkpt><trkpt lat="44.3790795203352" lon="7.821657365933584"><ele>434.0</ele><time>2026-05-03T09:46:29.998Z</time></trkpt><trkpt lat="44.37918087016128" lon="7.821537649198845"><ele>431.0</ele><time>2026-05-03T09:46:30.998Z</time></trkpt><trkpt lat="44.37929873656527" lon="7.82142747056274"><ele>428.0</ele><time>2026-05-03T09:46:31.998Z</time></trkpt><trkpt lat="44.379430633210575" lon="7.8213573105390415"><ele>428.0</ele><time>2026-05-03T09:46:32.998Z</time></trkpt><trkpt lat="44.37959449419944" lon="7.821305594083317"><ele>428.0</ele><time>2026-05-03T09:46:33.998Z</time></trkpt><trkpt lat="44.37976512262216" lon="7.821265319556813"><ele>428.0</ele><time>2026-05-03T09:46:34.998Z</time></trkpt><trkpt lat="44.37990891751894" lon="7.82123391135394"><ele>431.3333333333333</ele><time>2026-05-03T09:46:35.998Z</time></trkpt><trkpt lat="44.38005686575222" lon="7.821199181202384"><ele>434.66666666666663</ele><time>2026-05-03T09:46:36.998Z</time></trkpt><trkpt lat="44.38021460542227" lon="7.821147059073928"><ele>438.0</ele><time>2026-05-03T09:46:37.998Z</time></trkpt><trkpt lat="44.380351687439216" lon="7.821116794153934"><ele>438.0</ele><time>2026-05-03T09:46:38.998Z</time></trkpt><trkpt lat="44.38049386450985" lon="7.8210639668529565"><ele>438.0</ele><time>2026-05-03T09:46:39.998Z</time></trkpt><trkpt lat="44.38063712801813" lon="7.820954057290985"><ele>438.0</ele><time>2026-05-03T09:46:40.998Z</time></trkpt><trkpt lat="44.38076728079214" lon="7.820844093068304"><ele>434.25</ele><time>2026-05-03T09:46:41.998Z</time></trkpt><trkpt lat="44.38088712687028" lon="7.820733067899968"><ele>430.5</ele><time>2026-05-03T09:46:43Z</time></trkpt><trkpt lat="44.38100459397196" lon="7.8206377122545785"><ele>426.75</ele><time>2026-05-03T09:46:44Z</time></trkpt><trkpt lat="44.38112023671186" lon="7.820559129926698"><ele>423.0</ele><time>2026-05-03T09:46:45Z</time></trkpt><trkpt lat="44.38123256279397" lon="7.820464713004137"><ele>424.25</ele><time>2026-05-03T09:46:46Z</time></trkpt><trkpt lat="44.381355105973796" lon="7.820416966036341"><ele>425.5</ele><time>2026-05-03T09:46:47Z</time></trkpt><trkpt lat="44.38148319129926" lon="7.820398783420653"><ele>426.75</ele><time>2026-05-03T09:46:48Z</time></trkpt><trkpt lat="44.381638526561915" lon="7.820481210823953"><ele>428.0</ele><time>2026-05-03T09:46:49Z</time></trkpt><trkpt lat="44.38176848735955" lon="7.8205591118086275"><ele>428.0</ele><time>2026-05-03T09:46:50Z</time></trkpt><trkpt lat="44.381896731128506" lon="7.820626481802057"><ele>428.0</ele><time>2026-05-03T09:46:51Z</time></trkpt><trkpt lat="44.38202594278599" lon="7.820676554808265"><ele>428.0</ele><time>2026-05-03T09:46:52Z</time></trkpt><trkpt lat="44.38215123273429" lon="7.820714712944636"><ele>428.0</ele><time>2026-05-03T09:46:53Z</time></trkpt><trkpt lat="44.382271015049845" lon="7.820759357094258"><ele>427.79999999999995</ele><time>2026-05-03T09:46:54Z</time></trkpt><trkpt lat="44.38239625184733" lon="7.820802351756357"><ele>427.59999999999997</ele><time>2026-05-03T09:46:55Z</time></trkpt><trkpt lat="44.382498998754535" lon="7.820850941723819"><ele>427.40000000000003</ele><time>2026-05-03T09:46:56Z</time></trkpt><trkpt lat="44.38259406182736" lon="7.820908221577817"><ele>427.20000000000005</ele><time>2026-05-03T09:46:57Z</time></trkpt><trkpt lat="44.38267333997841" lon="7.820997574094861"><ele>427.0</ele><time>2026-05-03T09:46:58Z</time></trkpt><trkpt lat="44.38273965494531" lon="7.821104719589851"><ele>427.0</ele><time>2026-05-03T09:46:59Z</time></trkpt><trkpt lat="44.38273677195825" lon="7.82128566534134"><ele>427.0</ele><time>2026-05-03T09:47:00Z</time></trkpt><trkpt lat="44.382777694072466" lon="7.821460615968512"><ele>427.0</ele><time>2026-05-03T09:47:01Z</time></trkpt><trkpt lat="44.38281106457036" lon="7.821610374262399"><ele>427.0</ele><time>2026-05-03T09:47:02Z</time></trkpt><trkpt lat="44.38284656988769" lon="7.8217739537540085"><ele>424.5</ele><time>2026-05-03T09:47:03Z</time></trkpt><trkpt lat="44.38288283273637" lon="7.821946406388453"><ele>422.0</ele><time>2026-05-03T09:47:04Z</time></trkpt><trkpt lat="44.38292098337289" lon="7.822100387878213"><ele>419.5</ele><time>2026-05-03T09:47:05Z</time></trkpt><trkpt lat="44.382965878025345" lon="7.822233417452064"><ele>417.0</ele><time>2026-05-03T09:47:06Z</time></trkpt><trkpt lat="44.383021079682884" lon="7.822366260268174"><ele>417.0</ele><time>2026-05-03T09:47:07Z</time></trkpt><trkpt lat="44.38308739276501" lon="7.822450774070075"><ele>417.0</ele><time>2026-05-03T09:47:08Z</time></trkpt><trkpt lat="44.38325560990401" lon="7.822515760224978"><ele>417.0</ele><time>2026-05-03T09:47:09Z</time></trkpt><trkpt lat="44.383385478453974" lon="7.822521733116929"><ele>417.0</ele><time>2026-05-03T09:47:10Z</time></trkpt><trkpt lat="44.38353114618139" lon="7.822547367663719"><ele>417.0</ele><time>2026-05-03T09:47:11Z</time></trkpt><trkpt lat="44.38364260699613" lon="7.82254744769547"><ele>417.0</ele><time>2026-05-03T09:47:12Z</time></trkpt><trkpt lat="44.38376231451309" lon="7.8225373311470525"><ele>417.0</ele><time>2026-05-03T09:47:13Z</time></trkpt><trkpt lat="44.383870360790425" lon="7.8225225831641065"><ele>417.0</ele><time>2026-05-03T09:47:14Z</time></trkpt><trkpt lat="44.38396692002712" lon="7.822472943785219"><ele>417.0</ele><time>2026-05-03T09:47:15Z</time></trkpt><trkpt lat="44.38407016177726" lon="7.822444487624854"><ele>417.20000000000005</ele><time>2026-05-03T09:47:16Z</time></trkpt><trkpt lat="44.38416388532047" lon="7.822404305518503"><ele>417.4</ele><time>2026-05-03T09:47:17Z</time></trkpt><trkpt lat="44.38426376374802" lon="7.82236908290765"><ele>417.6</ele><time>2026-05-03T09:47:18Z</time></trkpt><trkpt lat="44.384361203890904" lon="7.822329878420994"><ele>417.79999999999995</ele><time>2026-05-03T09:47:19Z</time></trkpt><trkpt lat="44.3844743882067" lon="7.822290171440869"><ele>418.0</ele><time>2026-05-03T09:47:20Z</time></trkpt><trkpt lat="44.384600338696366" lon="7.822241978781549"><ele>418.75</ele><time>2026-05-03T09:47:21Z</time></trkpt><trkpt lat="44.38474089812241" lon="7.822194791490737"><ele>419.5</ele><time>2026-05-03T09:47:22Z</time></trkpt><trkpt lat="44.38486602261782" lon="7.822114173302859"><ele>420.25</ele><time>2026-05-03T09:47:23Z</time></trkpt><trkpt lat="44.384986403683655" lon="7.822060839281282"><ele>421.0</ele><time>2026-05-03T09:47:24Z</time></trkpt><trkpt lat="44.385105419544665" lon="7.822006148086992"><ele>421.0</ele><time>2026-05-03T09:47:25Z</time></trkpt><trkpt lat="44.385220154038684" lon="7.821959529346252"><ele>421.0</ele><time>2026-05-03T09:47:25.999Z</time></trkpt><trkpt lat="44.38533245697359" lon="7.821907469908414"><ele>421.0</ele><time>2026-05-03T09:47:26.999Z</time></trkpt><trkpt lat="44.38542045282775" lon="7.821856740134249"><ele>421.0</ele><time>2026-05-03T09:47:27.999Z</time></trkpt><trkpt lat="44.38554084913724" lon="7.821819918693526"><ele>418.0</ele><time>2026-05-03T09:47:28.999Z</time></trkpt><trkpt lat="44.38563865342352" lon="7.821769272365262"><ele>415.0</ele><time>2026-05-03T09:47:29.999Z</time></trkpt><trkpt lat="44.3857344819704" lon="7.821713677391455"><ele>412.0</ele><time>2026-05-03T09:47:30.999Z</time></trkpt><trkpt lat="44.385812808367646" lon="7.821640208495041"><ele>409.0</ele><time>2026-05-03T09:47:31.999Z</time></trkpt><trkpt lat="44.38586608705243" lon="7.821484343158514"><ele>406.0</ele><time>2026-05-03T09:47:32.999Z</time></trkpt><trkpt lat="44.38590842170539" lon="7.821333758068363"><ele>406.0</ele><time>2026-05-03T09:47:33.999Z</time></trkpt><trkpt lat="44.38594965225428" lon="7.821190120650045"><ele>406.0</ele><time>2026-05-03T09:47:34.999Z</time></trkpt><trkpt lat="44.38597308936807" lon="7.82103385845336"><ele>406.0</ele><time>2026-05-03T09:47:35.999Z</time></trkpt><trkpt lat="44.386005975501845" lon="7.820900083851822"><ele>406.0</ele><time>2026-05-03T09:47:36.999Z</time></trkpt><trkpt lat="44.38603748582986" lon="7.820750551427422"><ele>406.0</ele><time>2026-05-03T09:47:37.999Z</time></trkpt><trkpt lat="44.386080878138" lon="7.820630606906448"><ele>405.8</ele><time>2026-05-03T09:47:38.999Z</time></trkpt><trkpt lat="44.386127785610825" lon="7.820507287975009"><ele>405.6</ele><time>2026-05-03T09:47:39.999Z</time></trkpt><trkpt lat="44.38617041397875" lon="7.8204181772477295"><ele>405.4</ele><time>2026-05-03T09:47:40.999Z</time></trkpt><trkpt lat="44.386210615418776" lon="7.820342037657609"><ele>405.2</ele><time>2026-05-03T09:47:41.999Z</time></trkpt><trkpt lat="44.38626960421209" lon="7.820249550545619"><ele>405.0</ele><time>2026-05-03T09:47:43.999Z</time></trkpt><trkpt lat="44.386386638079316" lon="7.820150921135666"><ele>405.0</ele><time>2026-05-03T09:47:45.999Z</time></trkpt><trkpt lat="44.386540222971405" lon="7.820151539515739"><ele>405.0</ele><time>2026-05-03T09:47:47.999Z</time></trkpt><trkpt lat="44.3866246015305" lon="7.820125293475817"><ele>405.0</ele><time>2026-05-03T09:47:48.999Z</time></trkpt><trkpt lat="44.38671357069082" lon="7.820098294548951"><ele>405.0</ele><time>2026-05-03T09:47:49.999Z</time></trkpt><trkpt lat="44.38680896474674" lon="7.820072511739852"><ele>405.0</ele><time>2026-05-03T09:47:50.999Z</time></trkpt><trkpt lat="44.38688129041878" lon="7.8200333564586195"><ele>404.0</ele><time>2026-05-03T09:47:51.999Z</time></trkpt><trkpt lat="44.38696880292547" lon="7.820022278316366"><ele>403.0</ele><time>2026-05-03T09:47:52.999Z</time></trkpt><trkpt lat="44.38705964551789" lon="7.820014460974378"><ele>402.0</ele><time>2026-05-03T09:47:53.999Z</time></trkpt><trkpt lat="44.38714331159149" lon="7.820015643743385"><ele>401.0</ele><time>2026-05-03T09:47:54.999Z</time></trkpt><trkpt lat="44.38722029349778" lon="7.820025599176098"><ele>400.0</ele><time>2026-05-03T09:47:55.999Z</time></trkpt><trkpt lat="44.387317489946795" lon="7.820044471987818"><ele>399.0</ele><time>2026-05-03T09:47:56.999Z</time></trkpt><trkpt lat="44.3874018377589" lon="7.820057458228232"><ele>399.0</ele><time>2026-05-03T09:47:57.999Z</time></trkpt><trkpt lat="44.387479142069175" lon="7.820109859403915"><ele>399.0</ele><time>2026-05-03T09:47:58.999Z</time></trkpt><trkpt lat="44.387578686350096" lon="7.820173535165176"><ele>399.0</ele><time>2026-05-03T09:47:59.999Z</time></trkpt><trkpt lat="44.387658399700726" lon="7.8202347852812215"><ele>399.0</ele><time>2026-05-03T09:48:00.999Z</time></trkpt><trkpt lat="44.38773647352306" lon="7.82029393047903"><ele>399.0</ele><time>2026-05-03T09:48:01.999Z</time></trkpt><trkpt lat="44.387832616217395" lon="7.820356854327547"><ele>399.6</ele><time>2026-05-03T09:48:02.999Z</time></trkpt><trkpt lat="44.387929145297115" lon="7.820391722471118"><ele>400.2</ele><time>2026-05-03T09:48:03.999Z</time></trkpt><trkpt lat="44.38800627937125" lon="7.820433907295204"><ele>400.8</ele><time>2026-05-03T09:48:04.999Z</time></trkpt><trkpt lat="44.388101082855364" lon="7.820484330546132"><ele>401.40000000000003</ele><time>2026-05-03T09:48:05.999Z</time></trkpt><trkpt lat="44.388197592509215" lon="7.820524308196369"><ele>402.0</ele><time>2026-05-03T09:48:06.999Z</time></trkpt><trkpt lat="44.388332492774346" lon="7.82053311320206"><ele>402.0</ele><time>2026-05-03T09:48:07.999Z</time></trkpt><trkpt lat="44.38843412537966" lon="7.820525196188193"><ele>402.0</ele><time>2026-05-03T09:48:08.999Z</time></trkpt><trkpt lat="44.3885084182066" lon="7.820502180292696"><ele>402.0</ele><time>2026-05-03T09:48:09.999Z</time></trkpt><trkpt lat="44.388591248805795" lon="7.820495241787181"><ele>402.0</ele><time>2026-05-03T09:48:10.999Z</time></trkpt><trkpt lat="44.38866743069124" lon="7.820497523095251"><ele>402.0</ele><time>2026-05-03T09:48:11.999Z</time></trkpt><trkpt lat="44.38879848910915" lon="7.820439547328175"><ele>401.5</ele><time>2026-05-03T09:48:13.999Z</time></trkpt><trkpt lat="44.38887537513709" lon="7.820403179855359"><ele>401.0</ele><time>2026-05-03T09:48:14.999Z</time></trkpt><trkpt lat="44.38896637815513" lon="7.820363212269445"><ele>400.5</ele><time>2026-05-03T09:48:15.999Z</time></trkpt><trkpt lat="44.389055225746674" lon="7.820333372382422"><ele>400.0</ele><time>2026-05-03T09:48:16.999Z</time></trkpt><trkpt lat="44.3891353118729" lon="7.820311410034323"><ele>399.5</ele><time>2026-05-03T09:48:17.999Z</time></trkpt><trkpt lat="44.38921306817482" lon="7.820279861891077"><ele>399.0</ele><time>2026-05-03T09:48:18.999Z</time></trkpt><trkpt lat="44.38929304366342" lon="7.820302933907507"><ele>399.0</ele><time>2026-05-03T09:48:19.999Z</time></trkpt><trkpt lat="44.38937509915273" lon="7.820319208239577"><ele>399.0</ele><time>2026-05-03T09:48:20.999Z</time></trkpt><trkpt lat="44.38945289856819" lon="7.820340322252843"><ele>399.0</ele><time>2026-05-03T09:48:21.999Z</time></trkpt><trkpt lat="44.38952536748802" lon="7.820348880177659"><ele>399.0</ele><time>2026-05-03T09:48:22.999Z</time></trkpt><trkpt lat="44.389611751656" lon="7.820380671491281"><ele>399.0</ele><time>2026-05-03T09:48:23.998Z</time></trkpt><trkpt lat="44.38969778481353" lon="7.8204228331656385"><ele>399.0</ele><time>2026-05-03T09:48:24.998Z</time></trkpt><trkpt lat="44.389764489833034" lon="7.82046461987873"><ele>398.0</ele><time>2026-05-03T09:48:25.998Z</time></trkpt><trkpt lat="44.38985397108598" lon="7.820548466336632"><ele>397.0</ele><time>2026-05-03T09:48:27.998Z</time></trkpt><trkpt lat="44.38992575311824" lon="7.820629676666483"><ele>396.0</ele><time>2026-05-03T09:48:29.998Z</time></trkpt><trkpt lat="44.39004049689812" lon="7.820705522545564"><ele>395.0</ele><time>2026-05-03T09:48:31.998Z</time></trkpt><trkpt lat="44.390158613742265" lon="7.820732250799966"><ele>394.0</ele><time>2026-05-03T09:48:32.998Z</time></trkpt><trkpt lat="44.39026049534319" lon="7.820739345580995"><ele>394.0</ele><time>2026-05-03T09:48:33.998Z</time></trkpt><trkpt lat="44.390391420871666" lon="7.820750681650263"><ele>394.0</ele><time>2026-05-03T09:48:34.998Z</time></trkpt><trkpt lat="44.390482815070456" lon="7.820736111207945"><ele>394.0</ele><time>2026-05-03T09:48:35.998Z</time></trkpt><trkpt lat="44.390562682178924" lon="7.820721004094904"><ele>394.0</ele><time>2026-05-03T09:48:36.998Z</time></trkpt><trkpt lat="44.39064560796643" lon="7.820712853346826"><ele>394.0</ele><time>2026-05-03T09:48:37.998Z</time></trkpt><trkpt lat="44.390735490224834" lon="7.820712243202423"><ele>393.6</ele><time>2026-05-03T09:48:38.998Z</time></trkpt><trkpt lat="44.39084070395917" lon="7.820707896522669"><ele>393.2</ele><time>2026-05-03T09:48:39.998Z</time></trkpt><trkpt lat="44.39095214133846" lon="7.820701597847542"><ele>392.8</ele><time>2026-05-03T09:48:40.998Z</time></trkpt><trkpt lat="44.39105217629822" lon="7.820691834880748"><ele>392.40000000000003</ele><time>2026-05-03T09:48:41.998Z</time></trkpt><trkpt lat="44.39114229061316" lon="7.820686293943176"><ele>392.0</ele><time>2026-05-03T09:48:42.998Z</time></trkpt><trkpt lat="44.391231721395314" lon="7.820681559618171"><ele>392.0</ele><time>2026-05-03T09:48:43.998Z</time></trkpt><trkpt lat="44.391330990536716" lon="7.820674930441916"><ele>392.0</ele><time>2026-05-03T09:48:44.998Z</time></trkpt><trkpt lat="44.39143199773389" lon="7.820665704369335"><ele>392.0</ele><time>2026-05-03T09:48:45.998Z</time></trkpt><trkpt lat="44.391515310712194" lon="7.820646254726656"><ele>392.0</ele><time>2026-05-03T09:48:46.998Z</time></trkpt><trkpt lat="44.39161356866051" lon="7.820628696739914"><ele>392.0</ele><time>2026-05-03T09:48:47.998Z</time></trkpt><trkpt lat="44.39174816853839" lon="7.820604367706225"><ele>391.40000000000003</ele><time>2026-05-03T09:48:49Z</time></trkpt><trkpt lat="44.39183975025158" lon="7.8205945015169505"><ele>390.8</ele><time>2026-05-03T09:48:50Z</time></trkpt><trkpt lat="44.391940459976624" lon="7.8205861754892085"><ele>390.2</ele><time>2026-05-03T09:48:51Z</time></trkpt><trkpt lat="44.3920232999524" lon="7.820570795493716"><ele>389.6</ele><time>2026-05-03T09:48:52Z</time></trkpt><trkpt lat="44.392113409069786" lon="7.82061867200811"><ele>389.0</ele><time>2026-05-03T09:48:53Z</time></trkpt><trkpt lat="44.39221788088708" lon="7.820623092923278"><ele>388.79999999999995</ele><time>2026-05-03T09:48:54Z</time></trkpt><trkpt lat="44.392317349809915" lon="7.820492326766366"><ele>388.59999999999997</ele><time>2026-05-03T09:48:55Z</time></trkpt><trkpt lat="44.39242220201587" lon="7.820508768346593"><ele>388.4</ele><time>2026-05-03T09:48:56Z</time></trkpt><trkpt lat="44.39249825880171" lon="7.820541563417066"><ele>388.2</ele><time>2026-05-03T09:48:57Z</time></trkpt><trkpt lat="44.39258731386538" lon="7.820542643095361"><ele>388.0</ele><time>2026-05-03T09:48:58Z</time></trkpt><trkpt lat="44.39269217422904" lon="7.820590368288338"><ele>388.0</ele><time>2026-05-03T09:49:00Z</time></trkpt><trkpt lat="44.39282869029263" lon="7.820664993192954"><ele>388.0</ele><time>2026-05-03T09:49:02Z</time></trkpt><trkpt lat="44.39287908656544" lon="7.820738712123998"><ele>388.0</ele><time>2026-05-03T09:49:03Z</time></trkpt><trkpt lat="44.39294549870001" lon="7.820861261351887"><ele>388.0</ele><time>2026-05-03T09:49:04Z</time></trkpt><trkpt lat="44.39299757482854" lon="7.820951521742743"><ele>388.0</ele><time>2026-05-03T09:49:05Z</time></trkpt><trkpt lat="44.393033528706475" lon="7.821068830422965"><ele>387.25</ele><time>2026-05-03T09:49:06Z</time></trkpt><trkpt lat="44.39302603785192" lon="7.8212234781240335"><ele>386.5</ele><time>2026-05-03T09:49:07Z</time></trkpt><trkpt lat="44.393032274878415" lon="7.821375180186318"><ele>385.75</ele><time>2026-05-03T09:49:08Z</time></trkpt><trkpt lat="44.39302758937565" lon="7.821538716157073"><ele>385.0</ele><time>2026-05-03T09:49:09Z</time></trkpt><trkpt lat="44.39302867079457" lon="7.821706660856011"><ele>384.4</ele><time>2026-05-03T09:49:10Z</time></trkpt><trkpt lat="44.39303520795531" lon="7.821841247639067"><ele>383.8</ele><time>2026-05-03T09:49:11Z</time></trkpt><trkpt lat="44.39304966662362" lon="7.821947112972062"><ele>383.20000000000005</ele><time>2026-05-03T09:49:12Z</time></trkpt><trkpt lat="44.39309384497886" lon="7.822061809052014"><ele>382.6</ele><time>2026-05-03T09:49:13Z</time></trkpt><trkpt lat="44.3931638475257" lon="7.8221662239062555"><ele>382.0</ele><time>2026-05-03T09:49:14Z</time></trkpt><trkpt lat="44.393259538961054" lon="7.822243315445625"><ele>382.0</ele><time>2026-05-03T09:49:15Z</time></trkpt><trkpt lat="44.39333110682363" lon="7.822325246961735"><ele>382.0</ele><time>2026-05-03T09:49:16Z</time></trkpt><trkpt lat="44.39338832921101" lon="7.822379975589021"><ele>382.0</ele><time>2026-05-03T09:49:17Z</time></trkpt><trkpt lat="44.39345834271182" lon="7.822438820891159"><ele>382.0</ele><time>2026-05-03T09:49:19Z</time></trkpt><trkpt lat="44.39339495267829" lon="7.8226411032818035"><ele>382.0</ele><time>2026-05-03T09:49:21Z</time></trkpt><trkpt lat="44.39335411069963" lon="7.822746269574025"><ele>381.6</ele><time>2026-05-03T09:49:22Z</time></trkpt><trkpt lat="44.39331995383718" lon="7.822838701297065"><ele>381.20000000000005</ele><time>2026-05-03T09:49:23Z</time></trkpt><trkpt lat="44.39329424229521" lon="7.822929168974484"><ele>380.8</ele><time>2026-05-03T09:49:24Z</time></trkpt><trkpt lat="44.393282876771494" lon="7.823070291785602"><ele>380.4</ele><time>2026-05-03T09:49:26Z</time></trkpt><trkpt lat="44.393264840604864" lon="7.82322705094361"><ele>380.0</ele><time>2026-05-03T09:49:28Z</time></trkpt><trkpt lat="44.393220599968295" lon="7.8233992162123664"><ele>379.6</ele><time>2026-05-03T09:49:30Z</time></trkpt><trkpt lat="44.393215138202194" lon="7.823515476898165"><ele>379.2</ele><time>2026-05-03T09:49:31Z</time></trkpt><trkpt lat="44.39321275868707" lon="7.823701591867783"><ele>378.79999999999995</ele><time>2026-05-03T09:49:32.999Z</time></trkpt><trkpt lat="44.39323481524702" lon="7.8238382978543894"><ele>378.4</ele><time>2026-05-03T09:49:34.999Z</time></trkpt><trkpt lat="44.39331227556192" lon="7.823902933784316"><ele>378.0</ele><time>2026-05-03T09:49:35.999Z</time></trkpt><trkpt lat="44.39339099825" lon="7.823976127508394"><ele>378.0</ele><time>2026-05-03T09:49:36.999Z</time></trkpt><trkpt lat="44.39346411866129" lon="7.824033037397316"><ele>378.0</ele><time>2026-05-03T09:49:37.999Z</time></trkpt><trkpt lat="44.39351927374337" lon="7.82407734400153"><ele>378.0</ele><time>2026-05-03T09:49:38.999Z</time></trkpt><trkpt lat="44.39358116655793" lon="7.824136782246532"><ele>378.0</ele><time>2026-05-03T09:49:39.999Z</time></trkpt><trkpt lat="44.3936424580999" lon="7.8241798505873055"><ele>378.0</ele><time>2026-05-03T09:49:40.999Z</time></trkpt><trkpt lat="44.39369400658891" lon="7.8242315387104275"><ele>378.0</ele><time>2026-05-03T09:49:41.999Z</time></trkpt><trkpt lat="44.393735624528325" lon="7.82430077958677"><ele>378.0</ele><time>2026-05-03T09:49:42.999Z</time></trkpt><trkpt lat="44.39381115052258" lon="7.824392975184477"><ele>378.1666666666667</ele><time>2026-05-03T09:49:44.999Z</time></trkpt><trkpt lat="44.39389157719337" lon="7.82447523731579"><ele>378.3333333333333</ele><time>2026-05-03T09:49:46.999Z</time></trkpt><trkpt lat="44.393976801941584" lon="7.824414582780087"><ele>378.5</ele><time>2026-05-03T09:49:47.999Z</time></trkpt><trkpt lat="44.39405496315936" lon="7.824386260898506"><ele>378.66666666666663</ele><time>2026-05-03T09:49:49.999Z</time></trkpt><trkpt lat="44.39400201734306" lon="7.82444524090908"><ele>378.8333333333333</ele><time>2026-05-03T09:52:18.999Z</time></trkpt><trkpt lat="44.39389938145831" lon="7.824412197200412"><ele>379.0</ele><time>2026-05-03T09:52:20.999Z</time></trkpt><trkpt lat="44.393837661309874" lon="7.824368607624492"><ele>379.0</ele><time>2026-05-03T09:52:22.999Z</time></trkpt><trkpt lat="44.39381016013271" lon="7.8242592431451445"><ele>379.0</ele><time>2026-05-03T09:52:24.999Z</time></trkpt><trkpt lat="44.39382873307492" lon="7.8241742427033305"><ele>379.0</ele><time>2026-05-03T09:52:26.999Z</time></trkpt><trkpt lat="44.39388443450976" lon="7.824079700735978"><ele>379.0</ele><time>2026-05-03T09:52:29.999Z</time></trkpt><trkpt lat="44.39394166945236" lon="7.823999851006262"><ele>379.0</ele><time>2026-05-03T09:52:31.999Z</time></trkpt><trkpt lat="44.39399079824459" lon="7.823908615264342"><ele>379.0</ele><time>2026-05-03T09:52:33.999Z</time></trkpt><trkpt lat="44.39407526700773" lon="7.823725874662394"><ele>379.0</ele><time>2026-05-03T09:52:36.998Z</time></trkpt><trkpt lat="44.39404877462423" lon="7.823624251135276"><ele>379.0</ele><time>2026-05-03T09:52:39.998Z</time></trkpt><trkpt lat="44.393973935620515" lon="7.823671720505899"><ele>379.0</ele><time>2026-05-03T10:05:49Z</time></trkpt><trkpt lat="44.39393095747511" lon="7.823779795492031"><ele>379.0</ele><time>2026-05-03T10:05:51Z</time></trkpt><trkpt lat="44.393869000379226" lon="7.823897739388984"><ele>379.0</ele><time>2026-05-03T10:05:53Z</time></trkpt><trkpt lat="44.39380014785989" lon="7.824029101280842"><ele>379.0</ele><time>2026-05-03T10:05:55Z</time></trkpt><trkpt lat="44.39375412805085" lon="7.82412237781481"><ele>379.0</ele><time>2026-05-03T10:05:57Z</time></trkpt><trkpt lat="44.393779436702765" lon="7.824278516031216"><ele>379.0</ele><time>2026-05-03T10:05:59Z</time></trkpt><trkpt lat="44.39384396101638" lon="7.824396242827814"><ele>379.0</ele><time>2026-05-03T10:06:01Z</time></trkpt><trkpt lat="44.39391693805074" lon="7.824406425521338"><ele>379.0</ele><time>2026-05-03T10:06:04Z</time></trkpt><trkpt lat="44.39399028319675" lon="7.824331497823871"><ele>379.0</ele><time>2026-05-03T10:06:05Z</time></trkpt><trkpt lat="44.39407815154133" lon="7.824252786166151"><ele>379.0</ele><time>2026-05-03T10:06:06Z</time></trkpt><trkpt lat="44.39410364038025" lon="7.8241651867664865"><ele>379.0</ele><time>2026-05-03T10:06:07Z</time></trkpt><trkpt lat="44.394163452329785" lon="7.824080867234701"><ele>379.0</ele><time>2026-05-03T10:06:08Z</time></trkpt><trkpt lat="44.39420357853428" lon="7.823991069136842"><ele>379.0</ele><time>2026-05-03T10:06:09Z</time></trkpt><trkpt lat="44.39424693961298" lon="7.823894031848887"><ele>379.0</ele><time>2026-05-03T10:06:10Z</time></trkpt><trkpt lat="44.39430463645514" lon="7.823737084535424"><ele>379.0</ele><time>2026-05-03T10:06:12Z</time></trkpt><trkpt lat="44.39430121181758" lon="7.823548726019457"><ele>379.0</ele><time>2026-05-03T10:06:14Z</time></trkpt><trkpt lat="44.39427563778774" lon="7.823461417141272"><ele>379.0</ele><time>2026-05-03T10:06:15Z</time></trkpt><trkpt lat="44.39423704524782" lon="7.823390685348593"><ele>379.0</ele><time>2026-05-03T10:06:16Z</time></trkpt><trkpt lat="44.39415351727846" lon="7.823358588108063"><ele>379.0</ele><time>2026-05-03T10:06:17Z</time></trkpt><trkpt lat="44.39407397002144" lon="7.823297122662368"><ele>379.0</ele><time>2026-05-03T10:06:18Z</time></trkpt><trkpt lat="44.393995072737184" lon="7.823233838907749"><ele>379.0</ele><time>2026-05-03T10:06:19Z</time></trkpt><trkpt lat="44.39393012287015" lon="7.823173495126598"><ele>379.0</ele><time>2026-05-03T10:06:20Z</time></trkpt><trkpt lat="44.393855149110614" lon="7.823093232891351"><ele>379.0</ele><time>2026-05-03T10:06:21Z</time></trkpt><trkpt lat="44.39379400724879" lon="7.822965977602078"><ele>379.0</ele><time>2026-05-03T10:06:22Z</time></trkpt><trkpt lat="44.39373109520362" lon="7.822868278658852"><ele>379.0</ele><time>2026-05-03T10:06:23Z</time></trkpt><trkpt lat="44.39365904923784" lon="7.822788709272514"><ele>379.25</ele><time>2026-05-03T10:06:24Z</time></trkpt><trkpt lat="44.39360223374685" lon="7.822713366448578"><ele>379.5</ele><time>2026-05-03T10:06:25Z</time></trkpt><trkpt lat="44.393535109654316" lon="7.822624148911028"><ele>379.75</ele><time>2026-05-03T10:06:27Z</time></trkpt><trkpt lat="44.393572332110836" lon="7.822545016773603"><ele>380.0</ele><time>2026-05-03T10:06:31.999Z</time></trkpt><trkpt lat="44.39376161811655" lon="7.822702794543755"><ele>379.75</ele><time>2026-05-03T10:06:34.999Z</time></trkpt><trkpt lat="44.393851677298" lon="7.822794714569379"><ele>379.5</ele><time>2026-05-03T10:06:35.999Z</time></trkpt><trkpt lat="44.3939497108621" lon="7.82290774488511"><ele>379.25</ele><time>2026-05-03T10:06:36.999Z</time></trkpt><trkpt lat="44.39406406226165" lon="7.822992918655816"><ele>379.0</ele><time>2026-05-03T10:06:37.999Z</time></trkpt><trkpt lat="44.39416786431912" lon="7.823103168577437"><ele>379.0</ele><time>2026-05-03T10:06:38.999Z</time></trkpt><trkpt lat="44.394287630870735" lon="7.823212542793588"><ele>379.0</ele><time>2026-05-03T10:06:39.999Z</time></trkpt><trkpt lat="44.394410488896916" lon="7.8233203535100255"><ele>379.0</ele><time>2026-05-03T10:06:40.999Z</time></trkpt><trkpt lat="44.39452561347164" lon="7.823401550008924"><ele>379.0</ele><time>2026-05-03T10:06:41.999Z</time></trkpt><trkpt lat="44.394630324474676" lon="7.823503718831597"><ele>379.4</ele><time>2026-05-03T10:06:42.999Z</time></trkpt><trkpt lat="44.39473652919397" lon="7.8235939081798715"><ele>379.79999999999995</ele><time>2026-05-03T10:06:43.999Z</time></trkpt><trkpt lat="44.39481580494196" lon="7.823664701094982"><ele>380.20000000000005</ele><time>2026-05-03T10:06:44.999Z</time></trkpt><trkpt lat="44.39487297009456" lon="7.823728081631299"><ele>380.6</ele><time>2026-05-03T10:06:45.999Z</time></trkpt><trkpt lat="44.3949403519659" lon="7.823799702606804"><ele>381.0</ele><time>2026-05-03T10:06:46.999Z</time></trkpt><trkpt lat="44.39499877007784" lon="7.823884321503474"><ele>381.0</ele><time>2026-05-03T10:06:47.999Z</time></trkpt><trkpt lat="44.39505304620685" lon="7.823953060533021"><ele>381.0</ele><time>2026-05-03T10:06:48.999Z</time></trkpt><trkpt lat="44.39507662223471" lon="7.824037983625719"><ele>381.0</ele><time>2026-05-03T10:06:49.999Z</time></trkpt><trkpt lat="44.39511037210369" lon="7.824112702199086"><ele>381.0</ele><time>2026-05-03T10:06:50.999Z</time></trkpt><trkpt lat="44.395227459621196" lon="7.82411708078845"><ele>381.0</ele><time>2026-05-03T10:06:52.999Z</time></trkpt><trkpt lat="44.39532242842148" lon="7.824124854289206"><ele>381.0</ele><time>2026-05-03T10:06:53.999Z</time></trkpt><trkpt lat="44.39539808100668" lon="7.8241832690868"><ele>381.0</ele><time>2026-05-03T10:06:54.999Z</time></trkpt><trkpt lat="44.395482121458166" lon="7.824248199957393"><ele>381.0</ele><time>2026-05-03T10:06:55.999Z</time></trkpt><trkpt lat="44.395572453901735" lon="7.824320052304185"><ele>381.0</ele><time>2026-05-03T10:06:56.999Z</time></trkpt><trkpt lat="44.39569171720805" lon="7.82438223888354"><ele>381.0</ele><time>2026-05-03T10:06:57.999Z</time></trkpt><trkpt lat="44.39579231709534" lon="7.824434253669842"><ele>381.0</ele><time>2026-05-03T10:06:58.999Z</time></trkpt><trkpt lat="44.3959116188474" lon="7.824479576282878"><ele>380.75</ele><time>2026-05-03T10:06:59.999Z</time></trkpt><trkpt lat="44.39603781361859" lon="7.824512998678534"><ele>380.5</ele><time>2026-05-03T10:07:00.999Z</time></trkpt><trkpt lat="44.39616452706969" lon="7.824556811709381"><ele>380.25</ele><time>2026-05-03T10:07:01.999Z</time></trkpt><trkpt lat="44.396303236738426" lon="7.8246064738334535"><ele>380.0</ele><time>2026-05-03T10:07:02.999Z</time></trkpt><trkpt lat="44.396435960637284" lon="7.824602991946045"><ele>382.75</ele><time>2026-05-03T10:07:03.999Z</time></trkpt><trkpt lat="44.39655802015716" lon="7.8246366393250995"><ele>385.5</ele><time>2026-05-03T10:07:04.999Z</time></trkpt><trkpt lat="44.39670691715631" lon="7.8246295740999185"><ele>388.25</ele><time>2026-05-03T10:07:05.999Z</time></trkpt><trkpt lat="44.39685236106468" lon="7.824625416037469"><ele>391.0</ele><time>2026-05-03T10:07:06.999Z</time></trkpt><trkpt lat="44.39699288516471" lon="7.824617881160061"><ele>391.0</ele><time>2026-05-03T10:07:07.999Z</time></trkpt><trkpt lat="44.39711752379945" lon="7.824590098020157"><ele>391.0</ele><time>2026-05-03T10:07:08.999Z</time></trkpt><trkpt lat="44.397227115957634" lon="7.824576466127405"><ele>391.0</ele><time>2026-05-03T10:07:09.999Z</time></trkpt><trkpt lat="44.39735192994601" lon="7.824577082268209"><ele>391.0</ele><time>2026-05-03T10:07:10.999Z</time></trkpt><trkpt lat="44.3974742193177" lon="7.824612358788748"><ele>392.20000000000005</ele><time>2026-05-03T10:07:11.999Z</time></trkpt><trkpt lat="44.397595012221224" lon="7.824660640684502"><ele>393.40000000000003</ele><time>2026-05-03T10:07:12.999Z</time></trkpt><trkpt lat="44.39770622841011" lon="7.824718037176228"><ele>394.6</ele><time>2026-05-03T10:07:13.999Z</time></trkpt><trkpt lat="44.397790008354555" lon="7.8247813214612485"><ele>395.8</ele><time>2026-05-03T10:07:14.999Z</time></trkpt><trkpt lat="44.39787139654154" lon="7.824843838890779"><ele>397.0</ele><time>2026-05-03T10:07:15.999Z</time></trkpt><trkpt lat="44.39794279637758" lon="7.82490111843999"><ele>398.20000000000005</ele><time>2026-05-03T10:07:16.999Z</time></trkpt><trkpt lat="44.39801399572059" lon="7.824940566820756"><ele>399.4</ele><time>2026-05-03T10:07:17.999Z</time></trkpt><trkpt lat="44.39809141468938" lon="7.8249751280017295"><ele>400.6</ele><time>2026-05-03T10:07:18.999Z</time></trkpt><trkpt lat="44.39820393703838" lon="7.825023082485686"><ele>401.79999999999995</ele><time>2026-05-03T10:07:19.999Z</time></trkpt><trkpt lat="44.39830769499836" lon="7.825005259905972"><ele>403.0</ele><time>2026-05-03T10:07:20.999Z</time></trkpt><trkpt lat="44.39838977716486" lon="7.82510014841077"><ele>399.25</ele><time>2026-05-03T10:07:21.999Z</time></trkpt><trkpt lat="44.39848226117025" lon="7.825171905937713"><ele>395.5</ele><time>2026-05-03T10:07:22.999Z</time></trkpt><trkpt lat="44.39859176987712" lon="7.825256905568665"><ele>391.75</ele><time>2026-05-03T10:07:23.999Z</time></trkpt><trkpt lat="44.39869809942429" lon="7.825353993134597"><ele>388.0</ele><time>2026-05-03T10:07:24.999Z</time></trkpt><trkpt lat="44.39881934972949" lon="7.825458053626059"><ele>390.75</ele><time>2026-05-03T10:07:25.999Z</time></trkpt><trkpt lat="44.3989415492109" lon="7.825576704265117"><ele>393.5</ele><time>2026-05-03T10:07:26.999Z</time></trkpt><trkpt lat="44.39904919579862" lon="7.825682914342101"><ele>396.25</ele><time>2026-05-03T10:07:27.999Z</time></trkpt><trkpt lat="44.399175668463144" lon="7.8257869245019664"><ele>399.0</ele><time>2026-05-03T10:07:28.999Z</time></trkpt><trkpt lat="44.39928402907047" lon="7.825904228901115"><ele>398.0</ele><time>2026-05-03T10:07:29.999Z</time></trkpt><trkpt lat="44.39939663863378" lon="7.826018545356619"><ele>397.0</ele><time>2026-05-03T10:07:30.999Z</time></trkpt><trkpt lat="44.39952027194001" lon="7.8261358335132"><ele>396.0</ele><time>2026-05-03T10:07:31.999Z</time></trkpt><trkpt lat="44.399630642498686" lon="7.82624958219367"><ele>395.0</ele><time>2026-05-03T10:07:32.999Z</time></trkpt><trkpt lat="44.39976080025801" lon="7.826332303397654"><ele>395.0</ele><time>2026-05-03T10:07:33.999Z</time></trkpt><trkpt lat="44.39988283828773" lon="7.82642022797145"><ele>395.0</ele><time>2026-05-03T10:07:34.999Z</time></trkpt><trkpt lat="44.400008614712974" lon="7.826502691792798"><ele>395.0</ele><time>2026-05-03T10:07:35.999Z</time></trkpt><trkpt lat="44.40013708626071" lon="7.826554086529559"><ele>395.0</ele><time>2026-05-03T10:07:36.999Z</time></trkpt><trkpt lat="44.400259457607056" lon="7.826606503010209"><ele>395.0</ele><time>2026-05-03T10:07:37.999Z</time></trkpt><trkpt lat="44.4003859715789" lon="7.8266643955427675"><ele>395.0</ele><time>2026-05-03T10:07:38.999Z</time></trkpt><trkpt lat="44.40050842625657" lon="7.8267333626072215"><ele>395.0</ele><time>2026-05-03T10:07:39.999Z</time></trkpt><trkpt lat="44.40062896922608" lon="7.8268096080273954"><ele>395.0</ele><time>2026-05-03T10:07:40.999Z</time></trkpt><trkpt lat="44.400749893276306" lon="7.826912971620259"><ele>393.75</ele><time>2026-05-03T10:07:41.998Z</time></trkpt><trkpt lat="44.40086130873686" lon="7.827021549506503"><ele>392.5</ele><time>2026-05-03T10:07:43Z</time></trkpt><trkpt lat="44.400966680085936" lon="7.827122090380006"><ele>391.25</ele><time>2026-05-03T10:07:44Z</time></trkpt><trkpt lat="44.40108436179315" lon="7.827209840723465"><ele>390.0</ele><time>2026-05-03T10:07:45Z</time></trkpt><trkpt lat="44.40119607454166" lon="7.827290112091266"><ele>390.0</ele><time>2026-05-03T10:07:46Z</time></trkpt><trkpt lat="44.401274820339886" lon="7.827414447183972"><ele>390.0</ele><time>2026-05-03T10:07:47Z</time></trkpt><trkpt lat="44.401402094497485" lon="7.827529286412168"><ele>390.0</ele><time>2026-05-03T10:07:48Z</time></trkpt><trkpt lat="44.40149585577388" lon="7.8276497229732085"><ele>390.0</ele><time>2026-05-03T10:07:49Z</time></trkpt><trkpt lat="44.40158946268603" lon="7.827743058106377"><ele>391.0</ele><time>2026-05-03T10:07:50Z</time></trkpt><trkpt lat="44.40169414410608" lon="7.827845505756678"><ele>392.0</ele><time>2026-05-03T10:07:51Z</time></trkpt><trkpt lat="44.40179831359764" lon="7.827948336608322"><ele>393.0</ele><time>2026-05-03T10:07:52Z</time></trkpt><trkpt lat="44.40188891931149" lon="7.828053142522598"><ele>394.0</ele><time>2026-05-03T10:07:53Z</time></trkpt><trkpt lat="44.40199342231034" lon="7.828164308092104"><ele>394.0</ele><time>2026-05-03T10:07:54Z</time></trkpt><trkpt lat="44.402098124562784" lon="7.828263042740273"><ele>394.0</ele><time>2026-05-03T10:07:55Z</time></trkpt><trkpt lat="44.40217920147139" lon="7.828359775103169"><ele>394.0</ele><time>2026-05-03T10:07:56Z</time></trkpt><trkpt lat="44.40227325471215" lon="7.8284607700558855"><ele>394.0</ele><time>2026-05-03T10:07:57Z</time></trkpt><trkpt lat="44.402370327560966" lon="7.828560878616751"><ele>394.5</ele><time>2026-05-03T10:07:58Z</time></trkpt><trkpt lat="44.40247672677475" lon="7.828660475441783"><ele>395.0</ele><time>2026-05-03T10:07:59Z</time></trkpt><trkpt lat="44.40255702305284" lon="7.828771817449425"><ele>395.5</ele><time>2026-05-03T10:08:00Z</time></trkpt><trkpt lat="44.40265858904842" lon="7.828859581206038"><ele>396.0</ele><time>2026-05-03T10:08:01Z</time></trkpt><trkpt lat="44.40274477540308" lon="7.828958682036462"><ele>396.0</ele><time>2026-05-03T10:08:02Z</time></trkpt><trkpt lat="44.40285316720318" lon="7.829042703651311"><ele>396.0</ele><time>2026-05-03T10:08:03Z</time></trkpt><trkpt lat="44.402930129073106" lon="7.829124746259306"><ele>396.0</ele><time>2026-05-03T10:08:04Z</time></trkpt><trkpt lat="44.40302115295779" lon="7.829200129490968"><ele>396.0</ele><time>2026-05-03T10:08:05Z</time></trkpt><trkpt lat="44.40310580654813" lon="7.829260531111084"><ele>396.0</ele><time>2026-05-03T10:08:06Z</time></trkpt><trkpt lat="44.403190322806424" lon="7.829341222695041"><ele>396.4</ele><time>2026-05-03T10:08:07Z</time></trkpt><trkpt lat="44.403267344683414" lon="7.8294235168550195"><ele>396.8</ele><time>2026-05-03T10:08:08Z</time></trkpt><trkpt lat="44.40333464215484" lon="7.829501942832269"><ele>397.2</ele><time>2026-05-03T10:08:09Z</time></trkpt><trkpt lat="44.40339867203897" lon="7.8295681329196"><ele>397.59999999999997</ele><time>2026-05-03T10:08:10Z</time></trkpt><trkpt lat="44.403468045564075" lon="7.829666077220788"><ele>398.0</ele><time>2026-05-03T10:08:11Z</time></trkpt><trkpt lat="44.40355171250569" lon="7.8297241269837725"><ele>398.0</ele><time>2026-05-03T10:08:12Z</time></trkpt><trkpt lat="44.40361527182899" lon="7.829805525735045"><ele>398.0</ele><time>2026-05-03T10:08:13Z</time></trkpt><trkpt lat="44.40367720160823" lon="7.829869414810847"><ele>398.0</ele><time>2026-05-03T10:08:14Z</time></trkpt><trkpt lat="44.40377318185639" lon="7.829992330780894"><ele>398.0</ele><time>2026-05-03T10:08:16Z</time></trkpt><trkpt lat="44.40383136225428" lon="7.830058369862275"><ele>398.0</ele><time>2026-05-03T10:08:17Z</time></trkpt><trkpt lat="44.403902363149015" lon="7.830149136057528"><ele>397.59999999999997</ele><time>2026-05-03T10:08:18Z</time></trkpt><trkpt lat="44.40397813503154" lon="7.830217962589494"><ele>397.2</ele><time>2026-05-03T10:08:19Z</time></trkpt><trkpt lat="44.40406263683528" lon="7.830306747317338"><ele>396.8</ele><time>2026-05-03T10:08:20Z</time></trkpt><trkpt lat="44.40416448906658" lon="7.830390958281761"><ele>396.4</ele><time>2026-05-03T10:08:21Z</time></trkpt><trkpt lat="44.40423839617205" lon="7.8304631238334474"><ele>396.0</ele><time>2026-05-03T10:08:22Z</time></trkpt><trkpt lat="44.40429572831691" lon="7.8305139765023"><ele>396.0</ele><time>2026-05-03T10:08:23Z</time></trkpt><trkpt lat="44.40438301109076" lon="7.830582294851434"><ele>396.0</ele><time>2026-05-03T10:08:24Z</time></trkpt><trkpt lat="44.40446493052581" lon="7.830661995373595"><ele>396.0</ele><time>2026-05-03T10:08:25Z</time></trkpt><trkpt lat="44.40453700436912" lon="7.830746479924281"><ele>396.0</ele><time>2026-05-03T10:08:26Z</time></trkpt><trkpt lat="44.40462567409373" lon="7.830830697101665"><ele>396.0</ele><time>2026-05-03T10:08:27Z</time></trkpt><trkpt lat="44.40473201547764" lon="7.830938778329662"><ele>396.0</ele><time>2026-05-03T10:08:28Z</time></trkpt><trkpt lat="44.40483206236624" lon="7.831046572216804"><ele>396.0</ele><time>2026-05-03T10:08:29Z</time></trkpt><trkpt lat="44.40493515768502" lon="7.831140347880183"><ele>396.0</ele><time>2026-05-03T10:08:30Z</time></trkpt><trkpt lat="44.40503819455486" lon="7.831236669548644"><ele>396.0</ele><time>2026-05-03T10:08:31Z</time></trkpt><trkpt lat="44.405121158353666" lon="7.831320361213548"><ele>396.0</ele><time>2026-05-03T10:08:32Z</time></trkpt><trkpt lat="44.405211305207075" lon="7.831405494619586"><ele>396.0</ele><time>2026-05-03T10:08:33Z</time></trkpt><trkpt lat="44.4052726472736" lon="7.831496246508304"><ele>396.0</ele><time>2026-05-03T10:08:34Z</time></trkpt><trkpt lat="44.40536804197055" lon="7.831594598526778"><ele>396.0</ele><time>2026-05-03T10:08:35.999Z</time></trkpt><trkpt lat="44.40541532386483" lon="7.83166593582369"><ele>396.0</ele><time>2026-05-03T10:08:36.999Z</time></trkpt><trkpt lat="44.40545197329506" lon="7.831764222232099"><ele>396.5</ele><time>2026-05-03T10:08:37.999Z</time></trkpt><trkpt lat="44.40552708565505" lon="7.831897900527782"><ele>397.0</ele><time>2026-05-03T10:08:38.999Z</time></trkpt><trkpt lat="44.405592646387824" lon="7.83202539303621"><ele>397.5</ele><time>2026-05-03T10:08:39.999Z</time></trkpt><trkpt lat="44.40564614340428" lon="7.83221840470707"><ele>398.0</ele><time>2026-05-03T10:08:40.999Z</time></trkpt><trkpt lat="44.405702712962515" lon="7.832391031228991"><ele>398.0</ele><time>2026-05-03T10:08:41.999Z</time></trkpt><trkpt lat="44.40577767639115" lon="7.832587125257298"><ele>398.0</ele><time>2026-05-03T10:08:42.999Z</time></trkpt><trkpt lat="44.405842064343275" lon="7.832823158070153"><ele>398.0</ele><time>2026-05-03T10:08:43.999Z</time></trkpt><trkpt lat="44.405894784166726" lon="7.83300651780829"><ele>396.5</ele><time>2026-05-03T10:08:44.999Z</time></trkpt><trkpt lat="44.405919034612495" lon="7.83318263762805"><ele>395.0</ele><time>2026-05-03T10:08:45.999Z</time></trkpt><trkpt lat="44.405950642892996" lon="7.833352604587517"><ele>393.5</ele><time>2026-05-03T10:08:46.999Z</time></trkpt><trkpt lat="44.40598074926715" lon="7.833519877854642"><ele>392.0</ele><time>2026-05-03T10:08:47.999Z</time></trkpt><trkpt lat="44.40602107946615" lon="7.833723355820314"><ele>392.0</ele><time>2026-05-03T10:08:48.999Z</time></trkpt><trkpt lat="44.406073337963385" lon="7.833914305739467"><ele>392.0</ele><time>2026-05-03T10:08:49.999Z</time></trkpt><trkpt lat="44.40612999785958" lon="7.834085470367737"><ele>392.0</ele><time>2026-05-03T10:08:50.999Z</time></trkpt><trkpt lat="44.40620871431577" lon="7.834255868717425"><ele>392.0</ele><time>2026-05-03T10:08:51.999Z</time></trkpt><trkpt lat="44.406296459614325" lon="7.834412241205974"><ele>394.0</ele><time>2026-05-03T10:08:52.999Z</time></trkpt><trkpt lat="44.40640612200906" lon="7.834560464461816"><ele>396.0</ele><time>2026-05-03T10:08:53.999Z</time></trkpt><trkpt lat="44.40652034699588" lon="7.83471027803401"><ele>398.0</ele><time>2026-05-03T10:08:54.999Z</time></trkpt><trkpt lat="44.40664574691381" lon="7.834861018365747"><ele>398.0</ele><time>2026-05-03T10:08:55.999Z</time></trkpt><trkpt lat="44.40677377617231" lon="7.835024388186907"><ele>398.0</ele><time>2026-05-03T10:08:56.999Z</time></trkpt><trkpt lat="44.406908919698175" lon="7.835191143820652"><ele>398.0</ele><time>2026-05-03T10:08:57.999Z</time></trkpt><trkpt lat="44.40704482726678" lon="7.835358590592041"><ele>397.66666666666663</ele><time>2026-05-03T10:08:58.999Z</time></trkpt><trkpt lat="44.4071694637889" lon="7.835508525855682"><ele>397.33333333333337</ele><time>2026-05-03T10:08:59.999Z</time></trkpt><trkpt lat="44.407296295068036" lon="7.835662877112912"><ele>397.0</ele><time>2026-05-03T10:09:00.999Z</time></trkpt><trkpt lat="44.40742838228723" lon="7.8358236872913425"><ele>397.0</ele><time>2026-05-03T10:09:01.999Z</time></trkpt><trkpt lat="44.40755609798829" lon="7.835987355918524"><ele>397.0</ele><time>2026-05-03T10:09:02.999Z</time></trkpt><trkpt lat="44.40769808391246" lon="7.836150063781893"><ele>397.0</ele><time>2026-05-03T10:09:03.999Z</time></trkpt><trkpt lat="44.407840880706026" lon="7.836309699790179"><ele>397.0</ele><time>2026-05-03T10:09:04.999Z</time></trkpt><trkpt lat="44.40797430434899" lon="7.836481014906243"><ele>397.0</ele><time>2026-05-03T10:09:05.999Z</time></trkpt><trkpt lat="44.40810577905996" lon="7.8366430217916045"><ele>397.0</ele><time>2026-05-03T10:09:06.999Z</time></trkpt><trkpt lat="44.408230992149704" lon="7.836807855506168"><ele>397.0</ele><time>2026-05-03T10:09:07.999Z</time></trkpt><trkpt lat="44.408366579540534" lon="7.836964533090437"><ele>397.0</ele><time>2026-05-03T10:09:08.999Z</time></trkpt><trkpt lat="44.408502898943155" lon="7.837114188010122"><ele>397.0</ele><time>2026-05-03T10:09:09.999Z</time></trkpt><trkpt lat="44.40862509702467" lon="7.8372773968621186"><ele>397.0</ele><time>2026-05-03T10:09:10.999Z</time></trkpt><trkpt lat="44.40875068616312" lon="7.837440809538778"><ele>397.0</ele><time>2026-05-03T10:09:11.999Z</time></trkpt><trkpt lat="44.40887390002145" lon="7.837605890415065"><ele>397.0</ele><time>2026-05-03T10:09:12.999Z</time></trkpt><trkpt lat="44.409007053728075" lon="7.8377628889730735"><ele>397.0</ele><time>2026-05-03T10:09:13.999Z</time></trkpt><trkpt lat="44.409135416590495" lon="7.837922753251113"><ele>397.0</ele><time>2026-05-03T10:09:14.999Z</time></trkpt><trkpt lat="44.40926600444705" lon="7.838074996438081"><ele>397.0</ele><time>2026-05-03T10:09:15.999Z</time></trkpt><trkpt lat="44.40939030607513" lon="7.838225927412732"><ele>397.0</ele><time>2026-05-03T10:09:16.999Z</time></trkpt><trkpt lat="44.40952362254828" lon="7.8383827312381165"><ele>397.0</ele><time>2026-05-03T10:09:17.999Z</time></trkpt><trkpt lat="44.40964436455427" lon="7.838534774932766"><ele>397.0</ele><time>2026-05-03T10:09:18.999Z</time></trkpt><trkpt lat="44.40977331903179" lon="7.838685779100682"><ele>396.33333333333337</ele><time>2026-05-03T10:09:19.999Z</time></trkpt><trkpt lat="44.409894137417965" lon="7.838846887213071"><ele>395.66666666666663</ele><time>2026-05-03T10:09:20.999Z</time></trkpt><trkpt lat="44.41003191602606" lon="7.839019089997997"><ele>395.0</ele><time>2026-05-03T10:09:21.999Z</time></trkpt><trkpt lat="44.41016388282335" lon="7.839170789789465"><ele>394.3333333333333</ele><time>2026-05-03T10:09:22.999Z</time></trkpt><trkpt lat="44.4102876686135" lon="7.839329818183831"><ele>393.66666666666663</ele><time>2026-05-03T10:09:23.999Z</time></trkpt><trkpt lat="44.41041485360135" lon="7.839489303325435"><ele>393.0</ele><time>2026-05-03T10:09:24.999Z</time></trkpt><trkpt lat="44.41054766122803" lon="7.839651663280075"><ele>392.66666666666663</ele><time>2026-05-03T10:09:25.999Z</time></trkpt><trkpt lat="44.41068547753781" lon="7.839814015711596"><ele>392.3333333333333</ele><time>2026-05-03T10:09:26.999Z</time></trkpt><trkpt lat="44.41081494469011" lon="7.839972151663398"><ele>392.0</ele><time>2026-05-03T10:09:27.999Z</time></trkpt><trkpt lat="44.410951822132304" lon="7.840141321684338"><ele>392.0</ele><time>2026-05-03T10:09:28.999Z</time></trkpt><trkpt lat="44.41109523394366" lon="7.840298141854107"><ele>392.0</ele><time>2026-05-03T10:09:29.999Z</time></trkpt><trkpt lat="44.411216707037354" lon="7.8404682152548855"><ele>392.0</ele><time>2026-05-03T10:09:30.999Z</time></trkpt><trkpt lat="44.41135170233134" lon="7.8406453563565695"><ele>392.0</ele><time>2026-05-03T10:09:31.999Z</time></trkpt><trkpt lat="44.41148669820935" lon="7.840808005068713"><ele>392.0</ele><time>2026-05-03T10:09:32.999Z</time></trkpt><trkpt lat="44.41162579663343" lon="7.84095862672966"><ele>392.0</ele><time>2026-05-03T10:09:33.999Z</time></trkpt><trkpt lat="44.41176144059512" lon="7.84109830721513"><ele>392.0</ele><time>2026-05-03T10:09:34.999Z</time></trkpt><trkpt lat="44.411874899231975" lon="7.8412409558329985"><ele>392.0</ele><time>2026-05-03T10:09:35.999Z</time></trkpt><trkpt lat="44.41198906891558" lon="7.8413832884059795"><ele>392.0</ele><time>2026-05-03T10:09:36.999Z</time></trkpt><trkpt lat="44.41207978556927" lon="7.841500568016063"><ele>392.0</ele><time>2026-05-03T10:09:37.999Z</time></trkpt><trkpt lat="44.41215609689942" lon="7.841601155409806"><ele>392.20000000000005</ele><time>2026-05-03T10:09:38.999Z</time></trkpt><trkpt lat="44.41222396632813" lon="7.841726552395412"><ele>392.4</ele><time>2026-05-03T10:09:39.999Z</time></trkpt><trkpt lat="44.41227137050454" lon="7.84183749114706"><ele>392.6</ele><time>2026-05-03T10:09:40.999Z</time></trkpt><trkpt lat="44.41229036554808" lon="7.841946556814032"><ele>392.79999999999995</ele><time>2026-05-03T10:09:41.999Z</time></trkpt><trkpt lat="44.41233462216713" lon="7.84205245037191"><ele>393.0</ele><time>2026-05-03T10:09:42.999Z</time></trkpt><trkpt lat="44.41230401610069" lon="7.842176971752532"><ele>392.6666666666667</ele><time>2026-05-03T10:09:43.999Z</time></trkpt><trkpt lat="44.41230070233938" lon="7.842287398408537"><ele>392.33333333333337</ele><time>2026-05-03T10:09:44.999Z</time></trkpt><trkpt lat="44.412360662821335" lon="7.842443332527691"><ele>392.0</ele><time>2026-05-03T10:09:46.998Z</time></trkpt><trkpt lat="44.412425996797914" lon="7.84249019036004"><ele>391.6666666666667</ele><time>2026-05-03T10:09:47.998Z</time></trkpt><trkpt lat="44.412501370910206" lon="7.84250944461175"><ele>391.33333333333337</ele><time>2026-05-03T10:09:49Z</time></trkpt><trkpt lat="44.41258209886201" lon="7.8425002493225096"><ele>391.0</ele><time>2026-05-03T10:09:50Z</time></trkpt><trkpt lat="44.4126419193974" lon="7.842406497662309"><ele>391.0</ele><time>2026-05-03T10:09:51Z</time></trkpt><trkpt lat="44.41271283410692" lon="7.842304465858206"><ele>391.0</ele><time>2026-05-03T10:09:52Z</time></trkpt><trkpt lat="44.41273323029697" lon="7.84220471734694"><ele>391.0</ele><time>2026-05-03T10:09:53Z</time></trkpt><trkpt lat="44.41286817569955" lon="7.84220795773359"><ele>391.0</ele><time>2026-05-03T10:09:54Z</time></trkpt><trkpt lat="44.41296199228334" lon="7.842226376771667"><ele>391.0</ele><time>2026-05-03T10:09:55Z</time></trkpt><trkpt lat="44.41307183365828" lon="7.842273675582931"><ele>391.0</ele><time>2026-05-03T10:09:56Z</time></trkpt><trkpt lat="44.41318745566857" lon="7.842343928642232"><ele>391.0</ele><time>2026-05-03T10:09:57Z</time></trkpt><trkpt lat="44.41329425304373" lon="7.842418843009429"><ele>391.0</ele><time>2026-05-03T10:09:58Z</time></trkpt><trkpt lat="44.41342587021026" lon="7.84249469605525"><ele>391.0</ele><time>2026-05-03T10:09:59Z</time></trkpt><trkpt lat="44.41356807891258" lon="7.842583794524282"><ele>391.0</ele><time>2026-05-03T10:10:00Z</time></trkpt><trkpt lat="44.41371491643173" lon="7.842678598265594"><ele>391.0</ele><time>2026-05-03T10:10:01Z</time></trkpt><trkpt lat="44.41386247602418" lon="7.842775861529297"><ele>391.0</ele><time>2026-05-03T10:10:02Z</time></trkpt><trkpt lat="44.4140290937106" lon="7.842871141853554"><ele>391.0</ele><time>2026-05-03T10:10:03Z</time></trkpt><trkpt lat="44.41420409875612" lon="7.842973373033182"><ele>391.0</ele><time>2026-05-03T10:10:04Z</time></trkpt><trkpt lat="44.414383473409565" lon="7.843078912704471"><ele>391.0</ele><time>2026-05-03T10:10:05Z</time></trkpt><trkpt lat="44.414564495909886" lon="7.843184217531488"><ele>391.0</ele><time>2026-05-03T10:10:06Z</time></trkpt><trkpt lat="44.41475206450212" lon="7.843292975188294"><ele>391.0</ele><time>2026-05-03T10:10:07Z</time></trkpt><trkpt lat="44.41493624113541" lon="7.843403173844635"><ele>391.0</ele><time>2026-05-03T10:10:08Z</time></trkpt><trkpt lat="44.415107509878446" lon="7.843506196887975"><ele>391.0</ele><time>2026-05-03T10:10:09Z</time></trkpt><trkpt lat="44.41528331737036" lon="7.843614312015509"><ele>391.0</ele><time>2026-05-03T10:10:10Z</time></trkpt><trkpt lat="44.415466534423466" lon="7.8437362808338955"><ele>391.0</ele><time>2026-05-03T10:10:11Z</time></trkpt><trkpt lat="44.415633999026056" lon="7.843866121322263"><ele>391.0</ele><time>2026-05-03T10:10:12Z</time></trkpt><trkpt lat="44.41579919497403" lon="7.843995775139599"><ele>391.0</ele><time>2026-05-03T10:10:13Z</time></trkpt><trkpt lat="44.41596413855438" lon="7.844135606697851"><ele>391.0</ele><time>2026-05-03T10:10:14Z</time></trkpt><trkpt lat="44.41611731661666" lon="7.8442767071594375"><ele>390.33333333333337</ele><time>2026-05-03T10:10:15Z</time></trkpt><trkpt lat="44.41627491018753" lon="7.844419597718045"><ele>389.66666666666663</ele><time>2026-05-03T10:10:16Z</time></trkpt><trkpt lat="44.416436634251085" lon="7.844564804157472"><ele>389.0</ele><time>2026-05-03T10:10:17Z</time></trkpt><trkpt lat="44.41658267787976" lon="7.844697801787947"><ele>389.0</ele><time>2026-05-03T10:10:18Z</time></trkpt><trkpt lat="44.41675003921159" lon="7.844842472380209"><ele>389.0</ele><time>2026-05-03T10:10:19Z</time></trkpt><trkpt lat="44.41690769757597" lon="7.844981457731388"><ele>389.0</ele><time>2026-05-03T10:10:20Z</time></trkpt><trkpt lat="44.41705554515896" lon="7.845111173978986"><ele>389.66666666666663</ele><time>2026-05-03T10:10:21Z</time></trkpt><trkpt lat="44.41720341516187" lon="7.84523975485013"><ele>390.33333333333337</ele><time>2026-05-03T10:10:22Z</time></trkpt><trkpt lat="44.417361959413924" lon="7.845370728928677"><ele>391.0</ele><time>2026-05-03T10:10:23Z</time></trkpt><trkpt lat="44.417507053005515" lon="7.845496225338808"><ele>391.0</ele><time>2026-05-03T10:10:24Z</time></trkpt><trkpt lat="44.417655185200154" lon="7.845624172472596"><ele>391.0</ele><time>2026-05-03T10:10:25Z</time></trkpt><trkpt lat="44.4178023188154" lon="7.845748901723732"><ele>391.0</ele><time>2026-05-03T10:10:26Z</time></trkpt><trkpt lat="44.41795528654198" lon="7.845874049016732"><ele>390.6666666666667</ele><time>2026-05-03T10:10:27Z</time></trkpt><trkpt lat="44.418110268714166" lon="7.846023972284649"><ele>390.33333333333337</ele><time>2026-05-03T10:10:28Z</time></trkpt><trkpt lat="44.41827782142224" lon="7.846165638205198"><ele>390.0</ele><time>2026-05-03T10:10:29Z</time></trkpt><trkpt lat="44.418438648896455" lon="7.846290700507084"><ele>390.0</ele><time>2026-05-03T10:10:30Z</time></trkpt><trkpt lat="44.418576380739424" lon="7.846433347473482"><ele>390.0</ele><time>2026-05-03T10:10:31Z</time></trkpt><trkpt lat="44.418725481859106" lon="7.846543546425986"><ele>390.0</ele><time>2026-05-03T10:10:32Z</time></trkpt><trkpt lat="44.41884973337951" lon="7.846643314010027"><ele>390.0</ele><time>2026-05-03T10:10:33Z</time></trkpt><trkpt lat="44.41894109461917" lon="7.846733179244319"><ele>390.0</ele><time>2026-05-03T10:10:33.999Z</time></trkpt><trkpt lat="44.41901992008971" lon="7.846797954214575"><ele>390.0</ele><time>2026-05-03T10:10:34.999Z</time></trkpt><trkpt lat="44.41907812903512" lon="7.846873349932463"><ele>390.0</ele><time>2026-05-03T10:10:35.999Z</time></trkpt><trkpt lat="44.41912528533231" lon="7.846963566746576"><ele>390.0</ele><time>2026-05-03T10:10:36.999Z</time></trkpt><trkpt lat="44.41916138923504" lon="7.847082686812437"><ele>389.6666666666667</ele><time>2026-05-03T10:10:37.999Z</time></trkpt><trkpt lat="44.41913389505831" lon="7.847196129956309"><ele>389.33333333333337</ele><time>2026-05-03T10:10:38.999Z</time></trkpt><trkpt lat="44.4191414556061" lon="7.847300718195796"><ele>389.0</ele><time>2026-05-03T10:10:39.999Z</time></trkpt><trkpt lat="44.41917693160254" lon="7.847394214523501"><ele>388.6666666666667</ele><time>2026-05-03T10:10:40.999Z</time></trkpt><trkpt lat="44.41924582402196" lon="7.8474645236390765"><ele>388.33333333333337</ele><time>2026-05-03T10:10:41.999Z</time></trkpt><trkpt lat="44.419345298293095" lon="7.847459413916575"><ele>388.0</ele><time>2026-05-03T10:10:42.999Z</time></trkpt><trkpt lat="44.41945052707108" lon="7.847442668440554"><ele>388.0</ele><time>2026-05-03T10:10:43.999Z</time></trkpt><trkpt lat="44.419556570545105" lon="7.84746006985813"><ele>388.0</ele><time>2026-05-03T10:10:44.999Z</time></trkpt><trkpt lat="44.41967828404248" lon="7.84752434275009"><ele>388.0</ele><time>2026-05-03T10:10:45.999Z</time></trkpt><trkpt lat="44.41979732324189" lon="7.8476076142526106"><ele>388.0</ele><time>2026-05-03T10:10:46.999Z</time></trkpt><trkpt lat="44.41992361899797" lon="7.84770299850773"><ele>388.0</ele><time>2026-05-03T10:10:47.999Z</time></trkpt><trkpt lat="44.42004128992013" lon="7.847827632307424"><ele>388.0</ele><time>2026-05-03T10:10:48.999Z</time></trkpt><trkpt lat="44.42016392190461" lon="7.847963191532924"><ele>388.0</ele><time>2026-05-03T10:10:49.999Z</time></trkpt><trkpt lat="44.42027329931876" lon="7.848104528464258"><ele>388.0</ele><time>2026-05-03T10:10:50.999Z</time></trkpt><trkpt lat="44.420388974389404" lon="7.848242806007351"><ele>388.0</ele><time>2026-05-03T10:10:51.999Z</time></trkpt><trkpt lat="44.42049515619181" lon="7.84836332097774"><ele>388.0</ele><time>2026-05-03T10:10:52.999Z</time></trkpt><trkpt lat="44.42059453486512" lon="7.848474829295508"><ele>388.0</ele><time>2026-05-03T10:10:53.999Z</time></trkpt><trkpt lat="44.42068602233342" lon="7.848589432156184"><ele>387.59999999999997</ele><time>2026-05-03T10:10:54.999Z</time></trkpt><trkpt lat="44.420777461496435" lon="7.848687318211143"><ele>387.2</ele><time>2026-05-03T10:10:55.999Z</time></trkpt><trkpt lat="44.42086944567716" lon="7.848769325595056"><ele>386.8</ele><time>2026-05-03T10:10:56.999Z</time></trkpt><trkpt lat="44.420949493532625" lon="7.848834879246966"><ele>386.4</ele><time>2026-05-03T10:10:57.999Z</time></trkpt><trkpt lat="44.421031811563175" lon="7.848884628136981"><ele>386.0</ele><time>2026-05-03T10:10:58.999Z</time></trkpt><trkpt lat="44.421100499680605" lon="7.848906090689326"><ele>386.0</ele><time>2026-05-03T10:10:59.999Z</time></trkpt><trkpt lat="44.42121571148108" lon="7.848942429795741"><ele>386.0</ele><time>2026-05-03T10:11:01.999Z</time></trkpt><trkpt lat="44.421293501758115" lon="7.848986455948601"><ele>386.0</ele><time>2026-05-03T10:11:03.999Z</time></trkpt><trkpt lat="44.42138359531019" lon="7.849022408343004"><ele>386.0</ele><time>2026-05-03T10:11:06.999Z</time></trkpt><trkpt lat="44.42146800904082" lon="7.849076867178336"><ele>386.0</ele><time>2026-05-03T10:11:10.999Z</time></trkpt><trkpt lat="44.421511473952776" lon="7.84914305592564"><ele>385.8333333333333</ele><time>2026-05-03T10:11:14.999Z</time></trkpt><trkpt lat="44.42152455055454" lon="7.849231444907006"><ele>385.66666666666663</ele><time>2026-05-03T10:11:15.999Z</time></trkpt><trkpt lat="44.42152796453041" lon="7.8493234815427755"><ele>385.5</ele><time>2026-05-03T10:11:16.999Z</time></trkpt><trkpt lat="44.42157302104593" lon="7.849483493507661"><ele>385.33333333333337</ele><time>2026-05-03T10:11:18.999Z</time></trkpt><trkpt lat="44.42161297944284" lon="7.849564641260835"><ele>385.1666666666667</ele><time>2026-05-03T10:11:19.999Z</time></trkpt><trkpt lat="44.421688521353545" lon="7.849621214458289"><ele>385.0</ele><time>2026-05-03T10:11:20.999Z</time></trkpt><trkpt lat="44.42176236289282" lon="7.84965386038893"><ele>385.00000000000006</ele><time>2026-05-03T10:11:21.999Z</time></trkpt><trkpt lat="44.421840769053986" lon="7.849660188873415"><ele>385.0</ele><time>2026-05-03T10:11:22.999Z</time></trkpt><trkpt lat="44.42192339277482" lon="7.849630466156028"><ele>385.0</ele><time>2026-05-03T10:11:23.999Z</time></trkpt><trkpt lat="44.42199999648743" lon="7.8495664509518255"><ele>385.0</ele><time>2026-05-03T10:11:24.999Z</time></trkpt><trkpt lat="44.42207158813543" lon="7.849467805635426"><ele>385.00000000000006</ele><time>2026-05-03T10:11:25.999Z</time></trkpt><trkpt lat="44.42212192802948" lon="7.849372085421982"><ele>385.0</ele><time>2026-05-03T10:11:26.999Z</time></trkpt><trkpt lat="44.42215093904939" lon="7.849278161018027"><ele>385.0</ele><time>2026-05-03T10:11:27.999Z</time></trkpt><trkpt lat="44.42223853098725" lon="7.849245024839387"><ele>385.0</ele><time>2026-05-03T10:11:28.999Z</time></trkpt><trkpt lat="44.42232908631894" lon="7.849233156244047"><ele>385.0</ele><time>2026-05-03T10:11:29.999Z</time></trkpt><trkpt lat="44.42243431854416" lon="7.849262501624639"><ele>385.0</ele><time>2026-05-03T10:11:30.999Z</time></trkpt><trkpt lat="44.42254787554282" lon="7.849318027530214"><ele>385.0</ele><time>2026-05-03T10:11:31.999Z</time></trkpt><trkpt lat="44.422661792871956" lon="7.8494006748509495"><ele>385.0</ele><time>2026-05-03T10:11:32.999Z</time></trkpt><trkpt lat="44.42277061279159" lon="7.849511088399189"><ele>385.0</ele><time>2026-05-03T10:11:33.999Z</time></trkpt><trkpt lat="44.42286803431844" lon="7.849626033607049"><ele>385.0</ele><time>2026-05-03T10:11:34.999Z</time></trkpt><trkpt lat="44.42294446557898" lon="7.849752425683778"><ele>385.0</ele><time>2026-05-03T10:11:35.999Z</time></trkpt><trkpt lat="44.42299407053438" lon="7.84987039149323"><ele>384.75</ele><time>2026-05-03T10:11:36.999Z</time></trkpt><trkpt lat="44.42303963044316" lon="7.849984753488059"><ele>384.5</ele><time>2026-05-03T10:11:37.999Z</time></trkpt><trkpt lat="44.423092013820394" lon="7.850110914949598"><ele>384.25</ele><time>2026-05-03T10:11:38.999Z</time></trkpt><trkpt lat="44.423179074309985" lon="7.850224851674335"><ele>384.0</ele><time>2026-05-03T10:11:39.999Z</time></trkpt><trkpt lat="44.42329104238919" lon="7.8503295687078865"><ele>384.0</ele><time>2026-05-03T10:11:40.999Z</time></trkpt><trkpt lat="44.42340320047791" lon="7.850449753224135"><ele>384.0</ele><time>2026-05-03T10:11:41.999Z</time></trkpt><trkpt lat="44.423506838402545" lon="7.850599200059469"><ele>384.0</ele><time>2026-05-03T10:11:42.999Z</time></trkpt><trkpt lat="44.42360813325607" lon="7.850790367789026"><ele>384.0</ele><time>2026-05-03T10:11:43.998Z</time></trkpt><trkpt lat="44.42371002838924" lon="7.8509811906935525"><ele>384.0</ele><time>2026-05-03T10:11:44.998Z</time></trkpt><trkpt lat="44.42381175288998" lon="7.851193889111656"><ele>384.0</ele><time>2026-05-03T10:11:45.998Z</time></trkpt><trkpt lat="44.42391348527727" lon="7.851419288588951"><ele>383.6666666666667</ele><time>2026-05-03T10:11:46.998Z</time></trkpt><trkpt lat="44.424018889087044" lon="7.851661603871296"><ele>383.33333333333337</ele><time>2026-05-03T10:11:47.998Z</time></trkpt><trkpt lat="44.42412743832423" lon="7.851904528907393"><ele>383.0</ele><time>2026-05-03T10:11:48.998Z</time></trkpt><trkpt lat="44.424230587200775" lon="7.852132353962448"><ele>383.0</ele><time>2026-05-03T10:11:49.998Z</time></trkpt><trkpt lat="44.42433641047323" lon="7.852368984175921"><ele>383.0</ele><time>2026-05-03T10:11:50.998Z</time></trkpt><trkpt lat="44.42444092230529" lon="7.852580643445001"><ele>383.0</ele><time>2026-05-03T10:11:51.998Z</time></trkpt><trkpt lat="44.42454971104932" lon="7.8527813615758095"><ele>382.6666666666667</ele><time>2026-05-03T10:11:52.998Z</time></trkpt><trkpt lat="44.42466455460652" lon="7.8529536151625345"><ele>382.3333333333333</ele><time>2026-05-03T10:11:53.998Z</time></trkpt><trkpt lat="44.42478894118159" lon="7.853118059963912"><ele>382.0</ele><time>2026-05-03T10:11:55Z</time></trkpt><trkpt lat="44.42491434836099" lon="7.85326866493727"><ele>382.0</ele><time>2026-05-03T10:11:56Z</time></trkpt><trkpt lat="44.4250406805829" lon="7.853436028119804"><ele>382.0</ele><time>2026-05-03T10:11:57Z</time></trkpt><trkpt lat="44.42516251633707" lon="7.853603409908282"><ele>382.0</ele><time>2026-05-03T10:11:58Z</time></trkpt><trkpt lat="44.42527512994578" lon="7.853758590328795"><ele>382.3333333333333</ele><time>2026-05-03T10:11:59Z</time></trkpt><trkpt lat="44.42538696549921" lon="7.853900657877054"><ele>382.6666666666667</ele><time>2026-05-03T10:12:00Z</time></trkpt><trkpt lat="44.425504164900694" lon="7.854044578035445"><ele>383.0</ele><time>2026-05-03T10:12:01Z</time></trkpt><trkpt lat="44.425626235034294" lon="7.854199624803452"><ele>383.0</ele><time>2026-05-03T10:12:02Z</time></trkpt><trkpt lat="44.42574582120702" lon="7.854360500200762"><ele>383.0</ele><time>2026-05-03T10:12:03Z</time></trkpt><trkpt lat="44.425863694407916" lon="7.85451029674586"><ele>383.0</ele><time>2026-05-03T10:12:04Z</time></trkpt><trkpt lat="44.42597900485233" lon="7.854664526927273"><ele>383.0</ele><time>2026-05-03T10:12:05Z</time></trkpt><trkpt lat="44.42609142427583" lon="7.854807099174633"><ele>383.0</ele><time>2026-05-03T10:12:06Z</time></trkpt><trkpt lat="44.42621351753884" lon="7.854946276684329"><ele>383.0</ele><time>2026-05-03T10:12:07Z</time></trkpt><trkpt lat="44.426333505248714" lon="7.855121042680187"><ele>382.6666666666667</ele><time>2026-05-03T10:12:08Z</time></trkpt><trkpt lat="44.42645501000447" lon="7.855279264666"><ele>382.3333333333333</ele><time>2026-05-03T10:12:09Z</time></trkpt><trkpt lat="44.42658109628857" lon="7.85541836788894"><ele>382.0</ele><time>2026-05-03T10:12:10Z</time></trkpt><trkpt lat="44.426696047444786" lon="7.855591725732087"><ele>382.0</ele><time>2026-05-03T10:12:11Z</time></trkpt><trkpt lat="44.42681838299125" lon="7.855750079581036"><ele>382.0</ele><time>2026-05-03T10:12:12Z</time></trkpt><trkpt lat="44.4269525530929" lon="7.8559230075242334"><ele>382.0</ele><time>2026-05-03T10:12:13Z</time></trkpt><trkpt lat="44.42709611702554" lon="7.856078664471092"><ele>382.0</ele><time>2026-05-03T10:12:14Z</time></trkpt><trkpt lat="44.42722337513446" lon="7.856256594300132"><ele>382.0</ele><time>2026-05-03T10:12:15Z</time></trkpt><trkpt lat="44.427351507092006" lon="7.856427615564211"><ele>382.0</ele><time>2026-05-03T10:12:16Z</time></trkpt><trkpt lat="44.42749074989444" lon="7.8565985121251005"><ele>382.0</ele><time>2026-05-03T10:12:17Z</time></trkpt><trkpt lat="44.42762446721633" lon="7.856762524550864"><ele>382.0</ele><time>2026-05-03T10:12:18Z</time></trkpt><trkpt lat="44.42773235961406" lon="7.856924504590686"><ele>382.0</ele><time>2026-05-03T10:12:19Z</time></trkpt><trkpt lat="44.427863087736235" lon="7.857081595666421"><ele>381.0</ele><time>2026-05-03T10:12:20Z</time></trkpt><trkpt lat="44.42799503708144" lon="7.8572475559196295"><ele>380.0</ele><time>2026-05-03T10:12:21Z</time></trkpt><trkpt lat="44.4281421562512" lon="7.857419875263685"><ele>379.0</ele><time>2026-05-03T10:12:22Z</time></trkpt><trkpt lat="44.428287277441356" lon="7.857590809057386"><ele>379.0</ele><time>2026-05-03T10:12:23Z</time></trkpt><trkpt lat="44.42842695245171" lon="7.857754589532632"><ele>379.0</ele><time>2026-05-03T10:12:24Z</time></trkpt><trkpt lat="44.42856697942948" lon="7.857879402977917"><ele>379.0</ele><time>2026-05-03T10:12:25Z</time></trkpt><trkpt lat="44.428697414438425" lon="7.858025316665006"><ele>379.0</ele><time>2026-05-03T10:12:26Z</time></trkpt><trkpt lat="44.42882720626475" lon="7.858172676609444"><ele>379.0</ele><time>2026-05-03T10:12:27Z</time></trkpt><trkpt lat="44.428958733574405" lon="7.85832195576005"><ele>379.0</ele><time>2026-05-03T10:12:28Z</time></trkpt><trkpt lat="44.42909280211655" lon="7.858475370664477"><ele>379.0</ele><time>2026-05-03T10:12:29Z</time></trkpt><trkpt lat="44.42922120248651" lon="7.858628970687254"><ele>379.0</ele><time>2026-05-03T10:12:30Z</time></trkpt><trkpt lat="44.42935724248995" lon="7.858784851501147"><ele>379.0</ele><time>2026-05-03T10:12:31Z</time></trkpt><trkpt lat="44.4295037577542" lon="7.858949732243749"><ele>379.0</ele><time>2026-05-03T10:12:32Z</time></trkpt><trkpt lat="44.429640550514215" lon="7.859102110623858"><ele>379.0</ele><time>2026-05-03T10:12:33Z</time></trkpt><trkpt lat="44.42978334653192" lon="7.859251148553644"><ele>379.0</ele><time>2026-05-03T10:12:34Z</time></trkpt><trkpt lat="44.42992632110939" lon="7.859410895807936"><ele>379.3333333333333</ele><time>2026-05-03T10:12:35Z</time></trkpt><trkpt lat="44.43008260750672" lon="7.859562194391061"><ele>379.6666666666667</ele><time>2026-05-03T10:12:36Z</time></trkpt><trkpt lat="44.43023627334594" lon="7.859733198103393"><ele>380.0</ele><time>2026-05-03T10:12:37Z</time></trkpt><trkpt lat="44.43038198065653" lon="7.859924177898538"><ele>379.33333333333337</ele><time>2026-05-03T10:12:38Z</time></trkpt><trkpt lat="44.430545559310964" lon="7.86009221880442"><ele>378.6666666666667</ele><time>2026-05-03T10:12:39Z</time></trkpt><trkpt lat="44.430708749373416" lon="7.860288743599629"><ele>378.0</ele><time>2026-05-03T10:12:40Z</time></trkpt><trkpt lat="44.43087478938524" lon="7.86047973044144"><ele>378.0</ele><time>2026-05-03T10:12:41Z</time></trkpt><trkpt lat="44.43104377007628" lon="7.860677529015329"><ele>378.0</ele><time>2026-05-03T10:12:42Z</time></trkpt><trkpt lat="44.43121699353502" lon="7.860878559823344"><ele>378.0</ele><time>2026-05-03T10:12:43Z</time></trkpt><trkpt lat="44.431395017297625" lon="7.861084254566324"><ele>378.3333333333333</ele><time>2026-05-03T10:12:43.999Z</time></trkpt><trkpt lat="44.431575961561414" lon="7.8612747612176"><ele>378.66666666666663</ele><time>2026-05-03T10:12:44.999Z</time></trkpt><trkpt lat="44.43173890091769" lon="7.861455499350782"><ele>379.0</ele><time>2026-05-03T10:12:45.999Z</time></trkpt><trkpt lat="44.43189554557395" lon="7.861617021682625"><ele>378.66666666666663</ele><time>2026-05-03T10:12:46.999Z</time></trkpt><trkpt lat="44.432043412485534" lon="7.861783226026067"><ele>378.3333333333333</ele><time>2026-05-03T10:12:47.999Z</time></trkpt><trkpt lat="44.43219880539986" lon="7.8619593897201305"><ele>378.0</ele><time>2026-05-03T10:12:48.999Z</time></trkpt><trkpt lat="44.43236830146024" lon="7.862136962485018"><ele>377.6666666666667</ele><time>2026-05-03T10:12:49.999Z</time></trkpt><trkpt lat="44.43253523407067" lon="7.862339968741112"><ele>377.33333333333337</ele><time>2026-05-03T10:12:50.999Z</time></trkpt><trkpt lat="44.4327143823019" lon="7.862515342489842"><ele>377.0</ele><time>2026-05-03T10:12:51.999Z</time></trkpt><trkpt lat="44.43288783439182" lon="7.862718751323283"><ele>376.0</ele><time>2026-05-03T10:12:52.999Z</time></trkpt><trkpt lat="44.43306251147888" lon="7.862927375625154"><ele>375.0</ele><time>2026-05-03T10:12:53.999Z</time></trkpt><trkpt lat="44.43323854346811" lon="7.863143993034608"><ele>375.0</ele><time>2026-05-03T10:12:54.999Z</time></trkpt><trkpt lat="44.4334144962683" lon="7.863347228504941"><ele>375.0</ele><time>2026-05-03T10:12:55.999Z</time></trkpt><trkpt lat="44.4336020927326" lon="7.863560905992427"><ele>375.0</ele><time>2026-05-03T10:12:56.999Z</time></trkpt><trkpt lat="44.433790920048814" lon="7.863765741329101"><ele>375.0</ele><time>2026-05-03T10:12:57.999Z</time></trkpt><trkpt lat="44.43398068351906" lon="7.863974398162412"><ele>374.5</ele><time>2026-05-03T10:12:58.999Z</time></trkpt><trkpt lat="44.434154913741004" lon="7.864193410808828"><ele>374.0</ele><time>2026-05-03T10:12:59.999Z</time></trkpt><trkpt lat="44.434334591649026" lon="7.86441029457348"><ele>374.0</ele><time>2026-05-03T10:13:00.999Z</time></trkpt><trkpt lat="44.43452156753213" lon="7.864617021702743"><ele>374.0</ele><time>2026-05-03T10:13:01.999Z</time></trkpt><trkpt lat="44.43470012207135" lon="7.864826641448183"><ele>374.0</ele><time>2026-05-03T10:13:02.999Z</time></trkpt><trkpt lat="44.43488913887713" lon="7.8650217511153"><ele>374.0</ele><time>2026-05-03T10:13:03.999Z</time></trkpt><trkpt lat="44.43506849549432" lon="7.865223254542363"><ele>374.0</ele><time>2026-05-03T10:13:04.999Z</time></trkpt><trkpt lat="44.435253028873944" lon="7.8654076240162984"><ele>374.0</ele><time>2026-05-03T10:13:05.999Z</time></trkpt><trkpt lat="44.43543710534169" lon="7.865602983068938"><ele>374.0</ele><time>2026-05-03T10:13:06.999Z</time></trkpt><trkpt lat="44.4356157290353" lon="7.865820299422158"><ele>374.0</ele><time>2026-05-03T10:13:07.999Z</time></trkpt><trkpt lat="44.435810224741026" lon="7.866029011785982"><ele>374.0</ele><time>2026-05-03T10:13:08.999Z</time></trkpt><trkpt lat="44.4360066632322" lon="7.866248497871045"><ele>374.0</ele><time>2026-05-03T10:13:09.999Z</time></trkpt><trkpt lat="44.436193769687065" lon="7.866465376024196"><ele>374.0</ele><time>2026-05-03T10:13:10.999Z</time></trkpt><trkpt lat="44.43638904013626" lon="7.866688611672274"><ele>374.0</ele><time>2026-05-03T10:13:11.999Z</time></trkpt><trkpt lat="44.43658832607634" lon="7.866908030051533"><ele>373.5</ele><time>2026-05-03T10:13:12.999Z</time></trkpt><trkpt lat="44.43678580524754" lon="7.867128370718984"><ele>373.0</ele><time>2026-05-03T10:13:13.999Z</time></trkpt><trkpt lat="44.436986055082016" lon="7.867353239469599"><ele>373.0</ele><time>2026-05-03T10:13:14.999Z</time></trkpt><trkpt lat="44.437191549114054" lon="7.867573429594412"><ele>373.0</ele><time>2026-05-03T10:13:15.999Z</time></trkpt><trkpt lat="44.43738701421342" lon="7.867800011865189"><ele>372.0</ele><time>2026-05-03T10:13:16.999Z</time></trkpt><trkpt lat="44.43758976337666" lon="7.86802085603522"><ele>371.0</ele><time>2026-05-03T10:13:17.999Z</time></trkpt><trkpt lat="44.43779119409364" lon="7.868232154277937"><ele>371.0</ele><time>2026-05-03T10:13:18.999Z</time></trkpt><trkpt lat="44.43800218474327" lon="7.868442185529533"><ele>371.0</ele><time>2026-05-03T10:13:19.999Z</time></trkpt><trkpt lat="44.43820868376587" lon="7.868616275980628"><ele>371.0</ele><time>2026-05-03T10:13:20.999Z</time></trkpt><trkpt lat="44.43841892228725" lon="7.868817048182849"><ele>371.0</ele><time>2026-05-03T10:13:21.999Z</time></trkpt><trkpt lat="44.43863827295929" lon="7.869004424402209"><ele>371.0</ele><time>2026-05-03T10:13:22.999Z</time></trkpt><trkpt lat="44.43885668814172" lon="7.869185788888193"><ele>371.0</ele><time>2026-05-03T10:13:23.999Z</time></trkpt><trkpt lat="44.439080105578306" lon="7.869373351503554"><ele>371.0</ele><time>2026-05-03T10:13:24.999Z</time></trkpt><trkpt lat="44.43929432028397" lon="7.869545571770844"><ele>371.0</ele><time>2026-05-03T10:13:25.999Z</time></trkpt><trkpt lat="44.4395155001997" lon="7.869716498975035"><ele>371.0</ele><time>2026-05-03T10:13:26.999Z</time></trkpt><trkpt lat="44.43973940820016" lon="7.869872288247191"><ele>371.0</ele><time>2026-05-03T10:13:27.999Z</time></trkpt><trkpt lat="44.439954531396566" lon="7.87003503041991"><ele>371.0</ele><time>2026-05-03T10:13:28.999Z</time></trkpt><trkpt lat="44.44018120173228" lon="7.870205428444651"><ele>371.0</ele><time>2026-05-03T10:13:29.999Z</time></trkpt><trkpt lat="44.440412499635094" lon="7.870367206870952"><ele>370.5</ele><time>2026-05-03T10:13:30.999Z</time></trkpt><trkpt lat="44.44063908877834" lon="7.870535728021624"><ele>370.0</ele><time>2026-05-03T10:13:31.999Z</time></trkpt><trkpt lat="44.44086527634746" lon="7.870714674884898"><ele>370.0</ele><time>2026-05-03T10:13:32.999Z</time></trkpt><trkpt lat="44.44109099533954" lon="7.870889158065109"><ele>370.0</ele><time>2026-05-03T10:13:33.999Z</time></trkpt><trkpt lat="44.441312132761766" lon="7.871058697798457"><ele>366.5</ele><time>2026-05-03T10:13:34.999Z</time></trkpt><trkpt lat="44.44152560915045" lon="7.871213098334825"><ele>363.0</ele><time>2026-05-03T10:13:35.999Z</time></trkpt><trkpt lat="44.44173385281593" lon="7.871372426919916"><ele>363.0</ele><time>2026-05-03T10:13:36.999Z</time></trkpt><trkpt lat="44.441940976352306" lon="7.8715278893193075"><ele>363.0</ele><time>2026-05-03T10:13:37.999Z</time></trkpt><trkpt lat="44.44214071545209" lon="7.871683233349191"><ele>360.0</ele><time>2026-05-03T10:13:38.999Z</time></trkpt><trkpt lat="44.442339668814284" lon="7.871837064846457"><ele>357.0</ele><time>2026-05-03T10:13:39.999Z</time></trkpt><trkpt lat="44.442542045515225" lon="7.871999035858788"><ele>357.0</ele><time>2026-05-03T10:13:40.999Z</time></trkpt><trkpt lat="44.44274697338005" lon="7.8721535437035595"><ele>357.0</ele><time>2026-05-03T10:13:41.999Z</time></trkpt><trkpt lat="44.44294977711261" lon="7.87234532052624"><ele>356.0</ele><time>2026-05-03T10:13:42.999Z</time></trkpt><trkpt lat="44.443141265903954" lon="7.872517430117203"><ele>355.0</ele><time>2026-05-03T10:13:43.999Z</time></trkpt><trkpt lat="44.44332284124899" lon="7.8726790287926685"><ele>354.0</ele><time>2026-05-03T10:13:44.999Z</time></trkpt><trkpt lat="44.44350757147173" lon="7.872853945326297"><ele>350.3333333333333</ele><time>2026-05-03T10:13:45.999Z</time></trkpt><trkpt lat="44.443682923155784" lon="7.87302615117275"><ele>346.66666666666663</ele><time>2026-05-03T10:13:46.999Z</time></trkpt><trkpt lat="44.44385372677658" lon="7.873196067224831"><ele>343.0</ele><time>2026-05-03T10:13:47.999Z</time></trkpt><trkpt lat="44.44402569984577" lon="7.873361655075983"><ele>338.0</ele><time>2026-05-03T10:13:48.999Z</time></trkpt><trkpt lat="44.444182211799514" lon="7.87351503417935"><ele>333.0</ele><time>2026-05-03T10:13:49.999Z</time></trkpt><trkpt lat="44.44434045197774" lon="7.873677507694746"><ele>328.0</ele><time>2026-05-03T10:13:50.999Z</time></trkpt><trkpt lat="44.44448589526353" lon="7.873835166615124"><ele>328.0</ele><time>2026-05-03T10:13:51.999Z</time></trkpt><trkpt lat="44.44462610136741" lon="7.8739808456148666"><ele>328.0</ele><time>2026-05-03T10:13:52.999Z</time></trkpt><trkpt lat="44.444766046535406" lon="7.874128156783574"><ele>328.0</ele><time>2026-05-03T10:13:53.998Z</time></trkpt><trkpt lat="44.44489101016996" lon="7.87428526807284"><ele>328.0</ele><time>2026-05-03T10:13:54.998Z</time></trkpt><trkpt lat="44.444995263409204" lon="7.87446641889322"><ele>328.0</ele><time>2026-05-03T10:13:55.998Z</time></trkpt><trkpt lat="44.4450959237495" lon="7.874660610802831"><ele>328.0</ele><time>2026-05-03T10:13:56.998Z</time></trkpt><trkpt lat="44.44518853323062" lon="7.8748747075697505"><ele>328.0</ele><time>2026-05-03T10:13:57.998Z</time></trkpt><trkpt lat="44.445270075131155" lon="7.8750932429471705"><ele>328.0</ele><time>2026-05-03T10:13:58.998Z</time></trkpt><trkpt lat="44.44534230173782" lon="7.875330965109005"><ele>328.0</ele><time>2026-05-03T10:13:59.998Z</time></trkpt><trkpt lat="44.4454111191165" lon="7.875588080063492"><ele>330.0</ele><time>2026-05-03T10:14:01Z</time></trkpt><trkpt lat="44.44547279795351" lon="7.875845207374094"><ele>332.0</ele><time>2026-05-03T10:14:02Z</time></trkpt><trkpt lat="44.445514964701886" lon="7.8760989995835535"><ele>334.0</ele><time>2026-05-03T10:14:03Z</time></trkpt><trkpt lat="44.44555770539459" lon="7.876343052457191"><ele>334.0</ele><time>2026-05-03T10:14:04Z</time></trkpt><trkpt lat="44.44559820899641" lon="7.876561687391836"><ele>334.0</ele><time>2026-05-03T10:14:05Z</time></trkpt><trkpt lat="44.44564408151959" lon="7.876772823154222"><ele>334.0</ele><time>2026-05-03T10:14:06Z</time></trkpt><trkpt lat="44.44569268523188" lon="7.876981325156175"><ele>329.66666666666663</ele><time>2026-05-03T10:14:07Z</time></trkpt><trkpt lat="44.44576274450765" lon="7.877191349414856"><ele>325.3333333333333</ele><time>2026-05-03T10:14:08Z</time></trkpt><trkpt lat="44.44583561530888" lon="7.877398958213154"><ele>321.0</ele><time>2026-05-03T10:14:09Z</time></trkpt><trkpt lat="44.445927112973926" lon="7.877586658328108"><ele>322.3333333333333</ele><time>2026-05-03T10:14:10Z</time></trkpt><trkpt lat="44.446047021733186" lon="7.877759546615208"><ele>323.66666666666663</ele><time>2026-05-03T10:14:11Z</time></trkpt><trkpt lat="44.44618768091979" lon="7.87792753448983"><ele>325.0</ele><time>2026-05-03T10:14:12Z</time></trkpt><trkpt lat="44.4463436571349" lon="7.8780891702395905"><ele>325.0</ele><time>2026-05-03T10:14:13Z</time></trkpt><trkpt lat="44.446485844558275" lon="7.878267172990298"><ele>325.0</ele><time>2026-05-03T10:14:14Z</time></trkpt><trkpt lat="44.44662411180274" lon="7.8784326158262905"><ele>325.0</ele><time>2026-05-03T10:14:15Z</time></trkpt><trkpt lat="44.44675441303012" lon="7.878603859509496"><ele>317.66666666666663</ele><time>2026-05-03T10:14:16Z</time></trkpt><trkpt lat="44.44687543317377" lon="7.878796229554689"><ele>310.3333333333333</ele><time>2026-05-03T10:14:17Z</time></trkpt><trkpt lat="44.44697431338656" lon="7.8790198019176705"><ele>303.0</ele><time>2026-05-03T10:14:18Z</time></trkpt><trkpt lat="44.44704994753913" lon="7.87925596899397"><ele>300.6666666666667</ele><time>2026-05-03T10:14:19Z</time></trkpt><trkpt lat="44.44710484863574" lon="7.879521506828642"><ele>298.33333333333337</ele><time>2026-05-03T10:14:20Z</time></trkpt><trkpt lat="44.44713344957053" lon="7.879810594399907"><ele>296.0</ele><time>2026-05-03T10:14:21Z</time></trkpt><trkpt lat="44.4471428895672" lon="7.880113021276213"><ele>306.0</ele><time>2026-05-03T10:14:22Z</time></trkpt><trkpt lat="44.44716561623493" lon="7.88042269670695"><ele>316.0</ele><time>2026-05-03T10:14:23Z</time></trkpt><trkpt lat="44.44716239007617" lon="7.880743202191955"><ele>312.5</ele><time>2026-05-03T10:14:24Z</time></trkpt><trkpt lat="44.44717381814505" lon="7.881075759730329"><ele>309.0</ele><time>2026-05-03T10:14:25Z</time></trkpt><trkpt lat="44.44718850638865" lon="7.8814085701127725"><ele>309.0</ele><time>2026-05-03T10:14:26Z</time></trkpt><trkpt lat="44.44720951774701" lon="7.88176194239293"><ele>309.0</ele><time>2026-05-03T10:14:27Z</time></trkpt><trkpt lat="44.44722374983709" lon="7.882111479871274"><ele>307.5</ele><time>2026-05-03T10:14:28Z</time></trkpt><trkpt lat="44.44724889063314" lon="7.88246917496534"><ele>306.0</ele><time>2026-05-03T10:14:29Z</time></trkpt><trkpt lat="44.44727009662787" lon="7.882822995515106"><ele>304.0</ele><time>2026-05-03T10:14:30Z</time></trkpt><trkpt lat="44.44729400015509" lon="7.883138864953436"><ele>302.0</ele><time>2026-05-03T10:14:31Z</time></trkpt><trkpt lat="44.44733719795393" lon="7.883450958479806"><ele>299.6666666666667</ele><time>2026-05-03T10:14:32Z</time></trkpt><trkpt lat="44.44737702432717" lon="7.883761656908276"><ele>297.3333333333333</ele><time>2026-05-03T10:14:33Z</time></trkpt><trkpt lat="44.447443107098756" lon="7.884042801229193"><ele>295.0</ele><time>2026-05-03T10:14:34Z</time></trkpt><trkpt lat="44.4475258553776" lon="7.884308195654286"><ele>294.3333333333333</ele><time>2026-05-03T10:14:35Z</time></trkpt><trkpt lat="44.44760565015875" lon="7.8845415024976555"><ele>293.6666666666667</ele><time>2026-05-03T10:14:36Z</time></trkpt><trkpt lat="44.447687148731916" lon="7.884751892388046"><ele>293.0</ele><time>2026-05-03T10:14:37Z</time></trkpt><trkpt lat="44.44776225124045" lon="7.88497819995999"><ele>292.0</ele><time>2026-05-03T10:14:38Z</time></trkpt><trkpt lat="44.44785737440554" lon="7.885194776511265"><ele>291.0</ele><time>2026-05-03T10:14:39Z</time></trkpt><trkpt lat="44.44795217118176" lon="7.88542142565012"><ele>290.0</ele><time>2026-05-03T10:14:40Z</time></trkpt><trkpt lat="44.44807462017134" lon="7.8856517949335405"><ele>291.0</ele><time>2026-05-03T10:14:41Z</time></trkpt><trkpt lat="44.44818295704746" lon="7.885893011383681"><ele>292.0</ele><time>2026-05-03T10:14:42Z</time></trkpt><trkpt lat="44.44831108857716" lon="7.88614413221646"><ele>293.0</ele><time>2026-05-03T10:14:43Z</time></trkpt><trkpt lat="44.44843559467618" lon="7.886384436290008"><ele>293.0</ele><time>2026-05-03T10:14:44Z</time></trkpt><trkpt lat="44.44856471508894" lon="7.8866401110651765"><ele>293.0</ele><time>2026-05-03T10:14:45Z</time></trkpt><trkpt lat="44.44869450175933" lon="7.886902045452382"><ele>292.0</ele><time>2026-05-03T10:14:46Z</time></trkpt><trkpt lat="44.44882841688751" lon="7.88717420481359"><ele>291.0</ele><time>2026-05-03T10:14:47Z</time></trkpt><trkpt lat="44.44896050553828" lon="7.88744890638681"><ele>292.0</ele><time>2026-05-03T10:14:48Z</time></trkpt><trkpt lat="44.449100955860466" lon="7.887729893052921"><ele>293.0</ele><time>2026-05-03T10:14:49Z</time></trkpt><trkpt lat="44.44924488220262" lon="7.888017166751878"><ele>293.0</ele><time>2026-05-03T10:14:50Z</time></trkpt><trkpt lat="44.44939587639335" lon="7.888311930077615"><ele>293.0</ele><time>2026-05-03T10:14:51Z</time></trkpt><trkpt lat="44.44954324203692" lon="7.8886146826921335"><ele>290.0</ele><time>2026-05-03T10:14:52Z</time></trkpt><trkpt lat="44.44969311536531" lon="7.888920486834825"><ele>287.0</ele><time>2026-05-03T10:14:53Z</time></trkpt><trkpt lat="44.449839474222486" lon="7.889231972909879"><ele>288.0</ele><time>2026-05-03T10:14:54Z</time></trkpt><trkpt lat="44.4499967238743" lon="7.88954014461068"><ele>289.0</ele><time>2026-05-03T10:14:55Z</time></trkpt><trkpt lat="44.450141066528865" lon="7.889825062493301"><ele>288.5</ele><time>2026-05-03T10:14:55.999Z</time></trkpt><trkpt lat="44.45027434498755" lon="7.890093659286701"><ele>288.0</ele><time>2026-05-03T10:14:56.999Z</time></trkpt><trkpt lat="44.45040817869839" lon="7.890346641827705"><ele>286.6666666666667</ele><time>2026-05-03T10:14:57.999Z</time></trkpt><trkpt lat="44.45053259910505" lon="7.890598223521052"><ele>285.33333333333337</ele><time>2026-05-03T10:14:58.999Z</time></trkpt><trkpt lat="44.45065232947431" lon="7.890839332297028"><ele>284.0</ele><time>2026-05-03T10:14:59.999Z</time></trkpt><trkpt lat="44.45075314741824" lon="7.891072974428392"><ele>284.0</ele><time>2026-05-03T10:15:00.999Z</time></trkpt><trkpt lat="44.450856905256565" lon="7.891257987543159"><ele>284.0</ele><time>2026-05-03T10:15:01.999Z</time></trkpt><trkpt lat="44.45094402750335" lon="7.891449154905764"><ele>284.0</ele><time>2026-05-03T10:15:02.999Z</time></trkpt><trkpt lat="44.451024822152" lon="7.891615248811666"><ele>284.0</ele><time>2026-05-03T10:15:03.999Z</time></trkpt><trkpt lat="44.45109934809635" lon="7.891764575566254"><ele>284.0</ele><time>2026-05-03T10:15:04.999Z</time></trkpt><trkpt lat="44.451153777525825" lon="7.891887150828668"><ele>284.0</ele><time>2026-05-03T10:15:05.999Z</time></trkpt><trkpt lat="44.45119879286091" lon="7.892017140821223"><ele>284.0</ele><time>2026-05-03T10:15:06.999Z</time></trkpt><trkpt lat="44.45123018392753" lon="7.892156344852072"><ele>284.0</ele><time>2026-05-03T10:15:07.999Z</time></trkpt><trkpt lat="44.451241383054466" lon="7.892295611505664"><ele>284.0</ele><time>2026-05-03T10:15:08.999Z</time></trkpt><trkpt lat="44.45124741031067" lon="7.8924297802342105"><ele>284.0</ele><time>2026-05-03T10:15:09.999Z</time></trkpt><trkpt lat="44.45125288574762" lon="7.892544221867762"><ele>284.0</ele><time>2026-05-03T10:15:10.999Z</time></trkpt><trkpt lat="44.45128479290466" lon="7.8926474047444435"><ele>284.0</ele><time>2026-05-03T10:15:11.999Z</time></trkpt><trkpt lat="44.451326983324385" lon="7.892730997438047"><ele>284.0</ele><time>2026-05-03T10:15:12.999Z</time></trkpt><trkpt lat="44.45138378390278" lon="7.892793537747795"><ele>284.0</ele><time>2026-05-03T10:15:13.999Z</time></trkpt><trkpt lat="44.45145880129999" lon="7.89282488702051"><ele>283.8</ele><time>2026-05-03T10:15:14.999Z</time></trkpt><trkpt lat="44.45155257641548" lon="7.892800269490542"><ele>283.59999999999997</ele><time>2026-05-03T10:15:15.999Z</time></trkpt><trkpt lat="44.45164769059901" lon="7.892752654083963"><ele>283.4</ele><time>2026-05-03T10:15:16.999Z</time></trkpt><trkpt lat="44.451750674796024" lon="7.892695219990588"><ele>283.2</ele><time>2026-05-03T10:15:17.999Z</time></trkpt><trkpt lat="44.45186972841728" lon="7.892627981020772"><ele>283.0</ele><time>2026-05-03T10:15:18.999Z</time></trkpt><trkpt lat="44.452008459921515" lon="7.89256428576647"><ele>282.0</ele><time>2026-05-03T10:15:19.999Z</time></trkpt><trkpt lat="44.4521620162225" lon="7.892509390597002"><ele>281.0</ele><time>2026-05-03T10:15:20.999Z</time></trkpt><trkpt lat="44.452313939348905" lon="7.892460797323824"><ele>280.0</ele><time>2026-05-03T10:15:21.999Z</time></trkpt><trkpt lat="44.45248105270209" lon="7.892410694475186"><ele>280.0</ele><time>2026-05-03T10:15:22.999Z</time></trkpt><trkpt lat="44.4526577879132" lon="7.8923398055104546"><ele>280.0</ele><time>2026-05-03T10:15:23.999Z</time></trkpt><trkpt lat="44.45284029744207" lon="7.892270840657564"><ele>280.0</ele><time>2026-05-03T10:15:24.999Z</time></trkpt><trkpt lat="44.45303269781645" lon="7.892208008610458"><ele>279.3333333333333</ele><time>2026-05-03T10:15:25.999Z</time></trkpt><trkpt lat="44.453230212069094" lon="7.892142372383822"><ele>278.6666666666667</ele><time>2026-05-03T10:15:26.999Z</time></trkpt><trkpt lat="44.45343657055384" lon="7.892076111825194"><ele>278.0</ele><time>2026-05-03T10:15:27.999Z</time></trkpt><trkpt lat="44.45364585709767" lon="7.891999703943904"><ele>279.6666666666667</ele><time>2026-05-03T10:15:28.999Z</time></trkpt><trkpt lat="44.453862878508495" lon="7.891930787930327"><ele>281.3333333333333</ele><time>2026-05-03T10:15:29.999Z</time></trkpt><trkpt lat="44.45407547652486" lon="7.891857294937022"><ele>283.0</ele><time>2026-05-03T10:15:30.999Z</time></trkpt><trkpt lat="44.45429915557559" lon="7.891779726112661"><ele>282.5</ele><time>2026-05-03T10:15:31.999Z</time></trkpt><trkpt lat="44.454527437309125" lon="7.891705828178137"><ele>282.0</ele><time>2026-05-03T10:15:32.999Z</time></trkpt><trkpt lat="44.45476128059444" lon="7.891627448960435"><ele>283.5</ele><time>2026-05-03T10:15:33.999Z</time></trkpt><trkpt lat="44.45500542000519" lon="7.891545524495176"><ele>285.0</ele><time>2026-05-03T10:15:34.999Z</time></trkpt><trkpt lat="44.45525146938435" lon="7.89146426995119"><ele>283.5</ele><time>2026-05-03T10:15:35.999Z</time></trkpt><trkpt lat="44.45550388333667" lon="7.891382065389395"><ele>282.0</ele><time>2026-05-03T10:15:36.999Z</time></trkpt><trkpt lat="44.45576319100803" lon="7.891297527560097"><ele>282.0</ele><time>2026-05-03T10:15:37.999Z</time></trkpt><trkpt lat="44.45602734963171" lon="7.891205584928236"><ele>282.0</ele><time>2026-05-03T10:15:38.999Z</time></trkpt><trkpt lat="44.45629443024415" lon="7.891117817903199"><ele>278.5</ele><time>2026-05-03T10:15:39.999Z</time></trkpt><trkpt lat="44.456565696864274" lon="7.891026461187198"><ele>275.0</ele><time>2026-05-03T10:15:40.999Z</time></trkpt><trkpt lat="44.45683916430784" lon="7.890935707302815"><ele>275.5</ele><time>2026-05-03T10:15:41.999Z</time></trkpt><trkpt lat="44.457075724892675" lon="7.89085867236758"><ele>276.0</ele><time>2026-05-03T10:15:42.999Z</time></trkpt><trkpt lat="44.457276446393344" lon="7.890779723034487"><ele>274.6666666666667</ele><time>2026-05-03T10:15:43.999Z</time></trkpt><trkpt lat="44.45749982835291" lon="7.890705602860742"><ele>273.33333333333337</ele><time>2026-05-03T10:15:44.999Z</time></trkpt><trkpt lat="44.45768152143147" lon="7.89062618760508"><ele>272.0</ele><time>2026-05-03T10:15:45.999Z</time></trkpt><trkpt lat="44.45788553314967" lon="7.8905328043340965"><ele>272.33333333333337</ele><time>2026-05-03T10:15:46.999Z</time></trkpt><trkpt lat="44.45810867553438" lon="7.890457181559306"><ele>272.6666666666667</ele><time>2026-05-03T10:15:47.999Z</time></trkpt><trkpt lat="44.458297933189776" lon="7.890381567713066"><ele>273.0</ele><time>2026-05-03T10:15:48.999Z</time></trkpt><trkpt lat="44.45848778125848" lon="7.890310468058963"><ele>273.0</ele><time>2026-05-03T10:15:49.999Z</time></trkpt><trkpt lat="44.45868788190539" lon="7.8902381029702084"><ele>273.0</ele><time>2026-05-03T10:15:50.999Z</time></trkpt><trkpt lat="44.45888338442536" lon="7.890155611943474"><ele>273.0</ele><time>2026-05-03T10:15:51.999Z</time></trkpt><trkpt lat="44.4590704040498" lon="7.890088591572982"><ele>274.3333333333333</ele><time>2026-05-03T10:15:52.999Z</time></trkpt><trkpt lat="44.45925274549854" lon="7.889961247042094"><ele>275.66666666666663</ele><time>2026-05-03T10:15:53.999Z</time></trkpt><trkpt lat="44.45944392127161" lon="7.889851102644018"><ele>277.0</ele><time>2026-05-03T10:15:54.999Z</time></trkpt><trkpt lat="44.4596296918611" lon="7.889704762278537"><ele>277.0</ele><time>2026-05-03T10:15:55.999Z</time></trkpt><trkpt lat="44.45982076649569" lon="7.8895337098213405"><ele>277.0</ele><time>2026-05-03T10:15:56.999Z</time></trkpt><trkpt lat="44.45999374703563" lon="7.88935713410521"><ele>277.0</ele><time>2026-05-03T10:15:57.999Z</time></trkpt><trkpt lat="44.46017111477089" lon="7.889155088392313"><ele>277.66666666666663</ele><time>2026-05-03T10:15:58.999Z</time></trkpt><trkpt lat="44.460335934693305" lon="7.888953684792028"><ele>278.3333333333333</ele><time>2026-05-03T10:15:59.999Z</time></trkpt><trkpt lat="44.46049856621504" lon="7.88872728925929"><ele>279.0</ele><time>2026-05-03T10:16:00.999Z</time></trkpt><trkpt lat="44.46067745742882" lon="7.888509050306052"><ele>280.0</ele><time>2026-05-03T10:16:01.999Z</time></trkpt><trkpt lat="44.46085223580601" lon="7.88830124989256"><ele>281.0</ele><time>2026-05-03T10:16:02.998Z</time></trkpt><trkpt lat="44.46102677996688" lon="7.888088904025946"><ele>281.0</ele><time>2026-05-03T10:16:03.998Z</time></trkpt><trkpt lat="44.46121080368256" lon="7.8878707522004845"><ele>281.0</ele><time>2026-05-03T10:16:04.998Z</time></trkpt><trkpt lat="44.46139491514191" lon="7.887646408325053"><ele>281.33333333333337</ele><time>2026-05-03T10:16:05.998Z</time></trkpt><trkpt lat="44.461571578317894" lon="7.887432541612856"><ele>281.6666666666667</ele><time>2026-05-03T10:16:07Z</time></trkpt><trkpt lat="44.461730266516874" lon="7.887228903341907"><ele>282.0</ele><time>2026-05-03T10:16:08Z</time></trkpt><trkpt lat="44.46189598471235" lon="7.887033168568832"><ele>282.0</ele><time>2026-05-03T10:16:09Z</time></trkpt><trkpt lat="44.462053952864586" lon="7.8868363913871695"><ele>282.0</ele><time>2026-05-03T10:16:10Z</time></trkpt><trkpt lat="44.46221257012327" lon="7.88663845356187"><ele>282.0</ele><time>2026-05-03T10:16:11Z</time></trkpt><trkpt lat="44.46237282428518" lon="7.886447136824014"><ele>283.3333333333333</ele><time>2026-05-03T10:16:12Z</time></trkpt><trkpt lat="44.46253087139809" lon="7.886254554457994"><ele>284.66666666666663</ele><time>2026-05-03T10:16:13Z</time></trkpt><trkpt lat="44.46269128667001" lon="7.886054306101462"><ele>286.0</ele><time>2026-05-03T10:16:14Z</time></trkpt><trkpt lat="44.46284861066889" lon="7.885858754236067"><ele>281.66666666666663</ele><time>2026-05-03T10:16:15Z</time></trkpt><trkpt lat="44.46301997851189" lon="7.88566343147318"><ele>277.3333333333333</ele><time>2026-05-03T10:16:16Z</time></trkpt><trkpt lat="44.46319458630749" lon="7.885488479573676"><ele>273.0</ele><time>2026-05-03T10:16:17Z</time></trkpt><trkpt lat="44.4633739532061" lon="7.88531226510251"><ele>273.0</ele><time>2026-05-03T10:16:18Z</time></trkpt><trkpt lat="44.46356298369265" lon="7.88514340478668"><ele>273.0</ele><time>2026-05-03T10:16:19Z</time></trkpt><trkpt lat="44.46375699305214" lon="7.884980166052606"><ele>274.3333333333333</ele><time>2026-05-03T10:16:20Z</time></trkpt><trkpt lat="44.46395782525304" lon="7.884848166865472"><ele>275.66666666666663</ele><time>2026-05-03T10:16:21Z</time></trkpt><trkpt lat="44.46415929950005" lon="7.884719369944988"><ele>277.0</ele><time>2026-05-03T10:16:22Z</time></trkpt><trkpt lat="44.464368464373976" lon="7.884597333925099"><ele>277.0</ele><time>2026-05-03T10:16:23Z</time></trkpt><trkpt lat="44.46458129294319" lon="7.884486959163195"><ele>277.0</ele><time>2026-05-03T10:16:24Z</time></trkpt><trkpt lat="44.46479729584647" lon="7.8843861114534475"><ele>276.0</ele><time>2026-05-03T10:16:25Z</time></trkpt><trkpt lat="44.46501925895291" lon="7.884302428400787"><ele>275.0</ele><time>2026-05-03T10:16:26Z</time></trkpt><trkpt lat="44.46524708918501" lon="7.884239099858437"><ele>277.5</ele><time>2026-05-03T10:16:27Z</time></trkpt><trkpt lat="44.46547416671688" lon="7.884193177809013"><ele>280.0</ele><time>2026-05-03T10:16:28Z</time></trkpt><trkpt lat="44.465703817953404" lon="7.884150755056311"><ele>280.0</ele><time>2026-05-03T10:16:29Z</time></trkpt><trkpt lat="44.465939621054595" lon="7.884124263875566"><ele>280.0</ele><time>2026-05-03T10:16:30Z</time></trkpt><trkpt lat="44.466177412501374" lon="7.884111582892466"><ele>282.5</ele><time>2026-05-03T10:16:31Z</time></trkpt><trkpt lat="44.46642033557512" lon="7.884103580631739"><ele>285.0</ele><time>2026-05-03T10:16:32Z</time></trkpt><trkpt lat="44.46665578831223" lon="7.884119022669712"><ele>285.0</ele><time>2026-05-03T10:16:33Z</time></trkpt><trkpt lat="44.46689640397979" lon="7.884156896810541"><ele>285.0</ele><time>2026-05-03T10:16:34Z</time></trkpt><trkpt lat="44.467135354734374" lon="7.884204227126699"><ele>285.0</ele><time>2026-05-03T10:16:35Z</time></trkpt><trkpt lat="44.467368220282246" lon="7.884269131191035"><ele>285.0</ele><time>2026-05-03T10:16:36Z</time></trkpt><trkpt lat="44.46758519261775" lon="7.884334360784146"><ele>285.0</ele><time>2026-05-03T10:16:37Z</time></trkpt><trkpt lat="44.46779497203892" lon="7.884405541820408"><ele>285.0</ele><time>2026-05-03T10:16:38Z</time></trkpt><trkpt lat="44.4680042892151" lon="7.884494691414283"><ele>285.0</ele><time>2026-05-03T10:16:39Z</time></trkpt><trkpt lat="44.468213139129304" lon="7.884609092909012"><ele>285.0</ele><time>2026-05-03T10:16:40Z</time></trkpt><trkpt lat="44.46839667424985" lon="7.884718297526839"><ele>285.0</ele><time>2026-05-03T10:16:41Z</time></trkpt><trkpt lat="44.468574217395506" lon="7.884838039477086"><ele>285.0</ele><time>2026-05-03T10:16:42Z</time></trkpt><trkpt lat="44.46874265894216" lon="7.884960187788786"><ele>285.3333333333333</ele><time>2026-05-03T10:16:43Z</time></trkpt><trkpt lat="44.468900041640744" lon="7.885087089894288"><ele>285.66666666666663</ele><time>2026-05-03T10:16:44Z</time></trkpt><trkpt lat="44.46905484404726" lon="7.885211889518417"><ele>286.0</ele><time>2026-05-03T10:16:45Z</time></trkpt><trkpt lat="44.46920094123876" lon="7.885331995773663"><ele>286.0</ele><time>2026-05-03T10:16:46Z</time></trkpt><trkpt lat="44.46933062885816" lon="7.885464003333761"><ele>286.0</ele><time>2026-05-03T10:16:47Z</time></trkpt><trkpt lat="44.46943190295627" lon="7.885593192973728"><ele>286.0</ele><time>2026-05-03T10:16:48Z</time></trkpt><trkpt lat="44.4695631505306" lon="7.885731882570766"><ele>286.0</ele><time>2026-05-03T10:16:49Z</time></trkpt><trkpt lat="44.46967534070063" lon="7.885869806136799"><ele>286.0</ele><time>2026-05-03T10:16:50Z</time></trkpt><trkpt lat="44.469788208338734" lon="7.88599587015917"><ele>286.0</ele><time>2026-05-03T10:16:51Z</time></trkpt><trkpt lat="44.46988662850439" lon="7.886132064624105"><ele>286.0</ele><time>2026-05-03T10:16:52Z</time></trkpt><trkpt lat="44.46998648370669" lon="7.886261107264398"><ele>286.25</ele><time>2026-05-03T10:16:53Z</time></trkpt><trkpt lat="44.47008990335753" lon="7.8863868298504185"><ele>286.5</ele><time>2026-05-03T10:16:54Z</time></trkpt><trkpt lat="44.47017289601653" lon="7.886544462619486"><ele>286.75</ele><time>2026-05-03T10:16:55Z</time></trkpt><trkpt lat="44.470272620227966" lon="7.886685324987252"><ele>287.0</ele><time>2026-05-03T10:16:56Z</time></trkpt><trkpt lat="44.47037971050752" lon="7.886829732062862"><ele>286.33333333333337</ele><time>2026-05-03T10:16:57Z</time></trkpt><trkpt lat="44.470489821414915" lon="7.886976962257969"><ele>285.6666666666667</ele><time>2026-05-03T10:16:58Z</time></trkpt><trkpt lat="44.470610426190724" lon="7.887135720532624"><ele>285.0</ele><time>2026-05-03T10:16:59Z</time></trkpt><trkpt lat="44.470749371003244" lon="7.887289511142418"><ele>285.0</ele><time>2026-05-03T10:17:00Z</time></trkpt><trkpt lat="44.47087985133276" lon="7.887476716308987"><ele>285.0</ele><time>2026-05-03T10:17:00.999Z</time></trkpt><trkpt lat="44.47102771539155" lon="7.887668702124231"><ele>285.0</ele><time>2026-05-03T10:17:01.999Z</time></trkpt><trkpt lat="44.471186343769766" lon="7.887855957740456"><ele>283.6666666666667</ele><time>2026-05-03T10:17:02.999Z</time></trkpt><trkpt lat="44.47134558331731" lon="7.888029085454837"><ele>282.33333333333337</ele><time>2026-05-03T10:17:03.999Z</time></trkpt><trkpt lat="44.47152284204775" lon="7.8881929194955624"><ele>281.0</ele><time>2026-05-03T10:17:04.999Z</time></trkpt><trkpt lat="44.47170294146632" lon="7.888379548990754"><ele>280.0</ele><time>2026-05-03T10:17:05.999Z</time></trkpt><trkpt lat="44.47190655331433" lon="7.888528322210662"><ele>279.0</ele><time>2026-05-03T10:17:06.999Z</time></trkpt><trkpt lat="44.47210166862028" lon="7.888710793941158"><ele>279.0</ele><time>2026-05-03T10:17:07.999Z</time></trkpt><trkpt lat="44.4722971361141" lon="7.888826191934437"><ele>279.0</ele><time>2026-05-03T10:17:08.999Z</time></trkpt><trkpt lat="44.47249870767198" lon="7.888978018954205"><ele>279.0</ele><time>2026-05-03T10:17:09.999Z</time></trkpt><trkpt lat="44.47270549431562" lon="7.889103072975672"><ele>279.0</ele><time>2026-05-03T10:17:10.999Z</time></trkpt><trkpt lat="44.47290718788226" lon="7.889213703239045"><ele>279.0</ele><time>2026-05-03T10:17:11.999Z</time></trkpt><trkpt lat="44.47312067025975" lon="7.889316909532594"><ele>279.0</ele><time>2026-05-03T10:17:12.999Z</time></trkpt><trkpt lat="44.47332767614084" lon="7.889402589409646"><ele>278.5</ele><time>2026-05-03T10:17:13.999Z</time></trkpt><trkpt lat="44.47354411898572" lon="7.889480035764592"><ele>278.0</ele><time>2026-05-03T10:17:14.999Z</time></trkpt><trkpt lat="44.47377362022545" lon="7.889529006965745"><ele>278.0</ele><time>2026-05-03T10:17:15.999Z</time></trkpt><trkpt lat="44.47400469539408" lon="7.889588265325127"><ele>278.0</ele><time>2026-05-03T10:17:16.999Z</time></trkpt><trkpt lat="44.47423561319535" lon="7.889632766857769"><ele>278.0</ele><time>2026-05-03T10:17:17.999Z</time></trkpt><trkpt lat="44.47446329194709" lon="7.88968512271075"><ele>278.0</ele><time>2026-05-03T10:17:18.999Z</time></trkpt><trkpt lat="44.474688938965976" lon="7.889703340429508"><ele>277.33333333333337</ele><time>2026-05-03T10:17:19.999Z</time></trkpt><trkpt lat="44.474908425393934" lon="7.889686758406643"><ele>276.6666666666667</ele><time>2026-05-03T10:17:20.999Z</time></trkpt><trkpt lat="44.47511427698121" lon="7.889690249925612"><ele>276.0</ele><time>2026-05-03T10:17:21.999Z</time></trkpt><trkpt lat="44.47531461022803" lon="7.889683488402776"><ele>275.3333333333333</ele><time>2026-05-03T10:17:22.999Z</time></trkpt><trkpt lat="44.475507704410255" lon="7.889681422200224"><ele>274.66666666666663</ele><time>2026-05-03T10:17:23.999Z</time></trkpt><trkpt lat="44.47568449700084" lon="7.889679076146929"><ele>274.0</ele><time>2026-05-03T10:17:24.999Z</time></trkpt><trkpt lat="44.475865086271455" lon="7.889672760181358"><ele>274.0</ele><time>2026-05-03T10:17:25.999Z</time></trkpt><trkpt lat="44.476036026793565" lon="7.889699099140079"><ele>274.0</ele><time>2026-05-03T10:17:26.999Z</time></trkpt><trkpt lat="44.476188550418634" lon="7.889692408781621"><ele>274.0</ele><time>2026-05-03T10:17:27.999Z</time></trkpt><trkpt lat="44.47636158003853" lon="7.889721129247448"><ele>274.0</ele><time>2026-05-03T10:17:28.999Z</time></trkpt><trkpt lat="44.476530245520905" lon="7.889756553777871"><ele>274.0</ele><time>2026-05-03T10:17:29.999Z</time></trkpt><trkpt lat="44.476694642318016" lon="7.889801708347257"><ele>274.0</ele><time>2026-05-03T10:17:30.999Z</time></trkpt><trkpt lat="44.47685828781233" lon="7.889860909928423"><ele>274.0</ele><time>2026-05-03T10:17:31.999Z</time></trkpt><trkpt lat="44.47702259299559" lon="7.889931222564544"><ele>274.0</ele><time>2026-05-03T10:17:32.999Z</time></trkpt><trkpt lat="44.477194960075686" lon="7.889999943463867"><ele>274.0</ele><time>2026-05-03T10:17:33.999Z</time></trkpt><trkpt lat="44.477355724991966" lon="7.890054890275083"><ele>274.66666666666663</ele><time>2026-05-03T10:17:34.999Z</time></trkpt><trkpt lat="44.477520080656994" lon="7.890111835424572"><ele>275.3333333333333</ele><time>2026-05-03T10:17:35.999Z</time></trkpt><trkpt lat="44.47768055766703" lon="7.890174695446555"><ele>276.0</ele><time>2026-05-03T10:17:36.999Z</time></trkpt><trkpt lat="44.47783600833859" lon="7.890231518134308"><ele>275.25</ele><time>2026-05-03T10:17:37.999Z</time></trkpt><trkpt lat="44.47798078587617" lon="7.890278702803244"><ele>274.5</ele><time>2026-05-03T10:17:38.999Z</time></trkpt><trkpt lat="44.47813083293084" lon="7.89031735891675"><ele>273.75</ele><time>2026-05-03T10:17:39.999Z</time></trkpt><trkpt lat="44.478273138638606" lon="7.890346945551162"><ele>273.0</ele><time>2026-05-03T10:17:40.999Z</time></trkpt><trkpt lat="44.47841949644431" lon="7.890367892451507"><ele>273.0</ele><time>2026-05-03T10:17:41.999Z</time></trkpt><trkpt lat="44.478565177278426" lon="7.890359972090411"><ele>273.0</ele><time>2026-05-03T10:17:42.999Z</time></trkpt><trkpt lat="44.47869684512173" lon="7.890347741277968"><ele>273.0</ele><time>2026-05-03T10:17:43.999Z</time></trkpt><trkpt lat="44.478826421313165" lon="7.8903337820500505"><ele>273.0</ele><time>2026-05-03T10:17:44.999Z</time></trkpt><trkpt lat="44.478937418828515" lon="7.890306036797718"><ele>273.2</ele><time>2026-05-03T10:17:45.999Z</time></trkpt><trkpt lat="44.47904239500347" lon="7.890276887726544"><ele>273.4</ele><time>2026-05-03T10:17:46.999Z</time></trkpt><trkpt lat="44.47912396894869" lon="7.890268377265553"><ele>273.59999999999997</ele><time>2026-05-03T10:17:47.999Z</time></trkpt><trkpt lat="44.47921374731639" lon="7.890272514089443"><ele>273.8</ele><time>2026-05-03T10:17:48.999Z</time></trkpt><trkpt lat="44.47930986643435" lon="7.890297050590774"><ele>274.0</ele><time>2026-05-03T10:17:49.999Z</time></trkpt><trkpt lat="44.47939094199862" lon="7.8903098758948484"><ele>274.0</ele><time>2026-05-03T10:17:50.999Z</time></trkpt><trkpt lat="44.47946589369539" lon="7.890324714321302"><ele>274.0</ele><time>2026-05-03T10:17:51.999Z</time></trkpt><trkpt lat="44.47953444052811" lon="7.890304196930448"><ele>274.0</ele><time>2026-05-03T10:17:52.999Z</time></trkpt><trkpt lat="44.479596852946976" lon="7.890238862963342"><ele>274.0</ele><time>2026-05-03T10:17:53.999Z</time></trkpt><trkpt lat="44.47963817317541" lon="7.890125918645022"><ele>274.0</ele><time>2026-05-03T10:17:54.999Z</time></trkpt><trkpt lat="44.479644980229594" lon="7.889999380637035"><ele>274.0</ele><time>2026-05-03T10:17:55.999Z</time></trkpt><trkpt lat="44.479543248536565" lon="7.889883062923028"><ele>274.0</ele><time>2026-05-03T10:17:56.999Z</time></trkpt><trkpt lat="44.479504683431045" lon="7.889771719230174"><ele>274.0</ele><time>2026-05-03T10:17:57.999Z</time></trkpt><trkpt lat="44.479477963299566" lon="7.889634471257233"><ele>274.0</ele><time>2026-05-03T10:17:58.999Z</time></trkpt><trkpt lat="44.47946446373093" lon="7.8894748145105265"><ele>274.0</ele><time>2026-05-03T10:17:59.999Z</time></trkpt><trkpt lat="44.47945140437185" lon="7.889306133387471"><ele>274.0</ele><time>2026-05-03T10:18:00.999Z</time></trkpt><trkpt lat="44.47943564979835" lon="7.889108380892955"><ele>274.5</ele><time>2026-05-03T10:18:01.999Z</time></trkpt><trkpt lat="44.47942317322044" lon="7.888907155239618"><ele>275.0</ele><time>2026-05-03T10:18:02.999Z</time></trkpt><trkpt lat="44.479408100858315" lon="7.888710924665887"><ele>275.5</ele><time>2026-05-03T10:18:03.999Z</time></trkpt><trkpt lat="44.47939074372095" lon="7.888503116917559"><ele>276.0</ele><time>2026-05-03T10:18:04.998Z</time></trkpt><trkpt lat="44.479386271004934" lon="7.8883236527961005"><ele>276.40000000000003</ele><time>2026-05-03T10:18:05.998Z</time></trkpt><trkpt lat="44.47939031633489" lon="7.888186807924017"><ele>276.8</ele><time>2026-05-03T10:18:06.998Z</time></trkpt><trkpt lat="44.47943243431122" lon="7.888043162114934"><ele>277.20000000000005</ele><time>2026-05-03T10:18:07.998Z</time></trkpt><trkpt lat="44.47949806839242" lon="7.887906859958701"><ele>277.6</ele><time>2026-05-03T10:18:08.998Z</time></trkpt><trkpt lat="44.47959266692982" lon="7.8878099410410805"><ele>278.0</ele><time>2026-05-03T10:18:09.998Z</time></trkpt><trkpt lat="44.47968132551866" lon="7.8876939772591115"><ele>278.4</ele><time>2026-05-03T10:18:10.998Z</time></trkpt><trkpt lat="44.47976363280608" lon="7.887603699355057"><ele>278.8</ele><time>2026-05-03T10:18:11.998Z</time></trkpt><trkpt lat="44.479837092882605" lon="7.8874918492498605"><ele>279.2</ele><time>2026-05-03T10:18:13Z</time></trkpt><trkpt lat="44.479886674954784" lon="7.887354314828079"><ele>279.6</ele><time>2026-05-03T10:18:14Z</time></trkpt><trkpt lat="44.47990787591306" lon="7.8871939933126365"><ele>280.0</ele><time>2026-05-03T10:18:15Z</time></trkpt><trkpt lat="44.47990406102275" lon="7.887029911461708"><ele>283.5</ele><time>2026-05-03T10:18:16Z</time></trkpt><trkpt lat="44.479862785824984" lon="7.886850960015132"><ele>287.0</ele><time>2026-05-03T10:18:17Z</time></trkpt><trkpt lat="44.47983231982721" lon="7.886648117225865"><ele>290.5</ele><time>2026-05-03T10:18:18Z</time></trkpt><trkpt lat="44.4797903969838" lon="7.886440069822705"><ele>294.0</ele><time>2026-05-03T10:18:19Z</time></trkpt><trkpt lat="44.47975163700283" lon="7.886237675110874"><ele>297.6666666666667</ele><time>2026-05-03T10:18:20Z</time></trkpt><trkpt lat="44.47970390612054" lon="7.886020081357491"><ele>301.33333333333337</ele><time>2026-05-03T10:18:21Z</time></trkpt><trkpt lat="44.47965704321075" lon="7.885797254476026"><ele>305.0</ele><time>2026-05-03T10:18:22Z</time></trkpt><trkpt lat="44.47960050183926" lon="7.8855714335157625"><ele>303.6666666666667</ele><time>2026-05-03T10:18:23Z</time></trkpt><trkpt lat="44.47953400505032" lon="7.885330669275423"><ele>302.3333333333333</ele><time>2026-05-03T10:18:24Z</time></trkpt><trkpt lat="44.47944970264936" lon="7.8851064097162284"><ele>301.0</ele><time>2026-05-03T10:18:25Z</time></trkpt><trkpt lat="44.479353844906555" lon="7.884888884973393"><ele>301.0</ele><time>2026-05-03T10:18:26Z</time></trkpt><trkpt lat="44.47923403232043" lon="7.884675478348919"><ele>301.0</ele><time>2026-05-03T10:18:27Z</time></trkpt><trkpt lat="44.47910211891369" lon="7.884482242791272"><ele>301.0</ele><time>2026-05-03T10:18:28Z</time></trkpt><trkpt lat="44.478977186820764" lon="7.884302548305136"><ele>299.25</ele><time>2026-05-03T10:18:29Z</time></trkpt><trkpt lat="44.478864154985146" lon="7.884117231233192"><ele>297.5</ele><time>2026-05-03T10:18:30Z</time></trkpt><trkpt lat="44.478784195097404" lon="7.883983538870841"><ele>295.75</ele><time>2026-05-03T10:18:31Z</time></trkpt><trkpt lat="44.47871355537557" lon="7.883847844949534"><ele>294.0</ele><time>2026-05-03T10:18:32Z</time></trkpt><trkpt lat="44.478656550588944" lon="7.883726475826851"><ele>294.0</ele><time>2026-05-03T10:18:33Z</time></trkpt><trkpt lat="44.4786329634495" lon="7.88360229175337"><ele>294.0</ele><time>2026-05-03T10:18:34Z</time></trkpt><trkpt lat="44.47863583435946" lon="7.883483585960597"><ele>294.0</ele><time>2026-05-03T10:18:35Z</time></trkpt><trkpt lat="44.47864576457066" lon="7.883363977171144"><ele>294.0</ele><time>2026-05-03T10:18:36Z</time></trkpt><trkpt lat="44.47869363879796" lon="7.883271118516746"><ele>294.0</ele><time>2026-05-03T10:18:37Z</time></trkpt><trkpt lat="44.478768726675334" lon="7.8832011141928"><ele>294.0</ele><time>2026-05-03T10:18:38Z</time></trkpt><trkpt lat="44.47886201015797" lon="7.883150646635436"><ele>300.0</ele><time>2026-05-03T10:18:39Z</time></trkpt><trkpt lat="44.47895486810035" lon="7.88308001778517"><ele>306.0</ele><time>2026-05-03T10:18:40Z</time></trkpt><trkpt lat="44.47905519706341" lon="7.883000952999621"><ele>312.0</ele><time>2026-05-03T10:18:41Z</time></trkpt><trkpt lat="44.479141580211994" lon="7.882926585342215"><ele>318.0</ele><time>2026-05-03T10:18:42Z</time></trkpt><trkpt lat="44.47920561745772" lon="7.882881199292892"><ele>324.0</ele><time>2026-05-03T10:18:43Z</time></trkpt><trkpt lat="44.47926058850224" lon="7.882784657251661"><ele>324.0</ele><time>2026-05-03T10:18:44Z</time></trkpt><trkpt lat="44.479293958397314" lon="7.882675577861256"><ele>324.0</ele><time>2026-05-03T10:18:45Z</time></trkpt><trkpt lat="44.479306414655184" lon="7.88256643080487"><ele>324.0</ele><time>2026-05-03T10:18:46Z</time></trkpt><trkpt lat="44.47930226879794" lon="7.882449754337161"><ele>324.0</ele><time>2026-05-03T10:18:47Z</time></trkpt><trkpt lat="44.47926206180099" lon="7.882371451091952"><ele>324.0</ele><time>2026-05-03T10:18:48Z</time></trkpt><trkpt lat="44.479190601284984" lon="7.882327547081427"><ele>324.0</ele><time>2026-05-03T10:18:49Z</time></trkpt><trkpt lat="44.47904905200123" lon="7.882315203718382"><ele>324.4</ele><time>2026-05-03T10:18:51Z</time></trkpt><trkpt lat="44.47895987757101" lon="7.882383066292736"><ele>324.79999999999995</ele><time>2026-05-03T10:18:52Z</time></trkpt><trkpt lat="44.478869435083304" lon="7.8824280674045095"><ele>325.20000000000005</ele><time>2026-05-03T10:18:53Z</time></trkpt><trkpt lat="44.47877869067611" lon="7.882510663518412"><ele>325.6</ele><time>2026-05-03T10:18:54Z</time></trkpt><trkpt lat="44.47868819361283" lon="7.882508513321357"><ele>326.0</ele><time>2026-05-03T10:18:55Z</time></trkpt><trkpt lat="44.4786103753582" lon="7.882462292320674"><ele>323.25</ele><time>2026-05-03T10:18:56Z</time></trkpt><trkpt lat="44.4785334736445" lon="7.8823891383115425"><ele>320.5</ele><time>2026-05-03T10:18:57Z</time></trkpt><trkpt lat="44.478448371448465" lon="7.8822842392261245"><ele>317.75</ele><time>2026-05-03T10:18:58Z</time></trkpt><trkpt lat="44.47835173992743" lon="7.8821823943398"><ele>315.0</ele><time>2026-05-03T10:18:59Z</time></trkpt><trkpt lat="44.47824613046319" lon="7.882062884436138"><ele>315.0</ele><time>2026-05-03T10:19:00Z</time></trkpt><trkpt lat="44.478135495064336" lon="7.881933352236137"><ele>315.0</ele><time>2026-05-03T10:19:01Z</time></trkpt><trkpt lat="44.478032895253364" lon="7.881804109709866"><ele>315.0</ele><time>2026-05-03T10:19:02Z</time></trkpt><trkpt lat="44.4779274927382" lon="7.881655046857119"><ele>315.0</ele><time>2026-05-03T10:19:03Z</time></trkpt><trkpt lat="44.477843480415494" lon="7.881494050624235"><ele>314.6</ele><time>2026-05-03T10:19:04Z</time></trkpt><trkpt lat="44.47778684488428" lon="7.881345894449082"><ele>314.2</ele><time>2026-05-03T10:19:04.999Z</time></trkpt><trkpt lat="44.4777448021957" lon="7.881217617216329"><ele>313.8</ele><time>2026-05-03T10:19:05.999Z</time></trkpt><trkpt lat="44.477696630032774" lon="7.881125299909308"><ele>313.4</ele><time>2026-05-03T10:19:06.999Z</time></trkpt><trkpt lat="44.47766188471026" lon="7.881029615465948"><ele>313.0</ele><time>2026-05-03T10:19:07.999Z</time></trkpt><trkpt lat="44.47762628212527" lon="7.880924295060707"><ele>313.0</ele><time>2026-05-03T10:19:09.999Z</time></trkpt><trkpt lat="44.47770454926198" lon="7.88085925130956"><ele>313.0</ele><time>2026-05-03T10:19:11.999Z</time></trkpt><trkpt lat="44.477741471049306" lon="7.88101173156484"><ele>313.0</ele><time>2026-05-03T10:19:13.999Z</time></trkpt><trkpt lat="44.47777989299043" lon="7.881123033757947"><ele>313.0</ele><time>2026-05-03T10:19:14.999Z</time></trkpt><trkpt lat="44.47782730664386" lon="7.881249247657098"><ele>313.0</ele><time>2026-05-03T10:19:15.999Z</time></trkpt><trkpt lat="44.47789535610051" lon="7.881384380650499"><ele>313.5</ele><time>2026-05-03T10:19:16.999Z</time></trkpt><trkpt lat="44.477988595722" lon="7.8815128848849"><ele>314.0</ele><time>2026-05-03T10:19:17.999Z</time></trkpt><trkpt lat="44.47810640686085" lon="7.881625364367058"><ele>314.5</ele><time>2026-05-03T10:19:18.999Z</time></trkpt><trkpt lat="44.47823278616572" lon="7.88172633561578"><ele>315.0</ele><time>2026-05-03T10:19:19.999Z</time></trkpt><trkpt lat="44.47835703709713" lon="7.881819706329721"><ele>315.0</ele><time>2026-05-03T10:19:20.999Z</time></trkpt><trkpt lat="44.4784560434002" lon="7.881909783823131"><ele>315.0</ele><time>2026-05-03T10:19:21.999Z</time></trkpt><trkpt lat="44.47853226853842" lon="7.8819838254254195"><ele>315.0</ele><time>2026-05-03T10:19:22.999Z</time></trkpt><trkpt lat="44.47859559192066" lon="7.882016289797066"><ele>315.0</ele><time>2026-05-03T10:19:23.999Z</time></trkpt><trkpt lat="44.478664315388905" lon="7.882074983251695"><ele>315.0</ele><time>2026-05-03T10:19:25.999Z</time></trkpt><trkpt lat="44.478754514988" lon="7.881986366584441"><ele>315.0</ele><time>2026-05-03T10:19:27.999Z</time></trkpt><trkpt lat="44.4787239863433" lon="7.881878498409355"><ele>315.0</ele><time>2026-05-03T10:19:28.999Z</time></trkpt><trkpt lat="44.47863095442161" lon="7.8818298307889085"><ele>315.0</ele><time>2026-05-03T10:19:29.999Z</time></trkpt><trkpt lat="44.478567227800696" lon="7.881758400534565"><ele>315.0</ele><time>2026-05-03T10:19:30.999Z</time></trkpt><trkpt lat="44.4784752045079" lon="7.881690451923144"><ele>315.0</ele><time>2026-05-03T10:19:31.999Z</time></trkpt><trkpt lat="44.47838819607744" lon="7.8816007092270155"><ele>320.0</ele><time>2026-05-03T10:19:32.999Z</time></trkpt><trkpt lat="44.478295398623466" lon="7.8814944572847905"><ele>325.0</ele><time>2026-05-03T10:19:33.999Z</time></trkpt><trkpt lat="44.47820497089666" lon="7.881361621194398"><ele>330.0</ele><time>2026-05-03T10:19:34.999Z</time></trkpt><trkpt lat="44.478146122842354" lon="7.881240228465895"><ele>335.0</ele><time>2026-05-03T10:19:35.999Z</time></trkpt><trkpt lat="44.478094383235614" lon="7.881123662348886"><ele>335.0</ele><time>2026-05-03T10:19:36.999Z</time></trkpt><trkpt lat="44.4780555001841" lon="7.8809879898510875"><ele>335.0</ele><time>2026-05-03T10:19:37.999Z</time></trkpt><trkpt lat="44.47802343228426" lon="7.880838557225203"><ele>335.0</ele><time>2026-05-03T10:19:38.999Z</time></trkpt><trkpt lat="44.47799806501211" lon="7.880702920651588"><ele>335.0</ele><time>2026-05-03T10:19:39.999Z</time></trkpt><trkpt lat="44.477978108233344" lon="7.880561692865821"><ele>335.0</ele><time>2026-05-03T10:19:40.999Z</time></trkpt><trkpt lat="44.47795007932403" lon="7.88042817032005"><ele>333.83333333333337</ele><time>2026-05-03T10:19:41.999Z</time></trkpt><trkpt lat="44.47792265545579" lon="7.880310096335349"><ele>332.6666666666667</ele><time>2026-05-03T10:19:42.999Z</time></trkpt><trkpt lat="44.47790704472254" lon="7.880213157653596"><ele>331.5</ele><time>2026-05-03T10:19:43.999Z</time></trkpt><trkpt lat="44.477904553060704" lon="7.88011528028383"><ele>330.3333333333333</ele><time>2026-05-03T10:19:44.999Z</time></trkpt><trkpt lat="44.477924001816056" lon="7.8799985542365025"><ele>329.16666666666663</ele><time>2026-05-03T10:19:45.999Z</time></trkpt><trkpt lat="44.47795279958405" lon="7.879903411770576"><ele>328.0</ele><time>2026-05-03T10:19:46.999Z</time></trkpt><trkpt lat="44.47797585774959" lon="7.879796361000487"><ele>333.3333333333333</ele><time>2026-05-03T10:19:47.999Z</time></trkpt><trkpt lat="44.47799927467889" lon="7.879700820677977"><ele>338.66666666666663</ele><time>2026-05-03T10:19:48.999Z</time></trkpt><trkpt lat="44.478019481477766" lon="7.879614123822375"><ele>344.0</ele><time>2026-05-03T10:19:49.999Z</time></trkpt><trkpt lat="44.47804123357614" lon="7.879505883267722"><ele>349.3333333333333</ele><time>2026-05-03T10:19:50.999Z</time></trkpt><trkpt lat="44.478049318391825" lon="7.8793781915117505"><ele>354.6666666666667</ele><time>2026-05-03T10:19:51.999Z</time></trkpt><trkpt lat="44.47804851690018" lon="7.879277619573954"><ele>360.0</ele><time>2026-05-03T10:19:52.999Z</time></trkpt><trkpt lat="44.47803797130383" lon="7.879165487427983"><ele>360.3333333333333</ele><time>2026-05-03T10:19:53.999Z</time></trkpt><trkpt lat="44.47802748517187" lon="7.8790754828319844"><ele>360.6666666666667</ele><time>2026-05-03T10:19:54.999Z</time></trkpt><trkpt lat="44.47803937950813" lon="7.878941458922162"><ele>361.0</ele><time>2026-05-03T10:19:56.999Z</time></trkpt><trkpt lat="44.47812756075014" lon="7.878829597501107"><ele>361.33333333333337</ele><time>2026-05-03T10:19:58.999Z</time></trkpt><trkpt lat="44.47817928757556" lon="7.878763400704298"><ele>361.6666666666667</ele><time>2026-05-03T10:19:59.999Z</time></trkpt><trkpt lat="44.47823495874454" lon="7.878698612857193"><ele>362.0</ele><time>2026-05-03T10:20:00.999Z</time></trkpt><trkpt lat="44.47829646550868" lon="7.878645421278495"><ele>362.0</ele><time>2026-05-03T10:20:03.999Z</time></trkpt><trkpt lat="44.47825395949576" lon="7.878882936484034"><ele>362.0</ele><time>2026-05-03T10:20:07.998Z</time></trkpt><trkpt lat="44.47824172722021" lon="7.8789851632685535"><ele>362.0</ele><time>2026-05-03T10:20:08.998Z</time></trkpt><trkpt lat="44.47824970744839" lon="7.879091658783763"><ele>362.0</ele><time>2026-05-03T10:20:09.998Z</time></trkpt><trkpt lat="44.47826556193022" lon="7.879264920562217"><ele>361.6</ele><time>2026-05-03T10:20:11.998Z</time></trkpt><trkpt lat="44.47831058489718" lon="7.879367027661968"><ele>361.20000000000005</ele><time>2026-05-03T10:20:13.998Z</time></trkpt><trkpt lat="44.47844496659705" lon="7.879475740192101"><ele>360.8</ele><time>2026-05-03T10:20:15.998Z</time></trkpt><trkpt lat="44.478520357955645" lon="7.87949236305513"><ele>360.4</ele><time>2026-05-03T10:20:16.998Z</time></trkpt><trkpt lat="44.47862417011698" lon="7.8794934707892335"><ele>360.0</ele><time>2026-05-03T10:20:19Z</time></trkpt><trkpt lat="44.478626952513714" lon="7.879627261870256"><ele>360.0</ele><time>2026-05-03T10:20:22Z</time></trkpt><trkpt lat="44.47862243211913" lon="7.879720140078571"><ele>360.0</ele><time>2026-05-03T10:20:23Z</time></trkpt><trkpt lat="44.47861134801892" lon="7.8798505270600625"><ele>360.0</ele><time>2026-05-03T10:20:25Z</time></trkpt><trkpt lat="44.47858916133511" lon="7.879952904382003"><ele>360.0</ele><time>2026-05-03T10:20:27Z</time></trkpt><trkpt lat="44.47868544356346" lon="7.880043031256247"><ele>360.0</ele><time>2026-05-03T10:20:29Z</time></trkpt><trkpt lat="44.478754562179155" lon="7.880073028093455"><ele>360.0</ele><time>2026-05-03T10:20:30Z</time></trkpt><trkpt lat="44.47884755381906" lon="7.880122872905449"><ele>360.5</ele><time>2026-05-03T10:20:31Z</time></trkpt><trkpt lat="44.478911321542085" lon="7.880130250476651"><ele>361.0</ele><time>2026-05-03T10:20:32Z</time></trkpt><trkpt lat="44.478984664321075" lon="7.8801783170089355"><ele>361.5</ele><time>2026-05-03T10:20:33Z</time></trkpt><trkpt lat="44.47905397594864" lon="7.880200700227612"><ele>362.0</ele><time>2026-05-03T10:20:35Z</time></trkpt><trkpt lat="44.47913233476184" lon="7.88020954211907"><ele>362.5</ele><time>2026-05-03T10:20:36Z</time></trkpt><trkpt lat="44.47924956620395" lon="7.880174204577459"><ele>363.0</ele><time>2026-05-03T10:20:37Z</time></trkpt><trkpt lat="44.479340126639286" lon="7.88002651553147"><ele>363.0</ele><time>2026-05-03T10:20:38Z</time></trkpt><trkpt lat="44.47938775829556" lon="7.879912657274584"><ele>363.0</ele><time>2026-05-03T10:20:39Z</time></trkpt><trkpt lat="44.479436639965286" lon="7.879806276019217"><ele>363.0</ele><time>2026-05-03T10:20:40Z</time></trkpt><trkpt lat="44.47953862567881" lon="7.8796379017657046"><ele>363.0</ele><time>2026-05-03T10:20:42Z</time></trkpt><trkpt lat="44.47960489777407" lon="7.879538244385407"><ele>363.0</ele><time>2026-05-03T10:20:43Z</time></trkpt><trkpt lat="44.47966815730278" lon="7.87953163689506"><ele>362.4</ele><time>2026-05-03T10:20:44Z</time></trkpt><trkpt lat="44.47975787221298" lon="7.879472541941628"><ele>361.79999999999995</ele><time>2026-05-03T10:20:46Z</time></trkpt><trkpt lat="44.479824223131345" lon="7.879426488156765"><ele>361.2</ele><time>2026-05-03T10:20:48Z</time></trkpt><trkpt lat="44.47980592334516" lon="7.8792522324263405"><ele>360.6</ele><time>2026-05-03T10:20:50Z</time></trkpt><trkpt lat="44.47979379187912" lon="7.879146124939367"><ele>360.0</ele><time>2026-05-03T10:20:52Z</time></trkpt><trkpt lat="44.47976477746165" lon="7.879002513354479"><ele>360.0</ele><time>2026-05-03T10:20:54Z</time></trkpt><trkpt lat="44.47975737782801" lon="7.878865511148218"><ele>360.0</ele><time>2026-05-03T10:20:56Z</time></trkpt><trkpt lat="44.479709482557595" lon="7.878784471969492"><ele>360.0</ele><time>2026-05-03T10:20:58Z</time></trkpt><trkpt lat="44.47968026998706" lon="7.878694237374716"><ele>360.0</ele><time>2026-05-03T10:21:00Z</time></trkpt><trkpt lat="44.479642207612734" lon="7.878572682032566"><ele>360.0</ele><time>2026-05-03T10:21:02Z</time></trkpt><trkpt lat="44.47959040560124" lon="7.878486797878479"><ele>360.0</ele><time>2026-05-03T10:21:04Z</time></trkpt><trkpt lat="44.47956987913612" lon="7.878382157417573"><ele>360.6666666666667</ele><time>2026-05-03T10:21:06Z</time></trkpt><trkpt lat="44.47953392146812" lon="7.878303586950199"><ele>361.3333333333333</ele><time>2026-05-03T10:21:07.999Z</time></trkpt><trkpt lat="44.47948648808776" lon="7.87823327002007"><ele>362.0</ele><time>2026-05-03T10:21:09.999Z</time></trkpt><trkpt lat="44.479425708944355" lon="7.878097598607742"><ele>362.66666666666663</ele><time>2026-05-03T10:21:11.999Z</time></trkpt><trkpt lat="44.47938369621458" lon="7.8780089455488875"><ele>363.3333333333333</ele><time>2026-05-03T10:21:12.999Z</time></trkpt><trkpt lat="44.479302522289544" lon="7.877933294515658"><ele>364.0</ele><time>2026-05-03T10:21:13.999Z</time></trkpt><trkpt lat="44.47923230426829" lon="7.877865857854693"><ele>364.0</ele><time>2026-05-03T10:21:14.999Z</time></trkpt><trkpt lat="44.47916856004558" lon="7.877808106022313"><ele>364.0</ele><time>2026-05-03T10:21:15.999Z</time></trkpt><trkpt lat="44.47910829589451" lon="7.8777622883050045"><ele>364.0</ele><time>2026-05-03T10:21:16.999Z</time></trkpt><trkpt lat="44.47903653941149" lon="7.877712519769171"><ele>364.0</ele><time>2026-05-03T10:21:18.999Z</time></trkpt><trkpt lat="44.47897221367646" lon="7.877691556843444"><ele>364.0</ele><time>2026-05-03T10:21:22.999Z</time></trkpt><trkpt lat="44.47890095096004" lon="7.877616993832656"><ele>364.0</ele><time>2026-05-03T10:21:27.999Z</time></trkpt><trkpt lat="44.478795281299476" lon="7.877576485733142"><ele>363.6</ele><time>2026-05-03T10:21:29.999Z</time></trkpt><trkpt lat="44.478691284031" lon="7.877488860739206"><ele>363.2</ele><time>2026-05-03T10:21:31.999Z</time></trkpt><trkpt lat="44.47861479592924" lon="7.877445478292112"><ele>362.8</ele><time>2026-05-03T10:21:32.999Z</time></trkpt><trkpt lat="44.47854005100551" lon="7.877411592466323"><ele>362.40000000000003</ele><time>2026-05-03T10:21:33.999Z</time></trkpt><trkpt lat="44.47846022753928" lon="7.877371101027442"><ele>362.0</ele><time>2026-05-03T10:21:34.999Z</time></trkpt><trkpt lat="44.47837590798076" lon="7.877343599144377"><ele>362.0</ele><time>2026-05-03T10:21:35.999Z</time></trkpt><trkpt lat="44.47830328531281" lon="7.877314930984833"><ele>362.0</ele><time>2026-05-03T10:21:36.999Z</time></trkpt><trkpt lat="44.47821168600381" lon="7.877272227151159"><ele>362.0</ele><time>2026-05-03T10:21:38.999Z</time></trkpt><trkpt lat="44.47816593203721" lon="7.877179966815207"><ele>362.0</ele><time>2026-05-03T10:21:40.999Z</time></trkpt><trkpt lat="44.47821749546518" lon="7.877017937911639"><ele>362.0</ele><time>2026-05-03T10:21:42.999Z</time></trkpt><trkpt lat="44.478250227006804" lon="7.876902377640375"><ele>362.0</ele><time>2026-05-03T10:21:43.999Z</time></trkpt><trkpt lat="44.478293566322655" lon="7.876811338860356"><ele>362.0</ele><time>2026-05-03T10:21:44.999Z</time></trkpt><trkpt lat="44.47832744083146" lon="7.876695437171193"><ele>362.0</ele><time>2026-05-03T10:21:45.999Z</time></trkpt><trkpt lat="44.47835249737884" lon="7.876553055386137"><ele>362.0</ele><time>2026-05-03T10:21:46.999Z</time></trkpt><trkpt lat="44.47832443163881" lon="7.876409357178484"><ele>362.0</ele><time>2026-05-03T10:21:47.999Z</time></trkpt><trkpt lat="44.47831768165673" lon="7.876289649218044"><ele>361.8</ele><time>2026-05-03T10:21:48.999Z</time></trkpt><trkpt lat="44.47831427311047" lon="7.876183217661159"><ele>361.6</ele><time>2026-05-03T10:21:49.999Z</time></trkpt><trkpt lat="44.478312885073336" lon="7.8760490202003375"><ele>361.40000000000003</ele><time>2026-05-03T10:21:50.999Z</time></trkpt><trkpt lat="44.47832819451254" lon="7.875902693947814"><ele>361.20000000000005</ele><time>2026-05-03T10:21:51.999Z</time></trkpt><trkpt lat="44.4783379580312" lon="7.8757273530725715"><ele>361.0</ele><time>2026-05-03T10:21:52.999Z</time></trkpt><trkpt lat="44.478337490248414" lon="7.875572843251435"><ele>361.0</ele><time>2026-05-03T10:21:53.999Z</time></trkpt><trkpt lat="44.47833569713509" lon="7.875444360037537"><ele>361.0</ele><time>2026-05-03T10:21:54.999Z</time></trkpt><trkpt lat="44.47833655217812" lon="7.8753422888649895"><ele>361.0</ele><time>2026-05-03T10:21:55.999Z</time></trkpt><trkpt lat="44.478325483343276" lon="7.8752368781483035"><ele>361.0</ele><time>2026-05-03T10:21:57.999Z</time></trkpt><trkpt lat="44.47832858807324" lon="7.875086105621731"><ele>361.0</ele><time>2026-05-03T10:21:59.999Z</time></trkpt><trkpt lat="44.47831419298582" lon="7.874966958963804"><ele>361.0</ele><time>2026-05-03T10:22:00.999Z</time></trkpt><trkpt lat="44.478311646238815" lon="7.8748515319875505"><ele>361.0</ele><time>2026-05-03T10:22:01.999Z</time></trkpt><trkpt lat="44.478306380935756" lon="7.87473151685504"><ele>361.0</ele><time>2026-05-03T10:22:02.999Z</time></trkpt><trkpt lat="44.47830221273894" lon="7.874627413241196"><ele>361.0</ele><time>2026-05-03T10:22:03.999Z</time></trkpt><trkpt lat="44.478305653501835" lon="7.874532168236816"><ele>361.0</ele><time>2026-05-03T10:22:04.999Z</time></trkpt><trkpt lat="44.47828823930958" lon="7.874437587633387"><ele>361.0</ele><time>2026-05-03T10:22:06.998Z</time></trkpt><trkpt lat="44.478457221300715" lon="7.874386351173137"><ele>361.0</ele><time>2026-05-03T10:22:08.998Z</time></trkpt><trkpt lat="44.478540090856406" lon="7.874390074758854"><ele>361.0</ele><time>2026-05-03T10:22:09.998Z</time></trkpt><trkpt lat="44.47860688158102" lon="7.874378665334805"><ele>361.0</ele><time>2026-05-03T10:22:10.998Z</time></trkpt><trkpt lat="44.4787199998558" lon="7.874354015219426"><ele>361.0</ele><time>2026-05-03T10:22:12.998Z</time></trkpt><trkpt lat="44.47879021122923" lon="7.8743452429460055"><ele>361.0</ele><time>2026-05-03T10:22:13.998Z</time></trkpt><trkpt lat="44.47887982672757" lon="7.874323564748949"><ele>361.0</ele><time>2026-05-03T10:22:14.998Z</time></trkpt><trkpt lat="44.47897183262219" lon="7.874303435641701"><ele>361.0</ele><time>2026-05-03T10:22:15.998Z</time></trkpt><trkpt lat="44.479050087250656" lon="7.8742903955641586"><ele>361.0</ele><time>2026-05-03T10:22:16.998Z</time></trkpt><trkpt lat="44.47912325855114" lon="7.874283285784774"><ele>361.0</ele><time>2026-05-03T10:22:17.998Z</time></trkpt><trkpt lat="44.47924964160289" lon="7.8742730838529775"><ele>361.0</ele><time>2026-05-03T10:22:19.998Z</time></trkpt><trkpt lat="44.47933900576278" lon="7.87426121619141"><ele>361.0</ele><time>2026-05-03T10:22:21.998Z</time></trkpt><trkpt lat="44.479417835281254" lon="7.874244182444484"><ele>361.0</ele><time>2026-05-03T10:22:28Z</time></trkpt><trkpt lat="44.479353430168665" lon="7.874015502213536"><ele>361.20000000000005</ele><time>2026-05-03T10:22:30Z</time></trkpt><trkpt lat="44.479394203764144" lon="7.873888037312555"><ele>361.40000000000003</ele><time>2026-05-03T10:22:31Z</time></trkpt><trkpt lat="44.4793617315643" lon="7.873742608604002"><ele>361.6</ele><time>2026-05-03T10:22:32Z</time></trkpt><trkpt lat="44.47933618364435" lon="7.873586707154238"><ele>361.8</ele><time>2026-05-03T10:22:33Z</time></trkpt><trkpt lat="44.47928521019978" lon="7.873427499306719"><ele>362.0</ele><time>2026-05-03T10:22:34Z</time></trkpt><trkpt lat="44.4792431030623" lon="7.873289851409951"><ele>362.40000000000003</ele><time>2026-05-03T10:22:35Z</time></trkpt><trkpt lat="44.479208257569795" lon="7.873145665813492"><ele>362.8</ele><time>2026-05-03T10:22:36Z</time></trkpt><trkpt lat="44.479164082432646" lon="7.873021647645398"><ele>363.2</ele><time>2026-05-03T10:22:37Z</time></trkpt><trkpt lat="44.479127721565455" lon="7.8729012361462205"><ele>363.6</ele><time>2026-05-03T10:22:38Z</time></trkpt><trkpt lat="44.47908552173069" lon="7.87277808321169"><ele>364.0</ele><time>2026-05-03T10:22:39Z</time></trkpt><trkpt lat="44.47905691925967" lon="7.872665662144686"><ele>364.0</ele><time>2026-05-03T10:22:40Z</time></trkpt><trkpt lat="44.47901831194539" lon="7.872523315799622"><ele>364.0</ele><time>2026-05-03T10:22:41Z</time></trkpt><trkpt lat="44.47897308799998" lon="7.872394441936204"><ele>364.0</ele><time>2026-05-03T10:22:42Z</time></trkpt><trkpt lat="44.47893116507208" lon="7.8722704181099425"><ele>364.0</ele><time>2026-05-03T10:22:43Z</time></trkpt><trkpt lat="44.478894288940054" lon="7.872153870384865"><ele>364.0</ele><time>2026-05-03T10:22:44Z</time></trkpt><trkpt lat="44.47884866694433" lon="7.87201406018558"><ele>364.0</ele><time>2026-05-03T10:22:45Z</time></trkpt><trkpt lat="44.47881218085116" lon="7.871890687042456"><ele>364.0</ele><time>2026-05-03T10:22:46Z</time></trkpt><trkpt lat="44.47877913299458" lon="7.87176959719948"><ele>364.0</ele><time>2026-05-03T10:22:47Z</time></trkpt><trkpt lat="44.478736121879855" lon="7.871631124999006"><ele>364.0</ele><time>2026-05-03T10:22:48Z</time></trkpt><trkpt lat="44.47869850173195" lon="7.871504398030237"><ele>364.0</ele><time>2026-05-03T10:22:49Z</time></trkpt><trkpt lat="44.478667997630815" lon="7.871376497905237"><ele>364.0</ele><time>2026-05-03T10:22:50Z</time></trkpt><trkpt lat="44.47863624201493" lon="7.871258833867695"><ele>364.0</ele><time>2026-05-03T10:22:51Z</time></trkpt><trkpt lat="44.47860693969929" lon="7.871144483151375"><ele>364.0</ele><time>2026-05-03T10:22:52Z</time></trkpt><trkpt lat="44.478591923149544" lon="7.8710336897140385"><ele>364.0</ele><time>2026-05-03T10:22:53Z</time></trkpt><trkpt lat="44.47860196823918" lon="7.870934689945727"><ele>364.0</ele><time>2026-05-03T10:22:54Z</time></trkpt><trkpt lat="44.478643489633214" lon="7.87080729794285"><ele>364.0</ele><time>2026-05-03T10:22:55Z</time></trkpt><trkpt lat="44.47870565253192" lon="7.870681250108791"><ele>363.79999999999995</ele><time>2026-05-03T10:22:56Z</time></trkpt><trkpt lat="44.478773120748464" lon="7.870539255855368"><ele>363.59999999999997</ele><time>2026-05-03T10:22:57Z</time></trkpt><trkpt lat="44.47883340910463" lon="7.870407371831376"><ele>363.4</ele><time>2026-05-03T10:22:58Z</time></trkpt><trkpt lat="44.47888878867198" lon="7.870279022727209"><ele>363.2</ele><time>2026-05-03T10:22:59Z</time></trkpt><trkpt lat="44.47894239512387" lon="7.8701594034988345"><ele>363.0</ele><time>2026-05-03T10:23:00Z</time></trkpt><trkpt lat="44.478990402413096" lon="7.8700627528127445"><ele>363.0</ele><time>2026-05-03T10:23:01Z</time></trkpt><trkpt lat="44.479051542816315" lon="7.869939032988089"><ele>363.0</ele><time>2026-05-03T10:23:03Z</time></trkpt><trkpt lat="44.47910878034368" lon="7.869860398286673"><ele>363.0</ele><time>2026-05-03T10:23:06Z</time></trkpt><trkpt lat="44.47918549153037" lon="7.870006261537676"><ele>363.0</ele><time>2026-05-03T10:23:07Z</time></trkpt><trkpt lat="44.47925819467766" lon="7.870077695625124"><ele>363.0</ele><time>2026-05-03T10:23:08Z</time></trkpt><trkpt lat="44.47934798186576" lon="7.870154998335445"><ele>363.0</ele><time>2026-05-03T10:23:09Z</time></trkpt><trkpt lat="44.4794385925786" lon="7.870254917119974"><ele>363.0</ele><time>2026-05-03T10:23:10Z</time></trkpt><trkpt lat="44.479546142907836" lon="7.870349336754245"><ele>363.0</ele><time>2026-05-03T10:23:10.999Z</time></trkpt><trkpt lat="44.47967174354937" lon="7.870470290312037"><ele>363.0</ele><time>2026-05-03T10:23:11.999Z</time></trkpt><trkpt lat="44.479795117462885" lon="7.870594609262949"><ele>363.0</ele><time>2026-05-03T10:23:12.999Z</time></trkpt><trkpt lat="44.47992115317695" lon="7.87071901787715"><ele>363.0</ele><time>2026-05-03T10:23:13.999Z</time></trkpt><trkpt lat="44.48001670192749" lon="7.87084222665992"><ele>363.0</ele><time>2026-05-03T10:23:14.999Z</time></trkpt><trkpt lat="44.480126734213286" lon="7.870948338959411"><ele>363.0</ele><time>2026-05-03T10:23:15.999Z</time></trkpt><trkpt lat="44.48026006008982" lon="7.871072535866795"><ele>363.0</ele><time>2026-05-03T10:23:16.999Z</time></trkpt><trkpt lat="44.48038552023011" lon="7.871215319454254"><ele>363.0</ele><time>2026-05-03T10:23:17.999Z</time></trkpt><trkpt lat="44.48049043189903" lon="7.87136651095605"><ele>363.0</ele><time>2026-05-03T10:23:18.999Z</time></trkpt><trkpt lat="44.48056824366712" lon="7.87154318914377"><ele>363.0</ele><time>2026-05-03T10:23:19.999Z</time></trkpt><trkpt lat="44.480634556208116" lon="7.871715304326787"><ele>363.0</ele><time>2026-05-03T10:23:20.999Z</time></trkpt><trkpt lat="44.48068400457681" lon="7.871836343600491"><ele>363.0</ele><time>2026-05-03T10:23:21.999Z</time></trkpt><trkpt lat="44.48072806929308" lon="7.871935588632774"><ele>363.0</ele><time>2026-05-03T10:23:22.999Z</time></trkpt><trkpt lat="44.480751983345414" lon="7.8720231178066005"><ele>363.0</ele><time>2026-05-03T10:23:23.999Z</time></trkpt><trkpt lat="44.48075440124017" lon="7.872165186196786"><ele>363.0</ele><time>2026-05-03T10:23:25.999Z</time></trkpt><trkpt lat="44.48065044630298" lon="7.872282923410169"><ele>363.0</ele><time>2026-05-03T10:23:27.999Z</time></trkpt><trkpt lat="44.48055814462884" lon="7.8723068281721815"><ele>363.0</ele><time>2026-05-03T10:23:28.999Z</time></trkpt><trkpt lat="44.480490955463274" lon="7.872342470516184"><ele>363.0</ele><time>2026-05-03T10:23:29.999Z</time></trkpt><trkpt lat="44.48042559105711" lon="7.872380840343769"><ele>363.0</ele><time>2026-05-03T10:23:30.999Z</time></trkpt><trkpt lat="44.480315582891386" lon="7.872445999874399"><ele>363.0</ele><time>2026-05-03T10:23:32.999Z</time></trkpt><trkpt lat="44.480241298056505" lon="7.8724623956704765"><ele>363.0</ele><time>2026-05-03T10:23:34.999Z</time></trkpt><trkpt lat="44.48024443787735" lon="7.872621167224231"><ele>363.0</ele><time>2026-05-03T10:23:44.999Z</time></trkpt><trkpt lat="44.48023747487199" lon="7.872713887223181"><ele>363.0</ele><time>2026-05-03T10:23:45.999Z</time></trkpt><trkpt lat="44.48023479448842" lon="7.872855935076519"><ele>363.0</ele><time>2026-05-03T10:23:47.999Z</time></trkpt><trkpt lat="44.480224675377315" lon="7.872974455625243"><ele>363.0</ele><time>2026-05-03T10:23:49.999Z</time></trkpt><trkpt lat="44.48021561056162" lon="7.87310154749955"><ele>363.0</ele><time>2026-05-03T10:23:52.016Z</time></trkpt><trkpt lat="44.48022579959725" lon="7.873212164752996"><ele>363.0</ele><time>2026-05-03T10:23:54.015Z</time></trkpt><trkpt lat="44.47974099146147" lon="7.872974168517448"><ele>363.0</ele><time>2026-05-03T10:24:02.416Z</time></trkpt><trkpt lat="44.479862063951195" lon="7.873093350380626"><ele>363.0</ele><time>2026-05-03T10:24:46.017Z</time></trkpt><trkpt lat="44.47956768006245" lon="7.873151753841618"><ele>364.0</ele><time>2026-05-03T10:25:14.612Z</time></trkpt></trkseg></trk></gpx>